<?xml version='1.0' encoding='UTF-8'?><gpx version="1.1" creator="JPX - https://github.com/jenetics/jpx" xmlns="http://www.topografix.com/GPX/1/1"><trk><trkseg><trkpt lat="43.97025863402315" lon="12.077551380026101"><ele>328.0</ele><time>2026-04-06T05:26:31Z</time></trkpt><trkpt lat="43.97032440473376" lon="12.077668952749384"><ele>328.0</ele><time>2026-04-06T05:26:33Z</time></trkpt><trkpt lat="43.97036319905169" lon="12.077853738817266"><ele>328.0</ele><time>2026-04-06T05:26:35Z</time></trkpt><trkpt lat="43.970380772098444" lon="12.077965157106432"><ele>328.0</ele><time>2026-04-06T05:26:36Z</time></trkpt><trkpt lat="43.97038952662141" lon="12.078072645144365"><ele>328.0</ele><time>2026-04-06T05:26:37Z</time></trkpt><trkpt lat="43.97039434800158" lon="12.07818093133909"><ele>327.5</ele><time>2026-04-06T05:26:38Z</time></trkpt><trkpt lat="43.97039848847562" lon="12.078295046832801"><ele>327.0</ele><time>2026-04-06T05:26:39Z</time></trkpt><trkpt lat="43.970394019511545" lon="12.07842679318277"><ele>326.5</ele><time>2026-04-06T05:26:40Z</time></trkpt><trkpt lat="43.97038469946586" lon="12.078527683304989"><ele>326.0</ele><time>2026-04-06T05:26:41Z</time></trkpt><trkpt lat="43.97036432430239" lon="12.078622499584919"><ele>325.5</ele><time>2026-04-06T05:26:42Z</time></trkpt><trkpt lat="43.970342145538176" lon="12.078721363147732"><ele>325.0</ele><time>2026-04-06T05:26:43Z</time></trkpt><trkpt lat="43.970312895070826" lon="12.078850549539863"><ele>325.0</ele><time>2026-04-06T05:26:44Z</time></trkpt><trkpt lat="43.97029514502724" lon="12.078967297615025"><ele>325.0</ele><time>2026-04-06T05:26:45Z</time></trkpt><trkpt lat="43.97026842783204" lon="12.079059570209374"><ele>325.0</ele><time>2026-04-06T05:26:46Z</time></trkpt><trkpt lat="43.97023203308269" lon="12.079209054740195"><ele>325.0</ele><time>2026-04-06T05:26:48Z</time></trkpt><trkpt lat="43.97018877177927" lon="12.079359736804625"><ele>325.0</ele><time>2026-04-06T05:26:50Z</time></trkpt><trkpt lat="43.970165505434274" lon="12.07946038080496"><ele>325.0</ele><time>2026-04-06T05:26:51Z</time></trkpt><trkpt lat="43.97015658542228" lon="12.07956489749539"><ele>325.0</ele><time>2026-04-06T05:26:52Z</time></trkpt><trkpt lat="43.97012423328572" lon="12.079667529563197"><ele>325.0</ele><time>2026-04-06T05:26:53Z</time></trkpt><trkpt lat="43.97009984148923" lon="12.079768555701278"><ele>325.0</ele><time>2026-04-06T05:26:54Z</time></trkpt><trkpt lat="43.97007927040778" lon="12.079859761105237"><ele>325.0</ele><time>2026-04-06T05:26:55Z</time></trkpt><trkpt lat="43.970058259231536" lon="12.07995848616531"><ele>325.0</ele><time>2026-04-06T05:26:56Z</time></trkpt><trkpt lat="43.970035727968124" lon="12.080081603407992"><ele>322.0</ele><time>2026-04-06T05:26:57Z</time></trkpt><trkpt lat="43.97000923657358" lon="12.080205996712909"><ele>319.0</ele><time>2026-04-06T05:26:58Z</time></trkpt><trkpt lat="43.96998635124385" lon="12.080320582009794"><ele>316.0</ele><time>2026-04-06T05:26:59Z</time></trkpt><trkpt lat="43.96995743561538" lon="12.080438304298976"><ele>313.0</ele><time>2026-04-06T05:27:00Z</time></trkpt><trkpt lat="43.96992701572546" lon="12.080569011966642"><ele>310.0</ele><time>2026-04-06T05:27:01Z</time></trkpt><trkpt lat="43.9698905308569" lon="12.080704339684578"><ele>310.6</ele><time>2026-04-06T05:27:02Z</time></trkpt><trkpt lat="43.9698573916209" lon="12.08083610131829"><ele>311.2</ele><time>2026-04-06T05:27:03Z</time></trkpt><trkpt lat="43.96982501803538" lon="12.080974439844693"><ele>311.8</ele><time>2026-04-06T05:27:04Z</time></trkpt><trkpt lat="43.969795753987" lon="12.081127156905207"><ele>312.4</ele><time>2026-04-06T05:27:05Z</time></trkpt><trkpt lat="43.96977836349954" lon="12.081283023173537"><ele>313.0</ele><time>2026-04-06T05:27:06Z</time></trkpt><trkpt lat="43.96976812449021" lon="12.08143258049868"><ele>313.0</ele><time>2026-04-06T05:27:07Z</time></trkpt><trkpt lat="43.969758335271386" lon="12.081593755921427"><ele>313.0</ele><time>2026-04-06T05:27:08Z</time></trkpt><trkpt lat="43.96975033907364" lon="12.08176424894633"><ele>313.0</ele><time>2026-04-06T05:27:09Z</time></trkpt><trkpt lat="43.96975070168233" lon="12.08193062424451"><ele>313.0</ele><time>2026-04-06T05:27:10Z</time></trkpt><trkpt lat="43.96975098514033" lon="12.082080428186785"><ele>311.6</ele><time>2026-04-06T05:27:11Z</time></trkpt><trkpt lat="43.96975520080274" lon="12.082201611617515"><ele>310.20000000000005</ele><time>2026-04-06T05:27:12Z</time></trkpt><trkpt lat="43.96975857963045" lon="12.08231574587548"><ele>308.8</ele><time>2026-04-06T05:27:13Z</time></trkpt><trkpt lat="43.96976353843521" lon="12.082404708875488"><ele>307.40000000000003</ele><time>2026-04-06T05:27:14Z</time></trkpt><trkpt lat="43.96976288169373" lon="12.082539547965878"><ele>306.0</ele><time>2026-04-06T05:27:16Z</time></trkpt><trkpt lat="43.969921849172486" lon="12.082648573800554"><ele>304.40000000000003</ele><time>2026-04-06T05:27:18Z</time></trkpt><trkpt lat="43.96999097464651" lon="12.082721729041289"><ele>302.8</ele><time>2026-04-06T05:27:19Z</time></trkpt><trkpt lat="43.970065116129646" lon="12.082815255253628"><ele>301.20000000000005</ele><time>2026-04-06T05:27:20Z</time></trkpt><trkpt lat="43.97014945378084" lon="12.082883447716195"><ele>299.6</ele><time>2026-04-06T05:27:21Z</time></trkpt><trkpt lat="43.97024689783172" lon="12.082962288845515"><ele>298.0</ele><time>2026-04-06T05:27:22Z</time></trkpt><trkpt lat="43.97034046909491" lon="12.083048472703751"><ele>303.2</ele><time>2026-04-06T05:27:23Z</time></trkpt><trkpt lat="43.9704148629414" lon="12.083147907175373"><ele>308.4</ele><time>2026-04-06T05:27:24Z</time></trkpt><trkpt lat="43.970470740037705" lon="12.083273292313756"><ele>313.59999999999997</ele><time>2026-04-06T05:27:25Z</time></trkpt><trkpt lat="43.970500778387795" lon="12.083419847491266"><ele>318.8</ele><time>2026-04-06T05:27:26Z</time></trkpt><trkpt lat="43.970517638836085" lon="12.083586787247295"><ele>324.0</ele><time>2026-04-06T05:27:27Z</time></trkpt><trkpt lat="43.97053067958453" lon="12.083743524905431"><ele>324.0</ele><time>2026-04-06T05:27:28Z</time></trkpt><trkpt lat="43.97056726559339" lon="12.083883239498695"><ele>324.0</ele><time>2026-04-06T05:27:29Z</time></trkpt><trkpt lat="43.970634585100164" lon="12.084021837789798"><ele>324.0</ele><time>2026-04-06T05:27:30Z</time></trkpt><trkpt lat="43.97070264527861" lon="12.084165938188978"><ele>324.0</ele><time>2026-04-06T05:27:31Z</time></trkpt><trkpt lat="43.970775024258565" lon="12.084287549049721"><ele>322.4</ele><time>2026-04-06T05:27:32Z</time></trkpt><trkpt lat="43.97084912470848" lon="12.084390903757692"><ele>320.79999999999995</ele><time>2026-04-06T05:27:33Z</time></trkpt><trkpt lat="43.970902319651" lon="12.084517380573187"><ele>319.20000000000005</ele><time>2026-04-06T05:27:34Z</time></trkpt><trkpt lat="43.97094667796353" lon="12.084652641564636"><ele>317.6</ele><time>2026-04-06T05:27:35Z</time></trkpt><trkpt lat="43.970986692254066" lon="12.08479161015773"><ele>316.0</ele><time>2026-04-06T05:27:36Z</time></trkpt><trkpt lat="43.97101407341414" lon="12.0849216816382"><ele>318.20000000000005</ele><time>2026-04-06T05:27:37Z</time></trkpt><trkpt lat="43.971038925825624" lon="12.085034549515704"><ele>320.40000000000003</ele><time>2026-04-06T05:27:37.999Z</time></trkpt><trkpt lat="43.97108518351173" lon="12.085132032283795"><ele>322.6</ele><time>2026-04-06T05:27:38.999Z</time></trkpt><trkpt lat="43.97113275684029" lon="12.085240697027777"><ele>324.8</ele><time>2026-04-06T05:27:39.999Z</time></trkpt><trkpt lat="43.97121194113723" lon="12.085321757515322"><ele>327.0</ele><time>2026-04-06T05:27:40.999Z</time></trkpt><trkpt lat="43.97129506211963" lon="12.085389679837387"><ele>327.0</ele><time>2026-04-06T05:27:41.999Z</time></trkpt><trkpt lat="43.971373795840975" lon="12.0854455724143"><ele>327.0</ele><time>2026-04-06T05:27:42.999Z</time></trkpt><trkpt lat="43.9714370647845" lon="12.085535502117192"><ele>327.0</ele><time>2026-04-06T05:27:43.999Z</time></trkpt><trkpt lat="43.97148963502936" lon="12.085623578768852"><ele>327.0</ele><time>2026-04-06T05:27:44.999Z</time></trkpt><trkpt lat="43.97150070099756" lon="12.085721029706352"><ele>327.0</ele><time>2026-04-06T05:27:45.999Z</time></trkpt><trkpt lat="43.9716024243702" lon="12.085746406658064"><ele>327.0</ele><time>2026-04-06T05:27:46.999Z</time></trkpt><trkpt lat="43.971685943337306" lon="12.085741028879328"><ele>329.0</ele><time>2026-04-06T05:27:47.999Z</time></trkpt><trkpt lat="43.9717852350848" lon="12.085752244166008"><ele>331.0</ele><time>2026-04-06T05:27:48.999Z</time></trkpt><trkpt lat="43.971883322150674" lon="12.085779343568513"><ele>333.0</ele><time>2026-04-06T05:27:49.999Z</time></trkpt><trkpt lat="43.971984017002946" lon="12.085800994301405"><ele>335.0</ele><time>2026-04-06T05:27:50.999Z</time></trkpt><trkpt lat="43.97209111121735" lon="12.085803664521602"><ele>337.0</ele><time>2026-04-06T05:27:51.999Z</time></trkpt><trkpt lat="43.97220124353035" lon="12.085782759832064"><ele>337.0</ele><time>2026-04-06T05:27:52.999Z</time></trkpt><trkpt lat="43.972303370212686" lon="12.085732990969309"><ele>337.0</ele><time>2026-04-06T05:27:53.999Z</time></trkpt><trkpt lat="43.97241202453035" lon="12.085658170108625"><ele>337.0</ele><time>2026-04-06T05:27:54.999Z</time></trkpt><trkpt lat="43.97251138262499" lon="12.08558318142873"><ele>337.0</ele><time>2026-04-06T05:27:55.999Z</time></trkpt><trkpt lat="43.972621882769424" lon="12.085533369735375"><ele>339.8</ele><time>2026-04-06T05:27:56.999Z</time></trkpt><trkpt lat="43.972720534360846" lon="12.085471066934705"><ele>342.6</ele><time>2026-04-06T05:27:57.999Z</time></trkpt><trkpt lat="43.97278880460255" lon="12.085392858832016"><ele>345.40000000000003</ele><time>2026-04-06T05:27:58.999Z</time></trkpt><trkpt lat="43.97285410276872" lon="12.085320145395192"><ele>348.20000000000005</ele><time>2026-04-06T05:27:59.999Z</time></trkpt><trkpt lat="43.972911451975975" lon="12.085263003092692"><ele>351.0</ele><time>2026-04-06T05:28:00.999Z</time></trkpt><trkpt lat="43.97301077486542" lon="12.085215261127132"><ele>351.0</ele><time>2026-04-06T05:28:02.999Z</time></trkpt><trkpt lat="43.97308989182081" lon="12.085359667276744"><ele>351.0</ele><time>2026-04-06T05:28:04.999Z</time></trkpt><trkpt lat="43.97308277366026" lon="12.085464917787252"><ele>351.0</ele><time>2026-04-06T05:28:05.999Z</time></trkpt><trkpt lat="43.97311780542542" lon="12.08556709526083"><ele>351.0</ele><time>2026-04-06T05:28:06.999Z</time></trkpt><trkpt lat="43.9731599794436" lon="12.08567322536198"><ele>351.0</ele><time>2026-04-06T05:28:07.999Z</time></trkpt><trkpt lat="43.973225063248485" lon="12.085776305159877"><ele>349.8</ele><time>2026-04-06T05:28:08.999Z</time></trkpt><trkpt lat="43.97330369899379" lon="12.085853264240006"><ele>348.6</ele><time>2026-04-06T05:28:09.999Z</time></trkpt><trkpt lat="43.97338739797827" lon="12.085936798829431"><ele>347.4</ele><time>2026-04-06T05:28:10.999Z</time></trkpt><trkpt lat="43.973475786090056" lon="12.086011733167213"><ele>346.2</ele><time>2026-04-06T05:28:11.999Z</time></trkpt><trkpt lat="43.97357297590632" lon="12.08606493670867"><ele>345.0</ele><time>2026-04-06T05:28:12.999Z</time></trkpt><trkpt lat="43.973682788721966" lon="12.086110726186867"><ele>345.0</ele><time>2026-04-06T05:28:13.999Z</time></trkpt><trkpt lat="43.97379691086848" lon="12.08616052652831"><ele>345.0</ele><time>2026-04-06T05:28:14.999Z</time></trkpt><trkpt lat="43.97391788829285" lon="12.086211250351"><ele>345.0</ele><time>2026-04-06T05:28:15.999Z</time></trkpt><trkpt lat="43.97403032202805" lon="12.086262604284284"><ele>345.0</ele><time>2026-04-06T05:28:16.999Z</time></trkpt><trkpt lat="43.97414830217412" lon="12.08631928588524"><ele>346.25</ele><time>2026-04-06T05:28:17.999Z</time></trkpt><trkpt lat="43.974268041222686" lon="12.086386770653956"><ele>347.5</ele><time>2026-04-06T05:28:18.999Z</time></trkpt><trkpt lat="43.974383240088486" lon="12.086445289796698"><ele>348.75</ele><time>2026-04-06T05:28:19.999Z</time></trkpt><trkpt lat="43.97448823945484" lon="12.086469808049792"><ele>350.0</ele><time>2026-04-06T05:28:20.999Z</time></trkpt><trkpt lat="43.974582308242745" lon="12.086493513470318"><ele>350.0</ele><time>2026-04-06T05:28:21.999Z</time></trkpt><trkpt lat="43.97468796011739" lon="12.086502873017206"><ele>350.0</ele><time>2026-04-06T05:28:23Z</time></trkpt><trkpt lat="43.97478280457357" lon="12.086511275148968"><ele>350.0</ele><time>2026-04-06T05:28:24Z</time></trkpt><trkpt lat="43.974874865882384" lon="12.086519796160543"><ele>350.0</ele><time>2026-04-06T05:28:25Z</time></trkpt><trkpt lat="43.97497436279514" lon="12.086530342325705"><ele>350.0</ele><time>2026-04-06T05:28:26Z</time></trkpt><trkpt lat="43.97505140632419" lon="12.086539939626014"><ele>347.0</ele><time>2026-04-06T05:28:27Z</time></trkpt><trkpt lat="43.975125073195336" lon="12.086549116302587"><ele>344.0</ele><time>2026-04-06T05:28:28Z</time></trkpt><trkpt lat="43.97520071465225" lon="12.086558538936595"><ele>341.0</ele><time>2026-04-06T05:28:29Z</time></trkpt><trkpt lat="43.97527437586315" lon="12.086567714875745"><ele>338.0</ele><time>2026-04-06T05:28:30Z</time></trkpt><trkpt lat="43.97534499243" lon="12.086576511523704"><ele>335.0</ele><time>2026-04-06T05:28:31Z</time></trkpt><trkpt lat="43.97553220405918" lon="12.086099324090078"><ele>335.0</ele><time>2026-04-06T05:28:34Z</time></trkpt><trkpt lat="43.97560162203455" lon="12.086045387804498"><ele>335.0</ele><time>2026-04-06T05:28:35Z</time></trkpt><trkpt lat="43.97565456421527" lon="12.08595903608504"><ele>335.0</ele><time>2026-04-06T05:28:36Z</time></trkpt><trkpt lat="43.97568919470074" lon="12.085855364814357"><ele>335.0</ele><time>2026-04-06T05:28:37Z</time></trkpt><trkpt lat="43.97569926227771" lon="12.085762314517508"><ele>335.0</ele><time>2026-04-06T05:28:38Z</time></trkpt><trkpt lat="43.97572214936873" lon="12.085675220177075"><ele>335.0</ele><time>2026-04-06T05:28:44Z</time></trkpt><trkpt lat="43.97576678547116" lon="12.085580924789857"><ele>332.2</ele><time>2026-04-06T05:28:49Z</time></trkpt><trkpt lat="43.97581867939484" lon="12.085452308320823"><ele>329.4</ele><time>2026-04-06T05:28:51Z</time></trkpt><trkpt lat="43.97584564227978" lon="12.0853217785685"><ele>326.6</ele><time>2026-04-06T05:28:53Z</time></trkpt><trkpt lat="43.975865285163756" lon="12.08517336835026"><ele>323.8</ele><time>2026-04-06T05:28:55Z</time></trkpt><trkpt lat="43.97588165337128" lon="12.085051409437034"><ele>321.0</ele><time>2026-04-06T05:28:58Z</time></trkpt><trkpt lat="43.975927480605755" lon="12.084951526413782"><ele>325.6666666666667</ele><time>2026-04-06T05:29:01Z</time></trkpt><trkpt lat="43.97595069638363" lon="12.084853875529317"><ele>330.3333333333333</ele><time>2026-04-06T05:29:03Z</time></trkpt><trkpt lat="43.976017015938936" lon="12.084771324119075"><ele>335.0</ele><time>2026-04-06T05:29:07Z</time></trkpt><trkpt lat="43.97608547297667" lon="12.084735606871732"><ele>339.66666666666663</ele><time>2026-04-06T05:29:09Z</time></trkpt><trkpt lat="43.97616330242656" lon="12.084724295573128"><ele>344.3333333333333</ele><time>2026-04-06T05:29:11Z</time></trkpt><trkpt lat="43.97623004985909" lon="12.084684454654601"><ele>349.0</ele><time>2026-04-06T05:29:14Z</time></trkpt><trkpt lat="43.97630732509843" lon="12.084568452018123"><ele>349.0</ele><time>2026-04-06T05:29:16Z</time></trkpt><trkpt lat="43.97635925376655" lon="12.084481109348006"><ele>349.0</ele><time>2026-04-06T05:29:17Z</time></trkpt><trkpt lat="43.97640775109317" lon="12.084402339458872"><ele>349.0</ele><time>2026-04-06T05:29:18Z</time></trkpt><trkpt lat="43.97647191303633" lon="12.08430901575015"><ele>349.0</ele><time>2026-04-06T05:29:19Z</time></trkpt><trkpt lat="43.976531569635256" lon="12.084232527002525"><ele>349.0</ele><time>2026-04-06T05:29:20Z</time></trkpt><trkpt lat="43.9765917624044" lon="12.08415668592585"><ele>349.0</ele><time>2026-04-06T05:29:21Z</time></trkpt><trkpt lat="43.97664172644492" lon="12.084080328512519"><ele>349.8333333333333</ele><time>2026-04-06T05:29:22Z</time></trkpt><trkpt lat="43.97666316051593" lon="12.083980188870715"><ele>350.66666666666663</ele><time>2026-04-06T05:29:23Z</time></trkpt><trkpt lat="43.97669627042792" lon="12.083877415962911"><ele>351.5</ele><time>2026-04-06T05:29:24Z</time></trkpt><trkpt lat="43.97672581298939" lon="12.083790709552147"><ele>352.3333333333333</ele><time>2026-04-06T05:29:25Z</time></trkpt><trkpt lat="43.97677342391629" lon="12.083717036294885"><ele>353.1666666666667</ele><time>2026-04-06T05:29:26Z</time></trkpt><trkpt lat="43.976867904005424" lon="12.083601577565606"><ele>354.0</ele><time>2026-04-06T05:29:28Z</time></trkpt><trkpt lat="43.97696557063633" lon="12.083511871845497"><ele>354.0</ele><time>2026-04-06T05:29:29.999Z</time></trkpt><trkpt lat="43.97700739683678" lon="12.083407430042136"><ele>354.0</ele><time>2026-04-06T05:29:32.999Z</time></trkpt><trkpt lat="43.977107947180386" lon="12.0833708163115"><ele>354.0</ele><time>2026-04-06T05:29:38.999Z</time></trkpt><trkpt lat="43.977174261226246" lon="12.083365156614429"><ele>354.0</ele><time>2026-04-06T05:29:39.999Z</time></trkpt><trkpt lat="43.9772412181781" lon="12.083385247967911"><ele>354.0</ele><time>2026-04-06T05:29:40.999Z</time></trkpt><trkpt lat="43.977322873646514" lon="12.083399645012129"><ele>354.0</ele><time>2026-04-06T05:29:41.999Z</time></trkpt><trkpt lat="43.977401465642416" lon="12.083391961176387"><ele>354.0</ele><time>2026-04-06T05:29:42.999Z</time></trkpt><trkpt lat="43.97748285445552" lon="12.083360970113468"><ele>354.0</ele><time>2026-04-06T05:29:43.999Z</time></trkpt><trkpt lat="43.977557781014106" lon="12.083338245375186"><ele>354.0</ele><time>2026-04-06T05:29:44.999Z</time></trkpt><trkpt lat="43.97761679005286" lon="12.083302608593295"><ele>354.0</ele><time>2026-04-06T05:29:45.999Z</time></trkpt><trkpt lat="43.97767123439608" lon="12.083216339667823"><ele>354.0</ele><time>2026-04-06T05:29:46.999Z</time></trkpt><trkpt lat="43.977691349365514" lon="12.083104569434886"><ele>354.0</ele><time>2026-04-06T05:29:47.999Z</time></trkpt><trkpt lat="43.97770846693712" lon="12.082998904648786"><ele>353.5</ele><time>2026-04-06T05:29:48.999Z</time></trkpt><trkpt lat="43.97772574964597" lon="12.082843927435363"><ele>353.0</ele><time>2026-04-06T05:29:50.999Z</time></trkpt><trkpt lat="43.97773534403302" lon="12.082737092776194"><ele>352.5</ele><time>2026-04-06T05:29:52.999Z</time></trkpt><trkpt lat="43.97774557300612" lon="12.082646304293592"><ele>352.0</ele><time>2026-04-06T05:30:41Z</time></trkpt><trkpt lat="43.97768856542311" lon="12.08268508394723"><ele>351.5</ele><time>2026-04-06T05:31:26Z</time></trkpt><trkpt lat="43.97773189354156" lon="12.082615731915963"><ele>351.0</ele><time>2026-04-06T05:32:17.999Z</time></trkpt><trkpt lat="43.97779408500774" lon="12.082564060280946"><ele>351.0</ele><time>2026-04-06T05:32:40Z</time></trkpt><trkpt lat="43.977843668292" lon="12.082467332514135"><ele>351.0</ele><time>2026-04-06T05:32:43Z</time></trkpt><trkpt lat="43.97791364574932" lon="12.082396193242843"><ele>351.0</ele><time>2026-04-06T05:34:10.999Z</time></trkpt><trkpt lat="43.97785204814923" lon="12.082442070578624"><ele>351.0</ele><time>2026-04-06T05:34:25.999Z</time></trkpt><trkpt lat="43.977816857606825" lon="12.082529103809925"><ele>351.0</ele><time>2026-04-06T05:34:31.999Z</time></trkpt><trkpt lat="43.97784679922632" lon="12.082443266135456"><ele>351.0</ele><time>2026-04-06T05:35:42.999Z</time></trkpt><trkpt lat="43.977913421695014" lon="12.082363819044183"><ele>354.5714285714286</ele><time>2026-04-06T05:36:32.999Z</time></trkpt><trkpt lat="43.97794425655905" lon="12.08227955137884"><ele>358.14285714285717</ele><time>2026-04-06T05:36:34.999Z</time></trkpt><trkpt lat="43.977987879591375" lon="12.082184710723721"><ele>361.7142857142857</ele><time>2026-04-06T05:36:36.999Z</time></trkpt><trkpt lat="43.978048275360784" lon="12.082129775445294"><ele>365.28571428571433</ele><time>2026-04-06T05:36:39.999Z</time></trkpt><trkpt lat="43.97811185981311" lon="12.082084358324568"><ele>368.85714285714283</ele><time>2026-04-06T05:36:41.999Z</time></trkpt><trkpt lat="43.97816734188246" lon="12.082001431798219"><ele>372.42857142857144</ele><time>2026-04-06T05:36:43.999Z</time></trkpt><trkpt lat="43.97822170510819" lon="12.081940564355248"><ele>376.0</ele><time>2026-04-06T05:36:45.999Z</time></trkpt><trkpt lat="43.978245275508655" lon="12.081858371705318"><ele>376.0</ele><time>2026-04-06T05:36:49Z</time></trkpt><trkpt lat="43.97828397874576" lon="12.081788203873515"><ele>376.0</ele><time>2026-04-06T05:36:52Z</time></trkpt><trkpt lat="43.97833204660212" lon="12.081729509884354"><ele>376.0</ele><time>2026-04-06T05:36:56Z</time></trkpt><trkpt lat="43.97838001874581" lon="12.081629407559355"><ele>376.0</ele><time>2026-04-06T05:36:59Z</time></trkpt><trkpt lat="43.9784577754073" lon="12.081518844949787"><ele>376.0</ele><time>2026-04-06T05:37:01Z</time></trkpt><trkpt lat="43.97850508232598" lon="12.081401688317767"><ele>376.0</ele><time>2026-04-06T05:37:03Z</time></trkpt><trkpt lat="43.97855870286519" lon="12.081312335319547"><ele>377.16666666666663</ele><time>2026-04-06T05:37:05Z</time></trkpt><trkpt lat="43.978601244656794" lon="12.081229117977983"><ele>378.3333333333333</ele><time>2026-04-06T05:37:08Z</time></trkpt><trkpt lat="43.97864184555963" lon="12.081153375985021"><ele>379.5</ele><time>2026-04-06T05:37:10Z</time></trkpt><trkpt lat="43.978665111746196" lon="12.081059214669404"><ele>380.6666666666667</ele><time>2026-04-06T05:37:12Z</time></trkpt><trkpt lat="43.97869523349636" lon="12.080967596162154"><ele>381.83333333333337</ele><time>2026-04-06T05:37:14Z</time></trkpt><trkpt lat="43.978692648480234" lon="12.080845208174463"><ele>383.0</ele><time>2026-04-06T05:37:16Z</time></trkpt><trkpt lat="43.97870268335237" lon="12.080714769724771"><ele>385.59999999999997</ele><time>2026-04-06T05:37:17.999Z</time></trkpt><trkpt lat="43.97874323859455" lon="12.080604642790176"><ele>388.2</ele><time>2026-04-06T05:37:19.999Z</time></trkpt><trkpt lat="43.97879981825238" lon="12.080540625646014"><ele>390.8</ele><time>2026-04-06T05:37:21.999Z</time></trkpt><trkpt lat="43.97890560299547" lon="12.080487202245198"><ele>393.4</ele><time>2026-04-06T05:37:23.999Z</time></trkpt><trkpt lat="43.97900206517454" lon="12.080400210417135"><ele>396.0</ele><time>2026-04-06T05:37:25.999Z</time></trkpt><trkpt lat="43.979069694658406" lon="12.08031531909293"><ele>396.0</ele><time>2026-04-06T05:37:27.999Z</time></trkpt><trkpt lat="43.979088016377986" lon="12.0801633625448"><ele>396.0</ele><time>2026-04-06T05:37:29.999Z</time></trkpt><trkpt lat="43.979109404065554" lon="12.080050602342252"><ele>396.0</ele><time>2026-04-06T05:37:31.999Z</time></trkpt><trkpt lat="43.97910411754317" lon="12.079950753978142"><ele>396.0</ele><time>2026-04-06T05:37:33.999Z</time></trkpt><trkpt lat="43.979144370983924" lon="12.079862300742763"><ele>396.0</ele><time>2026-04-06T05:38:01.999Z</time></trkpt><trkpt lat="43.97911894063236" lon="12.079771088032802"><ele>396.0</ele><time>2026-04-06T05:38:56Z</time></trkpt><trkpt lat="43.979098989510014" lon="12.079683775014306"><ele>398.0</ele><time>2026-04-06T05:39:51.999Z</time></trkpt><trkpt lat="43.97906958459105" lon="12.07958053311307"><ele>400.0</ele><time>2026-04-06T05:39:54.999Z</time></trkpt><trkpt lat="43.97912505258403" lon="12.079523742987583"><ele>402.0</ele><time>2026-04-06T05:39:56.999Z</time></trkpt><trkpt lat="43.97918443916897" lon="12.079490146196218"><ele>404.0</ele><time>2026-04-06T05:40:00Z</time></trkpt><trkpt lat="43.97924660831863" lon="12.079471029571344"><ele>406.0</ele><time>2026-04-06T05:40:02Z</time></trkpt><trkpt lat="43.979309030421526" lon="12.079456524252247"><ele>408.0</ele><time>2026-04-06T05:40:08Z</time></trkpt><trkpt lat="43.979393303242155" lon="12.079452430084439"><ele>410.0</ele><time>2026-04-06T05:40:12Z</time></trkpt><trkpt lat="43.9794591496505" lon="12.079485672224758"><ele>409.49999999999994</ele><time>2026-04-06T05:40:14Z</time></trkpt><trkpt lat="43.97952187512816" lon="12.079539043190474"><ele>409.0</ele><time>2026-04-06T05:40:17Z</time></trkpt><trkpt lat="43.979578060257104" lon="12.07961729797627"><ele>408.5</ele><time>2026-04-06T05:40:20Z</time></trkpt><trkpt lat="43.97963615253174" lon="12.079686805613406"><ele>408.0</ele><time>2026-04-06T05:40:23Z</time></trkpt><trkpt lat="43.97966604753301" lon="12.079786249673438"><ele>407.49999999999994</ele><time>2026-04-06T05:40:25Z</time></trkpt><trkpt lat="43.97967507010128" lon="12.079947567751846"><ele>407.0</ele><time>2026-04-06T05:40:27Z</time></trkpt><trkpt lat="43.979765006336144" lon="12.080026557052395"><ele>407.0</ele><time>2026-04-06T05:40:29Z</time></trkpt><trkpt lat="43.979902739219284" lon="12.080018062296201"><ele>407.0</ele><time>2026-04-06T05:40:31Z</time></trkpt><trkpt lat="43.97997994145376" lon="12.079995714530336"><ele>407.0</ele><time>2026-04-06T05:40:32Z</time></trkpt><trkpt lat="43.9800887838464" lon="12.080034055274796"><ele>407.0</ele><time>2026-04-06T05:40:34Z</time></trkpt><trkpt lat="43.980130360929834" lon="12.080127957349621"><ele>407.0</ele><time>2026-04-06T05:40:36Z</time></trkpt><trkpt lat="43.98013930772005" lon="12.080248127677041"><ele>412.0</ele><time>2026-04-06T05:40:38Z</time></trkpt><trkpt lat="43.980138971987124" lon="12.08037546344555"><ele>417.0</ele><time>2026-04-06T05:40:40Z</time></trkpt><trkpt lat="43.980149121334236" lon="12.08054126116822"><ele>422.00000000000006</ele><time>2026-04-06T05:40:43Z</time></trkpt><trkpt lat="43.980163629349704" lon="12.080657453842772"><ele>427.0</ele><time>2026-04-06T05:40:45Z</time></trkpt><trkpt lat="43.9801887760695" lon="12.080749520071194"><ele>432.0</ele><time>2026-04-06T05:40:48Z</time></trkpt><trkpt lat="43.98026370150035" lon="12.080903247549434"><ele>432.0</ele><time>2026-04-06T05:40:50Z</time></trkpt><trkpt lat="43.98036008442135" lon="12.080983206989126"><ele>432.00000000000006</ele><time>2026-04-06T05:40:53Z</time></trkpt><trkpt lat="43.98043656696414" lon="12.081066575808592"><ele>432.00000000000006</ele><time>2026-04-06T05:40:55Z</time></trkpt><trkpt lat="43.98050923976724" lon="12.081122386197237"><ele>432.0</ele><time>2026-04-06T05:40:57Z</time></trkpt><trkpt lat="43.98061884897296" lon="12.081183977444033"><ele>432.0</ele><time>2026-04-06T05:40:59Z</time></trkpt><trkpt lat="43.980733813426745" lon="12.081227123248775"><ele>432.0</ele><time>2026-04-06T05:41:01Z</time></trkpt><trkpt lat="43.980812791359746" lon="12.081266676975586"><ele>432.0</ele><time>2026-04-06T05:41:03Z</time></trkpt><trkpt lat="43.98089114997726" lon="12.081326175796368"><ele>432.0</ele><time>2026-04-06T05:41:05Z</time></trkpt><trkpt lat="43.980976074306746" lon="12.081310652259804"><ele>432.0</ele><time>2026-04-06T05:41:07Z</time></trkpt><trkpt lat="43.981025184695035" lon="12.081246369120292"><ele>432.0</ele><time>2026-04-06T05:41:09Z</time></trkpt><trkpt lat="43.981110291080974" lon="12.081215318233514"><ele>432.0</ele><time>2026-04-06T05:41:11Z</time></trkpt><trkpt lat="43.98117444727309" lon="12.081188477052912"><ele>435.3333333333333</ele><time>2026-04-06T05:41:13Z</time></trkpt><trkpt lat="43.981246480509384" lon="12.081193683323708"><ele>438.66666666666663</ele><time>2026-04-06T05:41:16Z</time></trkpt><trkpt lat="43.98132475044383" lon="12.081143045992226"><ele>442.0</ele><time>2026-04-06T05:41:19Z</time></trkpt><trkpt lat="43.98142149268766" lon="12.081157781532223"><ele>445.3333333333333</ele><time>2026-04-06T05:41:22Z</time></trkpt><trkpt lat="43.98148665622138" lon="12.08116886977071"><ele>448.66666666666663</ele><time>2026-04-06T05:41:25Z</time></trkpt><trkpt lat="43.98154358070679" lon="12.081217144831124"><ele>452.0</ele><time>2026-04-06T05:42:24Z</time></trkpt><trkpt lat="43.981544379777546" lon="12.081339291778551"><ele>451.99999999999994</ele><time>2026-04-06T05:42:26Z</time></trkpt><trkpt lat="43.98152988175405" lon="12.081515989341854"><ele>452.0</ele><time>2026-04-06T05:42:28Z</time></trkpt><trkpt lat="43.98155089372543" lon="12.081629366649228"><ele>452.0</ele><time>2026-04-06T05:42:30Z</time></trkpt><trkpt lat="43.98155636316549" lon="12.081724116653952"><ele>452.0</ele><time>2026-04-06T05:42:31Z</time></trkpt><trkpt lat="43.98152405966573" lon="12.081834876016407"><ele>451.99999999999994</ele><time>2026-04-06T05:42:33Z</time></trkpt><trkpt lat="43.98152508294193" lon="12.081926279222039"><ele>452.0</ele><time>2026-04-06T05:42:35Z</time></trkpt><trkpt lat="43.98156658314431" lon="12.082050283418257"><ele>453.3333333333333</ele><time>2026-04-06T05:42:50Z</time></trkpt><trkpt lat="43.9816302147388" lon="12.082110624035684"><ele>454.66666666666663</ele><time>2026-04-06T05:43:07Z</time></trkpt><trkpt lat="43.981690094110206" lon="12.082156149499166"><ele>456.0</ele><time>2026-04-06T05:43:10Z</time></trkpt><trkpt lat="43.981735969029344" lon="12.082282759794493"><ele>457.33333333333337</ele><time>2026-04-06T05:43:12Z</time></trkpt><trkpt lat="43.981789974041206" lon="12.082339928840653"><ele>458.6666666666667</ele><time>2026-04-06T05:43:14Z</time></trkpt><trkpt lat="43.981804306495576" lon="12.082495434867017"><ele>460.0</ele><time>2026-04-06T05:43:17Z</time></trkpt><trkpt lat="43.9817642437466" lon="12.082640190316845"><ele>460.00000000000006</ele><time>2026-04-06T05:43:19Z</time></trkpt><trkpt lat="43.981759651667936" lon="12.08273730664084"><ele>460.0</ele><time>2026-04-06T05:43:22Z</time></trkpt><trkpt lat="43.98176472725163" lon="12.082857295566713"><ele>460.0</ele><time>2026-04-06T05:43:24Z</time></trkpt><trkpt lat="43.98176387619121" lon="12.082957226870157"><ele>460.0</ele><time>2026-04-06T05:43:27Z</time></trkpt><trkpt lat="43.98171354771257" lon="12.083037453360731"><ele>460.00000000000006</ele><time>2026-04-06T05:43:30Z</time></trkpt><trkpt lat="43.98164658721112" lon="12.083089976750117"><ele>460.0</ele><time>2026-04-06T05:43:32Z</time></trkpt><trkpt lat="43.98144669258036" lon="12.083492110970237"><ele>454.00000000000006</ele><time>2026-04-06T05:43:35Z</time></trkpt><trkpt lat="43.981403565425936" lon="12.08357874279488"><ele>448.0</ele><time>2026-04-06T05:43:36Z</time></trkpt><trkpt lat="43.981354874795144" lon="12.08364534432425"><ele>442.0</ele><time>2026-04-06T05:43:37Z</time></trkpt><trkpt lat="43.98128743513091" lon="12.08370270090121"><ele>436.0</ele><time>2026-04-06T05:43:38Z</time></trkpt><trkpt lat="43.9812192277155" lon="12.083748721073082"><ele>430.00000000000006</ele><time>2026-04-06T05:43:39Z</time></trkpt><trkpt lat="43.9811286583817" lon="12.083807300121551"><ele>424.0</ele><time>2026-04-06T05:43:40Z</time></trkpt><trkpt lat="43.98105215631598" lon="12.083862667828646"><ele>424.0</ele><time>2026-04-06T05:43:41Z</time></trkpt><trkpt lat="43.980988376545724" lon="12.083903349933667"><ele>424.0</ele><time>2026-04-06T05:43:42Z</time></trkpt><trkpt lat="43.98091906341092" lon="12.083938339138799"><ele>424.0</ele><time>2026-04-06T05:43:43Z</time></trkpt><trkpt lat="43.98084206470307" lon="12.083979970910146"><ele>424.0</ele><time>2026-04-06T05:43:44Z</time></trkpt><trkpt lat="43.9807363109943" lon="12.083997855162805"><ele>424.0</ele><time>2026-04-06T05:43:46Z</time></trkpt><trkpt lat="43.98061372781585" lon="12.084041829625114"><ele>423.50000000000006</ele><time>2026-04-06T05:43:48Z</time></trkpt><trkpt lat="43.98055505085708" lon="12.084102507948772"><ele>423.0</ele><time>2026-04-06T05:43:49Z</time></trkpt><trkpt lat="43.98049851464218" lon="12.084174443123354"><ele>422.5</ele><time>2026-04-06T05:43:50Z</time></trkpt><trkpt lat="43.98042506682071" lon="12.084224525492749"><ele>422.0</ele><time>2026-04-06T05:43:51Z</time></trkpt><trkpt lat="43.980352805817766" lon="12.08426806585688"><ele>421.50000000000006</ele><time>2026-04-06T05:43:52Z</time></trkpt><trkpt lat="43.98026878096251" lon="12.084319343966213"><ele>421.0</ele><time>2026-04-06T05:43:53Z</time></trkpt><trkpt lat="43.98017984686772" lon="12.08438578672508"><ele>421.00000000000006</ele><time>2026-04-06T05:43:54Z</time></trkpt><trkpt lat="43.98011621961284" lon="12.084465461104303"><ele>421.0</ele><time>2026-04-06T05:43:55Z</time></trkpt><trkpt lat="43.98005766171265" lon="12.084539806556457"><ele>421.0</ele><time>2026-04-06T05:43:56Z</time></trkpt><trkpt lat="43.9800204905088" lon="12.084632063161175"><ele>421.0</ele><time>2026-04-06T05:43:57Z</time></trkpt><trkpt lat="43.97998104581471" lon="12.08472840304124"><ele>421.00000000000006</ele><time>2026-04-06T05:43:58Z</time></trkpt><trkpt lat="43.979981088470964" lon="12.084831979317064"><ele>421.0</ele><time>2026-04-06T05:43:59Z</time></trkpt><trkpt lat="43.97999059887982" lon="12.08492535310312"><ele>418.28571428571433</ele><time>2026-04-06T05:44:00Z</time></trkpt><trkpt lat="43.97999390137742" lon="12.08501398024183"><ele>415.57142857142856</ele><time>2026-04-06T05:44:01Z</time></trkpt><trkpt lat="43.979998218654515" lon="12.08510195146345"><ele>412.8571428571429</ele><time>2026-04-06T05:44:02Z</time></trkpt><trkpt lat="43.98000407344914" lon="12.085206500684894"><ele>410.14285714285717</ele><time>2026-04-06T05:44:03Z</time></trkpt><trkpt lat="43.98000943480072" lon="12.0853224127232"><ele>407.42857142857144</ele><time>2026-04-06T05:44:04Z</time></trkpt><trkpt lat="43.980003908132566" lon="12.085436921044915"><ele>404.7142857142857</ele><time>2026-04-06T05:44:05Z</time></trkpt><trkpt lat="43.97999042056751" lon="12.085531498468768"><ele>402.0</ele><time>2026-04-06T05:44:06Z</time></trkpt><trkpt lat="43.97998557756739" lon="12.085625596541531"><ele>402.0</ele><time>2026-04-06T05:44:07Z</time></trkpt><trkpt lat="43.97998653827699" lon="12.085713152750143"><ele>402.0</ele><time>2026-04-06T05:44:09Z</time></trkpt><trkpt lat="43.980060109795176" lon="12.085638424297423"><ele>402.0</ele><time>2026-04-06T05:44:17Z</time></trkpt><trkpt lat="43.98009157948471" lon="12.085553455323886"><ele>402.0</ele><time>2026-04-06T05:44:19Z</time></trkpt><trkpt lat="43.98014029452349" lon="12.085434622515798"><ele>402.0</ele><time>2026-04-06T05:44:21Z</time></trkpt><trkpt lat="43.98017245155581" lon="12.085312037480106"><ele>402.0</ele><time>2026-04-06T05:44:23Z</time></trkpt><trkpt lat="43.98019116340355" lon="12.085224409849962"><ele>405.1666666666667</ele><time>2026-04-06T05:44:24Z</time></trkpt><trkpt lat="43.980198993585006" lon="12.085133611403354"><ele>408.33333333333337</ele><time>2026-04-06T05:44:25Z</time></trkpt><trkpt lat="43.98020595888825" lon="12.085032261303239"><ele>411.5</ele><time>2026-04-06T05:44:26Z</time></trkpt><trkpt lat="43.9802324448159" lon="12.084934086743473"><ele>414.6666666666667</ele><time>2026-04-06T05:44:27Z</time></trkpt><trkpt lat="43.98025105831363" lon="12.084846862934292"><ele>417.83333333333337</ele><time>2026-04-06T05:44:28Z</time></trkpt><trkpt lat="43.9803276767744" lon="12.084733500911764"><ele>421.0</ele><time>2026-04-06T05:44:30Z</time></trkpt><trkpt lat="43.98042956015878" lon="12.084653610828447"><ele>421.00000000000006</ele><time>2026-04-06T05:44:32Z</time></trkpt><trkpt lat="43.980510254053684" lon="12.0846150045555"><ele>421.0</ele><time>2026-04-06T05:44:34Z</time></trkpt><trkpt lat="43.98058063513169" lon="12.084621096819669"><ele>421.0</ele><time>2026-04-06T05:44:39Z</time></trkpt><trkpt lat="43.9806440712662" lon="12.084641311998698"><ele>421.0</ele><time>2026-04-06T05:44:41Z</time></trkpt><trkpt lat="43.98073242400519" lon="12.084700485825747"><ele>421.00000000000006</ele><time>2026-04-06T05:44:44Z</time></trkpt><trkpt lat="43.98082249587351" lon="12.08474818184403"><ele>421.0</ele><time>2026-04-06T05:44:47Z</time></trkpt><trkpt lat="43.98089054866469" lon="12.08481694935734"><ele>426.4</ele><time>2026-04-06T05:44:49Z</time></trkpt><trkpt lat="43.98095524551276" lon="12.08488350739021"><ele>431.8</ele><time>2026-04-06T05:44:51Z</time></trkpt><trkpt lat="43.98104562338239" lon="12.084967997347821"><ele>437.19999999999993</ele><time>2026-04-06T05:44:53Z</time></trkpt><trkpt lat="43.98114555846331" lon="12.084967089660251"><ele>442.59999999999997</ele><time>2026-04-06T05:44:55Z</time></trkpt><trkpt lat="43.98124847264547" lon="12.084888354128962"><ele>448.0</ele><time>2026-04-06T05:44:57Z</time></trkpt><trkpt lat="43.98134946025526" lon="12.084854046683866"><ele>448.0</ele><time>2026-04-06T05:45:00Z</time></trkpt><trkpt lat="43.98142568767855" lon="12.084809051235226"><ele>447.99999999999994</ele><time>2026-04-06T05:45:06Z</time></trkpt><trkpt lat="43.98148249131511" lon="12.084751889842353"><ele>447.99999999999994</ele><time>2026-04-06T05:45:09Z</time></trkpt><trkpt lat="43.98163892237905" lon="12.084628911899577"><ele>448.0</ele><time>2026-04-06T05:45:10Z</time></trkpt><trkpt lat="43.981738496428946" lon="12.084549031057911"><ele>448.0</ele><time>2026-04-06T05:45:12Z</time></trkpt><trkpt lat="43.9818192613605" lon="12.084516695203575"><ele>453.0</ele><time>2026-04-06T05:45:14Z</time></trkpt><trkpt lat="43.98191108398443" lon="12.084578056388782"><ele>457.99999999999994</ele><time>2026-04-06T05:45:16Z</time></trkpt><trkpt lat="43.9820339077171" lon="12.084513491721468"><ele>462.99999999999994</ele><time>2026-04-06T05:45:18Z</time></trkpt><trkpt lat="43.982137021398856" lon="12.08446216989243"><ele>468.0</ele><time>2026-04-06T05:45:20Z</time></trkpt><trkpt lat="43.982220967548045" lon="12.084458914004307"><ele>473.0</ele><time>2026-04-06T05:45:23Z</time></trkpt><trkpt lat="43.982288525708235" lon="12.084538535356414"><ele>472.99999999999994</ele><time>2026-04-06T05:45:25Z</time></trkpt><trkpt lat="43.982355330405625" lon="12.084502112859996"><ele>473.0</ele><time>2026-04-06T05:45:27Z</time></trkpt><trkpt lat="43.98239872673047" lon="12.084421238923836"><ele>473.0</ele><time>2026-04-06T05:45:28Z</time></trkpt><trkpt lat="43.98249289204482" lon="12.084364283827254"><ele>473.0</ele><time>2026-04-06T05:45:30Z</time></trkpt><trkpt lat="43.98256697084929" lon="12.084301704222492"><ele>472.99999999999994</ele><time>2026-04-06T05:45:32Z</time></trkpt><trkpt lat="43.98264816533667" lon="12.084235332094934"><ele>473.0</ele><time>2026-04-06T05:45:34Z</time></trkpt><trkpt lat="43.98272425500274" lon="12.084163912199356"><ele>477.8333333333333</ele><time>2026-04-06T05:45:36Z</time></trkpt><trkpt lat="43.98280350351448" lon="12.08406333938898"><ele>482.66666666666663</ele><time>2026-04-06T05:45:38Z</time></trkpt><trkpt lat="43.982854594554" lon="12.083996098018563"><ele>487.5</ele><time>2026-04-06T05:45:39Z</time></trkpt><trkpt lat="43.982922349170515" lon="12.083888054779694"><ele>492.33333333333337</ele><time>2026-04-06T05:45:40Z</time></trkpt><trkpt lat="43.982971812341816" lon="12.083818018696093"><ele>497.1666666666667</ele><time>2026-04-06T05:45:41Z</time></trkpt><trkpt lat="43.98302339402271" lon="12.083751192825419"><ele>502.0</ele><time>2026-04-06T05:45:42Z</time></trkpt><trkpt lat="43.98307445087021" lon="12.083674293341547"><ele>502.00000000000006</ele><time>2026-04-06T05:45:43Z</time></trkpt><trkpt lat="43.983118150435054" lon="12.083592346427046"><ele>502.0</ele><time>2026-04-06T05:45:44Z</time></trkpt><trkpt lat="43.98316441703663" lon="12.083482464241454"><ele>502.0</ele><time>2026-04-06T05:45:45Z</time></trkpt><trkpt lat="43.98319983601673" lon="12.083358965253344"><ele>502.0</ele><time>2026-04-06T05:45:46Z</time></trkpt><trkpt lat="43.98322189562409" lon="12.083263681617227"><ele>502.00000000000006</ele><time>2026-04-06T05:45:47Z</time></trkpt><trkpt lat="43.98323502983497" lon="12.083168320198364"><ele>502.0</ele><time>2026-04-06T05:45:48Z</time></trkpt><trkpt lat="43.98322925395351" lon="12.083067886120487"><ele>501.6</ele><time>2026-04-06T05:45:49Z</time></trkpt><trkpt lat="43.983264106369674" lon="12.08291921148046"><ele>501.20000000000005</ele><time>2026-04-06T05:45:51Z</time></trkpt><trkpt lat="43.98335960609787" lon="12.082792755496337"><ele>500.8</ele><time>2026-04-06T05:45:53Z</time></trkpt><trkpt lat="43.98340666940579" lon="12.082714644057377"><ele>500.4</ele><time>2026-04-06T05:45:54Z</time></trkpt><trkpt lat="43.9834674909503" lon="12.082663652795109"><ele>500.0</ele><time>2026-04-06T05:45:55Z</time></trkpt><trkpt lat="43.98352040459951" lon="12.082606024614632"><ele>502.49999999999994</ele><time>2026-04-06T05:45:56Z</time></trkpt><trkpt lat="43.98356671302913" lon="12.082535953565467"><ele>505.0</ele><time>2026-04-06T05:45:57Z</time></trkpt><trkpt lat="43.983606048208436" lon="12.082446020343347"><ele>507.5</ele><time>2026-04-06T05:45:58Z</time></trkpt><trkpt lat="43.983636798557725" lon="12.082350965494792"><ele>510.0</ele><time>2026-04-06T05:45:59Z</time></trkpt><trkpt lat="43.98367601303769" lon="12.082270415426569"><ele>512.5</ele><time>2026-04-06T05:46:00Z</time></trkpt><trkpt lat="43.9837220242551" lon="12.08219833522158"><ele>515.0</ele><time>2026-04-06T05:46:01Z</time></trkpt><trkpt lat="43.98381799818114" lon="12.082128683859686"><ele>515.8333333333333</ele><time>2026-04-06T05:46:03Z</time></trkpt><trkpt lat="43.983912720880156" lon="12.082105357829215"><ele>516.6666666666666</ele><time>2026-04-06T05:46:05Z</time></trkpt><trkpt lat="43.98402062528054" lon="12.082082215711203"><ele>517.5</ele><time>2026-04-06T05:46:07Z</time></trkpt><trkpt lat="43.984091373658565" lon="12.08206676869968"><ele>518.3333333333334</ele><time>2026-04-06T05:46:08Z</time></trkpt><trkpt lat="43.98415928640848" lon="12.082014007622066"><ele>519.1666666666667</ele><time>2026-04-06T05:46:09Z</time></trkpt><trkpt lat="43.98423058350867" lon="12.08196851184359"><ele>520.0</ele><time>2026-04-06T05:46:10Z</time></trkpt><trkpt lat="43.98433905371413" lon="12.081905004245947"><ele>520.0</ele><time>2026-04-06T05:46:12Z</time></trkpt><trkpt lat="43.984402539832836" lon="12.081887338303728"><ele>520.0</ele><time>2026-04-06T05:46:13Z</time></trkpt><trkpt lat="43.984455538965264" lon="12.081827041603493"><ele>520.0</ele><time>2026-04-06T05:46:16Z</time></trkpt><trkpt lat="43.984517838441356" lon="12.081761915838083"><ele>520.0</ele><time>2026-04-06T05:46:19Z</time></trkpt><trkpt lat="43.98462143410815" lon="12.08162209670329"><ele>520.0</ele><time>2026-04-06T05:46:21Z</time></trkpt><trkpt lat="43.98467552951929" lon="12.081546939594723"><ele>520.0</ele><time>2026-04-06T05:46:22Z</time></trkpt><trkpt lat="43.98474897995066" lon="12.081434360845641"><ele>524.6666666666667</ele><time>2026-04-06T05:46:24Z</time></trkpt><trkpt lat="43.98479612236155" lon="12.081298222343612"><ele>529.3333333333334</ele><time>2026-04-06T05:46:26Z</time></trkpt><trkpt lat="43.98485448786675" lon="12.081224871744045"><ele>534.0</ele><time>2026-04-06T05:46:29Z</time></trkpt><trkpt lat="43.98485497888221" lon="12.081124609792559"><ele>538.6666666666666</ele><time>2026-04-06T05:46:32Z</time></trkpt><trkpt lat="43.98480164232343" lon="12.081175506767288"><ele>543.3333333333333</ele><time>2026-04-06T05:46:37Z</time></trkpt><trkpt lat="43.98473572623184" lon="12.08118549425765"><ele>548.0</ele><time>2026-04-06T05:46:41Z</time></trkpt><trkpt lat="43.98467790854616" lon="12.081240637755466"><ele>548.0000000000001</ele><time>2026-04-06T05:46:44Z</time></trkpt><trkpt lat="43.984606033726685" lon="12.081266140106482"><ele>548.0</ele><time>2026-04-06T05:46:47Z</time></trkpt><trkpt lat="43.984546279755534" lon="12.081235398315117"><ele>548.0</ele><time>2026-04-06T05:46:51Z</time></trkpt><trkpt lat="43.9844774369592" lon="12.081203633566208"><ele>548.0</ele><time>2026-04-06T05:46:58Z</time></trkpt><trkpt lat="43.98441029622229" lon="12.081210521559882"><ele>548.0</ele><time>2026-04-06T05:47:02Z</time></trkpt><trkpt lat="43.98438187844187" lon="12.081103867020857"><ele>548.0000000000001</ele><time>2026-04-06T05:47:06Z</time></trkpt><trkpt lat="43.98433231954116" lon="12.0810260147969"><ele>548.0</ele><time>2026-04-06T05:47:08Z</time></trkpt><trkpt lat="43.98427249057712" lon="12.080990580405677"><ele>548.0</ele><time>2026-04-06T05:47:14Z</time></trkpt><trkpt lat="43.98425243951622" lon="12.08088482234554"><ele>548.0</ele><time>2026-04-06T05:48:48Z</time></trkpt><trkpt lat="43.984262533012384" lon="12.080774551528735"><ele>548.0</ele><time>2026-04-06T05:48:51Z</time></trkpt><trkpt lat="43.984238472317564" lon="12.080650020589138"><ele>548.0</ele><time>2026-04-06T05:48:54Z</time></trkpt><trkpt lat="43.98427162745525" lon="12.080557617982844"><ele>548.0</ele><time>2026-04-06T05:51:10Z</time></trkpt><trkpt lat="43.98434242579994" lon="12.0804925629379"><ele>548.0</ele><time>2026-04-06T05:51:14Z</time></trkpt><trkpt lat="43.98441448740824" lon="12.080417361994334"><ele>553.6666666666666</ele><time>2026-04-06T05:51:16Z</time></trkpt><trkpt lat="43.98448403766637" lon="12.08035257817575"><ele>559.3333333333333</ele><time>2026-04-06T05:51:17Z</time></trkpt><trkpt lat="43.984551108894145" lon="12.080313028534366"><ele>565.0</ele><time>2026-04-06T05:51:18Z</time></trkpt><trkpt lat="43.98461952047719" lon="12.080280409803894"><ele>570.6666666666666</ele><time>2026-04-06T05:51:19Z</time></trkpt><trkpt lat="43.9847429484341" lon="12.08023221095406"><ele>576.3333333333334</ele><time>2026-04-06T05:51:21Z</time></trkpt><trkpt lat="43.98480972787189" lon="12.080198263312903"><ele>582.0</ele><time>2026-04-06T05:51:22Z</time></trkpt><trkpt lat="43.984889048041744" lon="12.080190632862237"><ele>582.0</ele><time>2026-04-06T05:51:23Z</time></trkpt><trkpt lat="43.98496358267761" lon="12.080189608311002"><ele>582.0</ele><time>2026-04-06T05:51:24Z</time></trkpt><trkpt lat="43.985026895015054" lon="12.08018242514118"><ele>582.0</ele><time>2026-04-06T05:51:25Z</time></trkpt><trkpt lat="43.985116924681236" lon="12.080137114196674"><ele>582.0</ele><time>2026-04-06T05:51:27Z</time></trkpt><trkpt lat="43.9852311328816" lon="12.080104418827416"><ele>582.0</ele><time>2026-04-06T05:51:29Z</time></trkpt><trkpt lat="43.985296482386204" lon="12.080104068937105"><ele>582.0</ele><time>2026-04-06T05:51:30Z</time></trkpt><trkpt lat="43.98539305134185" lon="12.080139929526634"><ele>579.1666666666666</ele><time>2026-04-06T05:51:32Z</time></trkpt><trkpt lat="43.98547667305649" lon="12.08014342903036"><ele>576.3333333333334</ele><time>2026-04-06T05:51:34Z</time></trkpt><trkpt lat="43.98554899046535" lon="12.08006435351786"><ele>573.5</ele><time>2026-04-06T05:51:37Z</time></trkpt><trkpt lat="43.985604557091975" lon="12.079990363325255"><ele>570.6666666666667</ele><time>2026-04-06T05:51:39Z</time></trkpt><trkpt lat="43.985630385760366" lon="12.079896117134206"><ele>567.8333333333334</ele><time>2026-04-06T05:51:41Z</time></trkpt><trkpt lat="43.985659237514604" lon="12.079800624097995"><ele>565.0</ele><time>2026-04-06T05:51:43Z</time></trkpt><trkpt lat="43.985680836045596" lon="12.079711621930178"><ele>564.9999999999999</ele><time>2026-04-06T05:51:45Z</time></trkpt><trkpt lat="43.98574348142669" lon="12.079732060031164"><ele>565.0</ele><time>2026-04-06T05:51:52Z</time></trkpt><trkpt lat="43.985770492026866" lon="12.079813646440567"><ele>565.0</ele><time>2026-04-06T05:51:53Z</time></trkpt><trkpt lat="43.985807412546556" lon="12.079895344196952"><ele>565.0</ele><time>2026-04-06T05:51:54Z</time></trkpt><trkpt lat="43.98583553820562" lon="12.079977113041421"><ele>565.0</ele><time>2026-04-06T05:51:55Z</time></trkpt><trkpt lat="43.98586229426615" lon="12.080057574812916"><ele>564.9999999999999</ele><time>2026-04-06T05:51:56Z</time></trkpt><trkpt lat="43.98588007918018" lon="12.080152329070684"><ele>565.0</ele><time>2026-04-06T05:51:57Z</time></trkpt><trkpt lat="43.98591032987271" lon="12.080233051307907"><ele>553.75</ele><time>2026-04-06T05:51:58Z</time></trkpt><trkpt lat="43.985976593918664" lon="12.080349266049375"><ele>542.5</ele><time>2026-04-06T05:52:00Z</time></trkpt><trkpt lat="43.98604504066725" lon="12.080452890741558"><ele>531.25</ele><time>2026-04-06T05:52:02Z</time></trkpt><trkpt lat="43.98612054488057" lon="12.080475542069502"><ele>520.0</ele><time>2026-04-06T05:52:04Z</time></trkpt><trkpt lat="43.98626038498862" lon="12.080654305461842"><ele>520.0</ele><time>2026-04-06T05:52:08Z</time></trkpt><trkpt lat="43.98632760942246" lon="12.080672878515868"><ele>520.0</ele><time>2026-04-06T05:52:10Z</time></trkpt><trkpt lat="43.98637865246625" lon="12.080782833519562"><ele>520.0</ele><time>2026-04-06T05:52:13Z</time></trkpt><trkpt lat="43.986453226680204" lon="12.080795543092124"><ele>520.0</ele><time>2026-04-06T05:52:15Z</time></trkpt><trkpt lat="43.9865470014167" lon="12.080774069195003"><ele>520.0</ele><time>2026-04-06T05:52:17Z</time></trkpt><trkpt lat="43.986627181507345" lon="12.08077364607591"><ele>520.0</ele><time>2026-04-06T05:52:19Z</time></trkpt><trkpt lat="43.98672192503613" lon="12.080806350080305"><ele>518.1666666666667</ele><time>2026-04-06T05:52:21Z</time></trkpt><trkpt lat="43.98681833421286" lon="12.08091108914893"><ele>516.3333333333334</ele><time>2026-04-06T05:52:23Z</time></trkpt><trkpt lat="43.986867422586194" lon="12.080988418096663"><ele>514.5</ele><time>2026-04-06T05:52:24Z</time></trkpt><trkpt lat="43.986918131247116" lon="12.081061580800048"><ele>512.6666666666666</ele><time>2026-04-06T05:52:25Z</time></trkpt><trkpt lat="43.98696687020621" lon="12.08112277293381"><ele>510.8333333333333</ele><time>2026-04-06T05:52:26Z</time></trkpt><trkpt lat="43.98701817417932" lon="12.081189435114384"><ele>509.0</ele><time>2026-04-06T05:52:27Z</time></trkpt><trkpt lat="43.98708246941626" lon="12.081251159979134"><ele>509.0</ele><time>2026-04-06T05:52:28Z</time></trkpt><trkpt lat="43.987132967741736" lon="12.081312785036596"><ele>509.0</ele><time>2026-04-06T05:52:29Z</time></trkpt><trkpt lat="43.98716735755494" lon="12.081394887512873"><ele>509.0</ele><time>2026-04-06T05:52:30Z</time></trkpt><trkpt lat="43.98720845464938" lon="12.081543849855187"><ele>509.0</ele><time>2026-04-06T05:52:32Z</time></trkpt><trkpt lat="43.98726669173485" lon="12.081694816120208"><ele>509.0</ele><time>2026-04-06T05:52:34Z</time></trkpt><trkpt lat="43.987348750466545" lon="12.081768255784834"><ele>512.75</ele><time>2026-04-06T05:52:36Z</time></trkpt><trkpt lat="43.987444618914544" lon="12.081886344542822"><ele>516.5</ele><time>2026-04-06T05:52:38Z</time></trkpt><trkpt lat="43.98750753577542" lon="12.082019683569044"><ele>520.25</ele><time>2026-04-06T05:52:40Z</time></trkpt><trkpt lat="43.98759265290791" lon="12.08211249508107"><ele>524.0</ele><time>2026-04-06T05:52:42Z</time></trkpt><trkpt lat="43.98769172654198" lon="12.082202056393328"><ele>518.6666666666666</ele><time>2026-04-06T05:52:44Z</time></trkpt><trkpt lat="43.98775767763404" lon="12.082230720941546"><ele>513.3333333333333</ele><time>2026-04-06T05:52:45Z</time></trkpt><trkpt lat="43.987833150337835" lon="12.08229772866324"><ele>508.0</ele><time>2026-04-06T05:52:46Z</time></trkpt><trkpt lat="43.987908186404056" lon="12.082304781884124"><ele>502.66666666666663</ele><time>2026-04-06T05:52:47Z</time></trkpt><trkpt lat="43.98797019366556" lon="12.082334167293636"><ele>497.3333333333333</ele><time>2026-04-06T05:52:48Z</time></trkpt><trkpt lat="43.988072327734265" lon="12.082350515931452"><ele>492.0</ele><time>2026-04-06T05:52:50Z</time></trkpt><trkpt lat="43.988147074215355" lon="12.082419523279162"><ele>492.0</ele><time>2026-04-06T05:52:54Z</time></trkpt><trkpt lat="43.988368489091265" lon="12.082591789684402"><ele>492.0</ele><time>2026-04-06T05:52:56Z</time></trkpt><trkpt lat="43.9884592232594" lon="12.082692011929558"><ele>492.0</ele><time>2026-04-06T05:52:58Z</time></trkpt><trkpt lat="43.988524360144154" lon="12.082760557450978"><ele>492.0</ele><time>2026-04-06T05:52:59Z</time></trkpt><trkpt lat="43.988586763244264" lon="12.082822892932224"><ele>492.0</ele><time>2026-04-06T05:53:00Z</time></trkpt><trkpt lat="43.98864699771341" lon="12.08288611249695"><ele>492.0</ele><time>2026-04-06T05:53:01Z</time></trkpt><trkpt lat="43.98870574265013" lon="12.082954980372183"><ele>492.0</ele><time>2026-04-06T05:53:02Z</time></trkpt><trkpt lat="43.98876351473655" lon="12.08302494833001"><ele>492.0</ele><time>2026-04-06T05:53:03Z</time></trkpt><trkpt lat="43.988823604528164" lon="12.083105665178724"><ele>492.0</ele><time>2026-04-06T05:53:04Z</time></trkpt><trkpt lat="43.988887576188496" lon="12.083156673067988"><ele>492.0</ele><time>2026-04-06T05:53:05Z</time></trkpt><trkpt lat="43.98895124206267" lon="12.083184379084226"><ele>492.0</ele><time>2026-04-06T05:53:06Z</time></trkpt><trkpt lat="43.989056076945616" lon="12.083264775912138"><ele>492.0</ele><time>2026-04-06T05:53:08Z</time></trkpt><trkpt lat="43.98915801813611" lon="12.083323569368778"><ele>492.0</ele><time>2026-04-06T05:53:10Z</time></trkpt><trkpt lat="43.98923116871393" lon="12.083341405074222"><ele>492.0</ele><time>2026-04-06T05:53:11Z</time></trkpt><trkpt lat="43.98930826041159" lon="12.083353832359228"><ele>492.0</ele><time>2026-04-06T05:53:12Z</time></trkpt><trkpt lat="43.989383402598556" lon="12.083367645978322"><ele>491.0</ele><time>2026-04-06T05:53:13Z</time></trkpt><trkpt lat="43.98945062104276" lon="12.083377282744914"><ele>490.0</ele><time>2026-04-06T05:53:14Z</time></trkpt><trkpt lat="43.98952658080795" lon="12.083382722005616"><ele>489.0</ele><time>2026-04-06T05:53:15Z</time></trkpt><trkpt lat="43.98962199562047" lon="12.08334795812212"><ele>488.0</ele><time>2026-04-06T05:53:17Z</time></trkpt><trkpt lat="43.989686909706656" lon="12.083373084585864"><ele>487.0</ele><time>2026-04-06T05:53:18Z</time></trkpt><trkpt lat="43.989756923429326" lon="12.083400419434184"><ele>486.0</ele><time>2026-04-06T05:53:20Z</time></trkpt><trkpt lat="43.98983943170551" lon="12.083405759540533"><ele>486.0</ele><time>2026-04-06T05:53:23Z</time></trkpt><trkpt lat="43.989912144901496" lon="12.083426150602351"><ele>486.0</ele><time>2026-04-06T05:53:25Z</time></trkpt><trkpt lat="43.989958988982224" lon="12.083487024498044"><ele>486.0</ele><time>2026-04-06T05:53:27Z</time></trkpt><trkpt lat="43.99002327671562" lon="12.083522168172903"><ele>486.0</ele><time>2026-04-06T05:53:28Z</time></trkpt><trkpt lat="43.99008812266903" lon="12.083543873986608"><ele>486.0</ele><time>2026-04-06T05:53:29Z</time></trkpt><trkpt lat="43.99014875353466" lon="12.083602266544158"><ele>486.0</ele><time>2026-04-06T05:53:30Z</time></trkpt><trkpt lat="43.99018813507023" lon="12.083685871779192"><ele>486.0</ele><time>2026-04-06T05:53:31Z</time></trkpt><trkpt lat="43.99023109261262" lon="12.083750857847612"><ele>484.66666666666663</ele><time>2026-04-06T05:53:32Z</time></trkpt><trkpt lat="43.99028899211209" lon="12.083854806350317"><ele>483.3333333333333</ele><time>2026-04-06T05:53:34Z</time></trkpt><trkpt lat="43.99035262885404" lon="12.083899512665717"><ele>482.0</ele><time>2026-04-06T05:53:36Z</time></trkpt><trkpt lat="43.990601143579184" lon="12.084182268053778"><ele>481.99999999999994</ele><time>2026-04-06T05:53:39Z</time></trkpt><trkpt lat="43.99067787537016" lon="12.084221563564709"><ele>482.0</ele><time>2026-04-06T05:53:41Z</time></trkpt><trkpt lat="43.99073311178157" lon="12.084272912383108"><ele>482.0</ele><time>2026-04-06T05:53:42Z</time></trkpt><trkpt lat="43.9908113969235" lon="12.084354966281323"><ele>482.0</ele><time>2026-04-06T05:53:43Z</time></trkpt><trkpt lat="43.99087697393601" lon="12.084413617521985"><ele>481.99999999999994</ele><time>2026-04-06T05:53:44Z</time></trkpt><trkpt lat="43.99094792234835" lon="12.084443398622799"><ele>482.0</ele><time>2026-04-06T05:53:45Z</time></trkpt><trkpt lat="43.991016261496156" lon="12.08447960316664"><ele>475.49999999999994</ele><time>2026-04-06T05:53:46Z</time></trkpt><trkpt lat="43.99109022264055" lon="12.084512717077557"><ele>469.0</ele><time>2026-04-06T05:53:47Z</time></trkpt><trkpt lat="43.99116073890271" lon="12.084565899767531"><ele>462.5</ele><time>2026-04-06T05:53:48Z</time></trkpt><trkpt lat="43.9912292008606" lon="12.084617787117057"><ele>456.0</ele><time>2026-04-06T05:53:49Z</time></trkpt><trkpt lat="43.99129129502349" lon="12.08469199642368"><ele>449.49999999999994</ele><time>2026-04-06T05:53:50Z</time></trkpt><trkpt lat="43.991334382227485" lon="12.084784525685809"><ele>443.0</ele><time>2026-04-06T05:53:51Z</time></trkpt><trkpt lat="43.99138742374537" lon="12.084908109168714"><ele>444.8333333333333</ele><time>2026-04-06T05:53:52Z</time></trkpt><trkpt lat="43.99141632100488" lon="12.085047704189295"><ele>446.66666666666663</ele><time>2026-04-06T05:53:53Z</time></trkpt><trkpt lat="43.99144019261388" lon="12.085164406865513"><ele>448.5</ele><time>2026-04-06T05:53:54Z</time></trkpt><trkpt lat="43.99146966754446" lon="12.085249563413742"><ele>450.33333333333337</ele><time>2026-04-06T05:53:55Z</time></trkpt><trkpt lat="43.991518389847776" lon="12.085349044564145"><ele>452.1666666666667</ele><time>2026-04-06T05:53:57Z</time></trkpt><trkpt lat="43.9915854556866" lon="12.085282569566708"><ele>454.0</ele><time>2026-04-06T05:54:00Z</time></trkpt><trkpt lat="43.99154322037117" lon="12.085172548679793"><ele>454.00000000000006</ele><time>2026-04-06T05:54:01Z</time></trkpt><trkpt lat="43.9915319159291" lon="12.085046864519825"><ele>454.0</ele><time>2026-04-06T05:54:02Z</time></trkpt><trkpt lat="43.99151293004717" lon="12.08492790449916"><ele>454.0</ele><time>2026-04-06T05:54:03Z</time></trkpt><trkpt lat="43.991499156890875" lon="12.084835148337115"><ele>454.0</ele><time>2026-04-06T05:54:04Z</time></trkpt><trkpt lat="43.9914876105448" lon="12.08471242950198"><ele>454.00000000000006</ele><time>2026-04-06T05:54:05Z</time></trkpt><trkpt lat="43.99149969626143" lon="12.084575149800353"><ele>454.0</ele><time>2026-04-06T05:54:06Z</time></trkpt><trkpt lat="43.99152604148144" lon="12.084443131669262"><ele>452.1666666666667</ele><time>2026-04-06T05:54:07Z</time></trkpt><trkpt lat="43.991533378140005" lon="12.08431273025093"><ele>450.33333333333337</ele><time>2026-04-06T05:54:08Z</time></trkpt><trkpt lat="43.99152350787442" lon="12.084208341727878"><ele>448.5</ele><time>2026-04-06T05:54:09Z</time></trkpt><trkpt lat="43.99151298505327" lon="12.08410439683506"><ele>446.66666666666663</ele><time>2026-04-06T05:54:10Z</time></trkpt><trkpt lat="43.99152662445339" lon="12.08399712699124"><ele>444.8333333333333</ele><time>2026-04-06T05:54:11Z</time></trkpt><trkpt lat="43.991534821430164" lon="12.083901321519763"><ele>443.0</ele><time>2026-04-06T05:54:12Z</time></trkpt><trkpt lat="43.991548814334905" lon="12.083812426046965"><ele>440.99999999999994</ele><time>2026-04-06T05:54:13Z</time></trkpt><trkpt lat="43.991561502622005" lon="12.083709633872857"><ele>439.0</ele><time>2026-04-06T05:54:14Z</time></trkpt><trkpt lat="43.99156556655568" lon="12.083610243934237"><ele>437.0</ele><time>2026-04-06T05:54:15Z</time></trkpt><trkpt lat="43.99151132579305" lon="12.083545046423271"><ele>435.0</ele><time>2026-04-06T05:54:16Z</time></trkpt><trkpt lat="43.99142527551903" lon="12.083504393654612"><ele>432.99999999999994</ele><time>2026-04-06T05:54:17Z</time></trkpt><trkpt lat="43.99132492902977" lon="12.083469733624217"><ele>431.0</ele><time>2026-04-06T05:54:18Z</time></trkpt><trkpt lat="43.99125053484514" lon="12.083383598046892"><ele>431.0</ele><time>2026-04-06T05:54:19Z</time></trkpt><trkpt lat="43.99118410469414" lon="12.083319485501654"><ele>431.0</ele><time>2026-04-06T05:54:20Z</time></trkpt><trkpt lat="43.991116488800515" lon="12.08319308466327"><ele>431.0</ele><time>2026-04-06T05:54:21Z</time></trkpt><trkpt lat="43.99106539801678" lon="12.083041280352392"><ele>431.0</ele><time>2026-04-06T05:54:22Z</time></trkpt><trkpt lat="43.99102093826374" lon="12.082873972845116"><ele>431.0</ele><time>2026-04-06T05:54:23Z</time></trkpt><trkpt lat="43.990974924768" lon="12.082720111947028"><ele>431.20000000000005</ele><time>2026-04-06T05:54:24Z</time></trkpt><trkpt lat="43.99090032017352" lon="12.08263098122928"><ele>431.40000000000003</ele><time>2026-04-06T05:54:25Z</time></trkpt><trkpt lat="43.99081713630459" lon="12.082557839442014"><ele>431.6</ele><time>2026-04-06T05:54:26Z</time></trkpt><trkpt lat="43.99074181065839" lon="12.08250540970786"><ele>431.8</ele><time>2026-04-06T05:54:27Z</time></trkpt><trkpt lat="43.99061081531648" lon="12.082478226993418"><ele>432.0</ele><time>2026-04-06T05:54:28Z</time></trkpt><trkpt lat="43.99047930103856" lon="12.082467950203455"><ele>424.25</ele><time>2026-04-06T05:54:29Z</time></trkpt><trkpt lat="43.99036779795276" lon="12.082423914105124"><ele>416.5</ele><time>2026-04-06T05:54:30Z</time></trkpt><trkpt lat="43.99028691922336" lon="12.082349330440808"><ele>408.75</ele><time>2026-04-06T05:54:31Z</time></trkpt><trkpt lat="43.99019013240887" lon="12.08225058538035"><ele>401.0</ele><time>2026-04-06T05:54:32Z</time></trkpt><trkpt lat="43.99009538700309" lon="12.082152658613238"><ele>406.5</ele><time>2026-04-06T05:54:33Z</time></trkpt><trkpt lat="43.98999327248619" lon="12.082033325102726"><ele>412.0</ele><time>2026-04-06T05:54:34Z</time></trkpt><trkpt lat="43.98990259982785" lon="12.081903003421775"><ele>417.5</ele><time>2026-04-06T05:54:35Z</time></trkpt><trkpt lat="43.989806562408575" lon="12.081794295846636"><ele>423.0</ele><time>2026-04-06T05:54:36Z</time></trkpt><trkpt lat="43.989696488374435" lon="12.081724243188823"><ele>423.0</ele><time>2026-04-06T05:54:37Z</time></trkpt><trkpt lat="43.989577024758255" lon="12.081654908984362"><ele>423.0</ele><time>2026-04-06T05:54:38Z</time></trkpt><trkpt lat="43.98945922438682" lon="12.081600988797293"><ele>423.0</ele><time>2026-04-06T05:54:39Z</time></trkpt><trkpt lat="43.98933289185333" lon="12.081559653187156"><ele>423.0</ele><time>2026-04-06T05:54:40Z</time></trkpt><trkpt lat="43.98920694380395" lon="12.08152315931287"><ele>421.79999999999995</ele><time>2026-04-06T05:54:41Z</time></trkpt><trkpt lat="43.98911689714668" lon="12.081491151629628"><ele>420.6</ele><time>2026-04-06T05:54:42Z</time></trkpt><trkpt lat="43.98904856734599" lon="12.081450436719853"><ele>419.4</ele><time>2026-04-06T05:54:43Z</time></trkpt><trkpt lat="43.98899239219693" lon="12.081372345167587"><ele>418.20000000000005</ele><time>2026-04-06T05:54:44Z</time></trkpt><trkpt lat="43.988946982967455" lon="12.081255509723114"><ele>417.0</ele><time>2026-04-06T05:54:45Z</time></trkpt><trkpt lat="43.98890126426847" lon="12.081105715525869"><ele>417.0</ele><time>2026-04-06T05:54:46Z</time></trkpt><trkpt lat="43.98884768967451" lon="12.080916729295746"><ele>417.0</ele><time>2026-04-06T05:54:47Z</time></trkpt><trkpt lat="43.988812944050636" lon="12.080754716176163"><ele>417.0</ele><time>2026-04-06T05:54:48Z</time></trkpt><trkpt lat="43.98877987632256" lon="12.08060297143183"><ele>417.0</ele><time>2026-04-06T05:54:49Z</time></trkpt><trkpt lat="43.988742453306436" lon="12.080466022155449"><ele>414.6</ele><time>2026-04-06T05:54:50Z</time></trkpt><trkpt lat="43.98869771053541" lon="12.080347762714876"><ele>412.20000000000005</ele><time>2026-04-06T05:54:51Z</time></trkpt><trkpt lat="43.98863762439346" lon="12.080234647787414"><ele>409.8</ele><time>2026-04-06T05:54:52Z</time></trkpt><trkpt lat="43.9885824037726" lon="12.080146386247348"><ele>407.4</ele><time>2026-04-06T05:54:53Z</time></trkpt><trkpt lat="43.988498841467404" lon="12.080078972293235"><ele>405.0</ele><time>2026-04-06T05:54:54Z</time></trkpt><trkpt lat="43.98840823592382" lon="12.080031471934882"><ele>410.8</ele><time>2026-04-06T05:54:55Z</time></trkpt><trkpt lat="43.988314558938384" lon="12.079976939706857"><ele>416.6</ele><time>2026-04-06T05:54:56Z</time></trkpt><trkpt lat="43.988247840215756" lon="12.079912907475949"><ele>422.4</ele><time>2026-04-06T05:54:57Z</time></trkpt><trkpt lat="43.988197334986744" lon="12.079848145346752"><ele>428.2</ele><time>2026-04-06T05:54:58Z</time></trkpt><trkpt lat="43.98818531248895" lon="12.079728416521199"><ele>434.0</ele><time>2026-04-06T05:55:00Z</time></trkpt><trkpt lat="43.988304405557855" lon="12.079698296317947"><ele>434.79999999999995</ele><time>2026-04-06T05:55:02Z</time></trkpt><trkpt lat="43.98835216485949" lon="12.079586730505042"><ele>435.59999999999997</ele><time>2026-04-06T05:55:04Z</time></trkpt><trkpt lat="43.988444994376216" lon="12.079457053950604"><ele>436.4</ele><time>2026-04-06T05:55:06Z</time></trkpt><trkpt lat="43.98853390397422" lon="12.079435176319999"><ele>437.2</ele><time>2026-04-06T05:55:07Z</time></trkpt><trkpt lat="43.98861370038175" lon="12.07945471108353"><ele>438.0</ele><time>2026-04-06T05:55:08Z</time></trkpt><trkpt lat="43.988682568142174" lon="12.079480843576757"><ele>438.0</ele><time>2026-04-06T05:55:09Z</time></trkpt><trkpt lat="43.98884270685695" lon="12.079411825309037"><ele>438.0</ele><time>2026-04-06T05:55:11Z</time></trkpt><trkpt lat="43.988937967011246" lon="12.07932065262735"><ele>438.0</ele><time>2026-04-06T05:55:12Z</time></trkpt><trkpt lat="43.98901516768615" lon="12.07925699469111"><ele>438.0</ele><time>2026-04-06T05:55:13Z</time></trkpt><trkpt lat="43.989076749377055" lon="12.079187038994423"><ele>438.0</ele><time>2026-04-06T05:55:14Z</time></trkpt><trkpt lat="43.989169952966265" lon="12.07910419498908"><ele>438.0</ele><time>2026-04-06T05:55:15Z</time></trkpt><trkpt lat="43.98926751349109" lon="12.079039176718888"><ele>438.0</ele><time>2026-04-06T05:55:16Z</time></trkpt><trkpt lat="43.989386499300075" lon="12.079038094142305"><ele>438.0</ele><time>2026-04-06T05:55:17Z</time></trkpt><trkpt lat="43.98949845444893" lon="12.079018413060682"><ele>444.2</ele><time>2026-04-06T05:55:18Z</time></trkpt><trkpt lat="43.9895940124146" lon="12.07897034339523"><ele>450.4</ele><time>2026-04-06T05:55:19Z</time></trkpt><trkpt lat="43.989693451832174" lon="12.078904951619876"><ele>456.59999999999997</ele><time>2026-04-06T05:55:20Z</time></trkpt><trkpt lat="43.98978515610464" lon="12.078853636695426"><ele>462.79999999999995</ele><time>2026-04-06T05:55:21Z</time></trkpt><trkpt lat="43.9898748878396" lon="12.078825906201034"><ele>469.0</ele><time>2026-04-06T05:55:22Z</time></trkpt><trkpt lat="43.98996899388887" lon="12.07878845484551"><ele>468.79999999999995</ele><time>2026-04-06T05:55:23Z</time></trkpt><trkpt lat="43.99005324984397" lon="12.078721442687"><ele>468.59999999999997</ele><time>2026-04-06T05:55:24Z</time></trkpt><trkpt lat="43.9901359973742" lon="12.078625484848995"><ele>468.4</ele><time>2026-04-06T05:55:25Z</time></trkpt><trkpt lat="43.99023887636358" lon="12.078546030681109"><ele>468.2</ele><time>2026-04-06T05:55:26Z</time></trkpt><trkpt lat="43.990360150871396" lon="12.078495077036965"><ele>468.0</ele><time>2026-04-06T05:55:27Z</time></trkpt><trkpt lat="43.990473014640166" lon="12.078464855873259"><ele>468.0</ele><time>2026-04-06T05:55:28Z</time></trkpt><trkpt lat="43.99056269253071" lon="12.078446931319812"><ele>468.0</ele><time>2026-04-06T05:55:29Z</time></trkpt><trkpt lat="43.99069309093125" lon="12.078574715596615"><ele>468.0</ele><time>2026-04-06T05:55:30.999Z</time></trkpt><trkpt lat="43.99076916516132" lon="12.078709713742025"><ele>468.0</ele><time>2026-04-06T05:55:31.999Z</time></trkpt><trkpt lat="43.990839177947244" lon="12.07881865406923"><ele>467.5</ele><time>2026-04-06T05:55:32.999Z</time></trkpt><trkpt lat="43.990937224476404" lon="12.078889698715404"><ele>467.0</ele><time>2026-04-06T05:55:33.999Z</time></trkpt><trkpt lat="43.99103684476192" lon="12.078920814707493"><ele>466.5</ele><time>2026-04-06T05:55:34.999Z</time></trkpt><trkpt lat="43.99117128359204" lon="12.07891741160811"><ele>466.0</ele><time>2026-04-06T05:55:35.999Z</time></trkpt><trkpt lat="43.991293014110646" lon="12.078871794934779"><ele>466.0</ele><time>2026-04-06T05:55:36.999Z</time></trkpt><trkpt lat="43.99138738135266" lon="12.078834854004436"><ele>466.0</ele><time>2026-04-06T05:55:37.999Z</time></trkpt><trkpt lat="43.99145699335292" lon="12.078764310108083"><ele>466.0</ele><time>2026-04-06T05:55:38.999Z</time></trkpt><trkpt lat="43.991540421733404" lon="12.0786663131442"><ele>466.0</ele><time>2026-04-06T05:55:39.999Z</time></trkpt><trkpt lat="43.99164992008882" lon="12.078573745165704"><ele>466.0</ele><time>2026-04-06T05:55:41Z</time></trkpt><trkpt lat="43.99176096170817" lon="12.078473219919594"><ele>463.8</ele><time>2026-04-06T05:55:42Z</time></trkpt><trkpt lat="43.99185911954095" lon="12.078424074480647"><ele>461.6</ele><time>2026-04-06T05:55:43Z</time></trkpt><trkpt lat="43.991967262859745" lon="12.078376196740255"><ele>459.4</ele><time>2026-04-06T05:55:44Z</time></trkpt><trkpt lat="43.99207717151689" lon="12.078359509574407"><ele>457.2</ele><time>2026-04-06T05:55:45Z</time></trkpt><trkpt lat="43.99216996997815" lon="12.078373032973714"><ele>455.0</ele><time>2026-04-06T05:55:46Z</time></trkpt><trkpt lat="43.99229322225001" lon="12.078402452564983"><ele>455.0</ele><time>2026-04-06T05:55:47Z</time></trkpt><trkpt lat="43.99240762110698" lon="12.078428189803851"><ele>455.0</ele><time>2026-04-06T05:55:48Z</time></trkpt><trkpt lat="43.99251503783117" lon="12.078466501745329"><ele>455.0</ele><time>2026-04-06T05:55:49Z</time></trkpt><trkpt lat="43.992589097019646" lon="12.078535376550121"><ele>455.0</ele><time>2026-04-06T05:55:50Z</time></trkpt><trkpt lat="43.992680210738506" lon="12.078665680051582"><ele>455.0</ele><time>2026-04-06T05:55:51Z</time></trkpt><trkpt lat="43.992761339958825" lon="12.078760601404584"><ele>450.8</ele><time>2026-04-06T05:55:52Z</time></trkpt><trkpt lat="43.99284475841074" lon="12.078811634376821"><ele>446.6</ele><time>2026-04-06T05:55:53Z</time></trkpt><trkpt lat="43.99293228461128" lon="12.078851128967498"><ele>442.4</ele><time>2026-04-06T05:55:54Z</time></trkpt><trkpt lat="43.99302634506312" lon="12.078859055688458"><ele>438.2</ele><time>2026-04-06T05:55:55Z</time></trkpt><trkpt lat="43.99311135117842" lon="12.078865791258957"><ele>434.0</ele><time>2026-04-06T05:55:56Z</time></trkpt><trkpt lat="43.99321839324753" lon="12.078896657504963"><ele>428.0</ele><time>2026-04-06T05:55:57Z</time></trkpt><trkpt lat="43.993350863439204" lon="12.078825260287966"><ele>422.0</ele><time>2026-04-06T05:55:58Z</time></trkpt><trkpt lat="43.993461283317636" lon="12.078803706798787"><ele>416.0</ele><time>2026-04-06T05:55:59Z</time></trkpt><trkpt lat="43.993560334804435" lon="12.078800135495289"><ele>410.0</ele><time>2026-04-06T05:56:00Z</time></trkpt><trkpt lat="43.99366874834971" lon="12.078762259089935"><ele>409.99999999999994</ele><time>2026-04-06T05:56:01Z</time></trkpt><trkpt lat="43.99375610437298" lon="12.078772617964008"><ele>410.0</ele><time>2026-04-06T05:56:02Z</time></trkpt><trkpt lat="43.993866151271185" lon="12.078753213578645"><ele>410.0</ele><time>2026-04-06T05:56:04Z</time></trkpt><trkpt lat="43.993889973741005" lon="12.078623961228121"><ele>410.0</ele><time>2026-04-06T05:56:06Z</time></trkpt><trkpt lat="43.99385819986203" lon="12.078543197293657"><ele>409.99999999999994</ele><time>2026-04-06T05:56:08Z</time></trkpt><trkpt lat="43.99383399240036" lon="12.078448484780829"><ele>410.0</ele><time>2026-04-06T05:56:12Z</time></trkpt><trkpt lat="43.99379346672421" lon="12.078354121835451"><ele>409.6</ele><time>2026-04-06T05:56:15Z</time></trkpt><trkpt lat="43.99378119425846" lon="12.078257839561621"><ele>409.2</ele><time>2026-04-06T05:56:17Z</time></trkpt><trkpt lat="43.993742777687515" lon="12.078097835796857"><ele>408.79999999999995</ele><time>2026-04-06T05:56:18Z</time></trkpt><trkpt lat="43.993724171788486" lon="12.077950489487577"><ele>408.4</ele><time>2026-04-06T05:56:19Z</time></trkpt><trkpt lat="43.99371403124367" lon="12.077819260592321"><ele>408.0</ele><time>2026-04-06T05:56:20Z</time></trkpt><trkpt lat="43.99371494134369" lon="12.077691254978083"><ele>408.0</ele><time>2026-04-06T05:56:21Z</time></trkpt><trkpt lat="43.99373248468795" lon="12.077566510841176"><ele>408.0</ele><time>2026-04-06T05:56:22Z</time></trkpt><trkpt lat="43.99375378061716" lon="12.077439164333548"><ele>408.0</ele><time>2026-04-06T05:56:23Z</time></trkpt><trkpt lat="43.99378107437854" lon="12.077339989423926"><ele>408.0</ele><time>2026-04-06T05:56:24Z</time></trkpt><trkpt lat="43.99384881066682" lon="12.077253250203963"><ele>408.0</ele><time>2026-04-06T05:56:25Z</time></trkpt><trkpt lat="43.99392428677725" lon="12.07719711864833"><ele>408.0</ele><time>2026-04-06T05:56:26Z</time></trkpt><trkpt lat="43.99399681573285" lon="12.07712886420277"><ele>406.6666666666667</ele><time>2026-04-06T05:56:27Z</time></trkpt><trkpt lat="43.99402639799466" lon="12.077046159087773"><ele>405.33333333333337</ele><time>2026-04-06T05:56:28Z</time></trkpt><trkpt lat="43.99402941523502" lon="12.076935936289946"><ele>404.0</ele><time>2026-04-06T05:56:29Z</time></trkpt><trkpt lat="43.99400339525761" lon="12.076840454854324"><ele>402.6666666666667</ele><time>2026-04-06T05:56:30Z</time></trkpt><trkpt lat="43.993936899405114" lon="12.076737590534568"><ele>401.33333333333337</ele><time>2026-04-06T05:56:31Z</time></trkpt><trkpt lat="43.993873929634574" lon="12.076659425220404"><ele>400.0</ele><time>2026-04-06T05:56:32Z</time></trkpt><trkpt lat="43.993807250804444" lon="12.076515379709402"><ele>394.25</ele><time>2026-04-06T05:56:33Z</time></trkpt><trkpt lat="43.99374649231687" lon="12.076368308665828"><ele>388.5</ele><time>2026-04-06T05:56:34Z</time></trkpt><trkpt lat="43.99369108342682" lon="12.076227183077155"><ele>382.75</ele><time>2026-04-06T05:56:35Z</time></trkpt><trkpt lat="43.993623936637384" lon="12.076096598084117"><ele>377.0</ele><time>2026-04-06T05:56:36Z</time></trkpt><trkpt lat="43.99354609619745" lon="12.075991585000128"><ele>377.0</ele><time>2026-04-06T05:56:37Z</time></trkpt><trkpt lat="43.99345714882006" lon="12.07591158740093"><ele>377.0</ele><time>2026-04-06T05:56:38Z</time></trkpt><trkpt lat="43.99338730409591" lon="12.075828680383593"><ele>377.0</ele><time>2026-04-06T05:56:39Z</time></trkpt><trkpt lat="43.993349610672624" lon="12.075734656438408"><ele>377.0</ele><time>2026-04-06T05:56:40Z</time></trkpt><trkpt lat="43.99334217011936" lon="12.075627635266436"><ele>377.0</ele><time>2026-04-06T05:56:41Z</time></trkpt><trkpt lat="43.99335488692114" lon="12.075515391402085"><ele>377.0</ele><time>2026-04-06T05:56:42Z</time></trkpt><trkpt lat="43.99333267800723" lon="12.075426865366518"><ele>379.8</ele><time>2026-04-06T05:56:43Z</time></trkpt><trkpt lat="43.993273213272076" lon="12.075359065720146"><ele>382.6</ele><time>2026-04-06T05:56:44Z</time></trkpt><trkpt lat="43.99319236525633" lon="12.075307387345818"><ele>385.40000000000003</ele><time>2026-04-06T05:56:45Z</time></trkpt><trkpt lat="43.993093405972566" lon="12.075275952070688"><ele>388.20000000000005</ele><time>2026-04-06T05:56:46Z</time></trkpt><trkpt lat="43.99298503129732" lon="12.07525271099545"><ele>391.0</ele><time>2026-04-06T05:56:47Z</time></trkpt><trkpt lat="43.99288614070778" lon="12.075208138135558"><ele>391.00000000000006</ele><time>2026-04-06T05:56:48Z</time></trkpt><trkpt lat="43.99279244123706" lon="12.075158599060757"><ele>391.0</ele><time>2026-04-06T05:56:49Z</time></trkpt><trkpt lat="43.99271439563999" lon="12.075106324358206"><ele>391.0</ele><time>2026-04-06T05:56:50Z</time></trkpt><trkpt lat="43.99263120163629" lon="12.075069382127298"><ele>391.0</ele><time>2026-04-06T05:56:51Z</time></trkpt><trkpt lat="43.99255621130305" lon="12.075085950168233"><ele>391.00000000000006</ele><time>2026-04-06T05:56:52Z</time></trkpt><trkpt lat="43.99247863141532" lon="12.075072865044394"><ele>391.0</ele><time>2026-04-06T05:56:53Z</time></trkpt><trkpt lat="43.99242806040178" lon="12.075000121831113"><ele>391.75</ele><time>2026-04-06T05:56:54Z</time></trkpt><trkpt lat="43.992459733167635" lon="12.074814290395102"><ele>392.5</ele><time>2026-04-06T05:56:56Z</time></trkpt><trkpt lat="43.99253055578255" lon="12.074720347298637"><ele>393.25</ele><time>2026-04-06T05:56:57Z</time></trkpt><trkpt lat="43.992615204034955" lon="12.074604088461934"><ele>394.0</ele><time>2026-04-06T05:56:58Z</time></trkpt><trkpt lat="43.992656863672494" lon="12.074455026125975"><ele>396.6</ele><time>2026-04-06T05:56:59Z</time></trkpt><trkpt lat="43.99267411317484" lon="12.074302252555327"><ele>399.2</ele><time>2026-04-06T05:57:00Z</time></trkpt><trkpt lat="43.99268137154423" lon="12.07416887366198"><ele>401.8</ele><time>2026-04-06T05:57:01Z</time></trkpt><trkpt lat="43.992710489014804" lon="12.074049358513465"><ele>404.40000000000003</ele><time>2026-04-06T05:57:02Z</time></trkpt><trkpt lat="43.992761928648214" lon="12.073965497561773"><ele>407.0</ele><time>2026-04-06T05:57:03Z</time></trkpt><trkpt lat="43.99283866567024" lon="12.073903995764308"><ele>407.0</ele><time>2026-04-06T05:57:04Z</time></trkpt><trkpt lat="43.99292206352058" lon="12.073813443590627"><ele>407.0</ele><time>2026-04-06T05:57:05Z</time></trkpt><trkpt lat="43.9930166973984" lon="12.073734103712496"><ele>407.0</ele><time>2026-04-06T05:57:06Z</time></trkpt><trkpt lat="43.99310180698447" lon="12.073655749253902"><ele>407.0</ele><time>2026-04-06T05:57:07Z</time></trkpt><trkpt lat="43.99318701526062" lon="12.073566282120003"><ele>407.0</ele><time>2026-04-06T05:57:08Z</time></trkpt><trkpt lat="43.99329759813037" lon="12.073506329926406"><ele>407.5</ele><time>2026-04-06T05:57:09Z</time></trkpt><trkpt lat="43.99342064862743" lon="12.0734721954959"><ele>408.0</ele><time>2026-04-06T05:57:10Z</time></trkpt><trkpt lat="43.99353346312816" lon="12.07342513611423"><ele>408.5</ele><time>2026-04-06T05:57:11Z</time></trkpt><trkpt lat="43.993631785300764" lon="12.073331561634236"><ele>409.0</ele><time>2026-04-06T05:57:12Z</time></trkpt><trkpt lat="43.993710778551254" lon="12.073214965874348"><ele>409.0</ele><time>2026-04-06T05:57:13Z</time></trkpt><trkpt lat="43.9937766913889" lon="12.073093284496448"><ele>409.0</ele><time>2026-04-06T05:57:14Z</time></trkpt><trkpt lat="43.99385805888007" lon="12.072988644339835"><ele>409.0</ele><time>2026-04-06T05:57:15Z</time></trkpt><trkpt lat="43.99394249657281" lon="12.0729053151402"><ele>409.0</ele><time>2026-04-06T05:57:16Z</time></trkpt><trkpt lat="43.994008635018325" lon="12.072844461800727"><ele>409.0</ele><time>2026-04-06T05:57:17Z</time></trkpt><trkpt lat="43.99407357876576" lon="12.072843319468141"><ele>409.0</ele><time>2026-04-06T05:57:18Z</time></trkpt><trkpt lat="43.99407062437217" lon="12.072568895788164"><ele>409.0</ele><time>2026-04-06T05:57:21Z</time></trkpt><trkpt lat="43.99395266048064" lon="12.072459023205768"><ele>409.0</ele><time>2026-04-06T05:57:22.999Z</time></trkpt><trkpt lat="43.99386846422467" lon="12.072345487506828"><ele>409.0</ele><time>2026-04-06T05:57:24.999Z</time></trkpt><trkpt lat="43.99382090185305" lon="12.072280989956104"><ele>409.0</ele><time>2026-04-06T05:57:25.999Z</time></trkpt><trkpt lat="43.9937524523044" lon="12.072196551523271"><ele>409.0</ele><time>2026-04-06T05:57:27.999Z</time></trkpt><trkpt lat="43.99336367576755" lon="12.072514258086947"><ele>408.50000000000006</ele><time>2026-04-06T05:57:28.999Z</time></trkpt><trkpt lat="43.99326702014221" lon="12.072488435293621"><ele>408.0</ele><time>2026-04-06T05:57:29.999Z</time></trkpt><trkpt lat="43.99318397218431" lon="12.072462444076777"><ele>407.5</ele><time>2026-04-06T05:57:30.999Z</time></trkpt><trkpt lat="43.99310744135714" lon="12.072419969016865"><ele>407.0</ele><time>2026-04-06T05:57:31.999Z</time></trkpt><trkpt lat="43.9930427243605" lon="12.072389390094175"><ele>406.50000000000006</ele><time>2026-04-06T05:57:32.999Z</time></trkpt><trkpt lat="43.99293266261315" lon="12.07238351425346"><ele>406.0</ele><time>2026-04-06T05:57:34.999Z</time></trkpt><trkpt lat="43.99282119421066" lon="12.072379970709559"><ele>406.00000000000006</ele><time>2026-04-06T05:57:36.999Z</time></trkpt><trkpt lat="43.992724952773536" lon="12.07237119186806"><ele>406.0</ele><time>2026-04-06T05:57:38.999Z</time></trkpt><trkpt lat="43.9926593274862" lon="12.07235320211408"><ele>406.0</ele><time>2026-04-06T05:57:39.999Z</time></trkpt><trkpt lat="43.99254521680899" lon="12.072330575543514"><ele>406.0</ele><time>2026-04-06T05:57:41.999Z</time></trkpt><trkpt lat="43.99247631670214" lon="12.07233960180862"><ele>406.00000000000006</ele><time>2026-04-06T05:57:42.999Z</time></trkpt><trkpt lat="43.992407767717424" lon="12.072364592303638"><ele>406.0</ele><time>2026-04-06T05:57:43.999Z</time></trkpt><trkpt lat="43.99234254881142" lon="12.07236824878593"><ele>408.7142857142857</ele><time>2026-04-06T05:57:44.999Z</time></trkpt><trkpt lat="43.99225972247234" lon="12.072364325626634"><ele>411.42857142857144</ele><time>2026-04-06T05:57:45.999Z</time></trkpt><trkpt lat="43.99217960762289" lon="12.072354585975026"><ele>414.1428571428571</ele><time>2026-04-06T05:57:47Z</time></trkpt><trkpt lat="43.99210528075071" lon="12.072335914509525"><ele>416.8571428571429</ele><time>2026-04-06T05:57:48Z</time></trkpt><trkpt lat="43.99203319969104" lon="12.07231495608407"><ele>419.57142857142856</ele><time>2026-04-06T05:57:49Z</time></trkpt><trkpt lat="43.991967164223404" lon="12.072294267899968"><ele>422.2857142857143</ele><time>2026-04-06T05:57:50Z</time></trkpt><trkpt lat="43.991909042629615" lon="12.072254425628845"><ele>425.0</ele><time>2026-04-06T05:57:51Z</time></trkpt><trkpt lat="43.99196147045517" lon="12.07191941214328"><ele>425.0</ele><time>2026-04-06T05:57:52Z</time></trkpt><trkpt lat="43.991887351076464" lon="12.07187426740151"><ele>425.0</ele><time>2026-04-06T05:57:54Z</time></trkpt><trkpt lat="43.991790497846004" lon="12.071786748520429"><ele>425.0</ele><time>2026-04-06T05:57:56Z</time></trkpt><trkpt lat="43.99167903238908" lon="12.07168764396762"><ele>425.0</ele><time>2026-04-06T05:57:58Z</time></trkpt><trkpt lat="43.9915920166829" lon="12.071619870782163"><ele>425.0</ele><time>2026-04-06T05:57:59Z</time></trkpt><trkpt lat="43.99147331983185" lon="12.071546124535187"><ele>427.2</ele><time>2026-04-06T05:58:01Z</time></trkpt><trkpt lat="43.99140307301413" lon="12.071502480267482"><ele>429.4</ele><time>2026-04-06T05:58:02Z</time></trkpt><trkpt lat="43.99132885056882" lon="12.071456365908181"><ele>431.6</ele><time>2026-04-06T05:58:03Z</time></trkpt><trkpt lat="43.99123652606267" lon="12.071377165862984"><ele>433.8</ele><time>2026-04-06T05:58:05Z</time></trkpt><trkpt lat="43.99118298497853" lon="12.071327087726717"><ele>436.0</ele><time>2026-04-06T05:58:07Z</time></trkpt><trkpt lat="43.991036123297796" lon="12.071770150311695"><ele>438.0</ele><time>2026-04-06T05:58:10Z</time></trkpt><trkpt lat="43.99102337294924" lon="12.071904805495262"><ele>440.0</ele><time>2026-04-06T05:58:12Z</time></trkpt><trkpt lat="43.990995808538855" lon="12.071994198922612"><ele>442.0</ele><time>2026-04-06T05:58:13Z</time></trkpt><trkpt lat="43.990974411986414" lon="12.072080695681112"><ele>444.0</ele><time>2026-04-06T05:58:14Z</time></trkpt><trkpt lat="43.99094052104022" lon="12.07215817310964"><ele>446.0</ele><time>2026-04-06T05:58:15Z</time></trkpt><trkpt lat="43.99088322170775" lon="12.072202469173364"><ele>448.00000000000006</ele><time>2026-04-06T05:58:16Z</time></trkpt><trkpt lat="43.99081104217932" lon="12.072208480646747"><ele>450.00000000000006</ele><time>2026-04-06T05:58:17Z</time></trkpt><trkpt lat="43.99073489158154" lon="12.072197551850524"><ele>457.6</ele><time>2026-04-06T05:58:18Z</time></trkpt><trkpt lat="43.990657595169836" lon="12.07215057446465"><ele>465.2</ele><time>2026-04-06T05:58:19Z</time></trkpt><trkpt lat="43.990572604575476" lon="12.07213630129763"><ele>472.79999999999995</ele><time>2026-04-06T05:58:20Z</time></trkpt><trkpt lat="43.990474959886825" lon="12.072104252552531"><ele>480.4</ele><time>2026-04-06T05:58:21Z</time></trkpt><trkpt lat="43.99036256237045" lon="12.072079528208334"><ele>488.0</ele><time>2026-04-06T05:58:22Z</time></trkpt><trkpt lat="43.99025568906303" lon="12.072074853036844"><ele>488.0</ele><time>2026-04-06T05:58:23Z</time></trkpt><trkpt lat="43.99014551917242" lon="12.072106550165708"><ele>487.99999999999994</ele><time>2026-04-06T05:58:24Z</time></trkpt><trkpt lat="43.99006533052103" lon="12.072141626154927"><ele>487.99999999999994</ele><time>2026-04-06T05:58:25Z</time></trkpt><trkpt lat="43.989981364788896" lon="12.072159887752653"><ele>488.0</ele><time>2026-04-06T05:58:26Z</time></trkpt><trkpt lat="43.989895008203554" lon="12.072206499028207"><ele>488.0</ele><time>2026-04-06T05:58:27Z</time></trkpt><trkpt lat="43.989812119521545" lon="12.072260352877516"><ele>490.4</ele><time>2026-04-06T05:58:28Z</time></trkpt><trkpt lat="43.989722440627766" lon="12.072326566712094"><ele>492.79999999999995</ele><time>2026-04-06T05:58:29Z</time></trkpt><trkpt lat="43.989640931845976" lon="12.072443073167655"><ele>495.2</ele><time>2026-04-06T05:58:30Z</time></trkpt><trkpt lat="43.989577472121475" lon="12.072543347856364"><ele>497.6</ele><time>2026-04-06T05:58:31Z</time></trkpt><trkpt lat="43.98951327474499" lon="12.072672139448853"><ele>500.0</ele><time>2026-04-06T05:58:32Z</time></trkpt><trkpt lat="43.98941611504035" lon="12.072736050328253"><ele>500.0</ele><time>2026-04-06T05:58:33Z</time></trkpt><trkpt lat="43.98933943370538" lon="12.07280755829035"><ele>500.0</ele><time>2026-04-06T05:58:34Z</time></trkpt><trkpt lat="43.989263745631725" lon="12.072860933383451"><ele>500.0</ele><time>2026-04-06T05:58:35Z</time></trkpt><trkpt lat="43.98918848368332" lon="12.072905842763738"><ele>500.0</ele><time>2026-04-06T05:58:36Z</time></trkpt><trkpt lat="43.98910246575658" lon="12.0729557687921"><ele>500.0</ele><time>2026-04-06T05:58:37Z</time></trkpt><trkpt lat="43.989004991116154" lon="12.072976540673606"><ele>507.0</ele><time>2026-04-06T05:58:38Z</time></trkpt><trkpt lat="43.98891564571988" lon="12.07298661081338"><ele>514.0</ele><time>2026-04-06T05:58:39Z</time></trkpt><trkpt lat="43.98882615031282" lon="12.07299737760933"><ele>521.0</ele><time>2026-04-06T05:58:40Z</time></trkpt><trkpt lat="43.98874417583371" lon="12.072944020596765"><ele>528.0</ele><time>2026-04-06T05:58:41Z</time></trkpt><trkpt lat="43.98868664816931" lon="12.072844220207244"><ele>535.0</ele><time>2026-04-06T05:58:42Z</time></trkpt><trkpt lat="43.98863107656166" lon="12.072735959352359"><ele>535.0</ele><time>2026-04-06T05:58:43Z</time></trkpt><trkpt lat="43.98857252666266" lon="12.072637005985811"><ele>535.0</ele><time>2026-04-06T05:58:44Z</time></trkpt><trkpt lat="43.988517450403556" lon="12.072553200642686"><ele>535.0</ele><time>2026-04-06T05:58:45Z</time></trkpt><trkpt lat="43.988464578833145" lon="12.072487396272741"><ele>535.0</ele><time>2026-04-06T05:58:46Z</time></trkpt><trkpt lat="43.988390984574465" lon="12.072460789239152"><ele>535.0</ele><time>2026-04-06T05:58:47Z</time></trkpt><trkpt lat="43.98824268094899" lon="12.072527371674212"><ele>536.2</ele><time>2026-04-06T05:58:49Z</time></trkpt><trkpt lat="43.98812512897285" lon="12.072581922030274"><ele>537.4</ele><time>2026-04-06T05:58:50Z</time></trkpt><trkpt lat="43.988062945131176" lon="12.072630115221003"><ele>538.6</ele><time>2026-04-06T05:58:51Z</time></trkpt><trkpt lat="43.987965853046866" lon="12.072594522948092"><ele>539.8</ele><time>2026-04-06T05:58:53Z</time></trkpt><trkpt lat="43.98788061888348" lon="12.072604622454756"><ele>541.0</ele><time>2026-04-06T05:58:54Z</time></trkpt><trkpt lat="43.98778652365508" lon="12.07265502214549"><ele>541.0</ele><time>2026-04-06T05:58:55Z</time></trkpt><trkpt lat="43.987705081697776" lon="12.072680733774327"><ele>541.0</ele><time>2026-04-06T05:58:56Z</time></trkpt><trkpt lat="43.987581209653065" lon="12.072733143513936"><ele>541.0</ele><time>2026-04-06T05:58:58Z</time></trkpt><trkpt lat="43.987510913261055" lon="12.072750739987068"><ele>541.0</ele><time>2026-04-06T05:58:59Z</time></trkpt><trkpt lat="43.98744883947478" lon="12.072796464120223"><ele>541.0</ele><time>2026-04-06T05:59:00Z</time></trkpt><trkpt lat="43.98736900239867" lon="12.072910901157078"><ele>545.0</ele><time>2026-04-06T05:59:01Z</time></trkpt><trkpt lat="43.987304743791306" lon="12.072976872407338"><ele>549.0</ele><time>2026-04-06T05:59:02Z</time></trkpt><trkpt lat="43.98722373747215" lon="12.07300987122386"><ele>553.0</ele><time>2026-04-06T05:59:03Z</time></trkpt><trkpt lat="43.98712726228578" lon="12.073033061392843"><ele>557.0</ele><time>2026-04-06T05:59:04Z</time></trkpt><trkpt lat="43.987037039111016" lon="12.073066889802943"><ele>561.0</ele><time>2026-04-06T05:59:05Z</time></trkpt><trkpt lat="43.98695034857498" lon="12.073060611993302"><ele>565.0</ele><time>2026-04-06T05:59:06Z</time></trkpt><trkpt lat="43.9868576868329" lon="12.073073760618126"><ele>565.0</ele><time>2026-04-06T05:59:07Z</time></trkpt><trkpt lat="43.986763970363356" lon="12.073076474723283"><ele>565.0</ele><time>2026-04-06T05:59:08Z</time></trkpt><trkpt lat="43.98667720318033" lon="12.073088774859796"><ele>565.0</ele><time>2026-04-06T05:59:09Z</time></trkpt><trkpt lat="43.98659973559406" lon="12.073114611372617"><ele>565.0</ele><time>2026-04-06T05:59:10Z</time></trkpt><trkpt lat="43.986538074863155" lon="12.073152524095024"><ele>565.0</ele><time>2026-04-06T05:59:12Z</time></trkpt><trkpt lat="43.986456728417664" lon="12.073240541766388"><ele>565.0</ele><time>2026-04-06T05:59:15Z</time></trkpt><trkpt lat="43.986404440713805" lon="12.073342302525989"><ele>563.6</ele><time>2026-04-06T05:59:15.999Z</time></trkpt><trkpt lat="43.98636849266212" lon="12.07342346919682"><ele>562.2</ele><time>2026-04-06T05:59:16.999Z</time></trkpt><trkpt lat="43.98630849979049" lon="12.073533863173806"><ele>560.8</ele><time>2026-04-06T05:59:18.999Z</time></trkpt><trkpt lat="43.98622881043085" lon="12.073618990314534"><ele>559.4</ele><time>2026-04-06T05:59:22.999Z</time></trkpt><trkpt lat="43.986137112864235" lon="12.07352702745587"><ele>558.0</ele><time>2026-04-06T05:59:25.999Z</time></trkpt><trkpt lat="43.98605267130299" lon="12.073496407661832"><ele>557.9999999999999</ele><time>2026-04-06T05:59:26.999Z</time></trkpt><trkpt lat="43.98597258613737" lon="12.073485623683176"><ele>558.0</ele><time>2026-04-06T05:59:27.999Z</time></trkpt><trkpt lat="43.985908313468244" lon="12.073451500287629"><ele>558.0</ele><time>2026-04-06T05:59:28.999Z</time></trkpt><trkpt lat="43.98584642178299" lon="12.073402303242966"><ele>558.0</ele><time>2026-04-06T05:59:29.999Z</time></trkpt><trkpt lat="43.985789424280156" lon="12.073364704240085"><ele>558.0</ele><time>2026-04-06T05:59:30.999Z</time></trkpt><trkpt lat="43.98573609317676" lon="12.073295482342145"><ele>557.9999999999999</ele><time>2026-04-06T05:59:31.999Z</time></trkpt><trkpt lat="43.98568800302518" lon="12.073214121366476"><ele>558.0</ele><time>2026-04-06T05:59:32.999Z</time></trkpt><trkpt lat="43.98558898933821" lon="12.073102522850025"><ele>557.1666666666666</ele><time>2026-04-06T05:59:34.999Z</time></trkpt><trkpt lat="43.985533833872964" lon="12.073051727602094"><ele>556.3333333333334</ele><time>2026-04-06T05:59:35.999Z</time></trkpt><trkpt lat="43.985457726416485" lon="12.073011788560795"><ele>555.5</ele><time>2026-04-06T05:59:36.999Z</time></trkpt><trkpt lat="43.98538392543047" lon="12.072994099076993"><ele>554.6666666666667</ele><time>2026-04-06T05:59:37.999Z</time></trkpt><trkpt lat="43.985313726914946" lon="12.07299886820129"><ele>553.8333333333334</ele><time>2026-04-06T05:59:38.999Z</time></trkpt><trkpt lat="43.985240838529904" lon="12.073018207026859"><ele>553.0</ele><time>2026-04-06T05:59:39.999Z</time></trkpt><trkpt lat="43.98513414341188" lon="12.073017474616835"><ele>548.1666666666667</ele><time>2026-04-06T05:59:41.999Z</time></trkpt><trkpt lat="43.985010982844656" lon="12.072975669360158"><ele>543.3333333333334</ele><time>2026-04-06T05:59:43.999Z</time></trkpt><trkpt lat="43.984931264614055" lon="12.072962150012344"><ele>538.5</ele><time>2026-04-06T05:59:44.999Z</time></trkpt><trkpt lat="43.98485337240514" lon="12.072970792863199"><ele>533.6666666666666</ele><time>2026-04-06T05:59:45.999Z</time></trkpt><trkpt lat="43.9847778117622" lon="12.072971849516922"><ele>528.8333333333333</ele><time>2026-04-06T05:59:46.999Z</time></trkpt><trkpt lat="43.98472007662306" lon="12.072931071942685"><ele>524.0</ele><time>2026-04-06T05:59:47.999Z</time></trkpt><trkpt lat="43.98462352184029" lon="12.072882770637717"><ele>524.0</ele><time>2026-04-06T05:59:49.999Z</time></trkpt><trkpt lat="43.98468673197752" lon="12.072800113571377"><ele>524.0</ele><time>2026-04-06T05:59:51.999Z</time></trkpt><trkpt lat="43.98474752343161" lon="12.072771210268199"><ele>524.0</ele><time>2026-04-06T05:59:53Z</time></trkpt><trkpt lat="43.98481767103883" lon="12.072719409166378"><ele>524.0</ele><time>2026-04-06T05:59:54Z</time></trkpt><trkpt lat="43.98488536282235" lon="12.072635397197438"><ele>524.0</ele><time>2026-04-06T05:59:55Z</time></trkpt><trkpt lat="43.9849424962548" lon="12.072519333174506"><ele>524.0</ele><time>2026-04-06T05:59:56Z</time></trkpt><trkpt lat="43.985001570700334" lon="12.072444084478478"><ele>525.8333333333333</ele><time>2026-04-06T05:59:57Z</time></trkpt><trkpt lat="43.98506509105496" lon="12.07240519151194"><ele>527.6666666666666</ele><time>2026-04-06T05:59:58Z</time></trkpt><trkpt lat="43.98514075983509" lon="12.072394707593626"><ele>529.5</ele><time>2026-04-06T05:59:59Z</time></trkpt><trkpt lat="43.98521858663116" lon="12.072374691429728"><ele>531.3333333333334</ele><time>2026-04-06T06:00:01Z</time></trkpt><trkpt lat="43.985266870410754" lon="12.072285643829748"><ele>533.1666666666667</ele><time>2026-04-06T06:00:03Z</time></trkpt><trkpt lat="43.98531043351953" lon="12.072207698746427"><ele>535.0</ele><time>2026-04-06T06:00:04Z</time></trkpt><trkpt lat="43.985384394932005" lon="12.07212716475374"><ele>535.0</ele><time>2026-04-06T06:00:05Z</time></trkpt><trkpt lat="43.98543584198828" lon="12.07204761147453"><ele>535.0</ele><time>2026-04-06T06:00:06Z</time></trkpt><trkpt lat="43.98548134695973" lon="12.07193954719361"><ele>535.0</ele><time>2026-04-06T06:00:07Z</time></trkpt><trkpt lat="43.98554425861236" lon="12.071922923224347"><ele>535.0</ele><time>2026-04-06T06:00:08Z</time></trkpt><trkpt lat="43.98566108917538" lon="12.071908891011915"><ele>535.0</ele><time>2026-04-06T06:00:10Z</time></trkpt><trkpt lat="43.98570420741808" lon="12.07182945453623"><ele>535.0</ele><time>2026-04-06T06:00:13Z</time></trkpt><trkpt lat="43.985757942347966" lon="12.071759017925112"><ele>535.0</ele><time>2026-04-06T06:00:16Z</time></trkpt><trkpt lat="43.985827658093946" lon="12.07170060993804"><ele>535.0</ele><time>2026-04-06T06:00:19Z</time></trkpt><trkpt lat="43.98578518986566" lon="12.071609043016622"><ele>535.0</ele><time>2026-04-06T06:00:22Z</time></trkpt><trkpt lat="43.98575215573661" lon="12.07152739469262"><ele>535.0</ele><time>2026-04-06T06:00:24Z</time></trkpt><trkpt lat="43.98579155107481" lon="12.071428266041183"><ele>535.0</ele><time>2026-04-06T06:00:26Z</time></trkpt><trkpt lat="43.98575432990644" lon="12.071282580962087"><ele>535.0</ele><time>2026-04-06T06:00:28Z</time></trkpt><trkpt lat="43.98574248922413" lon="12.071108992698816"><ele>534.0</ele><time>2026-04-06T06:00:30Z</time></trkpt><trkpt lat="43.985798236348266" lon="12.070987998051233"><ele>533.0</ele><time>2026-04-06T06:00:31Z</time></trkpt><trkpt lat="43.98585959298172" lon="12.070872206392933"><ele>532.0</ele><time>2026-04-06T06:00:32Z</time></trkpt><trkpt lat="43.98590372434717" lon="12.070754822977513"><ele>531.0</ele><time>2026-04-06T06:00:33Z</time></trkpt><trkpt lat="43.98593211684207" lon="12.070626077204412"><ele>530.0</ele><time>2026-04-06T06:00:34Z</time></trkpt><trkpt lat="43.985934317832466" lon="12.070494161292084"><ele>533.8333333333333</ele><time>2026-04-06T06:00:35Z</time></trkpt><trkpt lat="43.98590449870824" lon="12.07038177638796"><ele>537.6666666666666</ele><time>2026-04-06T06:00:36Z</time></trkpt><trkpt lat="43.985854469990585" lon="12.070322786629111"><ele>541.5</ele><time>2026-04-06T06:00:37Z</time></trkpt><trkpt lat="43.98577643203566" lon="12.070318974881241"><ele>545.3333333333334</ele><time>2026-04-06T06:00:38Z</time></trkpt><trkpt lat="43.98567989318785" lon="12.07033299819371"><ele>549.1666666666667</ele><time>2026-04-06T06:00:39Z</time></trkpt><trkpt lat="43.98557341242773" lon="12.070339734782811"><ele>553.0</ele><time>2026-04-06T06:00:40Z</time></trkpt><trkpt lat="43.9854691795814" lon="12.070357354769559"><ele>553.0</ele><time>2026-04-06T06:00:41Z</time></trkpt><trkpt lat="43.98537793985985" lon="12.07033179681057"><ele>553.0</ele><time>2026-04-06T06:00:42Z</time></trkpt><trkpt lat="43.98528997385185" lon="12.070273947751595"><ele>553.0</ele><time>2026-04-06T06:00:43Z</time></trkpt><trkpt lat="43.985213194645766" lon="12.070241307912093"><ele>553.0</ele><time>2026-04-06T06:00:44Z</time></trkpt><trkpt lat="43.98520343643686" lon="12.070093724560333"><ele>553.0</ele><time>2026-04-06T06:00:46Z</time></trkpt><trkpt lat="43.98521455335276" lon="12.069983488827576"><ele>554.8</ele><time>2026-04-06T06:00:47Z</time></trkpt><trkpt lat="43.98523353505626" lon="12.06983343421791"><ele>556.5999999999999</ele><time>2026-04-06T06:00:48Z</time></trkpt><trkpt lat="43.98524109851042" lon="12.06968507160569"><ele>558.4000000000001</ele><time>2026-04-06T06:00:49Z</time></trkpt><trkpt lat="43.98522422350539" lon="12.069574515176576"><ele>560.2</ele><time>2026-04-06T06:00:50Z</time></trkpt><trkpt lat="43.98519871264808" lon="12.069471498292963"><ele>562.0</ele><time>2026-04-06T06:00:51Z</time></trkpt><trkpt lat="43.98526961851425" lon="12.069388751760359"><ele>562.0</ele><time>2026-04-06T06:00:53Z</time></trkpt><trkpt lat="43.98535327956595" lon="12.069272045797067"><ele>562.0</ele><time>2026-04-06T06:00:55Z</time></trkpt><trkpt lat="43.98543185963389" lon="12.069225816391317"><ele>562.0</ele><time>2026-04-06T06:00:56Z</time></trkpt><trkpt lat="43.98547382333847" lon="12.069144790995791"><ele>562.0</ele><time>2026-04-06T06:00:58Z</time></trkpt><trkpt lat="43.985498526390245" lon="12.06902319832675"><ele>562.0</ele><time>2026-04-06T06:01:01Z</time></trkpt><trkpt lat="43.98542895093805" lon="12.068729868083075"><ele>563.5</ele><time>2026-04-06T06:01:04Z</time></trkpt><trkpt lat="43.98536336788331" lon="12.068600082806435"><ele>565.0</ele><time>2026-04-06T06:01:06Z</time></trkpt><trkpt lat="43.985320414817565" lon="12.06851629029797"><ele>566.5</ele><time>2026-04-06T06:01:07Z</time></trkpt><trkpt lat="43.985255640987916" lon="12.068432959473702"><ele>568.0</ele><time>2026-04-06T06:01:08Z</time></trkpt><trkpt lat="43.98517516326272" lon="12.068372991604909"><ele>569.5</ele><time>2026-04-06T06:01:09Z</time></trkpt><trkpt lat="43.98510250420336" lon="12.06832556468304"><ele>571.0</ele><time>2026-04-06T06:01:10Z</time></trkpt><trkpt lat="43.98502077810561" lon="12.068267494984713"><ele>566.75</ele><time>2026-04-06T06:01:11Z</time></trkpt><trkpt lat="43.984927283529856" lon="12.068216498562496"><ele>562.5</ele><time>2026-04-06T06:01:12Z</time></trkpt><trkpt lat="43.9848147883587" lon="12.068188956479498"><ele>558.25</ele><time>2026-04-06T06:01:13Z</time></trkpt><trkpt lat="43.9846928668892" lon="12.068189541488424"><ele>554.0</ele><time>2026-04-06T06:01:14Z</time></trkpt><trkpt lat="43.984576101804194" lon="12.068192472886787"><ele>554.0</ele><time>2026-04-06T06:01:15Z</time></trkpt><trkpt lat="43.98445981494816" lon="12.068208518843647"><ele>554.0</ele><time>2026-04-06T06:01:16Z</time></trkpt><trkpt lat="43.98435853409653" lon="12.068210156208979"><ele>554.0</ele><time>2026-04-06T06:01:17Z</time></trkpt><trkpt lat="43.98429141142846" lon="12.068203200066435"><ele>554.0</ele><time>2026-04-06T06:01:18Z</time></trkpt><trkpt lat="43.98431136555181" lon="12.068052099202601"><ele>554.0</ele><time>2026-04-06T06:01:19.999Z</time></trkpt><trkpt lat="43.98434858878247" lon="12.067909783071205"><ele>554.0</ele><time>2026-04-06T06:01:21.999Z</time></trkpt><trkpt lat="43.98442383702717" lon="12.067818673360131"><ele>554.0</ele><time>2026-04-06T06:01:22.999Z</time></trkpt><trkpt lat="43.98442388746638" lon="12.067685461742723"><ele>554.0</ele><time>2026-04-06T06:01:23.999Z</time></trkpt><trkpt lat="43.98442996053899" lon="12.067532763993512"><ele>554.0</ele><time>2026-04-06T06:01:24.999Z</time></trkpt><trkpt lat="43.98444126403791" lon="12.067373840450815"><ele>554.0</ele><time>2026-04-06T06:01:25.999Z</time></trkpt><trkpt lat="43.98442882141591" lon="12.067229713435587"><ele>557.8333333333333</ele><time>2026-04-06T06:01:26.999Z</time></trkpt><trkpt lat="43.984399378254125" lon="12.067104235720691"><ele>561.6666666666666</ele><time>2026-04-06T06:01:27.999Z</time></trkpt><trkpt lat="43.984352210863264" lon="12.067000669073346"><ele>565.5</ele><time>2026-04-06T06:01:28.999Z</time></trkpt><trkpt lat="43.98432282090174" lon="12.0668968367086"><ele>569.3333333333334</ele><time>2026-04-06T06:01:29.999Z</time></trkpt><trkpt lat="43.984297167590164" lon="12.066790533161706"><ele>573.1666666666667</ele><time>2026-04-06T06:01:30.999Z</time></trkpt><trkpt lat="43.98426460328338" lon="12.066687543352373"><ele>577.0</ele><time>2026-04-06T06:01:31.999Z</time></trkpt><trkpt lat="43.984184984903486" lon="12.066592818722722"><ele>575.0</ele><time>2026-04-06T06:01:32.999Z</time></trkpt><trkpt lat="43.984077769952236" lon="12.066506904800107"><ele>573.0</ele><time>2026-04-06T06:01:33.999Z</time></trkpt><trkpt lat="43.98398251698155" lon="12.06644113074367"><ele>571.0</ele><time>2026-04-06T06:01:34.999Z</time></trkpt><trkpt lat="43.98391444960127" lon="12.06638119274068"><ele>569.0</ele><time>2026-04-06T06:01:35.999Z</time></trkpt><trkpt lat="43.983855560446415" lon="12.066295535159702"><ele>567.0</ele><time>2026-04-06T06:01:36.999Z</time></trkpt><trkpt lat="43.98378341792524" lon="12.066223105103877"><ele>567.0</ele><time>2026-04-06T06:01:37.999Z</time></trkpt><trkpt lat="43.98367868920449" lon="12.06618569009806"><ele>567.0</ele><time>2026-04-06T06:01:38.999Z</time></trkpt><trkpt lat="43.98359249278064" lon="12.066189790442442"><ele>567.0</ele><time>2026-04-06T06:01:39.999Z</time></trkpt><trkpt lat="43.9835125091779" lon="12.066148860432534"><ele>567.0</ele><time>2026-04-06T06:01:40.999Z</time></trkpt><trkpt lat="43.983434327091594" lon="12.066098311530176"><ele>567.0</ele><time>2026-04-06T06:01:41.999Z</time></trkpt><trkpt lat="43.983346043137004" lon="12.066028259140303"><ele>562.2</ele><time>2026-04-06T06:01:42.999Z</time></trkpt><trkpt lat="43.98325924707859" lon="12.06593777289724"><ele>557.4000000000001</ele><time>2026-04-06T06:01:43.999Z</time></trkpt><trkpt lat="43.983158544952126" lon="12.065873362975065"><ele>552.5999999999999</ele><time>2026-04-06T06:01:44.999Z</time></trkpt><trkpt lat="43.98307170797602" lon="12.065766108793303"><ele>547.8</ele><time>2026-04-06T06:01:45.999Z</time></trkpt><trkpt lat="43.98298922680258" lon="12.065690154699718"><ele>543.0</ele><time>2026-04-06T06:01:46.999Z</time></trkpt><trkpt lat="43.982880934246815" lon="12.065622382748893"><ele>543.0</ele><time>2026-04-06T06:01:47.999Z</time></trkpt><trkpt lat="43.982797893885675" lon="12.065535707382532"><ele>543.0</ele><time>2026-04-06T06:01:48.999Z</time></trkpt><trkpt lat="43.98271819281421" lon="12.065442579727938"><ele>543.0</ele><time>2026-04-06T06:01:49.999Z</time></trkpt><trkpt lat="43.982645584648914" lon="12.065365871041024"><ele>543.0</ele><time>2026-04-06T06:01:50.999Z</time></trkpt><trkpt lat="43.98258827652604" lon="12.06529900074895"><ele>543.0</ele><time>2026-04-06T06:01:51.999Z</time></trkpt><trkpt lat="43.982612081962" lon="12.06514446806277"><ele>543.0</ele><time>2026-04-06T06:01:53.999Z</time></trkpt><trkpt lat="43.98265605391844" lon="12.06506110020412"><ele>543.0</ele><time>2026-04-06T06:01:54.999Z</time></trkpt><trkpt lat="43.98271283131116" lon="12.064989798705868"><ele>543.0</ele><time>2026-04-06T06:01:55.999Z</time></trkpt><trkpt lat="43.98278321571659" lon="12.064948783535344"><ele>543.0</ele><time>2026-04-06T06:01:56.999Z</time></trkpt><trkpt lat="43.98284930069546" lon="12.064925104085026"><ele>543.0</ele><time>2026-04-06T06:01:57.999Z</time></trkpt><trkpt lat="43.982932797418" lon="12.064917121896066"><ele>543.0</ele><time>2026-04-06T06:01:59Z</time></trkpt><trkpt lat="43.98304254369607" lon="12.064914238356717"><ele>542.5</ele><time>2026-04-06T06:02:00Z</time></trkpt><trkpt lat="43.983165651719176" lon="12.064912591354314"><ele>542.0</ele><time>2026-04-06T06:02:01Z</time></trkpt><trkpt lat="43.983241955072224" lon="12.064896746211707"><ele>541.5</ele><time>2026-04-06T06:02:02Z</time></trkpt><trkpt lat="43.983301158761" lon="12.064838515186322"><ele>541.0</ele><time>2026-04-06T06:02:04Z</time></trkpt><trkpt lat="43.983309639000105" lon="12.064728536220922"><ele>540.5</ele><time>2026-04-06T06:02:05Z</time></trkpt><trkpt lat="43.983293684807926" lon="12.064604718076872"><ele>540.0</ele><time>2026-04-06T06:02:06Z</time></trkpt><trkpt lat="43.983277124114565" lon="12.064462849512164"><ele>540.0</ele><time>2026-04-06T06:02:07Z</time></trkpt><trkpt lat="43.98322488997665" lon="12.064307881555896"><ele>540.0</ele><time>2026-04-06T06:02:08Z</time></trkpt><trkpt lat="43.98315508830085" lon="12.064164730163556"><ele>540.0</ele><time>2026-04-06T06:02:09Z</time></trkpt><trkpt lat="43.98308464954547" lon="12.064040538230314"><ele>540.0</ele><time>2026-04-06T06:02:10Z</time></trkpt><trkpt lat="43.98307083810445" lon="12.06395368062649"><ele>540.0</ele><time>2026-04-06T06:02:11Z</time></trkpt><trkpt lat="43.98312650895191" lon="12.063785383840129"><ele>537.75</ele><time>2026-04-06T06:02:13Z</time></trkpt><trkpt lat="43.98321093266469" lon="12.063708007693924"><ele>535.5</ele><time>2026-04-06T06:02:14Z</time></trkpt><trkpt lat="43.98331389383984" lon="12.063634738081946"><ele>533.25</ele><time>2026-04-06T06:02:15Z</time></trkpt><trkpt lat="43.98342504050124" lon="12.063553513813906"><ele>531.0</ele><time>2026-04-06T06:02:16Z</time></trkpt><trkpt lat="43.98354080686126" lon="12.063481132689557"><ele>537.4</ele><time>2026-04-06T06:02:17Z</time></trkpt><trkpt lat="43.983624733700466" lon="12.063402526397809"><ele>543.8</ele><time>2026-04-06T06:02:18Z</time></trkpt><trkpt lat="43.983668752830795" lon="12.063303725379305"><ele>550.1999999999999</ele><time>2026-04-06T06:02:19Z</time></trkpt><trkpt lat="43.983708416250366" lon="12.0631291849138"><ele>556.6</ele><time>2026-04-06T06:02:20Z</time></trkpt><trkpt lat="43.98377874013498" lon="12.062973328826734"><ele>563.0</ele><time>2026-04-06T06:02:21Z</time></trkpt><trkpt lat="43.98383670676886" lon="12.062849544118745"><ele>563.0</ele><time>2026-04-06T06:02:22Z</time></trkpt><trkpt lat="43.98385569504626" lon="12.062737912281237"><ele>563.0</ele><time>2026-04-06T06:02:23Z</time></trkpt><trkpt lat="43.983843626178576" lon="12.062616610842936"><ele>563.0</ele><time>2026-04-06T06:02:24Z</time></trkpt><trkpt lat="43.98381458327746" lon="12.062485268767789"><ele>563.0</ele><time>2026-04-06T06:02:25Z</time></trkpt><trkpt lat="43.983753228393816" lon="12.062374968399519"><ele>563.0</ele><time>2026-04-06T06:02:26Z</time></trkpt><trkpt lat="43.98367336399656" lon="12.06229154000603"><ele>561.6</ele><time>2026-04-06T06:02:27Z</time></trkpt><trkpt lat="43.98359586010331" lon="12.062223744219516"><ele>560.1999999999999</ele><time>2026-04-06T06:02:28Z</time></trkpt><trkpt lat="43.98361327808977" lon="12.062075023808404"><ele>558.8</ele><time>2026-04-06T06:02:30Z</time></trkpt><trkpt lat="43.98365484416795" lon="12.061961366318188"><ele>557.4</ele><time>2026-04-06T06:02:31Z</time></trkpt><trkpt lat="43.983682597599014" lon="12.061880332064387"><ele>556.0</ele><time>2026-04-06T06:02:32Z</time></trkpt><trkpt lat="43.98370327970543" lon="12.06173970350143"><ele>556.0</ele><time>2026-04-06T06:02:34Z</time></trkpt><trkpt lat="43.98356011022998" lon="12.061631242724536"><ele>556.0</ele><time>2026-04-06T06:02:36Z</time></trkpt><trkpt lat="43.98349954982676" lon="12.061507609487403"><ele>556.0</ele><time>2026-04-06T06:02:38Z</time></trkpt><trkpt lat="43.983441776258076" lon="12.061400038044189"><ele>556.0</ele><time>2026-04-06T06:02:40Z</time></trkpt><trkpt lat="43.98341762826071" lon="12.061309442818066"><ele>556.0</ele><time>2026-04-06T06:02:49Z</time></trkpt><trkpt lat="43.98334657345515" lon="12.061258206509281"><ele>557.0</ele><time>2026-04-06T06:02:51Z</time></trkpt><trkpt lat="43.98345989282384" lon="12.060905795165745"><ele>558.0</ele><time>2026-04-06T06:02:55Z</time></trkpt><trkpt lat="43.983434220000476" lon="12.06082125795373"><ele>559.0</ele><time>2026-04-06T06:03:01Z</time></trkpt><trkpt lat="43.983384543162316" lon="12.060755395141584"><ele>560.0</ele><time>2026-04-06T06:03:06Z</time></trkpt><trkpt lat="43.98332860141822" lon="12.060708927567434"><ele>560.0</ele><time>2026-04-06T06:03:08Z</time></trkpt><trkpt lat="43.98330476592859" lon="12.060617223951422"><ele>560.0</ele><time>2026-04-06T06:03:10Z</time></trkpt><trkpt lat="43.983266215646275" lon="12.060513443191597"><ele>560.0</ele><time>2026-04-06T06:03:13Z</time></trkpt><trkpt lat="43.98322358214057" lon="12.06041295220138"><ele>560.0</ele><time>2026-04-06T06:03:15Z</time></trkpt><trkpt lat="43.98316174197246" lon="12.060372954346619"><ele>560.0</ele><time>2026-04-06T06:03:16.999Z</time></trkpt><trkpt lat="43.98312223380357" lon="12.060300003661066"><ele>560.0</ele><time>2026-04-06T06:03:18.999Z</time></trkpt><trkpt lat="43.98304301257365" lon="12.060218772280077"><ele>560.0</ele><time>2026-04-06T06:03:20.999Z</time></trkpt><trkpt lat="43.98301458020086" lon="12.060128390378027"><ele>560.0</ele><time>2026-04-06T06:03:22.999Z</time></trkpt><trkpt lat="43.98299618033783" lon="12.05998925399369"><ele>560.0</ele><time>2026-04-06T06:03:25.999Z</time></trkpt><trkpt lat="43.9829672569619" lon="12.05985005619459"><ele>560.0</ele><time>2026-04-06T06:03:27.999Z</time></trkpt><trkpt lat="43.9829111178536" lon="12.059759289036101"><ele>560.0</ele><time>2026-04-06T06:03:29.999Z</time></trkpt><trkpt lat="43.98292765698793" lon="12.059668143650063"><ele>560.0</ele><time>2026-04-06T06:03:34.999Z</time></trkpt><trkpt lat="43.98293328584311" lon="12.059566346149142"><ele>559.1666666666666</ele><time>2026-04-06T06:03:36.999Z</time></trkpt><trkpt lat="43.982859376779835" lon="12.059490111193323"><ele>558.3333333333333</ele><time>2026-04-06T06:03:39.999Z</time></trkpt><trkpt lat="43.982809935486216" lon="12.05940767680847"><ele>557.5</ele><time>2026-04-06T06:03:41.999Z</time></trkpt><trkpt lat="43.982769387693466" lon="12.059290269723046"><ele>556.6666666666666</ele><time>2026-04-06T06:03:43.999Z</time></trkpt><trkpt lat="43.982686598395425" lon="12.059228836601672"><ele>555.8333333333334</ele><time>2026-04-06T06:03:45.999Z</time></trkpt><trkpt lat="43.98262051026694" lon="12.059209906580325"><ele>555.0</ele><time>2026-04-06T06:03:48.999Z</time></trkpt><trkpt lat="43.982571693026436" lon="12.059106712366706"><ele>560.2</ele><time>2026-04-06T06:03:51.999Z</time></trkpt><trkpt lat="43.98250353808604" lon="12.058979139401826"><ele>565.4</ele><time>2026-04-06T06:03:54.999Z</time></trkpt><trkpt lat="43.982445090931606" lon="12.058881736090745"><ele>570.6</ele><time>2026-04-06T06:03:59.999Z</time></trkpt><trkpt lat="43.98244383545636" lon="12.058764989229719"><ele>575.8</ele><time>2026-04-06T06:04:01.999Z</time></trkpt><trkpt lat="43.982411550258945" lon="12.058617357662431"><ele>581.0</ele><time>2026-04-06T06:04:05Z</time></trkpt><trkpt lat="43.98239532781422" lon="12.058519660354932"><ele>581.0</ele><time>2026-04-06T06:04:06Z</time></trkpt><trkpt lat="43.982371140591205" lon="12.058393950342536"><ele>581.0</ele><time>2026-04-06T06:04:08Z</time></trkpt><trkpt lat="43.98240476276129" lon="12.058253033507913"><ele>581.0</ele><time>2026-04-06T06:04:11Z</time></trkpt><trkpt lat="43.98238467717658" lon="12.058166918453527"><ele>581.0</ele><time>2026-04-06T06:04:12Z</time></trkpt><trkpt lat="43.98232953751596" lon="12.058052635557397"><ele>581.0</ele><time>2026-04-06T06:04:14Z</time></trkpt><trkpt lat="43.98229317496422" lon="12.057971421416553"><ele>581.0</ele><time>2026-04-06T06:04:15Z</time></trkpt><trkpt lat="43.98228375393515" lon="12.057840784700215"><ele>580.3333333333333</ele><time>2026-04-06T06:04:17Z</time></trkpt><trkpt lat="43.98228363666978" lon="12.057745487392934"><ele>579.6666666666666</ele><time>2026-04-06T06:04:18Z</time></trkpt><trkpt lat="43.98227163148874" lon="12.057647580998934"><ele>579.0</ele><time>2026-04-06T06:04:19Z</time></trkpt><trkpt lat="43.982249719541244" lon="12.057548534753321"><ele>578.3333333333334</ele><time>2026-04-06T06:04:20Z</time></trkpt><trkpt lat="43.98222900741103" lon="12.057454410533444"><ele>577.6666666666667</ele><time>2026-04-06T06:04:21Z</time></trkpt><trkpt lat="43.98215861084341" lon="12.057329990557868"><ele>577.0</ele><time>2026-04-06T06:04:23Z</time></trkpt><trkpt lat="43.982083330833376" lon="12.057195637131432"><ele>576.4</ele><time>2026-04-06T06:04:25Z</time></trkpt><trkpt lat="43.982022912341904" lon="12.05703883305814"><ele>575.8000000000001</ele><time>2026-04-06T06:04:27Z</time></trkpt><trkpt lat="43.981971667004956" lon="12.05689916830736"><ele>575.2</ele><time>2026-04-06T06:04:29Z</time></trkpt><trkpt lat="43.981951929890144" lon="12.05676311132783"><ele>574.6</ele><time>2026-04-06T06:04:31Z</time></trkpt><trkpt lat="43.98198396267294" lon="12.056634629784286"><ele>574.0</ele><time>2026-04-06T06:04:33Z</time></trkpt><trkpt lat="43.98203141486723" lon="12.056570252036845"><ele>576.8</ele><time>2026-04-06T06:04:34Z</time></trkpt><trkpt lat="43.98209359449382" lon="12.056391579138761"><ele>579.5999999999999</ele><time>2026-04-06T06:04:36Z</time></trkpt><trkpt lat="43.982133539317516" lon="12.056269172180306"><ele>582.4</ele><time>2026-04-06T06:04:37Z</time></trkpt><trkpt lat="43.98216799731482" lon="12.056136145087521"><ele>585.1999999999999</ele><time>2026-04-06T06:04:38Z</time></trkpt><trkpt lat="43.98218765933125" lon="12.05600523975972"><ele>588.0</ele><time>2026-04-06T06:04:39Z</time></trkpt><trkpt lat="43.982198441640364" lon="12.055896611792237"><ele>588.0</ele><time>2026-04-06T06:04:40Z</time></trkpt><trkpt lat="43.982211838193116" lon="12.055794369249158"><ele>588.0</ele><time>2026-04-06T06:04:41Z</time></trkpt><trkpt lat="43.98223137889206" lon="12.055691085072928"><ele>588.0</ele><time>2026-04-06T06:04:42Z</time></trkpt><trkpt lat="43.98225352921629" lon="12.05557406297124"><ele>588.0</ele><time>2026-04-06T06:04:43Z</time></trkpt><trkpt lat="43.982256842827475" lon="12.05543556993668"><ele>588.0</ele><time>2026-04-06T06:04:44Z</time></trkpt><trkpt lat="43.98223826551154" lon="12.055305275211735"><ele>588.0</ele><time>2026-04-06T06:04:45Z</time></trkpt><trkpt lat="43.98221176899583" lon="12.055189209716687"><ele>590.6</ele><time>2026-04-06T06:04:46Z</time></trkpt><trkpt lat="43.98216054972673" lon="12.055110572667312"><ele>593.1999999999999</ele><time>2026-04-06T06:04:47Z</time></trkpt><trkpt lat="43.98209108966748" lon="12.055042472979334"><ele>595.8</ele><time>2026-04-06T06:04:48Z</time></trkpt><trkpt lat="43.98202588060181" lon="12.054949490231682"><ele>598.4</ele><time>2026-04-06T06:04:49Z</time></trkpt><trkpt lat="43.981958868575276" lon="12.054829589287264"><ele>601.0</ele><time>2026-04-06T06:04:50Z</time></trkpt><trkpt lat="43.9818763392786" lon="12.054740045189925"><ele>601.0</ele><time>2026-04-06T06:04:51Z</time></trkpt><trkpt lat="43.98178562116427" lon="12.054691004211815"><ele>601.0</ele><time>2026-04-06T06:04:52Z</time></trkpt><trkpt lat="43.981697599400924" lon="12.054630701541953"><ele>601.0</ele><time>2026-04-06T06:04:53Z</time></trkpt><trkpt lat="43.98164221967203" lon="12.054555103534172"><ele>601.0</ele><time>2026-04-06T06:04:54Z</time></trkpt><trkpt lat="43.981616424264764" lon="12.054454290204033"><ele>601.0</ele><time>2026-04-06T06:04:55Z</time></trkpt><trkpt lat="43.98158431328191" lon="12.054318084107079"><ele>602.0</ele><time>2026-04-06T06:04:56Z</time></trkpt><trkpt lat="43.98153700476906" lon="12.054221000858215"><ele>603.0</ele><time>2026-04-06T06:04:57Z</time></trkpt><trkpt lat="43.98145736988727" lon="12.054171645189587"><ele>604.0</ele><time>2026-04-06T06:04:58Z</time></trkpt><trkpt lat="43.98133029971541" lon="12.054161549558572"><ele>605.0</ele><time>2026-04-06T06:04:59Z</time></trkpt><trkpt lat="43.98122086766613" lon="12.05411086444529"><ele>606.0</ele><time>2026-04-06T06:05:00Z</time></trkpt><trkpt lat="43.98113609989603" lon="12.054073692722422"><ele>604.3333333333334</ele><time>2026-04-06T06:05:01Z</time></trkpt><trkpt lat="43.98106183174471" lon="12.054062227195883"><ele>602.6666666666666</ele><time>2026-04-06T06:05:02Z</time></trkpt><trkpt lat="43.9809898726565" lon="12.054110228612474"><ele>601.0</ele><time>2026-04-06T06:05:03Z</time></trkpt><trkpt lat="43.98091919941217" lon="12.054110169252581"><ele>599.3333333333333</ele><time>2026-04-06T06:05:04Z</time></trkpt><trkpt lat="43.9808273328311" lon="12.05405224180128"><ele>597.6666666666666</ele><time>2026-04-06T06:05:05Z</time></trkpt><trkpt lat="43.980745445710056" lon="12.0540120712426"><ele>596.0</ele><time>2026-04-06T06:05:06Z</time></trkpt><trkpt lat="43.98065051623134" lon="12.053989705380944"><ele>596.0</ele><time>2026-04-06T06:05:07Z</time></trkpt><trkpt lat="43.98054294283517" lon="12.053985287086642"><ele>596.0</ele><time>2026-04-06T06:05:09Z</time></trkpt><trkpt lat="43.98049922209932" lon="12.05391390850503"><ele>596.0</ele><time>2026-04-06T06:05:11.999Z</time></trkpt><trkpt lat="43.9805301758224" lon="12.053818768143266"><ele>596.0</ele><time>2026-04-06T06:05:13.999Z</time></trkpt><trkpt lat="43.98056515984858" lon="12.053744664307727"><ele>596.0</ele><time>2026-04-06T06:05:14.999Z</time></trkpt><trkpt lat="43.9806375974028" lon="12.053622399136453"><ele>596.0</ele><time>2026-04-06T06:05:16.999Z</time></trkpt><trkpt lat="43.9806748616455" lon="12.05354046349568"><ele>596.0</ele><time>2026-04-06T06:05:17.999Z</time></trkpt><trkpt lat="43.98070861958712" lon="12.05344842146553"><ele>596.0</ele><time>2026-04-06T06:05:18.999Z</time></trkpt><trkpt lat="43.98075793119201" lon="12.053281128369841"><ele>596.0</ele><time>2026-04-06T06:05:20.999Z</time></trkpt><trkpt lat="43.98075609344749" lon="12.053185391178953"><ele>596.0</ele><time>2026-04-06T06:05:21.999Z</time></trkpt><trkpt lat="43.980759157807746" lon="12.053095557745527"><ele>596.0</ele><time>2026-04-06T06:05:22.999Z</time></trkpt><trkpt lat="43.98076619985375" lon="12.053004988105169"><ele>596.0</ele><time>2026-04-06T06:05:23.999Z</time></trkpt><trkpt lat="43.98078235995531" lon="12.052912777007773"><ele>599.8</ele><time>2026-04-06T06:05:24.999Z</time></trkpt><trkpt lat="43.980879615473675" lon="12.05280293772924"><ele>603.6</ele><time>2026-04-06T06:05:26.999Z</time></trkpt><trkpt lat="43.9809504025579" lon="12.052763122590592"><ele>607.4</ele><time>2026-04-06T06:05:27.999Z</time></trkpt><trkpt lat="43.98106031292143" lon="12.052679334124404"><ele>611.2</ele><time>2026-04-06T06:05:29.999Z</time></trkpt><trkpt lat="43.98111622261249" lon="12.052614559141666"><ele>615.0</ele><time>2026-04-06T06:05:30.999Z</time></trkpt><trkpt lat="43.98115565797408" lon="12.052543378838754"><ele>615.0</ele><time>2026-04-06T06:05:31.999Z</time></trkpt><trkpt lat="43.98118582015015" lon="12.052462373342165"><ele>615.0</ele><time>2026-04-06T06:05:32.999Z</time></trkpt><trkpt lat="43.981225753328665" lon="12.05237950243753"><ele>615.0</ele><time>2026-04-06T06:05:33.999Z</time></trkpt><trkpt lat="43.981282333154454" lon="12.052226674583503"><ele>615.0</ele><time>2026-04-06T06:05:35.999Z</time></trkpt><trkpt lat="43.981309928503734" lon="12.052137733599313"><ele>615.0</ele><time>2026-04-06T06:05:36.999Z</time></trkpt><trkpt lat="43.981339098940104" lon="12.052049703560433"><ele>615.0</ele><time>2026-04-06T06:05:37.999Z</time></trkpt><trkpt lat="43.981386606308625" lon="12.051986929094111"><ele>614.6666666666666</ele><time>2026-04-06T06:05:38.999Z</time></trkpt><trkpt lat="43.98149976007383" lon="12.05193314056686"><ele>614.3333333333334</ele><time>2026-04-06T06:05:40.999Z</time></trkpt><trkpt lat="43.98156143002152" lon="12.051911833633687"><ele>614.0</ele><time>2026-04-06T06:05:41.999Z</time></trkpt><trkpt lat="43.981628019861915" lon="12.051794568542327"><ele>613.6666666666667</ele><time>2026-04-06T06:05:43.999Z</time></trkpt><trkpt lat="43.981677599044126" lon="12.05172247382291"><ele>613.3333333333334</ele><time>2026-04-06T06:05:44.999Z</time></trkpt><trkpt lat="43.98173811885735" lon="12.051659029751733"><ele>613.0</ele><time>2026-04-06T06:05:45.999Z</time></trkpt><trkpt lat="43.98176396296755" lon="12.051571946216521"><ele>617.0</ele><time>2026-04-06T06:05:46.999Z</time></trkpt><trkpt lat="43.981785551359316" lon="12.051471626090233"><ele>621.0</ele><time>2026-04-06T06:05:47.999Z</time></trkpt><trkpt lat="43.981823607043374" lon="12.051396037578225"><ele>625.0</ele><time>2026-04-06T06:05:48.999Z</time></trkpt><trkpt lat="43.981882807917245" lon="12.051338232482342"><ele>629.0</ele><time>2026-04-06T06:05:49.999Z</time></trkpt><trkpt lat="43.981950989368784" lon="12.051296420252257"><ele>633.0</ele><time>2026-04-06T06:05:50.999Z</time></trkpt><trkpt lat="43.98202450512046" lon="12.051275252751903"><ele>637.0</ele><time>2026-04-06T06:05:51.999Z</time></trkpt><trkpt lat="43.98210033553552" lon="12.051243313745863"><ele>641.0</ele><time>2026-04-06T06:05:52.999Z</time></trkpt><trkpt lat="43.982168416122676" lon="12.051218963705873"><ele>641.0</ele><time>2026-04-06T06:05:53.999Z</time></trkpt><trkpt lat="43.98221303780166" lon="12.051111059149306"><ele>641.0</ele><time>2026-04-06T06:05:55.999Z</time></trkpt><trkpt lat="43.98221268768831" lon="12.051018180910056"><ele>641.0</ele><time>2026-04-06T06:05:56.999Z</time></trkpt><trkpt lat="43.98220894485496" lon="12.050904925093441"><ele>641.0</ele><time>2026-04-06T06:05:57.999Z</time></trkpt><trkpt lat="43.98223383804385" lon="12.050818584754655"><ele>641.0</ele><time>2026-04-06T06:05:58.999Z</time></trkpt><trkpt lat="43.98225729257917" lon="12.050727625222375"><ele>641.0</ele><time>2026-04-06T06:05:59.999Z</time></trkpt><trkpt lat="43.982304934127455" lon="12.050660567057548"><ele>641.0</ele><time>2026-04-06T06:06:00.999Z</time></trkpt><trkpt lat="43.98237425310171" lon="12.05063919879731"><ele>638.1999999999999</ele><time>2026-04-06T06:06:01.999Z</time></trkpt><trkpt lat="43.98247195138432" lon="12.05066276596962"><ele>635.4</ele><time>2026-04-06T06:06:02.999Z</time></trkpt><trkpt lat="43.98256963568553" lon="12.050698303545232"><ele>632.6</ele><time>2026-04-06T06:06:03.999Z</time></trkpt><trkpt lat="43.98265689654787" lon="12.050731194177093"><ele>629.8</ele><time>2026-04-06T06:06:04.999Z</time></trkpt><trkpt lat="43.982726197220856" lon="12.05077310712141"><ele>627.0</ele><time>2026-04-06T06:06:05.999Z</time></trkpt><trkpt lat="43.98280656211178" lon="12.05070171735648"><ele>627.0</ele><time>2026-04-06T06:06:07.999Z</time></trkpt><trkpt lat="43.982818920620744" lon="12.050583824597757"><ele>627.0</ele><time>2026-04-06T06:06:08.999Z</time></trkpt><trkpt lat="43.982826337931904" lon="12.050462037144273"><ele>627.0</ele><time>2026-04-06T06:06:09.999Z</time></trkpt><trkpt lat="43.9828439835152" lon="12.050330499311231"><ele>627.0</ele><time>2026-04-06T06:06:11Z</time></trkpt><trkpt lat="43.98289702201922" lon="12.050226321031396"><ele>627.0</ele><time>2026-04-06T06:06:12Z</time></trkpt><trkpt lat="43.98297667260518" lon="12.05012846094226"><ele>627.0</ele><time>2026-04-06T06:06:13Z</time></trkpt><trkpt lat="43.98303005601907" lon="12.05004012087936"><ele>627.0</ele><time>2026-04-06T06:06:14Z</time></trkpt><trkpt lat="43.98306037567219" lon="12.049950839947112"><ele>627.0</ele><time>2026-04-06T06:06:15Z</time></trkpt><trkpt lat="43.9831126465332" lon="12.049835500259974"><ele>627.0</ele><time>2026-04-06T06:06:17Z</time></trkpt><trkpt lat="43.98320942566469" lon="12.049797469161074"><ele>627.0</ele><time>2026-04-06T06:06:19Z</time></trkpt><trkpt lat="43.98328659670856" lon="12.049830686476813"><ele>627.0</ele><time>2026-04-06T06:06:20Z</time></trkpt><trkpt lat="43.983354968641514" lon="12.049841656133362"><ele>625.5</ele><time>2026-04-06T06:06:21Z</time></trkpt><trkpt lat="43.9833858398922" lon="12.049763602787298"><ele>624.0</ele><time>2026-04-06T06:06:23Z</time></trkpt><trkpt lat="43.98330663535762" lon="12.049716826983248"><ele>622.5</ele><time>2026-04-06T06:06:26Z</time></trkpt><trkpt lat="43.98321037429513" lon="12.049729787232565"><ele>621.0</ele><time>2026-04-06T06:06:28Z</time></trkpt><trkpt lat="43.98311707123108" lon="12.049725439564572"><ele>619.5</ele><time>2026-04-06T06:06:29Z</time></trkpt><trkpt lat="43.983020220916245" lon="12.049712567038657"><ele>618.0</ele><time>2026-04-06T06:06:30Z</time></trkpt><trkpt lat="43.982929218089495" lon="12.049697370064415"><ele>618.0</ele><time>2026-04-06T06:06:31Z</time></trkpt><trkpt lat="43.9828303799491" lon="12.049679192793304"><ele>618.0</ele><time>2026-04-06T06:06:32Z</time></trkpt><trkpt lat="43.98271548921432" lon="12.049654451277995"><ele>618.0</ele><time>2026-04-06T06:06:33Z</time></trkpt><trkpt lat="43.98260040888909" lon="12.049615789729131"><ele>618.0</ele><time>2026-04-06T06:06:34Z</time></trkpt><trkpt lat="43.98250501849945" lon="12.049570536053043"><ele>618.0</ele><time>2026-04-06T06:06:35Z</time></trkpt><trkpt lat="43.98242169407235" lon="12.049526432277284"><ele>621.0</ele><time>2026-04-06T06:06:36Z</time></trkpt><trkpt lat="43.98234542911574" lon="12.049479414972957"><ele>624.0</ele><time>2026-04-06T06:06:37Z</time></trkpt><trkpt lat="43.98226886835766" lon="12.049424543981038"><ele>627.0</ele><time>2026-04-06T06:06:38Z</time></trkpt><trkpt lat="43.982186707756846" lon="12.049371764561943"><ele>630.0</ele><time>2026-04-06T06:06:39Z</time></trkpt><trkpt lat="43.98209658095601" lon="12.049321784810207"><ele>633.0</ele><time>2026-04-06T06:06:40Z</time></trkpt><trkpt lat="43.98200413145687" lon="12.049269578762638"><ele>633.0</ele><time>2026-04-06T06:06:41Z</time></trkpt><trkpt lat="43.981908998931644" lon="12.049212484459327"><ele>633.0</ele><time>2026-04-06T06:06:42Z</time></trkpt><trkpt lat="43.98181182758183" lon="12.049144157526653"><ele>633.0</ele><time>2026-04-06T06:06:43Z</time></trkpt><trkpt lat="43.98172006855776" lon="12.049051961759845"><ele>633.0</ele><time>2026-04-06T06:06:44Z</time></trkpt><trkpt lat="43.981644423702555" lon="12.048936417396378"><ele>633.0</ele><time>2026-04-06T06:06:45Z</time></trkpt><trkpt lat="43.981595141523556" lon="12.048793507672245"><ele>635.5999999999999</ele><time>2026-04-06T06:06:46Z</time></trkpt><trkpt lat="43.98153662283983" lon="12.048664982045354"><ele>638.1999999999999</ele><time>2026-04-06T06:06:47Z</time></trkpt><trkpt lat="43.98146748849089" lon="12.048511928495621"><ele>640.8</ele><time>2026-04-06T06:06:48Z</time></trkpt><trkpt lat="43.9813962663021" lon="12.048410572311361"><ele>643.4</ele><time>2026-04-06T06:06:49Z</time></trkpt><trkpt lat="43.981316017693665" lon="12.048325211502682"><ele>646.0</ele><time>2026-04-06T06:06:50Z</time></trkpt><trkpt lat="43.98123485610083" lon="12.048234310608205"><ele>646.0</ele><time>2026-04-06T06:06:51Z</time></trkpt><trkpt lat="43.98116129020338" lon="12.048132541582671"><ele>646.0</ele><time>2026-04-06T06:06:52Z</time></trkpt><trkpt lat="43.981078934451055" lon="12.048044397873424"><ele>646.0</ele><time>2026-04-06T06:06:53Z</time></trkpt><trkpt lat="43.98099639024994" lon="12.047953228662733"><ele>646.0</ele><time>2026-04-06T06:06:54Z</time></trkpt><trkpt lat="43.98091834504839" lon="12.047862293780188"><ele>646.0</ele><time>2026-04-06T06:06:55Z</time></trkpt><trkpt lat="43.980848074417196" lon="12.047751853800564"><ele>648.0</ele><time>2026-04-06T06:06:56Z</time></trkpt><trkpt lat="43.98079280225844" lon="12.047624632579037"><ele>650.0</ele><time>2026-04-06T06:06:57Z</time></trkpt><trkpt lat="43.98075085297237" lon="12.047485773778687"><ele>652.0</ele><time>2026-04-06T06:06:58Z</time></trkpt><trkpt lat="43.98073746926036" lon="12.047316305382328"><ele>654.0</ele><time>2026-04-06T06:06:59Z</time></trkpt><trkpt lat="43.98072763892369" lon="12.047146061321854"><ele>655.5</ele><time>2026-04-06T06:07:00Z</time></trkpt><trkpt lat="43.98070611415011" lon="12.046990096357838"><ele>657.0</ele><time>2026-04-06T06:07:01Z</time></trkpt><trkpt lat="43.980653583836705" lon="12.046840560143014"><ele>658.5</ele><time>2026-04-06T06:07:02Z</time></trkpt><trkpt lat="43.980586049054615" lon="12.046699030375237"><ele>660.0</ele><time>2026-04-06T06:07:03Z</time></trkpt><trkpt lat="43.98048012601017" lon="12.046592433488412"><ele>661.25</ele><time>2026-04-06T06:07:04Z</time></trkpt><trkpt lat="43.9803761914995" lon="12.046491668263112"><ele>662.5</ele><time>2026-04-06T06:07:04.999Z</time></trkpt><trkpt lat="43.980272140047795" lon="12.046393354198766"><ele>663.75</ele><time>2026-04-06T06:07:05.999Z</time></trkpt><trkpt lat="43.98018266195312" lon="12.046273755631326"><ele>665.0</ele><time>2026-04-06T06:07:06.999Z</time></trkpt><trkpt lat="43.98008769971154" lon="12.046169862489888"><ele>665.0</ele><time>2026-04-06T06:07:07.999Z</time></trkpt><trkpt lat="43.980033705874064" lon="12.046019370205546"><ele>665.0</ele><time>2026-04-06T06:07:08.999Z</time></trkpt><trkpt lat="43.97998269653156" lon="12.04586107381702"><ele>665.0</ele><time>2026-04-06T06:07:09.999Z</time></trkpt><trkpt lat="43.979929650207815" lon="12.045689285174394"><ele>665.0</ele><time>2026-04-06T06:07:10.999Z</time></trkpt><trkpt lat="43.979857681318116" lon="12.045523996245656"><ele>661.75</ele><time>2026-04-06T06:07:11.999Z</time></trkpt><trkpt lat="43.97980666057391" lon="12.045350600461916"><ele>658.5</ele><time>2026-04-06T06:07:12.999Z</time></trkpt><trkpt lat="43.9797520192047" lon="12.045178431423938"><ele>655.25</ele><time>2026-04-06T06:07:13.999Z</time></trkpt><trkpt lat="43.9796947849928" lon="12.045006613483137"><ele>652.0</ele><time>2026-04-06T06:07:14.999Z</time></trkpt><trkpt lat="43.97963475861974" lon="12.044843325352696"><ele>652.0</ele><time>2026-04-06T06:07:15.999Z</time></trkpt><trkpt lat="43.97956643601232" lon="12.0446935488438"><ele>652.0</ele><time>2026-04-06T06:07:16.999Z</time></trkpt><trkpt lat="43.97950085480828" lon="12.044548781282636"><ele>652.0</ele><time>2026-04-06T06:07:17.999Z</time></trkpt><trkpt lat="43.979396071081936" lon="12.04444941633081"><ele>652.0</ele><time>2026-04-06T06:07:18.999Z</time></trkpt><trkpt lat="43.979274253441865" lon="12.044405105525115"><ele>645.2</ele><time>2026-04-06T06:07:19.999Z</time></trkpt><trkpt lat="43.97915473801175" lon="12.044375708190012"><ele>638.4000000000001</ele><time>2026-04-06T06:07:20.999Z</time></trkpt><trkpt lat="43.97904327103612" lon="12.044364606457393"><ele>631.5999999999999</ele><time>2026-04-06T06:07:21.999Z</time></trkpt><trkpt lat="43.97895405489376" lon="12.044345481209232"><ele>624.8</ele><time>2026-04-06T06:07:22.999Z</time></trkpt><trkpt lat="43.97888968361109" lon="12.04429059698631"><ele>618.0</ele><time>2026-04-06T06:07:23.999Z</time></trkpt><trkpt lat="43.97887488061795" lon="12.044178744507658"><ele>617.25</ele><time>2026-04-06T06:07:24.999Z</time></trkpt><trkpt lat="43.97886275363782" lon="12.04405710986314"><ele>616.5</ele><time>2026-04-06T06:07:25.999Z</time></trkpt><trkpt lat="43.978895964717864" lon="12.043898724295962"><ele>615.75</ele><time>2026-04-06T06:07:26.999Z</time></trkpt><trkpt lat="43.978918121331816" lon="12.04372224290295"><ele>615.0</ele><time>2026-04-06T06:07:27.999Z</time></trkpt><trkpt lat="43.97893343422306" lon="12.043540854319707"><ele>615.0</ele><time>2026-04-06T06:07:28.999Z</time></trkpt><trkpt lat="43.978949475430284" lon="12.043344706210942"><ele>615.0</ele><time>2026-04-06T06:07:29.999Z</time></trkpt><trkpt lat="43.97896167916595" lon="12.04313982013118"><ele>615.0</ele><time>2026-04-06T06:07:30.999Z</time></trkpt><trkpt lat="43.978978487662346" lon="12.042922199352407"><ele>615.0</ele><time>2026-04-06T06:07:31.999Z</time></trkpt><trkpt lat="43.97899588875306" lon="12.04269259530469"><ele>613.0</ele><time>2026-04-06T06:07:32.999Z</time></trkpt><trkpt lat="43.97901124531068" lon="12.042472967281983"><ele>611.0</ele><time>2026-04-06T06:07:33.999Z</time></trkpt><trkpt lat="43.97902780345862" lon="12.042261329201631"><ele>609.0</ele><time>2026-04-06T06:07:34.999Z</time></trkpt><trkpt lat="43.97904353680209" lon="12.042058131355493"><ele>606.4</ele><time>2026-04-06T06:07:35.999Z</time></trkpt><trkpt lat="43.9790582461117" lon="12.041876175705296"><ele>603.8</ele><time>2026-04-06T06:07:36.999Z</time></trkpt><trkpt lat="43.97906582179942" lon="12.041719135246135"><ele>601.2</ele><time>2026-04-06T06:07:37.999Z</time></trkpt><trkpt lat="43.97904971067797" lon="12.041602917921281"><ele>598.6</ele><time>2026-04-06T06:07:38.999Z</time></trkpt><trkpt lat="43.97903448157589" lon="12.041477659153434"><ele>596.0</ele><time>2026-04-06T06:07:39.999Z</time></trkpt><trkpt lat="43.97893339485985" lon="12.041405870923542"><ele>593.0</ele><time>2026-04-06T06:07:40.999Z</time></trkpt><trkpt lat="43.9788354626179" lon="12.04132767803533"><ele>590.0</ele><time>2026-04-06T06:07:41.999Z</time></trkpt><trkpt lat="43.97873205982881" lon="12.041220046486252"><ele>587.0</ele><time>2026-04-06T06:07:42.999Z</time></trkpt><trkpt lat="43.97866598731097" lon="12.041073469372758"><ele>584.0</ele><time>2026-04-06T06:07:43.999Z</time></trkpt><trkpt lat="43.97862341068521" lon="12.04087890457531"><ele>580.5</ele><time>2026-04-06T06:07:44.999Z</time></trkpt><trkpt lat="43.97853341072402" lon="12.040722090761987"><ele>577.0</ele><time>2026-04-06T06:07:45.999Z</time></trkpt><trkpt lat="43.97846219848188" lon="12.040544213506058"><ele>573.5</ele><time>2026-04-06T06:07:46.999Z</time></trkpt><trkpt lat="43.97841374395185" lon="12.04035977079316"><ele>570.0</ele><time>2026-04-06T06:07:47.999Z</time></trkpt><trkpt lat="43.97836329695024" lon="12.040177156853465"><ele>573.0</ele><time>2026-04-06T06:07:48.999Z</time></trkpt><trkpt lat="43.978312790496375" lon="12.039988461231143"><ele>576.0</ele><time>2026-04-06T06:07:49.999Z</time></trkpt><trkpt lat="43.97826039494475" lon="12.039796681794723"><ele>579.0</ele><time>2026-04-06T06:07:50.999Z</time></trkpt><trkpt lat="43.97820739160114" lon="12.03960618467933"><ele>582.0</ele><time>2026-04-06T06:07:51.999Z</time></trkpt><trkpt lat="43.97815497130291" lon="12.039414255206598"><ele>582.0</ele><time>2026-04-06T06:07:52.999Z</time></trkpt><trkpt lat="43.97810427088912" lon="12.039218709172715"><ele>582.0</ele><time>2026-04-06T06:07:53.999Z</time></trkpt><trkpt lat="43.97805565992279" lon="12.03902242999669"><ele>582.0</ele><time>2026-04-06T06:07:54.999Z</time></trkpt><trkpt lat="43.97801126450814" lon="12.038843172215284"><ele>582.0</ele><time>2026-04-06T06:07:55.999Z</time></trkpt><trkpt lat="43.97796975355591" lon="12.038688747058147"><ele>582.0</ele><time>2026-04-06T06:07:56.999Z</time></trkpt><trkpt lat="43.977931815697715" lon="12.03855570235141"><ele>582.0</ele><time>2026-04-06T06:07:57.999Z</time></trkpt><trkpt lat="43.977893988876765" lon="12.038438542503076"><ele>582.0</ele><time>2026-04-06T06:07:58.999Z</time></trkpt><trkpt lat="43.97785567624222" lon="12.038331040061573"><ele>582.0</ele><time>2026-04-06T06:07:59.999Z</time></trkpt><trkpt lat="43.977819431896116" lon="12.038233850316663"><ele>582.0</ele><time>2026-04-06T06:08:00.999Z</time></trkpt><trkpt lat="43.97778156182379" lon="12.038082056114316"><ele>582.0</ele><time>2026-04-06T06:08:02.999Z</time></trkpt><trkpt lat="43.977701026081306" lon="12.038012376364872"><ele>582.0</ele><time>2026-04-06T06:08:04.999Z</time></trkpt><trkpt lat="43.977849533777736" lon="12.037636207750733"><ele>582.0</ele><time>2026-04-06T06:08:06.999Z</time></trkpt><trkpt lat="43.977853573860436" lon="12.037531677554098"><ele>583.0</ele><time>2026-04-06T06:08:07.999Z</time></trkpt><trkpt lat="43.977816154209066" lon="12.037446115356897"><ele>584.0</ele><time>2026-04-06T06:08:08.999Z</time></trkpt><trkpt lat="43.97779615087101" lon="12.037357683048766"><ele>585.0</ele><time>2026-04-06T06:08:09.999Z</time></trkpt><trkpt lat="43.977753247177134" lon="12.037227551007849"><ele>586.0</ele><time>2026-04-06T06:08:10.999Z</time></trkpt><trkpt lat="43.97768721227789" lon="12.037100501538044"><ele>587.0</ele><time>2026-04-06T06:08:11.999Z</time></trkpt><trkpt lat="43.97763996318564" lon="12.037002793813908"><ele>588.0</ele><time>2026-04-06T06:08:12.999Z</time></trkpt><trkpt lat="43.97761154502493" lon="12.03690457099893"><ele>588.0</ele><time>2026-04-06T06:08:13.999Z</time></trkpt><trkpt lat="43.97757851918734" lon="12.036770284860784"><ele>588.0</ele><time>2026-04-06T06:08:14.999Z</time></trkpt><trkpt lat="43.97755949523633" lon="12.03664825476937"><ele>588.0</ele><time>2026-04-06T06:08:15.999Z</time></trkpt><trkpt lat="43.97755299181558" lon="12.036547895044684"><ele>588.0</ele><time>2026-04-06T06:08:17Z</time></trkpt><trkpt lat="43.9775412262106" lon="12.0364526103165"><ele>588.0</ele><time>2026-04-06T06:08:18Z</time></trkpt><trkpt lat="43.977557180065794" lon="12.036359751468725"><ele>588.0</ele><time>2026-04-06T06:08:19Z</time></trkpt><trkpt lat="43.97758667315847" lon="12.036279767647052"><ele>591.6</ele><time>2026-04-06T06:08:20Z</time></trkpt><trkpt lat="43.97762682238093" lon="12.036201431199562"><ele>595.1999999999999</ele><time>2026-04-06T06:08:21Z</time></trkpt><trkpt lat="43.97764951189942" lon="12.03605115484215"><ele>598.8</ele><time>2026-04-06T06:08:23Z</time></trkpt><trkpt lat="43.97772668904192" lon="12.035942384920437"><ele>602.4</ele><time>2026-04-06T06:08:25Z</time></trkpt><trkpt lat="43.97779872503257" lon="12.035927036940315"><ele>606.0</ele><time>2026-04-06T06:08:26Z</time></trkpt><trkpt lat="43.97788149187671" lon="12.03588610089037"><ele>606.0</ele><time>2026-04-06T06:08:27Z</time></trkpt><trkpt lat="43.97794201048515" lon="12.03580815292199"><ele>606.0</ele><time>2026-04-06T06:08:28Z</time></trkpt><trkpt lat="43.97798380223179" lon="12.035727041409636"><ele>606.0</ele><time>2026-04-06T06:08:29Z</time></trkpt><trkpt lat="43.97800745160917" lon="12.035632923106348"><ele>606.0</ele><time>2026-04-06T06:08:30Z</time></trkpt><trkpt lat="43.97801419557001" lon="12.03551915647127"><ele>606.0</ele><time>2026-04-06T06:08:31Z</time></trkpt><trkpt lat="43.97803003119054" lon="12.035422907459145"><ele>606.0</ele><time>2026-04-06T06:08:32Z</time></trkpt><trkpt lat="43.978047523129526" lon="12.035318260349493"><ele>610.1666666666666</ele><time>2026-04-06T06:08:33Z</time></trkpt><trkpt lat="43.978085616158175" lon="12.035213455641081"><ele>614.3333333333334</ele><time>2026-04-06T06:08:34Z</time></trkpt><trkpt lat="43.97812549362112" lon="12.035123333430764"><ele>618.5</ele><time>2026-04-06T06:08:35Z</time></trkpt><trkpt lat="43.97817535547835" lon="12.035031157951927"><ele>622.6666666666667</ele><time>2026-04-06T06:08:36Z</time></trkpt><trkpt lat="43.97819644906119" lon="12.034918722892593"><ele>626.8333333333334</ele><time>2026-04-06T06:08:37Z</time></trkpt><trkpt lat="43.978202990456936" lon="12.034796920197458"><ele>631.0</ele><time>2026-04-06T06:08:38Z</time></trkpt><trkpt lat="43.97819669303524" lon="12.034674069600948"><ele>632.6666666666667</ele><time>2026-04-06T06:08:39Z</time></trkpt><trkpt lat="43.97818706039142" lon="12.034538003471141"><ele>634.3333333333334</ele><time>2026-04-06T06:08:40Z</time></trkpt><trkpt lat="43.9781959825197" lon="12.034416836226242"><ele>636.0</ele><time>2026-04-06T06:08:41Z</time></trkpt><trkpt lat="43.97821166428063" lon="12.03431523428486"><ele>637.6666666666666</ele><time>2026-04-06T06:08:42Z</time></trkpt><trkpt lat="43.978254057154416" lon="12.034225859002497"><ele>639.3333333333333</ele><time>2026-04-06T06:08:43Z</time></trkpt><trkpt lat="43.97830111794129" lon="12.034134167386222"><ele>641.0</ele><time>2026-04-06T06:08:44Z</time></trkpt><trkpt lat="43.97832817733561" lon="12.034019699441618"><ele>641.3333333333333</ele><time>2026-04-06T06:08:45Z</time></trkpt><trkpt lat="43.978348557943406" lon="12.033887941015879"><ele>641.6666666666666</ele><time>2026-04-06T06:08:46Z</time></trkpt><trkpt lat="43.97837097259934" lon="12.033751038039807"><ele>642.0</ele><time>2026-04-06T06:08:47Z</time></trkpt><trkpt lat="43.97837716282688" lon="12.033618231047281"><ele>642.3333333333334</ele><time>2026-04-06T06:08:48Z</time></trkpt><trkpt lat="43.97837872383523" lon="12.033495596413829"><ele>642.6666666666667</ele><time>2026-04-06T06:08:49Z</time></trkpt><trkpt lat="43.97835752611806" lon="12.033410440822568"><ele>643.0</ele><time>2026-04-06T06:08:50Z</time></trkpt><trkpt lat="43.978316553546456" lon="12.033336754638832"><ele>643.0</ele><time>2026-04-06T06:08:51Z</time></trkpt><trkpt lat="43.97827355402259" lon="12.033268264515575"><ele>643.0</ele><time>2026-04-06T06:08:52Z</time></trkpt><trkpt lat="43.97816454225702" lon="12.033285360086701"><ele>643.0</ele><time>2026-04-06T06:08:54Z</time></trkpt><trkpt lat="43.9781088638866" lon="12.033342395657327"><ele>643.0</ele><time>2026-04-06T06:08:55Z</time></trkpt><trkpt lat="43.978070861091034" lon="12.03342051914661"><ele>643.0</ele><time>2026-04-06T06:08:56Z</time></trkpt><trkpt lat="43.97797543798445" lon="12.033521309074109"><ele>643.0</ele><time>2026-04-06T06:08:58Z</time></trkpt><trkpt lat="43.977898154284205" lon="12.033575523679227"><ele>643.0</ele><time>2026-04-06T06:08:59Z</time></trkpt><trkpt lat="43.97782783624548" lon="12.033649798488224"><ele>643.0</ele><time>2026-04-06T06:08:59.999Z</time></trkpt><trkpt lat="43.97775125133803" lon="12.033711105660839"><ele>643.0</ele><time>2026-04-06T06:09:00.999Z</time></trkpt><trkpt lat="43.9776715306664" lon="12.033772245341508"><ele>643.0</ele><time>2026-04-06T06:09:01.999Z</time></trkpt><trkpt lat="43.97760930204827" lon="12.03383206998371"><ele>643.0</ele><time>2026-04-06T06:09:02.999Z</time></trkpt><trkpt lat="43.977545060155904" lon="12.033948734858901"><ele>643.0</ele><time>2026-04-06T06:09:04.999Z</time></trkpt><trkpt lat="43.97748132170996" lon="12.033918859215115"><ele>643.0</ele><time>2026-04-06T06:09:06.999Z</time></trkpt><trkpt lat="43.9775275640341" lon="12.033759708466942"><ele>643.0</ele><time>2026-04-06T06:09:08.999Z</time></trkpt><trkpt lat="43.97758012354753" lon="12.033681219599586"><ele>643.0</ele><time>2026-04-06T06:09:09.999Z</time></trkpt><trkpt lat="43.97764057871715" lon="12.03360280202191"><ele>643.0</ele><time>2026-04-06T06:09:10.999Z</time></trkpt><trkpt lat="43.97772165441094" lon="12.033522491885815"><ele>643.0</ele><time>2026-04-06T06:09:11.999Z</time></trkpt><trkpt lat="43.97780968341399" lon="12.033436319437158"><ele>643.0</ele><time>2026-04-06T06:09:12.999Z</time></trkpt><trkpt lat="43.97789978054938" lon="12.03335176604731"><ele>643.0</ele><time>2026-04-06T06:09:13.999Z</time></trkpt><trkpt lat="43.977983575072415" lon="12.033261851152371"><ele>643.0</ele><time>2026-04-06T06:09:14.999Z</time></trkpt><trkpt lat="43.97805756020671" lon="12.033145277086843"><ele>643.0</ele><time>2026-04-06T06:09:15.999Z</time></trkpt><trkpt lat="43.97812990581615" lon="12.033015070186503"><ele>643.0</ele><time>2026-04-06T06:09:16.999Z</time></trkpt><trkpt lat="43.978189916608244" lon="12.032883620760229"><ele>643.2</ele><time>2026-04-06T06:09:17.999Z</time></trkpt><trkpt lat="43.97823411622157" lon="12.032741734310093"><ele>643.4</ele><time>2026-04-06T06:09:18.999Z</time></trkpt><trkpt lat="43.978270721251555" lon="12.032594245816195"><ele>643.6</ele><time>2026-04-06T06:09:19.999Z</time></trkpt><trkpt lat="43.978293244931976" lon="12.03244290951691"><ele>643.8000000000001</ele><time>2026-04-06T06:09:20.999Z</time></trkpt><trkpt lat="43.97831540982278" lon="12.032296082359943"><ele>644.0</ele><time>2026-04-06T06:09:21.999Z</time></trkpt><trkpt lat="43.978331837317285" lon="12.032147424945416"><ele>643.6</ele><time>2026-04-06T06:09:22.999Z</time></trkpt><trkpt lat="43.97834804345371" lon="12.03199544145631"><ele>643.2</ele><time>2026-04-06T06:09:23.999Z</time></trkpt><trkpt lat="43.97836227956786" lon="12.031851007121288"><ele>642.8000000000001</ele><time>2026-04-06T06:09:24.999Z</time></trkpt><trkpt lat="43.978382255264904" lon="12.031696950237015"><ele>642.4000000000001</ele><time>2026-04-06T06:09:25.999Z</time></trkpt><trkpt lat="43.978409661467886" lon="12.031542741476269"><ele>642.0</ele><time>2026-04-06T06:09:26.999Z</time></trkpt><trkpt lat="43.97843549654363" lon="12.031385151682215"><ele>636.5</ele><time>2026-04-06T06:09:27.999Z</time></trkpt><trkpt lat="43.97845615527705" lon="12.031226292265693"><ele>631.0</ele><time>2026-04-06T06:09:28.999Z</time></trkpt><trkpt lat="43.97847213885867" lon="12.031057187617849"><ele>625.5</ele><time>2026-04-06T06:09:29.999Z</time></trkpt><trkpt lat="43.9784839857234" lon="12.030881551506466"><ele>620.0</ele><time>2026-04-06T06:09:30.999Z</time></trkpt><trkpt lat="43.97849292650375" lon="12.030685091785408"><ele>619.75</ele><time>2026-04-06T06:09:31.999Z</time></trkpt><trkpt lat="43.97849424043144" lon="12.03052007424757"><ele>619.5</ele><time>2026-04-06T06:09:32.999Z</time></trkpt><trkpt lat="43.97850594001818" lon="12.030347340774936"><ele>619.25</ele><time>2026-04-06T06:09:33.999Z</time></trkpt><trkpt lat="43.97851675059701" lon="12.030157400173302"><ele>619.0</ele><time>2026-04-06T06:09:34.999Z</time></trkpt><trkpt lat="43.97854647298962" lon="12.029975845314638"><ele>620.25</ele><time>2026-04-06T06:09:35.999Z</time></trkpt><trkpt lat="43.978595397510524" lon="12.029796974344679"><ele>621.5</ele><time>2026-04-06T06:09:36.999Z</time></trkpt><trkpt lat="43.97865306208008" lon="12.029635088600314"><ele>622.75</ele><time>2026-04-06T06:09:37.999Z</time></trkpt><trkpt lat="43.97870915293034" lon="12.029472880954234"><ele>624.0</ele><time>2026-04-06T06:09:38.999Z</time></trkpt><trkpt lat="43.97877239860001" lon="12.029308338401696"><ele>625.25</ele><time>2026-04-06T06:09:39.999Z</time></trkpt><trkpt lat="43.97883173511568" lon="12.02914018199587"><ele>626.5</ele><time>2026-04-06T06:09:40.999Z</time></trkpt><trkpt lat="43.97887987500104" lon="12.028965914941022"><ele>627.75</ele><time>2026-04-06T06:09:41.999Z</time></trkpt><trkpt lat="43.978940697348236" lon="12.028792140531047"><ele>629.0</ele><time>2026-04-06T06:09:42.999Z</time></trkpt><trkpt lat="43.9789712332735" lon="12.02860530720603"><ele>629.0</ele><time>2026-04-06T06:09:43.999Z</time></trkpt><trkpt lat="43.97901294960811" lon="12.028424347856586"><ele>629.0</ele><time>2026-04-06T06:09:44.999Z</time></trkpt><trkpt lat="43.979057148849286" lon="12.028257922392157"><ele>629.0</ele><time>2026-04-06T06:09:45.999Z</time></trkpt><trkpt lat="43.97910859665383" lon="12.028086524343845"><ele>629.0</ele><time>2026-04-06T06:09:46.999Z</time></trkpt><trkpt lat="43.97918184750402" lon="12.02793148248541"><ele>629.75</ele><time>2026-04-06T06:09:47.999Z</time></trkpt><trkpt lat="43.97929147585007" lon="12.027832774300105"><ele>630.5</ele><time>2026-04-06T06:09:48.999Z</time></trkpt><trkpt lat="43.97938656365661" lon="12.027696568019955"><ele>631.25</ele><time>2026-04-06T06:09:49.999Z</time></trkpt><trkpt lat="43.979466934657076" lon="12.027543894495956"><ele>632.0</ele><time>2026-04-06T06:09:50.999Z</time></trkpt><trkpt lat="43.97954025852209" lon="12.027405138052453"><ele>633.2</ele><time>2026-04-06T06:09:51.999Z</time></trkpt><trkpt lat="43.979624132188" lon="12.027298658265053"><ele>634.4000000000001</ele><time>2026-04-06T06:09:52.999Z</time></trkpt><trkpt lat="43.979717543211684" lon="12.027230458643256"><ele>635.5999999999999</ele><time>2026-04-06T06:09:53.999Z</time></trkpt><trkpt lat="43.979819380210316" lon="12.027190527315494"><ele>636.8</ele><time>2026-04-06T06:09:54.999Z</time></trkpt><trkpt lat="43.97993292537211" lon="12.0271865378788"><ele>638.0</ele><time>2026-04-06T06:09:55.999Z</time></trkpt><trkpt lat="43.98005992684688" lon="12.027180495564206"><ele>638.0</ele><time>2026-04-06T06:09:56.999Z</time></trkpt><trkpt lat="43.980194991446716" lon="12.027159325568045"><ele>638.0</ele><time>2026-04-06T06:09:57.999Z</time></trkpt><trkpt lat="43.980337207841025" lon="12.027139913897331"><ele>638.0</ele><time>2026-04-06T06:09:58.999Z</time></trkpt><trkpt lat="43.980482448561354" lon="12.027142924718147"><ele>638.0</ele><time>2026-04-06T06:09:59.999Z</time></trkpt><trkpt lat="43.98062677895719" lon="12.02716580341139"><ele>638.0</ele><time>2026-04-06T06:10:00.999Z</time></trkpt><trkpt lat="43.98076828245403" lon="12.02717840129969"><ele>638.0</ele><time>2026-04-06T06:10:01.999Z</time></trkpt><trkpt lat="43.980895842680255" lon="12.027222576050109"><ele>638.0</ele><time>2026-04-06T06:10:02.999Z</time></trkpt><trkpt lat="43.98103274987434" lon="12.027210274302423"><ele>638.0</ele><time>2026-04-06T06:10:03.999Z</time></trkpt><trkpt lat="43.98116735894623" lon="12.027144412865809"><ele>635.75</ele><time>2026-04-06T06:10:04.999Z</time></trkpt><trkpt lat="43.981308258407914" lon="12.027079320901516"><ele>633.5</ele><time>2026-04-06T06:10:05.999Z</time></trkpt><trkpt lat="43.981443113858674" lon="12.027042852268094"><ele>631.25</ele><time>2026-04-06T06:10:06.999Z</time></trkpt><trkpt lat="43.981573091525284" lon="12.027056308342434"><ele>629.0</ele><time>2026-04-06T06:10:07.999Z</time></trkpt><trkpt lat="43.98170800627481" lon="12.027095215782625"><ele>628.5</ele><time>2026-04-06T06:10:08.999Z</time></trkpt><trkpt lat="43.98183963374609" lon="12.027160382762627"><ele>628.0</ele><time>2026-04-06T06:10:09.999Z</time></trkpt><trkpt lat="43.98196981390875" lon="12.027223491508506"><ele>627.5</ele><time>2026-04-06T06:10:10.999Z</time></trkpt><trkpt lat="43.98210310905561" lon="12.027282511362381"><ele>627.0</ele><time>2026-04-06T06:10:11.999Z</time></trkpt><trkpt lat="43.982235785868745" lon="12.02736266283616"><ele>627.0</ele><time>2026-04-06T06:10:12.999Z</time></trkpt><trkpt lat="43.98237828928096" lon="12.027421113804081"><ele>627.0</ele><time>2026-04-06T06:10:13.999Z</time></trkpt><trkpt lat="43.98251603092434" lon="12.027474522585276"><ele>627.0</ele><time>2026-04-06T06:10:14.999Z</time></trkpt><trkpt lat="43.98264652600598" lon="12.027516308369195"><ele>627.0</ele><time>2026-04-06T06:10:15.999Z</time></trkpt><trkpt lat="43.98277629668596" lon="12.027551634476403"><ele>629.75</ele><time>2026-04-06T06:10:16.999Z</time></trkpt><trkpt lat="43.982906033750545" lon="12.027600858052741"><ele>632.5</ele><time>2026-04-06T06:10:17.999Z</time></trkpt><trkpt lat="43.98301378382763" lon="12.027667119030797"><ele>635.25</ele><time>2026-04-06T06:10:18.999Z</time></trkpt><trkpt lat="43.98309715744877" lon="12.027771115417226"><ele>638.0</ele><time>2026-04-06T06:10:19.999Z</time></trkpt><trkpt lat="43.983190623845815" lon="12.027868935887245"><ele>638.0</ele><time>2026-04-06T06:10:20.999Z</time></trkpt><trkpt lat="43.98325736702564" lon="12.027955208509283"><ele>638.0</ele><time>2026-04-06T06:10:21.999Z</time></trkpt><trkpt lat="43.98335568871091" lon="12.027976723806804"><ele>638.0</ele><time>2026-04-06T06:10:23Z</time></trkpt><trkpt lat="43.98346974993109" lon="12.027959026736253"><ele>638.0</ele><time>2026-04-06T06:10:24Z</time></trkpt><trkpt lat="43.98358415688561" lon="12.027872476160129"><ele>638.0</ele><time>2026-04-06T06:10:25Z</time></trkpt><trkpt lat="43.98370963995663" lon="12.027809692264176"><ele>635.0</ele><time>2026-04-06T06:10:26Z</time></trkpt><trkpt lat="43.98382575485907" lon="12.027719304268503"><ele>632.0</ele><time>2026-04-06T06:10:27Z</time></trkpt><trkpt lat="43.983948135079565" lon="12.02762658726218"><ele>629.0</ele><time>2026-04-06T06:10:28Z</time></trkpt><trkpt lat="43.98408777139713" lon="12.027532823588272"><ele>626.0</ele><time>2026-04-06T06:10:29Z</time></trkpt><trkpt lat="43.9842067508117" lon="12.027464029772446"><ele>624.5</ele><time>2026-04-06T06:10:30Z</time></trkpt><trkpt lat="43.984348010860536" lon="12.027454143429477"><ele>623.0</ele><time>2026-04-06T06:10:31Z</time></trkpt><trkpt lat="43.984488707924406" lon="12.027499324118756"><ele>621.5</ele><time>2026-04-06T06:10:32Z</time></trkpt><trkpt lat="43.98463541087704" lon="12.027545607400258"><ele>620.0</ele><time>2026-04-06T06:10:33Z</time></trkpt><trkpt lat="43.98478995589286" lon="12.027599570513388"><ele>620.0</ele><time>2026-04-06T06:10:34Z</time></trkpt><trkpt lat="43.984943354042315" lon="12.02764056850092"><ele>620.0</ele><time>2026-04-06T06:10:35Z</time></trkpt><trkpt lat="43.985098704864136" lon="12.027678486751956"><ele>620.0</ele><time>2026-04-06T06:10:36Z</time></trkpt><trkpt lat="43.98525088165559" lon="12.027714627283762"><ele>621.0</ele><time>2026-04-06T06:10:37Z</time></trkpt><trkpt lat="43.98539489309075" lon="12.027733581699113"><ele>622.0</ele><time>2026-04-06T06:10:38Z</time></trkpt><trkpt lat="43.98554563327798" lon="12.027734896558009"><ele>623.0</ele><time>2026-04-06T06:10:39Z</time></trkpt><trkpt lat="43.98569900874861" lon="12.027650005678955"><ele>620.3333333333333</ele><time>2026-04-06T06:10:40Z</time></trkpt><trkpt lat="43.985848272199746" lon="12.027586051361464"><ele>617.6666666666666</ele><time>2026-04-06T06:10:41Z</time></trkpt><trkpt lat="43.98599919569586" lon="12.027558421375433"><ele>615.0</ele><time>2026-04-06T06:10:42Z</time></trkpt><trkpt lat="43.98613878462737" lon="12.027516764701028"><ele>615.0</ele><time>2026-04-06T06:10:43Z</time></trkpt><trkpt lat="43.986278087618" lon="12.02749695374421"><ele>615.0</ele><time>2026-04-06T06:10:44Z</time></trkpt><trkpt lat="43.98641235414441" lon="12.027494557558207"><ele>615.0</ele><time>2026-04-06T06:10:45Z</time></trkpt><trkpt lat="43.98654552961386" lon="12.02750221700968"><ele>615.0</ele><time>2026-04-06T06:10:46Z</time></trkpt><trkpt lat="43.986677424910745" lon="12.02751400638976"><ele>612.25</ele><time>2026-04-06T06:10:47Z</time></trkpt><trkpt lat="43.98681665532696" lon="12.027532463130031"><ele>609.5</ele><time>2026-04-06T06:10:48Z</time></trkpt><trkpt lat="43.98695367753718" lon="12.027543041675257"><ele>606.75</ele><time>2026-04-06T06:10:49Z</time></trkpt><trkpt lat="43.98708742452297" lon="12.027541642907513"><ele>604.0</ele><time>2026-04-06T06:10:50Z</time></trkpt><trkpt lat="43.987218988500885" lon="12.027495374090604"><ele>603.0</ele><time>2026-04-06T06:10:51Z</time></trkpt><trkpt lat="43.98734533249931" lon="12.027408953048536"><ele>602.0</ele><time>2026-04-06T06:10:52Z</time></trkpt><trkpt lat="43.98746420800561" lon="12.027277774894806"><ele>601.0</ele><time>2026-04-06T06:10:53Z</time></trkpt><trkpt lat="43.98754802790158" lon="12.027115622137202"><ele>600.0</ele><time>2026-04-06T06:10:54Z</time></trkpt><trkpt lat="43.987643173692454" lon="12.026983970553074"><ele>600.0</ele><time>2026-04-06T06:10:55Z</time></trkpt><trkpt lat="43.987728940478625" lon="12.02685247185372"><ele>600.0</ele><time>2026-04-06T06:10:55.999Z</time></trkpt><trkpt lat="43.98783163557133" lon="12.026742857340752"><ele>600.0</ele><time>2026-04-06T06:10:56.999Z</time></trkpt><trkpt lat="43.98795070704682" lon="12.026688206091777"><ele>600.0</ele><time>2026-04-06T06:10:57.999Z</time></trkpt><trkpt lat="43.98807801476343" lon="12.026633351359594"><ele>598.5</ele><time>2026-04-06T06:10:58.999Z</time></trkpt><trkpt lat="43.988207380425806" lon="12.026578588334743"><ele>597.0</ele><time>2026-04-06T06:10:59.999Z</time></trkpt><trkpt lat="43.988326836155835" lon="12.026529163951587"><ele>595.5</ele><time>2026-04-06T06:11:00.999Z</time></trkpt><trkpt lat="43.988437975559684" lon="12.026486556991461"><ele>594.0</ele><time>2026-04-06T06:11:01.999Z</time></trkpt><trkpt lat="43.98854539020368" lon="12.026451703664833"><ele>596.3333333333334</ele><time>2026-04-06T06:11:02.999Z</time></trkpt><trkpt lat="43.98863975546757" lon="12.026433124730396"><ele>598.6666666666666</ele><time>2026-04-06T06:11:03.999Z</time></trkpt><trkpt lat="43.98871584140159" lon="12.026428436450388"><ele>601.0</ele><time>2026-04-06T06:11:04.999Z</time></trkpt><trkpt lat="43.988760498297594" lon="12.026342108229457"><ele>603.3333333333333</ele><time>2026-04-06T06:11:05.999Z</time></trkpt><trkpt lat="43.98882203220063" lon="12.026314094750603"><ele>605.6666666666666</ele><time>2026-04-06T06:11:11.999Z</time></trkpt><trkpt lat="43.98891035464435" lon="12.026375090006294"><ele>608.0</ele><time>2026-04-06T06:11:22.999Z</time></trkpt><trkpt lat="43.98899109807155" lon="12.026380479300363"><ele>608.0</ele><time>2026-04-06T06:11:23.999Z</time></trkpt><trkpt lat="43.98909211529736" lon="12.026394150048239"><ele>608.0</ele><time>2026-04-06T06:11:24.999Z</time></trkpt><trkpt lat="43.98920241444743" lon="12.026375978880935"><ele>608.0</ele><time>2026-04-06T06:11:25.999Z</time></trkpt><trkpt lat="43.98931437404649" lon="12.026356813957857"><ele>608.0</ele><time>2026-04-06T06:11:26.999Z</time></trkpt><trkpt lat="43.98941409665746" lon="12.026339743730928"><ele>608.0</ele><time>2026-04-06T06:11:27.999Z</time></trkpt><trkpt lat="43.989495731748036" lon="12.026325769670944"><ele>609.0</ele><time>2026-04-06T06:11:28.999Z</time></trkpt><trkpt lat="43.98957739406453" lon="12.026311790967583"><ele>610.0</ele><time>2026-04-06T06:11:29.999Z</time></trkpt><trkpt lat="43.98966221429549" lon="12.02629634713848"><ele>611.0</ele><time>2026-04-06T06:11:30.999Z</time></trkpt><trkpt lat="43.989750024490725" lon="12.026279939616972"><ele>612.0</ele><time>2026-04-06T06:11:31.999Z</time></trkpt><trkpt lat="43.989844273081836" lon="12.026262330905787"><ele>613.0</ele><time>2026-04-06T06:11:32.999Z</time></trkpt><trkpt lat="43.989941850636214" lon="12.026244384360266"><ele>610.8</ele><time>2026-04-06T06:11:33.999Z</time></trkpt><trkpt lat="43.99004584843661" lon="12.026225951029291"><ele>608.5999999999999</ele><time>2026-04-06T06:11:34.999Z</time></trkpt><trkpt lat="43.990156041476446" lon="12.026207157711994"><ele>606.4000000000001</ele><time>2026-04-06T06:11:35.999Z</time></trkpt><trkpt lat="43.99026268058216" lon="12.026189923111039"><ele>604.2</ele><time>2026-04-06T06:11:36.999Z</time></trkpt><trkpt lat="43.99036422452374" lon="12.026173511969782"><ele>602.0</ele><time>2026-04-06T06:11:37.999Z</time></trkpt><trkpt lat="43.99046737439045" lon="12.026156999815196"><ele>602.0</ele><time>2026-04-06T06:11:38.999Z</time></trkpt><trkpt lat="43.990572050346" lon="12.02614064154885"><ele>602.0</ele><time>2026-04-06T06:11:39.999Z</time></trkpt><trkpt lat="43.99067642203188" lon="12.026126042588784"><ele>602.0</ele><time>2026-04-06T06:11:40.999Z</time></trkpt><trkpt lat="43.9907838537522" lon="12.026116131073318"><ele>602.0</ele><time>2026-04-06T06:11:41.999Z</time></trkpt><trkpt lat="43.990897652661936" lon="12.026111794450802"><ele>602.0</ele><time>2026-04-06T06:11:42.999Z</time></trkpt><trkpt lat="43.991016735622715" lon="12.026108816980711"><ele>598.75</ele><time>2026-04-06T06:11:43.999Z</time></trkpt><trkpt lat="43.99113558726798" lon="12.02610751092299"><ele>595.5</ele><time>2026-04-06T06:11:44.999Z</time></trkpt><trkpt lat="43.99124851541283" lon="12.026111957777294"><ele>592.25</ele><time>2026-04-06T06:11:45.999Z</time></trkpt><trkpt lat="43.99135799983403" lon="12.026114809545218"><ele>589.0</ele><time>2026-04-06T06:11:46.999Z</time></trkpt><trkpt lat="43.991468658201875" lon="12.02611523471323"><ele>589.0</ele><time>2026-04-06T06:11:47.999Z</time></trkpt><trkpt lat="43.99157993308855" lon="12.026114384829262"><ele>589.0</ele><time>2026-04-06T06:11:48.999Z</time></trkpt><trkpt lat="43.99169116744206" lon="12.02611324423025"><ele>589.0</ele><time>2026-04-06T06:11:49.999Z</time></trkpt><trkpt lat="43.991809465928135" lon="12.026112021509634"><ele>589.0</ele><time>2026-04-06T06:11:50.999Z</time></trkpt><trkpt lat="43.991931691598424" lon="12.026110758197426"><ele>588.0</ele><time>2026-04-06T06:11:51.999Z</time></trkpt><trkpt lat="43.992049959368" lon="12.026111462709208"><ele>587.0</ele><time>2026-04-06T06:11:52.999Z</time></trkpt><trkpt lat="43.99216936072875" lon="12.026113112465834"><ele>586.0</ele><time>2026-04-06T06:11:53.999Z</time></trkpt><trkpt lat="43.99228413276755" lon="12.02611519401757"><ele>585.0</ele><time>2026-04-06T06:11:54.999Z</time></trkpt><trkpt lat="43.992393983886586" lon="12.026118914951983"><ele>585.0</ele><time>2026-04-06T06:11:55.999Z</time></trkpt><trkpt lat="43.99248368141513" lon="12.02612195323689"><ele>585.0</ele><time>2026-04-06T06:11:56.999Z</time></trkpt><trkpt lat="43.99255352052048" lon="12.026129961037084"><ele>585.0</ele><time>2026-04-06T06:11:57.999Z</time></trkpt><trkpt lat="43.99262257048919" lon="12.026140150405597"><ele>585.0</ele><time>2026-04-06T06:11:58.999Z</time></trkpt><trkpt lat="43.99268803967369" lon="12.026153714016484"><ele>585.0</ele><time>2026-04-06T06:11:59.999Z</time></trkpt><trkpt lat="43.99277367617328" lon="12.026179064705689"><ele>585.0</ele><time>2026-04-06T06:12:00.999Z</time></trkpt><trkpt lat="43.992872375548245" lon="12.026219657508971"><ele>582.6</ele><time>2026-04-06T06:12:01.999Z</time></trkpt><trkpt lat="43.99297225724669" lon="12.02626196874993"><ele>580.2</ele><time>2026-04-06T06:12:02.999Z</time></trkpt><trkpt lat="43.99307707684266" lon="12.02630815015038"><ele>577.8</ele><time>2026-04-06T06:12:03.999Z</time></trkpt><trkpt lat="43.993173738460186" lon="12.026350737305481"><ele>575.4</ele><time>2026-04-06T06:12:04.999Z</time></trkpt><trkpt lat="43.993270966905854" lon="12.026393574197257"><ele>573.0</ele><time>2026-04-06T06:12:05.999Z</time></trkpt><trkpt lat="43.99336706700004" lon="12.026435117955957"><ele>570.5</ele><time>2026-04-06T06:12:06.999Z</time></trkpt><trkpt lat="43.99344689850838" lon="12.026467506747244"><ele>568.0</ele><time>2026-04-06T06:12:07.999Z</time></trkpt><trkpt lat="43.99354531504879" lon="12.02650020813766"><ele>565.5</ele><time>2026-04-06T06:12:08.999Z</time></trkpt><trkpt lat="43.99366843700589" lon="12.026508039343788"><ele>563.0</ele><time>2026-04-06T06:12:09.999Z</time></trkpt><trkpt lat="43.99380782270374" lon="12.026466558445447"><ele>563.0</ele><time>2026-04-06T06:12:10.999Z</time></trkpt><trkpt lat="43.993924590727296" lon="12.026405171169577"><ele>563.0</ele><time>2026-04-06T06:12:11.999Z</time></trkpt><trkpt lat="43.99402741838842" lon="12.02634643336943"><ele>563.0</ele><time>2026-04-06T06:12:12.999Z</time></trkpt><trkpt lat="43.994124113965746" lon="12.02629178050281"><ele>563.0</ele><time>2026-04-06T06:12:13.999Z</time></trkpt><trkpt lat="43.99422586343364" lon="12.02623647923603"><ele>558.0</ele><time>2026-04-06T06:12:14.999Z</time></trkpt><trkpt lat="43.99431586855525" lon="12.026199684980423"><ele>553.0</ele><time>2026-04-06T06:12:15.999Z</time></trkpt><trkpt lat="43.994389349488905" lon="12.026195928410504"><ele>548.0</ele><time>2026-04-06T06:12:16.999Z</time></trkpt><trkpt lat="43.99453271453078" lon="12.0262102951194"><ele>543.0</ele><time>2026-04-06T06:12:18.999Z</time></trkpt><trkpt lat="43.99448201312646" lon="12.026291705689456"><ele>538.0</ele><time>2026-04-06T06:12:19.999Z</time></trkpt><trkpt lat="43.99445885602949" lon="12.026396430391783"><ele>538.0</ele><time>2026-04-06T06:12:22.999Z</time></trkpt><trkpt lat="43.99439609969547" lon="12.02634865737377"><ele>538.0</ele><time>2026-04-06T06:12:23.999Z</time></trkpt><trkpt lat="43.994507602791884" lon="12.026451152623096"><ele>538.0</ele><time>2026-04-06T06:12:24.999Z</time></trkpt><trkpt lat="43.99487762329977" lon="12.025740586517042"><ele>536.6666666666667</ele><time>2026-04-06T06:12:26.999Z</time></trkpt><trkpt lat="43.99486182120427" lon="12.025636268841915"><ele>535.3333333333334</ele><time>2026-04-06T06:12:27.999Z</time></trkpt><trkpt lat="43.99482278217586" lon="12.025528114260268"><ele>534.0</ele><time>2026-04-06T06:12:29Z</time></trkpt><trkpt lat="43.994787760906895" lon="12.025420388374888"><ele>532.6666666666666</ele><time>2026-04-06T06:12:30Z</time></trkpt><trkpt lat="43.99474000696099" lon="12.025342096925478"><ele>531.3333333333333</ele><time>2026-04-06T06:12:31Z</time></trkpt><trkpt lat="43.99468384626075" lon="12.025258015059258"><ele>530.0</ele><time>2026-04-06T06:12:32Z</time></trkpt><trkpt lat="43.99458621651311" lon="12.025227265835245"><ele>530.0</ele><time>2026-04-06T06:12:33Z</time></trkpt><trkpt lat="43.994494300608395" lon="12.025233786730858"><ele>530.0</ele><time>2026-04-06T06:12:34Z</time></trkpt><trkpt lat="43.99442832723556" lon="12.025222054053742"><ele>530.0</ele><time>2026-04-06T06:12:35Z</time></trkpt><trkpt lat="43.99436461873995" lon="12.025049223252296"><ele>530.0</ele><time>2026-04-06T06:12:37Z</time></trkpt><trkpt lat="43.99431108437433" lon="12.024949422174409"><ele>530.0</ele><time>2026-04-06T06:12:38Z</time></trkpt><trkpt lat="43.99427025491059" lon="12.024862689860903"><ele>530.2</ele><time>2026-04-06T06:12:39Z</time></trkpt><trkpt lat="43.99422247763861" lon="12.02475744157229"><ele>530.4</ele><time>2026-04-06T06:12:40Z</time></trkpt><trkpt lat="43.99414907273809" lon="12.02466711744286"><ele>530.6</ele><time>2026-04-06T06:12:41Z</time></trkpt><trkpt lat="43.99408018946818" lon="12.024580256725685"><ele>530.8</ele><time>2026-04-06T06:12:42Z</time></trkpt><trkpt lat="43.99401000046136" lon="12.024503526317892"><ele>531.0</ele><time>2026-04-06T06:12:43Z</time></trkpt><trkpt lat="43.99393720341342" lon="12.024425551965972"><ele>531.0</ele><time>2026-04-06T06:12:44Z</time></trkpt><trkpt lat="43.99387121315721" lon="12.024339292851305"><ele>531.0</ele><time>2026-04-06T06:12:44.999Z</time></trkpt><trkpt lat="43.99382794964326" lon="12.024244786950353"><ele>531.0</ele><time>2026-04-06T06:12:45.999Z</time></trkpt><trkpt lat="43.99378962128676" lon="12.024146232041586"><ele>531.0</ele><time>2026-04-06T06:12:46.999Z</time></trkpt><trkpt lat="43.99375364610637" lon="12.024037502851153"><ele>531.0</ele><time>2026-04-06T06:12:47.999Z</time></trkpt><trkpt lat="43.99372422496596" lon="12.023932717570856"><ele>531.0</ele><time>2026-04-06T06:12:48.999Z</time></trkpt><trkpt lat="43.993704829129804" lon="12.02383311712238"><ele>528.6666666666666</ele><time>2026-04-06T06:12:49.999Z</time></trkpt><trkpt lat="43.99367567353468" lon="12.023745620068203"><ele>526.3333333333334</ele><time>2026-04-06T06:12:50.999Z</time></trkpt><trkpt lat="43.99365634019246" lon="12.023653965513406"><ele>524.0</ele><time>2026-04-06T06:12:51.999Z</time></trkpt><trkpt lat="43.99365096691344" lon="12.023562178459786"><ele>521.6666666666667</ele><time>2026-04-06T06:12:52.999Z</time></trkpt><trkpt lat="43.993632715468436" lon="12.023478132318953"><ele>519.3333333333334</ele><time>2026-04-06T06:12:53.999Z</time></trkpt><trkpt lat="43.99359688960694" lon="12.023312729950806"><ele>517.0</ele><time>2026-04-06T06:12:55.999Z</time></trkpt><trkpt lat="43.993557050964725" lon="12.02316652971309"><ele>517.4</ele><time>2026-04-06T06:12:57.999Z</time></trkpt><trkpt lat="43.993492256761705" lon="12.02302612491297"><ele>517.8000000000001</ele><time>2026-04-06T06:12:59.999Z</time></trkpt><trkpt lat="43.99344215092263" lon="12.022972678889639"><ele>518.2</ele><time>2026-04-06T06:13:00.999Z</time></trkpt><trkpt lat="43.993358177287334" lon="12.022877577742841"><ele>518.6</ele><time>2026-04-06T06:13:02.999Z</time></trkpt><trkpt lat="43.99326262526107" lon="12.022808517678705"><ele>519.0</ele><time>2026-04-06T06:13:04.999Z</time></trkpt><trkpt lat="43.99317312038532" lon="12.02279247113848"><ele>519.0</ele><time>2026-04-06T06:13:06.999Z</time></trkpt><trkpt lat="43.993103324214474" lon="12.022744395540887"><ele>519.0</ele><time>2026-04-06T06:13:08.999Z</time></trkpt><trkpt lat="43.99300810501491" lon="12.02274212446831"><ele>519.0</ele><time>2026-04-06T06:13:10.999Z</time></trkpt><trkpt lat="43.992910478073085" lon="12.022722373456514"><ele>519.0</ele><time>2026-04-06T06:13:12.999Z</time></trkpt><trkpt lat="43.99284499038753" lon="12.022725740814698"><ele>519.0</ele><time>2026-04-06T06:13:13.999Z</time></trkpt><trkpt lat="43.992775646637455" lon="12.022720880294374"><ele>519.0</ele><time>2026-04-06T06:13:14.999Z</time></trkpt><trkpt lat="43.99269287699338" lon="12.022708850851805"><ele>519.0</ele><time>2026-04-06T06:13:15.999Z</time></trkpt><trkpt lat="43.992614612156714" lon="12.022691803702187"><ele>519.0</ele><time>2026-04-06T06:13:16.999Z</time></trkpt><trkpt lat="43.99255322697853" lon="12.022670258887656"><ele>519.0</ele><time>2026-04-06T06:13:17.999Z</time></trkpt><trkpt lat="43.99257817806956" lon="12.022533447815825"><ele>519.0</ele><time>2026-04-06T06:13:20.999Z</time></trkpt><trkpt lat="43.992633321455585" lon="12.022455181349114"><ele>519.0</ele><time>2026-04-06T06:13:21.999Z</time></trkpt><trkpt lat="43.99268954660565" lon="12.022363957203815"><ele>519.0</ele><time>2026-04-06T06:13:22.999Z</time></trkpt><trkpt lat="43.992735709174354" lon="12.022254938021153"><ele>515.4</ele><time>2026-04-06T06:13:23.999Z</time></trkpt><trkpt lat="43.992750214866106" lon="12.022127782589065"><ele>511.79999999999995</ele><time>2026-04-06T06:13:24.999Z</time></trkpt><trkpt lat="43.99276460935158" lon="12.021976099286832"><ele>508.20000000000005</ele><time>2026-04-06T06:13:25.999Z</time></trkpt><trkpt lat="43.99279101868489" lon="12.021836520590274"><ele>504.6</ele><time>2026-04-06T06:13:26.999Z</time></trkpt><trkpt lat="43.99284469805688" lon="12.02170462709574"><ele>501.0</ele><time>2026-04-06T06:13:27.999Z</time></trkpt><trkpt lat="43.992897735020414" lon="12.021575689909518"><ele>497.0</ele><time>2026-04-06T06:13:28.999Z</time></trkpt><trkpt lat="43.99295094958494" lon="12.021460721890492"><ele>493.0</ele><time>2026-04-06T06:13:29.999Z</time></trkpt><trkpt lat="43.993027651495574" lon="12.021369081888462"><ele>489.0</ele><time>2026-04-06T06:13:30.999Z</time></trkpt><trkpt lat="43.99309723713913" lon="12.021282115281615"><ele>485.0</ele><time>2026-04-06T06:13:31.999Z</time></trkpt><trkpt lat="43.993175448649154" lon="12.021206079088413"><ele>481.0</ele><time>2026-04-06T06:13:32.999Z</time></trkpt><trkpt lat="43.99325862146542" lon="12.021137856158964"><ele>478.8</ele><time>2026-04-06T06:13:33.999Z</time></trkpt><trkpt lat="43.99334902475545" lon="12.021076940099183"><ele>476.6</ele><time>2026-04-06T06:13:34.999Z</time></trkpt><trkpt lat="43.9934472425219" lon="12.021011375899176"><ele>474.4</ele><time>2026-04-06T06:13:35.999Z</time></trkpt><trkpt lat="43.99354302466668" lon="12.020944724365785"><ele>472.2</ele><time>2026-04-06T06:13:36.999Z</time></trkpt><trkpt lat="43.99364021740337" lon="12.020896717201374"><ele>470.0</ele><time>2026-04-06T06:13:37.999Z</time></trkpt><trkpt lat="43.993730500641874" lon="12.020892993321976"><ele>469.99999999999994</ele><time>2026-04-06T06:13:38.999Z</time></trkpt><trkpt lat="43.99380479770589" lon="12.020885621988242"><ele>470.0</ele><time>2026-04-06T06:13:39.999Z</time></trkpt><trkpt lat="43.99388720084442" lon="12.02090904044438"><ele>470.0</ele><time>2026-04-06T06:13:40.999Z</time></trkpt><trkpt lat="43.99394921801007" lon="12.020888860166577"><ele>470.0</ele><time>2026-04-06T06:13:41.999Z</time></trkpt><trkpt lat="43.994048130340005" lon="12.02075655579482"><ele>469.99999999999994</ele><time>2026-04-06T06:13:43.999Z</time></trkpt><trkpt lat="43.994048672517515" lon="12.020659859056202"><ele>470.0</ele><time>2026-04-06T06:13:44.999Z</time></trkpt><trkpt lat="43.99399060917257" lon="12.020534728779673"><ele>467.49999999999994</ele><time>2026-04-06T06:13:46.999Z</time></trkpt><trkpt lat="43.993938043404924" lon="12.020482763881258"><ele>465.0</ele><time>2026-04-06T06:13:47.999Z</time></trkpt><trkpt lat="43.993913782741956" lon="12.020387104832242"><ele>462.5</ele><time>2026-04-06T06:13:48.999Z</time></trkpt><trkpt lat="43.99388336093524" lon="12.020296742152556"><ele>460.0</ele><time>2026-04-06T06:13:49.999Z</time></trkpt><trkpt lat="43.99383887255604" lon="12.020217666607866"><ele>457.49999999999994</ele><time>2026-04-06T06:13:50.999Z</time></trkpt><trkpt lat="43.99379272090747" lon="12.020155923139127"><ele>455.0</ele><time>2026-04-06T06:13:51.999Z</time></trkpt><trkpt lat="43.99359281002801" lon="12.019857016345096"><ele>455.8</ele><time>2026-04-06T06:13:53.999Z</time></trkpt><trkpt lat="43.993478504092224" lon="12.019811623767119"><ele>456.6</ele><time>2026-04-06T06:13:54.999Z</time></trkpt><trkpt lat="43.99340591695953" lon="12.019784521202807"><ele>457.4</ele><time>2026-04-06T06:13:55.999Z</time></trkpt><trkpt lat="43.99333895937026" lon="12.019757363762777"><ele>458.2</ele><time>2026-04-06T06:13:56.999Z</time></trkpt><trkpt lat="43.99326298179229" lon="12.019728656645595"><ele>459.0</ele><time>2026-04-06T06:13:57.999Z</time></trkpt><trkpt lat="43.99297668375157" lon="12.020414408340637"><ele>459.0</ele><time>2026-04-06T06:14:00.999Z</time></trkpt><trkpt lat="43.992907858501745" lon="12.020372013947279"><ele>459.0</ele><time>2026-04-06T06:14:01.999Z</time></trkpt><trkpt lat="43.99286371565874" lon="12.020244001284826"><ele>459.0</ele><time>2026-04-06T06:14:03.999Z</time></trkpt><trkpt lat="43.992903786150144" lon="12.020163062208773"><ele>459.0</ele><time>2026-04-06T06:14:04.999Z</time></trkpt><trkpt lat="43.99298236775575" lon="12.02010192580336"><ele>459.0</ele><time>2026-04-06T06:14:05.999Z</time></trkpt><trkpt lat="43.99306105793999" lon="12.020029610098835"><ele>459.0</ele><time>2026-04-06T06:14:06.999Z</time></trkpt><trkpt lat="43.99312513306918" lon="12.019923229494932"><ele>456.0</ele><time>2026-04-06T06:14:08Z</time></trkpt><trkpt lat="43.99318964923586" lon="12.019804116060378"><ele>453.0</ele><time>2026-04-06T06:14:09Z</time></trkpt><trkpt lat="43.99326566242721" lon="12.019717800761926"><ele>450.0</ele><time>2026-04-06T06:14:10Z</time></trkpt><trkpt lat="43.99332986448788" lon="12.019650851205608"><ele>447.0</ele><time>2026-04-06T06:14:11Z</time></trkpt><trkpt lat="43.99336206492495" lon="12.01956612533777"><ele>444.0</ele><time>2026-04-06T06:14:12Z</time></trkpt><trkpt lat="43.99338075821349" lon="12.019457294827532"><ele>441.0</ele><time>2026-04-06T06:14:13Z</time></trkpt><trkpt lat="43.993385540397114" lon="12.019330780085852"><ele>440.0</ele><time>2026-04-06T06:14:14Z</time></trkpt><trkpt lat="43.99339210116513" lon="12.01920602919222"><ele>439.0</ele><time>2026-04-06T06:14:15Z</time></trkpt><trkpt lat="43.99340653265426" lon="12.019083051022497"><ele>438.0</ele><time>2026-04-06T06:14:16Z</time></trkpt><trkpt lat="43.99343605667904" lon="12.018991425266549"><ele>437.0</ele><time>2026-04-06T06:14:17Z</time></trkpt><trkpt lat="43.99351740071448" lon="12.018864982686821"><ele>436.0</ele><time>2026-04-06T06:14:19Z</time></trkpt><trkpt lat="43.99357990517746" lon="12.018810706337046"><ele>435.0</ele><time>2026-04-06T06:14:20Z</time></trkpt><trkpt lat="43.99365823528989" lon="12.018799617153299"><ele>431.6666666666667</ele><time>2026-04-06T06:14:21Z</time></trkpt><trkpt lat="43.99373032177179" lon="12.018783857434485"><ele>428.33333333333337</ele><time>2026-04-06T06:14:22Z</time></trkpt><trkpt lat="43.99380693246142" lon="12.018793776445845"><ele>425.0</ele><time>2026-04-06T06:14:23Z</time></trkpt><trkpt lat="43.99389481025746" lon="12.018824187375667"><ele>421.6666666666667</ele><time>2026-04-06T06:14:24Z</time></trkpt><trkpt lat="43.99398654698505" lon="12.018861230317459"><ele>418.33333333333337</ele><time>2026-04-06T06:14:25Z</time></trkpt><trkpt lat="43.99406948384146" lon="12.018896653100274"><ele>415.0</ele><time>2026-04-06T06:14:26Z</time></trkpt><trkpt lat="43.99415041738109" lon="12.018919928917356"><ele>414.1666666666667</ele><time>2026-04-06T06:14:27Z</time></trkpt><trkpt lat="43.99421100273965" lon="12.018982233180193"><ele>413.33333333333337</ele><time>2026-04-06T06:14:28Z</time></trkpt><trkpt lat="43.99427885777991" lon="12.01903253174247"><ele>412.5</ele><time>2026-04-06T06:14:29Z</time></trkpt><trkpt lat="43.99435321576042" lon="12.019038501437132"><ele>411.66666666666663</ele><time>2026-04-06T06:14:31Z</time></trkpt><trkpt lat="43.99442062583594" lon="12.01905351078252"><ele>410.8333333333333</ele><time>2026-04-06T06:15:21Z</time></trkpt><trkpt lat="43.99447763538624" lon="12.019135932008838"><ele>410.0</ele><time>2026-04-06T06:15:23Z</time></trkpt><trkpt lat="43.99451812513899" lon="12.019253630953433"><ele>410.0</ele><time>2026-04-06T06:15:25Z</time></trkpt><trkpt lat="43.99454138360275" lon="12.019336106416304"><ele>410.0</ele><time>2026-04-06T06:15:28Z</time></trkpt><trkpt lat="43.99458718423441" lon="12.019448793744774"><ele>410.0</ele><time>2026-04-06T06:15:35Z</time></trkpt><trkpt lat="43.99463111618338" lon="12.019579374091979"><ele>410.0</ele><time>2026-04-06T06:15:37Z</time></trkpt><trkpt lat="43.99472463531754" lon="12.019491381274833"><ele>410.0</ele><time>2026-04-06T06:15:40Z</time></trkpt><trkpt lat="43.994808810185255" lon="12.019444610587923"><ele>409.99999999999994</ele><time>2026-04-06T06:15:42Z</time></trkpt><trkpt lat="43.994855182848994" lon="12.019335471783394"><ele>410.0</ele><time>2026-04-06T06:15:44Z</time></trkpt><trkpt lat="43.99489970799217" lon="12.019262065965254"><ele>410.0</ele><time>2026-04-06T06:15:45Z</time></trkpt><trkpt lat="43.99495288492311" lon="12.019202039262424"><ele>410.0</ele><time>2026-04-06T06:15:46Z</time></trkpt><trkpt lat="43.99502375898493" lon="12.019180177158127"><ele>409.99999999999994</ele><time>2026-04-06T06:15:47Z</time></trkpt><trkpt lat="43.995094903986875" lon="12.019147380208066"><ele>410.0</ele><time>2026-04-06T06:15:48Z</time></trkpt><trkpt lat="43.995173139490745" lon="12.019112170407444"><ele>405.99999999999994</ele><time>2026-04-06T06:15:49Z</time></trkpt><trkpt lat="43.99525266606072" lon="12.019070465938611"><ele>402.0</ele><time>2026-04-06T06:15:50Z</time></trkpt><trkpt lat="43.99532385464409" lon="12.019009350613407"><ele>398.0</ele><time>2026-04-06T06:15:51Z</time></trkpt><trkpt lat="43.99542017448466" lon="12.018960947164546"><ele>394.0</ele><time>2026-04-06T06:15:52Z</time></trkpt><trkpt lat="43.995499529235914" lon="12.01893368324595"><ele>389.99999999999994</ele><time>2026-04-06T06:15:53Z</time></trkpt><trkpt lat="43.99556682016441" lon="12.018904412146416"><ele>386.0</ele><time>2026-04-06T06:15:54Z</time></trkpt><trkpt lat="43.99561498465441" lon="12.018842662969497"><ele>385.99999999999994</ele><time>2026-04-06T06:15:55Z</time></trkpt><trkpt lat="43.995649289803566" lon="12.018748736775384"><ele>386.0</ele><time>2026-04-06T06:15:56Z</time></trkpt><trkpt lat="43.99567589197284" lon="12.018660847296454"><ele>386.0</ele><time>2026-04-06T06:15:57Z</time></trkpt><trkpt lat="43.995711429283055" lon="12.018586406049794"><ele>386.0</ele><time>2026-04-06T06:15:58Z</time></trkpt><trkpt lat="43.995804358620354" lon="12.01850263978969"><ele>385.99999999999994</ele><time>2026-04-06T06:16:00Z</time></trkpt><trkpt lat="43.99590271111215" lon="12.018598820988947"><ele>386.0</ele><time>2026-04-06T06:16:02Z</time></trkpt><trkpt lat="43.995948135428605" lon="12.018683221489589"><ele>380.99999999999994</ele><time>2026-04-06T06:16:03Z</time></trkpt><trkpt lat="43.995993014253266" lon="12.018756661817045"><ele>376.0</ele><time>2026-04-06T06:16:04Z</time></trkpt><trkpt lat="43.9960700652994" lon="12.018849282700975"><ele>371.0</ele><time>2026-04-06T06:16:06Z</time></trkpt><trkpt lat="43.996143769222904" lon="12.018887523460705"><ele>366.0</ele><time>2026-04-06T06:16:09Z</time></trkpt><trkpt lat="43.996208692202295" lon="12.018924987530964"><ele>361.0</ele><time>2026-04-06T06:16:11Z</time></trkpt><trkpt lat="43.99628649710082" lon="12.018870839250384"><ele>356.0</ele><time>2026-04-06T06:16:12Z</time></trkpt><trkpt lat="43.99635593647629" lon="12.018925806915052"><ele>356.0</ele><time>2026-04-06T06:16:14Z</time></trkpt><trkpt lat="43.99644450936853" lon="12.018990879642837"><ele>356.0</ele><time>2026-04-06T06:16:16Z</time></trkpt><trkpt lat="43.996506917327096" lon="12.01901528872526"><ele>356.0</ele><time>2026-04-06T06:16:17Z</time></trkpt><trkpt lat="43.99658013813863" lon="12.019015247244479"><ele>356.0</ele><time>2026-04-06T06:16:18Z</time></trkpt><trkpt lat="43.996644911882115" lon="12.019061701470122"><ele>356.0</ele><time>2026-04-06T06:16:19Z</time></trkpt><trkpt lat="43.996692926049114" lon="12.019138366605747"><ele>356.0</ele><time>2026-04-06T06:16:20Z</time></trkpt><trkpt lat="43.9967342605151" lon="12.019221672818357"><ele>354.5</ele><time>2026-04-06T06:16:21Z</time></trkpt><trkpt lat="43.996770554040076" lon="12.019309128384439"><ele>353.0</ele><time>2026-04-06T06:16:22Z</time></trkpt><trkpt lat="43.99684827012669" lon="12.019320139534297"><ele>351.5</ele><time>2026-04-06T06:16:23Z</time></trkpt><trkpt lat="43.99694139317183" lon="12.019341759603595"><ele>350.0</ele><time>2026-04-06T06:16:25Z</time></trkpt><trkpt lat="43.99700110646026" lon="12.019397700530611"><ele>348.5</ele><time>2026-04-06T06:16:27Z</time></trkpt><trkpt lat="43.99704913444464" lon="12.01946704291019"><ele>347.0</ele><time>2026-04-06T06:16:29Z</time></trkpt><trkpt lat="43.99709099555975" lon="12.0195927655688"><ele>347.0</ele><time>2026-04-06T06:16:31Z</time></trkpt><trkpt lat="43.99714081140591" lon="12.019648191861526"><ele>347.0</ele><time>2026-04-06T06:16:32Z</time></trkpt><trkpt lat="43.99722122259109" lon="12.019693045317203"><ele>347.0</ele><time>2026-04-06T06:16:34Z</time></trkpt><trkpt lat="43.997292533001094" lon="12.019685068259792"><ele>347.0</ele><time>2026-04-06T06:16:35Z</time></trkpt><trkpt lat="43.99738213639942" lon="12.019695258773462"><ele>347.0</ele><time>2026-04-06T06:16:37Z</time></trkpt><trkpt lat="43.99745739419746" lon="12.019652465435408"><ele>347.0</ele><time>2026-04-06T06:16:39Z</time></trkpt><trkpt lat="43.99747424891646" lon="12.019506858063451"><ele>347.0</ele><time>2026-04-06T06:16:41Z</time></trkpt><trkpt lat="43.997416598828345" lon="12.01943980274071"><ele>347.0</ele><time>2026-04-06T06:16:42Z</time></trkpt><trkpt lat="43.99732038565023" lon="12.019391637733138"><ele>347.0</ele><time>2026-04-06T06:16:44Z</time></trkpt><trkpt lat="43.9972601585142" lon="12.019283215370884"><ele>347.0</ele><time>2026-04-06T06:16:46Z</time></trkpt><trkpt lat="43.997290973420576" lon="12.01919308130965"><ele>347.0</ele><time>2026-04-06T06:16:48Z</time></trkpt><trkpt lat="43.99742503162319" lon="12.019177406000033"><ele>347.0</ele><time>2026-04-06T06:16:51Z</time></trkpt><trkpt lat="43.99749650989132" lon="12.01916248113281"><ele>347.0</ele><time>2026-04-06T06:16:52Z</time></trkpt><trkpt lat="43.997564507615586" lon="12.019138863177876"><ele>347.0</ele><time>2026-04-06T06:16:53Z</time></trkpt><trkpt lat="43.99762142844402" lon="12.019097785450377"><ele>347.0</ele><time>2026-04-06T06:16:54Z</time></trkpt><trkpt lat="43.997628732219844" lon="12.018966179978905"><ele>347.0</ele><time>2026-04-06T06:16:56Z</time></trkpt><trkpt lat="43.99752951995695" lon="12.018891513828716"><ele>347.0</ele><time>2026-04-06T06:16:58Z</time></trkpt><trkpt lat="43.997441551449256" lon="12.018800149204056"><ele>346.6</ele><time>2026-04-06T06:17:00Z</time></trkpt><trkpt lat="43.99743545009919" lon="12.01866719402171"><ele>346.20000000000005</ele><time>2026-04-06T06:17:02Z</time></trkpt><trkpt lat="43.99743584718313" lon="12.018481182151849"><ele>345.8</ele><time>2026-04-06T06:17:04Z</time></trkpt><trkpt lat="43.99744273206892" lon="12.018368550569654"><ele>345.4</ele><time>2026-04-06T06:17:05Z</time></trkpt><trkpt lat="43.99743451627841" lon="12.018245072438944"><ele>345.0</ele><time>2026-04-06T06:17:06Z</time></trkpt><trkpt lat="43.99741457699358" lon="12.018127153710127"><ele>345.0</ele><time>2026-04-06T06:17:07Z</time></trkpt><trkpt lat="43.99741119685759" lon="12.018026009253902"><ele>345.0</ele><time>2026-04-06T06:17:09Z</time></trkpt><trkpt lat="43.99740469576871" lon="12.017933715132143"><ele>345.0</ele><time>2026-04-06T06:17:13Z</time></trkpt><trkpt lat="43.997348214439235" lon="12.017876701027886"><ele>345.0</ele><time>2026-04-06T06:17:17Z</time></trkpt><trkpt lat="43.997291824622614" lon="12.01783211342429"><ele>345.0</ele><time>2026-04-06T06:17:21Z</time></trkpt><trkpt lat="43.99723471388623" lon="12.017752664076893"><ele>345.0</ele><time>2026-04-06T06:17:25Z</time></trkpt><trkpt lat="43.99717559153118" lon="12.017709379752448"><ele>345.0</ele><time>2026-04-06T06:17:27Z</time></trkpt><trkpt lat="43.99711588163142" lon="12.017616567434342"><ele>348.6666666666667</ele><time>2026-04-06T06:17:28Z</time></trkpt><trkpt lat="43.99710203239733" lon="12.017465787592139"><ele>352.3333333333333</ele><time>2026-04-06T06:17:30Z</time></trkpt><trkpt lat="43.99709832412767" lon="12.017334528250032"><ele>356.0</ele><time>2026-04-06T06:17:31Z</time></trkpt><trkpt lat="43.9971012523145" lon="12.017233997632273"><ele>359.66666666666663</ele><time>2026-04-06T06:17:32Z</time></trkpt><trkpt lat="43.99714714897414" lon="12.017138616085997"><ele>363.3333333333333</ele><time>2026-04-06T06:17:33Z</time></trkpt><trkpt lat="43.99715520443356" lon="12.017046756763845"><ele>367.0</ele><time>2026-04-06T06:17:34Z</time></trkpt><trkpt lat="43.99715774725339" lon="12.016945153462677"><ele>367.0</ele><time>2026-04-06T06:17:35Z</time></trkpt><trkpt lat="43.99709773828824" lon="12.016816084428914"><ele>367.0</ele><time>2026-04-06T06:17:37Z</time></trkpt><trkpt lat="43.9970493035405" lon="12.01675736107339"><ele>367.0</ele><time>2026-04-06T06:17:38Z</time></trkpt><trkpt lat="43.996992038266924" lon="12.016634637460447"><ele>367.0</ele><time>2026-04-06T06:17:40Z</time></trkpt><trkpt lat="43.996983282172856" lon="12.016529463187105"><ele>367.0</ele><time>2026-04-06T06:17:42Z</time></trkpt><trkpt lat="43.99709668253865" lon="12.016492845501055"><ele>368.16666666666663</ele><time>2026-04-06T06:17:44Z</time></trkpt><trkpt lat="43.9971803894739" lon="12.016469011632077"><ele>369.3333333333333</ele><time>2026-04-06T06:17:45Z</time></trkpt><trkpt lat="43.997262712120715" lon="12.016406146788052"><ele>370.5</ele><time>2026-04-06T06:17:47Z</time></trkpt><trkpt lat="43.997257148360895" lon="12.016302180166928"><ele>371.6666666666667</ele><time>2026-04-06T06:17:49Z</time></trkpt><trkpt lat="43.997226110951075" lon="12.016219369891266"><ele>372.83333333333337</ele><time>2026-04-06T06:17:50Z</time></trkpt><trkpt lat="43.99719884061819" lon="12.016106845002222"><ele>374.0</ele><time>2026-04-06T06:17:52Z</time></trkpt><trkpt lat="43.99723561956426" lon="12.016021301312417"><ele>374.0</ele><time>2026-04-06T06:17:54Z</time></trkpt><trkpt lat="43.99731908947779" lon="12.016057799379562"><ele>374.0</ele><time>2026-04-06T06:17:56Z</time></trkpt><trkpt lat="43.99735441356238" lon="12.01615425760111"><ele>374.0</ele><time>2026-04-06T06:17:57Z</time></trkpt><trkpt lat="43.997398272809235" lon="12.016264342181191"><ele>374.0</ele><time>2026-04-06T06:17:59Z</time></trkpt><trkpt lat="43.99746943712504" lon="12.01627126836075"><ele>374.0</ele><time>2026-04-06T06:18:02Z</time></trkpt><trkpt lat="43.99753430624429" lon="12.016282168575913"><ele>374.0</ele><time>2026-04-06T06:18:04Z</time></trkpt><trkpt lat="43.99762011897568" lon="12.016243022827558"><ele>379.75</ele><time>2026-04-06T06:18:07Z</time></trkpt><trkpt lat="43.99792884548114" lon="12.016265747983404"><ele>385.5</ele><time>2026-04-06T06:18:09Z</time></trkpt><trkpt lat="43.99799562534029" lon="12.016257711854363"><ele>391.25</ele><time>2026-04-06T06:18:10Z</time></trkpt><trkpt lat="43.99806073297924" lon="12.016250292717112"><ele>397.0</ele><time>2026-04-06T06:18:11Z</time></trkpt><trkpt lat="43.99816132807669" lon="12.016280087151232"><ele>397.00000000000006</ele><time>2026-04-06T06:18:13Z</time></trkpt><trkpt lat="43.99824164892406" lon="12.016312225953437"><ele>397.0</ele><time>2026-04-06T06:18:15Z</time></trkpt><trkpt lat="43.9983311066627" lon="12.016331030807951"><ele>397.0</ele><time>2026-04-06T06:18:17Z</time></trkpt><trkpt lat="43.99840343228309" lon="12.016342699078402"><ele>397.0</ele><time>2026-04-06T06:18:19Z</time></trkpt><trkpt lat="43.9984786028528" lon="12.016379004376208"><ele>397.00000000000006</ele><time>2026-04-06T06:18:21Z</time></trkpt><trkpt lat="43.99857846561521" lon="12.016400165478625"><ele>397.0</ele><time>2026-04-06T06:18:23Z</time></trkpt><trkpt lat="43.998641484376144" lon="12.016391653504796"><ele>401.40000000000003</ele><time>2026-04-06T06:18:24Z</time></trkpt><trkpt lat="43.99873884544569" lon="12.016303328251086"><ele>405.8</ele><time>2026-04-06T06:18:26Z</time></trkpt><trkpt lat="43.99879123884344" lon="12.016228885973216"><ele>410.2</ele><time>2026-04-06T06:18:27Z</time></trkpt><trkpt lat="43.99882012072459" lon="12.016073066274075"><ele>414.6</ele><time>2026-04-06T06:18:28Z</time></trkpt><trkpt lat="43.99886904507104" lon="12.015976561740317"><ele>419.0</ele><time>2026-04-06T06:18:29Z</time></trkpt><trkpt lat="43.99892007029341" lon="12.015850768936307"><ele>420.8333333333333</ele><time>2026-04-06T06:18:31Z</time></trkpt><trkpt lat="43.99895477722207" lon="12.01572035403739"><ele>422.66666666666663</ele><time>2026-04-06T06:18:33Z</time></trkpt><trkpt lat="43.99896721920006" lon="12.0156317471555"><ele>424.5</ele><time>2026-04-06T06:18:34Z</time></trkpt><trkpt lat="43.99898741935288" lon="12.015492138798695"><ele>426.33333333333337</ele><time>2026-04-06T06:18:36Z</time></trkpt><trkpt lat="43.999073326159426" lon="12.015391414947686"><ele>428.1666666666667</ele><time>2026-04-06T06:18:38Z</time></trkpt><trkpt lat="43.99910970840512" lon="12.015309057842055"><ele>430.0</ele><time>2026-04-06T06:18:39Z</time></trkpt><trkpt lat="43.999126614103815" lon="12.015149111911642"><ele>430.0</ele><time>2026-04-06T06:18:41Z</time></trkpt><trkpt lat="43.99911089559045" lon="12.014988754409842"><ele>430.0</ele><time>2026-04-06T06:18:43Z</time></trkpt><trkpt lat="43.99910176074338" lon="12.014890627529383"><ele>430.0</ele><time>2026-04-06T06:18:46Z</time></trkpt><trkpt lat="43.99912942501608" lon="12.014805621814734"><ele>430.0</ele><time>2026-04-06T06:18:48Z</time></trkpt><trkpt lat="43.99916232724701" lon="12.01469526642296"><ele>430.0</ele><time>2026-04-06T06:18:50Z</time></trkpt><trkpt lat="43.999203404858555" lon="12.014538575456127"><ele>435.6666666666667</ele><time>2026-04-06T06:18:52Z</time></trkpt><trkpt lat="43.99922837547018" lon="12.014393446690919"><ele>441.33333333333337</ele><time>2026-04-06T06:18:54Z</time></trkpt><trkpt lat="43.999247628779116" lon="12.014303441769096"><ele>447.0</ele><time>2026-04-06T06:18:55Z</time></trkpt><trkpt lat="43.999254119319886" lon="12.014211005950186"><ele>452.66666666666663</ele><time>2026-04-06T06:18:56Z</time></trkpt><trkpt lat="43.99926737156536" lon="12.014120393374649"><ele>458.3333333333333</ele><time>2026-04-06T06:18:57Z</time></trkpt><trkpt lat="43.999297884108145" lon="12.013974329650484"><ele>464.0</ele><time>2026-04-06T06:18:59Z</time></trkpt><trkpt lat="43.999369583440355" lon="12.013855403815613"><ele>464.0</ele><time>2026-04-06T06:19:01Z</time></trkpt><trkpt lat="43.999468379247524" lon="12.013752219369973"><ele>464.0</ele><time>2026-04-06T06:19:03Z</time></trkpt><trkpt lat="43.99956210270325" lon="12.01368431541593"><ele>464.0</ele><time>2026-04-06T06:19:05Z</time></trkpt><trkpt lat="43.99970162448426" lon="12.01368872351432"><ele>464.0</ele><time>2026-04-06T06:19:07Z</time></trkpt><trkpt lat="43.999793375325396" lon="12.013608467034253"><ele>464.0</ele><time>2026-04-06T06:19:09Z</time></trkpt><trkpt lat="43.9998376246527" lon="12.013535237460935"><ele>464.0</ele><time>2026-04-06T06:19:10Z</time></trkpt><trkpt lat="43.99989996679813" lon="12.01345282350013"><ele>464.0</ele><time>2026-04-06T06:19:12Z</time></trkpt><trkpt lat="43.9999711206567" lon="12.01336173358485"><ele>464.0</ele><time>2026-04-06T06:19:14Z</time></trkpt><trkpt lat="44.00006007949632" lon="12.013231122316489"><ele>464.0</ele><time>2026-04-06T06:19:16Z</time></trkpt><trkpt lat="44.000103969084876" lon="12.013101789597126"><ele>463.8571428571429</ele><time>2026-04-06T06:19:17Z</time></trkpt><trkpt lat="44.00011476058656" lon="12.012985989447303"><ele>463.7142857142857</ele><time>2026-04-06T06:19:18Z</time></trkpt><trkpt lat="44.00013691181914" lon="12.012882203397892"><ele>463.57142857142856</ele><time>2026-04-06T06:19:19Z</time></trkpt><trkpt lat="44.00015802259488" lon="12.012791027645413"><ele>463.42857142857144</ele><time>2026-04-06T06:19:20Z</time></trkpt><trkpt lat="44.00017978173134" lon="12.012702738742428"><ele>463.2857142857142</ele><time>2026-04-06T06:19:21Z</time></trkpt><trkpt lat="44.0002026005556" lon="12.012614376759558"><ele>463.1428571428571</ele><time>2026-04-06T06:19:22Z</time></trkpt><trkpt lat="44.00022648228679" lon="12.01252959718082"><ele>463.0</ele><time>2026-04-06T06:19:23Z</time></trkpt><trkpt lat="44.00027473798063" lon="12.012414650415872"><ele>464.4</ele><time>2026-04-06T06:19:26Z</time></trkpt><trkpt lat="44.00034223640901" lon="12.0122960046358"><ele>465.79999999999995</ele><time>2026-04-06T06:19:28Z</time></trkpt><trkpt lat="44.00036808145679" lon="12.012207223404038"><ele>467.2</ele><time>2026-04-06T06:19:38Z</time></trkpt><trkpt lat="44.000463253112" lon="12.012182664478203"><ele>468.6</ele><time>2026-04-06T06:19:40Z</time></trkpt><trkpt lat="44.00051268923316" lon="12.012299140127316"><ele>470.0</ele><time>2026-04-06T06:19:42Z</time></trkpt><trkpt lat="44.000516780816035" lon="12.012418968363345"><ele>468.8333333333333</ele><time>2026-04-06T06:19:44Z</time></trkpt><trkpt lat="44.000520814287356" lon="12.012596626777562"><ele>467.66666666666663</ele><time>2026-04-06T06:19:46Z</time></trkpt><trkpt lat="44.00051904271361" lon="12.01268608289085"><ele>466.5</ele><time>2026-04-06T06:19:47Z</time></trkpt><trkpt lat="44.00051880266582" lon="12.01278180630892"><ele>465.33333333333337</ele><time>2026-04-06T06:19:48Z</time></trkpt><trkpt lat="44.000495470108554" lon="12.012886097689565"><ele>464.1666666666667</ele><time>2026-04-06T06:19:49Z</time></trkpt><trkpt lat="44.00047103472656" lon="12.012976211008242"><ele>463.0</ele><time>2026-04-06T06:19:50Z</time></trkpt><trkpt lat="44.000462336212" lon="12.013070186951781"><ele>463.00000000000006</ele><time>2026-04-06T06:19:51Z</time></trkpt><trkpt lat="44.0004607429755" lon="12.013161919851383"><ele>463.0</ele><time>2026-04-06T06:19:52Z</time></trkpt><trkpt lat="44.000458063129386" lon="12.01326215640194"><ele>463.0</ele><time>2026-04-06T06:19:53Z</time></trkpt><trkpt lat="44.00049847937407" lon="12.013347548723006"><ele>463.0</ele><time>2026-04-06T06:19:54Z</time></trkpt><trkpt lat="44.000578641905705" lon="12.013445867424323"><ele>463.00000000000006</ele><time>2026-04-06T06:19:56Z</time></trkpt><trkpt lat="44.000680954460044" lon="12.013428536710594"><ele>463.0</ele><time>2026-04-06T06:19:58Z</time></trkpt><trkpt lat="44.000732800591976" lon="12.013364096423802"><ele>463.0</ele><time>2026-04-06T06:19:59Z</time></trkpt><trkpt lat="44.00079417089897" lon="12.013297080776699"><ele>462.99999999999994</ele><time>2026-04-06T06:20:00Z</time></trkpt><trkpt lat="44.00085276294986" lon="12.013240602085704"><ele>462.99999999999994</ele><time>2026-04-06T06:20:01Z</time></trkpt><trkpt lat="44.000912673891335" lon="12.013182852075227"><ele>463.0</ele><time>2026-04-06T06:20:02Z</time></trkpt><trkpt lat="44.00093361550255" lon="12.013002704399657"><ele>463.0</ele><time>2026-04-06T06:20:03Z</time></trkpt><trkpt lat="44.00099961714431" lon="12.012896491059704"><ele>468.59999999999997</ele><time>2026-04-06T06:20:04Z</time></trkpt><trkpt lat="44.00107045434863" lon="12.012782324143423"><ele>474.19999999999993</ele><time>2026-04-06T06:20:05Z</time></trkpt><trkpt lat="44.00112779309155" lon="12.012666684039349"><ele>479.8</ele><time>2026-04-06T06:20:06Z</time></trkpt><trkpt lat="44.00117848466072" lon="12.012553624999201"><ele>485.4</ele><time>2026-04-06T06:20:07Z</time></trkpt><trkpt lat="44.00122421868575" lon="12.012465768737924"><ele>491.0</ele><time>2026-04-06T06:20:08Z</time></trkpt><trkpt lat="44.001275245348076" lon="12.012389165262633"><ele>491.0</ele><time>2026-04-06T06:20:09Z</time></trkpt><trkpt lat="44.00137769476639" lon="12.012376026466821"><ele>491.0</ele><time>2026-04-06T06:20:11Z</time></trkpt><trkpt lat="44.00147531886146" lon="12.01247320685166"><ele>491.0</ele><time>2026-04-06T06:20:13Z</time></trkpt><trkpt lat="44.001557142760795" lon="12.01247000450104"><ele>491.0</ele><time>2026-04-06T06:20:15Z</time></trkpt><trkpt lat="44.00162385933906" lon="12.01233514676115"><ele>491.0</ele><time>2026-04-06T06:20:17Z</time></trkpt><trkpt lat="44.00164476019223" lon="12.012165910041478"><ele>490.99999999999994</ele><time>2026-04-06T06:20:19Z</time></trkpt><trkpt lat="44.00165083232053" lon="12.012068904867233"><ele>491.0</ele><time>2026-04-06T06:20:20Z</time></trkpt><trkpt lat="44.00166823537488" lon="12.011933243439918"><ele>491.0</ele><time>2026-04-06T06:20:21Z</time></trkpt><trkpt lat="44.00167372511531" lon="12.011812033038227"><ele>491.0</ele><time>2026-04-06T06:20:22Z</time></trkpt><trkpt lat="44.00169965142671" lon="12.01171223753904"><ele>490.99999999999994</ele><time>2026-04-06T06:20:23Z</time></trkpt><trkpt lat="44.00174240330801" lon="12.011617654013325"><ele>491.0</ele><time>2026-04-06T06:20:24Z</time></trkpt><trkpt lat="44.001811177894766" lon="12.01152454778603"><ele>498.20000000000005</ele><time>2026-04-06T06:20:25Z</time></trkpt><trkpt lat="44.001897436852936" lon="12.011422443093814"><ele>505.40000000000003</ele><time>2026-04-06T06:20:26Z</time></trkpt><trkpt lat="44.00198616099992" lon="12.011315399268634"><ele>512.6</ele><time>2026-04-06T06:20:27Z</time></trkpt><trkpt lat="44.0020632184172" lon="12.011201519895426"><ele>519.8000000000001</ele><time>2026-04-06T06:20:28Z</time></trkpt><trkpt lat="44.00211902186042" lon="12.011079205521602"><ele>527.0</ele><time>2026-04-06T06:20:29Z</time></trkpt><trkpt lat="44.00217487291836" lon="12.010958703176849"><ele>527.0</ele><time>2026-04-06T06:20:30Z</time></trkpt><trkpt lat="44.00221012549628" lon="12.010833286550149"><ele>527.0</ele><time>2026-04-06T06:20:31Z</time></trkpt><trkpt lat="44.0022202465865" lon="12.01071378147233"><ele>527.0</ele><time>2026-04-06T06:20:32Z</time></trkpt><trkpt lat="44.0022186675214" lon="12.01057469584499"><ele>527.0</ele><time>2026-04-06T06:20:33Z</time></trkpt><trkpt lat="44.002203927355566" lon="12.010436102370441"><ele>527.0</ele><time>2026-04-06T06:20:34Z</time></trkpt><trkpt lat="44.00219009998714" lon="12.010318305727642"><ele>528.6</ele><time>2026-04-06T06:20:35Z</time></trkpt><trkpt lat="44.00218487925577" lon="12.010200080179244"><ele>530.2</ele><time>2026-04-06T06:20:36Z</time></trkpt><trkpt lat="44.00219832046568" lon="12.010068677614859"><ele>531.8</ele><time>2026-04-06T06:20:37Z</time></trkpt><trkpt lat="44.00221272558036" lon="12.009935977855754"><ele>533.4</ele><time>2026-04-06T06:20:38Z</time></trkpt><trkpt lat="44.00223426966459" lon="12.009808204245612"><ele>535.0</ele><time>2026-04-06T06:20:39Z</time></trkpt><trkpt lat="44.00224962032265" lon="12.009700867878307"><ele>537.0</ele><time>2026-04-06T06:20:40Z</time></trkpt><trkpt lat="44.00213967872521" lon="12.00957045475057"><ele>539.0</ele><time>2026-04-06T06:20:42Z</time></trkpt><trkpt lat="44.00208305291541" lon="12.009463190094914"><ele>541.0</ele><time>2026-04-06T06:20:43Z</time></trkpt><trkpt lat="44.002067920746796" lon="12.009338494154159"><ele>543.0</ele><time>2026-04-06T06:20:44Z</time></trkpt><trkpt lat="44.00206491812986" lon="12.009238708613585"><ele>545.0</ele><time>2026-04-06T06:20:46Z</time></trkpt><trkpt lat="44.0021247866549" lon="12.00918874332518"><ele>545.0</ele><time>2026-04-06T06:20:49Z</time></trkpt><trkpt lat="44.00221188735535" lon="12.009197657681282"><ele>545.0</ele><time>2026-04-06T06:20:51Z</time></trkpt><trkpt lat="44.00229802823027" lon="12.009159972418857"><ele>545.0</ele><time>2026-04-06T06:20:53Z</time></trkpt><trkpt lat="44.00236817237816" lon="12.009125792644504"><ele>545.0</ele><time>2026-04-06T06:20:54Z</time></trkpt><trkpt lat="44.00244723651859" lon="12.00909963510101"><ele>545.0</ele><time>2026-04-06T06:20:55Z</time></trkpt><trkpt lat="44.00252614935132" lon="12.009061246952403"><ele>545.0</ele><time>2026-04-06T06:20:56Z</time></trkpt><trkpt lat="44.00260544409717" lon="12.009019025660741"><ele>541.75</ele><time>2026-04-06T06:20:57Z</time></trkpt><trkpt lat="44.002737430536605" lon="12.009045907656834"><ele>538.5</ele><time>2026-04-06T06:20:59Z</time></trkpt><trkpt lat="44.002844631801025" lon="12.009065270754409"><ele>535.25</ele><time>2026-04-06T06:21:01Z</time></trkpt><trkpt lat="44.002910216634554" lon="12.008941053085923"><ele>532.0</ele><time>2026-04-06T06:21:03Z</time></trkpt><trkpt lat="44.00294796943405" lon="12.008799790265186"><ele>532.0</ele><time>2026-04-06T06:21:05Z</time></trkpt><trkpt lat="44.0029807688904" lon="12.008663616218318"><ele>532.0</ele><time>2026-04-06T06:21:06Z</time></trkpt><trkpt lat="44.0030046414404" lon="12.008568037212276"><ele>532.0</ele><time>2026-04-06T06:21:07Z</time></trkpt><trkpt lat="44.003038526097704" lon="12.008475534243702"><ele>532.0</ele><time>2026-04-06T06:21:08Z</time></trkpt><trkpt lat="44.003089507203796" lon="12.00839725303423"><ele>532.0</ele><time>2026-04-06T06:21:09Z</time></trkpt><trkpt lat="44.00311136517933" lon="12.008218977853206"><ele>529.0</ele><time>2026-04-06T06:21:11Z</time></trkpt><trkpt lat="44.003127323419776" lon="12.008108903477071"><ele>526.0</ele><time>2026-04-06T06:21:12Z</time></trkpt><trkpt lat="44.003145619518826" lon="12.008003936415214"><ele>523.0</ele><time>2026-04-06T06:21:13Z</time></trkpt><trkpt lat="44.00315548148054" lon="12.0078895476585"><ele>520.0</ele><time>2026-04-06T06:21:14Z</time></trkpt><trkpt lat="44.003190366650045" lon="12.007741798957861"><ele>517.0</ele><time>2026-04-06T06:21:16Z</time></trkpt><trkpt lat="44.00320425010498" lon="12.007645810708988"><ele>514.0</ele><time>2026-04-06T06:21:17Z</time></trkpt><trkpt lat="44.00323062393991" lon="12.007504495000557"><ele>511.6666666666667</ele><time>2026-04-06T06:21:19Z</time></trkpt><trkpt lat="44.003273779177924" lon="12.007430753699744"><ele>509.33333333333337</ele><time>2026-04-06T06:21:20Z</time></trkpt><trkpt lat="44.00335530995786" lon="12.007408452752072"><ele>507.0</ele><time>2026-04-06T06:21:21Z</time></trkpt><trkpt lat="44.00345599844539" lon="12.007374901676275"><ele>504.66666666666663</ele><time>2026-04-06T06:21:22Z</time></trkpt><trkpt lat="44.003538091235264" lon="12.007327210349827"><ele>502.3333333333333</ele><time>2026-04-06T06:21:23Z</time></trkpt><trkpt lat="44.00359986241463" lon="12.007299833529553"><ele>500.0</ele><time>2026-04-06T06:21:24Z</time></trkpt><trkpt lat="44.003664524880826" lon="12.007296638272559"><ele>499.99999999999994</ele><time>2026-04-06T06:21:25Z</time></trkpt><trkpt lat="44.00372777726896" lon="12.007296149659778"><ele>500.0</ele><time>2026-04-06T06:21:26Z</time></trkpt><trkpt lat="44.00378397911244" lon="12.007231913441975"><ele>500.0</ele><time>2026-04-06T06:21:27Z</time></trkpt><trkpt lat="44.003831163047074" lon="12.007151969736"><ele>500.0</ele><time>2026-04-06T06:21:28Z</time></trkpt><trkpt lat="44.00388695145623" lon="12.007069232682296"><ele>499.99999999999994</ele><time>2026-04-06T06:21:29Z</time></trkpt><trkpt lat="44.00395325096822" lon="12.007000482699853"><ele>500.0</ele><time>2026-04-06T06:21:30Z</time></trkpt><trkpt lat="44.00403631544008" lon="12.006919582048354"><ele>499.99999999999994</ele><time>2026-04-06T06:21:31Z</time></trkpt><trkpt lat="44.00410748556463" lon="12.006826333377713"><ele>500.0</ele><time>2026-04-06T06:21:32Z</time></trkpt><trkpt lat="44.004178763907966" lon="12.00680601400204"><ele>500.0</ele><time>2026-04-06T06:21:33Z</time></trkpt><trkpt lat="44.00425704574301" lon="12.00676691343792"><ele>500.0</ele><time>2026-04-06T06:21:34Z</time></trkpt><trkpt lat="44.00431984310337" lon="12.006743548686732"><ele>499.99999999999994</ele><time>2026-04-06T06:21:35Z</time></trkpt><trkpt lat="44.00438895182929" lon="12.006741445622934"><ele>500.0</ele><time>2026-04-06T06:21:39Z</time></trkpt><trkpt lat="44.00446352662659" lon="12.006782007935305"><ele>501.49999999999994</ele><time>2026-04-06T06:21:48Z</time></trkpt><trkpt lat="44.004543397956056" lon="12.00682520243551"><ele>503.0</ele><time>2026-04-06T06:21:51Z</time></trkpt><trkpt lat="44.004636274992365" lon="12.006803457088706"><ele>504.5</ele><time>2026-04-06T06:21:53Z</time></trkpt><trkpt lat="44.00469927135945" lon="12.006694121805031"><ele>506.0</ele><time>2026-04-06T06:21:55Z</time></trkpt><trkpt lat="44.00468061730325" lon="12.006601762803431"><ele>507.49999999999994</ele><time>2026-04-06T06:21:56Z</time></trkpt><trkpt lat="44.00465459827112" lon="12.00650483795432"><ele>509.0</ele><time>2026-04-06T06:21:57Z</time></trkpt><trkpt lat="44.00462238244451" lon="12.006405893568306"><ele>509.99999999999994</ele><time>2026-04-06T06:21:58Z</time></trkpt><trkpt lat="44.004582802902" lon="12.006324608130535"><ele>511.0</ele><time>2026-04-06T06:21:59Z</time></trkpt><trkpt lat="44.00453650720206" lon="12.00625547751537"><ele>512.0</ele><time>2026-04-06T06:22:00Z</time></trkpt><trkpt lat="44.004463479554985" lon="12.006197785706572"><ele>513.0</ele><time>2026-04-06T06:22:01Z</time></trkpt><trkpt lat="44.004387427338386" lon="12.006151198994013"><ele>514.0</ele><time>2026-04-06T06:22:03Z</time></trkpt><trkpt lat="44.00431839064979" lon="12.006080907568904"><ele>515.0</ele><time>2026-04-06T06:22:07Z</time></trkpt><trkpt lat="44.00418326029856" lon="12.005896661138673"><ele>514.4</ele><time>2026-04-06T06:22:10Z</time></trkpt><trkpt lat="44.00412905997262" lon="12.0057891072066"><ele>513.8</ele><time>2026-04-06T06:22:12Z</time></trkpt><trkpt lat="44.00411934864945" lon="12.005679669898875"><ele>513.2</ele><time>2026-04-06T06:22:14Z</time></trkpt><trkpt lat="44.004127322911955" lon="12.005500956443175"><ele>512.6</ele><time>2026-04-06T06:22:16Z</time></trkpt><trkpt lat="44.004112321004946" lon="12.0053989325608"><ele>512.0</ele><time>2026-04-06T06:22:17Z</time></trkpt><trkpt lat="44.004078440390174" lon="12.005295260791923"><ele>512.0</ele><time>2026-04-06T06:22:18Z</time></trkpt><trkpt lat="44.00402851239173" lon="12.00523104633708"><ele>511.99999999999994</ele><time>2026-04-06T06:22:19Z</time></trkpt><trkpt lat="44.003965184148555" lon="12.005190829542531"><ele>512.0</ele><time>2026-04-06T06:22:20Z</time></trkpt><trkpt lat="44.00389478267203" lon="12.005173821679595"><ele>512.0</ele><time>2026-04-06T06:22:21Z</time></trkpt><trkpt lat="44.0038272633541" lon="12.005181331531206"><ele>511.99999999999994</ele><time>2026-04-06T06:22:22Z</time></trkpt><trkpt lat="44.0037488752239" lon="12.005222763987357"><ele>512.0</ele><time>2026-04-06T06:22:24Z</time></trkpt><trkpt lat="44.00373300368808" lon="12.005137044568897"><ele>512.0</ele><time>2026-04-06T06:22:27Z</time></trkpt><trkpt lat="44.00369905566035" lon="12.00506074333994"><ele>513.8000000000001</ele><time>2026-04-06T06:22:29Z</time></trkpt><trkpt lat="44.00367884104966" lon="12.004939879540867"><ele>515.6</ele><time>2026-04-06T06:22:32Z</time></trkpt><trkpt lat="44.00365362349821" lon="12.004808593653898"><ele>517.4000000000001</ele><time>2026-04-06T06:22:34Z</time></trkpt><trkpt lat="44.00361405309286" lon="12.004736658358555"><ele>519.2</ele><time>2026-04-06T06:22:37Z</time></trkpt><trkpt lat="44.003567536554364" lon="12.004571740684362"><ele>521.0</ele><time>2026-04-06T06:22:40Z</time></trkpt><trkpt lat="44.00356199839454" lon="12.004406591375627"><ele>521.0</ele><time>2026-04-06T06:22:42Z</time></trkpt><trkpt lat="44.00353825150613" lon="12.004234702994786"><ele>521.0</ele><time>2026-04-06T06:22:44Z</time></trkpt><trkpt lat="44.00352111785108" lon="12.004071770739783"><ele>521.0</ele><time>2026-04-06T06:22:46Z</time></trkpt><trkpt lat="44.00351013259972" lon="12.003889565138808"><ele>521.0</ele><time>2026-04-06T06:22:48Z</time></trkpt><trkpt lat="44.00350885926997" lon="12.003782647046112"><ele>521.8333333333333</ele><time>2026-04-06T06:22:49Z</time></trkpt><trkpt lat="44.00351153392995" lon="12.003683056512235"><ele>522.6666666666666</ele><time>2026-04-06T06:22:50Z</time></trkpt><trkpt lat="44.00351134855565" lon="12.003588159556852"><ele>523.5</ele><time>2026-04-06T06:22:51Z</time></trkpt><trkpt lat="44.003505020838546" lon="12.003499852325584"><ele>524.3333333333334</ele><time>2026-04-06T06:22:52Z</time></trkpt><trkpt lat="44.00355344508342" lon="12.003413933965081"><ele>525.1666666666667</ele><time>2026-04-06T06:22:54Z</time></trkpt><trkpt lat="44.00366199951179" lon="12.003440121388564"><ele>526.0</ele><time>2026-04-06T06:22:56Z</time></trkpt><trkpt lat="44.0037541827557" lon="12.00352729397597"><ele>526.0</ele><time>2026-04-06T06:22:58Z</time></trkpt><trkpt lat="44.00386013479368" lon="12.00359158869187"><ele>526.0</ele><time>2026-04-06T06:23:00Z</time></trkpt><trkpt lat="44.003919461911174" lon="12.003654504313706"><ele>526.0</ele><time>2026-04-06T06:23:01Z</time></trkpt><trkpt lat="44.00397596686615" lon="12.003717124750187"><ele>526.0</ele><time>2026-04-06T06:23:02Z</time></trkpt><trkpt lat="44.00403133234898" lon="12.003777249387387"><ele>526.0</ele><time>2026-04-06T06:23:03Z</time></trkpt><trkpt lat="44.00410580128991" lon="12.003843876056333"><ele>526.0</ele><time>2026-04-06T06:23:04Z</time></trkpt><trkpt lat="44.00417741109908" lon="12.00388727775182"><ele>529.25</ele><time>2026-04-06T06:23:05Z</time></trkpt><trkpt lat="44.004267925045575" lon="12.00395238083865"><ele>532.5</ele><time>2026-04-06T06:23:07Z</time></trkpt><trkpt lat="44.004342646446496" lon="12.00397133228782"><ele>535.75</ele><time>2026-04-06T06:23:11Z</time></trkpt><trkpt lat="44.00456848132606" lon="12.004010448394515"><ele>539.0</ele><time>2026-04-06T06:23:14Z</time></trkpt><trkpt lat="44.004670763524345" lon="12.00403656518891"><ele>539.0</ele><time>2026-04-06T06:23:16Z</time></trkpt><trkpt lat="44.00473486783392" lon="12.004021221550989"><ele>539.0</ele><time>2026-04-06T06:23:18Z</time></trkpt><trkpt lat="44.004794057848464" lon="12.003986880275988"><ele>539.0</ele><time>2026-04-06T06:23:24Z</time></trkpt><trkpt lat="44.00488559401168" lon="12.003949292968933"><ele>539.0</ele><time>2026-04-06T06:23:27Z</time></trkpt><trkpt lat="44.00497296949579" lon="12.003910514783934"><ele>539.0</ele><time>2026-04-06T06:23:29Z</time></trkpt><trkpt lat="44.00506015811632" lon="12.0038926545836"><ele>539.0</ele><time>2026-04-06T06:23:31Z</time></trkpt><trkpt lat="44.005143275987976" lon="12.003869902154685"><ele>540.8333333333333</ele><time>2026-04-06T06:23:33Z</time></trkpt><trkpt lat="44.00524123696691" lon="12.003897176977842"><ele>542.6666666666666</ele><time>2026-04-06T06:23:35Z</time></trkpt><trkpt lat="44.005304568143906" lon="12.003926535701622"><ele>544.5</ele><time>2026-04-06T06:23:36Z</time></trkpt><trkpt lat="44.005379792757445" lon="12.004024205105349"><ele>546.3333333333334</ele><time>2026-04-06T06:23:38Z</time></trkpt><trkpt lat="44.00540647988691" lon="12.004108837911327"><ele>548.1666666666667</ele><time>2026-04-06T06:23:39Z</time></trkpt><trkpt lat="44.00544466035219" lon="12.00417988945006"><ele>550.0</ele><time>2026-04-06T06:23:40Z</time></trkpt><trkpt lat="44.00547942721455" lon="12.00426140146296"><ele>554.6</ele><time>2026-04-06T06:23:41Z</time></trkpt><trkpt lat="44.00552230041362" lon="12.004329691560542"><ele>559.2</ele><time>2026-04-06T06:23:42Z</time></trkpt><trkpt lat="44.00557995114068" lon="12.004391553610484"><ele>563.8</ele><time>2026-04-06T06:23:44Z</time></trkpt><trkpt lat="44.00563910964377" lon="12.0045152965974"><ele>568.4</ele><time>2026-04-06T06:23:46Z</time></trkpt><trkpt lat="44.0057085826983" lon="12.004665073163432"><ele>573.0</ele><time>2026-04-06T06:23:48Z</time></trkpt><trkpt lat="44.00574883400141" lon="12.0047565061824"><ele>573.0</ele><time>2026-04-06T06:23:49Z</time></trkpt><trkpt lat="44.00580152197773" lon="12.004899784908572"><ele>573.0</ele><time>2026-04-06T06:23:51Z</time></trkpt><trkpt lat="44.00584756355408" lon="12.004986882176249"><ele>573.0</ele><time>2026-04-06T06:23:52Z</time></trkpt><trkpt lat="44.00589449009615" lon="12.005065266827732"><ele>573.0</ele><time>2026-04-06T06:23:53Z</time></trkpt><trkpt lat="44.005949471986376" lon="12.005117734293759"><ele>573.0</ele><time>2026-04-06T06:23:54Z</time></trkpt><trkpt lat="44.00601114447754" lon="12.005185993502351"><ele>573.0</ele><time>2026-04-06T06:23:55Z</time></trkpt><trkpt lat="44.006072078798404" lon="12.005261633445183"><ele>576.1999999999999</ele><time>2026-04-06T06:23:56Z</time></trkpt><trkpt lat="44.00613468664339" lon="12.005328853014335"><ele>579.4</ele><time>2026-04-06T06:23:57Z</time></trkpt><trkpt lat="44.0061872959505" lon="12.005406372023659"><ele>582.5999999999999</ele><time>2026-04-06T06:23:58Z</time></trkpt><trkpt lat="44.00624641200923" lon="12.00550523040708"><ele>585.8</ele><time>2026-04-06T06:23:59Z</time></trkpt><trkpt lat="44.00631123544028" lon="12.005616308039274"><ele>589.0</ele><time>2026-04-06T06:24:00Z</time></trkpt><trkpt lat="44.00638000316393" lon="12.00571517589435"><ele>589.0</ele><time>2026-04-06T06:24:01Z</time></trkpt><trkpt lat="44.00646342270349" lon="12.005800533739267"><ele>589.0</ele><time>2026-04-06T06:24:02Z</time></trkpt><trkpt lat="44.006544270535144" lon="12.005883843823588"><ele>589.0</ele><time>2026-04-06T06:24:03Z</time></trkpt><trkpt lat="44.006621819098086" lon="12.005978323654674"><ele>589.0</ele><time>2026-04-06T06:24:04Z</time></trkpt><trkpt lat="44.00668746991624" lon="12.00606855634314"><ele>589.0</ele><time>2026-04-06T06:24:05Z</time></trkpt><trkpt lat="44.006737320994716" lon="12.00615626569042"><ele>589.1666666666667</ele><time>2026-04-06T06:24:06Z</time></trkpt><trkpt lat="44.006793942775005" lon="12.006247102192166"><ele>589.3333333333334</ele><time>2026-04-06T06:24:07Z</time></trkpt><trkpt lat="44.0068478362938" lon="12.006348543233715"><ele>589.5</ele><time>2026-04-06T06:24:08Z</time></trkpt><trkpt lat="44.006896527455716" lon="12.0064538586903"><ele>589.6666666666666</ele><time>2026-04-06T06:24:09Z</time></trkpt><trkpt lat="44.00695404365186" lon="12.00653273580121"><ele>589.8333333333333</ele><time>2026-04-06T06:24:10Z</time></trkpt><trkpt lat="44.00702725384006" lon="12.006596606087344"><ele>590.0</ele><time>2026-04-06T06:24:11Z</time></trkpt><trkpt lat="44.00710526464807" lon="12.006672617733967"><ele>590.0</ele><time>2026-04-06T06:24:12Z</time></trkpt><trkpt lat="44.007179901173494" lon="12.006764564664923"><ele>590.0</ele><time>2026-04-06T06:24:13Z</time></trkpt><trkpt lat="44.00724552292435" lon="12.006866467090026"><ele>590.0</ele><time>2026-04-06T06:24:14Z</time></trkpt><trkpt lat="44.00729880392134" lon="12.006961013922705"><ele>590.0</ele><time>2026-04-06T06:24:15Z</time></trkpt><trkpt lat="44.00735104910361" lon="12.007052106807041"><ele>590.0</ele><time>2026-04-06T06:24:16Z</time></trkpt><trkpt lat="44.00739184208699" lon="12.00713540498089"><ele>590.0</ele><time>2026-04-06T06:24:17Z</time></trkpt><trkpt lat="44.00744887523057" lon="12.007271455619296"><ele>590.0</ele><time>2026-04-06T06:24:19Z</time></trkpt><trkpt lat="44.007447421622885" lon="12.007413492452855"><ele>590.0</ele><time>2026-04-06T06:24:21Z</time></trkpt><trkpt lat="44.007445042920274" lon="12.007531133832122"><ele>590.0</ele><time>2026-04-06T06:24:23Z</time></trkpt><trkpt lat="44.00742553855536" lon="12.007641166818505"><ele>590.0</ele><time>2026-04-06T06:24:25Z</time></trkpt><trkpt lat="44.00736273661813" lon="12.007759744569872"><ele>590.0</ele><time>2026-04-06T06:24:43Z</time></trkpt><trkpt lat="44.007357323900166" lon="12.007856119231544"><ele>590.0</ele><time>2026-04-06T06:24:44Z</time></trkpt><trkpt lat="44.00734281104301" lon="12.007958737456432"><ele>589.5714285714287</ele><time>2026-04-06T06:24:45Z</time></trkpt><trkpt lat="44.00730797336799" lon="12.008043139446343"><ele>589.1428571428571</ele><time>2026-04-06T06:24:46Z</time></trkpt><trkpt lat="44.007279918485516" lon="12.008138365595821"><ele>588.7142857142858</ele><time>2026-04-06T06:24:47Z</time></trkpt><trkpt lat="44.007274507015595" lon="12.008227810483715"><ele>588.2857142857143</ele><time>2026-04-06T06:24:48Z</time></trkpt><trkpt lat="44.007278941152244" lon="12.008316298973904"><ele>587.8571428571429</ele><time>2026-04-06T06:24:49Z</time></trkpt><trkpt lat="44.00729220901541" lon="12.008424587858556"><ele>587.4285714285714</ele><time>2026-04-06T06:24:50Z</time></trkpt><trkpt lat="44.007288392358056" lon="12.008537285435253"><ele>587.0</ele><time>2026-04-06T06:24:51Z</time></trkpt><trkpt lat="44.00726040064347" lon="12.008637667743107"><ele>587.0</ele><time>2026-04-06T06:24:52Z</time></trkpt><trkpt lat="44.00720315997694" lon="12.008703989806344"><ele>587.0</ele><time>2026-04-06T06:24:53Z</time></trkpt><trkpt lat="44.00713440883491" lon="12.008753674704133"><ele>587.0</ele><time>2026-04-06T06:24:54Z</time></trkpt><trkpt lat="44.00707106465593" lon="12.008807145730538"><ele>587.0</ele><time>2026-04-06T06:24:55Z</time></trkpt><trkpt lat="44.00707798883658" lon="12.008998347950891"><ele>587.0</ele><time>2026-04-06T06:24:57Z</time></trkpt><trkpt lat="44.00712362430898" lon="12.009113031197906"><ele>587.8000000000001</ele><time>2026-04-06T06:24:58Z</time></trkpt><trkpt lat="44.00717361034951" lon="12.00925290775025"><ele>588.6</ele><time>2026-04-06T06:24:59Z</time></trkpt><trkpt lat="44.007184187545676" lon="12.009379195938799"><ele>589.4000000000001</ele><time>2026-04-06T06:25:00Z</time></trkpt><trkpt lat="44.007153457971945" lon="12.009502492184467"><ele>590.2</ele><time>2026-04-06T06:25:01Z</time></trkpt><trkpt lat="44.007115154948735" lon="12.009629296252342"><ele>591.0</ele><time>2026-04-06T06:25:02Z</time></trkpt><trkpt lat="44.007083921934" lon="12.009748893301921"><ele>591.0</ele><time>2026-04-06T06:25:03Z</time></trkpt><trkpt lat="44.00707513610399" lon="12.009850904300276"><ele>591.0</ele><time>2026-04-06T06:25:04Z</time></trkpt><trkpt lat="44.007096735141225" lon="12.009952068044301"><ele>591.0</ele><time>2026-04-06T06:25:05Z</time></trkpt><trkpt lat="44.007114313491115" lon="12.010061144182476"><ele>591.0</ele><time>2026-04-06T06:25:06Z</time></trkpt><trkpt lat="44.00708225997475" lon="12.01017500132"><ele>591.0</ele><time>2026-04-06T06:25:07Z</time></trkpt><trkpt lat="44.00702422558321" lon="12.010295830391751"><ele>591.0</ele><time>2026-04-06T06:25:08Z</time></trkpt><trkpt lat="44.00697564291576" lon="12.010419235757029"><ele>592.0</ele><time>2026-04-06T06:25:09Z</time></trkpt><trkpt lat="44.00694078454874" lon="12.010525168467732"><ele>593.0</ele><time>2026-04-06T06:25:10Z</time></trkpt><trkpt lat="44.006891733468564" lon="12.010617121993137"><ele>594.0</ele><time>2026-04-06T06:25:11Z</time></trkpt><trkpt lat="44.00683400260605" lon="12.010703977188989"><ele>595.0</ele><time>2026-04-06T06:25:12Z</time></trkpt><trkpt lat="44.00682423593572" lon="12.01081863064499"><ele>596.0</ele><time>2026-04-06T06:25:13Z</time></trkpt><trkpt lat="44.00681540447782" lon="12.01091616685193"><ele>597.0</ele><time>2026-04-06T06:25:14Z</time></trkpt><trkpt lat="44.00672275748681" lon="12.010961621036156"><ele>596.5</ele><time>2026-04-06T06:25:16Z</time></trkpt><trkpt lat="44.006649510618146" lon="12.010970251501414"><ele>596.0</ele><time>2026-04-06T06:25:17Z</time></trkpt><trkpt lat="44.00656633758335" lon="12.010993490283417"><ele>595.5</ele><time>2026-04-06T06:25:18Z</time></trkpt><trkpt lat="44.00650060274249" lon="12.011053616215428"><ele>595.0</ele><time>2026-04-06T06:25:19Z</time></trkpt><trkpt lat="44.00642239952248" lon="12.011128815036562"><ele>594.5</ele><time>2026-04-06T06:25:20Z</time></trkpt><trkpt lat="44.006338042623575" lon="12.011169212493616"><ele>594.0</ele><time>2026-04-06T06:25:21Z</time></trkpt><trkpt lat="44.00623116766" lon="12.011183485392595"><ele>594.0</ele><time>2026-04-06T06:25:22Z</time></trkpt><trkpt lat="44.0061383262895" lon="12.01119274413394"><ele>594.0</ele><time>2026-04-06T06:25:23Z</time></trkpt><trkpt lat="44.00603935380796" lon="12.01119807264242"><ele>594.0</ele><time>2026-04-06T06:25:24Z</time></trkpt><trkpt lat="44.00594432990386" lon="12.011209956421535"><ele>594.0</ele><time>2026-04-06T06:25:25Z</time></trkpt><trkpt lat="44.00585940392557" lon="12.011229749383919"><ele>594.0</ele><time>2026-04-06T06:25:26Z</time></trkpt><trkpt lat="44.005777266203225" lon="12.011220666833257"><ele>593.2</ele><time>2026-04-06T06:25:27Z</time></trkpt><trkpt lat="44.00568806551868" lon="12.011159195528968"><ele>592.4</ele><time>2026-04-06T06:25:28Z</time></trkpt><trkpt lat="44.00559231497957" lon="12.011054805005527"><ele>591.6</ele><time>2026-04-06T06:25:29Z</time></trkpt><trkpt lat="44.005521751559826" lon="12.010952141135993"><ele>590.8</ele><time>2026-04-06T06:25:30Z</time></trkpt><trkpt lat="44.00547357196361" lon="12.01085585549344"><ele>590.0</ele><time>2026-04-06T06:25:31Z</time></trkpt><trkpt lat="44.0054328494289" lon="12.0107682595512"><ele>587.5</ele><time>2026-04-06T06:25:32Z</time></trkpt><trkpt lat="44.005375090268174" lon="12.01071642795245"><ele>585.0</ele><time>2026-04-06T06:25:33Z</time></trkpt><trkpt lat="44.00528305294291" lon="12.010689305017385"><ele>582.5</ele><time>2026-04-06T06:25:34Z</time></trkpt><trkpt lat="44.005208086249596" lon="12.010644866147592"><ele>580.0</ele><time>2026-04-06T06:25:35Z</time></trkpt><trkpt lat="44.00515095311676" lon="12.01056872502654"><ele>577.5</ele><time>2026-04-06T06:25:36Z</time></trkpt><trkpt lat="44.005081447248784" lon="12.010559934785727"><ele>575.0</ele><time>2026-04-06T06:25:37Z</time></trkpt><trkpt lat="44.004987317693164" lon="12.010558013744916"><ele>575.0</ele><time>2026-04-06T06:25:38Z</time></trkpt><trkpt lat="44.004895206795034" lon="12.01053217788702"><ele>575.0</ele><time>2026-04-06T06:25:39Z</time></trkpt><trkpt lat="44.00478324695812" lon="12.010415814968313"><ele>575.0</ele><time>2026-04-06T06:25:41Z</time></trkpt><trkpt lat="44.004725805001634" lon="12.01032032985446"><ele>575.0</ele><time>2026-04-06T06:25:42Z</time></trkpt><trkpt lat="44.004661963018705" lon="12.010217868729193"><ele>575.0</ele><time>2026-04-06T06:25:43Z</time></trkpt><trkpt lat="44.00458949495336" lon="12.010095680007556"><ele>575.0</ele><time>2026-04-06T06:25:44Z</time></trkpt><trkpt lat="44.004528669452625" lon="12.010016845830453"><ele>575.0</ele><time>2026-04-06T06:25:45Z</time></trkpt><trkpt lat="44.00444151035675" lon="12.009976698239093"><ele>575.0</ele><time>2026-04-06T06:25:46Z</time></trkpt><trkpt lat="44.00436916090078" lon="12.009933353663005"><ele>575.0</ele><time>2026-04-06T06:25:47Z</time></trkpt><trkpt lat="44.004296635882135" lon="12.00987236775993"><ele>575.0</ele><time>2026-04-06T06:25:48Z</time></trkpt><trkpt lat="44.004211850116484" lon="12.009823066854853"><ele>575.0</ele><time>2026-04-06T06:25:49Z</time></trkpt><trkpt lat="44.00412157396207" lon="12.009803098595892"><ele>573.1666666666666</ele><time>2026-04-06T06:25:50Z</time></trkpt><trkpt lat="44.00403893784799" lon="12.009806777261925"><ele>571.3333333333333</ele><time>2026-04-06T06:25:51Z</time></trkpt><trkpt lat="44.00395042701601" lon="12.009849789570048"><ele>569.5</ele><time>2026-04-06T06:25:52Z</time></trkpt><trkpt lat="44.00386637623338" lon="12.009908815159898"><ele>567.6666666666666</ele><time>2026-04-06T06:25:53Z</time></trkpt><trkpt lat="44.00378117154968" lon="12.009939194417104"><ele>565.8333333333334</ele><time>2026-04-06T06:25:54Z</time></trkpt><trkpt lat="44.0036967740096" lon="12.009934452918229"><ele>564.0</ele><time>2026-04-06T06:25:55Z</time></trkpt><trkpt lat="44.003608220383974" lon="12.009896614661876"><ele>564.0</ele><time>2026-04-06T06:25:56Z</time></trkpt><trkpt lat="44.003571319280354" lon="12.009820362091176"><ele>564.0</ele><time>2026-04-06T06:25:57Z</time></trkpt><trkpt lat="44.003580477953555" lon="12.009714839889101"><ele>564.0</ele><time>2026-04-06T06:25:58Z</time></trkpt><trkpt lat="44.003586519318475" lon="12.009612174045397"><ele>564.0</ele><time>2026-04-06T06:25:59Z</time></trkpt><trkpt lat="44.003478846900855" lon="12.00946185981632"><ele>564.0</ele><time>2026-04-06T06:26:01Z</time></trkpt><trkpt lat="44.00337076467972" lon="12.00941009779409"><ele>561.8333333333334</ele><time>2026-04-06T06:26:02Z</time></trkpt><trkpt lat="44.003270642717546" lon="12.009363082006645"><ele>559.6666666666666</ele><time>2026-04-06T06:26:03Z</time></trkpt><trkpt lat="44.00318359074781" lon="12.009313708901862"><ele>557.5</ele><time>2026-04-06T06:26:04Z</time></trkpt><trkpt lat="44.003099553302846" lon="12.009296314254346"><ele>555.3333333333333</ele><time>2026-04-06T06:26:05Z</time></trkpt><trkpt lat="44.00302911804852" lon="12.009325115033896"><ele>553.1666666666666</ele><time>2026-04-06T06:26:06Z</time></trkpt><trkpt lat="44.00297246518554" lon="12.009373112067067"><ele>551.0</ele><time>2026-04-06T06:26:07Z</time></trkpt><trkpt lat="44.002897925942655" lon="12.009405579165843"><ele>551.0</ele><time>2026-04-06T06:26:08Z</time></trkpt><trkpt lat="44.002818740671714" lon="12.009382304961987"><ele>551.0</ele><time>2026-04-06T06:26:09Z</time></trkpt><trkpt lat="44.002716943473764" lon="12.0093429155605"><ele>551.0</ele><time>2026-04-06T06:26:10Z</time></trkpt><trkpt lat="44.00263617271531" lon="12.00932868344652"><ele>551.0</ele><time>2026-04-06T06:26:11Z</time></trkpt><trkpt lat="44.00257197750663" lon="12.009319710920199"><ele>551.0</ele><time>2026-04-06T06:26:12Z</time></trkpt><trkpt lat="44.002438493573244" lon="12.009289741490171"><ele>551.0</ele><time>2026-04-06T06:26:14Z</time></trkpt><trkpt lat="44.002348379341264" lon="12.009268195097167"><ele>551.0</ele><time>2026-04-06T06:26:15Z</time></trkpt><trkpt lat="44.002265541735646" lon="12.009240229393095"><ele>551.0</ele><time>2026-04-06T06:26:16Z</time></trkpt><trkpt lat="44.002185288263654" lon="12.009257977912913"><ele>551.0</ele><time>2026-04-06T06:26:17Z</time></trkpt><trkpt lat="44.002121902997075" lon="12.009238022931633"><ele>551.0</ele><time>2026-04-06T06:26:18Z</time></trkpt><trkpt lat="44.002065234267" lon="12.00919204635935"><ele>551.0</ele><time>2026-04-06T06:26:19Z</time></trkpt><trkpt lat="44.00202580570553" lon="12.009093927102176"><ele>551.0</ele><time>2026-04-06T06:26:20Z</time></trkpt><trkpt lat="44.00197267308692" lon="12.008980898105044"><ele>551.0</ele><time>2026-04-06T06:26:21Z</time></trkpt><trkpt lat="44.001877128490214" lon="12.008894735748079"><ele>551.0</ele><time>2026-04-06T06:26:22Z</time></trkpt><trkpt lat="44.00176164553146" lon="12.008867070294947"><ele>551.0</ele><time>2026-04-06T06:26:23Z</time></trkpt><trkpt lat="44.00166363845744" lon="12.00883287588297"><ele>551.0</ele><time>2026-04-06T06:26:24Z</time></trkpt><trkpt lat="44.00156375648177" lon="12.008786872880782"><ele>554.4</ele><time>2026-04-06T06:26:25Z</time></trkpt><trkpt lat="44.00147406666031" lon="12.008720523010243"><ele>557.8</ele><time>2026-04-06T06:26:26Z</time></trkpt><trkpt lat="44.0014199282568" lon="12.008650513520768"><ele>561.1999999999999</ele><time>2026-04-06T06:26:27Z</time></trkpt><trkpt lat="44.00135376606963" lon="12.0085049390953"><ele>564.6</ele><time>2026-04-06T06:26:29Z</time></trkpt><trkpt lat="44.001238600116466" lon="12.008419246713752"><ele>568.0</ele><time>2026-04-06T06:26:31Z</time></trkpt><trkpt lat="44.00116722344155" lon="12.008394015018855"><ele>568.0</ele><time>2026-04-06T06:26:32Z</time></trkpt><trkpt lat="44.00109934543703" lon="12.008350003822468"><ele>568.0</ele><time>2026-04-06T06:26:33Z</time></trkpt><trkpt lat="44.0010238631771" lon="12.00826294110008"><ele>568.0</ele><time>2026-04-06T06:26:34Z</time></trkpt><trkpt lat="44.00095932175414" lon="12.008169365394455"><ele>568.0</ele><time>2026-04-06T06:26:35Z</time></trkpt><trkpt lat="44.00090539206389" lon="12.008063504635164"><ele>568.0</ele><time>2026-04-06T06:26:36Z</time></trkpt><trkpt lat="44.0008655151839" lon="12.00796232849722"><ele>568.0</ele><time>2026-04-06T06:26:37Z</time></trkpt><trkpt lat="44.000825886854784" lon="12.007865675770422"><ele>570.5</ele><time>2026-04-06T06:26:38Z</time></trkpt><trkpt lat="44.0007805467953" lon="12.007791312408777"><ele>573.0</ele><time>2026-04-06T06:26:39Z</time></trkpt><trkpt lat="44.00070850908261" lon="12.00774085205535"><ele>575.5</ele><time>2026-04-06T06:26:40Z</time></trkpt><trkpt lat="44.000638815354726" lon="12.007684580926268"><ele>578.0</ele><time>2026-04-06T06:26:41Z</time></trkpt><trkpt lat="44.00059240648542" lon="12.007599730680313"><ele>580.5</ele><time>2026-04-06T06:26:42Z</time></trkpt><trkpt lat="44.00053337677217" lon="12.00748443868774"><ele>583.0</ele><time>2026-04-06T06:26:43Z</time></trkpt><trkpt lat="44.0004735006544" lon="12.007338663233694"><ele>583.1999999999999</ele><time>2026-04-06T06:26:44Z</time></trkpt><trkpt lat="44.00040022787768" lon="12.007256329572511"><ele>583.4</ele><time>2026-04-06T06:26:45Z</time></trkpt><trkpt lat="44.000303859026964" lon="12.00722837668842"><ele>583.5999999999999</ele><time>2026-04-06T06:26:46Z</time></trkpt><trkpt lat="44.000213035099435" lon="12.007189482510574"><ele>583.8</ele><time>2026-04-06T06:26:47Z</time></trkpt><trkpt lat="44.00012410220351" lon="12.007141553592275"><ele>584.0</ele><time>2026-04-06T06:26:48Z</time></trkpt><trkpt lat="44.0000366476913" lon="12.007061142488833"><ele>584.0</ele><time>2026-04-06T06:26:49Z</time></trkpt><trkpt lat="43.999972749124574" lon="12.00697545672453"><ele>584.0</ele><time>2026-04-06T06:26:50Z</time></trkpt><trkpt lat="43.99992167950102" lon="12.006884700098025"><ele>584.0</ele><time>2026-04-06T06:26:51Z</time></trkpt><trkpt lat="43.99988766081703" lon="12.006762873922268"><ele>584.0</ele><time>2026-04-06T06:26:52Z</time></trkpt><trkpt lat="43.999841139411416" lon="12.006610946499395"><ele>584.0</ele><time>2026-04-06T06:26:53Z</time></trkpt><trkpt lat="43.99980096703405" lon="12.006474668879816"><ele>583.6</ele><time>2026-04-06T06:26:54Z</time></trkpt><trkpt lat="43.999747692083865" lon="12.006359366663979"><ele>583.2</ele><time>2026-04-06T06:26:55Z</time></trkpt><trkpt lat="43.999669645675596" lon="12.006257267633178"><ele>582.8000000000001</ele><time>2026-04-06T06:26:56Z</time></trkpt><trkpt lat="43.99958463674519" lon="12.006139467969275"><ele>582.4</ele><time>2026-04-06T06:26:57Z</time></trkpt><trkpt lat="43.99949356487148" lon="12.00605346433238"><ele>582.0</ele><time>2026-04-06T06:26:58Z</time></trkpt><trkpt lat="43.99938931426767" lon="12.00597778133723"><ele>582.0</ele><time>2026-04-06T06:26:59Z</time></trkpt><trkpt lat="43.99928337861865" lon="12.005922903143292"><ele>582.0</ele><time>2026-04-06T06:27:00Z</time></trkpt><trkpt lat="43.99919633992946" lon="12.005864913473713"><ele>582.0</ele><time>2026-04-06T06:27:01Z</time></trkpt><trkpt lat="43.99912503107334" lon="12.005793290241982"><ele>582.0</ele><time>2026-04-06T06:27:02Z</time></trkpt><trkpt lat="43.99907148806077" lon="12.005704525380697"><ele>582.0</ele><time>2026-04-06T06:27:03Z</time></trkpt><trkpt lat="43.99901345335915" lon="12.00559363341988"><ele>580.4</ele><time>2026-04-06T06:27:04Z</time></trkpt><trkpt lat="43.99894889207733" lon="12.005482870950102"><ele>578.8000000000001</ele><time>2026-04-06T06:27:05Z</time></trkpt><trkpt lat="43.99888406645082" lon="12.005412389690235"><ele>577.2</ele><time>2026-04-06T06:27:06Z</time></trkpt><trkpt lat="43.998806986806215" lon="12.005372585281227"><ele>575.6</ele><time>2026-04-06T06:27:07Z</time></trkpt><trkpt lat="43.99871705360052" lon="12.005346285592447"><ele>574.0</ele><time>2026-04-06T06:27:08Z</time></trkpt><trkpt lat="43.998617436516234" lon="12.005312607773272"><ele>574.0</ele><time>2026-04-06T06:27:09Z</time></trkpt><trkpt lat="43.998508245194444" lon="12.005275408226408"><ele>574.0</ele><time>2026-04-06T06:27:10Z</time></trkpt><trkpt lat="43.998406233081454" lon="12.005241858514651"><ele>574.0</ele><time>2026-04-06T06:27:11Z</time></trkpt><trkpt lat="43.99830094911878" lon="12.005204053944723"><ele>574.0</ele><time>2026-04-06T06:27:12Z</time></trkpt><trkpt lat="43.99818724450895" lon="12.00517587729456"><ele>574.0</ele><time>2026-04-06T06:27:13Z</time></trkpt><trkpt lat="43.99808195057158" lon="12.005135147465216"><ele>574.8</ele><time>2026-04-06T06:27:14Z</time></trkpt><trkpt lat="43.997987479493574" lon="12.005069393155793"><ele>575.5999999999999</ele><time>2026-04-06T06:27:15Z</time></trkpt><trkpt lat="43.99789608033898" lon="12.004996012158644"><ele>576.4</ele><time>2026-04-06T06:27:16Z</time></trkpt><trkpt lat="43.997790507118985" lon="12.00494421195906"><ele>577.1999999999999</ele><time>2026-04-06T06:27:17Z</time></trkpt><trkpt lat="43.99767547688532" lon="12.004908152358158"><ele>578.0</ele><time>2026-04-06T06:27:18Z</time></trkpt><trkpt lat="43.99757868458295" lon="12.00487144833573"><ele>576.1999999999999</ele><time>2026-04-06T06:27:19Z</time></trkpt><trkpt lat="43.997486493887905" lon="12.004815290298323"><ele>574.4</ele><time>2026-04-06T06:27:20Z</time></trkpt><trkpt lat="43.99739115302432" lon="12.00475181510747"><ele>572.5999999999999</ele><time>2026-04-06T06:27:21Z</time></trkpt><trkpt lat="43.997285841596806" lon="12.004696268289509"><ele>570.8</ele><time>2026-04-06T06:27:22Z</time></trkpt><trkpt lat="43.997170159830496" lon="12.004654621388166"><ele>569.0</ele><time>2026-04-06T06:27:23Z</time></trkpt><trkpt lat="43.99705666482195" lon="12.004607985862348"><ele>569.0</ele><time>2026-04-06T06:27:24Z</time></trkpt><trkpt lat="43.99694757923964" lon="12.004545653406414"><ele>569.0</ele><time>2026-04-06T06:27:25Z</time></trkpt><trkpt lat="43.996840896825304" lon="12.004476405717057"><ele>569.0</ele><time>2026-04-06T06:27:26Z</time></trkpt><trkpt lat="43.99673085387635" lon="12.004403178609165"><ele>569.0</ele><time>2026-04-06T06:27:27Z</time></trkpt><trkpt lat="43.9966098277521" lon="12.004349617931368"><ele>568.5</ele><time>2026-04-06T06:27:28Z</time></trkpt><trkpt lat="43.99649238755338" lon="12.004293729663667"><ele>568.0</ele><time>2026-04-06T06:27:29Z</time></trkpt><trkpt lat="43.99637580855797" lon="12.004221415860027"><ele>567.5</ele><time>2026-04-06T06:27:30Z</time></trkpt><trkpt lat="43.996262064008306" lon="12.00413775592333"><ele>567.0</ele><time>2026-04-06T06:27:31Z</time></trkpt><trkpt lat="43.99613944523156" lon="12.004060702752966"><ele>567.0</ele><time>2026-04-06T06:27:32Z</time></trkpt><trkpt lat="43.99601387986646" lon="12.00399273265209"><ele>567.0</ele><time>2026-04-06T06:27:33Z</time></trkpt><trkpt lat="43.995909312486106" lon="12.003909425086555"><ele>567.0</ele><time>2026-04-06T06:27:34Z</time></trkpt><trkpt lat="43.99580585339294" lon="12.003848055195196"><ele>567.0</ele><time>2026-04-06T06:27:35Z</time></trkpt><trkpt lat="43.995698187124866" lon="12.00380573244223"><ele>573.8000000000001</ele><time>2026-04-06T06:27:36Z</time></trkpt><trkpt lat="43.99559893369658" lon="12.003745506670318"><ele>580.6</ele><time>2026-04-06T06:27:37Z</time></trkpt><trkpt lat="43.995497765037214" lon="12.003689108024137"><ele>587.4000000000001</ele><time>2026-04-06T06:27:38Z</time></trkpt><trkpt lat="43.99539875705684" lon="12.003637572841015"><ele>594.2</ele><time>2026-04-06T06:27:39Z</time></trkpt><trkpt lat="43.99528878592963" lon="12.003594228581264"><ele>601.0</ele><time>2026-04-06T06:27:40Z</time></trkpt><trkpt lat="43.99518232129893" lon="12.003589371351953"><ele>601.0</ele><time>2026-04-06T06:27:41Z</time></trkpt><trkpt lat="43.995077265508215" lon="12.003618506144624"><ele>601.0</ele><time>2026-04-06T06:27:42Z</time></trkpt><trkpt lat="43.99497893478429" lon="12.003669970991638"><ele>601.0</ele><time>2026-04-06T06:27:43Z</time></trkpt><trkpt lat="43.994897211005316" lon="12.003670561554946"><ele>601.0</ele><time>2026-04-06T06:27:44Z</time></trkpt><trkpt lat="43.99482166364917" lon="12.003678443293037"><ele>601.0</ele><time>2026-04-06T06:27:45Z</time></trkpt><trkpt lat="43.99475422060968" lon="12.00359036638421"><ele>606.6</ele><time>2026-04-06T06:27:46Z</time></trkpt><trkpt lat="43.99466783842444" lon="12.003535349387551"><ele>612.2</ele><time>2026-04-06T06:27:47Z</time></trkpt><trkpt lat="43.99459063715944" lon="12.00343622519713"><ele>617.8</ele><time>2026-04-06T06:27:48Z</time></trkpt><trkpt lat="43.994498232670146" lon="12.003400585722344"><ele>623.4</ele><time>2026-04-06T06:27:49Z</time></trkpt><trkpt lat="43.99441595602532" lon="12.003393568991703"><ele>629.0</ele><time>2026-04-06T06:27:50Z</time></trkpt><trkpt lat="43.994338358021146" lon="12.003435847422786"><ele>629.0</ele><time>2026-04-06T06:27:51Z</time></trkpt><trkpt lat="43.994249311486215" lon="12.003457829166546"><ele>629.0</ele><time>2026-04-06T06:27:52Z</time></trkpt><trkpt lat="43.99413729613078" lon="12.003477363964933"><ele>629.0</ele><time>2026-04-06T06:27:53Z</time></trkpt><trkpt lat="43.99401275144465" lon="12.0035525525833"><ele>629.0</ele><time>2026-04-06T06:27:54Z</time></trkpt><trkpt lat="43.993906184913065" lon="12.003587077864038"><ele>629.0</ele><time>2026-04-06T06:27:55Z</time></trkpt><trkpt lat="43.99380684563352" lon="12.003580819440236"><ele>630.6</ele><time>2026-04-06T06:27:57Z</time></trkpt><trkpt lat="43.993752782566276" lon="12.003470414490012"><ele>632.2</ele><time>2026-04-06T06:27:59Z</time></trkpt><trkpt lat="43.9936704519601" lon="12.003408063335854"><ele>633.8000000000001</ele><time>2026-04-06T06:28:00Z</time></trkpt><trkpt lat="43.99358450112808" lon="12.003337017967684"><ele>635.4</ele><time>2026-04-06T06:28:01Z</time></trkpt><trkpt lat="43.993481256795256" lon="12.003295571965912"><ele>637.0</ele><time>2026-04-06T06:28:02Z</time></trkpt><trkpt lat="43.99337933772592" lon="12.003259338416157"><ele>639.4000000000001</ele><time>2026-04-06T06:28:03Z</time></trkpt><trkpt lat="43.993300448679896" lon="12.00319834091856"><ele>641.8000000000001</ele><time>2026-04-06T06:28:04Z</time></trkpt><trkpt lat="43.99323376739625" lon="12.003124626293715"><ele>644.2</ele><time>2026-04-06T06:28:05Z</time></trkpt><trkpt lat="43.99318354148787" lon="12.003005341497497"><ele>646.6</ele><time>2026-04-06T06:28:06Z</time></trkpt><trkpt lat="43.99312292126148" lon="12.002868297463305"><ele>649.0</ele><time>2026-04-06T06:28:07Z</time></trkpt><trkpt lat="43.99304980917491" lon="12.002741688298102"><ele>649.0</ele><time>2026-04-06T06:28:08Z</time></trkpt><trkpt lat="43.99298833457755" lon="12.002598364556688"><ele>649.0</ele><time>2026-04-06T06:28:09Z</time></trkpt><trkpt lat="43.992921427546555" lon="12.002463618412316"><ele>649.0</ele><time>2026-04-06T06:28:10Z</time></trkpt><trkpt lat="43.99285589741704" lon="12.002336669663325"><ele>649.0</ele><time>2026-04-06T06:28:11Z</time></trkpt><trkpt lat="43.992747842160874" lon="12.00226301311441"><ele>646.75</ele><time>2026-04-06T06:28:12Z</time></trkpt><trkpt lat="43.9926475334875" lon="12.002172863109989"><ele>644.5</ele><time>2026-04-06T06:28:13Z</time></trkpt><trkpt lat="43.99254439439622" lon="12.0020768262102"><ele>642.25</ele><time>2026-04-06T06:28:14Z</time></trkpt><trkpt lat="43.992464668914295" lon="12.001960230248471"><ele>640.0</ele><time>2026-04-06T06:28:15Z</time></trkpt><trkpt lat="43.99237862154101" lon="12.00184022442614"><ele>640.0</ele><time>2026-04-06T06:28:16Z</time></trkpt><trkpt lat="43.99227846016558" lon="12.001752084961177"><ele>640.0</ele><time>2026-04-06T06:28:17Z</time></trkpt><trkpt lat="43.992185701864194" lon="12.001664468292772"><ele>640.0</ele><time>2026-04-06T06:28:18Z</time></trkpt><trkpt lat="43.99208655395212" lon="12.001608273174387"><ele>640.0</ele><time>2026-04-06T06:28:19Z</time></trkpt><trkpt lat="43.99202860345871" lon="12.001539327020827"><ele>640.0</ele><time>2026-04-06T06:28:20Z</time></trkpt><trkpt lat="43.99200269786028" lon="12.001450207655358"><ele>639.4</ele><time>2026-04-06T06:28:22Z</time></trkpt><trkpt lat="43.992088574554856" lon="12.001455832095408"><ele>638.8</ele><time>2026-04-06T06:28:23Z</time></trkpt><trkpt lat="43.992007180109816" lon="12.00136901147375"><ele>638.2</ele><time>2026-04-06T06:28:47Z</time></trkpt><trkpt lat="43.99195950825461" lon="12.001301101742673"><ele>637.6</ele><time>2026-04-06T06:28:48Z</time></trkpt><trkpt lat="43.991886281830936" lon="12.001211957612266"><ele>637.0</ele><time>2026-04-06T06:28:49Z</time></trkpt><trkpt lat="43.99181894927074" lon="12.001117110573167"><ele>637.0</ele><time>2026-04-06T06:28:50Z</time></trkpt><trkpt lat="43.991758397466015" lon="12.000996106783518"><ele>637.0</ele><time>2026-04-06T06:28:51Z</time></trkpt><trkpt lat="43.9916936112187" lon="12.00089753705964"><ele>637.0</ele><time>2026-04-06T06:28:52Z</time></trkpt><trkpt lat="43.99161171624998" lon="12.000818955187189"><ele>637.0</ele><time>2026-04-06T06:28:53Z</time></trkpt><trkpt lat="43.9915490168551" lon="12.000734388296335"><ele>637.0</ele><time>2026-04-06T06:28:54Z</time></trkpt><trkpt lat="43.99143628623832" lon="12.000705255602465"><ele>632.0</ele><time>2026-04-06T06:28:55Z</time></trkpt><trkpt lat="43.991330668800785" lon="12.000659607256411"><ele>627.0</ele><time>2026-04-06T06:28:56Z</time></trkpt><trkpt lat="43.991226793156954" lon="12.000609353274932"><ele>622.0</ele><time>2026-04-06T06:28:57Z</time></trkpt><trkpt lat="43.99112884257684" lon="12.000552375362478"><ele>617.0</ele><time>2026-04-06T06:28:58Z</time></trkpt><trkpt lat="43.991057548826646" lon="12.000451078516875"><ele>612.0</ele><time>2026-04-06T06:28:59Z</time></trkpt><trkpt lat="43.99099343154451" lon="12.00034105255355"><ele>612.0</ele><time>2026-04-06T06:29:00Z</time></trkpt><trkpt lat="43.99091875798409" lon="12.000208152752593"><ele>612.0</ele><time>2026-04-06T06:29:01Z</time></trkpt><trkpt lat="43.99084106800457" lon="12.000094211568332"><ele>612.0</ele><time>2026-04-06T06:29:02Z</time></trkpt><trkpt lat="43.990759399636566" lon="11.999993847843735"><ele>612.0</ele><time>2026-04-06T06:29:03Z</time></trkpt><trkpt lat="43.990673217484265" lon="11.999895130720137"><ele>614.0</ele><time>2026-04-06T06:29:04Z</time></trkpt><trkpt lat="43.9905772838191" lon="11.9998096604646"><ele>616.0</ele><time>2026-04-06T06:29:05Z</time></trkpt><trkpt lat="43.99048538903444" lon="11.999694606369761"><ele>618.0</ele><time>2026-04-06T06:29:06Z</time></trkpt><trkpt lat="43.99039453690281" lon="11.999581544839819"><ele>620.0</ele><time>2026-04-06T06:29:07Z</time></trkpt><trkpt lat="43.99030267357382" lon="11.99948408816098"><ele>620.0</ele><time>2026-04-06T06:29:08Z</time></trkpt><trkpt lat="43.9902167620754" lon="11.999375019301738"><ele>620.0</ele><time>2026-04-06T06:29:09Z</time></trkpt><trkpt lat="43.99011275454926" lon="11.999312278022481"><ele>620.0</ele><time>2026-04-06T06:29:10Z</time></trkpt><trkpt lat="43.99001807736033" lon="11.999234412747647"><ele>620.0</ele><time>2026-04-06T06:29:11Z</time></trkpt><trkpt lat="43.98991187774987" lon="11.999185951512446"><ele>617.0</ele><time>2026-04-06T06:29:12Z</time></trkpt><trkpt lat="43.989816819638726" lon="11.99911526343331"><ele>614.0</ele><time>2026-04-06T06:29:13Z</time></trkpt><trkpt lat="43.989710838602825" lon="11.999052361523354"><ele>611.0</ele><time>2026-04-06T06:29:14Z</time></trkpt><trkpt lat="43.989602987888624" lon="11.999012710664942"><ele>608.0</ele><time>2026-04-06T06:29:15Z</time></trkpt><trkpt lat="43.989508521071244" lon="11.998924797538566"><ele>605.0</ele><time>2026-04-06T06:29:16Z</time></trkpt><trkpt lat="43.98941521244384" lon="11.998828579229267"><ele>605.0</ele><time>2026-04-06T06:29:17Z</time></trkpt><trkpt lat="43.989319336863" lon="11.99872381838459"><ele>605.0</ele><time>2026-04-06T06:29:18Z</time></trkpt><trkpt lat="43.98921643754395" lon="11.99862217312711"><ele>605.0</ele><time>2026-04-06T06:29:19Z</time></trkpt><trkpt lat="43.98912024468847" lon="11.998510260536364"><ele>605.0</ele><time>2026-04-06T06:29:20Z</time></trkpt><trkpt lat="43.98903925228397" lon="11.998402163812925"><ele>607.75</ele><time>2026-04-06T06:29:21Z</time></trkpt><trkpt lat="43.98900331050594" lon="11.998275161227905"><ele>610.5</ele><time>2026-04-06T06:29:22Z</time></trkpt><trkpt lat="43.98896059447739" lon="11.998128042790334"><ele>613.25</ele><time>2026-04-06T06:29:23Z</time></trkpt><trkpt lat="43.988906567020784" lon="11.997979719257897"><ele>616.0</ele><time>2026-04-06T06:29:24Z</time></trkpt><trkpt lat="43.98885473631427" lon="11.997828191963519"><ele>616.0</ele><time>2026-04-06T06:29:25Z</time></trkpt><trkpt lat="43.98880105049584" lon="11.997681087388804"><ele>616.0</ele><time>2026-04-06T06:29:26Z</time></trkpt><trkpt lat="43.988717136967296" lon="11.997548495577751"><ele>616.0</ele><time>2026-04-06T06:29:27Z</time></trkpt><trkpt lat="43.988629742494155" lon="11.997442000625066"><ele>616.0</ele><time>2026-04-06T06:29:28Z</time></trkpt><trkpt lat="43.988560975800056" lon="11.99731759337565"><ele>618.25</ele><time>2026-04-06T06:29:29Z</time></trkpt><trkpt lat="43.988501071472896" lon="11.997180693037068"><ele>620.5</ele><time>2026-04-06T06:29:30Z</time></trkpt><trkpt lat="43.988444208285415" lon="11.997041046531507"><ele>622.75</ele><time>2026-04-06T06:29:31Z</time></trkpt><trkpt lat="43.98837119080696" lon="11.996912098070899"><ele>625.0</ele><time>2026-04-06T06:29:32Z</time></trkpt><trkpt lat="43.9882983436401" lon="11.99678846803229"><ele>621.2</ele><time>2026-04-06T06:29:33Z</time></trkpt><trkpt lat="43.98823272966182" lon="11.996698877524395"><ele>617.4</ele><time>2026-04-06T06:29:34Z</time></trkpt><trkpt lat="43.988172741448544" lon="11.996633216226552"><ele>613.6</ele><time>2026-04-06T06:29:35Z</time></trkpt><trkpt lat="43.98810407140234" lon="11.996591833751351"><ele>609.8</ele><time>2026-04-06T06:29:36Z</time></trkpt><trkpt lat="43.9880103401157" lon="11.996535276641628"><ele>606.0</ele><time>2026-04-06T06:29:37Z</time></trkpt><trkpt lat="43.98789986204668" lon="11.99644319615768"><ele>606.0</ele><time>2026-04-06T06:29:38Z</time></trkpt><trkpt lat="43.987808359579965" lon="11.996344557972382"><ele>606.0</ele><time>2026-04-06T06:29:39Z</time></trkpt><trkpt lat="43.98770909731701" lon="11.996234494104776"><ele>606.0</ele><time>2026-04-06T06:29:40Z</time></trkpt><trkpt lat="43.98762264144776" lon="11.99615079007441"><ele>606.0</ele><time>2026-04-06T06:29:41Z</time></trkpt><trkpt lat="43.98754543619763" lon="11.996079094728266"><ele>606.0</ele><time>2026-04-06T06:29:42Z</time></trkpt><trkpt lat="43.98747630184665" lon="11.996020334154146"><ele>604.4</ele><time>2026-04-06T06:29:43Z</time></trkpt><trkpt lat="43.98739679697462" lon="11.995954504322246"><ele>602.8</ele><time>2026-04-06T06:29:44Z</time></trkpt><trkpt lat="43.98731764465224" lon="11.995895006288867"><ele>601.1999999999999</ele><time>2026-04-06T06:29:45Z</time></trkpt><trkpt lat="43.98723819406023" lon="11.995836791849474"><ele>599.6</ele><time>2026-04-06T06:29:46Z</time></trkpt><trkpt lat="43.987174923490116" lon="11.995790432704785"><ele>598.0</ele><time>2026-04-06T06:29:47Z</time></trkpt><trkpt lat="43.987287466540494" lon="11.995277538404698"><ele>598.0</ele><time>2026-04-06T06:29:48Z</time></trkpt><trkpt lat="43.98724382705523" lon="11.995166478427414"><ele>598.0</ele><time>2026-04-06T06:29:49Z</time></trkpt><trkpt lat="43.98717307362607" lon="11.995081687964953"><ele>598.0</ele><time>2026-04-06T06:29:50Z</time></trkpt><trkpt lat="43.98710117311615" lon="11.994997585531864"><ele>598.0</ele><time>2026-04-06T06:29:51Z</time></trkpt><trkpt lat="43.98703061011207" lon="11.994916209964847"><ele>598.0</ele><time>2026-04-06T06:29:52Z</time></trkpt><trkpt lat="43.986955443629355" lon="11.994847577872205"><ele>599.4</ele><time>2026-04-06T06:29:53Z</time></trkpt><trkpt lat="43.986882268055275" lon="11.994777656715893"><ele>600.8</ele><time>2026-04-06T06:29:54Z</time></trkpt><trkpt lat="43.98680527797981" lon="11.99470449253281"><ele>602.2</ele><time>2026-04-06T06:29:55Z</time></trkpt><trkpt lat="43.98672055782156" lon="11.994617790279616"><ele>603.6</ele><time>2026-04-06T06:29:56Z</time></trkpt><trkpt lat="43.986651517554094" lon="11.994522584289879"><ele>605.0</ele><time>2026-04-06T06:29:57Z</time></trkpt><trkpt lat="43.98658127713584" lon="11.994444659440314"><ele>606.3333333333333</ele><time>2026-04-06T06:29:58Z</time></trkpt><trkpt lat="43.98651151261913" lon="11.99437243385085"><ele>607.6666666666666</ele><time>2026-04-06T06:29:59Z</time></trkpt><trkpt lat="43.98645707215742" lon="11.994284216289385"><ele>609.0</ele><time>2026-04-06T06:30:00Z</time></trkpt><trkpt lat="43.986389314073094" lon="11.994216167327501"><ele>610.3333333333334</ele><time>2026-04-06T06:30:01Z</time></trkpt><trkpt lat="43.98630935263529" lon="11.994182432288937"><ele>611.6666666666667</ele><time>2026-04-06T06:30:02Z</time></trkpt><trkpt lat="43.9862316690118" lon="11.9941560771383"><ele>613.0</ele><time>2026-04-06T06:30:03Z</time></trkpt><trkpt lat="43.98618419773144" lon="11.994082559214927"><ele>617.8</ele><time>2026-04-06T06:30:04Z</time></trkpt><trkpt lat="43.986210283071415" lon="11.993924034081942"><ele>622.5999999999999</ele><time>2026-04-06T06:30:06Z</time></trkpt><trkpt lat="43.98620925472006" lon="11.993759396026674"><ele>627.4000000000001</ele><time>2026-04-06T06:30:08Z</time></trkpt><trkpt lat="43.98617001129292" lon="11.99366244825978"><ele>632.2</ele><time>2026-04-06T06:30:09Z</time></trkpt><trkpt lat="43.9861341152003" lon="11.993544490440195"><ele>637.0</ele><time>2026-04-06T06:30:10Z</time></trkpt><trkpt lat="43.98609275202234" lon="11.993430997518413"><ele>638.3333333333334</ele><time>2026-04-06T06:30:11Z</time></trkpt><trkpt lat="43.986051193559945" lon="11.993326043913816"><ele>639.6666666666667</ele><time>2026-04-06T06:30:12Z</time></trkpt><trkpt lat="43.9860044035337" lon="11.993215793558493"><ele>641.0</ele><time>2026-04-06T06:30:13Z</time></trkpt><trkpt lat="43.98596384315708" lon="11.993106288081446"><ele>642.3333333333334</ele><time>2026-04-06T06:30:14Z</time></trkpt><trkpt lat="43.98591544504993" lon="11.99302156522154"><ele>643.6666666666666</ele><time>2026-04-06T06:30:15Z</time></trkpt><trkpt lat="43.985860033425006" lon="11.99293055482841"><ele>645.0</ele><time>2026-04-06T06:30:16Z</time></trkpt><trkpt lat="43.98579405604461" lon="11.992847322761165"><ele>645.0</ele><time>2026-04-06T06:30:17Z</time></trkpt><trkpt lat="43.985725142000405" lon="11.99277631859474"><ele>645.0</ele><time>2026-04-06T06:30:18Z</time></trkpt><trkpt lat="43.98563597978465" lon="11.992762735204582"><ele>645.0</ele><time>2026-04-06T06:30:19Z</time></trkpt><trkpt lat="43.985543488572695" lon="11.992746411354645"><ele>645.0</ele><time>2026-04-06T06:30:20Z</time></trkpt><trkpt lat="43.98546484887028" lon="11.992704201056451"><ele>645.0</ele><time>2026-04-06T06:30:21Z</time></trkpt><trkpt lat="43.98539268045245" lon="11.992639037990038"><ele>645.0</ele><time>2026-04-06T06:30:22Z</time></trkpt><trkpt lat="43.98531272617898" lon="11.992546098192278"><ele>647.0</ele><time>2026-04-06T06:30:23Z</time></trkpt><trkpt lat="43.98524081551085" lon="11.992459970980489"><ele>649.0</ele><time>2026-04-06T06:30:24Z</time></trkpt><trkpt lat="43.98517142520648" lon="11.992373524708901"><ele>651.0</ele><time>2026-04-06T06:30:25Z</time></trkpt><trkpt lat="43.98509177490024" lon="11.992295493744232"><ele>653.0</ele><time>2026-04-06T06:30:26Z</time></trkpt><trkpt lat="43.98499713460208" lon="11.992236124793978"><ele>655.0</ele><time>2026-04-06T06:30:27Z</time></trkpt><trkpt lat="43.98489374443879" lon="11.992156494624014"><ele>655.8</ele><time>2026-04-06T06:30:28Z</time></trkpt><trkpt lat="43.9847805685365" lon="11.992109244664968"><ele>656.6</ele><time>2026-04-06T06:30:29Z</time></trkpt><trkpt lat="43.98466933772446" lon="11.992085429712525"><ele>657.4000000000001</ele><time>2026-04-06T06:30:30Z</time></trkpt><trkpt lat="43.98457143756862" lon="11.992061576240966"><ele>658.2</ele><time>2026-04-06T06:30:31Z</time></trkpt><trkpt lat="43.98449400574165" lon="11.992025431246365"><ele>659.0</ele><time>2026-04-06T06:30:32Z</time></trkpt><trkpt lat="43.98444576971882" lon="11.991967767234252"><ele>659.0</ele><time>2026-04-06T06:30:33Z</time></trkpt><trkpt lat="43.98438996627474" lon="11.991899612650325"><ele>659.0</ele><time>2026-04-06T06:30:34Z</time></trkpt><trkpt lat="43.98433935089715" lon="11.991831442311186"><ele>659.0</ele><time>2026-04-06T06:30:35Z</time></trkpt><trkpt lat="43.98425541364897" lon="11.991746164349047"><ele>659.0</ele><time>2026-04-06T06:30:37Z</time></trkpt><trkpt lat="43.9841360992179" lon="11.991687532953478"><ele>659.0</ele><time>2026-04-06T06:30:39Z</time></trkpt><trkpt lat="43.984061966088554" lon="11.991641449187526"><ele>662.0</ele><time>2026-04-06T06:30:40Z</time></trkpt><trkpt lat="43.98398499594034" lon="11.991565078683696"><ele>665.0</ele><time>2026-04-06T06:30:41Z</time></trkpt><trkpt lat="43.983918936652515" lon="11.991485350205782"><ele>668.0</ele><time>2026-04-06T06:30:42Z</time></trkpt><trkpt lat="43.98384966331342" lon="11.991384889307463"><ele>671.0</ele><time>2026-04-06T06:30:43Z</time></trkpt><trkpt lat="43.98377908681701" lon="11.991284741072523"><ele>674.0</ele><time>2026-04-06T06:30:44Z</time></trkpt><trkpt lat="43.98371001503439" lon="11.991194299697609"><ele>674.0000000000001</ele><time>2026-04-06T06:30:45Z</time></trkpt><trkpt lat="43.98364927871482" lon="11.991110492847143"><ele>674.0</ele><time>2026-04-06T06:30:46Z</time></trkpt><trkpt lat="43.98361194920264" lon="11.991029521991983"><ele>674.0</ele><time>2026-04-06T06:30:47Z</time></trkpt><trkpt lat="43.98358676932174" lon="11.990949011961852"><ele>674.0</ele><time>2026-04-06T06:30:48Z</time></trkpt><trkpt lat="43.98356388032222" lon="11.990851877090952"><ele>674.0</ele><time>2026-04-06T06:30:49Z</time></trkpt><trkpt lat="43.983529145891616" lon="11.990748474688033"><ele>674.0000000000001</ele><time>2026-04-06T06:30:50Z</time></trkpt><trkpt lat="43.98349993677748" lon="11.990652770241189"><ele>674.0</ele><time>2026-04-06T06:30:51Z</time></trkpt><trkpt lat="43.98349740638809" lon="11.990480094299734"><ele>672.8333333333333</ele><time>2026-04-06T06:30:53Z</time></trkpt><trkpt lat="43.98349841069487" lon="11.990366914526097"><ele>671.6666666666666</ele><time>2026-04-06T06:30:54Z</time></trkpt><trkpt lat="43.983502333359745" lon="11.990266926398817"><ele>670.5</ele><time>2026-04-06T06:30:55Z</time></trkpt><trkpt lat="43.983494813093" lon="11.990107844078803"><ele>669.3333333333334</ele><time>2026-04-06T06:30:57Z</time></trkpt><trkpt lat="43.98353198941771" lon="11.98999476482831"><ele>668.1666666666667</ele><time>2026-04-06T06:30:59Z</time></trkpt><trkpt lat="43.98359938082531" lon="11.989933366546792"><ele>667.0</ele><time>2026-04-06T06:31:01Z</time></trkpt><trkpt lat="43.98360975742146" lon="11.989834740524577"><ele>667.0</ele><time>2026-04-06T06:31:04Z</time></trkpt><trkpt lat="43.98370278279213" lon="11.989674120179592"><ele>667.0</ele><time>2026-04-06T06:31:05Z</time></trkpt><trkpt lat="43.98373335278403" lon="11.989541386756127"><ele>667.0</ele><time>2026-04-06T06:31:07Z</time></trkpt><trkpt lat="43.98372606986728" lon="11.98941080541379"><ele>667.0</ele><time>2026-04-06T06:31:09Z</time></trkpt><trkpt lat="43.98371872862997" lon="11.989294245096165"><ele>667.0</ele><time>2026-04-06T06:31:11Z</time></trkpt><trkpt lat="43.98369833509895" lon="11.98916710737918"><ele>669.5714285714287</ele><time>2026-04-06T06:31:13Z</time></trkpt><trkpt lat="43.9836715848757" lon="11.989039284756219"><ele>672.1428571428571</ele><time>2026-04-06T06:31:15Z</time></trkpt><trkpt lat="43.98364244548493" lon="11.988956640211113"><ele>674.7142857142858</ele><time>2026-04-06T06:31:17Z</time></trkpt><trkpt lat="43.98358249884163" lon="11.98888591262548"><ele>677.2857142857143</ele><time>2026-04-06T06:31:19Z</time></trkpt><trkpt lat="43.98352389231421" lon="11.98882216625894"><ele>679.8571428571429</ele><time>2026-04-06T06:31:21Z</time></trkpt><trkpt lat="43.9834699555583" lon="11.988768783536745"><ele>682.4285714285714</ele><time>2026-04-06T06:31:23Z</time></trkpt><trkpt lat="43.98342864088375" lon="11.988695117093968"><ele>685.0</ele><time>2026-04-06T06:31:24Z</time></trkpt><trkpt lat="43.9833361911193" lon="11.988634667544554"><ele>687.8333333333334</ele><time>2026-04-06T06:31:28Z</time></trkpt><trkpt lat="43.983268481367716" lon="11.98856881068537"><ele>690.6666666666667</ele><time>2026-04-06T06:31:30Z</time></trkpt><trkpt lat="43.98318596700933" lon="11.988528634092626"><ele>693.5</ele><time>2026-04-06T06:31:33Z</time></trkpt><trkpt lat="43.98314861226225" lon="11.988453011454334"><ele>696.3333333333334</ele><time>2026-04-06T06:31:35Z</time></trkpt><trkpt lat="43.98308732638913" lon="11.98842554696322"><ele>699.1666666666666</ele><time>2026-04-06T06:31:39Z</time></trkpt><trkpt lat="43.98300983398132" lon="11.988426675744133"><ele>702.0</ele><time>2026-04-06T06:31:43Z</time></trkpt><trkpt lat="43.98294182532519" lon="11.988375169033834"><ele>702.0000000000001</ele><time>2026-04-06T06:31:47Z</time></trkpt><trkpt lat="43.98286931967147" lon="11.988342907094157"><ele>702.0</ele><time>2026-04-06T06:31:51Z</time></trkpt><trkpt lat="43.982805298759416" lon="11.98831137613111"><ele>702.0</ele><time>2026-04-06T06:31:55Z</time></trkpt><trkpt lat="43.98273870912958" lon="11.98829071130888"><ele>702.0</ele><time>2026-04-06T06:31:58Z</time></trkpt><trkpt lat="43.982673528046185" lon="11.988293127005365"><ele>702.0</ele><time>2026-04-06T06:32:00Z</time></trkpt><trkpt lat="43.9826093708713" lon="11.98830818232623"><ele>702.0000000000001</ele><time>2026-04-06T06:32:09Z</time></trkpt><trkpt lat="43.9825653443149" lon="11.988374978147595"><ele>702.0</ele><time>2026-04-06T06:32:24Z</time></trkpt><trkpt lat="43.982502068452035" lon="11.988363280654415"><ele>704.0000000000001</ele><time>2026-04-06T06:32:37Z</time></trkpt><trkpt lat="43.9824299723046" lon="11.988308410387901"><ele>706.0</ele><time>2026-04-06T06:32:43Z</time></trkpt><trkpt lat="43.98235656160553" lon="11.988317279151497"><ele>708.0</ele><time>2026-04-06T06:32:49Z</time></trkpt><trkpt lat="43.98231189812004" lon="11.988247457990933"><ele>710.0</ele><time>2026-04-06T06:33:57Z</time></trkpt><trkpt lat="43.98224757545042" lon="11.98822892832286"><ele>712.0</ele><time>2026-04-06T06:36:23Z</time></trkpt><trkpt lat="43.982179580848424" lon="11.988215985316735"><ele>714.0000000000001</ele><time>2026-04-06T06:36:27Z</time></trkpt><trkpt lat="43.98210355891706" lon="11.988161360071835"><ele>716.0</ele><time>2026-04-06T06:36:34Z</time></trkpt><trkpt lat="43.9820420031961" lon="11.988103271501046"><ele>716.0000000000001</ele><time>2026-04-06T06:36:37Z</time></trkpt><trkpt lat="43.982014160620345" lon="11.988022197141808"><ele>716.0</ele><time>2026-04-06T06:37:32.999Z</time></trkpt><trkpt lat="43.98195843830322" lon="11.98797217639281"><ele>716.0</ele><time>2026-04-06T06:37:41Z</time></trkpt><trkpt lat="43.98189275064981" lon="11.987979486059906"><ele>716.0</ele><time>2026-04-06T06:37:49Z</time></trkpt><trkpt lat="43.981819578347654" lon="11.9879799303002"><ele>716.0</ele><time>2026-04-06T06:37:52Z</time></trkpt><trkpt lat="43.98173461126265" lon="11.987964409565603"><ele>716.0000000000001</ele><time>2026-04-06T06:37:55Z</time></trkpt><trkpt lat="43.981678173479935" lon="11.987875883318578"><ele>716.0</ele><time>2026-04-06T06:37:57Z</time></trkpt><trkpt lat="43.981658058867175" lon="11.987788867780024"><ele>720.5</ele><time>2026-04-06T06:38:00Z</time></trkpt><trkpt lat="43.98156280314958" lon="11.987756634143173"><ele>725.0</ele><time>2026-04-06T06:38:05Z</time></trkpt><trkpt lat="43.98148237236372" lon="11.98776701088094"><ele>729.5</ele><time>2026-04-06T06:38:07Z</time></trkpt><trkpt lat="43.9814018619861" lon="11.987797691656398"><ele>734.0</ele><time>2026-04-06T06:38:09Z</time></trkpt><trkpt lat="43.98133917857625" lon="11.987869129444265"><ele>738.5</ele><time>2026-04-06T06:38:12Z</time></trkpt><trkpt lat="43.981284657011535" lon="11.98793643224154"><ele>743.0</ele><time>2026-04-06T06:38:14Z</time></trkpt><trkpt lat="43.981208832455486" lon="11.987978545821345"><ele>743.0</ele><time>2026-04-06T06:38:17Z</time></trkpt><trkpt lat="43.98114116672753" lon="11.987982803542277"><ele>743.0</ele><time>2026-04-06T06:38:19Z</time></trkpt><trkpt lat="43.98115475927507" lon="11.987876418567502"><ele>743.0</ele><time>2026-04-06T06:38:25Z</time></trkpt><trkpt lat="43.981100161055984" lon="11.987799613423974"><ele>743.0</ele><time>2026-04-06T06:38:28Z</time></trkpt><trkpt lat="43.981050734574886" lon="11.987737751112412"><ele>743.0</ele><time>2026-04-06T06:38:30Z</time></trkpt><trkpt lat="43.98099934870349" lon="11.987665327883807"><ele>743.0</ele><time>2026-04-06T06:38:33Z</time></trkpt><trkpt lat="43.98093549048762" lon="11.987619746991959"><ele>743.0</ele><time>2026-04-06T06:38:36Z</time></trkpt><trkpt lat="43.98087883093157" lon="11.98752776021298"><ele>741.2857142857143</ele><time>2026-04-06T06:38:39Z</time></trkpt><trkpt lat="43.980809793291314" lon="11.987458841936245"><ele>739.5714285714286</ele><time>2026-04-06T06:38:42Z</time></trkpt><trkpt lat="43.98080243844275" lon="11.987361286344122"><ele>737.8571428571429</ele><time>2026-04-06T06:38:45Z</time></trkpt><trkpt lat="43.980855335807384" lon="11.987286823414506"><ele>736.1428571428571</ele><time>2026-04-06T06:38:48Z</time></trkpt><trkpt lat="43.98082979648993" lon="11.987205137405402"><ele>734.4285714285713</ele><time>2026-04-06T06:38:52Z</time></trkpt><trkpt lat="43.980812321800315" lon="11.987115190469313"><ele>732.7142857142857</ele><time>2026-04-06T06:38:55Z</time></trkpt><trkpt lat="43.98078627984967" lon="11.9870041774704"><ele>731.0</ele><time>2026-04-06T06:38:59Z</time></trkpt><trkpt lat="43.9808037022122" lon="11.986898702033308"><ele>731.0</ele><time>2026-04-06T06:39:04Z</time></trkpt><trkpt lat="43.980795627310165" lon="11.986797239886004"><ele>731.0</ele><time>2026-04-06T06:39:10Z</time></trkpt><trkpt lat="43.98080205123401" lon="11.98669852387565"><ele>731.0</ele><time>2026-04-06T06:39:13.999Z</time></trkpt><trkpt lat="43.980793375532116" lon="11.986604111291937"><ele>731.0</ele><time>2026-04-06T06:39:17.999Z</time></trkpt><trkpt lat="43.980764133364765" lon="11.98652006044063"><ele>731.0</ele><time>2026-04-06T06:39:22.999Z</time></trkpt><trkpt lat="43.980779512194374" lon="11.986430369211464"><ele>731.0</ele><time>2026-04-06T06:39:26.999Z</time></trkpt><trkpt lat="43.98079843634428" lon="11.986342163075916"><ele>731.0</ele><time>2026-04-06T06:39:33.999Z</time></trkpt><trkpt lat="43.98078381963777" lon="11.98623942211669"><ele>727.0</ele><time>2026-04-06T06:39:39.999Z</time></trkpt><trkpt lat="43.98074912695078" lon="11.986133741924496"><ele>723.0</ele><time>2026-04-06T06:39:46Z</time></trkpt><trkpt lat="43.98080856826296" lon="11.98607232768387"><ele>719.0</ele><time>2026-04-06T06:39:49Z</time></trkpt><trkpt lat="43.98082138201964" lon="11.985954990458659"><ele>715.0</ele><time>2026-04-06T06:40:04Z</time></trkpt><trkpt lat="43.98088815531745" lon="11.985947103551945"><ele>711.0</ele><time>2026-04-06T06:40:07Z</time></trkpt><trkpt lat="43.98095631172049" lon="11.985991058969274"><ele>707.0</ele><time>2026-04-06T06:40:11Z</time></trkpt><trkpt lat="43.98103856338908" lon="11.985971121535174"><ele>704.2</ele><time>2026-04-06T06:40:14Z</time></trkpt><trkpt lat="43.98112459870229" lon="11.985966151478896"><ele>701.4000000000001</ele><time>2026-04-06T06:40:17Z</time></trkpt><trkpt lat="43.9811637008539" lon="11.985889923504716"><ele>698.5999999999999</ele><time>2026-04-06T06:40:21Z</time></trkpt><trkpt lat="43.981154479972666" lon="11.98577033285833"><ele>695.8</ele><time>2026-04-06T06:40:24Z</time></trkpt><trkpt lat="43.981136031454454" lon="11.985621470392376"><ele>693.0</ele><time>2026-04-06T06:40:26Z</time></trkpt><trkpt lat="43.981090326881464" lon="11.985441903540067"><ele>687.0</ele><time>2026-04-06T06:40:28Z</time></trkpt><trkpt lat="43.98106018861103" lon="11.985332705790643"><ele>681.0</ele><time>2026-04-06T06:40:29Z</time></trkpt><trkpt lat="43.98103502479041" lon="11.985218760604223"><ele>675.0</ele><time>2026-04-06T06:40:30Z</time></trkpt><trkpt lat="43.981008562589224" lon="11.985134947552945"><ele>669.0</ele><time>2026-04-06T06:40:31Z</time></trkpt><trkpt lat="43.98094647439292" lon="11.98499770188177"><ele>663.0</ele><time>2026-04-06T06:40:33Z</time></trkpt><trkpt lat="43.98086179357552" lon="11.984883358525114"><ele>665.0</ele><time>2026-04-06T06:40:35Z</time></trkpt><trkpt lat="43.98081972290035" lon="11.98480471147017"><ele>667.0</ele><time>2026-04-06T06:40:36Z</time></trkpt><trkpt lat="43.98074408164816" lon="11.984719806061896"><ele>669.0</ele><time>2026-04-06T06:40:38Z</time></trkpt><trkpt lat="43.9806628787854" lon="11.98457132803005"><ele>671.0</ele><time>2026-04-06T06:40:40Z</time></trkpt><trkpt lat="43.980595498703465" lon="11.984489787617704"><ele>673.0</ele><time>2026-04-06T06:40:41Z</time></trkpt><trkpt lat="43.98052417379037" lon="11.984396513968859"><ele>673.0</ele><time>2026-04-06T06:40:42Z</time></trkpt><trkpt lat="43.98044949647482" lon="11.984313250928563"><ele>673.0</ele><time>2026-04-06T06:40:43Z</time></trkpt><trkpt lat="43.98038083819505" lon="11.984224914222427"><ele>673.0</ele><time>2026-04-06T06:40:44Z</time></trkpt><trkpt lat="43.98032976403696" lon="11.984118224839378"><ele>673.0</ele><time>2026-04-06T06:40:45Z</time></trkpt><trkpt lat="43.98028906646721" lon="11.984002100379437"><ele>673.0</ele><time>2026-04-06T06:40:46Z</time></trkpt><trkpt lat="43.98025276372116" lon="11.983869905686717"><ele>675.3333333333334</ele><time>2026-04-06T06:40:47Z</time></trkpt><trkpt lat="43.980211603008335" lon="11.983767003176073"><ele>677.6666666666667</ele><time>2026-04-06T06:40:48Z</time></trkpt><trkpt lat="43.98018042290446" lon="11.983684807005963"><ele>680.0</ele><time>2026-04-06T06:40:50Z</time></trkpt><trkpt lat="43.98012823089543" lon="11.983631232762564"><ele>682.3333333333334</ele><time>2026-04-06T06:40:54Z</time></trkpt><trkpt lat="43.98005332082199" lon="11.98359185678262"><ele>684.6666666666666</ele><time>2026-04-06T06:40:56Z</time></trkpt><trkpt lat="43.97997487551688" lon="11.983487784099138"><ele>687.0</ele><time>2026-04-06T06:40:58Z</time></trkpt><trkpt lat="43.97991874942672" lon="11.983430815847067"><ele>687.0</ele><time>2026-04-06T06:40:58.999Z</time></trkpt><trkpt lat="43.97985379374994" lon="11.983385749666233"><ele>687.0</ele><time>2026-04-06T06:40:59.999Z</time></trkpt><trkpt lat="43.97977441231612" lon="11.9833272918305"><ele>687.0</ele><time>2026-04-06T06:41:00.999Z</time></trkpt><trkpt lat="43.97970444146814" lon="11.983258486896634"><ele>687.0</ele><time>2026-04-06T06:41:01.999Z</time></trkpt><trkpt lat="43.97967581230898" lon="11.983179970577401"><ele>687.0</ele><time>2026-04-06T06:41:02.999Z</time></trkpt><trkpt lat="43.979676864632296" lon="11.983075846917915"><ele>687.0</ele><time>2026-04-06T06:41:03.999Z</time></trkpt><trkpt lat="43.979677095747626" lon="11.982965944676279"><ele>682.8</ele><time>2026-04-06T06:41:04.999Z</time></trkpt><trkpt lat="43.97966035108805" lon="11.982853564165328"><ele>678.6</ele><time>2026-04-06T06:41:05.999Z</time></trkpt><trkpt lat="43.97962380750225" lon="11.98272412582556"><ele>674.4</ele><time>2026-04-06T06:41:06.999Z</time></trkpt><trkpt lat="43.979603294444615" lon="11.982554722347372"><ele>670.1999999999999</ele><time>2026-04-06T06:41:07.999Z</time></trkpt><trkpt lat="43.97957573577848" lon="11.982406045423227"><ele>666.0</ele><time>2026-04-06T06:41:08.999Z</time></trkpt><trkpt lat="43.97949820572137" lon="11.982271387591984"><ele>662.4</ele><time>2026-04-06T06:41:10.999Z</time></trkpt><trkpt lat="43.97938342356673" lon="11.982223167293363"><ele>658.8</ele><time>2026-04-06T06:41:12.999Z</time></trkpt><trkpt lat="43.979296050896615" lon="11.982239602658142"><ele>655.1999999999999</ele><time>2026-04-06T06:41:13.999Z</time></trkpt><trkpt lat="43.97923384473541" lon="11.982221668805941"><ele>651.5999999999999</ele><time>2026-04-06T06:41:14.999Z</time></trkpt><trkpt lat="43.97914591105567" lon="11.982211797776353"><ele>648.0</ele><time>2026-04-06T06:41:15.999Z</time></trkpt><trkpt lat="43.97904434049826" lon="11.982189502822935"><ele>655.8</ele><time>2026-04-06T06:41:16.999Z</time></trkpt><trkpt lat="43.97895863930434" lon="11.982179374026442"><ele>663.5999999999999</ele><time>2026-04-06T06:41:17.999Z</time></trkpt><trkpt lat="43.97884215356557" lon="11.98222034850128"><ele>671.4000000000001</ele><time>2026-04-06T06:41:18.999Z</time></trkpt><trkpt lat="43.97875507972228" lon="11.982249730620932"><ele>679.2</ele><time>2026-04-06T06:41:19.999Z</time></trkpt><trkpt lat="43.97867615848159" lon="11.982280317654915"><ele>687.0</ele><time>2026-04-06T06:41:20.999Z</time></trkpt><trkpt lat="43.97850940422553" lon="11.982300372083381"><ele>687.0</ele><time>2026-04-06T06:41:22.999Z</time></trkpt><trkpt lat="43.97839492700059" lon="11.982317742468226"><ele>687.0</ele><time>2026-04-06T06:41:23.999Z</time></trkpt><trkpt lat="43.97828130291567" lon="11.982307285112027"><ele>687.0</ele><time>2026-04-06T06:41:24.999Z</time></trkpt><trkpt lat="43.97817421825152" lon="11.982299530708755"><ele>687.0</ele><time>2026-04-06T06:41:25.999Z</time></trkpt><trkpt lat="43.97806535777078" lon="11.982309095498174"><ele>687.0</ele><time>2026-04-06T06:41:26.999Z</time></trkpt><trkpt lat="43.97795378968742" lon="11.982308820734728"><ele>684.8</ele><time>2026-04-06T06:41:27.999Z</time></trkpt><trkpt lat="43.97786639794127" lon="11.982284476920539"><ele>682.6</ele><time>2026-04-06T06:41:28.999Z</time></trkpt><trkpt lat="43.97780394263031" lon="11.98223309007374"><ele>680.4</ele><time>2026-04-06T06:41:29.999Z</time></trkpt><trkpt lat="43.97779997120381" lon="11.982091077347894"><ele>678.1999999999999</ele><time>2026-04-06T06:41:31.999Z</time></trkpt><trkpt lat="43.97784760021971" lon="11.981938790906943"><ele>676.0</ele><time>2026-04-06T06:41:33.999Z</time></trkpt><trkpt lat="43.97785285294418" lon="11.981844129145871"><ele>676.0</ele><time>2026-04-06T06:41:34.999Z</time></trkpt><trkpt lat="43.977815000385995" lon="11.981727267222057"><ele>676.0</ele><time>2026-04-06T06:41:35.999Z</time></trkpt><trkpt lat="43.977725521933856" lon="11.981647762834173"><ele>676.0</ele><time>2026-04-06T06:41:36.999Z</time></trkpt><trkpt lat="43.977643758553334" lon="11.981591008983584"><ele>676.0</ele><time>2026-04-06T06:41:37.999Z</time></trkpt><trkpt lat="43.977574675709604" lon="11.981508393230095"><ele>676.0</ele><time>2026-04-06T06:41:38.999Z</time></trkpt><trkpt lat="43.97751632597669" lon="11.981461949596968"><ele>676.0</ele><time>2026-04-06T06:41:39.999Z</time></trkpt><trkpt lat="43.97746470943143" lon="11.98151409173225"><ele>669.0</ele><time>2026-04-06T06:41:42.999Z</time></trkpt><trkpt lat="43.97740900586622" lon="11.981445311325567"><ele>662.0</ele><time>2026-04-06T06:41:44.999Z</time></trkpt><trkpt lat="43.97740195860279" lon="11.981347653144319"><ele>655.0</ele><time>2026-04-06T06:41:48.999Z</time></trkpt><trkpt lat="43.977010773250754" lon="11.980656346895106"><ele>650.0</ele><time>2026-04-06T06:41:50.999Z</time></trkpt><trkpt lat="43.976948421895365" lon="11.980498845861485"><ele>645.0</ele><time>2026-04-06T06:41:52Z</time></trkpt><trkpt lat="43.97689186416008" lon="11.980324548341017"><ele>640.0</ele><time>2026-04-06T06:41:53Z</time></trkpt><trkpt lat="43.97684311895847" lon="11.980143320839783"><ele>635.0</ele><time>2026-04-06T06:41:54Z</time></trkpt><trkpt lat="43.976799045363265" lon="11.979956960273986"><ele>631.5</ele><time>2026-04-06T06:41:55Z</time></trkpt><trkpt lat="43.97675447518207" lon="11.979796320280409"><ele>628.0</ele><time>2026-04-06T06:41:56Z</time></trkpt><trkpt lat="43.97669650705101" lon="11.97965500481814"><ele>624.5</ele><time>2026-04-06T06:41:57Z</time></trkpt><trkpt lat="43.976640621030995" lon="11.979521323371923"><ele>621.0</ele><time>2026-04-06T06:41:58Z</time></trkpt><trkpt lat="43.97659657036706" lon="11.979389091945908"><ele>628.25</ele><time>2026-04-06T06:41:59Z</time></trkpt><trkpt lat="43.97657344994056" lon="11.979208521879874"><ele>635.5</ele><time>2026-04-06T06:42:00Z</time></trkpt><trkpt lat="43.976570002920305" lon="11.979024216965163"><ele>642.75</ele><time>2026-04-06T06:42:01Z</time></trkpt><trkpt lat="43.97655279542302" lon="11.97885136846003"><ele>650.0</ele><time>2026-04-06T06:42:02Z</time></trkpt><trkpt lat="43.976550762012685" lon="11.978681334964103"><ele>650.0</ele><time>2026-04-06T06:42:03Z</time></trkpt><trkpt lat="43.976546053667725" lon="11.978532390507763"><ele>650.0</ele><time>2026-04-06T06:42:04Z</time></trkpt><trkpt lat="43.97654362295679" lon="11.978409153930286"><ele>650.0</ele><time>2026-04-06T06:42:05Z</time></trkpt><trkpt lat="43.97651766798839" lon="11.978296339242805"><ele>650.0</ele><time>2026-04-06T06:42:06Z</time></trkpt><trkpt lat="43.97646875107172" lon="11.978165088680331"><ele>650.0</ele><time>2026-04-06T06:42:07Z</time></trkpt><trkpt lat="43.97641675816343" lon="11.978000245437773"><ele>649.0</ele><time>2026-04-06T06:42:08Z</time></trkpt><trkpt lat="43.97638950928872" lon="11.977860798914367"><ele>648.0</ele><time>2026-04-06T06:42:09Z</time></trkpt><trkpt lat="43.97635531443665" lon="11.977749621410839"><ele>647.0</ele><time>2026-04-06T06:42:10Z</time></trkpt><trkpt lat="43.97632021476932" lon="11.97765944481269"><ele>646.0</ele><time>2026-04-06T06:42:11Z</time></trkpt><trkpt lat="43.976250221532595" lon="11.977606659502477"><ele>645.0</ele><time>2026-04-06T06:42:13Z</time></trkpt><trkpt lat="43.97618451674966" lon="11.97746519354336"><ele>644.0</ele><time>2026-04-06T06:42:15Z</time></trkpt><trkpt lat="43.976189596879564" lon="11.97735551895184"><ele>643.0</ele><time>2026-04-06T06:42:16Z</time></trkpt><trkpt lat="43.97619528805452" lon="11.977226716530167"><ele>642.0</ele><time>2026-04-06T06:42:17Z</time></trkpt><trkpt lat="43.97622084514271" lon="11.977115209248792"><ele>641.0</ele><time>2026-04-06T06:42:18Z</time></trkpt><trkpt lat="43.97624376078536" lon="11.977010598488516"><ele>640.0</ele><time>2026-04-06T06:42:19Z</time></trkpt><trkpt lat="43.976253174180016" lon="11.97690863441767"><ele>639.0</ele><time>2026-04-06T06:42:20Z</time></trkpt><trkpt lat="43.97627793558804" lon="11.976807978093255"><ele>639.0</ele><time>2026-04-06T06:42:21Z</time></trkpt><trkpt lat="43.97632919109231" lon="11.976705952206704"><ele>639.0</ele><time>2026-04-06T06:42:22Z</time></trkpt><trkpt lat="43.97635565796354" lon="11.976604126825016"><ele>639.0</ele><time>2026-04-06T06:42:23Z</time></trkpt><trkpt lat="43.97635558416866" lon="11.976508719119284"><ele>639.0</ele><time>2026-04-06T06:42:24Z</time></trkpt><trkpt lat="43.976404204608066" lon="11.976347562531501"><ele>639.0</ele><time>2026-04-06T06:42:26Z</time></trkpt><trkpt lat="43.976440457610146" lon="11.976265760512783"><ele>639.0</ele><time>2026-04-06T06:42:27Z</time></trkpt><trkpt lat="43.97644560841523" lon="11.976171874226853"><ele>636.8333333333334</ele><time>2026-04-06T06:42:28Z</time></trkpt><trkpt lat="43.976439792349176" lon="11.976073370816442"><ele>634.6666666666666</ele><time>2026-04-06T06:42:29Z</time></trkpt><trkpt lat="43.976419825348145" lon="11.975982287158391"><ele>632.5</ele><time>2026-04-06T06:42:30Z</time></trkpt><trkpt lat="43.97638119679268" lon="11.97591219766789"><ele>630.3333333333333</ele><time>2026-04-06T06:42:31Z</time></trkpt><trkpt lat="43.97628375835322" lon="11.97582009802132"><ele>628.1666666666666</ele><time>2026-04-06T06:42:33Z</time></trkpt><trkpt lat="43.97627642768307" lon="11.975666500652723"><ele>626.0</ele><time>2026-04-06T06:42:35Z</time></trkpt><trkpt lat="43.97630531248839" lon="11.975529832813889"><ele>624.0</ele><time>2026-04-06T06:42:36Z</time></trkpt><trkpt lat="43.976327525674606" lon="11.97538197165771"><ele>622.0</ele><time>2026-04-06T06:42:37Z</time></trkpt><trkpt lat="43.97635224827704" lon="11.975239961474513"><ele>620.0</ele><time>2026-04-06T06:42:38Z</time></trkpt><trkpt lat="43.976395333521616" lon="11.975106114234958"><ele>618.0</ele><time>2026-04-06T06:42:39Z</time></trkpt><trkpt lat="43.976445030823655" lon="11.974975275692756"><ele>616.0</ele><time>2026-04-06T06:42:40Z</time></trkpt><trkpt lat="43.97648721180922" lon="11.974851365417244"><ele>615.2</ele><time>2026-04-06T06:42:41Z</time></trkpt><trkpt lat="43.97650610090769" lon="11.97471554258865"><ele>614.4000000000001</ele><time>2026-04-06T06:42:42Z</time></trkpt><trkpt lat="43.97649675661661" lon="11.974581183162663"><ele>613.6</ele><time>2026-04-06T06:42:43Z</time></trkpt><trkpt lat="43.976467964580095" lon="11.974461214192143"><ele>612.8000000000001</ele><time>2026-04-06T06:42:44Z</time></trkpt><trkpt lat="43.97644697117385" lon="11.974344862551108"><ele>612.0</ele><time>2026-04-06T06:42:45Z</time></trkpt><trkpt lat="43.97643755277603" lon="11.97423836044328"><ele>613.8333333333334</ele><time>2026-04-06T06:42:46Z</time></trkpt><trkpt lat="43.97642892268534" lon="11.974136774753498"><ele>615.6666666666666</ele><time>2026-04-06T06:42:47Z</time></trkpt><trkpt lat="43.97641737126415" lon="11.974024846726673"><ele>617.5</ele><time>2026-04-06T06:42:48Z</time></trkpt><trkpt lat="43.97640451848967" lon="11.973925418288433"><ele>619.3333333333333</ele><time>2026-04-06T06:42:48.999Z</time></trkpt><trkpt lat="43.97639082823263" lon="11.973746538983805"><ele>621.1666666666666</ele><time>2026-04-06T06:42:50.999Z</time></trkpt><trkpt lat="43.97638891606844" lon="11.973650698003983"><ele>623.0</ele><time>2026-04-06T06:42:51.999Z</time></trkpt><trkpt lat="43.97638690446252" lon="11.973547456935693"><ele>623.0</ele><time>2026-04-06T06:42:52.999Z</time></trkpt><trkpt lat="43.97637410353539" lon="11.973446362081578"><ele>623.0</ele><time>2026-04-06T06:42:53.999Z</time></trkpt><trkpt lat="43.976364671508165" lon="11.973357719940166"><ele>623.0</ele><time>2026-04-06T06:42:54.999Z</time></trkpt><trkpt lat="43.9763311105477" lon="11.973275514541015"><ele>623.0</ele><time>2026-04-06T06:42:55.999Z</time></trkpt><trkpt lat="43.976283798547904" lon="11.973178836155737"><ele>623.0</ele><time>2026-04-06T06:42:56.999Z</time></trkpt><trkpt lat="43.97623221406894" lon="11.973082026907575"><ele>623.0</ele><time>2026-04-06T06:42:57.999Z</time></trkpt><trkpt lat="43.97618221488676" lon="11.972931827563206"><ele>624.0</ele><time>2026-04-06T06:42:58.999Z</time></trkpt><trkpt lat="43.976141522784665" lon="11.972780267705632"><ele>625.0</ele><time>2026-04-06T06:42:59.999Z</time></trkpt><trkpt lat="43.976092098265134" lon="11.972639092628338"><ele>626.0</ele><time>2026-04-06T06:43:00.999Z</time></trkpt><trkpt lat="43.97606066439164" lon="11.972462340609486"><ele>627.0</ele><time>2026-04-06T06:43:01.999Z</time></trkpt><trkpt lat="43.97605683526427" lon="11.972300014609132"><ele>626.6</ele><time>2026-04-06T06:43:02.999Z</time></trkpt><trkpt lat="43.976042549138036" lon="11.972146557832627"><ele>626.2</ele><time>2026-04-06T06:43:03.999Z</time></trkpt><trkpt lat="43.97602835861603" lon="11.97199068267573"><ele>625.8</ele><time>2026-04-06T06:43:04.999Z</time></trkpt><trkpt lat="43.97602216175752" lon="11.971846829441526"><ele>625.4</ele><time>2026-04-06T06:43:05.999Z</time></trkpt><trkpt lat="43.97601990385122" lon="11.97169194162496"><ele>625.0</ele><time>2026-04-06T06:43:06.999Z</time></trkpt><trkpt lat="43.97602410529045" lon="11.971526748776414"><ele>625.0</ele><time>2026-04-06T06:43:07.999Z</time></trkpt><trkpt lat="43.97605186044255" lon="11.971373263960137"><ele>625.0</ele><time>2026-04-06T06:43:08.999Z</time></trkpt><trkpt lat="43.976103567447225" lon="11.971238597347552"><ele>625.0</ele><time>2026-04-06T06:43:09.999Z</time></trkpt><trkpt lat="43.97616840845138" lon="11.97110501237198"><ele>625.0</ele><time>2026-04-06T06:43:10.999Z</time></trkpt><trkpt lat="43.976235081725754" lon="11.97098117570055"><ele>625.0</ele><time>2026-04-06T06:43:11.999Z</time></trkpt><trkpt lat="43.97631017925926" lon="11.970865322447038"><ele>625.0</ele><time>2026-04-06T06:43:12.999Z</time></trkpt><trkpt lat="43.97638075736954" lon="11.970740140249909"><ele>625.0</ele><time>2026-04-06T06:43:13.999Z</time></trkpt><trkpt lat="43.976451792207655" lon="11.970611107152518"><ele>625.0</ele><time>2026-04-06T06:43:14.999Z</time></trkpt><trkpt lat="43.97652895602097" lon="11.970461438402939"><ele>621.5</ele><time>2026-04-06T06:43:15.999Z</time></trkpt><trkpt lat="43.97660244055185" lon="11.970301586883442"><ele>618.0</ele><time>2026-04-06T06:43:16.999Z</time></trkpt><trkpt lat="43.976670388679885" lon="11.970137143366626"><ele>614.5</ele><time>2026-04-06T06:43:17.999Z</time></trkpt><trkpt lat="43.976740730880195" lon="11.969975825017956"><ele>611.0</ele><time>2026-04-06T06:43:18.999Z</time></trkpt><trkpt lat="43.97681437754983" lon="11.969810806905038"><ele>596.0</ele><time>2026-04-06T06:43:19.999Z</time></trkpt><trkpt lat="43.976879042422695" lon="11.969627107093322"><ele>581.0</ele><time>2026-04-06T06:43:20.999Z</time></trkpt><trkpt lat="43.97692523319539" lon="11.969417395710275"><ele>566.0</ele><time>2026-04-06T06:43:21.999Z</time></trkpt><trkpt lat="43.97696726650583" lon="11.969200888339241"><ele>565.0</ele><time>2026-04-06T06:43:22.999Z</time></trkpt><trkpt lat="43.97701452392554" lon="11.968989954994548"><ele>564.0</ele><time>2026-04-06T06:43:23.999Z</time></trkpt><trkpt lat="43.97706231427644" lon="11.968786920507295"><ele>563.0</ele><time>2026-04-06T06:43:24.999Z</time></trkpt><trkpt lat="43.977114808258975" lon="11.968590082261358"><ele>563.0</ele><time>2026-04-06T06:43:25.999Z</time></trkpt><trkpt lat="43.97717717128955" lon="11.968398688192076"><ele>563.0</ele><time>2026-04-06T06:43:26.999Z</time></trkpt><trkpt lat="43.97724683706127" lon="11.968199829663297"><ele>563.0</ele><time>2026-04-06T06:43:27.999Z</time></trkpt><trkpt lat="43.97731081298298" lon="11.968012526931325"><ele>564.25</ele><time>2026-04-06T06:43:28.999Z</time></trkpt><trkpt lat="43.977374301009704" lon="11.967827118627055"><ele>565.5</ele><time>2026-04-06T06:43:29.999Z</time></trkpt><trkpt lat="43.977435403764346" lon="11.967637439076801"><ele>566.75</ele><time>2026-04-06T06:43:30.999Z</time></trkpt><trkpt lat="43.97749153305805" lon="11.96745111679315"><ele>568.0</ele><time>2026-04-06T06:43:31.999Z</time></trkpt><trkpt lat="43.977531628702536" lon="11.967259986598501"><ele>565.25</ele><time>2026-04-06T06:43:32.999Z</time></trkpt><trkpt lat="43.97752533479552" lon="11.967059824273802"><ele>562.5</ele><time>2026-04-06T06:43:33.999Z</time></trkpt><trkpt lat="43.977519801526206" lon="11.966854533276864"><ele>559.75</ele><time>2026-04-06T06:43:34.999Z</time></trkpt><trkpt lat="43.977499960395015" lon="11.966652928154172"><ele>557.0</ele><time>2026-04-06T06:43:35.999Z</time></trkpt><trkpt lat="43.977477107351184" lon="11.966459729375059"><ele>564.25</ele><time>2026-04-06T06:43:36.999Z</time></trkpt><trkpt lat="43.97747755745385" lon="11.966267535741766"><ele>571.5</ele><time>2026-04-06T06:43:37.999Z</time></trkpt><trkpt lat="43.97747245902409" lon="11.96609034872859"><ele>578.75</ele><time>2026-04-06T06:43:38.999Z</time></trkpt><trkpt lat="43.9775032211432" lon="11.965927453342632"><ele>586.0</ele><time>2026-04-06T06:43:39.999Z</time></trkpt><trkpt lat="43.97755089830172" lon="11.965756099232951"><ele>586.25</ele><time>2026-04-06T06:43:40.999Z</time></trkpt><trkpt lat="43.97760702738681" lon="11.965580969415429"><ele>586.5</ele><time>2026-04-06T06:43:41.999Z</time></trkpt><trkpt lat="43.97766843387777" lon="11.965405912884759"><ele>586.75</ele><time>2026-04-06T06:43:42.999Z</time></trkpt><trkpt lat="43.97773122490505" lon="11.965231380592705"><ele>587.0</ele><time>2026-04-06T06:43:43.999Z</time></trkpt><trkpt lat="43.9777979013179" lon="11.965046048580842"><ele>587.75</ele><time>2026-04-06T06:43:44.999Z</time></trkpt><trkpt lat="43.977863437903" lon="11.964874870472627"><ele>588.5</ele><time>2026-04-06T06:43:45.999Z</time></trkpt><trkpt lat="43.97793359870906" lon="11.964704145642116"><ele>589.25</ele><time>2026-04-06T06:43:46.999Z</time></trkpt><trkpt lat="43.97801622885153" lon="11.964527095807403"><ele>590.0</ele><time>2026-04-06T06:43:47.999Z</time></trkpt><trkpt lat="43.97810829813717" lon="11.964347840045624"><ele>589.3333333333333</ele><time>2026-04-06T06:43:48.999Z</time></trkpt><trkpt lat="43.97821064682591" lon="11.964160261624976"><ele>588.6666666666666</ele><time>2026-04-06T06:43:49.999Z</time></trkpt><trkpt lat="43.97831329683859" lon="11.963989902060598"><ele>588.0</ele><time>2026-04-06T06:43:50.999Z</time></trkpt><trkpt lat="43.97841602772192" lon="11.963839153774641"><ele>588.0</ele><time>2026-04-06T06:43:51.999Z</time></trkpt><trkpt lat="43.97851772958788" lon="11.963702466271618"><ele>588.0</ele><time>2026-04-06T06:43:52.999Z</time></trkpt><trkpt lat="43.9786338909437" lon="11.963559774587644"><ele>588.0</ele><time>2026-04-06T06:43:53.999Z</time></trkpt><trkpt lat="43.978780264550096" lon="11.963426548499172"><ele>586.6666666666666</ele><time>2026-04-06T06:43:54.999Z</time></trkpt><trkpt lat="43.9789455275502" lon="11.963318786027186"><ele>585.3333333333333</ele><time>2026-04-06T06:43:55.999Z</time></trkpt><trkpt lat="43.97909915242146" lon="11.96320733336564"><ele>584.0</ele><time>2026-04-06T06:43:56.999Z</time></trkpt><trkpt lat="43.97923898842131" lon="11.963101573817946"><ele>587.6666666666666</ele><time>2026-04-06T06:43:58Z</time></trkpt><trkpt lat="43.979371525056486" lon="11.963007572621802"><ele>591.3333333333334</ele><time>2026-04-06T06:43:59Z</time></trkpt><trkpt lat="43.97951149393848" lon="11.962923752465509"><ele>595.0</ele><time>2026-04-06T06:44:00Z</time></trkpt><trkpt lat="43.97967513995036" lon="11.962837288311981"><ele>595.0</ele><time>2026-04-06T06:44:01Z</time></trkpt><trkpt lat="43.97982843848139" lon="11.962755083401845"><ele>595.0</ele><time>2026-04-06T06:44:02Z</time></trkpt><trkpt lat="43.9799587676899" lon="11.962669998560825"><ele>595.0</ele><time>2026-04-06T06:44:03Z</time></trkpt><trkpt lat="43.9800838838521" lon="11.962552942379354"><ele>592.0</ele><time>2026-04-06T06:44:04Z</time></trkpt><trkpt lat="43.98019292201214" lon="11.962419101155945"><ele>589.0</ele><time>2026-04-06T06:44:05Z</time></trkpt><trkpt lat="43.980294613960986" lon="11.962305712995263"><ele>586.0</ele><time>2026-04-06T06:44:06Z</time></trkpt><trkpt lat="43.9803895632501" lon="11.9622127193233"><ele>583.0</ele><time>2026-04-06T06:44:07Z</time></trkpt><trkpt lat="43.98049705806643" lon="11.962172600032968"><ele>583.0</ele><time>2026-04-06T06:44:08Z</time></trkpt><trkpt lat="43.98061764208959" lon="11.962135282547276"><ele>583.0</ele><time>2026-04-06T06:44:09Z</time></trkpt><trkpt lat="43.980763263472845" lon="11.962101276090591"><ele>583.0</ele><time>2026-04-06T06:44:10Z</time></trkpt><trkpt lat="43.980914517389245" lon="11.962074305035012"><ele>583.0</ele><time>2026-04-06T06:44:11Z</time></trkpt><trkpt lat="43.9810738508651" lon="11.962056144269683"><ele>573.6666666666667</ele><time>2026-04-06T06:44:12Z</time></trkpt><trkpt lat="43.981229580940855" lon="11.962042248008705"><ele>564.3333333333334</ele><time>2026-04-06T06:44:13Z</time></trkpt><trkpt lat="43.98138557006652" lon="11.962026398481688"><ele>555.0</ele><time>2026-04-06T06:44:14Z</time></trkpt><trkpt lat="43.98153724108744" lon="11.96198439083489"><ele>544.6666666666666</ele><time>2026-04-06T06:44:15Z</time></trkpt><trkpt lat="43.981691528266204" lon="11.961955387770947"><ele>534.3333333333333</ele><time>2026-04-06T06:44:16Z</time></trkpt><trkpt lat="43.98184325057275" lon="11.961890108552204"><ele>524.0</ele><time>2026-04-06T06:44:17Z</time></trkpt><trkpt lat="43.98200509643162" lon="11.961811227809891"><ele>524.0</ele><time>2026-04-06T06:44:18Z</time></trkpt><trkpt lat="43.982155119005355" lon="11.961705555361283"><ele>524.0</ele><time>2026-04-06T06:44:19Z</time></trkpt><trkpt lat="43.982300513829884" lon="11.961606146580456"><ele>524.0</ele><time>2026-04-06T06:44:20Z</time></trkpt><trkpt lat="43.98244517172575" lon="11.961521198614674"><ele>531.0</ele><time>2026-04-06T06:44:21Z</time></trkpt><trkpt lat="43.9825885095055" lon="11.961417379621027"><ele>538.0</ele><time>2026-04-06T06:44:22Z</time></trkpt><trkpt lat="43.98271102601859" lon="11.961275212026576"><ele>545.0</ele><time>2026-04-06T06:44:23Z</time></trkpt><trkpt lat="43.98283300381446" lon="11.961164301906368"><ele>545.0</ele><time>2026-04-06T06:44:24Z</time></trkpt><trkpt lat="43.98296038454169" lon="11.961056366967703"><ele>545.0</ele><time>2026-04-06T06:44:25Z</time></trkpt><trkpt lat="43.98308554184249" lon="11.96094488188781"><ele>545.0</ele><time>2026-04-06T06:44:26Z</time></trkpt><trkpt lat="43.98319613157475" lon="11.960813093370193"><ele>545.0</ele><time>2026-04-06T06:44:27Z</time></trkpt><trkpt lat="43.98329020554021" lon="11.960649587589948"><ele>540.0</ele><time>2026-04-06T06:44:28Z</time></trkpt><trkpt lat="43.9833824405226" lon="11.960486610574623"><ele>535.0</ele><time>2026-04-06T06:44:29Z</time></trkpt><trkpt lat="43.98347523839008" lon="11.96031472116315"><ele>530.0</ele><time>2026-04-06T06:44:30Z</time></trkpt><trkpt lat="43.98357261816527" lon="11.960140181384533"><ele>535.75</ele><time>2026-04-06T06:44:31Z</time></trkpt><trkpt lat="43.9836632498112" lon="11.959986482211018"><ele>541.5</ele><time>2026-04-06T06:44:32Z</time></trkpt><trkpt lat="43.98372657579472" lon="11.959829380453764"><ele>547.25</ele><time>2026-04-06T06:44:33Z</time></trkpt><trkpt lat="43.983763109965906" lon="11.959644492809133"><ele>553.0</ele><time>2026-04-06T06:44:34Z</time></trkpt><trkpt lat="43.983779181284234" lon="11.959439638142609"><ele>553.0</ele><time>2026-04-06T06:44:35Z</time></trkpt><trkpt lat="43.98381638065587" lon="11.959232589739383"><ele>553.0</ele><time>2026-04-06T06:44:36Z</time></trkpt><trkpt lat="43.98386266003006" lon="11.959015942064326"><ele>553.0</ele><time>2026-04-06T06:44:37Z</time></trkpt><trkpt lat="43.98391823848606" lon="11.958789507195547"><ele>555.0</ele><time>2026-04-06T06:44:38Z</time></trkpt><trkpt lat="43.98399562250187" lon="11.958573073899826"><ele>557.0</ele><time>2026-04-06T06:44:38.999Z</time></trkpt><trkpt lat="43.98406166358515" lon="11.95837922585402"><ele>559.0</ele><time>2026-04-06T06:44:39.999Z</time></trkpt><trkpt lat="43.98413115436034" lon="11.958187568756857"><ele>549.6666666666667</ele><time>2026-04-06T06:44:40.999Z</time></trkpt><trkpt lat="43.98424656664777" lon="11.958015891396457"><ele>540.3333333333334</ele><time>2026-04-06T06:44:41.999Z</time></trkpt><trkpt lat="43.9843455936134" lon="11.957805355537689"><ele>531.0</ele><time>2026-04-06T06:44:42.999Z</time></trkpt><trkpt lat="43.984476764205375" lon="11.95761749243001"><ele>535.6666666666666</ele><time>2026-04-06T06:44:43.999Z</time></trkpt><trkpt lat="43.98458064192528" lon="11.957432259389506"><ele>540.3333333333333</ele><time>2026-04-06T06:44:44.999Z</time></trkpt><trkpt lat="43.984670544433186" lon="11.957220547634156"><ele>545.0</ele><time>2026-04-06T06:44:45.999Z</time></trkpt><trkpt lat="43.98472994759009" lon="11.956978192263547"><ele>545.0</ele><time>2026-04-06T06:44:46.999Z</time></trkpt><trkpt lat="43.984797223942714" lon="11.956730896838726"><ele>545.0</ele><time>2026-04-06T06:44:47.999Z</time></trkpt><trkpt lat="43.98489842990088" lon="11.956532281471393"><ele>545.0</ele><time>2026-04-06T06:44:48.999Z</time></trkpt><trkpt lat="43.98504790450428" lon="11.956399733290546"><ele>542.75</ele><time>2026-04-06T06:44:49.999Z</time></trkpt><trkpt lat="43.985149809634265" lon="11.956238666705227"><ele>540.5</ele><time>2026-04-06T06:44:50.999Z</time></trkpt><trkpt lat="43.98523220654249" lon="11.956098058843812"><ele>538.25</ele><time>2026-04-06T06:44:51.999Z</time></trkpt><trkpt lat="43.98532152064059" lon="11.955983012186026"><ele>536.0</ele><time>2026-04-06T06:44:52.999Z</time></trkpt><trkpt lat="43.985409623701486" lon="11.955888772185078"><ele>541.0</ele><time>2026-04-06T06:44:53.999Z</time></trkpt><trkpt lat="43.985484381028286" lon="11.955823737394013"><ele>546.0</ele><time>2026-04-06T06:44:54.999Z</time></trkpt><trkpt lat="43.98553189833902" lon="11.955764170850927"><ele>551.0</ele><time>2026-04-06T06:44:55.999Z</time></trkpt><trkpt lat="43.985450367484034" lon="11.955688750347539"><ele>556.0</ele><time>2026-04-06T06:45:00.999Z</time></trkpt><trkpt lat="43.9853923958782" lon="11.955747663262295"><ele>561.0</ele><time>2026-04-06T06:45:01.999Z</time></trkpt><trkpt lat="43.9853097929219" lon="11.955806075314483"><ele>566.0</ele><time>2026-04-06T06:45:02.999Z</time></trkpt><trkpt lat="43.985218877546515" lon="11.955864513082151"><ele>565.8</ele><time>2026-04-06T06:45:03.999Z</time></trkpt><trkpt lat="43.985220001147944" lon="11.956015810276693"><ele>565.6</ele><time>2026-04-06T06:45:04.999Z</time></trkpt><trkpt lat="43.98516298282765" lon="11.956102816694457"><ele>565.4</ele><time>2026-04-06T06:45:06.999Z</time></trkpt><trkpt lat="43.98509691913254" lon="11.956240130664881"><ele>565.2</ele><time>2026-04-06T06:45:08.999Z</time></trkpt><trkpt lat="43.98504828225648" lon="11.956303866525156"><ele>565.0</ele><time>2026-04-06T06:45:10.999Z</time></trkpt><trkpt lat="43.98484958731137" lon="11.956057696868319"><ele>564.9999999999999</ele><time>2026-04-06T06:45:13.999Z</time></trkpt><trkpt lat="43.98479883756471" lon="11.955993287470765"><ele>565.0</ele><time>2026-04-06T06:45:14.999Z</time></trkpt><trkpt lat="43.984733120938735" lon="11.955951848908505"><ele>565.0</ele><time>2026-04-06T06:45:15.999Z</time></trkpt><trkpt lat="43.98467190728974" lon="11.95591066845113"><ele>565.0</ele><time>2026-04-06T06:45:16.999Z</time></trkpt><trkpt lat="43.9846381220603" lon="11.955836458559071"><ele>565.0</ele><time>2026-04-06T06:45:17.999Z</time></trkpt><trkpt lat="43.98461457074185" lon="11.955721283186213"><ele>564.9999999999999</ele><time>2026-04-06T06:45:18.999Z</time></trkpt><trkpt lat="43.98457210856164" lon="11.955611540604254"><ele>565.0</ele><time>2026-04-06T06:45:19.999Z</time></trkpt><trkpt lat="43.98450674267039" lon="11.955521411967277"><ele>563.0</ele><time>2026-04-06T06:45:20.999Z</time></trkpt><trkpt lat="43.98443664333202" lon="11.955429187292566"><ele>561.0</ele><time>2026-04-06T06:45:21.999Z</time></trkpt><trkpt lat="43.984387772427496" lon="11.955309502774192"><ele>559.0</ele><time>2026-04-06T06:45:22.999Z</time></trkpt><trkpt lat="43.984322886121085" lon="11.955209898307261"><ele>557.0</ele><time>2026-04-06T06:45:23.999Z</time></trkpt><trkpt lat="43.984262967083055" lon="11.95513683034604"><ele>555.0</ele><time>2026-04-06T06:45:24.999Z</time></trkpt><trkpt lat="43.98416903870313" lon="11.955063987801006"><ele>556.8</ele><time>2026-04-06T06:45:26.999Z</time></trkpt><trkpt lat="43.98410731316406" lon="11.95498983506106"><ele>558.6</ele><time>2026-04-06T06:45:28.999Z</time></trkpt><trkpt lat="43.98400173308025" lon="11.954943335071308"><ele>560.4</ele><time>2026-04-06T06:45:30.999Z</time></trkpt><trkpt lat="43.9839026386085" lon="11.95494093463783"><ele>562.2</ele><time>2026-04-06T06:45:32.999Z</time></trkpt><trkpt lat="43.98380215328594" lon="11.954926962235358"><ele>564.0</ele><time>2026-04-06T06:45:34.999Z</time></trkpt><trkpt lat="43.98371432285415" lon="11.954872398632851"><ele>564.0</ele><time>2026-04-06T06:45:36.999Z</time></trkpt><trkpt lat="43.983615060365125" lon="11.954806207150472"><ele>564.0</ele><time>2026-04-06T06:45:38.999Z</time></trkpt><trkpt lat="43.983506762876594" lon="11.954762758637841"><ele>564.0</ele><time>2026-04-06T06:45:40.999Z</time></trkpt><trkpt lat="43.98343794670956" lon="11.954758977744996"><ele>564.0</ele><time>2026-04-06T06:45:41.999Z</time></trkpt><trkpt lat="43.98336028838192" lon="11.954731196997622"><ele>564.0</ele><time>2026-04-06T06:45:44.999Z</time></trkpt><trkpt lat="43.98326693602012" lon="11.954743261313116"><ele>558.4</ele><time>2026-04-06T06:45:46.999Z</time></trkpt><trkpt lat="43.98318591814389" lon="11.954743542888194"><ele>552.8</ele><time>2026-04-06T06:45:48.999Z</time></trkpt><trkpt lat="43.98308065186027" lon="11.95469882615733"><ele>547.2</ele><time>2026-04-06T06:45:51.999Z</time></trkpt><trkpt lat="43.982920837366414" lon="11.954664591560993"><ele>541.6</ele><time>2026-04-06T06:45:53.999Z</time></trkpt><trkpt lat="43.98285435555658" lon="11.954684880845619"><ele>536.0</ele><time>2026-04-06T06:45:54.999Z</time></trkpt><trkpt lat="43.98277828194299" lon="11.954710605589113"><ele>536.0</ele><time>2026-04-06T06:45:55.999Z</time></trkpt><trkpt lat="43.98265010850773" lon="11.954738834744177"><ele>536.0</ele><time>2026-04-06T06:45:57.999Z</time></trkpt><trkpt lat="43.98253327464876" lon="11.954760908855166"><ele>536.0</ele><time>2026-04-06T06:45:59.999Z</time></trkpt><trkpt lat="43.98242434645054" lon="11.954769300383608"><ele>536.0</ele><time>2026-04-06T06:46:01.999Z</time></trkpt><trkpt lat="43.982302851693355" lon="11.954742127135093"><ele>532.6666666666666</ele><time>2026-04-06T06:46:04Z</time></trkpt><trkpt lat="43.98218173409169" lon="11.954784941235436"><ele>529.3333333333333</ele><time>2026-04-06T06:46:06Z</time></trkpt><trkpt lat="43.98212048532752" lon="11.954813852145461"><ele>526.0</ele><time>2026-04-06T06:46:07Z</time></trkpt><trkpt lat="43.982103322745814" lon="11.954908456936124"><ele>522.6666666666666</ele><time>2026-04-06T06:46:08Z</time></trkpt><trkpt lat="43.98208167622626" lon="11.955000773090479"><ele>519.3333333333334</ele><time>2026-04-06T06:46:09Z</time></trkpt><trkpt lat="43.982045366941904" lon="11.955101138856278"><ele>516.0</ele><time>2026-04-06T06:46:10Z</time></trkpt><trkpt lat="43.98207799689662" lon="11.95525214080983"><ele>512.5</ele><time>2026-04-06T06:46:11Z</time></trkpt><trkpt lat="43.98202533897458" lon="11.955331342452576"><ele>509.0</ele><time>2026-04-06T06:46:12Z</time></trkpt><trkpt lat="43.98198888270357" lon="11.955402833962896"><ele>505.5</ele><time>2026-04-06T06:46:13Z</time></trkpt><trkpt lat="43.9819656082955" lon="11.955496930378864"><ele>502.0</ele><time>2026-04-06T06:46:14Z</time></trkpt><trkpt lat="43.981963140000566" lon="11.955603463737468"><ele>498.5</ele><time>2026-04-06T06:46:15Z</time></trkpt><trkpt lat="43.98185691935455" lon="11.955723042054965"><ele>495.0</ele><time>2026-04-06T06:46:17Z</time></trkpt><trkpt lat="43.98178087943808" lon="11.955760714611067"><ele>492.0</ele><time>2026-04-06T06:46:18Z</time></trkpt><trkpt lat="43.9816695878415" lon="11.955776242608517"><ele>489.0</ele><time>2026-04-06T06:46:19.999Z</time></trkpt><trkpt lat="43.981557565929585" lon="11.955730262861117"><ele>486.0</ele><time>2026-04-06T06:46:21.999Z</time></trkpt><trkpt lat="43.98147941327343" lon="11.955659712020807"><ele>483.0</ele><time>2026-04-06T06:46:23.999Z</time></trkpt><trkpt lat="43.98150074318523" lon="11.955534695951926"><ele>480.0</ele><time>2026-04-06T06:46:25.999Z</time></trkpt><trkpt lat="43.9814993041578" lon="11.955407009087962"><ele>480.0</ele><time>2026-04-06T06:46:27.999Z</time></trkpt><trkpt lat="43.981488978201355" lon="11.955264762204804"><ele>480.0</ele><time>2026-04-06T06:46:29.999Z</time></trkpt><trkpt lat="43.98148745420746" lon="11.955108582389574"><ele>480.0</ele><time>2026-04-06T06:46:31.999Z</time></trkpt><trkpt lat="43.981517638340634" lon="11.954938074749725"><ele>480.0</ele><time>2026-04-06T06:46:33.999Z</time></trkpt><trkpt lat="43.981493411224896" lon="11.954805304500258"><ele>480.0</ele><time>2026-04-06T06:46:34.999Z</time></trkpt><trkpt lat="43.98144372131595" lon="11.954704465570583"><ele>481.2</ele><time>2026-04-06T06:46:36.999Z</time></trkpt><trkpt lat="43.98138661842609" lon="11.954560317733302"><ele>482.4</ele><time>2026-04-06T06:46:38.999Z</time></trkpt><trkpt lat="43.98134222987404" lon="11.95449421932248"><ele>483.6</ele><time>2026-04-06T06:46:40.999Z</time></trkpt><trkpt lat="43.98129274741958" lon="11.954428332185946"><ele>484.8</ele><time>2026-04-06T06:46:41.999Z</time></trkpt><trkpt lat="43.98120271560247" lon="11.954505636954766"><ele>486.0</ele><time>2026-04-06T06:46:44.999Z</time></trkpt><trkpt lat="43.98111020832244" lon="11.954511234366777"><ele>486.0</ele><time>2026-04-06T06:46:47.999Z</time></trkpt><trkpt lat="43.9810493177522" lon="11.954421068247969"><ele>486.0</ele><time>2026-04-06T06:46:48.999Z</time></trkpt><trkpt lat="43.98098512617491" lon="11.95435952459087"><ele>486.0</ele><time>2026-04-06T06:46:49.999Z</time></trkpt><trkpt lat="43.98089762882676" lon="11.954372758682899"><ele>486.0</ele><time>2026-04-06T06:46:51.999Z</time></trkpt><trkpt lat="43.98084396485509" lon="11.954497493836893"><ele>486.0</ele><time>2026-04-06T06:46:53.999Z</time></trkpt><trkpt lat="43.98079504589784" lon="11.954556301609149"><ele>486.0</ele><time>2026-04-06T06:46:54.999Z</time></trkpt><trkpt lat="43.98070015376336" lon="11.954561981715544"><ele>478.20000000000005</ele><time>2026-04-06T06:46:56.999Z</time></trkpt><trkpt lat="43.98063154381521" lon="11.954416836075081"><ele>470.40000000000003</ele><time>2026-04-06T06:46:58.999Z</time></trkpt><trkpt lat="43.98059059030676" lon="11.954319703147457"><ele>462.6</ele><time>2026-04-06T06:46:59.999Z</time></trkpt><trkpt lat="43.98055684121947" lon="11.95421743352946"><ele>454.8</ele><time>2026-04-06T06:47:00.999Z</time></trkpt><trkpt lat="43.98053251334477" lon="11.954109828615076"><ele>447.0</ele><time>2026-04-06T06:47:01.999Z</time></trkpt><trkpt lat="43.98050081308915" lon="11.953979870021833"><ele>447.0</ele><time>2026-04-06T06:47:02.999Z</time></trkpt><trkpt lat="43.9804743431058" lon="11.953879264994994"><ele>447.00000000000006</ele><time>2026-04-06T06:47:03.999Z</time></trkpt><trkpt lat="43.98039089269448" lon="11.953847831284596"><ele>447.00000000000006</ele><time>2026-04-06T06:47:05.999Z</time></trkpt><trkpt lat="43.98035216542603" lon="11.954009968156685"><ele>447.0</ele><time>2026-04-06T06:47:07.999Z</time></trkpt><trkpt lat="43.98034786969541" lon="11.954110879869525"><ele>447.0</ele><time>2026-04-06T06:47:08.999Z</time></trkpt><trkpt lat="43.98033824991245" lon="11.954337056451177"><ele>447.0</ele><time>2026-04-06T06:47:09.999Z</time></trkpt><trkpt lat="43.980309102424805" lon="11.954470411984289"><ele>447.00000000000006</ele><time>2026-04-06T06:47:10.999Z</time></trkpt><trkpt lat="43.98029575705737" lon="11.954610492316421"><ele>447.00000000000006</ele><time>2026-04-06T06:47:11.999Z</time></trkpt><trkpt lat="43.98029609214585" lon="11.954743091965868"><ele>447.0</ele><time>2026-04-06T06:47:12.999Z</time></trkpt><trkpt lat="43.98031750081725" lon="11.954878039000082"><ele>447.0</ele><time>2026-04-06T06:47:13.999Z</time></trkpt><trkpt lat="43.98033432055176" lon="11.955017760644598"><ele>446.0</ele><time>2026-04-06T06:47:14.999Z</time></trkpt><trkpt lat="43.980348071389706" lon="11.955164717589948"><ele>445.00000000000006</ele><time>2026-04-06T06:47:15.999Z</time></trkpt><trkpt lat="43.98033266841477" lon="11.95528658207973"><ele>444.00000000000006</ele><time>2026-04-06T06:47:16.999Z</time></trkpt><trkpt lat="43.980315219251366" lon="11.955430251088462"><ele>443.0</ele><time>2026-04-06T06:47:17.999Z</time></trkpt><trkpt lat="43.980292728880464" lon="11.955563966242867"><ele>442.0</ele><time>2026-04-06T06:47:18.999Z</time></trkpt><trkpt lat="43.980265371133484" lon="11.955701166405774"><ele>442.00000000000006</ele><time>2026-04-06T06:47:19.999Z</time></trkpt><trkpt lat="43.9802366615993" lon="11.95582356072948"><ele>442.0</ele><time>2026-04-06T06:47:20.999Z</time></trkpt><trkpt lat="43.98021776882648" lon="11.955926916778024"><ele>442.0</ele><time>2026-04-06T06:47:21.999Z</time></trkpt><trkpt lat="43.98022426255266" lon="11.95602553621117"><ele>442.0</ele><time>2026-04-06T06:47:22.999Z</time></trkpt><trkpt lat="43.98025139999805" lon="11.956114903912066"><ele>442.00000000000006</ele><time>2026-04-06T06:47:23.999Z</time></trkpt><trkpt lat="43.98028811678312" lon="11.956211861791852"><ele>442.0</ele><time>2026-04-06T06:47:24.999Z</time></trkpt><trkpt lat="43.98032322028909" lon="11.956327289781768"><ele>440.50000000000006</ele><time>2026-04-06T06:47:25.999Z</time></trkpt><trkpt lat="43.980379733846476" lon="11.956437964223538"><ele>439.0</ele><time>2026-04-06T06:47:26.999Z</time></trkpt><trkpt lat="43.980414939300026" lon="11.956536963580065"><ele>437.5</ele><time>2026-04-06T06:47:27.999Z</time></trkpt><trkpt lat="43.980369166761406" lon="11.956664682742794"><ele>436.0</ele><time>2026-04-06T06:47:29.999Z</time></trkpt><trkpt lat="43.98030284087563" lon="11.95667767413756"><ele>434.50000000000006</ele><time>2026-04-06T06:47:30.999Z</time></trkpt><trkpt lat="43.98022846024453" lon="11.956656288150617"><ele>433.0</ele><time>2026-04-06T06:47:31.999Z</time></trkpt><trkpt lat="43.98014188182994" lon="11.956602380623924"><ele>433.0</ele><time>2026-04-06T06:47:32.999Z</time></trkpt><trkpt lat="43.980020468334125" lon="11.95658241389737"><ele>433.0</ele><time>2026-04-06T06:47:33.999Z</time></trkpt><trkpt lat="43.97988318882801" lon="11.956532311198616"><ele>433.0</ele><time>2026-04-06T06:47:34.999Z</time></trkpt><trkpt lat="43.97975668727515" lon="11.956456917724108"><ele>433.0</ele><time>2026-04-06T06:47:35.999Z</time></trkpt><trkpt lat="43.979631222399824" lon="11.956349393100908"><ele>428.33333333333337</ele><time>2026-04-06T06:47:36.999Z</time></trkpt><trkpt lat="43.97951792919011" lon="11.956205625329682"><ele>423.66666666666663</ele><time>2026-04-06T06:47:37.999Z</time></trkpt><trkpt lat="43.979411398796636" lon="11.956036046096271"><ele>419.0</ele><time>2026-04-06T06:47:38.999Z</time></trkpt><trkpt lat="43.97929873347134" lon="11.955877742351603"><ele>417.75</ele><time>2026-04-06T06:47:39.999Z</time></trkpt><trkpt lat="43.97919452471041" lon="11.955708861483176"><ele>416.5</ele><time>2026-04-06T06:47:40.999Z</time></trkpt><trkpt lat="43.97907827037379" lon="11.955574679540954"><ele>415.25</ele><time>2026-04-06T06:47:41.999Z</time></trkpt><trkpt lat="43.97898805170783" lon="11.955442170638344"><ele>414.0</ele><time>2026-04-06T06:47:42.999Z</time></trkpt><trkpt lat="43.97890913255435" lon="11.955327712159649"><ele>414.0</ele><time>2026-04-06T06:47:43.999Z</time></trkpt><trkpt lat="43.97882421392284" lon="11.955219663614564"><ele>414.0</ele><time>2026-04-06T06:47:44.999Z</time></trkpt><trkpt lat="43.97876541026562" lon="11.955110891471444"><ele>414.0</ele><time>2026-04-06T06:47:45.999Z</time></trkpt><trkpt lat="43.978651346208004" lon="11.955096649244014"><ele>414.0</ele><time>2026-04-06T06:47:46.999Z</time></trkpt><trkpt lat="43.97855748046036" lon="11.955103628991814"><ele>414.0</ele><time>2026-04-06T06:47:47.999Z</time></trkpt><trkpt lat="43.978442638945936" lon="11.955075640597371"><ele>412.5</ele><time>2026-04-06T06:47:48.999Z</time></trkpt><trkpt lat="43.97828697423824" lon="11.955023581974768"><ele>411.0</ele><time>2026-04-06T06:47:49.999Z</time></trkpt><trkpt lat="43.9781788517241" lon="11.95498560148541"><ele>409.5</ele><time>2026-04-06T06:47:50.999Z</time></trkpt><trkpt lat="43.978073204886364" lon="11.954955653755901"><ele>408.0</ele><time>2026-04-06T06:47:51.999Z</time></trkpt><trkpt lat="43.97795987468597" lon="11.954941478035"><ele>408.0</ele><time>2026-04-06T06:47:52.999Z</time></trkpt><trkpt lat="43.97782929242129" lon="11.9549391283282"><ele>408.0</ele><time>2026-04-06T06:47:53.999Z</time></trkpt><trkpt lat="43.97770389901964" lon="11.954931263601338"><ele>408.0</ele><time>2026-04-06T06:47:54.999Z</time></trkpt><trkpt lat="43.97759878711883" lon="11.954925554719697"><ele>408.0</ele><time>2026-04-06T06:47:55.999Z</time></trkpt><trkpt lat="43.97751206296518" lon="11.954921508417339"><ele>408.0</ele><time>2026-04-06T06:47:56.999Z</time></trkpt><trkpt lat="43.977453776722705" lon="11.95508459225534"><ele>410.4</ele><time>2026-04-06T06:47:58.999Z</time></trkpt><trkpt lat="43.97744730270063" lon="11.955213181162849"><ele>412.79999999999995</ele><time>2026-04-06T06:47:59.999Z</time></trkpt><trkpt lat="43.97743667495041" lon="11.955351918143068"><ele>415.2</ele><time>2026-04-06T06:48:00.999Z</time></trkpt><trkpt lat="43.97739518683291" lon="11.955499935599947"><ele>417.6</ele><time>2026-04-06T06:48:01.999Z</time></trkpt><trkpt lat="43.977323035067975" lon="11.955614755492093"><ele>420.0</ele><time>2026-04-06T06:48:02.999Z</time></trkpt><trkpt lat="43.977223862022974" lon="11.95569679070482"><ele>420.0</ele><time>2026-04-06T06:48:03.999Z</time></trkpt><trkpt lat="43.97713102997651" lon="11.955750408593467"><ele>420.0</ele><time>2026-04-06T06:48:04.999Z</time></trkpt><trkpt lat="43.97705015928726" lon="11.955806721586457"><ele>420.0</ele><time>2026-04-06T06:48:05.999Z</time></trkpt><trkpt lat="43.977003795603714" lon="11.955885871517507"><ele>420.0</ele><time>2026-04-06T06:48:06.999Z</time></trkpt><trkpt lat="43.9769870793738" lon="11.955980044868008"><ele>420.0</ele><time>2026-04-06T06:48:07.999Z</time></trkpt><trkpt lat="43.97699290294209" lon="11.956097477825223"><ele>420.0</ele><time>2026-04-06T06:48:08.999Z</time></trkpt><trkpt lat="43.97701620498858" lon="11.956234147294376"><ele>421.2</ele><time>2026-04-06T06:48:09.999Z</time></trkpt><trkpt lat="43.97705401357676" lon="11.956356015756652"><ele>422.4</ele><time>2026-04-06T06:48:10.999Z</time></trkpt><trkpt lat="43.97711182958662" lon="11.956474945762741"><ele>423.6</ele><time>2026-04-06T06:48:11.999Z</time></trkpt><trkpt lat="43.97717094292085" lon="11.956605433163826"><ele>424.8</ele><time>2026-04-06T06:48:12.999Z</time></trkpt><trkpt lat="43.977217984903746" lon="11.95675829873229"><ele>426.0</ele><time>2026-04-06T06:48:13.999Z</time></trkpt><trkpt lat="43.97723115550966" lon="11.956896675035866"><ele>426.20000000000005</ele><time>2026-04-06T06:48:14.999Z</time></trkpt><trkpt lat="43.97721187277025" lon="11.957031130299077"><ele>426.40000000000003</ele><time>2026-04-06T06:48:15.999Z</time></trkpt><trkpt lat="43.97718491784656" lon="11.957164438231024"><ele>426.6</ele><time>2026-04-06T06:48:16.999Z</time></trkpt><trkpt lat="43.97716639922343" lon="11.957311648861781"><ele>426.8</ele><time>2026-04-06T06:48:17.999Z</time></trkpt><trkpt lat="43.97716727417222" lon="11.95747516094646"><ele>427.0</ele><time>2026-04-06T06:48:18.999Z</time></trkpt><trkpt lat="43.977189969464966" lon="11.957618304050683"><ele>428.0</ele><time>2026-04-06T06:48:19.999Z</time></trkpt><trkpt lat="43.97721422005123" lon="11.957748609752835"><ele>429.00000000000006</ele><time>2026-04-06T06:48:20.999Z</time></trkpt><trkpt lat="43.97725679614637" lon="11.957867225490373"><ele>430.00000000000006</ele><time>2026-04-06T06:48:21.999Z</time></trkpt><trkpt lat="43.977303976824054" lon="11.957983126769097"><ele>431.0</ele><time>2026-04-06T06:48:22.999Z</time></trkpt><trkpt lat="43.9773376069573" lon="11.958084466138583"><ele>432.0</ele><time>2026-04-06T06:48:23.999Z</time></trkpt><trkpt lat="43.97734248060796" lon="11.958199679142114"><ele>432.0</ele><time>2026-04-06T06:48:24.999Z</time></trkpt><trkpt lat="43.97731546699611" lon="11.958345927663666"><ele>432.0</ele><time>2026-04-06T06:48:25.999Z</time></trkpt><trkpt lat="43.97728857683633" lon="11.958470875775685"><ele>432.0</ele><time>2026-04-06T06:48:26.999Z</time></trkpt><trkpt lat="43.977253196204245" lon="11.958550196015619"><ele>432.0</ele><time>2026-04-06T06:48:27.999Z</time></trkpt><trkpt lat="43.977184269037096" lon="11.958571867617472"><ele>432.0</ele><time>2026-04-06T06:48:28.999Z</time></trkpt><trkpt lat="43.97711998192435" lon="11.958545147589884"><ele>432.0</ele><time>2026-04-06T06:48:29.999Z</time></trkpt><trkpt lat="43.9770472527151" lon="11.958478226256018"><ele>434.6</ele><time>2026-04-06T06:48:30.999Z</time></trkpt><trkpt lat="43.97697527129828" lon="11.958440849419523"><ele>437.20000000000005</ele><time>2026-04-06T06:48:31.999Z</time></trkpt><trkpt lat="43.97688160418506" lon="11.958445945302708"><ele>439.8</ele><time>2026-04-06T06:48:32.999Z</time></trkpt><trkpt lat="43.976779377486295" lon="11.958476141089843"><ele>442.4</ele><time>2026-04-06T06:48:33.999Z</time></trkpt><trkpt lat="43.976684182985" lon="11.958508794164178"><ele>445.0</ele><time>2026-04-06T06:48:34.999Z</time></trkpt><trkpt lat="43.976578042753296" lon="11.958531847437655"><ele>446.25</ele><time>2026-04-06T06:48:35.999Z</time></trkpt><trkpt lat="43.9764655161488" lon="11.958566730113285"><ele>447.5</ele><time>2026-04-06T06:48:36.999Z</time></trkpt><trkpt lat="43.976365530098015" lon="11.958615374620214"><ele>448.75</ele><time>2026-04-06T06:48:37.999Z</time></trkpt><trkpt lat="43.97625436610003" lon="11.9586600324392"><ele>450.0</ele><time>2026-04-06T06:48:38.999Z</time></trkpt><trkpt lat="43.97613498902346" lon="11.958702836804036"><ele>450.0</ele><time>2026-04-06T06:48:39.999Z</time></trkpt><trkpt lat="43.976012891931305" lon="11.958732721485426"><ele>450.0</ele><time>2026-04-06T06:48:40.999Z</time></trkpt><trkpt lat="43.9758865864549" lon="11.958751401482564"><ele>450.0</ele><time>2026-04-06T06:48:41.999Z</time></trkpt><trkpt lat="43.975756698243295" lon="11.958776599643357"><ele>450.0</ele><time>2026-04-06T06:48:42.999Z</time></trkpt><trkpt lat="43.97560927637963" lon="11.958764373843199"><ele>451.5</ele><time>2026-04-06T06:48:43.999Z</time></trkpt><trkpt lat="43.975465724628286" lon="11.95877159379056"><ele>453.0</ele><time>2026-04-06T06:48:44.999Z</time></trkpt><trkpt lat="43.975333131660754" lon="11.958771576024702"><ele>454.5</ele><time>2026-04-06T06:48:45.999Z</time></trkpt><trkpt lat="43.975216561141345" lon="11.958757959364567"><ele>456.0</ele><time>2026-04-06T06:48:46.999Z</time></trkpt><trkpt lat="43.97511202007747" lon="11.958739240691097"><ele>454.6</ele><time>2026-04-06T06:48:47.999Z</time></trkpt><trkpt lat="43.97502001255204" lon="11.958733601683882"><ele>453.20000000000005</ele><time>2026-04-06T06:48:48.999Z</time></trkpt><trkpt lat="43.97495866063757" lon="11.958797500436148"><ele>451.79999999999995</ele><time>2026-04-06T06:48:49.999Z</time></trkpt><trkpt lat="43.974874286009616" lon="11.958872365748933"><ele>450.4</ele><time>2026-04-06T06:48:50.999Z</time></trkpt><trkpt lat="43.97477244638099" lon="11.958937496245593"><ele>449.0</ele><time>2026-04-06T06:48:51.999Z</time></trkpt><trkpt lat="43.97465600121385" lon="11.958955293844696"><ele>449.0</ele><time>2026-04-06T06:48:52.999Z</time></trkpt><trkpt lat="43.97452945401109" lon="11.958933404648509"><ele>449.0</ele><time>2026-04-06T06:48:53.999Z</time></trkpt><trkpt lat="43.97441047853916" lon="11.958921916462034"><ele>449.0</ele><time>2026-04-06T06:48:54.999Z</time></trkpt><trkpt lat="43.97430035108189" lon="11.95892725657315"><ele>449.0</ele><time>2026-04-06T06:48:55.999Z</time></trkpt><trkpt lat="43.974179915637" lon="11.95894318053926"><ele>447.6</ele><time>2026-04-06T06:48:56.999Z</time></trkpt><trkpt lat="43.974070324811024" lon="11.958953923594159"><ele>446.2</ele><time>2026-04-06T06:48:57.999Z</time></trkpt><trkpt lat="43.97397717203472" lon="11.958990175198048"><ele>444.80000000000007</ele><time>2026-04-06T06:48:58.999Z</time></trkpt><trkpt lat="43.97387504372081" lon="11.959028969255558"><ele>443.40000000000003</ele><time>2026-04-06T06:48:59.999Z</time></trkpt><trkpt lat="43.97377888247095" lon="11.959090533202342"><ele>442.0</ele><time>2026-04-06T06:49:00.999Z</time></trkpt><trkpt lat="43.97368104134606" lon="11.95910571514404"><ele>442.0</ele><time>2026-04-06T06:49:01.999Z</time></trkpt><trkpt lat="43.9735908295528" lon="11.959066336183657"><ele>442.00000000000006</ele><time>2026-04-06T06:49:02.999Z</time></trkpt><trkpt lat="43.97350944445868" lon="11.959013725958812"><ele>442.00000000000006</ele><time>2026-04-06T06:49:03.999Z</time></trkpt><trkpt lat="43.97341717163868" lon="11.958971546412977"><ele>442.0</ele><time>2026-04-06T06:49:04.999Z</time></trkpt><trkpt lat="43.9733284680176" lon="11.95891628104217"><ele>442.0</ele><time>2026-04-06T06:49:05.999Z</time></trkpt><trkpt lat="43.97324335096747" lon="11.958877548274362"><ele>440.00000000000006</ele><time>2026-04-06T06:49:06.999Z</time></trkpt><trkpt lat="43.97316716100774" lon="11.958855264764761"><ele>438.0</ele><time>2026-04-06T06:49:07.999Z</time></trkpt><trkpt lat="43.97308614326183" lon="11.958847766304293"><ele>436.0</ele><time>2026-04-06T06:49:08.999Z</time></trkpt><trkpt lat="43.97299648211545" lon="11.95885791509084"><ele>434.0</ele><time>2026-04-06T06:49:09.999Z</time></trkpt><trkpt lat="43.972904157298174" lon="11.958877086879927"><ele>432.00000000000006</ele><time>2026-04-06T06:49:10.999Z</time></trkpt><trkpt lat="43.97281367203242" lon="11.958904560964706"><ele>430.0</ele><time>2026-04-06T06:49:11.999Z</time></trkpt><trkpt lat="43.97273012520899" lon="11.958955621489425"><ele>430.0</ele><time>2026-04-06T06:49:12.999Z</time></trkpt><trkpt lat="43.97263310710369" lon="11.959016956824346"><ele>430.0</ele><time>2026-04-06T06:49:13.999Z</time></trkpt><trkpt lat="43.972531794712474" lon="11.95907326026037"><ele>430.0</ele><time>2026-04-06T06:49:14.999Z</time></trkpt><trkpt lat="43.97244538935172" lon="11.959141761460568"><ele>430.0</ele><time>2026-04-06T06:49:15.999Z</time></trkpt><trkpt lat="43.97234855594992" lon="11.959200001678578"><ele>430.0</ele><time>2026-04-06T06:49:16.999Z</time></trkpt><trkpt lat="43.97228247479281" lon="11.959290874772163"><ele>428.1666666666667</ele><time>2026-04-06T06:49:17.999Z</time></trkpt><trkpt lat="43.97222726497813" lon="11.959366372756866"><ele>426.33333333333337</ele><time>2026-04-06T06:49:18.999Z</time></trkpt><trkpt lat="43.97217907358928" lon="11.959441194693039"><ele>424.5</ele><time>2026-04-06T06:49:19.999Z</time></trkpt><trkpt lat="43.9721497708949" lon="11.959546718537016"><ele>422.66666666666663</ele><time>2026-04-06T06:49:20.999Z</time></trkpt><trkpt lat="43.972186744259055" lon="11.959660593834686"><ele>420.8333333333333</ele><time>2026-04-06T06:49:21.999Z</time></trkpt><trkpt lat="43.97222985862816" lon="11.959747772830266"><ele>419.0</ele><time>2026-04-06T06:49:22.999Z</time></trkpt><trkpt lat="43.97225437351596" lon="11.959843483877997"><ele>418.99999999999994</ele><time>2026-04-06T06:49:23.999Z</time></trkpt><trkpt lat="43.97229088630503" lon="11.95997702994386"><ele>419.0</ele><time>2026-04-06T06:49:25.999Z</time></trkpt><trkpt lat="43.97219829761298" lon="11.959939050222596"><ele>419.0</ele><time>2026-04-06T06:49:27.999Z</time></trkpt><trkpt lat="43.972133328005235" lon="11.95995275147497"><ele>419.0</ele><time>2026-04-06T06:49:28.999Z</time></trkpt><trkpt lat="43.97206788602299" lon="11.959977676278724"><ele>418.99999999999994</ele><time>2026-04-06T06:49:29.999Z</time></trkpt><trkpt lat="43.97197126714735" lon="11.96001836342802"><ele>419.0</ele><time>2026-04-06T06:49:30.999Z</time></trkpt><trkpt lat="43.97189704865143" lon="11.960057288411972"><ele>419.0</ele><time>2026-04-06T06:49:31.999Z</time></trkpt><trkpt lat="43.97182806817048" lon="11.9601210204234"><ele>419.0</ele><time>2026-04-06T06:49:32.999Z</time></trkpt><trkpt lat="43.971769417007" lon="11.960174609314162"><ele>419.0</ele><time>2026-04-06T06:49:33.999Z</time></trkpt><trkpt lat="43.9717089423988" lon="11.960270785132039"><ele>419.0</ele><time>2026-04-06T06:49:34.999Z</time></trkpt><trkpt lat="43.971632385067636" lon="11.960397198795551"><ele>419.0</ele><time>2026-04-06T06:49:35.999Z</time></trkpt><trkpt lat="43.97157929046862" lon="11.96053704446958"><ele>419.0</ele><time>2026-04-06T06:49:36.999Z</time></trkpt><trkpt lat="43.97152821860225" lon="11.960672344635377"><ele>419.0</ele><time>2026-04-06T06:49:38Z</time></trkpt><trkpt lat="43.97146511183402" lon="11.960792770129872"><ele>419.0</ele><time>2026-04-06T06:49:39Z</time></trkpt><trkpt lat="43.97138334512739" lon="11.960917814257412"><ele>419.0</ele><time>2026-04-06T06:49:40Z</time></trkpt><trkpt lat="43.971307140798224" lon="11.96102313928594"><ele>419.0</ele><time>2026-04-06T06:49:41Z</time></trkpt><trkpt lat="43.97124499945532" lon="11.961105077150341"><ele>422.2</ele><time>2026-04-06T06:49:42Z</time></trkpt><trkpt lat="43.97118091547395" lon="11.961211779065003"><ele>425.4</ele><time>2026-04-06T06:49:43Z</time></trkpt><trkpt lat="43.97111723042571" lon="11.961324508441475"><ele>428.6</ele><time>2026-04-06T06:49:44Z</time></trkpt><trkpt lat="43.97105907747206" lon="11.961457171509428"><ele>431.8</ele><time>2026-04-06T06:49:45Z</time></trkpt><trkpt lat="43.97100238158386" lon="11.96158672061476"><ele>435.0</ele><time>2026-04-06T06:49:46Z</time></trkpt><trkpt lat="43.970936753255295" lon="11.961724932100704"><ele>438.0</ele><time>2026-04-06T06:49:47Z</time></trkpt><trkpt lat="43.9708701216114" lon="11.961863552572387"><ele>441.0</ele><time>2026-04-06T06:49:48Z</time></trkpt><trkpt lat="43.97080147460271" lon="11.961990179237908"><ele>444.0</ele><time>2026-04-06T06:49:49Z</time></trkpt><trkpt lat="43.97073177576535" lon="11.962101928079766"><ele>447.0</ele><time>2026-04-06T06:49:50Z</time></trkpt><trkpt lat="43.97066061498362" lon="11.962207969911448"><ele>450.0</ele><time>2026-04-06T06:49:51Z</time></trkpt><trkpt lat="43.970589810296964" lon="11.962311690674985"><ele>447.0</ele><time>2026-04-06T06:49:52Z</time></trkpt><trkpt lat="43.970505033747244" lon="11.962392206947404"><ele>444.0</ele><time>2026-04-06T06:49:53Z</time></trkpt><trkpt lat="43.97043581856216" lon="11.962481982700977"><ele>441.0</ele><time>2026-04-06T06:49:54Z</time></trkpt><trkpt lat="43.970378847218385" lon="11.962555878111534"><ele>438.0</ele><time>2026-04-06T06:49:55Z</time></trkpt><trkpt lat="43.97031476468244" lon="11.962629219036774"><ele>435.0</ele><time>2026-04-06T06:49:56Z</time></trkpt><trkpt lat="43.97026086524283" lon="11.962680629560689"><ele>432.0</ele><time>2026-04-06T06:49:57Z</time></trkpt><trkpt lat="43.97020557229112" lon="11.962725249311806"><ele>432.0</ele><time>2026-04-06T06:49:58Z</time></trkpt><trkpt lat="43.97013240724377" lon="11.96277583723642"><ele>432.00000000000006</ele><time>2026-04-06T06:49:59Z</time></trkpt><trkpt lat="43.970048405251625" lon="11.962851236953597"><ele>432.00000000000006</ele><time>2026-04-06T06:50:00Z</time></trkpt><trkpt lat="43.96994601768316" lon="11.962901354663268"><ele>432.0</ele><time>2026-04-06T06:50:01Z</time></trkpt><trkpt lat="43.969848781818214" lon="11.962939044058128"><ele>432.0</ele><time>2026-04-06T06:50:02Z</time></trkpt><trkpt lat="43.96972690634659" lon="11.962960223226524"><ele>429.8</ele><time>2026-04-06T06:50:03Z</time></trkpt><trkpt lat="43.969609341969154" lon="11.962980780352167"><ele>427.6</ele><time>2026-04-06T06:50:04Z</time></trkpt><trkpt lat="43.96951148558965" lon="11.962982248157447"><ele>425.40000000000003</ele><time>2026-04-06T06:50:05Z</time></trkpt><trkpt lat="43.969401165837475" lon="11.962977575279526"><ele>423.20000000000005</ele><time>2026-04-06T06:50:06Z</time></trkpt><trkpt lat="43.969288011718916" lon="11.962986232384337"><ele>421.0</ele><time>2026-04-06T06:50:07Z</time></trkpt><trkpt lat="43.9691837371584" lon="11.963015562891732"><ele>419.25</ele><time>2026-04-06T06:50:08Z</time></trkpt><trkpt lat="43.96909444450418" lon="11.963096221494329"><ele>417.5</ele><time>2026-04-06T06:50:09Z</time></trkpt><trkpt lat="43.968992744384536" lon="11.963218254621797"><ele>415.75</ele><time>2026-04-06T06:50:10Z</time></trkpt><trkpt lat="43.96887790276826" lon="11.963331001628411"><ele>414.0</ele><time>2026-04-06T06:50:11Z</time></trkpt><trkpt lat="43.968773947990556" lon="11.963382594696478"><ele>414.5</ele><time>2026-04-06T06:50:12Z</time></trkpt><trkpt lat="43.96866970735253" lon="11.963448298445556"><ele>415.0</ele><time>2026-04-06T06:50:13Z</time></trkpt><trkpt lat="43.968555756570034" lon="11.963510621621783"><ele>415.5</ele><time>2026-04-06T06:50:14Z</time></trkpt><trkpt lat="43.96844237938608" lon="11.963559702991036"><ele>416.0</ele><time>2026-04-06T06:50:15Z</time></trkpt><trkpt lat="43.968339066593884" lon="11.963596640528532"><ele>415.99999999999994</ele><time>2026-04-06T06:50:16Z</time></trkpt><trkpt lat="43.96825169088443" lon="11.96362809630639"><ele>416.0</ele><time>2026-04-06T06:50:17Z</time></trkpt><trkpt lat="43.968180846236905" lon="11.96365961421978"><ele>416.0</ele><time>2026-04-06T06:50:18Z</time></trkpt><trkpt lat="43.9681124923535" lon="11.963696296406722"><ele>416.0</ele><time>2026-04-06T06:50:19Z</time></trkpt><trkpt lat="43.968045874873624" lon="11.963737786702975"><ele>415.99999999999994</ele><time>2026-04-06T06:50:20Z</time></trkpt><trkpt lat="43.96797510108878" lon="11.963782349444719"><ele>416.0</ele><time>2026-04-06T06:50:21Z</time></trkpt><trkpt lat="43.9679119000624" lon="11.963820377315102"><ele>416.0</ele><time>2026-04-06T06:50:22Z</time></trkpt><trkpt lat="43.96781204117719" lon="11.963834910428004"><ele>416.0</ele><time>2026-04-06T06:50:24Z</time></trkpt><trkpt lat="43.96777297440371" lon="11.96366830268856"><ele>416.0</ele><time>2026-04-06T06:50:26Z</time></trkpt><trkpt lat="43.96775473242932" lon="11.963549733063967"><ele>416.0</ele><time>2026-04-06T06:50:28Z</time></trkpt><trkpt lat="43.967676916072804" lon="11.963587243135725"><ele>416.0</ele><time>2026-04-06T06:50:50Z</time></trkpt><trkpt lat="43.96767975159936" lon="11.963717556834958"><ele>415.99999999999994</ele><time>2026-04-06T06:50:52Z</time></trkpt><trkpt lat="43.96772095572612" lon="11.963822354897173"><ele>416.0</ele><time>2026-04-06T06:50:54Z</time></trkpt><trkpt lat="43.96776423996439" lon="11.963913166378958"><ele>416.0</ele><time>2026-04-06T06:50:56Z</time></trkpt><trkpt lat="43.96775581059161" lon="11.964006015129648"><ele>416.0</ele><time>2026-04-06T06:51:00Z</time></trkpt><trkpt lat="43.96768420389104" lon="11.964042591905976"><ele>415.99999999999994</ele><time>2026-04-06T06:51:03Z</time></trkpt><trkpt lat="43.967619235155915" lon="11.964010302252039"><ele>416.0</ele><time>2026-04-06T06:51:06Z</time></trkpt><trkpt lat="43.96754997461386" lon="11.963972761130217"><ele>416.0</ele><time>2026-04-06T06:51:10Z</time></trkpt><trkpt lat="43.9675506889682" lon="11.964063742724587"><ele>416.0</ele><time>2026-04-06T06:51:13Z</time></trkpt><trkpt lat="43.96760927328617" lon="11.964098244485239"><ele>416.0</ele><time>2026-04-06T06:51:16Z</time></trkpt><trkpt lat="43.967569789089666" lon="11.964185622663477"><ele>416.0</ele><time>2026-04-06T06:51:43Z</time></trkpt><trkpt lat="43.96749285249736" lon="11.96421365420083"><ele>416.0</ele><time>2026-04-06T06:51:46Z</time></trkpt><trkpt lat="43.96742368503224" lon="11.964195351544697"><ele>416.0</ele><time>2026-04-06T06:51:50Z</time></trkpt><trkpt lat="43.96735699872017" lon="11.964136107679137"><ele>416.0</ele><time>2026-04-06T06:52:54Z</time></trkpt><trkpt lat="43.96730401579041" lon="11.964185385446418"><ele>415.85714285714283</ele><time>2026-04-06T06:54:05Z</time></trkpt><trkpt lat="43.96729878556831" lon="11.964275841214109"><ele>415.7142857142857</ele><time>2026-04-06T07:01:15Z</time></trkpt><trkpt lat="43.96729622482253" lon="11.964178652858427"><ele>415.57142857142856</ele><time>2026-04-06T07:03:43Z</time></trkpt><trkpt lat="43.96729818177223" lon="11.964282087773782"><ele>415.42857142857144</ele><time>2026-04-06T07:03:53Z</time></trkpt><trkpt lat="43.96726780437172" lon="11.96436321696198"><ele>415.28571428571433</ele><time>2026-04-06T07:05:16Z</time></trkpt><trkpt lat="43.96726842600579" lon="11.964458146302679"><ele>415.14285714285717</ele><time>2026-04-06T07:06:34Z</time></trkpt><trkpt lat="43.967204209731186" lon="11.96444359011045"><ele>415.0</ele><time>2026-04-06T07:08:00Z</time></trkpt><trkpt lat="43.96729878556831" lon="11.964275841214109"><ele>415.0</ele><time>2026-04-06T07:01:15Z</time></trkpt><trkpt lat="43.96729622482253" lon="11.964178652858427"><ele>415.0</ele><time>2026-04-06T07:03:43Z</time></trkpt><trkpt lat="43.96729818177223" lon="11.964282087773782"><ele>415.0</ele><time>2026-04-06T07:03:53Z</time></trkpt><trkpt lat="43.96726780437172" lon="11.96436321696198"><ele>415.0</ele><time>2026-04-06T07:05:16Z</time></trkpt><trkpt lat="43.96726842600579" lon="11.964458146302679"><ele>415.0</ele><time>2026-04-06T07:06:34Z</time></trkpt><trkpt lat="43.967204209731186" lon="11.96444359011045"><ele>415.0</ele><time>2026-04-06T07:08:00Z</time></trkpt><trkpt lat="43.96717769451355" lon="11.964524594626612"><ele>415.0</ele><time>2026-04-06T07:11:00Z</time></trkpt><trkpt lat="43.96720584533796" lon="11.964630135293902"><ele>415.0</ele><time>2026-04-06T07:11:09Z</time></trkpt><trkpt lat="43.967141515666356" lon="11.964621006592123"><ele>415.0</ele><time>2026-04-06T07:11:43Z</time></trkpt><trkpt lat="43.967079586090264" lon="11.964536679957817"><ele>415.0</ele><time>2026-04-06T07:11:47Z</time></trkpt><trkpt lat="43.96699515609424" lon="11.964508028501886"><ele>415.0</ele><time>2026-04-06T07:11:50Z</time></trkpt><trkpt lat="43.96701184759925" lon="11.964608391977412"><ele>415.0</ele><time>2026-04-06T07:14:27Z</time></trkpt><trkpt lat="43.9670033389444" lon="11.964699204241931"><ele>415.0</ele><time>2026-04-06T07:15:32Z</time></trkpt><trkpt lat="43.96694382865791" lon="11.964747664993045"><ele>415.0</ele><time>2026-04-06T07:19:59Z</time></trkpt><trkpt lat="43.966872194873986" lon="11.964706591379988"><ele>415.00000000000006</ele><time>2026-04-06T07:21:23.999Z</time></trkpt><trkpt lat="43.96684454294457" lon="11.96478706361636"><ele>415.0</ele><time>2026-04-06T07:22:45Z</time></trkpt><trkpt lat="43.96690410208997" lon="11.964855889516443"><ele>415.0</ele><time>2026-04-06T07:22:51Z</time></trkpt><trkpt lat="43.966842736895146" lon="11.964880781780037"><ele>415.0</ele><time>2026-04-06T07:22:55.999Z</time></trkpt><trkpt lat="43.96676430814037" lon="11.964902020324649"><ele>415.00000000000006</ele><time>2026-04-06T07:23:12.999Z</time></trkpt><trkpt lat="43.96669763522081" lon="11.964925288368205"><ele>415.0</ele><time>2026-04-06T07:23:35.999Z</time></trkpt><trkpt lat="43.9667999927213" lon="11.964907471883771"><ele>415.00000000000006</ele><time>2026-04-06T07:27:12.999Z</time></trkpt><trkpt lat="43.9667228620805" lon="11.964912876596117"><ele>415.0</ele><time>2026-04-06T07:27:49.999Z</time></trkpt><trkpt lat="43.96665741802921" lon="11.964938826249425"><ele>415.0</ele><time>2026-04-06T07:31:57Z</time></trkpt><trkpt lat="43.966587628099376" lon="11.96494483081627"><ele>415.0</ele><time>2026-04-06T07:32:18Z</time></trkpt><trkpt lat="43.966518592206214" lon="11.9649934922991"><ele>415.00000000000006</ele><time>2026-04-06T07:32:22Z</time></trkpt><trkpt lat="43.966436075294865" lon="11.965043574127725"><ele>415.0</ele><time>2026-04-06T07:32:29Z</time></trkpt><trkpt lat="43.966493621879785" lon="11.965111174562152"><ele>422.83333333333337</ele><time>2026-04-06T07:32:33Z</time></trkpt><trkpt lat="43.96655636771241" lon="11.965175025503209"><ele>430.6666666666667</ele><time>2026-04-06T07:32:37Z</time></trkpt><trkpt lat="43.9666129485781" lon="11.965231039887637"><ele>438.5</ele><time>2026-04-06T07:32:41Z</time></trkpt><trkpt lat="43.96663461916545" lon="11.96534950083862"><ele>446.33333333333337</ele><time>2026-04-06T07:32:44Z</time></trkpt><trkpt lat="43.966559987867704" lon="11.965358781131886"><ele>454.1666666666667</ele><time>2026-04-06T07:33:03Z</time></trkpt><trkpt lat="43.96649311984069" lon="11.965326968783996"><ele>462.0</ele><time>2026-04-06T07:33:08Z</time></trkpt><trkpt lat="43.96640371828811" lon="11.965347240582352"><ele>462.0</ele><time>2026-04-06T07:33:10Z</time></trkpt><trkpt lat="43.966331596607134" lon="11.965394195925553"><ele>462.0</ele><time>2026-04-06T07:33:13Z</time></trkpt><trkpt lat="43.96640092926677" lon="11.965430883614877"><ele>462.0</ele><time>2026-04-06T07:33:21Z</time></trkpt><trkpt lat="43.966398752491074" lon="11.965553471572383"><ele>462.0</ele><time>2026-04-06T07:33:25Z</time></trkpt><trkpt lat="43.96633206686972" lon="11.965619909434556"><ele>462.0</ele><time>2026-04-06T07:33:34Z</time></trkpt><trkpt lat="43.96627500269005" lon="11.96569585055408"><ele>462.0</ele><time>2026-04-06T07:33:37Z</time></trkpt><trkpt lat="43.96621348722692" lon="11.965767980799486"><ele>462.0</ele><time>2026-04-06T07:33:40Z</time></trkpt><trkpt lat="43.96614346985463" lon="11.965748159961601"><ele>462.0</ele><time>2026-04-06T07:33:43Z</time></trkpt><trkpt lat="43.96608997590539" lon="11.965801989832421"><ele>462.0</ele><time>2026-04-06T07:33:46Z</time></trkpt><trkpt lat="43.96604286425246" lon="11.965889959507273"><ele>462.0</ele><time>2026-04-06T07:33:48Z</time></trkpt><trkpt lat="43.96603814678188" lon="11.965985027655973"><ele>462.0</ele><time>2026-04-06T07:33:53Z</time></trkpt><trkpt lat="43.96600376657697" lon="11.96607601794078"><ele>462.0</ele><time>2026-04-06T07:33:55Z</time></trkpt><trkpt lat="43.96596448862669" lon="11.966182683875735"><ele>462.0</ele><time>2026-04-06T07:33:57Z</time></trkpt><trkpt lat="43.965899372970675" lon="11.966233446278217"><ele>466.8333333333333</ele><time>2026-04-06T07:34:00Z</time></trkpt><trkpt lat="43.96582653433732" lon="11.96628290742586"><ele>471.66666666666663</ele><time>2026-04-06T07:34:03Z</time></trkpt><trkpt lat="43.96573776151712" lon="11.966359334639469"><ele>476.5</ele><time>2026-04-06T07:34:05Z</time></trkpt><trkpt lat="43.96567084455784" lon="11.966432588482881"><ele>481.3333333333333</ele><time>2026-04-06T07:34:07Z</time></trkpt><trkpt lat="43.96561341689609" lon="11.96651592505059"><ele>486.16666666666663</ele><time>2026-04-06T07:34:09Z</time></trkpt><trkpt lat="43.9655689587319" lon="11.966604140747918"><ele>491.0</ele><time>2026-04-06T07:39:51Z</time></trkpt><trkpt lat="43.965532627114065" lon="11.966714462056459"><ele>490.99999999999994</ele><time>2026-04-06T07:39:53Z</time></trkpt><trkpt lat="43.96550247150133" lon="11.96683617222155"><ele>491.0</ele><time>2026-04-06T07:39:55Z</time></trkpt><trkpt lat="43.965470050923535" lon="11.966944492848906"><ele>491.0</ele><time>2026-04-06T07:39:57Z</time></trkpt><trkpt lat="43.96542974391573" lon="11.967033101736718"><ele>491.0</ele><time>2026-04-06T07:39:59Z</time></trkpt><trkpt lat="43.96539790881009" lon="11.967152222563046"><ele>490.99999999999994</ele><time>2026-04-06T07:40:01Z</time></trkpt><trkpt lat="43.9653868355765" lon="11.96724320754835"><ele>491.0</ele><time>2026-04-06T07:40:03Z</time></trkpt><trkpt lat="43.96533936522133" lon="11.967361141928347"><ele>490.99999999999994</ele><time>2026-04-06T07:40:06Z</time></trkpt><trkpt lat="43.96530491570014" lon="11.967454753227207"><ele>491.0</ele><time>2026-04-06T07:40:09Z</time></trkpt><trkpt lat="43.965234351014736" lon="11.967485093830488"><ele>491.0</ele><time>2026-04-06T07:40:13Z</time></trkpt><trkpt lat="43.96519551536687" lon="11.96760209964668"><ele>491.0</ele><time>2026-04-06T07:40:15Z</time></trkpt><trkpt lat="43.96512706711758" lon="11.967711664815612"><ele>490.99999999999994</ele><time>2026-04-06T07:40:18Z</time></trkpt><trkpt lat="43.96513123940788" lon="11.967812149455513"><ele>491.0</ele><time>2026-04-06T07:40:23Z</time></trkpt><trkpt lat="43.965121004637304" lon="11.96790114398973"><ele>491.1428571428571</ele><time>2026-04-06T07:40:37Z</time></trkpt><trkpt lat="43.96504835822949" lon="11.967900427852593"><ele>491.2857142857142</ele><time>2026-04-06T07:40:43Z</time></trkpt><trkpt lat="43.965029247104155" lon="11.967991144067206"><ele>491.42857142857144</ele><time>2026-04-06T07:41:00Z</time></trkpt><trkpt lat="43.96505293494914" lon="11.968072831814501"><ele>491.57142857142856</ele><time>2026-04-06T07:41:02Z</time></trkpt><trkpt lat="43.964986218605205" lon="11.968070762147635"><ele>491.7142857142857</ele><time>2026-04-06T07:41:05Z</time></trkpt><trkpt lat="43.96491629618209" lon="11.968104513375184"><ele>491.8571428571429</ele><time>2026-04-06T07:43:14Z</time></trkpt><trkpt lat="43.96488743097858" lon="11.968211783285307"><ele>492.00000000000006</ele><time>2026-04-06T07:43:16Z</time></trkpt><trkpt lat="43.964862398959625" lon="11.968297997927046"><ele>501.1666666666667</ele><time>2026-04-06T07:43:19Z</time></trkpt><trkpt lat="43.96477494670417" lon="11.9683434529166"><ele>510.33333333333337</ele><time>2026-04-06T07:43:39Z</time></trkpt><trkpt lat="43.96476411699936" lon="11.968447475566535"><ele>519.5</ele><time>2026-04-06T07:44:03Z</time></trkpt><trkpt lat="43.96475505380878" lon="11.968551173403204"><ele>528.6666666666667</ele><time>2026-04-06T07:44:06Z</time></trkpt><trkpt lat="43.9646559247671" lon="11.968546872058761"><ele>537.8333333333334</ele><time>2026-04-06T07:44:11Z</time></trkpt><trkpt lat="43.96463762977056" lon="11.968458571852997"><ele>547.0</ele><time>2026-04-06T07:44:15Z</time></trkpt><trkpt lat="43.96456324035508" lon="11.96842890592039"><ele>547.0</ele><time>2026-04-06T07:46:54Z</time></trkpt><trkpt lat="43.96448340303802" lon="11.968322498558956"><ele>547.0</ele><time>2026-04-06T07:46:55.999Z</time></trkpt><trkpt lat="43.964423356653796" lon="11.968269770104955"><ele>547.0</ele><time>2026-04-06T07:46:56.999Z</time></trkpt><trkpt lat="43.964309944016804" lon="11.968206523820843"><ele>547.0</ele><time>2026-04-06T07:46:58.999Z</time></trkpt><trkpt lat="43.964210847934226" lon="11.968143024441785"><ele>547.0</ele><time>2026-04-06T07:47:00.999Z</time></trkpt><trkpt lat="43.96419570990978" lon="11.968056495718523"><ele>547.0</ele><time>2026-04-06T07:47:01.999Z</time></trkpt><trkpt lat="43.964197462408" lon="11.967953115224306"><ele>547.0</ele><time>2026-04-06T07:47:03.999Z</time></trkpt><trkpt lat="43.964168649166105" lon="11.967817674806982"><ele>547.0</ele><time>2026-04-06T07:47:06.999Z</time></trkpt><trkpt lat="43.96415696630138" lon="11.967711113727544"><ele>547.0</ele><time>2026-04-06T07:47:08.999Z</time></trkpt><trkpt lat="43.96413575270681" lon="11.967590296716903"><ele>547.0</ele><time>2026-04-06T07:47:10.999Z</time></trkpt><trkpt lat="43.96408477730041" lon="11.96747315759972"><ele>547.0</ele><time>2026-04-06T07:47:13Z</time></trkpt><trkpt lat="43.964038781541205" lon="11.967352766940206"><ele>546.8571428571429</ele><time>2026-04-06T07:47:15Z</time></trkpt><trkpt lat="43.963988418545625" lon="11.9672648614518"><ele>546.7142857142857</ele><time>2026-04-06T07:47:18Z</time></trkpt><trkpt lat="43.963929754466925" lon="11.967219210633717"><ele>546.5714285714286</ele><time>2026-04-06T07:47:21Z</time></trkpt><trkpt lat="43.96386239637914" lon="11.967247923201585"><ele>546.4285714285714</ele><time>2026-04-06T07:47:23Z</time></trkpt><trkpt lat="43.96379591991477" lon="11.967315502898357"><ele>546.2857142857142</ele><time>2026-04-06T07:47:26Z</time></trkpt><trkpt lat="43.96373604189639" lon="11.967351256171332"><ele>546.1428571428571</ele><time>2026-04-06T07:47:31Z</time></trkpt><trkpt lat="43.96371367231383" lon="11.967254992349815"><ele>546.0</ele><time>2026-04-06T07:47:35Z</time></trkpt><trkpt lat="43.963750800843044" lon="11.96716008532396"><ele>546.0</ele><time>2026-04-06T07:47:38Z</time></trkpt><trkpt lat="43.96381066792789" lon="11.967073478287283"><ele>546.0</ele><time>2026-04-06T07:47:40Z</time></trkpt><trkpt lat="43.96382986062597" lon="11.966984118039981"><ele>546.0</ele><time>2026-04-06T07:47:42Z</time></trkpt><trkpt lat="43.96389232317386" lon="11.966905875284748"><ele>546.0</ele><time>2026-04-06T07:47:45Z</time></trkpt><trkpt lat="43.963960563443884" lon="11.966876168689646"><ele>546.0</ele><time>2026-04-06T07:47:49Z</time></trkpt><trkpt lat="43.96403850655378" lon="11.966870977535013"><ele>546.0</ele><time>2026-04-06T07:47:59Z</time></trkpt><trkpt lat="43.964093708031285" lon="11.966921273623761"><ele>546.0</ele><time>2026-04-06T07:48:03Z</time></trkpt><trkpt lat="43.964151656538874" lon="11.96697923513797"><ele>546.0</ele><time>2026-04-06T07:48:09Z</time></trkpt><trkpt lat="43.964221133760475" lon="11.967021147533071"><ele>546.0</ele><time>2026-04-06T07:48:13Z</time></trkpt><trkpt lat="43.964288574103854" lon="11.967048098880504"><ele>546.0</ele><time>2026-04-06T07:48:17Z</time></trkpt><trkpt lat="43.96425463573675" lon="11.966965700801628"><ele>546.0</ele><time>2026-04-06T07:48:22Z</time></trkpt><trkpt lat="43.964182531227436" lon="11.966867460217754"><ele>546.0</ele><time>2026-04-06T07:48:25Z</time></trkpt><trkpt lat="43.96411913852307" lon="11.966824130062832"><ele>546.0</ele><time>2026-04-06T07:48:29Z</time></trkpt><trkpt lat="43.964062621788834" lon="11.966769594846962"><ele>546.0</ele><time>2026-04-06T07:48:32Z</time></trkpt><trkpt lat="43.96401899922849" lon="11.966678102602755"><ele>546.0</ele><time>2026-04-06T07:48:37Z</time></trkpt><trkpt lat="43.9639564458097" lon="11.966597223270416"><ele>546.0</ele><time>2026-04-06T07:48:40Z</time></trkpt><trkpt lat="43.96389348824159" lon="11.966549390838656"><ele>546.0</ele><time>2026-04-06T07:48:42Z</time></trkpt><trkpt lat="43.96382531924724" lon="11.966538886378197"><ele>546.0</ele><time>2026-04-06T07:48:45Z</time></trkpt><trkpt lat="43.96375669875017" lon="11.966583438465292"><ele>546.0</ele><time>2026-04-06T07:49:03Z</time></trkpt><trkpt lat="43.963711410906285" lon="11.96666306926849"><ele>546.0</ele><time>2026-04-06T07:49:10Z</time></trkpt><trkpt lat="43.96364129486647" lon="11.96675908074295"><ele>546.0</ele><time>2026-04-06T07:49:13Z</time></trkpt><trkpt lat="43.963602331165426" lon="11.966855690578535"><ele>546.0</ele><time>2026-04-06T07:49:15Z</time></trkpt><trkpt lat="43.96356335579935" lon="11.96695146293463"><ele>546.0</ele><time>2026-04-06T07:49:17Z</time></trkpt><trkpt lat="43.96350513226352" lon="11.967061075518052"><ele>546.0</ele><time>2026-04-06T07:49:20Z</time></trkpt><trkpt lat="43.96345402070292" lon="11.967158878109698"><ele>546.0</ele><time>2026-04-06T07:49:22Z</time></trkpt><trkpt lat="43.963393992751286" lon="11.967256270473115"><ele>546.0</ele><time>2026-04-06T07:49:24Z</time></trkpt><trkpt lat="43.963366703732106" lon="11.967343440941992"><ele>546.0</ele><time>2026-04-06T07:49:27Z</time></trkpt><trkpt lat="43.963349925622865" lon="11.967436437458511"><ele>546.0</ele><time>2026-04-06T07:49:34Z</time></trkpt><trkpt lat="43.963344804014156" lon="11.967555679656119"><ele>546.0</ele><time>2026-04-06T07:50:22Z</time></trkpt><trkpt lat="43.963396671664015" lon="11.967469732234468"><ele>546.0</ele><time>2026-04-06T07:50:39Z</time></trkpt><trkpt lat="43.96341831119003" lon="11.967381827485127"><ele>546.0</ele><time>2026-04-06T07:50:47Z</time></trkpt><trkpt lat="43.963443130192715" lon="11.967292623577144"><ele>546.0</ele><time>2026-04-06T07:50:53Z</time></trkpt><trkpt lat="43.963511720328825" lon="11.967219493340151"><ele>546.0</ele><time>2026-04-06T07:50:56Z</time></trkpt><trkpt lat="43.963570923217524" lon="11.967125520313031"><ele>546.0</ele><time>2026-04-06T07:50:59Z</time></trkpt><trkpt lat="43.963611322266516" lon="11.967030420468484"><ele>546.0</ele><time>2026-04-06T07:51:02Z</time></trkpt><trkpt lat="43.96365832741251" lon="11.96694892228138"><ele>546.0</ele><time>2026-04-06T07:51:07Z</time></trkpt><trkpt lat="43.963662757603814" lon="11.96704916752757"><ele>546.0</ele><time>2026-04-06T07:51:50Z</time></trkpt><trkpt lat="43.96363398437407" lon="11.967139185084763"><ele>546.0</ele><time>2026-04-06T07:51:57Z</time></trkpt><trkpt lat="43.963595768348554" lon="11.967210465163271"><ele>546.0</ele><time>2026-04-06T07:52:15Z</time></trkpt><trkpt lat="43.96358735210608" lon="11.967299543401277"><ele>546.0</ele><time>2026-04-06T07:53:18Z</time></trkpt><trkpt lat="43.96357654203886" lon="11.96739358509935"><ele>546.0</ele><time>2026-04-06T07:53:55Z</time></trkpt><trkpt lat="43.963651768866754" lon="11.967389932394871"><ele>546.0</ele><time>2026-04-06T07:54:09Z</time></trkpt><trkpt lat="43.96370880053023" lon="11.967321985395323"><ele>546.0</ele><time>2026-04-06T07:54:26Z</time></trkpt><trkpt lat="43.96376156046066" lon="11.96726126034608"><ele>546.0</ele><time>2026-04-06T07:54:31Z</time></trkpt><trkpt lat="43.96382939957421" lon="11.96723335532618"><ele>546.0</ele><time>2026-04-06T07:54:33Z</time></trkpt><trkpt lat="43.96389005111799" lon="11.967201525204988"><ele>546.0</ele><time>2026-04-06T07:54:35Z</time></trkpt><trkpt lat="43.96395988208981" lon="11.967181359499987"><ele>546.0</ele><time>2026-04-06T07:54:37Z</time></trkpt><trkpt lat="43.9640217656643" lon="11.967250995253703"><ele>546.0</ele><time>2026-04-06T07:54:40Z</time></trkpt><trkpt lat="43.9640780288976" lon="11.967331056403712"><ele>546.0</ele><time>2026-04-06T07:54:42Z</time></trkpt><trkpt lat="43.96410505127257" lon="11.967446537507632"><ele>546.0</ele><time>2026-04-06T07:54:45Z</time></trkpt><trkpt lat="43.96412815281264" lon="11.967599298657396"><ele>546.0</ele><time>2026-04-06T07:54:47Z</time></trkpt><trkpt lat="43.96415676725442" lon="11.96768788418442"><ele>550.0</ele><time>2026-04-06T07:54:48Z</time></trkpt><trkpt lat="43.964162709852275" lon="11.967831511843647"><ele>554.0</ele><time>2026-04-06T07:54:50Z</time></trkpt><trkpt lat="43.964163175859696" lon="11.96797257042596"><ele>558.0</ele><time>2026-04-06T07:54:53Z</time></trkpt><trkpt lat="43.9641885890624" lon="11.96819822456991"><ele>562.0</ele><time>2026-04-06T07:54:56Z</time></trkpt><trkpt lat="43.964152054130565" lon="11.968278662832647"><ele>566.0</ele><time>2026-04-06T07:54:58Z</time></trkpt><trkpt lat="43.9641251444065" lon="11.968380225736267"><ele>567.6666666666666</ele><time>2026-04-06T07:55:02Z</time></trkpt><trkpt lat="43.9641279731273" lon="11.968481416045853"><ele>569.3333333333333</ele><time>2026-04-06T07:55:05Z</time></trkpt><trkpt lat="43.96412050832009" lon="11.968596274689986"><ele>571.0</ele><time>2026-04-06T07:55:08Z</time></trkpt><trkpt lat="43.96407032761086" lon="11.968659659615767"><ele>572.6666666666666</ele><time>2026-04-06T07:55:11Z</time></trkpt><trkpt lat="43.96400198390684" lon="11.968704027273153"><ele>574.3333333333334</ele><time>2026-04-06T07:55:31Z</time></trkpt><trkpt lat="43.9639226465168" lon="11.968799634209553"><ele>576.0</ele><time>2026-04-06T07:55:33Z</time></trkpt><trkpt lat="43.963847647124666" lon="11.968906119647938"><ele>576.0</ele><time>2026-04-06T07:55:35Z</time></trkpt><trkpt lat="43.963772336052536" lon="11.969032099655053"><ele>576.0</ele><time>2026-04-06T07:55:37Z</time></trkpt><trkpt lat="43.963696498988206" lon="11.969139905662345"><ele>576.0</ele><time>2026-04-06T07:55:39Z</time></trkpt><trkpt lat="43.96360103717981" lon="11.969226772960518"><ele>576.0</ele><time>2026-04-06T07:55:41Z</time></trkpt><trkpt lat="43.96349045153052" lon="11.969298141471906"><ele>576.75</ele><time>2026-04-06T07:55:43Z</time></trkpt><trkpt lat="43.96338522215749" lon="11.96938411327805"><ele>577.5</ele><time>2026-04-06T07:55:45Z</time></trkpt><trkpt lat="43.963290099964944" lon="11.969471058495971"><ele>578.25</ele><time>2026-04-06T07:55:47Z</time></trkpt><trkpt lat="43.96318526967089" lon="11.969512185897532"><ele>579.0</ele><time>2026-04-06T07:55:49Z</time></trkpt><trkpt lat="43.963069074478476" lon="11.969499560430242"><ele>579.0</ele><time>2026-04-06T07:55:51Z</time></trkpt><trkpt lat="43.962971962283575" lon="11.969521771718746"><ele>579.0</ele><time>2026-04-06T07:55:53Z</time></trkpt><trkpt lat="43.962893674196756" lon="11.969581654696976"><ele>579.0</ele><time>2026-04-06T07:55:55Z</time></trkpt><trkpt lat="43.962817286588" lon="11.969655489987703"><ele>579.0</ele><time>2026-04-06T07:55:57Z</time></trkpt><trkpt lat="43.96274672853412" lon="11.969706208622421"><ele>579.0</ele><time>2026-04-06T07:55:59Z</time></trkpt><trkpt lat="43.96268206901823" lon="11.969749692375062"><ele>579.0</ele><time>2026-04-06T07:56:01Z</time></trkpt><trkpt lat="43.96263641701744" lon="11.969821368497222"><ele>578.9999999999999</ele><time>2026-04-06T07:56:03Z</time></trkpt><trkpt lat="43.962580781848864" lon="11.969877882037956"><ele>579.0</ele><time>2026-04-06T07:56:05Z</time></trkpt><trkpt lat="43.96251230996632" lon="11.969920573104316"><ele>579.0</ele><time>2026-04-06T07:56:07Z</time></trkpt><trkpt lat="43.96244587522085" lon="11.969928109981282"><ele>579.0</ele><time>2026-04-06T07:56:09Z</time></trkpt><trkpt lat="43.96237393863807" lon="11.969957731312174"><ele>579.0</ele><time>2026-04-06T07:56:11Z</time></trkpt><trkpt lat="43.9623203804183" lon="11.970044781329845"><ele>578.9999999999999</ele><time>2026-04-06T07:56:14Z</time></trkpt><trkpt lat="43.96225957153433" lon="11.970111556118479"><ele>579.0</ele><time>2026-04-06T07:56:16Z</time></trkpt><trkpt lat="43.96220475672528" lon="11.970199578270126"><ele>579.3333333333334</ele><time>2026-04-06T07:56:18Z</time></trkpt><trkpt lat="43.96214507254527" lon="11.970251064211947"><ele>579.6666666666666</ele><time>2026-04-06T07:56:20Z</time></trkpt><trkpt lat="43.962062878774795" lon="11.970256993190747"><ele>580.0</ele><time>2026-04-06T07:56:23Z</time></trkpt><trkpt lat="43.96199009110569" lon="11.970236314332492"><ele>580.3333333333333</ele><time>2026-04-06T07:56:26Z</time></trkpt><trkpt lat="43.961995390486194" lon="11.97013002223623"><ele>580.6666666666666</ele><time>2026-04-06T07:56:29Z</time></trkpt><trkpt lat="43.962027311333806" lon="11.970005104516282"><ele>581.0</ele><time>2026-04-06T07:56:31Z</time></trkpt><trkpt lat="43.96211180489584" lon="11.969818733863422"><ele>577.6666666666666</ele><time>2026-04-06T07:56:33Z</time></trkpt><trkpt lat="43.9621472699897" lon="11.9697410902991"><ele>574.3333333333333</ele><time>2026-04-06T07:56:34Z</time></trkpt><trkpt lat="43.962206259111596" lon="11.969574227271663"><ele>571.0</ele><time>2026-04-06T07:56:36Z</time></trkpt><trkpt lat="43.962230126023684" lon="11.969480267626885"><ele>567.6666666666666</ele><time>2026-04-06T07:56:37Z</time></trkpt><trkpt lat="43.96225211164509" lon="11.96938330670035"><ele>564.3333333333334</ele><time>2026-04-06T07:56:38Z</time></trkpt><trkpt lat="43.96220849367602" lon="11.969267874183453"><ele>561.0</ele><time>2026-04-06T07:56:41Z</time></trkpt><trkpt lat="43.96217570310247" lon="11.969170216577274"><ele>557.8333333333334</ele><time>2026-04-06T07:56:43Z</time></trkpt><trkpt lat="43.96217428463559" lon="11.969035631472547"><ele>554.6666666666666</ele><time>2026-04-06T07:56:45Z</time></trkpt><trkpt lat="43.962182849118115" lon="11.968939148539022"><ele>551.5</ele><time>2026-04-06T07:56:46Z</time></trkpt><trkpt lat="43.96219266755927" lon="11.96884783576146"><ele>548.3333333333333</ele><time>2026-04-06T07:56:47Z</time></trkpt><trkpt lat="43.96220815424383" lon="11.96875765810546"><ele>545.1666666666666</ele><time>2026-04-06T07:56:48Z</time></trkpt><trkpt lat="43.96226371120089" lon="11.968614917876485"><ele>542.0</ele><time>2026-04-06T07:56:50Z</time></trkpt><trkpt lat="43.96230474189309" lon="11.968540714987846"><ele>542.0</ele><time>2026-04-06T07:56:52Z</time></trkpt><trkpt lat="43.962335021117056" lon="11.968427425053042"><ele>542.0</ele><time>2026-04-06T07:56:54Z</time></trkpt><trkpt lat="43.96239046404258" lon="11.968304940541422"><ele>542.0</ele><time>2026-04-06T07:56:56Z</time></trkpt><trkpt lat="43.96244767669049" lon="11.968217526805697"><ele>542.0</ele><time>2026-04-06T07:56:58Z</time></trkpt><trkpt lat="43.962506957875334" lon="11.968150394583985"><ele>542.0</ele><time>2026-04-06T07:57:00Z</time></trkpt><trkpt lat="43.96256222645041" lon="11.968070299578102"><ele>542.0</ele><time>2026-04-06T07:57:02Z</time></trkpt><trkpt lat="43.96264170448553" lon="11.967975030065773"><ele>543.4</ele><time>2026-04-06T07:57:04Z</time></trkpt><trkpt lat="43.9627299457122" lon="11.967852528618497"><ele>544.8000000000001</ele><time>2026-04-06T07:57:06Z</time></trkpt><trkpt lat="43.96280814978168" lon="11.967736862725054"><ele>546.2</ele><time>2026-04-06T07:57:08Z</time></trkpt><trkpt lat="43.96289706171781" lon="11.967622858444141"><ele>547.6</ele><time>2026-04-06T07:57:10Z</time></trkpt><trkpt lat="43.962942934529984" lon="11.967553056620245"><ele>549.0</ele><time>2026-04-06T07:57:11Z</time></trkpt><trkpt lat="43.963032712165166" lon="11.96742323705175"><ele>546.1428571428571</ele><time>2026-04-06T07:57:13Z</time></trkpt><trkpt lat="43.96308929570985" lon="11.96735998480008"><ele>543.2857142857143</ele><time>2026-04-06T07:57:14Z</time></trkpt><trkpt lat="43.96313572066455" lon="11.96728638314503"><ele>540.4285714285714</ele><time>2026-04-06T07:57:15Z</time></trkpt><trkpt lat="43.963164448430746" lon="11.96719264914791"><ele>537.5714285714286</ele><time>2026-04-06T07:57:16Z</time></trkpt><trkpt lat="43.963192944335844" lon="11.967093231920362"><ele>534.7142857142857</ele><time>2026-04-06T07:57:17Z</time></trkpt><trkpt lat="43.963219933319216" lon="11.967000463862176"><ele>531.8571428571429</ele><time>2026-04-06T07:57:18Z</time></trkpt><trkpt lat="43.963241889807335" lon="11.966906473043991"><ele>529.0</ele><time>2026-04-06T07:57:19Z</time></trkpt><trkpt lat="43.96327556675811" lon="11.966831450487714"><ele>529.0</ele><time>2026-04-06T07:57:20Z</time></trkpt><trkpt lat="43.96330732876892" lon="11.96675104012447"><ele>529.0</ele><time>2026-04-06T07:57:21Z</time></trkpt><trkpt lat="43.96333992704464" lon="11.96667295694688"><ele>529.0</ele><time>2026-04-06T07:57:22Z</time></trkpt><trkpt lat="43.96337940239989" lon="11.96659639255001"><ele>529.0</ele><time>2026-04-06T07:57:23Z</time></trkpt><trkpt lat="43.96342072132035" lon="11.966524609579947"><ele>529.0</ele><time>2026-04-06T07:57:24Z</time></trkpt><trkpt lat="43.963455028277984" lon="11.96643695849527"><ele>529.0</ele><time>2026-04-06T07:57:25Z</time></trkpt><trkpt lat="43.963477155060396" lon="11.96634318528896"><ele>529.0</ele><time>2026-04-06T07:57:26Z</time></trkpt><trkpt lat="43.96348562436286" lon="11.966253850052038"><ele>527.5</ele><time>2026-04-06T07:57:27Z</time></trkpt><trkpt lat="43.963486967293996" lon="11.96615888511182"><ele>526.0</ele><time>2026-04-06T07:57:28Z</time></trkpt><trkpt lat="43.9634799737745" lon="11.96599144199062"><ele>524.5</ele><time>2026-04-06T07:57:30Z</time></trkpt><trkpt lat="43.96347453399399" lon="11.965873474103764"><ele>523.0</ele><time>2026-04-06T07:57:32Z</time></trkpt><trkpt lat="43.963479223147445" lon="11.965768189226496"><ele>521.5</ele><time>2026-04-06T07:57:35Z</time></trkpt><trkpt lat="43.96348147336418" lon="11.965667661734436"><ele>520.0</ele><time>2026-04-06T07:58:23Z</time></trkpt><trkpt lat="43.963528561000054" lon="11.96559187088461"><ele>514.3333333333334</ele><time>2026-04-06T07:58:26Z</time></trkpt><trkpt lat="43.963619120328374" lon="11.965543988787504"><ele>508.6666666666667</ele><time>2026-04-06T07:58:28Z</time></trkpt><trkpt lat="43.96368388569077" lon="11.965548190373003"><ele>503.0</ele><time>2026-04-06T07:58:29Z</time></trkpt><trkpt lat="43.963773453645395" lon="11.965568187137757"><ele>497.33333333333337</ele><time>2026-04-06T07:58:31Z</time></trkpt><trkpt lat="43.96378117736541" lon="11.965462180400651"><ele>491.6666666666667</ele><time>2026-04-06T07:58:34Z</time></trkpt><trkpt lat="43.963667927548435" lon="11.965436807550551"><ele>486.0</ele><time>2026-04-06T07:58:36Z</time></trkpt><trkpt lat="43.96355984857465" lon="11.965420201350312"><ele>486.0</ele><time>2026-04-06T07:58:38Z</time></trkpt><trkpt lat="43.96345743002729" lon="11.965331033702721"><ele>486.0</ele><time>2026-04-06T07:58:40Z</time></trkpt><trkpt lat="43.96333802031448" lon="11.96536829480285"><ele>486.0</ele><time>2026-04-06T07:58:42Z</time></trkpt><trkpt lat="43.96327017657717" lon="11.965437456739167"><ele>486.0</ele><time>2026-04-06T07:58:43Z</time></trkpt><trkpt lat="43.96321274730755" lon="11.96551787018878"><ele>486.0</ele><time>2026-04-06T07:58:44Z</time></trkpt><trkpt lat="43.963164200396236" lon="11.965596152306079"><ele>486.1666666666667</ele><time>2026-04-06T07:58:45Z</time></trkpt><trkpt lat="43.96312431970673" lon="11.965685799031785"><ele>486.33333333333337</ele><time>2026-04-06T07:58:46Z</time></trkpt><trkpt lat="43.96305652369601" lon="11.96574232217024"><ele>486.5</ele><time>2026-04-06T07:58:47Z</time></trkpt><trkpt lat="43.962985140978375" lon="11.965779407755143"><ele>486.6666666666667</ele><time>2026-04-06T07:58:48Z</time></trkpt><trkpt lat="43.962913829288475" lon="11.965818362914224"><ele>486.83333333333337</ele><time>2026-04-06T07:58:49Z</time></trkpt><trkpt lat="43.96283047169378" lon="11.965865909517442"><ele>487.0</ele><time>2026-04-06T07:58:50Z</time></trkpt><trkpt lat="43.962748725641184" lon="11.965899713120033"><ele>486.6666666666667</ele><time>2026-04-06T07:58:51Z</time></trkpt><trkpt lat="43.962670235632174" lon="11.965910123144575"><ele>486.33333333333337</ele><time>2026-04-06T07:58:52Z</time></trkpt><trkpt lat="43.96258493429781" lon="11.965894677438255"><ele>486.0</ele><time>2026-04-06T07:58:53Z</time></trkpt><trkpt lat="43.96250366448867" lon="11.96587182782708"><ele>485.66666666666663</ele><time>2026-04-06T07:58:54Z</time></trkpt><trkpt lat="43.96242472710205" lon="11.965858528803574"><ele>485.3333333333333</ele><time>2026-04-06T07:58:55Z</time></trkpt><trkpt lat="43.962356127653905" lon="11.965844182018744"><ele>485.0</ele><time>2026-04-06T07:58:56Z</time></trkpt><trkpt lat="43.96229320039331" lon="11.965828037758435"><ele>481.3333333333333</ele><time>2026-04-06T07:58:57Z</time></trkpt><trkpt lat="43.962165484867946" lon="11.965805955615695"><ele>477.66666666666663</ele><time>2026-04-06T07:58:59Z</time></trkpt><trkpt lat="43.9620990354471" lon="11.965804787959083"><ele>474.0</ele><time>2026-04-06T07:59:00Z</time></trkpt><trkpt lat="43.962034873685006" lon="11.965798147714885"><ele>470.33333333333337</ele><time>2026-04-06T07:59:01Z</time></trkpt><trkpt lat="43.9619653079929" lon="11.965800466151945"><ele>466.6666666666667</ele><time>2026-04-06T07:59:02Z</time></trkpt><trkpt lat="43.96185632579965" lon="11.965787563662111"><ele>463.0</ele><time>2026-04-06T07:59:04Z</time></trkpt><trkpt lat="43.96179031816295" lon="11.965738976386826"><ele>463.00000000000006</ele><time>2026-04-06T07:59:06Z</time></trkpt><trkpt lat="43.96176171585731" lon="11.965639346574841"><ele>463.0</ele><time>2026-04-06T07:59:09Z</time></trkpt><trkpt lat="43.961755711797" lon="11.965528652604345"><ele>463.0</ele><time>2026-04-06T07:59:11Z</time></trkpt><trkpt lat="43.96180152434074" lon="11.965412263163671"><ele>463.0</ele><time>2026-04-06T07:59:13Z</time></trkpt><trkpt lat="43.961794162723756" lon="11.965300317868817"><ele>463.00000000000006</ele><time>2026-04-06T07:59:15Z</time></trkpt><trkpt lat="43.96170339069862" lon="11.965275740414997"><ele>463.0</ele><time>2026-04-06T07:59:17Z</time></trkpt><trkpt lat="43.9616378348936" lon="11.965232549210251"><ele>462.0</ele><time>2026-04-06T07:59:18Z</time></trkpt><trkpt lat="43.961540609388926" lon="11.965144749593629"><ele>460.99999999999994</ele><time>2026-04-06T07:59:20Z</time></trkpt><trkpt lat="43.961442517195835" lon="11.9650725636763"><ele>459.99999999999994</ele><time>2026-04-06T07:59:22Z</time></trkpt><trkpt lat="43.96133933211588" lon="11.965014414470755"><ele>459.0</ele><time>2026-04-06T07:59:24Z</time></trkpt><trkpt lat="43.961278989378116" lon="11.964948857222145"><ele>458.0</ele><time>2026-04-06T07:59:25Z</time></trkpt><trkpt lat="43.9612170233721" lon="11.964887795829176"><ele>460.79999999999995</ele><time>2026-04-06T07:59:26Z</time></trkpt><trkpt lat="43.96109225980499" lon="11.96479054523411"><ele>463.59999999999997</ele><time>2026-04-06T07:59:28Z</time></trkpt><trkpt lat="43.96102039365988" lon="11.964775893988094"><ele>466.40000000000003</ele><time>2026-04-06T07:59:29Z</time></trkpt><trkpt lat="43.96093515573537" lon="11.964722811251407"><ele>469.20000000000005</ele><time>2026-04-06T07:59:30Z</time></trkpt><trkpt lat="43.96086417514633" lon="11.964662127273094"><ele>472.0</ele><time>2026-04-06T07:59:31Z</time></trkpt><trkpt lat="43.96080402728045" lon="11.964595615865694"><ele>472.00000000000006</ele><time>2026-04-06T07:59:32Z</time></trkpt><trkpt lat="43.96072558441472" lon="11.964551762942936"><ele>472.0</ele><time>2026-04-06T07:59:33Z</time></trkpt><trkpt lat="43.96064670524929" lon="11.96450046803196"><ele>472.0</ele><time>2026-04-06T07:59:34Z</time></trkpt><trkpt lat="43.96057894852937" lon="11.96444020569413"><ele>472.0</ele><time>2026-04-06T07:59:35Z</time></trkpt><trkpt lat="43.960503373438335" lon="11.964399375621348"><ele>472.00000000000006</ele><time>2026-04-06T07:59:36Z</time></trkpt><trkpt lat="43.96044833625915" lon="11.96433820281426"><ele>472.0</ele><time>2026-04-06T07:59:37Z</time></trkpt><trkpt lat="43.960361726483676" lon="11.964286412228162"><ele>472.00000000000006</ele><time>2026-04-06T07:59:38Z</time></trkpt><trkpt lat="43.9602847650063" lon="11.964246516600763"><ele>472.0</ele><time>2026-04-06T07:59:39Z</time></trkpt><trkpt lat="43.96021374062972" lon="11.964212876460525"><ele>472.0</ele><time>2026-04-06T07:59:40Z</time></trkpt><trkpt lat="43.960148230043224" lon="11.96417029629617"><ele>472.0</ele><time>2026-04-06T07:59:41Z</time></trkpt><trkpt lat="43.960098402631154" lon="11.964113853201392"><ele>472.00000000000006</ele><time>2026-04-06T07:59:42Z</time></trkpt><trkpt lat="43.960044636833985" lon="11.963982975495139"><ele>472.0</ele><time>2026-04-06T07:59:43Z</time></trkpt><trkpt lat="43.96001427161895" lon="11.963895393167066"><ele>469.50000000000006</ele><time>2026-04-06T07:59:44Z</time></trkpt><trkpt lat="43.9599928457065" lon="11.963794256550669"><ele>467.0</ele><time>2026-04-06T07:59:45Z</time></trkpt><trkpt lat="43.95996958289397" lon="11.963694553220602"><ele>464.5</ele><time>2026-04-06T07:59:46Z</time></trkpt><trkpt lat="43.9599450723919" lon="11.963603674996051"><ele>462.0</ele><time>2026-04-06T07:59:47Z</time></trkpt><trkpt lat="43.95991486074515" lon="11.963455240550926"><ele>459.50000000000006</ele><time>2026-04-06T07:59:49Z</time></trkpt><trkpt lat="43.95984855341754" lon="11.963386067581997"><ele>457.0</ele><time>2026-04-06T07:59:51Z</time></trkpt><trkpt lat="43.959787274238735" lon="11.963440991211149"><ele>457.0</ele><time>2026-04-06T07:59:52Z</time></trkpt><trkpt lat="43.9597253680658" lon="11.963480013003768"><ele>457.00000000000006</ele><time>2026-04-06T07:59:53Z</time></trkpt><trkpt lat="43.95960787633115" lon="11.963518114910999"><ele>457.00000000000006</ele><time>2026-04-06T07:59:55Z</time></trkpt><trkpt lat="43.959490436658044" lon="11.963497806574624"><ele>457.0</ele><time>2026-04-06T07:59:57Z</time></trkpt><trkpt lat="43.959461610663055" lon="11.963360618321788"><ele>457.0</ele><time>2026-04-06T07:59:59Z</time></trkpt><trkpt lat="43.95948776271516" lon="11.963218405386039"><ele>454.6666666666667</ele><time>2026-04-06T08:00:01Z</time></trkpt><trkpt lat="43.95951431032804" lon="11.963089781749414"><ele>452.33333333333337</ele><time>2026-04-06T08:00:02Z</time></trkpt><trkpt lat="43.95950080141428" lon="11.963003596500972"><ele>450.0</ele><time>2026-04-06T08:00:04Z</time></trkpt><trkpt lat="43.959482516898156" lon="11.962905022322955"><ele>447.66666666666663</ele><time>2026-04-06T08:00:07Z</time></trkpt><trkpt lat="43.95944946385975" lon="11.962816658490254"><ele>445.3333333333333</ele><time>2026-04-06T08:00:08Z</time></trkpt><trkpt lat="43.95939583593643" lon="11.962745734535268"><ele>443.0</ele><time>2026-04-06T08:00:14Z</time></trkpt><trkpt lat="43.959327425157284" lon="11.962674296023865"><ele>443.0</ele><time>2026-04-06T08:00:16Z</time></trkpt><trkpt lat="43.9592475390119" lon="11.962655514066439"><ele>442.99999999999994</ele><time>2026-04-06T08:00:18Z</time></trkpt><trkpt lat="43.95914865214304" lon="11.96263578237261"><ele>442.99999999999994</ele><time>2026-04-06T08:00:20Z</time></trkpt><trkpt lat="43.959046664550335" lon="11.962655589393911"><ele>443.0</ele><time>2026-04-06T08:00:22Z</time></trkpt><trkpt lat="43.958936868965395" lon="11.962715141014437"><ele>443.0</ele><time>2026-04-06T08:00:24Z</time></trkpt><trkpt lat="43.958853410723805" lon="11.962796093112814"><ele>444.0</ele><time>2026-04-06T08:00:26Z</time></trkpt><trkpt lat="43.95873815060441" lon="11.962795596280817"><ele>444.99999999999994</ele><time>2026-04-06T08:00:28Z</time></trkpt><trkpt lat="43.95870049013941" lon="11.962660698459501"><ele>445.99999999999994</ele><time>2026-04-06T08:00:30Z</time></trkpt><trkpt lat="43.958740608426396" lon="11.96255243933246"><ele>447.0</ele><time>2026-04-06T08:00:32Z</time></trkpt><trkpt lat="43.958780715772846" lon="11.962467677845574"><ele>448.0</ele><time>2026-04-06T08:00:34Z</time></trkpt><trkpt lat="43.958864113097626" lon="11.96233238290436"><ele>448.00000000000006</ele><time>2026-04-06T08:00:36Z</time></trkpt><trkpt lat="43.95892799236668" lon="11.962274649060586"><ele>448.0</ele><time>2026-04-06T08:00:38Z</time></trkpt><trkpt lat="43.95886198466105" lon="11.962312436199623"><ele>448.0</ele><time>2026-04-06T08:00:41Z</time></trkpt><trkpt lat="43.95879192450437" lon="11.962380492752432"><ele>448.0</ele><time>2026-04-06T08:00:42Z</time></trkpt><trkpt lat="43.958735128163056" lon="11.962457427121567"><ele>448.00000000000006</ele><time>2026-04-06T08:00:43Z</time></trkpt><trkpt lat="43.95864948252667" lon="11.962490649811185"><ele>448.0</ele><time>2026-04-06T08:00:44Z</time></trkpt><trkpt lat="43.9585342265499" lon="11.96255126390957"><ele>448.00000000000006</ele><time>2026-04-06T08:00:46Z</time></trkpt><trkpt lat="43.958463212119085" lon="11.962549340818862"><ele>448.0</ele><time>2026-04-06T08:00:47Z</time></trkpt><trkpt lat="43.95839643508211" lon="11.96255932843355"><ele>448.0</ele><time>2026-04-06T08:00:48Z</time></trkpt><trkpt lat="43.95833288905736" lon="11.962568268342022"><ele>448.0</ele><time>2026-04-06T08:00:49Z</time></trkpt><trkpt lat="43.95820157463413" lon="11.962545203778593"><ele>448.00000000000006</ele><time>2026-04-06T08:00:51Z</time></trkpt><trkpt lat="43.95811570794188" lon="11.962517557304409"><ele>448.0</ele><time>2026-04-06T08:00:52Z</time></trkpt><trkpt lat="43.958013808562065" lon="11.962489739604047"><ele>449.75</ele><time>2026-04-06T08:00:53Z</time></trkpt><trkpt lat="43.95788475127306" lon="11.962501829816674"><ele>451.5</ele><time>2026-04-06T08:00:54Z</time></trkpt><trkpt lat="43.95776346820975" lon="11.962506951710635"><ele>453.25</ele><time>2026-04-06T08:00:55Z</time></trkpt><trkpt lat="43.957663169688935" lon="11.962492015093648"><ele>455.0</ele><time>2026-04-06T08:00:56Z</time></trkpt><trkpt lat="43.95756842844741" lon="11.962407210587015"><ele>455.8333333333333</ele><time>2026-04-06T08:00:57Z</time></trkpt><trkpt lat="43.957490731134094" lon="11.962381939399535"><ele>456.66666666666663</ele><time>2026-04-06T08:00:58Z</time></trkpt><trkpt lat="43.957394155376264" lon="11.962380385748945"><ele>457.5</ele><time>2026-04-06T08:00:59Z</time></trkpt><trkpt lat="43.95730780092266" lon="11.962415031934553"><ele>458.33333333333337</ele><time>2026-04-06T08:01:00Z</time></trkpt><trkpt lat="43.95723365226195" lon="11.962497177157488"><ele>459.1666666666667</ele><time>2026-04-06T08:01:01Z</time></trkpt><trkpt lat="43.95715180737994" lon="11.962532736729393"><ele>460.0</ele><time>2026-04-06T08:01:02Z</time></trkpt><trkpt lat="43.95706005809263" lon="11.962605677628598"><ele>461.0</ele><time>2026-04-06T08:01:03Z</time></trkpt><trkpt lat="43.95697011356223" lon="11.96271305925341"><ele>462.0</ele><time>2026-04-06T08:01:04Z</time></trkpt><trkpt lat="43.95689460679773" lon="11.962809741391464"><ele>463.0</ele><time>2026-04-06T08:01:05Z</time></trkpt><trkpt lat="43.9568246736064" lon="11.962884406792158"><ele>464.0</ele><time>2026-04-06T08:01:06Z</time></trkpt><trkpt lat="43.95677842407045" lon="11.963009498880332"><ele>465.0</ele><time>2026-04-06T08:01:07Z</time></trkpt><trkpt lat="43.956716882006724" lon="11.96310061718482"><ele>465.0</ele><time>2026-04-06T08:01:08Z</time></trkpt><trkpt lat="43.956656266906975" lon="11.963161484307165"><ele>465.0</ele><time>2026-04-06T08:01:10Z</time></trkpt><trkpt lat="43.95674581178838" lon="11.963104409406744"><ele>465.0</ele><time>2026-04-06T08:01:25Z</time></trkpt><trkpt lat="43.9567927683989" lon="11.963018805393716"><ele>465.0</ele><time>2026-04-06T08:01:26Z</time></trkpt><trkpt lat="43.95683407890686" lon="11.962944700497342"><ele>465.0</ele><time>2026-04-06T08:01:27Z</time></trkpt><trkpt lat="43.956864926928304" lon="11.96286237846221"><ele>465.0</ele><time>2026-04-06T08:01:29Z</time></trkpt><trkpt lat="43.95681171317053" lon="11.962775685685823"><ele>465.0</ele><time>2026-04-06T08:01:31Z</time></trkpt><trkpt lat="43.956757597115356" lon="11.962727693766745"><ele>465.0</ele><time>2026-04-06T08:01:32Z</time></trkpt><trkpt lat="43.95669874387517" lon="11.962689289825992"><ele>465.0</ele><time>2026-04-06T08:01:33Z</time></trkpt><trkpt lat="43.95659721036663" lon="11.962580027011079"><ele>465.0</ele><time>2026-04-06T08:01:35Z</time></trkpt><trkpt lat="43.95653149872559" lon="11.962521854814312"><ele>465.0</ele><time>2026-04-06T08:01:36Z</time></trkpt><trkpt lat="43.95646232932473" lon="11.962388295562778"><ele>465.3333333333333</ele><time>2026-04-06T08:01:38Z</time></trkpt><trkpt lat="43.95642581588071" lon="11.962304980765266"><ele>465.66666666666663</ele><time>2026-04-06T08:01:39Z</time></trkpt><trkpt lat="43.956398406299066" lon="11.962215697858097"><ele>466.0</ele><time>2026-04-06T08:01:40Z</time></trkpt><trkpt lat="43.956366374108995" lon="11.962129763075385"><ele>466.3333333333333</ele><time>2026-04-06T08:01:41Z</time></trkpt><trkpt lat="43.95632230468734" lon="11.962044031945881"><ele>466.66666666666663</ele><time>2026-04-06T08:01:42Z</time></trkpt><trkpt lat="43.95624881678651" lon="11.961926438709984"><ele>467.0</ele><time>2026-04-06T08:01:44Z</time></trkpt><trkpt lat="43.956191114511995" lon="11.961786618388036"><ele>470.20000000000005</ele><time>2026-04-06T08:01:46Z</time></trkpt><trkpt lat="43.95615552293928" lon="11.961689253804696"><ele>473.40000000000003</ele><time>2026-04-06T08:01:48Z</time></trkpt><trkpt lat="43.95609679599361" lon="11.961565207354063"><ele>476.59999999999997</ele><time>2026-04-06T08:01:50Z</time></trkpt><trkpt lat="43.95602873212878" lon="11.961441175220061"><ele>479.79999999999995</ele><time>2026-04-06T08:01:52Z</time></trkpt><trkpt lat="43.95597685042024" lon="11.961308621856848"><ele>483.0</ele><time>2026-04-06T08:01:54Z</time></trkpt><trkpt lat="43.95598438937764" lon="11.961159112780948"><ele>483.0</ele><time>2026-04-06T08:01:56Z</time></trkpt><trkpt lat="43.95589394543062" lon="11.96101847740529"><ele>483.0</ele><time>2026-04-06T08:01:58Z</time></trkpt><trkpt lat="43.95582163836506" lon="11.96097861485451"><ele>483.0</ele><time>2026-04-06T08:01:59Z</time></trkpt><trkpt lat="43.95579827016503" lon="11.960854126328362"><ele>483.0</ele><time>2026-04-06T08:02:01Z</time></trkpt><trkpt lat="43.955859014187574" lon="11.960896593930576"><ele>483.0</ele><time>2026-04-06T08:02:03Z</time></trkpt><trkpt lat="43.95591714492824" lon="11.960932316552098"><ele>483.0</ele><time>2026-04-06T08:02:04Z</time></trkpt><trkpt lat="43.956037347110055" lon="11.960950143883418"><ele>483.0</ele><time>2026-04-06T08:02:06Z</time></trkpt><trkpt lat="43.95612140736804" lon="11.961025334956972"><ele>482.99999999999994</ele><time>2026-04-06T08:02:08Z</time></trkpt><trkpt lat="43.95619549968707" lon="11.960972011768693"><ele>482.99999999999994</ele><time>2026-04-06T08:02:11Z</time></trkpt><trkpt lat="43.956122592093166" lon="11.960858039973127"><ele>483.0</ele><time>2026-04-06T08:02:14Z</time></trkpt><trkpt lat="43.9560712198263" lon="11.960781663790568"><ele>483.0</ele><time>2026-04-06T08:02:15Z</time></trkpt><trkpt lat="43.956001698332024" lon="11.960654146650105"><ele>486.0</ele><time>2026-04-06T08:02:17Z</time></trkpt><trkpt lat="43.95595034967192" lon="11.960528562009323"><ele>489.0</ele><time>2026-04-06T08:02:19Z</time></trkpt><trkpt lat="43.95587782252158" lon="11.960417525879507"><ele>492.0</ele><time>2026-04-06T08:02:21Z</time></trkpt><trkpt lat="43.95583189472441" lon="11.960259150606324"><ele>495.0</ele><time>2026-04-06T08:02:23Z</time></trkpt><trkpt lat="43.95576477548379" lon="11.960102747607452"><ele>501.6</ele><time>2026-04-06T08:02:25Z</time></trkpt><trkpt lat="43.95574258165948" lon="11.960008305502859"><ele>508.2</ele><time>2026-04-06T08:02:26Z</time></trkpt><trkpt lat="43.95571244516499" lon="11.959911550295569"><ele>514.8</ele><time>2026-04-06T08:02:27Z</time></trkpt><trkpt lat="43.95565286102111" lon="11.959762949613673"><ele>521.4</ele><time>2026-04-06T08:02:29Z</time></trkpt><trkpt lat="43.955615428372084" lon="11.959621912059994"><ele>528.0</ele><time>2026-04-06T08:02:31Z</time></trkpt><trkpt lat="43.955655092842825" lon="11.959536709431177"><ele>528.0</ele><time>2026-04-06T08:02:36Z</time></trkpt><trkpt lat="43.95573640031909" lon="11.959502464668974"><ele>528.0</ele><time>2026-04-06T08:02:38Z</time></trkpt><trkpt lat="43.95583107961714" lon="11.959465174970964"><ele>528.0</ele><time>2026-04-06T08:02:40Z</time></trkpt><trkpt lat="43.955888396502516" lon="11.959351959469014"><ele>528.0</ele><time>2026-04-06T08:02:42Z</time></trkpt><trkpt lat="43.95589367594716" lon="11.95926371443724"><ele>528.0</ele><time>2026-04-06T08:02:43Z</time></trkpt><trkpt lat="43.955820826075474" lon="11.959160451047854"><ele>530.8333333333334</ele><time>2026-04-06T08:02:45Z</time></trkpt><trkpt lat="43.955737749639226" lon="11.959102212410015"><ele>533.6666666666666</ele><time>2026-04-06T08:02:46Z</time></trkpt><trkpt lat="43.95569857607705" lon="11.959015092785899"><ele>536.5</ele><time>2026-04-06T08:02:47Z</time></trkpt><trkpt lat="43.95570552579659" lon="11.958927171305422"><ele>539.3333333333333</ele><time>2026-04-06T08:02:48Z</time></trkpt><trkpt lat="43.95563850708909" lon="11.958788055741087"><ele>542.1666666666666</ele><time>2026-04-06T08:02:50Z</time></trkpt><trkpt lat="43.95559986372657" lon="11.95870538170211"><ele>545.0</ele><time>2026-04-06T08:02:51Z</time></trkpt><trkpt lat="43.95557619433674" lon="11.95856334331815"><ele>545.0</ele><time>2026-04-06T08:02:53Z</time></trkpt><trkpt lat="43.95554686620811" lon="11.95848549283228"><ele>545.0</ele><time>2026-04-06T08:02:54Z</time></trkpt><trkpt lat="43.95551594942749" lon="11.958334571916371"><ele>545.0</ele><time>2026-04-06T08:02:56Z</time></trkpt><trkpt lat="43.95549011726085" lon="11.958247545891764"><ele>545.0</ele><time>2026-04-06T08:02:59Z</time></trkpt><trkpt lat="43.95551198006352" lon="11.958154714502907"><ele>545.0</ele><time>2026-04-06T08:03:06Z</time></trkpt><trkpt lat="43.95550028787533" lon="11.958053593372624"><ele>545.0</ele><time>2026-04-06T08:03:08Z</time></trkpt><trkpt lat="43.9554694033886" lon="11.957962358997818"><ele>546.6666666666666</ele><time>2026-04-06T08:03:10Z</time></trkpt><trkpt lat="43.955457373530564" lon="11.957864622528112"><ele>548.3333333333333</ele><time>2026-04-06T08:03:13Z</time></trkpt><trkpt lat="43.955473149561705" lon="11.957740322773645"><ele>550.0</ele><time>2026-04-06T08:03:16Z</time></trkpt><trkpt lat="43.9554422599202" lon="11.957647780090303"><ele>551.6666666666666</ele><time>2026-04-06T08:03:19Z</time></trkpt><trkpt lat="43.95544681549248" lon="11.957559290750831"><ele>553.3333333333334</ele><time>2026-04-06T08:03:21Z</time></trkpt><trkpt lat="43.95547283348999" lon="11.957446713316143"><ele>555.0</ele><time>2026-04-06T08:03:24Z</time></trkpt><trkpt lat="43.95548390792972" lon="11.957337893959533"><ele>557.0000000000001</ele><time>2026-04-06T08:03:27Z</time></trkpt><trkpt lat="43.955487843115954" lon="11.957245641319012"><ele>559.0</ele><time>2026-04-06T08:03:30Z</time></trkpt><trkpt lat="43.95547423047978" lon="11.957158842346676"><ele>561.0</ele><time>2026-04-06T08:03:33Z</time></trkpt><trkpt lat="43.955469097077234" lon="11.957062874866194"><ele>563.0</ele><time>2026-04-06T08:03:35Z</time></trkpt><trkpt lat="43.95542572719506" lon="11.95696771004057"><ele>565.0</ele><time>2026-04-06T08:03:38Z</time></trkpt><trkpt lat="43.95540340253088" lon="11.95686444661845"><ele>567.0000000000001</ele><time>2026-04-06T08:03:41Z</time></trkpt><trkpt lat="43.95536806845178" lon="11.95678862336536"><ele>569.0</ele><time>2026-04-06T08:03:46Z</time></trkpt><trkpt lat="43.9553154093356" lon="11.956698455135507"><ele>573.5714285714287</ele><time>2026-04-06T08:04:08Z</time></trkpt><trkpt lat="43.95530183098434" lon="11.956599078399734"><ele>578.1428571428571</ele><time>2026-04-06T08:04:20Z</time></trkpt><trkpt lat="43.95532349527872" lon="11.956516844786046"><ele>582.7142857142858</ele><time>2026-04-06T08:04:26Z</time></trkpt><trkpt lat="43.95530998170895" lon="11.956401426260378"><ele>587.2857142857143</ele><time>2026-04-06T08:04:30Z</time></trkpt><trkpt lat="43.95530766089929" lon="11.956293410068564"><ele>591.8571428571429</ele><time>2026-04-06T08:04:34Z</time></trkpt><trkpt lat="43.955287834119105" lon="11.95620367891396"><ele>596.4285714285714</ele><time>2026-04-06T08:04:43Z</time></trkpt><trkpt lat="43.95528727569002" lon="11.956115592314616"><ele>601.0</ele><time>2026-04-06T08:04:47Z</time></trkpt><trkpt lat="43.95530130775006" lon="11.956015803964759"><ele>601.0</ele><time>2026-04-06T08:04:52Z</time></trkpt><trkpt lat="43.95532469078455" lon="11.955912793872221"><ele>601.0</ele><time>2026-04-06T08:04:56Z</time></trkpt><trkpt lat="43.955308119154715" lon="11.955814404924096"><ele>601.0</ele><time>2026-04-06T08:04:59Z</time></trkpt><trkpt lat="43.95528833350532" lon="11.955697931929988"><ele>601.0</ele><time>2026-04-06T08:05:02Z</time></trkpt><trkpt lat="43.95522840130216" lon="11.955731493193458"><ele>601.0</ele><time>2026-04-06T08:05:06Z</time></trkpt><trkpt lat="43.95516335187475" lon="11.955698676251952"><ele>601.0</ele><time>2026-04-06T08:05:11Z</time></trkpt><trkpt lat="43.95508942009095" lon="11.955687301573713"><ele>601.0</ele><time>2026-04-06T08:05:16Z</time></trkpt><trkpt lat="43.95503053493203" lon="11.955655978401902"><ele>604.0</ele><time>2026-04-06T08:05:19Z</time></trkpt><trkpt lat="43.95497802440039" lon="11.955599043504517"><ele>607.0</ele><time>2026-04-06T08:05:22Z</time></trkpt><trkpt lat="43.95492920348596" lon="11.955538026715532"><ele>610.0</ele><time>2026-04-06T08:05:24Z</time></trkpt><trkpt lat="43.9548588240548" lon="11.955442118630742"><ele>613.0</ele><time>2026-04-06T08:05:26Z</time></trkpt><trkpt lat="43.95480269071598" lon="11.95535896736569"><ele>616.0</ele><time>2026-04-06T08:05:29Z</time></trkpt><trkpt lat="43.95473233212255" lon="11.955269237501957"><ele>619.0</ele><time>2026-04-06T08:05:31Z</time></trkpt><trkpt lat="43.95467042328617" lon="11.955222243388313"><ele>619.0</ele><time>2026-04-06T08:05:33Z</time></trkpt><trkpt lat="43.95460418652803" lon="11.955140836238547"><ele>619.0</ele><time>2026-04-06T08:05:35Z</time></trkpt><trkpt lat="43.95454572947033" lon="11.95507461381602"><ele>619.0</ele><time>2026-04-06T08:05:38Z</time></trkpt><trkpt lat="43.95447806715327" lon="11.954987646024984"><ele>619.0</ele><time>2026-04-06T08:05:41Z</time></trkpt><trkpt lat="43.954418870554065" lon="11.954912992533336"><ele>619.0</ele><time>2026-04-06T08:05:44Z</time></trkpt><trkpt lat="43.954364214776504" lon="11.954844264299854"><ele>619.0</ele><time>2026-04-06T08:05:46Z</time></trkpt><trkpt lat="43.954255856882604" lon="11.954791183671444"><ele>621.8333333333334</ele><time>2026-04-06T08:05:48Z</time></trkpt><trkpt lat="43.95418895257608" lon="11.95474875860873"><ele>624.6666666666667</ele><time>2026-04-06T08:05:50Z</time></trkpt><trkpt lat="43.95416718810057" lon="11.954851508860168"><ele>627.5</ele><time>2026-04-06T08:05:55Z</time></trkpt><trkpt lat="43.95417425822314" lon="11.954950483334732"><ele>630.3333333333334</ele><time>2026-04-06T08:05:57Z</time></trkpt><trkpt lat="43.95410002528266" lon="11.95500506715574"><ele>633.1666666666666</ele><time>2026-04-06T08:06:01Z</time></trkpt><trkpt lat="43.95403803949858" lon="11.95502083829885"><ele>636.0</ele><time>2026-04-06T08:06:04Z</time></trkpt><trkpt lat="43.95395548892331" lon="11.954970705149154"><ele>636.0</ele><time>2026-04-06T08:06:07Z</time></trkpt><trkpt lat="43.953892199428" lon="11.954969244656187"><ele>636.0</ele><time>2026-04-06T08:06:09Z</time></trkpt><trkpt lat="43.95382173113523" lon="11.954980094590042"><ele>636.0</ele><time>2026-04-06T08:06:11Z</time></trkpt><trkpt lat="43.953755306184924" lon="11.95496734270456"><ele>636.0</ele><time>2026-04-06T08:06:13Z</time></trkpt><trkpt lat="43.953712779984755" lon="11.954902482318701"><ele>636.0</ele><time>2026-04-06T08:06:15Z</time></trkpt><trkpt lat="43.95369168675344" lon="11.954813589978322"><ele>636.0</ele><time>2026-04-06T08:06:18Z</time></trkpt><trkpt lat="43.95364346451293" lon="11.954742133223908"><ele>636.0</ele><time>2026-04-06T08:06:21Z</time></trkpt><trkpt lat="43.95356672846532" lon="11.954700073876609"><ele>636.0</ele><time>2026-04-06T08:06:24Z</time></trkpt><trkpt lat="43.95351790145517" lon="11.954641477562966"><ele>636.0</ele><time>2026-04-06T08:06:27Z</time></trkpt><trkpt lat="43.95346478463637" lon="11.954575762003884"><ele>636.0</ele><time>2026-04-06T08:06:30Z</time></trkpt><trkpt lat="43.953367636927325" lon="11.954478447583227"><ele>636.0</ele><time>2026-04-06T08:06:37Z</time></trkpt><trkpt lat="43.95330605992036" lon="11.954425101627361"><ele>636.0</ele><time>2026-04-06T08:06:43Z</time></trkpt><trkpt lat="43.953223282594465" lon="11.954370953768345"><ele>636.0</ele><time>2026-04-06T08:06:47Z</time></trkpt><trkpt lat="43.95316109219086" lon="11.95431079748357"><ele>635.5714285714286</ele><time>2026-04-06T08:06:49Z</time></trkpt><trkpt lat="43.95309016509961" lon="11.954293371578174"><ele>635.1428571428572</ele><time>2026-04-06T08:06:51Z</time></trkpt><trkpt lat="43.953031321526886" lon="11.954241471421735"><ele>634.7142857142858</ele><time>2026-04-06T08:06:53Z</time></trkpt><trkpt lat="43.952976590178096" lon="11.954197753917171"><ele>634.2857142857142</ele><time>2026-04-06T08:06:55Z</time></trkpt><trkpt lat="43.95291351993496" lon="11.954191042067526"><ele>633.8571428571429</ele><time>2026-04-06T08:06:56Z</time></trkpt><trkpt lat="43.95282999196451" lon="11.95416541144604"><ele>633.4285714285714</ele><time>2026-04-06T08:06:58Z</time></trkpt><trkpt lat="43.952770447375755" lon="11.954076233641345"><ele>633.0</ele><time>2026-04-06T08:07:01Z</time></trkpt><trkpt lat="43.95272049878162" lon="11.95401000615206"><ele>634.5</ele><time>2026-04-06T08:07:03Z</time></trkpt><trkpt lat="43.952664118884194" lon="11.953936954754564"><ele>636.0</ele><time>2026-04-06T08:07:06Z</time></trkpt><trkpt lat="43.95263571728539" lon="11.953846543717555"><ele>637.5</ele><time>2026-04-06T08:07:08Z</time></trkpt><trkpt lat="43.952580296796874" lon="11.953761275843377"><ele>639.0</ele><time>2026-04-06T08:07:10Z</time></trkpt><trkpt lat="43.95252375277356" lon="11.953687909697594"><ele>640.5</ele><time>2026-04-06T08:07:13Z</time></trkpt><trkpt lat="43.95246721142062" lon="11.953636773615681"><ele>642.0</ele><time>2026-04-06T08:07:15Z</time></trkpt><trkpt lat="43.95239572736499" lon="11.953563118357115"><ele>642.0</ele><time>2026-04-06T08:07:18Z</time></trkpt><trkpt lat="43.95231875362998" lon="11.953505561844365"><ele>642.0</ele><time>2026-04-06T08:07:20Z</time></trkpt><trkpt lat="43.9522272776514" lon="11.953452004788412"><ele>642.0</ele><time>2026-04-06T08:07:22Z</time></trkpt><trkpt lat="43.951967608675474" lon="11.95330016595485"><ele>645.1666666666666</ele><time>2026-04-06T08:07:24Z</time></trkpt><trkpt lat="43.95189587539942" lon="11.95328087700364"><ele>648.3333333333334</ele><time>2026-04-06T08:07:26Z</time></trkpt><trkpt lat="43.951822987615735" lon="11.953244974926761"><ele>651.5</ele><time>2026-04-06T08:07:28Z</time></trkpt><trkpt lat="43.95176381971955" lon="11.953177575045371"><ele>654.6666666666667</ele><time>2026-04-06T08:07:31Z</time></trkpt><trkpt lat="43.95171203135637" lon="11.953101274830296"><ele>657.8333333333334</ele><time>2026-04-06T08:07:34Z</time></trkpt><trkpt lat="43.951650405425845" lon="11.953044725076087"><ele>661.0</ele><time>2026-04-06T08:07:37Z</time></trkpt><trkpt lat="43.95159754177105" lon="11.95296416312565"><ele>661.0</ele><time>2026-04-06T08:07:40Z</time></trkpt><trkpt lat="43.95158162292292" lon="11.953074747295373"><ele>661.0</ele><time>2026-04-06T08:07:47Z</time></trkpt><trkpt lat="43.951459212670244" lon="11.953057094993406"><ele>661.0</ele><time>2026-04-06T08:08:02Z</time></trkpt><trkpt lat="43.9513799358225" lon="11.953085664648219"><ele>661.0</ele><time>2026-04-06T08:08:17Z</time></trkpt><trkpt lat="43.95131086173664" lon="11.953055972569636"><ele>661.0</ele><time>2026-04-06T08:08:21Z</time></trkpt><trkpt lat="43.951244031636" lon="11.953048340841853"><ele>661.0</ele><time>2026-04-06T08:08:24Z</time></trkpt><trkpt lat="43.951176206839364" lon="11.95298264958772"><ele>661.0</ele><time>2026-04-06T08:08:28Z</time></trkpt><trkpt lat="43.9511078336296" lon="11.952974701099857"><ele>661.0</ele><time>2026-04-06T08:08:43Z</time></trkpt><trkpt lat="43.95102339874673" lon="11.952969423737898"><ele>661.0</ele><time>2026-04-06T08:09:02Z</time></trkpt><trkpt lat="43.9509629843628" lon="11.953002182551845"><ele>661.0</ele><time>2026-04-06T08:09:13Z</time></trkpt><trkpt lat="43.95090434345859" lon="11.952963770241581"><ele>661.0</ele><time>2026-04-06T08:09:18Z</time></trkpt><trkpt lat="43.950859969383664" lon="11.952887635546945"><ele>661.0</ele><time>2026-04-06T08:09:31Z</time></trkpt><trkpt lat="43.95086506783828" lon="11.952778793615249"><ele>661.0</ele><time>2026-04-06T08:10:28Z</time></trkpt><trkpt lat="43.95085859629159" lon="11.952673265450468"><ele>661.8333333333334</ele><time>2026-04-06T08:10:56Z</time></trkpt><trkpt lat="43.950848452833284" lon="11.952575438895549"><ele>662.6666666666667</ele><time>2026-04-06T08:11:05Z</time></trkpt><trkpt lat="43.950792205498054" lon="11.952522682672047"><ele>663.5</ele><time>2026-04-06T08:11:09Z</time></trkpt><trkpt lat="43.95074053986616" lon="11.952447096053723"><ele>664.3333333333334</ele><time>2026-04-06T08:11:11Z</time></trkpt><trkpt lat="43.950658535560514" lon="11.952409087256237"><ele>665.1666666666666</ele><time>2026-04-06T08:11:14Z</time></trkpt><trkpt lat="43.95059881680287" lon="11.952334916485459"><ele>666.0</ele><time>2026-04-06T08:11:18Z</time></trkpt><trkpt lat="43.950592105873554" lon="11.952239575402578"><ele>669.8571428571429</ele><time>2026-04-06T08:11:25Z</time></trkpt><trkpt lat="43.95059501571746" lon="11.95215112175069"><ele>673.7142857142857</ele><time>2026-04-06T08:11:32Z</time></trkpt><trkpt lat="43.95066877500303" lon="11.952131891255982"><ele>677.5714285714286</ele><time>2026-04-06T08:11:36Z</time></trkpt><trkpt lat="43.95073838931837" lon="11.952131661431935"><ele>681.4285714285714</ele><time>2026-04-06T08:11:39Z</time></trkpt><trkpt lat="43.95081634139074" lon="11.952148363900065"><ele>685.2857142857142</ele><time>2026-04-06T08:11:43Z</time></trkpt><trkpt lat="43.95089397788867" lon="11.95215468259994"><ele>689.1428571428571</ele><time>2026-04-06T08:11:48Z</time></trkpt><trkpt lat="43.950957103982866" lon="11.95213276807856"><ele>693.0</ele><time>2026-04-06T08:11:52Z</time></trkpt><trkpt lat="43.95100899626748" lon="11.952049016813335"><ele>694.0</ele><time>2026-04-06T08:11:56Z</time></trkpt><trkpt lat="43.95105954087758" lon="11.951967231512937"><ele>695.0</ele><time>2026-04-06T08:11:59Z</time></trkpt><trkpt lat="43.95108980592351" lon="11.951880683735705"><ele>696.0</ele><time>2026-04-06T08:12:02Z</time></trkpt><trkpt lat="43.95115052814478" lon="11.95185204796374"><ele>697.0</ele><time>2026-04-06T08:12:07Z</time></trkpt><trkpt lat="43.95120440400443" lon="11.951800145768942"><ele>698.0</ele><time>2026-04-06T08:12:10Z</time></trkpt><trkpt lat="43.951284953197195" lon="11.951773017044719"><ele>699.0</ele><time>2026-04-06T08:12:16Z</time></trkpt><trkpt lat="43.95133102951339" lon="11.951709325068649"><ele>700.0</ele><time>2026-04-06T08:12:22Z</time></trkpt><trkpt lat="43.95139827997835" lon="11.95169532703531"><ele>704.5</ele><time>2026-04-06T08:12:26Z</time></trkpt><trkpt lat="43.95151874935563" lon="11.95169535608959"><ele>709.0</ele><time>2026-04-06T08:12:41Z</time></trkpt><trkpt lat="43.95158824073692" lon="11.951659535747574"><ele>713.5</ele><time>2026-04-06T08:13:03Z</time></trkpt><trkpt lat="43.95166012345247" lon="11.951630133551475"><ele>718.0</ele><time>2026-04-06T08:13:06Z</time></trkpt><trkpt lat="43.95174416908642" lon="11.951639936814788"><ele>722.5</ele><time>2026-04-06T08:13:11Z</time></trkpt><trkpt lat="43.95180867648966" lon="11.951613041588555"><ele>727.0</ele><time>2026-04-06T08:13:24.999Z</time></trkpt><trkpt lat="43.951877168807805" lon="11.95168860802161"><ele>725.8571428571428</ele><time>2026-04-06T08:13:29.999Z</time></trkpt><trkpt lat="43.95194190571282" lon="11.951714704022484"><ele>724.7142857142858</ele><time>2026-04-06T08:13:32.999Z</time></trkpt><trkpt lat="43.95200099574881" lon="11.951762404767818"><ele>723.5714285714286</ele><time>2026-04-06T08:13:34.999Z</time></trkpt><trkpt lat="43.95206541695568" lon="11.951794943646117"><ele>722.4285714285713</ele><time>2026-04-06T08:13:37.999Z</time></trkpt><trkpt lat="43.95210907051402" lon="11.951860985858765"><ele>721.2857142857142</ele><time>2026-04-06T08:13:47.999Z</time></trkpt><trkpt lat="43.952182283732824" lon="11.951898339811883"><ele>720.1428571428571</ele><time>2026-04-06T08:14:33.999Z</time></trkpt><trkpt lat="43.952241717932324" lon="11.951970998070136"><ele>719.0</ele><time>2026-04-06T08:14:37.999Z</time></trkpt><trkpt lat="43.952314496371166" lon="11.95194925723174"><ele>718.9999999999999</ele><time>2026-04-06T08:14:41.999Z</time></trkpt><trkpt lat="43.952317434891" lon="11.951858804241187"><ele>719.0</ele><time>2026-04-06T08:14:45.999Z</time></trkpt><trkpt lat="43.95232244577516" lon="11.951748858581098"><ele>719.0</ele><time>2026-04-06T08:14:58.999Z</time></trkpt><trkpt lat="43.9523319476763" lon="11.951655334084434"><ele>719.0</ele><time>2026-04-06T08:15:02.999Z</time></trkpt><trkpt lat="43.95240712393816" lon="11.9516171353001"><ele>719.0</ele><time>2026-04-06T08:15:08.999Z</time></trkpt><trkpt lat="43.95244876696181" lon="11.951532667663226"><ele>718.9999999999999</ele><time>2026-04-06T08:15:11.999Z</time></trkpt><trkpt lat="43.95250174083361" lon="11.951464358527117"><ele>719.0</ele><time>2026-04-06T08:15:14.999Z</time></trkpt><trkpt lat="43.95252591470985" lon="11.951378990666177"><ele>722.4285714285713</ele><time>2026-04-06T08:15:39.999Z</time></trkpt><trkpt lat="43.952493008153965" lon="11.951455783797249"><ele>725.8571428571429</ele><time>2026-04-06T08:15:51.999Z</time></trkpt><trkpt lat="43.952517380832845" lon="11.951374143633208"><ele>729.2857142857142</ele><time>2026-04-06T08:16:03.999Z</time></trkpt><trkpt lat="43.95257657420606" lon="11.951297030931231"><ele>732.7142857142857</ele><time>2026-04-06T08:16:09.999Z</time></trkpt><trkpt lat="43.952635065606444" lon="11.95125401741783"><ele>736.1428571428571</ele><time>2026-04-06T08:16:20.999Z</time></trkpt><trkpt lat="43.952645595866535" lon="11.951155323908148"><ele>739.5714285714286</ele><time>2026-04-06T08:16:25.999Z</time></trkpt><trkpt lat="43.952622941788306" lon="11.951019270561364"><ele>743.0</ele><time>2026-04-06T08:16:28.999Z</time></trkpt><trkpt lat="43.952605837413614" lon="11.950878646622083"><ele>746.1666666666666</ele><time>2026-04-06T08:16:30.999Z</time></trkpt><trkpt lat="43.952589826327" lon="11.950736535830341"><ele>749.3333333333333</ele><time>2026-04-06T08:16:32.999Z</time></trkpt><trkpt lat="43.95266322254364" lon="11.950701750518403"><ele>752.5</ele><time>2026-04-06T08:19:13Z</time></trkpt><trkpt lat="43.95262493277051" lon="11.950562114817894"><ele>755.6666666666666</ele><time>2026-04-06T08:19:16Z</time></trkpt><trkpt lat="43.952584138529666" lon="11.950492599083091"><ele>758.8333333333334</ele><time>2026-04-06T08:19:17Z</time></trkpt><trkpt lat="43.95253508242776" lon="11.950404976683163"><ele>762.0</ele><time>2026-04-06T08:19:18Z</time></trkpt><trkpt lat="43.952474126647154" lon="11.950324125125892"><ele>762.0</ele><time>2026-04-06T08:19:19Z</time></trkpt><trkpt lat="43.952408530030525" lon="11.950252821447439"><ele>762.0</ele><time>2026-04-06T08:19:20Z</time></trkpt><trkpt lat="43.95235021135469" lon="11.950168240021277"><ele>762.0</ele><time>2026-04-06T08:19:21Z</time></trkpt><trkpt lat="43.952273197597734" lon="11.950085157938412"><ele>762.0</ele><time>2026-04-06T08:19:22Z</time></trkpt><trkpt lat="43.9521972521056" lon="11.950031802579527"><ele>762.0</ele><time>2026-04-06T08:19:23Z</time></trkpt><trkpt lat="43.952118123641775" lon="11.950007811150526"><ele>762.0</ele><time>2026-04-06T08:19:24Z</time></trkpt><trkpt lat="43.95204015650955" lon="11.949985851123914"><ele>763.0</ele><time>2026-04-06T08:19:25Z</time></trkpt><trkpt lat="43.951945864362" lon="11.949934221147375"><ele>764.0</ele><time>2026-04-06T08:19:26Z</time></trkpt><trkpt lat="43.95183265859934" lon="11.949843639667847"><ele>765.0</ele><time>2026-04-06T08:19:27Z</time></trkpt><trkpt lat="43.951692092507514" lon="11.94974993924854"><ele>766.0</ele><time>2026-04-06T08:19:28Z</time></trkpt><trkpt lat="43.95154555636382" lon="11.949702978323414"><ele>768.0</ele><time>2026-04-06T08:19:29Z</time></trkpt><trkpt lat="43.95140841420201" lon="11.949675407183484"><ele>770.0</ele><time>2026-04-06T08:19:30Z</time></trkpt><trkpt lat="43.95126559518649" lon="11.949658542585892"><ele>772.0</ele><time>2026-04-06T08:19:31Z</time></trkpt><trkpt lat="43.951135544225146" lon="11.949658246714444"><ele>774.0</ele><time>2026-04-06T08:19:32Z</time></trkpt><trkpt lat="43.951031548080074" lon="11.949663126563681"><ele>774.0</ele><time>2026-04-06T08:19:33Z</time></trkpt><trkpt lat="43.95092729855363" lon="11.949658944155821"><ele>774.0</ele><time>2026-04-06T08:19:34Z</time></trkpt><trkpt lat="43.95082927505339" lon="11.94966161316657"><ele>774.0</ele><time>2026-04-06T08:19:35Z</time></trkpt><trkpt lat="43.950739743715715" lon="11.949687757482446"><ele>774.0</ele><time>2026-04-06T08:19:36Z</time></trkpt><trkpt lat="43.95066299293947" lon="11.949732523503116"><ele>774.0</ele><time>2026-04-06T08:19:37Z</time></trkpt><trkpt lat="43.95057927626079" lon="11.949753015010907"><ele>774.0</ele><time>2026-04-06T08:19:38Z</time></trkpt><trkpt lat="43.950494661422425" lon="11.949800928057973"><ele>774.0</ele><time>2026-04-06T08:19:39Z</time></trkpt><trkpt lat="43.95040252969981" lon="11.949868928340264"><ele>774.0</ele><time>2026-04-06T08:19:40Z</time></trkpt><trkpt lat="43.95031111945469" lon="11.949913250939813"><ele>774.0</ele><time>2026-04-06T08:19:41Z</time></trkpt><trkpt lat="43.95021597471667" lon="11.949932519044216"><ele>774.0</ele><time>2026-04-06T08:19:42Z</time></trkpt><trkpt lat="43.95012682238389" lon="11.949931243866846"><ele>774.0</ele><time>2026-04-06T08:19:43Z</time></trkpt><trkpt lat="43.95004892446729" lon="11.949945451285867"><ele>774.0</ele><time>2026-04-06T08:19:44Z</time></trkpt><trkpt lat="43.9499658548851" lon="11.949981166169355"><ele>774.0</ele><time>2026-04-06T08:19:45Z</time></trkpt><trkpt lat="43.94987828259469" lon="11.950032570638326"><ele>774.0</ele><time>2026-04-06T08:19:46Z</time></trkpt><trkpt lat="43.94979627035225" lon="11.950095396902832"><ele>774.0</ele><time>2026-04-06T08:19:47Z</time></trkpt><trkpt lat="43.9497074018252" lon="11.950151715366045"><ele>771.8000000000001</ele><time>2026-04-06T08:19:48Z</time></trkpt><trkpt lat="43.94961947299239" lon="11.950210969875046"><ele>769.6</ele><time>2026-04-06T08:19:49Z</time></trkpt><trkpt lat="43.94952476335923" lon="11.950255270659937"><ele>767.4</ele><time>2026-04-06T08:19:50Z</time></trkpt><trkpt lat="43.949424198414405" lon="11.950275656747735"><ele>765.2</ele><time>2026-04-06T08:19:51Z</time></trkpt><trkpt lat="43.949320936370775" lon="11.950299654396309"><ele>763.0</ele><time>2026-04-06T08:19:52Z</time></trkpt><trkpt lat="43.949219638601306" lon="11.95031438877967"><ele>762.0</ele><time>2026-04-06T08:19:53Z</time></trkpt><trkpt lat="43.94912670536253" lon="11.950322753696037"><ele>761.0</ele><time>2026-04-06T08:19:54Z</time></trkpt><trkpt lat="43.949040820169124" lon="11.950329972685719"><ele>760.0</ele><time>2026-04-06T08:19:55Z</time></trkpt><trkpt lat="43.94895905595161" lon="11.950345843649112"><ele>759.0</ele><time>2026-04-06T08:19:56Z</time></trkpt><trkpt lat="43.948873537568105" lon="11.950355052067815"><ele>758.0</ele><time>2026-04-06T08:19:57Z</time></trkpt><trkpt lat="43.94878102127496" lon="11.950376962601474"><ele>757.0</ele><time>2026-04-06T08:19:58Z</time></trkpt><trkpt lat="43.94868176724275" lon="11.950383055593855"><ele>757.0</ele><time>2026-04-06T08:19:59Z</time></trkpt><trkpt lat="43.9485767171302" lon="11.950365587088266"><ele>757.0</ele><time>2026-04-06T08:20:00Z</time></trkpt><trkpt lat="43.9484593886025" lon="11.95036110255763"><ele>757.0</ele><time>2026-04-06T08:20:01Z</time></trkpt><trkpt lat="43.94834585907086" lon="11.950376578963022"><ele>757.0</ele><time>2026-04-06T08:20:02Z</time></trkpt><trkpt lat="43.948238916401024" lon="11.950397390225547"><ele>757.0</ele><time>2026-04-06T08:20:03Z</time></trkpt><trkpt lat="43.948133612678305" lon="11.9504041989371"><ele>755.0</ele><time>2026-04-06T08:20:04Z</time></trkpt><trkpt lat="43.94803758758399" lon="11.950408172696598"><ele>753.0</ele><time>2026-04-06T08:20:05Z</time></trkpt><trkpt lat="43.9479344362432" lon="11.95041822214144"><ele>751.0</ele><time>2026-04-06T08:20:06Z</time></trkpt><trkpt lat="43.947836847818984" lon="11.950429551769487"><ele>749.0</ele><time>2026-04-06T08:20:07Z</time></trkpt><trkpt lat="43.947733073701194" lon="11.95045041081532"><ele>747.0</ele><time>2026-04-06T08:20:08Z</time></trkpt><trkpt lat="43.94763672695516" lon="11.95048953912749"><ele>748.4000000000001</ele><time>2026-04-06T08:20:09Z</time></trkpt><trkpt lat="43.94754069631463" lon="11.950537383025829"><ele>749.8000000000001</ele><time>2026-04-06T08:20:10Z</time></trkpt><trkpt lat="43.94745545547344" lon="11.950596331258495"><ele>751.2</ele><time>2026-04-06T08:20:11Z</time></trkpt><trkpt lat="43.94738243533945" lon="11.950651883433322"><ele>752.6</ele><time>2026-04-06T08:20:12Z</time></trkpt><trkpt lat="43.94729869079196" lon="11.950672528125482"><ele>754.0</ele><time>2026-04-06T08:20:13.001Z</time></trkpt><trkpt lat="43.94719740405425" lon="11.950665746591978"><ele>754.0</ele><time>2026-04-06T08:20:14.001Z</time></trkpt><trkpt lat="43.947081818097914" lon="11.950646589909933"><ele>754.0</ele><time>2026-04-06T08:20:15.001Z</time></trkpt><trkpt lat="43.94699190863967" lon="11.950588281724063"><ele>754.0</ele><time>2026-04-06T08:20:16.001Z</time></trkpt><trkpt lat="43.94689158810766" lon="11.950541274954313"><ele>754.0</ele><time>2026-04-06T08:20:17.001Z</time></trkpt><trkpt lat="43.946799513097794" lon="11.950495147608905"><ele>754.0</ele><time>2026-04-06T08:20:18.001Z</time></trkpt><trkpt lat="43.94670198366003" lon="11.95043393900998"><ele>754.6</ele><time>2026-04-06T08:20:19.001Z</time></trkpt><trkpt lat="43.94661920076205" lon="11.950365710804997"><ele>755.2</ele><time>2026-04-06T08:20:20.001Z</time></trkpt><trkpt lat="43.946511771034025" lon="11.950318342572723"><ele>755.8000000000001</ele><time>2026-04-06T08:20:21.001Z</time></trkpt><trkpt lat="43.94641101244828" lon="11.950278962132256"><ele>756.4000000000001</ele><time>2026-04-06T08:20:22.001Z</time></trkpt><trkpt lat="43.94630819818669" lon="11.950239255631145"><ele>757.0</ele><time>2026-04-06T08:20:23.001Z</time></trkpt><trkpt lat="43.94620494943334" lon="11.950212238152467"><ele>757.0</ele><time>2026-04-06T08:20:24.001Z</time></trkpt><trkpt lat="43.94609130991524" lon="11.95021432455728"><ele>757.0</ele><time>2026-04-06T08:20:25.001Z</time></trkpt><trkpt lat="43.94597437720438" lon="11.950216799320108"><ele>757.0</ele><time>2026-04-06T08:20:26.001Z</time></trkpt><trkpt lat="43.945864083930864" lon="11.950219437034457"><ele>757.0</ele><time>2026-04-06T08:20:27.001Z</time></trkpt><trkpt lat="43.94575833509035" lon="11.950254467884864"><ele>756.6</ele><time>2026-04-06T08:20:28.001Z</time></trkpt><trkpt lat="43.94566085419633" lon="11.95027629098299"><ele>756.2</ele><time>2026-04-06T08:20:29.001Z</time></trkpt><trkpt lat="43.94555989605732" lon="11.950291365283991"><ele>755.8</ele><time>2026-04-06T08:20:30.001Z</time></trkpt><trkpt lat="43.94544831706615" lon="11.950271464557328"><ele>755.4</ele><time>2026-04-06T08:20:31Z</time></trkpt><trkpt lat="43.94534095786144" lon="11.950203422873138"><ele>755.0</ele><time>2026-04-06T08:20:32Z</time></trkpt><trkpt lat="43.94525112653793" lon="11.950112823688997"><ele>755.25</ele><time>2026-04-06T08:20:33.001Z</time></trkpt><trkpt lat="43.94516764534786" lon="11.950005224092262"><ele>755.5</ele><time>2026-04-06T08:20:34.001Z</time></trkpt><trkpt lat="43.94508725321811" lon="11.949878958615022"><ele>755.75</ele><time>2026-04-06T08:20:35.001Z</time></trkpt><trkpt lat="43.944995713209856" lon="11.949776890303998"><ele>756.0</ele><time>2026-04-06T08:20:36.001Z</time></trkpt><trkpt lat="43.94489351778238" lon="11.949687312613793"><ele>756.0</ele><time>2026-04-06T08:20:37.001Z</time></trkpt><trkpt lat="43.944781488003095" lon="11.949629262839107"><ele>756.0</ele><time>2026-04-06T08:20:38.001Z</time></trkpt><trkpt lat="43.944668622190704" lon="11.94956731819246"><ele>756.0</ele><time>2026-04-06T08:20:39.001Z</time></trkpt><trkpt lat="43.9445695319775" lon="11.949503241956446"><ele>756.0</ele><time>2026-04-06T08:20:40.001Z</time></trkpt><trkpt lat="43.944486745272556" lon="11.94939303595413"><ele>756.0</ele><time>2026-04-06T08:20:41.001Z</time></trkpt><trkpt lat="43.944409933546304" lon="11.94925106460332"><ele>756.0</ele><time>2026-04-06T08:20:42.001Z</time></trkpt><trkpt lat="43.9443199125511" lon="11.949116486822904"><ele>756.0</ele><time>2026-04-06T08:20:43.001Z</time></trkpt><trkpt lat="43.944231109301505" lon="11.949008764818617"><ele>756.0</ele><time>2026-04-06T08:20:44.001Z</time></trkpt><trkpt lat="43.944144879317165" lon="11.948884514395257"><ele>756.5</ele><time>2026-04-06T08:20:45.001Z</time></trkpt><trkpt lat="43.94405943901445" lon="11.948767235016106"><ele>757.0</ele><time>2026-04-06T08:20:46.001Z</time></trkpt><trkpt lat="43.94396097123658" lon="11.948654958964312"><ele>757.5</ele><time>2026-04-06T08:20:47.001Z</time></trkpt><trkpt lat="43.943868728441586" lon="11.948542984556743"><ele>758.0</ele><time>2026-04-06T08:20:48.001Z</time></trkpt><trkpt lat="43.9437909684686" lon="11.948425834698156"><ele>756.8</ele><time>2026-04-06T08:20:49.001Z</time></trkpt><trkpt lat="43.943742934652846" lon="11.948297799031621"><ele>755.5999999999999</ele><time>2026-04-06T08:20:50.001Z</time></trkpt><trkpt lat="43.943703842283206" lon="11.948167352262102"><ele>754.4000000000001</ele><time>2026-04-06T08:20:51.001Z</time></trkpt><trkpt lat="43.943587913657495" lon="11.948170620633235"><ele>753.2</ele><time>2026-04-06T08:20:53.001Z</time></trkpt><trkpt lat="43.9435080092683" lon="11.948262021235736"><ele>752.0</ele><time>2026-04-06T08:20:54.001Z</time></trkpt><trkpt lat="43.943402590439064" lon="11.948353394325594"><ele>753.8</ele><time>2026-04-06T08:20:55.001Z</time></trkpt><trkpt lat="43.943350347232574" lon="11.94847204149162"><ele>755.6</ele><time>2026-04-06T08:20:56.001Z</time></trkpt><trkpt lat="43.94330250174634" lon="11.948591741229457"><ele>757.4</ele><time>2026-04-06T08:20:57.001Z</time></trkpt><trkpt lat="43.943272276584274" lon="11.948723248447036"><ele>759.1999999999999</ele><time>2026-04-06T08:20:58.001Z</time></trkpt><trkpt lat="43.943254463216284" lon="11.94885455602241"><ele>761.0</ele><time>2026-04-06T08:20:59.001Z</time></trkpt><trkpt lat="43.94325167306809" lon="11.948985356418762"><ele>761.0</ele><time>2026-04-06T08:21:00.001Z</time></trkpt><trkpt lat="43.94324432789422" lon="11.949101364182876"><ele>761.0</ele><time>2026-04-06T08:21:01.001Z</time></trkpt><trkpt lat="43.943217683580556" lon="11.949209891685172"><ele>761.0</ele><time>2026-04-06T08:21:02.001Z</time></trkpt><trkpt lat="43.9431780982116" lon="11.949322528136024"><ele>761.0</ele><time>2026-04-06T08:21:03.001Z</time></trkpt><trkpt lat="43.94313638600624" lon="11.949443023787648"><ele>761.0</ele><time>2026-04-06T08:21:04.001Z</time></trkpt><trkpt lat="43.943091893718304" lon="11.949577159569367"><ele>759.1999999999999</ele><time>2026-04-06T08:21:05.001Z</time></trkpt><trkpt lat="43.94304993298459" lon="11.94971719672785"><ele>757.4</ele><time>2026-04-06T08:21:06.001Z</time></trkpt><trkpt lat="43.94301212931685" lon="11.94985679906296"><ele>755.6</ele><time>2026-04-06T08:21:07.001Z</time></trkpt><trkpt lat="43.942983532135486" lon="11.949982918981215"><ele>753.8</ele><time>2026-04-06T08:21:08.001Z</time></trkpt><trkpt lat="43.9429511634888" lon="11.950104008658906"><ele>752.0</ele><time>2026-04-06T08:21:09.001Z</time></trkpt><trkpt lat="43.94290870537187" lon="11.95020465258138"><ele>751.0</ele><time>2026-04-06T08:21:10.001Z</time></trkpt><trkpt lat="43.94286106887807" lon="11.950289185304433"><ele>750.0</ele><time>2026-04-06T08:21:11.001Z</time></trkpt><trkpt lat="43.94282354737002" lon="11.950366114129938"><ele>749.0</ele><time>2026-04-06T08:21:12.001Z</time></trkpt><trkpt lat="43.94279237687345" lon="11.950445904092447"><ele>748.0</ele><time>2026-04-06T08:21:13.001Z</time></trkpt><trkpt lat="43.942761035317545" lon="11.950536532511153"><ele>747.0</ele><time>2026-04-06T08:21:14.001Z</time></trkpt><trkpt lat="43.942732552200326" lon="11.95064770533868"><ele>746.0</ele><time>2026-04-06T08:21:15.001Z</time></trkpt><trkpt lat="43.94270716348155" lon="11.950764405826884"><ele>745.5</ele><time>2026-04-06T08:21:16.001Z</time></trkpt><trkpt lat="43.942669857651794" lon="11.950884232414921"><ele>745.0</ele><time>2026-04-06T08:21:17.001Z</time></trkpt><trkpt lat="43.94263413891438" lon="11.950999453382712"><ele>744.5</ele><time>2026-04-06T08:21:18.001Z</time></trkpt><trkpt lat="43.94261093637509" lon="11.951099025769105"><ele>744.0</ele><time>2026-04-06T08:21:19.001Z</time></trkpt><trkpt lat="43.94257909652681" lon="11.951204672111341"><ele>743.5</ele><time>2026-04-06T08:21:20.001Z</time></trkpt><trkpt lat="43.94255425554303" lon="11.951331009432065"><ele>743.0</ele><time>2026-04-06T08:21:21.001Z</time></trkpt><trkpt lat="43.942523855421854" lon="11.951454773550914"><ele>748.5</ele><time>2026-04-06T08:21:22.001Z</time></trkpt><trkpt lat="43.94245525517882" lon="11.951542808487252"><ele>754.0</ele><time>2026-04-06T08:21:23.001Z</time></trkpt><trkpt lat="43.942334287246865" lon="11.951610008166035"><ele>759.5</ele><time>2026-04-06T08:21:24.001Z</time></trkpt><trkpt lat="43.94223169260503" lon="11.95167891447169"><ele>765.0</ele><time>2026-04-06T08:21:25.001Z</time></trkpt><trkpt lat="43.94214773068493" lon="11.951781988907177"><ele>766.5</ele><time>2026-04-06T08:21:26.001Z</time></trkpt><trkpt lat="43.94208562840483" lon="11.951952420281362"><ele>768.0</ele><time>2026-04-06T08:21:27.001Z</time></trkpt><trkpt lat="43.942023513179294" lon="11.952137286653063"><ele>769.5</ele><time>2026-04-06T08:21:28.001Z</time></trkpt><trkpt lat="43.94196730370535" lon="11.95231586210246"><ele>771.0</ele><time>2026-04-06T08:21:29.001Z</time></trkpt><trkpt lat="43.941914038630216" lon="11.952478698777837"><ele>771.5</ele><time>2026-04-06T08:21:30.001Z</time></trkpt><trkpt lat="43.941855426739394" lon="11.952605146731559"><ele>772.0</ele><time>2026-04-06T08:21:31.001Z</time></trkpt><trkpt lat="43.94177639143717" lon="11.952724271370787"><ele>772.5</ele><time>2026-04-06T08:21:32.001Z</time></trkpt><trkpt lat="43.94166306933001" lon="11.952812085317342"><ele>773.0</ele><time>2026-04-06T08:21:33.001Z</time></trkpt><trkpt lat="43.941531272881015" lon="11.952872519015353"><ele>776.4</ele><time>2026-04-06T08:21:34.001Z</time></trkpt><trkpt lat="43.94143596120138" lon="11.952923290743986"><ele>779.8</ele><time>2026-04-06T08:21:35.001Z</time></trkpt><trkpt lat="43.94136751032795" lon="11.952964674592652"><ele>783.2</ele><time>2026-04-06T08:21:36.001Z</time></trkpt><trkpt lat="43.941314023504454" lon="11.953060485874486"><ele>786.6</ele><time>2026-04-06T08:21:37.001Z</time></trkpt><trkpt lat="43.94129743604726" lon="11.953197515706805"><ele>790.0</ele><time>2026-04-06T08:21:38.001Z</time></trkpt><trkpt lat="43.941283523545636" lon="11.953333639647918"><ele>791.3333333333333</ele><time>2026-04-06T08:21:39.001Z</time></trkpt><trkpt lat="43.94124224844627" lon="11.953406935697993"><ele>792.6666666666666</ele><time>2026-04-06T08:21:41.001Z</time></trkpt><trkpt lat="43.94119454374048" lon="11.953491879699072"><ele>794.0</ele><time>2026-04-06T08:21:44.001Z</time></trkpt><trkpt lat="43.941137690067414" lon="11.953531582998393"><ele>795.3333333333333</ele><time>2026-04-06T08:21:45.001Z</time></trkpt><trkpt lat="43.941062871156305" lon="11.953535030244696"><ele>796.6666666666666</ele><time>2026-04-06T08:21:46.001Z</time></trkpt><trkpt lat="43.940984289867444" lon="11.953558141128042"><ele>798.0</ele><time>2026-04-06T08:21:47.001Z</time></trkpt><trkpt lat="43.940888589010896" lon="11.953592685490662"><ele>795.4</ele><time>2026-04-06T08:21:48.001Z</time></trkpt><trkpt lat="43.940791196839825" lon="11.953642671665547"><ele>792.8</ele><time>2026-04-06T08:21:49.001Z</time></trkpt><trkpt lat="43.94069594624407" lon="11.953708936719082"><ele>790.2</ele><time>2026-04-06T08:21:50.001Z</time></trkpt><trkpt lat="43.94062505445471" lon="11.953786732348822"><ele>787.6</ele><time>2026-04-06T08:21:51.001Z</time></trkpt><trkpt lat="43.940601618733645" lon="11.953874605494743"><ele>785.0</ele><time>2026-04-06T08:21:52.001Z</time></trkpt><trkpt lat="43.94067415617248" lon="11.954053232923936"><ele>785.0</ele><time>2026-04-06T08:21:54.001Z</time></trkpt><trkpt lat="43.9407107242085" lon="11.95414671821913"><ele>785.0</ele><time>2026-04-06T08:21:55.001Z</time></trkpt><trkpt lat="43.94073840570648" lon="11.954267688799606"><ele>785.0</ele><time>2026-04-06T08:21:56.001Z</time></trkpt><trkpt lat="43.94077002820429" lon="11.954401249630523"><ele>785.0</ele><time>2026-04-06T08:21:57.001Z</time></trkpt><trkpt lat="43.94079738520414" lon="11.954545653265447"><ele>785.0</ele><time>2026-04-06T08:21:58.001Z</time></trkpt><trkpt lat="43.94083163872242" lon="11.954726593021133"><ele>790.0</ele><time>2026-04-06T08:21:59.001Z</time></trkpt><trkpt lat="43.940891270150914" lon="11.954862344097146"><ele>795.0</ele><time>2026-04-06T08:22:00.001Z</time></trkpt><trkpt lat="43.940923598989315" lon="11.955006319501052"><ele>800.0</ele><time>2026-04-06T08:22:01.001Z</time></trkpt><trkpt lat="43.94096029342108" lon="11.955130954923984"><ele>805.0</ele><time>2026-04-06T08:22:02.001Z</time></trkpt><trkpt lat="43.94097648756999" lon="11.955255096475726"><ele>810.0</ele><time>2026-04-06T08:22:03.001Z</time></trkpt><trkpt lat="43.94099482010961" lon="11.955353162124153"><ele>810.8333333333334</ele><time>2026-04-06T08:22:04.001Z</time></trkpt><trkpt lat="43.94101912316046" lon="11.955439007580253"><ele>811.6666666666667</ele><time>2026-04-06T08:22:05.001Z</time></trkpt><trkpt lat="43.94096402932927" lon="11.955610805455635"><ele>812.5</ele><time>2026-04-06T08:22:07.001Z</time></trkpt><trkpt lat="43.94092892609629" lon="11.955724255110107"><ele>813.3333333333334</ele><time>2026-04-06T08:22:08.001Z</time></trkpt><trkpt lat="43.94090193286893" lon="11.955833773148104"><ele>814.1666666666667</ele><time>2026-04-06T08:22:09.001Z</time></trkpt><trkpt lat="43.94086527720555" lon="11.955912094761194"><ele>815.0</ele><time>2026-04-06T08:22:10.001Z</time></trkpt><trkpt lat="43.94079993031191" lon="11.956046930298175"><ele>811.8333333333334</ele><time>2026-04-06T08:22:12.001Z</time></trkpt><trkpt lat="43.94073746484769" lon="11.95616003939885"><ele>808.6666666666667</ele><time>2026-04-06T08:22:13.001Z</time></trkpt><trkpt lat="43.9406637714111" lon="11.956254824976506"><ele>805.5</ele><time>2026-04-06T08:22:14.001Z</time></trkpt><trkpt lat="43.94059006835384" lon="11.956326811029264"><ele>802.3333333333333</ele><time>2026-04-06T08:22:15.001Z</time></trkpt><trkpt lat="43.94052096730872" lon="11.956377007784628"><ele>799.1666666666666</ele><time>2026-04-06T08:22:16.001Z</time></trkpt><trkpt lat="43.94047980963123" lon="11.95645753076947"><ele>796.0</ele><time>2026-04-06T08:22:17.001Z</time></trkpt><trkpt lat="43.94042212908799" lon="11.956530251883851"><ele>795.9999999999999</ele><time>2026-04-06T08:22:19.001Z</time></trkpt><trkpt lat="43.94033212009137" lon="11.956603038531457"><ele>796.0</ele><time>2026-04-06T08:22:21.001Z</time></trkpt><trkpt lat="43.94027442979732" lon="11.956679791781445"><ele>796.0</ele><time>2026-04-06T08:22:22.001Z</time></trkpt><trkpt lat="43.94021850176051" lon="11.956758510335709"><ele>796.0</ele><time>2026-04-06T08:22:23.001Z</time></trkpt><trkpt lat="43.94016668441759" lon="11.956839619264775"><ele>795.9999999999999</ele><time>2026-04-06T08:22:24.001Z</time></trkpt><trkpt lat="43.94012105217859" lon="11.956932610771931"><ele>796.0</ele><time>2026-04-06T08:22:25.001Z</time></trkpt><trkpt lat="43.94007550455683" lon="11.957024042065258"><ele>793.4</ele><time>2026-04-06T08:22:26.001Z</time></trkpt><trkpt lat="43.94003379506827" lon="11.957126582435158"><ele>790.8</ele><time>2026-04-06T08:22:27.001Z</time></trkpt><trkpt lat="43.93998173843363" lon="11.957237073395076"><ele>788.1999999999999</ele><time>2026-04-06T08:22:28.001Z</time></trkpt><trkpt lat="43.93993172590919" lon="11.957351962365479"><ele>785.5999999999999</ele><time>2026-04-06T08:22:29.001Z</time></trkpt><trkpt lat="43.93987337359623" lon="11.957463853750843"><ele>783.0</ele><time>2026-04-06T08:22:30.001Z</time></trkpt><trkpt lat="43.939817090273124" lon="11.95757332015713"><ele>781.2</ele><time>2026-04-06T08:22:31.001Z</time></trkpt><trkpt lat="43.939761575586175" lon="11.957682990296956"><ele>779.4</ele><time>2026-04-06T08:22:32.001Z</time></trkpt><trkpt lat="43.93971039482268" lon="11.95778138213452"><ele>777.6</ele><time>2026-04-06T08:22:33.001Z</time></trkpt><trkpt lat="43.93965833532359" lon="11.95788409118102"><ele>775.8000000000001</ele><time>2026-04-06T08:22:34.001Z</time></trkpt><trkpt lat="43.939615712882286" lon="11.958002671246806"><ele>774.0</ele><time>2026-04-06T08:22:35.001Z</time></trkpt><trkpt lat="43.93958435684941" lon="11.958119247608982"><ele>774.0</ele><time>2026-04-06T08:22:36Z</time></trkpt><trkpt lat="43.93955067870437" lon="11.958233435208165"><ele>774.0</ele><time>2026-04-06T08:22:37Z</time></trkpt><trkpt lat="43.939504884164414" lon="11.95834994903404"><ele>774.0</ele><time>2026-04-06T08:22:38Z</time></trkpt><trkpt lat="43.93945231838575" lon="11.958458483101476"><ele>774.0</ele><time>2026-04-06T08:22:39Z</time></trkpt><trkpt lat="43.93940027350826" lon="11.958561019736493"><ele>774.0</ele><time>2026-04-06T08:22:40Z</time></trkpt><trkpt lat="43.93933745013129" lon="11.958677435562738"><ele>770.25</ele><time>2026-04-06T08:22:41Z</time></trkpt><trkpt lat="43.93925955133265" lon="11.958782415446857"><ele>766.5</ele><time>2026-04-06T08:22:42Z</time></trkpt><trkpt lat="43.9391671496035" lon="11.95888774198001"><ele>762.75</ele><time>2026-04-06T08:22:43Z</time></trkpt><trkpt lat="43.93907104148735" lon="11.958975700654705"><ele>759.0</ele><time>2026-04-06T08:22:44Z</time></trkpt><trkpt lat="43.93896847402589" lon="11.95906390647198"><ele>759.0</ele><time>2026-04-06T08:22:45Z</time></trkpt><trkpt lat="43.93887582287253" lon="11.9591396332998"><ele>759.0</ele><time>2026-04-06T08:22:46Z</time></trkpt><trkpt lat="43.938789170687315" lon="11.95920397457331"><ele>759.0</ele><time>2026-04-06T08:22:47Z</time></trkpt><trkpt lat="43.93870270739839" lon="11.95926153945616"><ele>759.0</ele><time>2026-04-06T08:22:48Z</time></trkpt><trkpt lat="43.93861722703806" lon="11.959307466551579"><ele>759.0</ele><time>2026-04-06T08:22:49Z</time></trkpt><trkpt lat="43.93853219405133" lon="11.959346731298979"><ele>757.1666666666666</ele><time>2026-04-06T08:22:50Z</time></trkpt><trkpt lat="43.93847319198824" lon="11.959381724707615"><ele>755.3333333333334</ele><time>2026-04-06T08:22:51Z</time></trkpt><trkpt lat="43.93841545003768" lon="11.959480265413617"><ele>753.5</ele><time>2026-04-06T08:22:53Z</time></trkpt><trkpt lat="43.93841575199617" lon="11.959634001317616"><ele>751.6666666666667</ele><time>2026-04-06T08:22:55Z</time></trkpt><trkpt lat="43.93844308468558" lon="11.959715378950511"><ele>749.8333333333334</ele><time>2026-04-06T08:22:56Z</time></trkpt><trkpt lat="43.938472283485744" lon="11.959798048379575"><ele>748.0</ele><time>2026-04-06T08:22:57Z</time></trkpt><trkpt lat="43.938502051213" lon="11.959886186633659"><ele>748.0</ele><time>2026-04-06T08:22:58Z</time></trkpt><trkpt lat="43.938530922707095" lon="11.959970780753006"><ele>748.0</ele><time>2026-04-06T08:22:59Z</time></trkpt><trkpt lat="43.93855538456182" lon="11.960052961462818"><ele>748.0</ele><time>2026-04-06T08:23:00Z</time></trkpt><trkpt lat="43.93859146467898" lon="11.960173819820316"><ele>748.0</ele><time>2026-04-06T08:23:02Z</time></trkpt><trkpt lat="43.938601005143035" lon="11.960275462369731"><ele>748.0</ele><time>2026-04-06T08:23:04Z</time></trkpt><trkpt lat="43.93853111584559" lon="11.960410217848711"><ele>748.0</ele><time>2026-04-06T08:23:06Z</time></trkpt><trkpt lat="43.93848657562787" lon="11.960472851131295"><ele>746.2</ele><time>2026-04-06T08:23:07Z</time></trkpt><trkpt lat="43.93848790177417" lon="11.960672354918954"><ele>744.4</ele><time>2026-04-06T08:23:09Z</time></trkpt><trkpt lat="43.93848301656246" lon="11.96083581594809"><ele>742.6</ele><time>2026-04-06T08:23:10Z</time></trkpt><trkpt lat="43.938541833619304" lon="11.960947358231126"><ele>740.8000000000001</ele><time>2026-04-06T08:23:11Z</time></trkpt><trkpt lat="43.938577734491425" lon="11.961055330886001"><ele>739.0</ele><time>2026-04-06T08:23:12Z</time></trkpt><trkpt lat="43.938689925122176" lon="11.961198604413198"><ele>739.0</ele><time>2026-04-06T08:23:13Z</time></trkpt><trkpt lat="43.93877209186274" lon="11.961287731276784"><ele>739.0</ele><time>2026-04-06T08:23:14Z</time></trkpt><trkpt lat="43.93887600409161" lon="11.961371687548645"><ele>739.0</ele><time>2026-04-06T08:23:15Z</time></trkpt><trkpt lat="43.93896198867594" lon="11.961467529095492"><ele>739.0</ele><time>2026-04-06T08:23:16Z</time></trkpt><trkpt lat="43.93902995938323" lon="11.961563617563808"><ele>739.0</ele><time>2026-04-06T08:23:17Z</time></trkpt><trkpt lat="43.93908662528776" lon="11.961663132058325"><ele>738.8000000000001</ele><time>2026-04-06T08:23:18Z</time></trkpt><trkpt lat="43.93916654654797" lon="11.961735331750084"><ele>738.6</ele><time>2026-04-06T08:23:19Z</time></trkpt><trkpt lat="43.939237168110594" lon="11.96181824277894"><ele>738.4</ele><time>2026-04-06T08:23:20Z</time></trkpt><trkpt lat="43.939315948070536" lon="11.961894799850967"><ele>738.2</ele><time>2026-04-06T08:23:21Z</time></trkpt><trkpt lat="43.93941794528412" lon="11.962036206138292"><ele>738.0</ele><time>2026-04-06T08:23:22Z</time></trkpt><trkpt lat="43.93949900045136" lon="11.962095949382805"><ele>738.0</ele><time>2026-04-06T08:23:23Z</time></trkpt><trkpt lat="43.939646561874696" lon="11.962126194842872"><ele>738.0</ele><time>2026-04-06T08:23:24Z</time></trkpt><trkpt lat="43.93977649182312" lon="11.962207781035318"><ele>738.0</ele><time>2026-04-06T08:23:25Z</time></trkpt><trkpt lat="43.93988009682252" lon="11.962273676876325"><ele>738.0</ele><time>2026-04-06T08:23:26Z</time></trkpt><trkpt lat="43.939965639634025" lon="11.962362495694702"><ele>735.0</ele><time>2026-04-06T08:23:27Z</time></trkpt><trkpt lat="43.940061724934054" lon="11.962440110479692"><ele>732.0</ele><time>2026-04-06T08:23:28Z</time></trkpt><trkpt lat="43.940137297137476" lon="11.962505239254227"><ele>729.0</ele><time>2026-04-06T08:23:29Z</time></trkpt><trkpt lat="43.940200253897316" lon="11.9626000192368"><ele>726.0</ele><time>2026-04-06T08:23:30Z</time></trkpt><trkpt lat="43.94024388777466" lon="11.962747746281334"><ele>723.0</ele><time>2026-04-06T08:23:31Z</time></trkpt><trkpt lat="43.940305850064284" lon="11.962888500231955"><ele>723.0</ele><time>2026-04-06T08:23:32Z</time></trkpt><trkpt lat="43.94036817608636" lon="11.963022244733677"><ele>723.0</ele><time>2026-04-06T08:23:33Z</time></trkpt><trkpt lat="43.94041903276999" lon="11.963160081881473"><ele>723.0</ele><time>2026-04-06T08:23:34Z</time></trkpt><trkpt lat="43.940466070586986" lon="11.963288687125946"><ele>723.0</ele><time>2026-04-06T08:23:35Z</time></trkpt><trkpt lat="43.94052051505791" lon="11.963413175398347"><ele>723.0</ele><time>2026-04-06T08:23:36Z</time></trkpt><trkpt lat="43.940584022829285" lon="11.963508831501633"><ele>723.3333333333334</ele><time>2026-04-06T08:23:37Z</time></trkpt><trkpt lat="43.94062600327883" lon="11.963624433048995"><ele>723.6666666666666</ele><time>2026-04-06T08:23:38Z</time></trkpt><trkpt lat="43.940670919018345" lon="11.96372580537831"><ele>724.0</ele><time>2026-04-06T08:23:39Z</time></trkpt><trkpt lat="43.94072133609188" lon="11.96380449740289"><ele>724.3333333333333</ele><time>2026-04-06T08:23:40Z</time></trkpt><trkpt lat="43.94077755714135" lon="11.963868670249942"><ele>724.6666666666666</ele><time>2026-04-06T08:23:41Z</time></trkpt><trkpt lat="43.940804026048276" lon="11.963993146531129"><ele>725.0</ele><time>2026-04-06T08:23:43Z</time></trkpt><trkpt lat="43.94077180042498" lon="11.96408612530351"><ele>725.0</ele><time>2026-04-06T08:23:44Z</time></trkpt><trkpt lat="43.94074295344742" lon="11.964176335708414"><ele>725.0</ele><time>2026-04-06T08:23:45Z</time></trkpt><trkpt lat="43.94073296537413" lon="11.964329663198786"><ele>725.0</ele><time>2026-04-06T08:23:47Z</time></trkpt><trkpt lat="43.940680368391895" lon="11.964414804123358"><ele>725.0</ele><time>2026-04-06T08:23:48Z</time></trkpt><trkpt lat="43.940618125295316" lon="11.964488070102522"><ele>725.0</ele><time>2026-04-06T08:23:49Z</time></trkpt><trkpt lat="43.94057861701359" lon="11.964594487504176"><ele>725.0</ele><time>2026-04-06T08:23:50Z</time></trkpt><trkpt lat="43.94053829366831" lon="11.964703326500532"><ele>722.0</ele><time>2026-04-06T08:23:51Z</time></trkpt><trkpt lat="43.94049824356887" lon="11.96480230049855"><ele>719.0</ele><time>2026-04-06T08:23:52Z</time></trkpt><trkpt lat="43.94045970979186" lon="11.964878128260104"><ele>716.0</ele><time>2026-04-06T08:23:53Z</time></trkpt><trkpt lat="43.94045320795709" lon="11.965019690707933"><ele>713.0</ele><time>2026-04-06T08:23:55Z</time></trkpt><trkpt lat="43.94044338655927" lon="11.965113633061486"><ele>710.0</ele><time>2026-04-06T08:23:57Z</time></trkpt><trkpt lat="43.94039171971829" lon="11.965182024367861"><ele>707.0</ele><time>2026-04-06T08:24:00Z</time></trkpt><trkpt lat="43.940300346996295" lon="11.965243117726247"><ele>705.8571428571429</ele><time>2026-04-06T08:24:03Z</time></trkpt><trkpt lat="43.94023593267861" lon="11.965251755786152"><ele>704.7142857142858</ele><time>2026-04-06T08:24:06Z</time></trkpt><trkpt lat="43.940157741115" lon="11.965285899369245"><ele>703.5714285714286</ele><time>2026-04-06T08:24:10Z</time></trkpt><trkpt lat="43.940114811809416" lon="11.965357674374625"><ele>702.4285714285714</ele><time>2026-04-06T08:24:14Z</time></trkpt><trkpt lat="43.94007671638422" lon="11.96546591446547"><ele>701.2857142857143</ele><time>2026-04-06T08:24:19Z</time></trkpt><trkpt lat="43.94006842287322" lon="11.965568703550343"><ele>700.1428571428571</ele><time>2026-04-06T08:24:22Z</time></trkpt><trkpt lat="43.94006658045574" lon="11.965669636927071"><ele>699.0</ele><time>2026-04-06T08:24:27.001Z</time></trkpt><trkpt lat="43.940090606246834" lon="11.965759680232727"><ele>694.8333333333334</ele><time>2026-04-06T08:24:34.001Z</time></trkpt><trkpt lat="43.94009285555601" lon="11.965862421785221"><ele>690.6666666666666</ele><time>2026-04-06T08:24:42.001Z</time></trkpt><trkpt lat="43.94011907948262" lon="11.965942940801218"><ele>686.5</ele><time>2026-04-06T08:24:45.001Z</time></trkpt><trkpt lat="43.940074153578585" lon="11.966065112804626"><ele>682.3333333333333</ele><time>2026-04-06T08:24:48.001Z</time></trkpt><trkpt lat="43.940016545112734" lon="11.96614073769179"><ele>678.1666666666666</ele><time>2026-04-06T08:24:49.001Z</time></trkpt><trkpt lat="43.939949563710705" lon="11.96619299299277"><ele>674.0</ele><time>2026-04-06T08:24:50.001Z</time></trkpt><trkpt lat="43.93988214373666" lon="11.966237630486873"><ele>673.6666666666666</ele><time>2026-04-06T08:24:51.001Z</time></trkpt><trkpt lat="43.939807502521994" lon="11.966270989397051"><ele>673.3333333333333</ele><time>2026-04-06T08:24:52.001Z</time></trkpt><trkpt lat="43.939724543372556" lon="11.966273388982223"><ele>673.0</ele><time>2026-04-06T08:24:53.001Z</time></trkpt><trkpt lat="43.93964855964845" lon="11.966231977831512"><ele>672.6666666666666</ele><time>2026-04-06T08:24:54.001Z</time></trkpt><trkpt lat="43.939580109419126" lon="11.96618503692981"><ele>672.3333333333334</ele><time>2026-04-06T08:24:55.001Z</time></trkpt><trkpt lat="43.939512568086066" lon="11.966147855488657"><ele>672.0</ele><time>2026-04-06T08:24:56.001Z</time></trkpt><trkpt lat="43.939447244185466" lon="11.966111181267356"><ele>672.0</ele><time>2026-04-06T08:24:57.001Z</time></trkpt><trkpt lat="43.9393203938322" lon="11.966066389243249"><ele>672.0</ele><time>2026-04-06T08:24:59.001Z</time></trkpt><trkpt lat="43.939225066296146" lon="11.966007277367774"><ele>672.0</ele><time>2026-04-06T08:25:01.001Z</time></trkpt><trkpt lat="43.93911773376129" lon="11.965945504670207"><ele>672.0</ele><time>2026-04-06T08:25:03Z</time></trkpt><trkpt lat="43.93904774165388" lon="11.965967125591154"><ele>672.0</ele><time>2026-04-06T08:25:04Z</time></trkpt><trkpt lat="43.93898192578218" lon="11.966005534669545"><ele>672.0</ele><time>2026-04-06T08:25:05Z</time></trkpt><trkpt lat="43.938888900620526" lon="11.965990688054413"><ele>672.0</ele><time>2026-04-06T08:25:07Z</time></trkpt><trkpt lat="43.93880492432048" lon="11.96602491370937"><ele>672.0</ele><time>2026-04-06T08:25:09Z</time></trkpt><trkpt lat="43.93874485541658" lon="11.966123052087497"><ele>672.0</ele><time>2026-04-06T08:25:13Z</time></trkpt><trkpt lat="43.938796557634895" lon="11.96625953583799"><ele>672.0</ele><time>2026-04-06T08:25:15Z</time></trkpt><trkpt lat="43.93886036324599" lon="11.966352730975174"><ele>672.0</ele><time>2026-04-06T08:25:17Z</time></trkpt><trkpt lat="43.93885673646286" lon="11.966492669376757"><ele>672.0</ele><time>2026-04-06T08:25:19Z</time></trkpt><trkpt lat="43.93885433019681" lon="11.96658090064709"><ele>672.0</ele><time>2026-04-06T08:25:20Z</time></trkpt><trkpt lat="43.938861796604684" lon="11.966726117346"><ele>672.0</ele><time>2026-04-06T08:25:22Z</time></trkpt><trkpt lat="43.93890775449861" lon="11.966827505471265"><ele>672.0</ele><time>2026-04-06T08:25:24Z</time></trkpt><trkpt lat="43.939060832833704" lon="11.966819882016532"><ele>671.1666666666666</ele><time>2026-04-06T08:25:26Z</time></trkpt><trkpt lat="43.93912496738584" lon="11.966832288002127"><ele>670.3333333333334</ele><time>2026-04-06T08:25:27Z</time></trkpt><trkpt lat="43.939181322887194" lon="11.966874965748213"><ele>669.5</ele><time>2026-04-06T08:25:28Z</time></trkpt><trkpt lat="43.939217910571735" lon="11.96697845003899"><ele>668.6666666666667</ele><time>2026-04-06T08:25:29Z</time></trkpt><trkpt lat="43.93921359562606" lon="11.967122868059882"><ele>667.8333333333334</ele><time>2026-04-06T08:25:30Z</time></trkpt><trkpt lat="43.939215375800785" lon="11.967262245535286"><ele>667.0</ele><time>2026-04-06T08:25:31Z</time></trkpt><trkpt lat="43.939232806399346" lon="11.967402267895826"><ele>667.0</ele><time>2026-04-06T08:25:32Z</time></trkpt><trkpt lat="43.93926452434082" lon="11.967517187852836"><ele>667.0</ele><time>2026-04-06T08:25:33Z</time></trkpt><trkpt lat="43.93929731283732" lon="11.967652943690359"><ele>667.0</ele><time>2026-04-06T08:25:34Z</time></trkpt><trkpt lat="43.93932801277522" lon="11.967774658556502"><ele>667.0</ele><time>2026-04-06T08:25:35Z</time></trkpt><trkpt lat="43.93937064945281" lon="11.967893966599993"><ele>667.0</ele><time>2026-04-06T08:25:36Z</time></trkpt><trkpt lat="43.939390550948076" lon="11.967994283840085"><ele>670.0</ele><time>2026-04-06T08:25:37Z</time></trkpt><trkpt lat="43.93939427755995" lon="11.968105454513884"><ele>673.0</ele><time>2026-04-06T08:25:38Z</time></trkpt><trkpt lat="43.93941256194602" lon="11.96820242711157"><ele>676.0</ele><time>2026-04-06T08:25:39Z</time></trkpt><trkpt lat="43.9395374771193" lon="11.968329230771639"><ele>679.0</ele><time>2026-04-06T08:25:41Z</time></trkpt><trkpt lat="43.93958097242706" lon="11.968419170094064"><ele>682.0</ele><time>2026-04-06T08:25:42Z</time></trkpt><trkpt lat="43.939599353099425" lon="11.968539607351618"><ele>684.75</ele><time>2026-04-06T08:25:43Z</time></trkpt><trkpt lat="43.939595417229576" lon="11.968659832312628"><ele>687.5</ele><time>2026-04-06T08:25:44Z</time></trkpt><trkpt lat="43.93956481049094" lon="11.968842949370073"><ele>690.25</ele><time>2026-04-06T08:25:45Z</time></trkpt><trkpt lat="43.939502509614336" lon="11.969022746001842"><ele>693.0</ele><time>2026-04-06T08:25:46Z</time></trkpt><trkpt lat="43.93948478964936" lon="11.969207354113479"><ele>693.5999999999999</ele><time>2026-04-06T08:25:47Z</time></trkpt><trkpt lat="43.93949089123244" lon="11.969343669389266"><ele>694.1999999999999</ele><time>2026-04-06T08:25:48Z</time></trkpt><trkpt lat="43.93949486727859" lon="11.969505519282931"><ele>694.8</ele><time>2026-04-06T08:25:49Z</time></trkpt><trkpt lat="43.93946912914722" lon="11.96963567040141"><ele>695.4</ele><time>2026-04-06T08:25:50Z</time></trkpt><trkpt lat="43.93942979042527" lon="11.96971877514672"><ele>696.0</ele><time>2026-04-06T08:25:51Z</time></trkpt><trkpt lat="43.93938135161945" lon="11.969799270077907"><ele>696.0</ele><time>2026-04-06T08:25:52Z</time></trkpt><trkpt lat="43.93932472279315" lon="11.969916750603115"><ele>696.0</ele><time>2026-04-06T08:25:53Z</time></trkpt><trkpt lat="43.939234887841856" lon="11.970073179787056"><ele>696.0</ele><time>2026-04-06T08:25:54Z</time></trkpt><trkpt lat="43.93914971346583" lon="11.970230099153254"><ele>696.0</ele><time>2026-04-06T08:25:55Z</time></trkpt><trkpt lat="43.93909482414859" lon="11.970365952856277"><ele>699.6666666666666</ele><time>2026-04-06T08:25:56Z</time></trkpt><trkpt lat="43.93905113896093" lon="11.970480902646306"><ele>703.3333333333334</ele><time>2026-04-06T08:25:57Z</time></trkpt><trkpt lat="43.93900565752861" lon="11.970569253141633"><ele>707.0</ele><time>2026-04-06T08:25:59Z</time></trkpt><trkpt lat="43.93894996145831" lon="11.970644264311858"><ele>710.6666666666667</ele><time>2026-04-06T08:26:03Z</time></trkpt><trkpt lat="43.93891758811238" lon="11.970733055066386"><ele>714.3333333333334</ele><time>2026-04-06T08:26:06Z</time></trkpt><trkpt lat="43.938843743598355" lon="11.970754895542607"><ele>718.0</ele><time>2026-04-06T08:26:09Z</time></trkpt><trkpt lat="43.938768889317615" lon="11.970757736629968"><ele>718.0</ele><time>2026-04-06T08:26:12Z</time></trkpt><trkpt lat="43.93868603430824" lon="11.970761464934162"><ele>718.0</ele><time>2026-04-06T08:26:14Z</time></trkpt><trkpt lat="43.93861226303961" lon="11.97075707002468"><ele>718.0</ele><time>2026-04-06T08:26:16Z</time></trkpt><trkpt lat="43.938568310920274" lon="11.970675153727015"><ele>718.0</ele><time>2026-04-06T08:26:18Z</time></trkpt><trkpt lat="43.938542833091084" lon="11.970564823574536"><ele>718.0</ele><time>2026-04-06T08:26:21Z</time></trkpt><trkpt lat="43.938488733175085" lon="11.970518000900947"><ele>718.0</ele><time>2026-04-06T08:26:22Z</time></trkpt><trkpt lat="43.93837087197029" lon="11.970574202323423"><ele>718.0</ele><time>2026-04-06T08:26:24Z</time></trkpt><trkpt lat="43.93831246374397" lon="11.97061889079408"><ele>718.0</ele><time>2026-04-06T08:26:25Z</time></trkpt><trkpt lat="43.93820756909877" lon="11.970687106201888"><ele>718.0</ele><time>2026-04-06T08:26:27Z</time></trkpt><trkpt lat="43.93812967556962" lon="11.970745195986431"><ele>718.0</ele><time>2026-04-06T08:26:28Z</time></trkpt><trkpt lat="43.938071880583394" lon="11.97078208426483"><ele>718.0</ele><time>2026-04-06T08:26:29Z</time></trkpt><trkpt lat="43.93801274057684" lon="11.970834689031257"><ele>718.0</ele><time>2026-04-06T08:26:30Z</time></trkpt><trkpt lat="43.93796606909729" lon="11.970896208300367"><ele>718.0</ele><time>2026-04-06T08:26:31Z</time></trkpt><trkpt lat="43.93791770714232" lon="11.970971091704037"><ele>718.0</ele><time>2026-04-06T08:26:32Z</time></trkpt><trkpt lat="43.93787104706014" lon="11.971039972270628"><ele>718.0</ele><time>2026-04-06T08:26:33Z</time></trkpt><trkpt lat="43.937821604725364" lon="11.971107452152062"><ele>718.0</ele><time>2026-04-06T08:26:35Z</time></trkpt><trkpt lat="43.93777927300424" lon="11.971191038920466"><ele>718.0</ele><time>2026-04-06T08:26:38Z</time></trkpt><trkpt lat="43.937713704785004" lon="11.971248644590927"><ele>718.0</ele><time>2026-04-06T08:26:41Z</time></trkpt><trkpt lat="43.93767952361851" lon="11.971138340872633"><ele>718.0</ele><time>2026-04-06T08:26:45Z</time></trkpt><trkpt lat="43.93766496275114" lon="11.971024252141497"><ele>718.0</ele><time>2026-04-06T08:26:47Z</time></trkpt><trkpt lat="43.937672434991654" lon="11.970928788181478"><ele>718.0</ele><time>2026-04-06T08:26:48.001Z</time></trkpt><trkpt lat="43.93766062906567" lon="11.970829448652196"><ele>718.0</ele><time>2026-04-06T08:26:49.001Z</time></trkpt><trkpt lat="43.93765656010477" lon="11.970740807971074"><ele>718.0</ele><time>2026-04-06T08:26:50.001Z</time></trkpt><trkpt lat="43.93763529556159" lon="11.970640172818607"><ele>718.0</ele><time>2026-04-06T08:26:51.001Z</time></trkpt><trkpt lat="43.93762401059794" lon="11.970500855131679"><ele>718.0</ele><time>2026-04-06T08:26:52.001Z</time></trkpt><trkpt lat="43.937616944121594" lon="11.970384354204043"><ele>720.2</ele><time>2026-04-06T08:26:53.001Z</time></trkpt><trkpt lat="43.93762495507282" lon="11.97026463007464"><ele>722.4</ele><time>2026-04-06T08:26:54.001Z</time></trkpt><trkpt lat="43.93763894404619" lon="11.970146751971937"><ele>724.6</ele><time>2026-04-06T08:26:55.001Z</time></trkpt><trkpt lat="43.937699226418516" lon="11.970001623095172"><ele>726.8000000000001</ele><time>2026-04-06T08:26:57.001Z</time></trkpt><trkpt lat="43.93773732336841" lon="11.969841061380034"><ele>729.0</ele><time>2026-04-06T08:26:59.001Z</time></trkpt><trkpt lat="43.937800803121426" lon="11.969724497271885"><ele>730.6</ele><time>2026-04-06T08:27:01.001Z</time></trkpt><trkpt lat="43.93785853675731" lon="11.969627397949534"><ele>732.2</ele><time>2026-04-06T08:27:03.001Z</time></trkpt><trkpt lat="43.93790108910313" lon="11.969469565893359"><ele>733.8000000000001</ele><time>2026-04-06T08:27:05.001Z</time></trkpt><trkpt lat="43.93794469738823" lon="11.969323027821789"><ele>735.4000000000001</ele><time>2026-04-06T08:27:07.001Z</time></trkpt><trkpt lat="43.93798970894342" lon="11.969202800503465"><ele>737.0</ele><time>2026-04-06T08:27:09.001Z</time></trkpt><trkpt lat="43.937964257173846" lon="11.96907021747673"><ele>740.4000000000001</ele><time>2026-04-06T08:27:12.001Z</time></trkpt><trkpt lat="43.93793629299397" lon="11.968971883774978"><ele>743.8000000000001</ele><time>2026-04-06T08:27:14.001Z</time></trkpt><trkpt lat="43.937884199110265" lon="11.96889392543515"><ele>747.2</ele><time>2026-04-06T08:27:19Z</time></trkpt><trkpt lat="43.93785124569708" lon="11.968816493054389"><ele>750.6</ele><time>2026-04-06T08:27:22Z</time></trkpt><trkpt lat="43.93780135979149" lon="11.96875704056384"><ele>754.0</ele><time>2026-04-06T08:27:24Z</time></trkpt><trkpt lat="43.93765961620979" lon="11.968617765061126"><ele>754.0</ele><time>2026-04-06T08:27:27Z</time></trkpt><trkpt lat="43.937588021181426" lon="11.968644895397356"><ele>754.0</ele><time>2026-04-06T08:27:29Z</time></trkpt><trkpt lat="43.937481175577716" lon="11.968624466678843"><ele>754.0</ele><time>2026-04-06T08:27:31Z</time></trkpt><trkpt lat="43.93738059418587" lon="11.96862387572022"><ele>754.0</ele><time>2026-04-06T08:27:33Z</time></trkpt><trkpt lat="43.93731127565046" lon="11.968623947486023"><ele>754.0</ele><time>2026-04-06T08:27:34Z</time></trkpt><trkpt lat="43.937223188933174" lon="11.968622675702651"><ele>754.0</ele><time>2026-04-06T08:27:35Z</time></trkpt><trkpt lat="43.93714844296524" lon="11.968617912196297"><ele>758.4000000000001</ele><time>2026-04-06T08:27:36Z</time></trkpt><trkpt lat="43.93708489273135" lon="11.968575105421436"><ele>762.8</ele><time>2026-04-06T08:27:37Z</time></trkpt><trkpt lat="43.93698688176369" lon="11.968489619660158"><ele>767.2</ele><time>2026-04-06T08:27:39Z</time></trkpt><trkpt lat="43.93690422891804" lon="11.96840015786645"><ele>771.5999999999999</ele><time>2026-04-06T08:27:41Z</time></trkpt><trkpt lat="43.93685463082299" lon="11.968345753055543"><ele>776.0</ele><time>2026-04-06T08:27:42Z</time></trkpt><trkpt lat="43.93681750027842" lon="11.96822051930857"><ele>780.4</ele><time>2026-04-06T08:27:44Z</time></trkpt><trkpt lat="43.93671181809902" lon="11.968185544802992"><ele>784.8</ele><time>2026-04-06T08:27:46Z</time></trkpt><trkpt lat="43.936615407741684" lon="11.968216461941571"><ele>789.1999999999999</ele><time>2026-04-06T08:27:48Z</time></trkpt><trkpt lat="43.936581934821966" lon="11.968310640954913"><ele>793.5999999999999</ele><time>2026-04-06T08:27:50Z</time></trkpt><trkpt lat="43.93654929288007" lon="11.968432814016715"><ele>798.0</ele><time>2026-04-06T08:27:52Z</time></trkpt><trkpt lat="43.93649013884523" lon="11.968519314953939"><ele>802.5999999999999</ele><time>2026-04-06T08:27:54Z</time></trkpt><trkpt lat="43.93641429064222" lon="11.968623629470171"><ele>807.1999999999999</ele><time>2026-04-06T08:27:55Z</time></trkpt><trkpt lat="43.93633111327697" lon="11.96868620768194"><ele>811.8</ele><time>2026-04-06T08:27:57Z</time></trkpt><trkpt lat="43.93624732214308" lon="11.968731989361492"><ele>816.4</ele><time>2026-04-06T08:27:59Z</time></trkpt><trkpt lat="43.93616216660814" lon="11.968744671231443"><ele>821.0</ele><time>2026-04-06T08:28:01Z</time></trkpt><trkpt lat="43.93606742767265" lon="11.968660118297919"><ele>821.0</ele><time>2026-04-06T08:28:03Z</time></trkpt><trkpt lat="43.935977143262285" lon="11.968545088059052"><ele>821.0</ele><time>2026-04-06T08:28:05Z</time></trkpt><trkpt lat="43.9358765954783" lon="11.968479679630065"><ele>821.0</ele><time>2026-04-06T08:28:07Z</time></trkpt><trkpt lat="43.93577643724615" lon="11.968460104068233"><ele>821.0</ele><time>2026-04-06T08:28:09Z</time></trkpt><trkpt lat="43.93571363679091" lon="11.968472570183463"><ele>821.0</ele><time>2026-04-06T08:28:10Z</time></trkpt><trkpt lat="43.935639921916454" lon="11.96848838888731"><ele>827.4</ele><time>2026-04-06T08:28:11Z</time></trkpt><trkpt lat="43.93556134575425" lon="11.968501463352961"><ele>833.8</ele><time>2026-04-06T08:28:12Z</time></trkpt><trkpt lat="43.93547750520333" lon="11.968485827667179"><ele>840.1999999999999</ele><time>2026-04-06T08:28:13Z</time></trkpt><trkpt lat="43.93539446704206" lon="11.968477346497963"><ele>846.5999999999999</ele><time>2026-04-06T08:28:14Z</time></trkpt><trkpt lat="43.93527500624397" lon="11.968450651948936"><ele>853.0</ele><time>2026-04-06T08:28:15Z</time></trkpt><trkpt lat="43.93518194670958" lon="11.968464691861515"><ele>852.9999999999999</ele><time>2026-04-06T08:28:16Z</time></trkpt><trkpt lat="43.93511233504672" lon="11.968472566381035"><ele>853.0</ele><time>2026-04-06T08:28:17Z</time></trkpt><trkpt lat="43.93500297776146" lon="11.968418245054343"><ele>853.0</ele><time>2026-04-06T08:28:19Z</time></trkpt><trkpt lat="43.93493811013308" lon="11.96841409199529"><ele>853.0</ele><time>2026-04-06T08:28:20Z</time></trkpt><trkpt lat="43.93485725709665" lon="11.96841161414425"><ele>852.9999999999999</ele><time>2026-04-06T08:28:21Z</time></trkpt><trkpt lat="43.93477835711392" lon="11.96845993241485"><ele>853.0</ele><time>2026-04-06T08:28:22Z</time></trkpt><trkpt lat="43.9347050674705" lon="11.968518571673064"><ele>854.8333333333333</ele><time>2026-04-06T08:28:23Z</time></trkpt><trkpt lat="43.934634250540164" lon="11.968579082513907"><ele>856.6666666666666</ele><time>2026-04-06T08:28:24Z</time></trkpt><trkpt lat="43.93457622464409" lon="11.96863660321506"><ele>858.5</ele><time>2026-04-06T08:28:25Z</time></trkpt><trkpt lat="43.93447529529986" lon="11.968666173982493"><ele>860.3333333333333</ele><time>2026-04-06T08:28:27Z</time></trkpt><trkpt lat="43.9344302959048" lon="11.968595006082225"><ele>862.1666666666666</ele><time>2026-04-06T08:28:28Z</time></trkpt><trkpt lat="43.93438340511351" lon="11.968500596066086"><ele>864.0</ele><time>2026-04-06T08:28:29Z</time></trkpt><trkpt lat="43.93433966860454" lon="11.968417308518287"><ele>863.6666666666666</ele><time>2026-04-06T08:28:30Z</time></trkpt><trkpt lat="43.93428842820236" lon="11.968336524257749"><ele>863.3333333333333</ele><time>2026-04-06T08:28:31Z</time></trkpt><trkpt lat="43.9342783089577" lon="11.9682341931305"><ele>863.0</ele><time>2026-04-06T08:28:33Z</time></trkpt><trkpt lat="43.934260110832554" lon="11.968141646646506"><ele>862.6666666666666</ele><time>2026-04-06T08:28:35Z</time></trkpt><trkpt lat="43.93421149130392" lon="11.968052710593982"><ele>862.3333333333333</ele><time>2026-04-06T08:28:37Z</time></trkpt><trkpt lat="43.93418019349509" lon="11.967887103517551"><ele>862.0</ele><time>2026-04-06T08:28:39Z</time></trkpt><trkpt lat="43.93416580907399" lon="11.967773613262711"><ele>861.9999999999999</ele><time>2026-04-06T08:28:41Z</time></trkpt><trkpt lat="43.93413993473166" lon="11.96768325011444"><ele>862.0</ele><time>2026-04-06T08:28:43Z</time></trkpt><trkpt lat="43.93411783460294" lon="11.967573083319992"><ele>862.0</ele><time>2026-04-06T08:28:45Z</time></trkpt><trkpt lat="43.93409542296023" lon="11.967441397460089"><ele>862.0</ele><time>2026-04-06T08:28:48Z</time></trkpt><trkpt lat="43.93406648331262" lon="11.967354243894025"><ele>861.9999999999999</ele><time>2026-04-06T08:28:50Z</time></trkpt><trkpt lat="43.9340562669575" lon="11.967240458714206"><ele>862.0</ele><time>2026-04-06T08:28:52Z</time></trkpt><trkpt lat="43.93404465115132" lon="11.967149636343263"><ele>860.6666666666666</ele><time>2026-04-06T08:28:54.001Z</time></trkpt><trkpt lat="43.93405365286722" lon="11.967056478655728"><ele>859.3333333333333</ele><time>2026-04-06T08:28:56.001Z</time></trkpt><trkpt lat="43.93404224087184" lon="11.96695720567517"><ele>858.0</ele><time>2026-04-06T08:28:58.001Z</time></trkpt><trkpt lat="43.93404621140489" lon="11.966859937508305"><ele>856.6666666666667</ele><time>2026-04-06T08:29:08Z</time></trkpt><trkpt lat="43.93401446765646" lon="11.966732035736827"><ele>855.3333333333334</ele><time>2026-04-06T08:29:10Z</time></trkpt><trkpt lat="43.933993765878384" lon="11.966609783898171"><ele>854.0</ele><time>2026-04-06T08:29:12Z</time></trkpt><trkpt lat="43.93391051291269" lon="11.96650951154968"><ele>853.0</ele><time>2026-04-06T08:29:15Z</time></trkpt><trkpt lat="43.93381215124502" lon="11.966490412795302"><ele>852.0</ele><time>2026-04-06T08:29:18Z</time></trkpt><trkpt lat="43.93369817040789" lon="11.966486037833988"><ele>851.0</ele><time>2026-04-06T08:29:20Z</time></trkpt><trkpt lat="43.93362800885005" lon="11.966517722069224"><ele>850.0</ele><time>2026-04-06T08:29:23Z</time></trkpt><trkpt lat="43.933282106733536" lon="11.966528603329028"><ele>854.6666666666666</ele><time>2026-04-06T08:29:26Z</time></trkpt><trkpt lat="43.933213843277144" lon="11.96653233175167"><ele>859.3333333333333</ele><time>2026-04-06T08:29:27Z</time></trkpt><trkpt lat="43.93314694024414" lon="11.966517413930417"><ele>864.0</ele><time>2026-04-06T08:29:28Z</time></trkpt><trkpt lat="43.93308140803374" lon="11.966490829002288"><ele>868.6666666666667</ele><time>2026-04-06T08:29:29Z</time></trkpt><trkpt lat="43.93299958506038" lon="11.966470128488217"><ele>873.3333333333334</ele><time>2026-04-06T08:29:30Z</time></trkpt><trkpt lat="43.93291234823705" lon="11.96644909249707"><ele>878.0</ele><time>2026-04-06T08:29:31Z</time></trkpt><trkpt lat="43.93283043483031" lon="11.966447535246385"><ele>878.0</ele><time>2026-04-06T08:29:32Z</time></trkpt><trkpt lat="43.93274655354706" lon="11.966431446070064"><ele>878.0</ele><time>2026-04-06T08:29:33Z</time></trkpt><trkpt lat="43.93266614848341" lon="11.966393232104993"><ele>878.0</ele><time>2026-04-06T08:29:34Z</time></trkpt><trkpt lat="43.9325764866322" lon="11.966347557572076"><ele>878.0</ele><time>2026-04-06T08:29:35Z</time></trkpt><trkpt lat="43.93250334933606" lon="11.966280567506315"><ele>878.0</ele><time>2026-04-06T08:29:36Z</time></trkpt><trkpt lat="43.93240126326762" lon="11.966235027710221"><ele>878.0000000000001</ele><time>2026-04-06T08:29:38Z</time></trkpt><trkpt lat="43.932341400438396" lon="11.966265621408903"><ele>878.0</ele><time>2026-04-06T08:29:46Z</time></trkpt><trkpt lat="43.93238753621069" lon="11.966334614163399"><ele>878.0</ele><time>2026-04-06T08:29:49Z</time></trkpt><trkpt lat="43.93245915997191" lon="11.966366100826136"><ele>878.0</ele><time>2026-04-06T08:29:51Z</time></trkpt><trkpt lat="43.93252710953318" lon="11.966448686075703"><ele>878.0000000000001</ele><time>2026-04-06T08:29:53Z</time></trkpt><trkpt lat="43.932589740283156" lon="11.966549122484821"><ele>878.0</ele><time>2026-04-06T08:29:55Z</time></trkpt><trkpt lat="43.93264419351054" lon="11.966617760799055"><ele>878.0000000000001</ele><time>2026-04-06T08:29:57Z</time></trkpt><trkpt lat="43.93271336390196" lon="11.966681998367566"><ele>878.0</ele><time>2026-04-06T08:29:59Z</time></trkpt><trkpt lat="43.93277770099521" lon="11.966744300995948"><ele>878.0</ele><time>2026-04-06T08:30:01Z</time></trkpt><trkpt lat="43.93286359679709" lon="11.966851962288821"><ele>878.0</ele><time>2026-04-06T08:30:03Z</time></trkpt><trkpt lat="43.93294105939943" lon="11.966955758267142"><ele>878.0000000000001</ele><time>2026-04-06T08:30:05Z</time></trkpt><trkpt lat="43.932981555206844" lon="11.967022947125617"><ele>878.0</ele><time>2026-04-06T08:30:06Z</time></trkpt><trkpt lat="43.93304777027143" lon="11.967109750107596"><ele>880.8333333333334</ele><time>2026-04-06T08:30:08Z</time></trkpt><trkpt lat="43.93312579985799" lon="11.967253825051433"><ele>883.6666666666667</ele><time>2026-04-06T08:30:10Z</time></trkpt><trkpt lat="43.93317492423907" lon="11.96731287889835"><ele>886.5</ele><time>2026-04-06T08:30:11Z</time></trkpt><trkpt lat="43.93318377542118" lon="11.967412679463186"><ele>889.3333333333333</ele><time>2026-04-06T08:30:12Z</time></trkpt><trkpt lat="43.933189085078006" lon="11.96752581186859"><ele>892.1666666666666</ele><time>2026-04-06T08:30:13Z</time></trkpt><trkpt lat="43.93323081003109" lon="11.967620446777842"><ele>895.0</ele><time>2026-04-06T08:30:14Z</time></trkpt><trkpt lat="43.933263258606324" lon="11.96772546478052"><ele>895.0</ele><time>2026-04-06T08:30:15Z</time></trkpt><trkpt lat="43.93326951430478" lon="11.967845800365463"><ele>895.0</ele><time>2026-04-06T08:30:16Z</time></trkpt><trkpt lat="43.933291342351396" lon="11.967941002325379"><ele>895.0</ele><time>2026-04-06T08:30:17Z</time></trkpt><trkpt lat="43.93333298230393" lon="11.968125979706619"><ele>895.0</ele><time>2026-04-06T08:30:19Z</time></trkpt><trkpt lat="43.93334278608481" lon="11.968261146737374"><ele>895.0</ele><time>2026-04-06T08:30:20Z</time></trkpt><trkpt lat="43.93335553414571" lon="11.968403457293308"><ele>892.2</ele><time>2026-04-06T08:30:21Z</time></trkpt><trkpt lat="43.93339540743759" lon="11.968523905229496"><ele>889.4</ele><time>2026-04-06T08:30:22Z</time></trkpt><trkpt lat="43.93343784953747" lon="11.968672097849478"><ele>886.5999999999999</ele><time>2026-04-06T08:30:23Z</time></trkpt><trkpt lat="43.93344860152583" lon="11.968783836314802"><ele>883.8</ele><time>2026-04-06T08:30:24Z</time></trkpt><trkpt lat="43.933496383065894" lon="11.96890371682017"><ele>881.0</ele><time>2026-04-06T08:30:25Z</time></trkpt><trkpt lat="43.933584930967534" lon="11.969040331851131"><ele>881.0</ele><time>2026-04-06T08:30:26Z</time></trkpt><trkpt lat="43.93363535560213" lon="11.969166712748684"><ele>880.9999999999999</ele><time>2026-04-06T08:30:27Z</time></trkpt><trkpt lat="43.93364700590175" lon="11.9692965947043"><ele>880.9999999999999</ele><time>2026-04-06T08:30:28Z</time></trkpt><trkpt lat="43.933668173295814" lon="11.969416164764674"><ele>881.0</ele><time>2026-04-06T08:30:29Z</time></trkpt><trkpt lat="43.93372788755109" lon="11.969517444104703"><ele>881.0</ele><time>2026-04-06T08:30:30Z</time></trkpt><trkpt lat="43.933820113494384" lon="11.969608324281408"><ele>882.3333333333334</ele><time>2026-04-06T08:30:31Z</time></trkpt><trkpt lat="43.9339074606187" lon="11.96967481301481"><ele>883.6666666666667</ele><time>2026-04-06T08:30:32Z</time></trkpt><trkpt lat="43.933980130589774" lon="11.969748819399435"><ele>885.0</ele><time>2026-04-06T08:30:33Z</time></trkpt><trkpt lat="43.93404074696586" lon="11.969828691394783"><ele>886.3333333333333</ele><time>2026-04-06T08:30:34Z</time></trkpt><trkpt lat="43.9341138986279" lon="11.969897314088767"><ele>887.6666666666666</ele><time>2026-04-06T08:30:35Z</time></trkpt><trkpt lat="43.93418272578566" lon="11.969945297179741"><ele>889.0</ele><time>2026-04-06T08:30:36Z</time></trkpt><trkpt lat="43.93424812669608" lon="11.969989439043882"><ele>890.2</ele><time>2026-04-06T08:30:37Z</time></trkpt><trkpt lat="43.93431110975551" lon="11.970023537240198"><ele>891.4000000000001</ele><time>2026-04-06T08:30:38Z</time></trkpt><trkpt lat="43.9344039642506" lon="11.970089278125057"><ele>892.6</ele><time>2026-04-06T08:30:40Z</time></trkpt><trkpt lat="43.93449676045791" lon="11.970208848300526"><ele>893.8</ele><time>2026-04-06T08:30:42Z</time></trkpt><trkpt lat="43.93454141373724" lon="11.970290064760734"><ele>895.0</ele><time>2026-04-06T08:30:43Z</time></trkpt><trkpt lat="43.934588386623666" lon="11.970445907777917"><ele>896.5714285714286</ele><time>2026-04-06T08:30:45Z</time></trkpt><trkpt lat="43.93464422297327" lon="11.970510030973882"><ele>898.1428571428571</ele><time>2026-04-06T08:30:46Z</time></trkpt><trkpt lat="43.93469443400885" lon="11.970563003656457"><ele>899.7142857142857</ele><time>2026-04-06T08:30:47Z</time></trkpt><trkpt lat="43.93472378726554" lon="11.9706500370635"><ele>901.2857142857142</ele><time>2026-04-06T08:30:48Z</time></trkpt><trkpt lat="43.934748992083364" lon="11.9707432332961"><ele>902.8571428571429</ele><time>2026-04-06T08:30:49Z</time></trkpt><trkpt lat="43.93476266990349" lon="11.970830500789985"><ele>904.4285714285713</ele><time>2026-04-06T08:30:50Z</time></trkpt><trkpt lat="43.934768064272255" lon="11.970922947327034"><ele>905.9999999999999</ele><time>2026-04-06T08:30:51Z</time></trkpt><trkpt lat="43.93478895546177" lon="11.971029140166973"><ele>906.0</ele><time>2026-04-06T08:30:53Z</time></trkpt><trkpt lat="43.93479306043921" lon="11.971153659001166"><ele>906.0</ele><time>2026-04-06T08:30:55Z</time></trkpt><trkpt lat="43.93481937358621" lon="11.971274232276576"><ele>906.0</ele><time>2026-04-06T08:30:59Z</time></trkpt><trkpt lat="43.9348351083793" lon="11.971365253995632"><ele>906.0</ele><time>2026-04-06T08:31:01Z</time></trkpt><trkpt lat="43.934851453386685" lon="11.97146455632986"><ele>906.0</ele><time>2026-04-06T08:31:04Z</time></trkpt><trkpt lat="43.93486154422605" lon="11.971594213485293"><ele>906.0</ele><time>2026-04-06T08:31:06Z</time></trkpt><trkpt lat="43.93487218542893" lon="11.971720602542739"><ele>905.1666666666666</ele><time>2026-04-06T08:31:08Z</time></trkpt><trkpt lat="43.93485987849392" lon="11.97181094706894"><ele>904.3333333333333</ele><time>2026-04-06T08:31:11Z</time></trkpt><trkpt lat="43.93486145324854" lon="11.971917318233155"><ele>903.5</ele><time>2026-04-06T08:31:14Z</time></trkpt><trkpt lat="43.934846945722704" lon="11.97203664992725"><ele>902.6666666666666</ele><time>2026-04-06T08:31:17Z</time></trkpt><trkpt lat="43.93483535798736" lon="11.972135226291757"><ele>901.8333333333333</ele><time>2026-04-06T08:31:20Z</time></trkpt><trkpt lat="43.93478673585606" lon="11.972204632482132"><ele>901.0</ele><time>2026-04-06T08:31:23Z</time></trkpt><trkpt lat="43.93479228557371" lon="11.972329686475653"><ele>900.9999999999999</ele><time>2026-04-06T08:31:25Z</time></trkpt><trkpt lat="43.934724791985985" lon="11.972401814931022"><ele>901.0</ele><time>2026-04-06T08:31:29Z</time></trkpt><trkpt lat="43.93470580828984" lon="11.972553607803603"><ele>901.0</ele><time>2026-04-06T08:31:31Z</time></trkpt><trkpt lat="43.93468110978708" lon="11.972662330397108"><ele>901.0</ele><time>2026-04-06T08:31:33Z</time></trkpt><trkpt lat="43.93463972067349" lon="11.972753339984523"><ele>900.9999999999999</ele><time>2026-04-06T08:31:37Z</time></trkpt><trkpt lat="43.93459272114161" lon="11.972838488899166"><ele>901.0</ele><time>2026-04-06T08:32:12Z</time></trkpt><trkpt lat="43.93455634670589" lon="11.972933376506086"><ele>899.4</ele><time>2026-04-06T08:32:22Z</time></trkpt><trkpt lat="43.93453743196553" lon="11.973054431348071"><ele>897.8</ele><time>2026-04-06T08:32:24Z</time></trkpt><trkpt lat="43.9345406927906" lon="11.973175655136988"><ele>896.1999999999999</ele><time>2026-04-06T08:32:26Z</time></trkpt><trkpt lat="43.93457381018984" lon="11.973340863372085"><ele>894.5999999999999</ele><time>2026-04-06T08:32:28Z</time></trkpt><trkpt lat="43.93459928405053" lon="11.973448973196192"><ele>893.0</ele><time>2026-04-06T08:32:29Z</time></trkpt><trkpt lat="43.93462523814859" lon="11.973547875119856"><ele>893.0000000000001</ele><time>2026-04-06T08:32:30Z</time></trkpt><trkpt lat="43.93465390148398" lon="11.973641091546193"><ele>893.0</ele><time>2026-04-06T08:32:31Z</time></trkpt><trkpt lat="43.93466485415593" lon="11.973731068900348"><ele>893.0</ele><time>2026-04-06T08:32:32Z</time></trkpt><trkpt lat="43.93467488798036" lon="11.973852919929321"><ele>893.0</ele><time>2026-04-06T08:32:33Z</time></trkpt><trkpt lat="43.93469840660689" lon="11.973949210367389"><ele>893.0000000000001</ele><time>2026-04-06T08:32:34Z</time></trkpt><trkpt lat="43.93474609916212" lon="11.974094364446339"><ele>893.0</ele><time>2026-04-06T08:32:36Z</time></trkpt><trkpt lat="43.93475927867399" lon="11.974242880896897"><ele>895.3333333333334</ele><time>2026-04-06T08:32:38Z</time></trkpt><trkpt lat="43.9348077680286" lon="11.974350272656913"><ele>897.6666666666667</ele><time>2026-04-06T08:32:41Z</time></trkpt><trkpt lat="43.934855588638364" lon="11.974448792720363"><ele>900.0</ele><time>2026-04-06T08:32:43Z</time></trkpt><trkpt lat="43.934860819568755" lon="11.974558563730554"><ele>902.3333333333333</ele><time>2026-04-06T08:32:46Z</time></trkpt><trkpt lat="43.934898981781295" lon="11.97463372472672"><ele>904.6666666666666</ele><time>2026-04-06T08:32:48Z</time></trkpt><trkpt lat="43.93489298683175" lon="11.974738260812087"><ele>907.0</ele><time>2026-04-06T08:33:42Z</time></trkpt><trkpt lat="43.934882939278765" lon="11.974840084781954"><ele>906.9999999999999</ele><time>2026-04-06T08:33:44Z</time></trkpt><trkpt lat="43.9348628198016" lon="11.974923084627562"><ele>907.0</ele><time>2026-04-06T08:33:56Z</time></trkpt><trkpt lat="43.934884765544886" lon="11.975012629184944"><ele>907.0</ele><time>2026-04-06T08:34:02Z</time></trkpt><trkpt lat="43.93498129709888" lon="11.97520309802444"><ele>907.0</ele><time>2026-04-06T08:34:11Z</time></trkpt><trkpt lat="43.93499875514656" lon="11.975291711110694"><ele>906.9999999999999</ele><time>2026-04-06T08:34:14Z</time></trkpt><trkpt lat="43.935024331589666" lon="11.97537772197911"><ele>907.0</ele><time>2026-04-06T08:34:44Z</time></trkpt><trkpt lat="43.935025278807466" lon="11.975477119658489"><ele>905.2</ele><time>2026-04-06T08:34:48Z</time></trkpt><trkpt lat="43.93498769950939" lon="11.97554876305216"><ele>903.4000000000001</ele><time>2026-04-06T08:34:53Z</time></trkpt><trkpt lat="43.93495089854763" lon="11.975436781469817"><ele>901.5999999999999</ele><time>2026-04-06T08:34:56Z</time></trkpt><trkpt lat="43.934892483680414" lon="11.975331469731115"><ele>899.8</ele><time>2026-04-06T08:34:58Z</time></trkpt><trkpt lat="43.934784893391296" lon="11.975253343013305"><ele>898.0</ele><time>2026-04-06T08:35:00Z</time></trkpt><trkpt lat="43.934696272941224" lon="11.975319058413765"><ele>898.0</ele><time>2026-04-06T08:35:01Z</time></trkpt><trkpt lat="43.93461411188038" lon="11.975244363420094"><ele>898.0</ele><time>2026-04-06T08:35:03Z</time></trkpt><trkpt lat="43.93454499432818" lon="11.975224070230828"><ele>898.0</ele><time>2026-04-06T08:35:05Z</time></trkpt><trkpt lat="43.93444501786302" lon="11.975179573086105"><ele>898.0</ele><time>2026-04-06T08:35:06Z</time></trkpt><trkpt lat="43.93435210496532" lon="11.975162058141233"><ele>898.0</ele><time>2026-04-06T08:35:07Z</time></trkpt><trkpt lat="43.93423770056247" lon="11.975132066492328"><ele>893.5999999999999</ele><time>2026-04-06T08:35:08Z</time></trkpt><trkpt lat="43.93412414415279" lon="11.975118512370258"><ele>889.1999999999999</ele><time>2026-04-06T08:35:09Z</time></trkpt><trkpt lat="43.934016622004535" lon="11.975104746369027"><ele>884.8</ele><time>2026-04-06T08:35:10Z</time></trkpt><trkpt lat="43.93390537072475" lon="11.975110766987063"><ele>880.4</ele><time>2026-04-06T08:35:11Z</time></trkpt><trkpt lat="43.933796822022884" lon="11.975132930568007"><ele>876.0</ele><time>2026-04-06T08:35:12Z</time></trkpt><trkpt lat="43.933676880657615" lon="11.97516133239888"><ele>876.0</ele><time>2026-04-06T08:35:13Z</time></trkpt><trkpt lat="43.933565086755614" lon="11.975166687072164"><ele>876.0</ele><time>2026-04-06T08:35:14Z</time></trkpt><trkpt lat="43.93345388312835" lon="11.975166157343859"><ele>876.0</ele><time>2026-04-06T08:35:15Z</time></trkpt><trkpt lat="43.933334380617715" lon="11.975141545510922"><ele>876.0</ele><time>2026-04-06T08:35:16Z</time></trkpt><trkpt lat="43.93321086093224" lon="11.975136859627636"><ele>875.8</ele><time>2026-04-06T08:35:17Z</time></trkpt><trkpt lat="43.93309218026845" lon="11.975134562172672"><ele>875.5999999999999</ele><time>2026-04-06T08:35:18Z</time></trkpt><trkpt lat="43.9329747307531" lon="11.975156723360117"><ele>875.4</ele><time>2026-04-06T08:35:19Z</time></trkpt><trkpt lat="43.93286246116615" lon="11.975170616140057"><ele>875.2</ele><time>2026-04-06T08:35:20Z</time></trkpt><trkpt lat="43.93276494979541" lon="11.975185576070114"><ele>875.0</ele><time>2026-04-06T08:35:21Z</time></trkpt><trkpt lat="43.932660282118256" lon="11.975206964886768"><ele>875.0</ele><time>2026-04-06T08:35:22Z</time></trkpt><trkpt lat="43.932570266731304" lon="11.975243299338263"><ele>875.0</ele><time>2026-04-06T08:35:23Z</time></trkpt><trkpt lat="43.932493468460414" lon="11.975324991922907"><ele>875.0</ele><time>2026-04-06T08:35:24Z</time></trkpt><trkpt lat="43.932420245128085" lon="11.975394988409136"><ele>875.0</ele><time>2026-04-06T08:35:25Z</time></trkpt><trkpt lat="43.932334113815344" lon="11.975503513326846"><ele>875.0</ele><time>2026-04-06T08:35:26Z</time></trkpt><trkpt lat="43.93228082539996" lon="11.975593690915092"><ele>877.0000000000001</ele><time>2026-04-06T08:35:27Z</time></trkpt><trkpt lat="43.93222645020347" lon="11.97568904582051"><ele>879.0</ele><time>2026-04-06T08:35:28Z</time></trkpt><trkpt lat="43.9321717023046" lon="11.975782011679623"><ele>881.0</ele><time>2026-04-06T08:35:29Z</time></trkpt><trkpt lat="43.93211477521059" lon="11.975866181260697"><ele>883.0</ele><time>2026-04-06T08:35:30Z</time></trkpt><trkpt lat="43.93205887859683" lon="11.975951591636669"><ele>885.0000000000001</ele><time>2026-04-06T08:35:31Z</time></trkpt><trkpt lat="43.931998436060674" lon="11.976043299391934"><ele>887.0</ele><time>2026-04-06T08:35:32Z</time></trkpt><trkpt lat="43.93193607305036" lon="11.976126427581839"><ele>887.0</ele><time>2026-04-06T08:35:33Z</time></trkpt><trkpt lat="43.9318697240973" lon="11.976211822528368"><ele>887.0</ele><time>2026-04-06T08:35:34Z</time></trkpt><trkpt lat="43.93179727334588" lon="11.976304123534861"><ele>887.0</ele><time>2026-04-06T08:35:35Z</time></trkpt><trkpt lat="43.931721956044505" lon="11.976410609152607"><ele>887.0</ele><time>2026-04-06T08:35:36Z</time></trkpt><trkpt lat="43.93164028911951" lon="11.97652403497714"><ele>887.0</ele><time>2026-04-06T08:35:37Z</time></trkpt><trkpt lat="43.93154274155334" lon="11.97664341764799"><ele>881.5</ele><time>2026-04-06T08:35:38Z</time></trkpt><trkpt lat="43.931435119499426" lon="11.976736733342563"><ele>876.0</ele><time>2026-04-06T08:35:39Z</time></trkpt><trkpt lat="43.93131660601424" lon="11.976816116457412"><ele>870.5</ele><time>2026-04-06T08:35:40Z</time></trkpt><trkpt lat="43.931190434444034" lon="11.976887212835958"><ele>865.0</ele><time>2026-04-06T08:35:41Z</time></trkpt><trkpt lat="43.93105816657565" lon="11.97695923728519"><ele>865.0</ele><time>2026-04-06T08:35:42Z</time></trkpt><trkpt lat="43.930919619212446" lon="11.977040307464243"><ele>865.0</ele><time>2026-04-06T08:35:43Z</time></trkpt><trkpt lat="43.930761647868664" lon="11.97712632767065"><ele>865.0</ele><time>2026-04-06T08:35:44Z</time></trkpt><trkpt lat="43.930584541648365" lon="11.97721281612839"><ele>867.3333333333333</ele><time>2026-04-06T08:35:45Z</time></trkpt><trkpt lat="43.930419113970075" lon="11.977290224397247"><ele>869.6666666666667</ele><time>2026-04-06T08:35:46Z</time></trkpt><trkpt lat="43.93026599315325" lon="11.977357369864553"><ele>872.0</ele><time>2026-04-06T08:35:47Z</time></trkpt><trkpt lat="43.930125128891895" lon="11.977424634811513"><ele>872.25</ele><time>2026-04-06T08:35:48Z</time></trkpt><trkpt lat="43.92998820067546" lon="11.977493303115658"><ele>872.5</ele><time>2026-04-06T08:35:49Z</time></trkpt><trkpt lat="43.92985112762043" lon="11.97757299321685"><ele>872.75</ele><time>2026-04-06T08:35:50Z</time></trkpt><trkpt lat="43.929722400045385" lon="11.977666742953554"><ele>873.0</ele><time>2026-04-06T08:35:51Z</time></trkpt><trkpt lat="43.929598090025706" lon="11.977756207629682"><ele>874.25</ele><time>2026-04-06T08:35:52Z</time></trkpt><trkpt lat="43.929485326482975" lon="11.97783730042169"><ele>875.5</ele><time>2026-04-06T08:35:53Z</time></trkpt><trkpt lat="43.92937900127466" lon="11.977915032287502"><ele>876.75</ele><time>2026-04-06T08:35:54Z</time></trkpt><trkpt lat="43.92927563240355" lon="11.978001300159388"><ele>878.0</ele><time>2026-04-06T08:35:55Z</time></trkpt><trkpt lat="43.92918930364962" lon="11.978089068426375"><ele>878.0000000000001</ele><time>2026-04-06T08:35:56Z</time></trkpt><trkpt lat="43.92912352523455" lon="11.978176257843598"><ele>878.0</ele><time>2026-04-06T08:35:57Z</time></trkpt><trkpt lat="43.92906705900864" lon="11.978258047892028"><ele>878.0</ele><time>2026-04-06T08:35:58Z</time></trkpt><trkpt lat="43.92899968059106" lon="11.978328538860978"><ele>878.0</ele><time>2026-04-06T08:35:59Z</time></trkpt><trkpt lat="43.92892034685649" lon="11.978378544982776"><ele>878.0000000000001</ele><time>2026-04-06T08:36:00Z</time></trkpt><trkpt lat="43.928828298523825" lon="11.978430416812044"><ele>878.0</ele><time>2026-04-06T08:36:01Z</time></trkpt><trkpt lat="43.92873557807424" lon="11.978479864446415"><ele>878.0</ele><time>2026-04-06T08:36:02Z</time></trkpt><trkpt lat="43.92864335785388" lon="11.978533665450112"><ele>878.0</ele><time>2026-04-06T08:36:03Z</time></trkpt><trkpt lat="43.92854785502374" lon="11.978592034234618"><ele>878.0</ele><time>2026-04-06T08:36:04Z</time></trkpt><trkpt lat="43.92844135781475" lon="11.978659683842293"><ele>878.0</ele><time>2026-04-06T08:36:05Z</time></trkpt><trkpt lat="43.928334050180936" lon="11.97873340476034"><ele>878.0</ele><time>2026-04-06T08:36:06Z</time></trkpt><trkpt lat="43.92822327564977" lon="11.978800214963698"><ele>876.5</ele><time>2026-04-06T08:36:07Z</time></trkpt><trkpt lat="43.92810961417291" lon="11.978872761671317"><ele>875.0</ele><time>2026-04-06T08:36:08Z</time></trkpt><trkpt lat="43.92799307206642" lon="11.978937138286597"><ele>873.5</ele><time>2026-04-06T08:36:09Z</time></trkpt><trkpt lat="43.92787295124046" lon="11.979016880775431"><ele>872.0</ele><time>2026-04-06T08:36:10Z</time></trkpt><trkpt lat="43.92774706348166" lon="11.9791029813071"><ele>872.0</ele><time>2026-04-06T08:36:11Z</time></trkpt><trkpt lat="43.92762359099091" lon="11.979181468391646"><ele>872.0</ele><time>2026-04-06T08:36:12Z</time></trkpt><trkpt lat="43.92750002247849" lon="11.979252197902813"><ele>872.0</ele><time>2026-04-06T08:36:13Z</time></trkpt><trkpt lat="43.92737441835955" lon="11.979324814726771"><ele>872.0</ele><time>2026-04-06T08:36:14Z</time></trkpt><trkpt lat="43.92725384529641" lon="11.979400609194485"><ele>871.5</ele><time>2026-04-06T08:36:15Z</time></trkpt><trkpt lat="43.92713962823351" lon="11.97948513368092"><ele>871.0</ele><time>2026-04-06T08:36:16Z</time></trkpt><trkpt lat="43.92703698593198" lon="11.979587702765272"><ele>870.5</ele><time>2026-04-06T08:36:17Z</time></trkpt><trkpt lat="43.926944012597865" lon="11.979725617239298"><ele>870.0</ele><time>2026-04-06T08:36:18Z</time></trkpt><trkpt lat="43.92685466756569" lon="11.979855454048492"><ele>870.0</ele><time>2026-04-06T08:36:19Z</time></trkpt><trkpt lat="43.92677917675817" lon="11.97999500692563"><ele>870.0</ele><time>2026-04-06T08:36:20Z</time></trkpt><trkpt lat="43.926729040705624" lon="11.980149856261646"><ele>870.0</ele><time>2026-04-06T08:36:21Z</time></trkpt><trkpt lat="43.926713285123874" lon="11.980321868661287"><ele>870.0</ele><time>2026-04-06T08:36:22Z</time></trkpt><trkpt lat="43.926677450076866" lon="11.98048339298887"><ele>866.8</ele><time>2026-04-06T08:36:23Z</time></trkpt><trkpt lat="43.9266791089791" lon="11.980650346500106"><ele>863.6</ele><time>2026-04-06T08:36:24Z</time></trkpt><trkpt lat="43.926649507471964" lon="11.980794655290175"><ele>860.4000000000001</ele><time>2026-04-06T08:36:25Z</time></trkpt><trkpt lat="43.92660236946392" lon="11.980923078984274"><ele>857.2</ele><time>2026-04-06T08:36:26Z</time></trkpt><trkpt lat="43.92654245846038" lon="11.981021140401243"><ele>854.0</ele><time>2026-04-06T08:36:27Z</time></trkpt><trkpt lat="43.92645109239112" lon="11.981089792259771"><ele>854.0</ele><time>2026-04-06T08:36:28Z</time></trkpt><trkpt lat="43.926339301466555" lon="11.981069453029752"><ele>854.0</ele><time>2026-04-06T08:36:29Z</time></trkpt><trkpt lat="43.92621857366331" lon="11.981090425871527"><ele>854.0</ele><time>2026-04-06T08:36:30Z</time></trkpt><trkpt lat="43.92609939589154" lon="11.98108322315152"><ele>854.0</ele><time>2026-04-06T08:36:31Z</time></trkpt><trkpt lat="43.925982315514965" lon="11.981090496262437"><ele>851.75</ele><time>2026-04-06T08:36:32Z</time></trkpt><trkpt lat="43.92587175828486" lon="11.981129399060645"><ele>849.5</ele><time>2026-04-06T08:36:33Z</time></trkpt><trkpt lat="43.92577279291725" lon="11.981199083976762"><ele>847.25</ele><time>2026-04-06T08:36:34Z</time></trkpt><trkpt lat="43.92567334261355" lon="11.98128037674939"><ele>845.0</ele><time>2026-04-06T08:36:35Z</time></trkpt><trkpt lat="43.92557230864498" lon="11.98136906842161"><ele>845.0</ele><time>2026-04-06T08:36:36Z</time></trkpt><trkpt lat="43.92547759494733" lon="11.981468939083753"><ele>845.0</ele><time>2026-04-06T08:36:37Z</time></trkpt><trkpt lat="43.925389600241104" lon="11.981566532467744"><ele>845.0</ele><time>2026-04-06T08:36:38Z</time></trkpt><trkpt lat="43.92529014165573" lon="11.981660296441637"><ele>845.0</ele><time>2026-04-06T08:36:39Z</time></trkpt><trkpt lat="43.925186468678035" lon="11.981740871237546"><ele>846.0</ele><time>2026-04-06T08:36:40Z</time></trkpt><trkpt lat="43.925071975464" lon="11.981823377768936"><ele>847.0</ele><time>2026-04-06T08:36:41Z</time></trkpt><trkpt lat="43.924954760342274" lon="11.981893897332887"><ele>848.0</ele><time>2026-04-06T08:36:42Z</time></trkpt><trkpt lat="43.92483487157667" lon="11.981950281105549"><ele>849.0</ele><time>2026-04-06T08:36:43Z</time></trkpt><trkpt lat="43.92471515512963" lon="11.981938529465106"><ele>844.0</ele><time>2026-04-06T08:36:44Z</time></trkpt><trkpt lat="43.924589103893105" lon="11.98189927751503"><ele>839.0</ele><time>2026-04-06T08:36:45Z</time></trkpt><trkpt lat="43.92445556588954" lon="11.981859362789917"><ele>834.0</ele><time>2026-04-06T08:36:46Z</time></trkpt><trkpt lat="43.92433174302483" lon="11.981818795953284"><ele>829.0</ele><time>2026-04-06T08:36:47Z</time></trkpt><trkpt lat="43.924205553454215" lon="11.981785351122063"><ele>826.25</ele><time>2026-04-06T08:36:48Z</time></trkpt><trkpt lat="43.92408612455665" lon="11.981752718305714"><ele>823.5</ele><time>2026-04-06T08:36:49Z</time></trkpt><trkpt lat="43.92396973160357" lon="11.981685873376177"><ele>820.75</ele><time>2026-04-06T08:36:50Z</time></trkpt><trkpt lat="43.923859528045696" lon="11.981611157340668"><ele>818.0</ele><time>2026-04-06T08:36:51Z</time></trkpt><trkpt lat="43.92375351748359" lon="11.981534813228079"><ele>818.0</ele><time>2026-04-06T08:36:52Z</time></trkpt><trkpt lat="43.92365166488673" lon="11.981466726744436"><ele>818.0</ele><time>2026-04-06T08:36:53Z</time></trkpt><trkpt lat="43.92355151156186" lon="11.981398754094457"><ele>818.0</ele><time>2026-04-06T08:36:54Z</time></trkpt><trkpt lat="43.923465411330405" lon="11.981331930880454"><ele>818.0</ele><time>2026-04-06T08:36:55Z</time></trkpt><trkpt lat="43.92338918905183" lon="11.981266638971952"><ele>818.0</ele><time>2026-04-06T08:36:56Z</time></trkpt><trkpt lat="43.92331262551767" lon="11.981212948507947"><ele>819.0</ele><time>2026-04-06T08:36:57Z</time></trkpt><trkpt lat="43.923245283451905" lon="11.981179977691632"><ele>820.0</ele><time>2026-04-06T08:36:58Z</time></trkpt><trkpt lat="43.92312465424663" lon="11.981200020836317"><ele>821.0</ele><time>2026-04-06T08:37:00Z</time></trkpt><trkpt lat="43.92306481141916" lon="11.981229725351273"><ele>822.0</ele><time>2026-04-06T08:37:01Z</time></trkpt><trkpt lat="43.922947342345914" lon="11.981290236713459"><ele>823.0</ele><time>2026-04-06T08:37:03Z</time></trkpt><trkpt lat="43.92288261863888" lon="11.981329462754644"><ele>823.0</ele><time>2026-04-06T08:37:05Z</time></trkpt><trkpt lat="43.92281528632362" lon="11.981343028581131"><ele>823.0</ele><time>2026-04-06T08:38:29Z</time></trkpt><trkpt lat="43.922718452111745" lon="11.981385255144358"><ele>823.0</ele><time>2026-04-06T08:42:13Z</time></trkpt><trkpt lat="43.922651292851576" lon="11.98141847483474"><ele>823.0</ele><time>2026-04-06T08:43:05Z</time></trkpt><trkpt lat="43.92244933248355" lon="11.981589830421333"><ele>820.25</ele><time>2026-04-06T08:43:06Z</time></trkpt><trkpt lat="43.92238777338582" lon="11.981782661697896"><ele>817.5</ele><time>2026-04-06T08:43:07Z</time></trkpt><trkpt lat="43.92237530911567" lon="11.981880598550328"><ele>814.75</ele><time>2026-04-06T08:43:08Z</time></trkpt><trkpt lat="43.92235753607741" lon="11.982030347461624"><ele>812.0</ele><time>2026-04-06T08:43:10Z</time></trkpt><trkpt lat="43.92282526627719" lon="11.9826921351637"><ele>813.0</ele><time>2026-04-06T08:43:14Z</time></trkpt><trkpt lat="43.92308934443634" lon="11.982444093883743"><ele>814.0</ele><time>2026-04-06T08:43:18Z</time></trkpt><trkpt lat="43.923109392585374" lon="11.982360273782524"><ele>815.0</ele><time>2026-04-06T08:43:20Z</time></trkpt><trkpt lat="43.92282332656269" lon="11.981453769721307"><ele>815.0</ele><time>2026-04-06T08:43:46.37Z</time></trkpt><trkpt lat="43.92285722754406" lon="11.981567935261689"><ele>815.0</ele><time>2026-04-06T08:43:57.379Z</time></trkpt><trkpt lat="43.9228260555516" lon="11.981742709835045"><ele>815.0</ele><time>2026-04-06T08:43:59.032Z</time></trkpt><trkpt lat="43.922753888191785" lon="11.981521864741012"><ele>815.0</ele><time>2026-04-06T08:46:04.015Z</time></trkpt><trkpt lat="43.92282553079241" lon="11.98157145179619"><ele>816.3333333333334</ele><time>2026-04-06T08:46:06.015Z</time></trkpt><trkpt lat="43.92282206628576" lon="11.981473734135088"><ele>817.6666666666667</ele><time>2026-04-06T08:48:17Z</time></trkpt><trkpt lat="43.92285761044287" lon="11.98138744077666"><ele>819.0</ele><time>2026-04-06T08:52:47.999Z</time></trkpt><trkpt lat="43.922922631239025" lon="11.981292353990478"><ele>820.3333333333333</ele><time>2026-04-06T08:52:50.999Z</time></trkpt><trkpt lat="43.922987971167025" lon="11.981267869611877"><ele>821.6666666666666</ele><time>2026-04-06T08:52:51.999Z</time></trkpt><trkpt lat="43.92306455318612" lon="11.981249278368052"><ele>823.0</ele><time>2026-04-06T08:52:52.999Z</time></trkpt><trkpt lat="43.923157397368534" lon="11.981229911878645"><ele>823.0</ele><time>2026-04-06T08:52:54.999Z</time></trkpt><trkpt lat="43.92323097084244" lon="11.981222329582252"><ele>823.0</ele><time>2026-04-06T08:52:56.999Z</time></trkpt><trkpt lat="43.92334871896854" lon="11.981289040259304"><ele>823.0</ele><time>2026-04-06T08:52:58.999Z</time></trkpt><trkpt lat="43.92343938553944" lon="11.981323892762283"><ele>823.0</ele><time>2026-04-06T08:52:59.999Z</time></trkpt><trkpt lat="43.9235230799831" lon="11.981396983649951"><ele>823.0</ele><time>2026-04-06T08:53:00.999Z</time></trkpt><trkpt lat="43.92362203334861" lon="11.981469686810277"><ele>821.75</ele><time>2026-04-06T08:53:01.999Z</time></trkpt><trkpt lat="43.923714935283904" lon="11.981532975572543"><ele>820.5</ele><time>2026-04-06T08:53:02.999Z</time></trkpt><trkpt lat="43.923828745211914" lon="11.981607450844157"><ele>819.25</ele><time>2026-04-06T08:53:03.999Z</time></trkpt><trkpt lat="43.92393976844156" lon="11.981679342116378"><ele>818.0</ele><time>2026-04-06T08:53:04.999Z</time></trkpt><trkpt lat="43.924041473586044" lon="11.981746228833869"><ele>818.0</ele><time>2026-04-06T08:53:05.999Z</time></trkpt><trkpt lat="43.924146911644804" lon="11.981803231865486"><ele>818.0</ele><time>2026-04-06T08:53:06.999Z</time></trkpt><trkpt lat="43.92424693947434" lon="11.981837554153318"><ele>818.0</ele><time>2026-04-06T08:53:07.999Z</time></trkpt><trkpt lat="43.924346888431096" lon="11.981866430351998"><ele>818.0</ele><time>2026-04-06T08:53:08.999Z</time></trkpt><trkpt lat="43.92445398760617" lon="11.981895765953707"><ele>818.0</ele><time>2026-04-06T08:53:09.999Z</time></trkpt><trkpt lat="43.9245636551361" lon="11.981929855901878"><ele>820.2</ele><time>2026-04-06T08:53:10.999Z</time></trkpt><trkpt lat="43.92466409846408" lon="11.981956947717014"><ele>822.4</ele><time>2026-04-06T08:53:11.999Z</time></trkpt><trkpt lat="43.92475805810222" lon="11.981967388127218"><ele>824.6</ele><time>2026-04-06T08:53:12.999Z</time></trkpt><trkpt lat="43.924854268734656" lon="11.981988722950035"><ele>826.8000000000001</ele><time>2026-04-06T08:53:13.999Z</time></trkpt><trkpt lat="43.92495474229375" lon="11.981946139834251"><ele>829.0</ele><time>2026-04-06T08:53:14.999Z</time></trkpt><trkpt lat="43.9250674097078" lon="11.981864896710736"><ele>833.0</ele><time>2026-04-06T08:53:15.999Z</time></trkpt><trkpt lat="43.92516729223571" lon="11.981787790874701"><ele>837.0</ele><time>2026-04-06T08:53:16.999Z</time></trkpt><trkpt lat="43.92527301499479" lon="11.981705105281508"><ele>841.0</ele><time>2026-04-06T08:53:17.999Z</time></trkpt><trkpt lat="43.925373044120306" lon="11.981601382592828"><ele>845.0</ele><time>2026-04-06T08:53:18.999Z</time></trkpt><trkpt lat="43.92547062090079" lon="11.98150875769999"><ele>845.0</ele><time>2026-04-06T08:53:19.999Z</time></trkpt><trkpt lat="43.92557299718092" lon="11.98142371162584"><ele>845.0</ele><time>2026-04-06T08:53:20.999Z</time></trkpt><trkpt lat="43.925674637456" lon="11.98133143397721"><ele>845.0</ele><time>2026-04-06T08:53:22Z</time></trkpt><trkpt lat="43.9257716216096" lon="11.981263013448153"><ele>845.0</ele><time>2026-04-06T08:53:23Z</time></trkpt><trkpt lat="43.92588161206702" lon="11.981199806723904"><ele>847.25</ele><time>2026-04-06T08:53:24Z</time></trkpt><trkpt lat="43.92599732310731" lon="11.981140337311409"><ele>849.5</ele><time>2026-04-06T08:53:25Z</time></trkpt><trkpt lat="43.92611002152275" lon="11.981110933944525"><ele>851.75</ele><time>2026-04-06T08:53:26Z</time></trkpt><trkpt lat="43.92622389425983" lon="11.981117714301178"><ele>854.0</ele><time>2026-04-06T08:53:27Z</time></trkpt><trkpt lat="43.926350845112914" lon="11.981114867918635"><ele>854.0</ele><time>2026-04-06T08:53:28Z</time></trkpt><trkpt lat="43.926470011858484" lon="11.981104144911285"><ele>854.0</ele><time>2026-04-06T08:53:29Z</time></trkpt><trkpt lat="43.92657611648587" lon="11.981058349996125"><ele>854.0</ele><time>2026-04-06T08:53:30Z</time></trkpt><trkpt lat="43.926662076819184" lon="11.981020341928764"><ele>854.0</ele><time>2026-04-06T08:53:31Z</time></trkpt><trkpt lat="43.92669551458052" lon="11.98084125084265"><ele>857.2</ele><time>2026-04-06T08:53:32Z</time></trkpt><trkpt lat="43.92673127995578" lon="11.980716696423404"><ele>860.4000000000001</ele><time>2026-04-06T08:53:33Z</time></trkpt><trkpt lat="43.926736801777515" lon="11.980559006239194"><ele>863.6</ele><time>2026-04-06T08:53:34Z</time></trkpt><trkpt lat="43.92675275584625" lon="11.980427557863008"><ele>866.8</ele><time>2026-04-06T08:53:35Z</time></trkpt><trkpt lat="43.92678397985249" lon="11.980262049849415"><ele>870.0</ele><time>2026-04-06T08:53:36Z</time></trkpt><trkpt lat="43.92681561455604" lon="11.980086040851965"><ele>870.0</ele><time>2026-04-06T08:53:37Z</time></trkpt><trkpt lat="43.92685887271683" lon="11.979937618093828"><ele>870.0</ele><time>2026-04-06T08:53:38Z</time></trkpt><trkpt lat="43.92694298875859" lon="11.979816841497003"><ele>870.0</ele><time>2026-04-06T08:53:39Z</time></trkpt><trkpt lat="43.92703669417841" lon="11.979666541176208"><ele>870.0</ele><time>2026-04-06T08:53:40Z</time></trkpt><trkpt lat="43.92714086495046" lon="11.979539286893916"><ele>870.0</ele><time>2026-04-06T08:53:41Z</time></trkpt><trkpt lat="43.92725522835671" lon="11.979435538439251"><ele>870.0</ele><time>2026-04-06T08:53:42Z</time></trkpt><trkpt lat="43.92738625708703" lon="11.979371673613317"><ele>870.0</ele><time>2026-04-06T08:53:43Z</time></trkpt><trkpt lat="43.927515853268744" lon="11.979293409312355"><ele>870.0</ele><time>2026-04-06T08:53:44Z</time></trkpt><trkpt lat="43.927649406272174" lon="11.979213977382003"><ele>870.5</ele><time>2026-04-06T08:53:45Z</time></trkpt><trkpt lat="43.92778545447355" lon="11.979132750164787"><ele>871.0</ele><time>2026-04-06T08:53:46Z</time></trkpt><trkpt lat="43.92791055647156" lon="11.979051724329056"><ele>871.5</ele><time>2026-04-06T08:53:47Z</time></trkpt><trkpt lat="43.92803313556309" lon="11.978947455851497"><ele>872.0</ele><time>2026-04-06T08:53:48Z</time></trkpt><trkpt lat="43.92815887542731" lon="11.978863056174117"><ele>872.0</ele><time>2026-04-06T08:53:49Z</time></trkpt><trkpt lat="43.92828786180919" lon="11.9787752439723"><ele>872.0</ele><time>2026-04-06T08:53:50Z</time></trkpt><trkpt lat="43.928420583804964" lon="11.978688913811158"><ele>872.0</ele><time>2026-04-06T08:53:51Z</time></trkpt><trkpt lat="43.92855451477398" lon="11.978605681268665"><ele>872.0</ele><time>2026-04-06T08:53:52Z</time></trkpt><trkpt lat="43.928680088765276" lon="11.978522685725276"><ele>873.2</ele><time>2026-04-06T08:53:53Z</time></trkpt><trkpt lat="43.928790715253236" lon="11.97848528550333"><ele>874.4000000000001</ele><time>2026-04-06T08:53:54Z</time></trkpt><trkpt lat="43.92887429808185" lon="11.97842126763652"><ele>875.5999999999999</ele><time>2026-04-06T08:53:55Z</time></trkpt><trkpt lat="43.92894532862031" lon="11.978389786705465"><ele>876.8</ele><time>2026-04-06T08:53:56Z</time></trkpt><trkpt lat="43.92901087421156" lon="11.978385214267496"><ele>878.0</ele><time>2026-04-06T08:53:57Z</time></trkpt><trkpt lat="43.92907607933773" lon="11.978531223206563"><ele>878.0</ele><time>2026-04-06T08:53:59Z</time></trkpt><trkpt lat="43.9290714078357" lon="11.978640700245696"><ele>878.0</ele><time>2026-04-06T08:54:00Z</time></trkpt><trkpt lat="43.92906330159608" lon="11.978768901814"><ele>878.0</ele><time>2026-04-06T08:54:01Z</time></trkpt><trkpt lat="43.929012629578075" lon="11.978906378518738"><ele>878.0</ele><time>2026-04-06T08:54:02Z</time></trkpt><trkpt lat="43.928947026068684" lon="11.979025097825225"><ele>878.0</ele><time>2026-04-06T08:54:03Z</time></trkpt><trkpt lat="43.928897868335866" lon="11.979147352027931"><ele>877.5</ele><time>2026-04-06T08:54:04Z</time></trkpt><trkpt lat="43.92884386290538" lon="11.979281466693875"><ele>877.0</ele><time>2026-04-06T08:54:05Z</time></trkpt><trkpt lat="43.928787835988864" lon="11.979439241905947"><ele>876.5</ele><time>2026-04-06T08:54:06Z</time></trkpt><trkpt lat="43.928742470035225" lon="11.9796123542777"><ele>876.0</ele><time>2026-04-06T08:54:07Z</time></trkpt><trkpt lat="43.928693367833304" lon="11.979753790967147"><ele>876.0</ele><time>2026-04-06T08:54:08Z</time></trkpt><trkpt lat="43.9286599699752" lon="11.97988117748679"><ele>875.9999999999999</ele><time>2026-04-06T08:54:09Z</time></trkpt><trkpt lat="43.92864624770982" lon="11.979982279368555"><ele>875.9999999999999</ele><time>2026-04-06T08:54:10Z</time></trkpt><trkpt lat="43.92869370022339" lon="11.980085624716764"><ele>876.0</ele><time>2026-04-06T08:54:11Z</time></trkpt><trkpt lat="43.92873571625861" lon="11.980202116894217"><ele>876.0</ele><time>2026-04-06T08:54:12Z</time></trkpt><trkpt lat="43.92877472049947" lon="11.98032444073349"><ele>875.0</ele><time>2026-04-06T08:54:13Z</time></trkpt><trkpt lat="43.928763063948665" lon="11.980450212407387"><ele>874.0</ele><time>2026-04-06T08:54:14Z</time></trkpt><trkpt lat="43.92868643405416" lon="11.98056769493253"><ele>873.0</ele><time>2026-04-06T08:54:15Z</time></trkpt><trkpt lat="43.92863337136864" lon="11.980718169313091"><ele>872.0</ele><time>2026-04-06T08:54:16Z</time></trkpt><trkpt lat="43.928595551122335" lon="11.980887667503204"><ele>871.0</ele><time>2026-04-06T08:54:17Z</time></trkpt><trkpt lat="43.92854815136486" lon="11.981069263753177"><ele>870.0</ele><time>2026-04-06T08:54:18Z</time></trkpt><trkpt lat="43.92851714886559" lon="11.981240390311072"><ele>869.0</ele><time>2026-04-06T08:54:19Z</time></trkpt><trkpt lat="43.9284886007992" lon="11.981417179471206"><ele>868.0</ele><time>2026-04-06T08:54:20Z</time></trkpt><trkpt lat="43.92847146110434" lon="11.981579290940553"><ele>866.25</ele><time>2026-04-06T08:54:21Z</time></trkpt><trkpt lat="43.92845217273861" lon="11.981757862083803"><ele>864.5</ele><time>2026-04-06T08:54:22Z</time></trkpt><trkpt lat="43.928434012015074" lon="11.981940392971483"><ele>862.75</ele><time>2026-04-06T08:54:23Z</time></trkpt><trkpt lat="43.92840770536083" lon="11.98212970548467"><ele>861.0</ele><time>2026-04-06T08:54:24Z</time></trkpt><trkpt lat="43.92837091584851" lon="11.982323621535365"><ele>867.5</ele><time>2026-04-06T08:54:25Z</time></trkpt><trkpt lat="43.928303801111184" lon="11.982482774394736"><ele>874.0</ele><time>2026-04-06T08:54:26Z</time></trkpt><trkpt lat="43.92823864108669" lon="11.98263001698504"><ele>880.5</ele><time>2026-04-06T08:54:27Z</time></trkpt><trkpt lat="43.92817755095287" lon="11.9827541477877"><ele>887.0</ele><time>2026-04-06T08:54:28Z</time></trkpt><trkpt lat="43.928161064583925" lon="11.982909422355275"><ele>888.4000000000001</ele><time>2026-04-06T08:54:29Z</time></trkpt><trkpt lat="43.92815872119813" lon="11.983060792413962"><ele>889.8000000000001</ele><time>2026-04-06T08:54:30Z</time></trkpt><trkpt lat="43.92815987797607" lon="11.983184470164762"><ele>891.2</ele><time>2026-04-06T08:54:31Z</time></trkpt><trkpt lat="43.92810093294786" lon="11.983285060677998"><ele>892.6</ele><time>2026-04-06T08:54:32Z</time></trkpt><trkpt lat="43.92803378219177" lon="11.983384688350467"><ele>894.0</ele><time>2026-04-06T08:54:33Z</time></trkpt><trkpt lat="43.928008456048374" lon="11.983526914193252"><ele>896.6</ele><time>2026-04-06T08:54:34Z</time></trkpt><trkpt lat="43.92798582319746" lon="11.983672043936977"><ele>899.2</ele><time>2026-04-06T08:54:35Z</time></trkpt><trkpt lat="43.92799175791663" lon="11.983824188944748"><ele>901.8000000000001</ele><time>2026-04-06T08:54:36Z</time></trkpt><trkpt lat="43.9280252590038" lon="11.983959660403952"><ele>904.4000000000001</ele><time>2026-04-06T08:54:37Z</time></trkpt><trkpt lat="43.928089021693104" lon="11.984080488713417"><ele>907.0</ele><time>2026-04-06T08:54:38Z</time></trkpt><trkpt lat="43.92814837643945" lon="11.98421939084427"><ele>907.4000000000001</ele><time>2026-04-06T08:54:39Z</time></trkpt><trkpt lat="43.92818569695862" lon="11.984376486821091"><ele>907.8000000000001</ele><time>2026-04-06T08:54:40Z</time></trkpt><trkpt lat="43.9281852390357" lon="11.984533715425973"><ele>908.2</ele><time>2026-04-06T08:54:41Z</time></trkpt><trkpt lat="43.92819317680108" lon="11.984681438512753"><ele>908.6</ele><time>2026-04-06T08:54:42Z</time></trkpt><trkpt lat="43.92818056029082" lon="11.984811011733951"><ele>909.0</ele><time>2026-04-06T08:54:43Z</time></trkpt><trkpt lat="43.928170708620286" lon="11.984936244767347"><ele>908.0</ele><time>2026-04-06T08:54:44Z</time></trkpt><trkpt lat="43.92815867587668" lon="11.985070088339866"><ele>907.0</ele><time>2026-04-06T08:54:45Z</time></trkpt><trkpt lat="43.92813958874103" lon="11.985204489594919"><ele>906.0</ele><time>2026-04-06T08:54:46Z</time></trkpt><trkpt lat="43.92809828036526" lon="11.98528873599068"><ele>905.0</ele><time>2026-04-06T08:54:47Z</time></trkpt><trkpt lat="43.928063114729234" lon="11.98537095775095"><ele>904.0</ele><time>2026-04-06T08:54:52Z</time></trkpt><trkpt lat="43.928020229174045" lon="11.985455593955736"><ele>903.0</ele><time>2026-04-06T08:54:54Z</time></trkpt><trkpt lat="43.92793857932577" lon="11.985602374869698"><ele>903.0</ele><time>2026-04-06T08:54:56Z</time></trkpt><trkpt lat="43.92788383689819" lon="11.985701262107279"><ele>903.0</ele><time>2026-04-06T08:54:57Z</time></trkpt><trkpt lat="43.927824795668954" lon="11.98583024340609"><ele>903.0</ele><time>2026-04-06T08:54:58Z</time></trkpt><trkpt lat="43.927740471133426" lon="11.985970564861912"><ele>903.0</ele><time>2026-04-06T08:54:59Z</time></trkpt><trkpt lat="43.927666307353995" lon="11.986095073655498"><ele>903.0</ele><time>2026-04-06T08:55:00Z</time></trkpt><trkpt lat="43.927592891303334" lon="11.986206275777059"><ele>903.2</ele><time>2026-04-06T08:55:01Z</time></trkpt><trkpt lat="43.927519463778594" lon="11.986305275687991"><ele>903.4</ele><time>2026-04-06T08:55:02Z</time></trkpt><trkpt lat="43.92744376507721" lon="11.986390045754394"><ele>903.6000000000001</ele><time>2026-04-06T08:55:03Z</time></trkpt><trkpt lat="43.927356619228455" lon="11.986470290902657"><ele>903.8000000000001</ele><time>2026-04-06T08:55:04Z</time></trkpt><trkpt lat="43.9272683030839" lon="11.986556706899652"><ele>904.0</ele><time>2026-04-06T08:55:05Z</time></trkpt><trkpt lat="43.92717908776475" lon="11.986655609820684"><ele>902.2</ele><time>2026-04-06T08:55:06Z</time></trkpt><trkpt lat="43.92709473128061" lon="11.986781682074866"><ele>900.4000000000001</ele><time>2026-04-06T08:55:07Z</time></trkpt><trkpt lat="43.927033295480854" lon="11.986905554631974"><ele>898.6</ele><time>2026-04-06T08:55:08Z</time></trkpt><trkpt lat="43.92700012857458" lon="11.987038419668163"><ele>896.8</ele><time>2026-04-06T08:55:09Z</time></trkpt><trkpt lat="43.926986982158844" lon="11.987185558072227"><ele>895.0</ele><time>2026-04-06T08:55:10Z</time></trkpt><trkpt lat="43.926986413087185" lon="11.987346847370237"><ele>895.0</ele><time>2026-04-06T08:55:11Z</time></trkpt><trkpt lat="43.92699524452016" lon="11.9875021619785"><ele>895.0</ele><time>2026-04-06T08:55:12Z</time></trkpt><trkpt lat="43.92701444931233" lon="11.98764613983787"><ele>895.0</ele><time>2026-04-06T08:55:13Z</time></trkpt><trkpt lat="43.92704620714186" lon="11.987798562704977"><ele>895.0</ele><time>2026-04-06T08:55:14Z</time></trkpt><trkpt lat="43.92708221902121" lon="11.987930897346878"><ele>895.0</ele><time>2026-04-06T08:55:15Z</time></trkpt><trkpt lat="43.92711772508366" lon="11.988061475444308"><ele>895.0</ele><time>2026-04-06T08:55:16Z</time></trkpt><trkpt lat="43.92715507023376" lon="11.98819443836181"><ele>895.0</ele><time>2026-04-06T08:55:17Z</time></trkpt><trkpt lat="43.92718346247646" lon="11.988333868308189"><ele>895.0</ele><time>2026-04-06T08:55:18Z</time></trkpt><trkpt lat="43.927194297338296" lon="11.988483525767634"><ele>895.0</ele><time>2026-04-06T08:55:19Z</time></trkpt><trkpt lat="43.92717797664112" lon="11.988628381092257"><ele>895.0</ele><time>2026-04-06T08:55:20Z</time></trkpt><trkpt lat="43.9271667872391" lon="11.988765100804523"><ele>898.0</ele><time>2026-04-06T08:55:21Z</time></trkpt><trkpt lat="43.92715456173547" lon="11.988913291746119"><ele>901.0</ele><time>2026-04-06T08:55:22Z</time></trkpt><trkpt lat="43.92714654780601" lon="11.989065035981152"><ele>904.0</ele><time>2026-04-06T08:55:23Z</time></trkpt><trkpt lat="43.927140824414984" lon="11.989213923993299"><ele>907.0</ele><time>2026-04-06T08:55:24Z</time></trkpt><trkpt lat="43.927141827956376" lon="11.989362079297706"><ele>910.0</ele><time>2026-04-06T08:55:25Z</time></trkpt><trkpt lat="43.92714046610295" lon="11.989504090470248"><ele>911.0</ele><time>2026-04-06T08:55:26Z</time></trkpt><trkpt lat="43.92713126868747" lon="11.989649325696487"><ele>912.0</ele><time>2026-04-06T08:55:27Z</time></trkpt><trkpt lat="43.92712137311041" lon="11.9897987453718"><ele>913.0</ele><time>2026-04-06T08:55:28Z</time></trkpt><trkpt lat="43.92711533774358" lon="11.98994937239583"><ele>914.0</ele><time>2026-04-06T08:55:29Z</time></trkpt><trkpt lat="43.92710049888555" lon="11.990093647371603"><ele>915.0</ele><time>2026-04-06T08:55:30Z</time></trkpt><trkpt lat="43.9270796124408" lon="11.990226997729074"><ele>912.6</ele><time>2026-04-06T08:55:31Z</time></trkpt><trkpt lat="43.92705689841343" lon="11.990353323647064"><ele>910.2</ele><time>2026-04-06T08:55:32Z</time></trkpt><trkpt lat="43.927034190801166" lon="11.990473661721142"><ele>907.8</ele><time>2026-04-06T08:55:33Z</time></trkpt><trkpt lat="43.92700472330506" lon="11.990561167617493"><ele>905.4</ele><time>2026-04-06T08:55:34Z</time></trkpt><trkpt lat="43.926889557256985" lon="11.990630840791681"><ele>903.0</ele><time>2026-04-06T08:55:36Z</time></trkpt><trkpt lat="43.926806859922465" lon="11.990589748071056"><ele>903.0</ele><time>2026-04-06T08:55:37Z</time></trkpt><trkpt lat="43.92672907305845" lon="11.990617140803208"><ele>903.0</ele><time>2026-04-06T08:55:38Z</time></trkpt><trkpt lat="43.92664758656185" lon="11.990681931769254"><ele>903.0</ele><time>2026-04-06T08:55:39Z</time></trkpt><trkpt lat="43.92658614252298" lon="11.99073828451278"><ele>903.0</ele><time>2026-04-06T08:55:40Z</time></trkpt><trkpt lat="43.92653160960987" lon="11.990804709111119"><ele>903.0</ele><time>2026-04-06T08:55:41Z</time></trkpt><trkpt lat="43.92646617833654" lon="11.99083841226936"><ele>903.0</ele><time>2026-04-06T08:55:42Z</time></trkpt><trkpt lat="43.92635980448422" lon="11.990842509157007"><ele>901.0</ele><time>2026-04-06T08:55:44Z</time></trkpt><trkpt lat="43.9262911224286" lon="11.990838631548058"><ele>899.0</ele><time>2026-04-06T08:55:47Z</time></trkpt><trkpt lat="43.92630643865114" lon="11.990956877509221"><ele>897.0</ele><time>2026-04-06T08:56:18Z</time></trkpt><trkpt lat="43.92640144448253" lon="11.990992382769406"><ele>895.0</ele><time>2026-04-06T08:56:20Z</time></trkpt><trkpt lat="43.926477372478324" lon="11.991007787705888"><ele>893.0</ele><time>2026-04-06T08:56:21Z</time></trkpt><trkpt lat="43.92656518937209" lon="11.99103062782515"><ele>891.0</ele><time>2026-04-06T08:56:22Z</time></trkpt><trkpt lat="43.92664958556307" lon="11.991067636919025"><ele>889.0</ele><time>2026-04-06T08:56:23Z</time></trkpt><trkpt lat="43.926753020263966" lon="11.991061882173646"><ele>887.0</ele><time>2026-04-06T08:56:24Z</time></trkpt><trkpt lat="43.92686902174572" lon="11.991097210148238"><ele>885.0</ele><time>2026-04-06T08:56:25Z</time></trkpt><trkpt lat="43.92698666006464" lon="11.99115401982278"><ele>883.0</ele><time>2026-04-06T08:56:26Z</time></trkpt><trkpt lat="43.92709445405603" lon="11.991212397172703"><ele>883.0</ele><time>2026-04-06T08:56:27Z</time></trkpt><trkpt lat="43.92718508886968" lon="11.991339975180564"><ele>883.0</ele><time>2026-04-06T08:56:28Z</time></trkpt><trkpt lat="43.92728302454553" lon="11.991449021515377"><ele>883.0</ele><time>2026-04-06T08:56:29Z</time></trkpt><trkpt lat="43.92737525687135" lon="11.99156615488894"><ele>883.0</ele><time>2026-04-06T08:56:30Z</time></trkpt><trkpt lat="43.92745731432021" lon="11.991688488727783"><ele>877.0</ele><time>2026-04-06T08:56:31Z</time></trkpt><trkpt lat="43.92755342941125" lon="11.991780396222698"><ele>871.0</ele><time>2026-04-06T08:56:32Z</time></trkpt><trkpt lat="43.92763709897069" lon="11.99188356190267"><ele>865.0</ele><time>2026-04-06T08:56:33Z</time></trkpt><trkpt lat="43.92774243582327" lon="11.99193925710458"><ele>859.0</ele><time>2026-04-06T08:56:34Z</time></trkpt><trkpt lat="43.92785635779857" lon="11.991987249958592"><ele>859.0</ele><time>2026-04-06T08:56:35Z</time></trkpt><trkpt lat="43.927963737617965" lon="11.992024617486738"><ele>859.0000000000001</ele><time>2026-04-06T08:56:36Z</time></trkpt><trkpt lat="43.92806213900751" lon="11.992033277061868"><ele>859.0000000000001</ele><time>2026-04-06T08:56:37Z</time></trkpt><trkpt lat="43.928164030755745" lon="11.99197918800197"><ele>859.0</ele><time>2026-04-06T08:56:38Z</time></trkpt><trkpt lat="43.92826387446129" lon="11.99194566284063"><ele>859.0</ele><time>2026-04-06T08:56:39Z</time></trkpt><trkpt lat="43.92837670597567" lon="11.991929797379454"><ele>855.9999999999999</ele><time>2026-04-06T08:56:40Z</time></trkpt><trkpt lat="43.92845199155969" lon="11.991941933139575"><ele>853.0</ele><time>2026-04-06T08:56:41Z</time></trkpt><trkpt lat="43.92851847390373" lon="11.991928446963122"><ele>850.0</ele><time>2026-04-06T08:56:42Z</time></trkpt><trkpt lat="43.92861661827957" lon="11.991931222430551"><ele>847.0</ele><time>2026-04-06T08:56:44Z</time></trkpt><trkpt lat="43.92869054790649" lon="11.991897975815494"><ele>843.9999999999999</ele><time>2026-04-06T08:56:47Z</time></trkpt><trkpt lat="43.9287137609075" lon="11.991806071303778"><ele>841.0</ele><time>2026-04-06T08:56:51Z</time></trkpt><trkpt lat="43.92886066538578" lon="11.991968330591693"><ele>840.9999999999999</ele><time>2026-04-06T08:56:52Z</time></trkpt><trkpt lat="43.92893905208808" lon="11.991949093859025"><ele>841.0</ele><time>2026-04-06T08:56:54Z</time></trkpt><trkpt lat="43.92900342671704" lon="11.991894265005572"><ele>841.0</ele><time>2026-04-06T08:56:56Z</time></trkpt><trkpt lat="43.929086518332575" lon="11.991917714453951"><ele>841.0</ele><time>2026-04-06T08:56:59Z</time></trkpt><trkpt lat="43.92918291282245" lon="11.991899815407118"><ele>840.9999999999999</ele><time>2026-04-06T08:57:02Z</time></trkpt><trkpt lat="43.92926202371523" lon="11.991915694111086"><ele>841.0</ele><time>2026-04-06T08:57:04Z</time></trkpt><trkpt lat="43.92936096965727" lon="11.991879699115445"><ele>839.75</ele><time>2026-04-06T08:57:06Z</time></trkpt><trkpt lat="43.92946277765292" lon="11.991848721165248"><ele>838.5</ele><time>2026-04-06T08:57:08Z</time></trkpt><trkpt lat="43.9295580990274" lon="11.991912684527527"><ele>837.25</ele><time>2026-04-06T08:57:10Z</time></trkpt><trkpt lat="43.92973353386531" lon="11.992005257086598"><ele>836.0</ele><time>2026-04-06T08:57:12Z</time></trkpt><trkpt lat="43.929810441212844" lon="11.992020597057488"><ele>836.0</ele><time>2026-04-06T08:57:13Z</time></trkpt><trkpt lat="43.92988853564742" lon="11.992025488294892"><ele>836.0</ele><time>2026-04-06T08:57:14Z</time></trkpt><trkpt lat="43.92997667463381" lon="11.992055053816502"><ele>836.0</ele><time>2026-04-06T08:57:15Z</time></trkpt><trkpt lat="43.930066115213506" lon="11.992098738002547"><ele>836.0</ele><time>2026-04-06T08:57:16Z</time></trkpt><trkpt lat="43.93015314525615" lon="11.992155718193493"><ele>836.0</ele><time>2026-04-06T08:57:17Z</time></trkpt><trkpt lat="43.93024761976343" lon="11.992213270786284"><ele>838.3333333333334</ele><time>2026-04-06T08:57:18Z</time></trkpt><trkpt lat="43.93032431975022" lon="11.992257392268574"><ele>840.6666666666667</ele><time>2026-04-06T08:57:19Z</time></trkpt><trkpt lat="43.930401746918044" lon="11.992265341269572"><ele>843.0</ele><time>2026-04-06T08:57:20Z</time></trkpt><trkpt lat="43.93047584985183" lon="11.992239806843061"><ele>845.3333333333333</ele><time>2026-04-06T08:57:21Z</time></trkpt><trkpt lat="43.93054775125463" lon="11.992224634642989"><ele>847.6666666666666</ele><time>2026-04-06T08:57:22Z</time></trkpt><trkpt lat="43.93061968143728" lon="11.992204442414177"><ele>850.0</ele><time>2026-04-06T08:57:23Z</time></trkpt><trkpt lat="43.930717431536685" lon="11.992216847564567"><ele>849.9999999999999</ele><time>2026-04-06T08:57:25Z</time></trkpt><trkpt lat="43.9308119569919" lon="11.992281648955625"><ele>850.0</ele><time>2026-04-06T08:57:27Z</time></trkpt><trkpt lat="43.9308589034174" lon="11.992355826741694"><ele>850.0</ele><time>2026-04-06T08:57:29Z</time></trkpt><trkpt lat="43.9309040930472" lon="11.992436317751784"><ele>850.0</ele><time>2026-04-06T08:57:31Z</time></trkpt><trkpt lat="43.930970829542545" lon="11.992433947963141"><ele>849.9999999999999</ele><time>2026-04-06T08:57:32Z</time></trkpt><trkpt lat="43.93104548438585" lon="11.992480806851068"><ele>850.0</ele><time>2026-04-06T08:57:33Z</time></trkpt><trkpt lat="43.93114124777662" lon="11.992528243027927"><ele>849.7142857142857</ele><time>2026-04-06T08:57:34Z</time></trkpt><trkpt lat="43.931216912693245" lon="11.99256851482064"><ele>849.4285714285713</ele><time>2026-04-06T08:57:35Z</time></trkpt><trkpt lat="43.93127982237755" lon="11.992601067978248"><ele>849.1428571428571</ele><time>2026-04-06T08:57:36Z</time></trkpt><trkpt lat="43.931351414662075" lon="11.99262148238221"><ele>848.8571428571429</ele><time>2026-04-06T08:57:37Z</time></trkpt><trkpt lat="43.931423259000425" lon="11.992628656732913"><ele>848.5714285714286</ele><time>2026-04-06T08:57:38Z</time></trkpt><trkpt lat="43.93149301252215" lon="11.99263432477914"><ele>848.2857142857143</ele><time>2026-04-06T08:57:39Z</time></trkpt><trkpt lat="43.93155992764157" lon="11.992652959550966"><ele>848.0</ele><time>2026-04-06T08:57:40Z</time></trkpt><trkpt lat="43.93167102696478" lon="11.992653972078456"><ele>848.8571428571429</ele><time>2026-04-06T08:57:42Z</time></trkpt><trkpt lat="43.9317329918752" lon="11.992691539115777"><ele>849.7142857142857</ele><time>2026-04-06T08:57:43Z</time></trkpt><trkpt lat="43.93178873672265" lon="11.992764033248884"><ele>850.5714285714286</ele><time>2026-04-06T08:57:44Z</time></trkpt><trkpt lat="43.93183925056399" lon="11.992835196741954"><ele>851.4285714285714</ele><time>2026-04-06T08:57:45Z</time></trkpt><trkpt lat="43.93188988327455" lon="11.992905922352925"><ele>852.2857142857142</ele><time>2026-04-06T08:57:46Z</time></trkpt><trkpt lat="43.93194650287868" lon="11.992986810237259"><ele>853.1428571428571</ele><time>2026-04-06T08:57:47Z</time></trkpt><trkpt lat="43.931987590354204" lon="11.993077999511794"><ele>854.0</ele><time>2026-04-06T08:57:48Z</time></trkpt><trkpt lat="43.93201939695498" lon="11.993175034056314"><ele>854.0000000000001</ele><time>2026-04-06T08:57:49Z</time></trkpt><trkpt lat="43.93204930161718" lon="11.993280611614772"><ele>854.0</ele><time>2026-04-06T08:57:50Z</time></trkpt><trkpt lat="43.93208965634264" lon="11.993386109567398"><ele>854.0</ele><time>2026-04-06T08:57:51Z</time></trkpt><trkpt lat="43.93213399988335" lon="11.99348684989694"><ele>854.0</ele><time>2026-04-06T08:57:52Z</time></trkpt><trkpt lat="43.93219547941796" lon="11.993573503225157"><ele>854.0000000000001</ele><time>2026-04-06T08:57:53Z</time></trkpt><trkpt lat="43.93227403297797" lon="11.993638341114266"><ele>854.0</ele><time>2026-04-06T08:57:54Z</time></trkpt><trkpt lat="43.93235211557034" lon="11.993677264701166"><ele>852.4000000000001</ele><time>2026-04-06T08:57:55Z</time></trkpt><trkpt lat="43.93242707407412" lon="11.993678103362228"><ele>850.8000000000001</ele><time>2026-04-06T08:57:56Z</time></trkpt><trkpt lat="43.93249002382744" lon="11.993635961166765"><ele>849.2</ele><time>2026-04-06T08:57:57Z</time></trkpt><trkpt lat="43.93257282937838" lon="11.993600030706016"><ele>847.5999999999999</ele><time>2026-04-06T08:57:58Z</time></trkpt><trkpt lat="43.93264661489924" lon="11.993504450460778"><ele>846.0</ele><time>2026-04-06T08:58:00Z</time></trkpt><trkpt lat="43.9327685244919" lon="11.993463670491812"><ele>846.0</ele><time>2026-04-06T08:58:02Z</time></trkpt><trkpt lat="43.9328327424323" lon="11.993446479445897"><ele>846.0</ele><time>2026-04-06T08:58:03Z</time></trkpt><trkpt lat="43.93293993063532" lon="11.993379917162565"><ele>846.0</ele><time>2026-04-06T08:58:05Z</time></trkpt><trkpt lat="43.93302997383461" lon="11.993422861953066"><ele>846.0</ele><time>2026-04-06T08:58:07Z</time></trkpt><trkpt lat="43.93312400493481" lon="11.993470584627262"><ele>846.0</ele><time>2026-04-06T08:58:09Z</time></trkpt><trkpt lat="43.9332689061963" lon="11.993530134339137"><ele>846.0</ele><time>2026-04-06T08:58:11Z</time></trkpt><trkpt lat="43.9333379901077" lon="11.993596150818913"><ele>846.0</ele><time>2026-04-06T08:58:12Z</time></trkpt><trkpt lat="43.93340044287029" lon="11.993652435218484"><ele>846.0</ele><time>2026-04-06T08:58:13Z</time></trkpt><trkpt lat="43.93347687461392" lon="11.993692748896118"><ele>846.0</ele><time>2026-04-06T08:58:14Z</time></trkpt><trkpt lat="43.93356620909091" lon="11.99372128008376"><ele>846.0</ele><time>2026-04-06T08:58:15Z</time></trkpt><trkpt lat="43.93363683378321" lon="11.993741155838768"><ele>846.0</ele><time>2026-04-06T08:58:16Z</time></trkpt><trkpt lat="43.933734624952734" lon="11.993796698502257"><ele>847.0</ele><time>2026-04-06T08:58:18Z</time></trkpt><trkpt lat="43.93380662131099" lon="11.993891435175817"><ele>848.0</ele><time>2026-04-06T08:58:20Z</time></trkpt><trkpt lat="43.93387284571642" lon="11.993979637741218"><ele>849.0</ele><time>2026-04-06T08:58:22Z</time></trkpt><trkpt lat="43.933875007714605" lon="11.994100606461169"><ele>850.0</ele><time>2026-04-06T08:58:24Z</time></trkpt><trkpt lat="43.93397464364819" lon="11.99417462455722"><ele>851.0</ele><time>2026-04-06T08:58:26Z</time></trkpt><trkpt lat="43.93403635920588" lon="11.99420472435263"><ele>849.3333333333334</ele><time>2026-04-06T08:58:27Z</time></trkpt><trkpt lat="43.9340971927392" lon="11.994238856037354"><ele>847.6666666666667</ele><time>2026-04-06T08:58:28Z</time></trkpt><trkpt lat="43.93414970404518" lon="11.994290360106831"><ele>846.0</ele><time>2026-04-06T08:58:29Z</time></trkpt><trkpt lat="43.93423799414562" lon="11.994419478367753"><ele>844.3333333333333</ele><time>2026-04-06T08:58:31Z</time></trkpt><trkpt lat="43.93428707495436" lon="11.994481359216373"><ele>842.6666666666666</ele><time>2026-04-06T08:58:32Z</time></trkpt><trkpt lat="43.93435998044823" lon="11.994614413424207"><ele>841.0</ele><time>2026-04-06T08:58:34Z</time></trkpt><trkpt lat="43.934424090196565" lon="11.994704370379496"><ele>839.4</ele><time>2026-04-06T08:58:36Z</time></trkpt><trkpt lat="43.93448473702596" lon="11.994774832957432"><ele>837.8</ele><time>2026-04-06T08:58:38Z</time></trkpt><trkpt lat="43.934552484804115" lon="11.994846591272495"><ele>836.1999999999999</ele><time>2026-04-06T08:58:40Z</time></trkpt><trkpt lat="43.934646681604086" lon="11.994926002471097"><ele>834.5999999999999</ele><time>2026-04-06T08:58:42Z</time></trkpt><trkpt lat="43.93471999834918" lon="11.99501967305533"><ele>833.0</ele><time>2026-04-06T08:58:44Z</time></trkpt><trkpt lat="43.934786522372995" lon="11.995111414365091"><ele>833.0</ele><time>2026-04-06T08:58:47Z</time></trkpt><trkpt lat="43.93483404894836" lon="11.99517349139392"><ele>833.0</ele><time>2026-04-06T08:58:49Z</time></trkpt><trkpt lat="43.93489115950208" lon="11.99509055958566"><ele>833.0</ele><time>2026-04-06T08:58:51Z</time></trkpt><trkpt lat="43.934901686609706" lon="11.994934501980415"><ele>833.0</ele><time>2026-04-06T08:58:53Z</time></trkpt><trkpt lat="43.934925888599224" lon="11.994775984522493"><ele>833.0</ele><time>2026-04-06T08:58:55Z</time></trkpt><trkpt lat="43.934973675609" lon="11.994610110351413"><ele>832.8333333333334</ele><time>2026-04-06T08:58:57Z</time></trkpt><trkpt lat="43.93499329151507" lon="11.994526208279197"><ele>832.6666666666667</ele><time>2026-04-06T08:58:58Z</time></trkpt><trkpt lat="43.935023249169674" lon="11.994431180129238"><ele>832.5</ele><time>2026-04-06T08:58:59Z</time></trkpt><trkpt lat="43.93504598738333" lon="11.994343130313183"><ele>832.3333333333333</ele><time>2026-04-06T08:59:00Z</time></trkpt><trkpt lat="43.935051832701724" lon="11.994242929004098"><ele>832.1666666666666</ele><time>2026-04-06T08:59:01Z</time></trkpt><trkpt lat="43.93511498509169" lon="11.994132945030657"><ele>832.0</ele><time>2026-04-06T08:59:03Z</time></trkpt><trkpt lat="43.93519658360115" lon="11.99413525244337"><ele>829.8</ele><time>2026-04-06T08:59:04Z</time></trkpt><trkpt lat="43.93527081861885" lon="11.994140423915992"><ele>827.6</ele><time>2026-04-06T08:59:05Z</time></trkpt><trkpt lat="43.93534031542052" lon="11.99412459135689"><ele>825.4</ele><time>2026-04-06T08:59:06Z</time></trkpt><trkpt lat="43.93543839420843" lon="11.9940475655846"><ele>823.1999999999999</ele><time>2026-04-06T08:59:08Z</time></trkpt><trkpt lat="43.93558050180521" lon="11.993993852498082"><ele>821.0</ele><time>2026-04-06T08:59:10Z</time></trkpt><trkpt lat="43.93564547698216" lon="11.993988189315964"><ele>821.0000000000001</ele><time>2026-04-06T08:59:13Z</time></trkpt><trkpt lat="43.93560494738631" lon="11.994126256586338"><ele>821.0</ele><time>2026-04-06T08:59:15Z</time></trkpt><trkpt lat="43.9355900062694" lon="11.994258782535063"><ele>821.0</ele><time>2026-04-06T08:59:17Z</time></trkpt><trkpt lat="43.93558833924057" lon="11.99434868461569"><ele>821.0</ele><time>2026-04-06T08:59:18Z</time></trkpt><trkpt lat="43.93557585022221" lon="11.994442954714042"><ele>821.0000000000001</ele><time>2026-04-06T08:59:19Z</time></trkpt><trkpt lat="43.93556783273624" lon="11.994536598046881"><ele>821.0</ele><time>2026-04-06T08:59:20Z</time></trkpt><trkpt lat="43.93557578590499" lon="11.994635019201647"><ele>822.4</ele><time>2026-04-06T08:59:21Z</time></trkpt><trkpt lat="43.935615907552034" lon="11.994728081776463"><ele>823.8</ele><time>2026-04-06T08:59:22Z</time></trkpt><trkpt lat="43.93568047157966" lon="11.994799657962282"><ele>825.1999999999999</ele><time>2026-04-06T08:59:23Z</time></trkpt><trkpt lat="43.935774355738516" lon="11.994850719438992"><ele>826.5999999999999</ele><time>2026-04-06T08:59:24Z</time></trkpt><trkpt lat="43.93586284353284" lon="11.994908831143748"><ele>828.0</ele><time>2026-04-06T08:59:25Z</time></trkpt><trkpt lat="43.9359389446859" lon="11.994985431394687"><ele>822.5999999999999</ele><time>2026-04-06T08:59:26Z</time></trkpt><trkpt lat="43.93600036271624" lon="11.995078320791082"><ele>817.1999999999999</ele><time>2026-04-06T08:59:27Z</time></trkpt><trkpt lat="43.93603674852091" lon="11.995189498382775"><ele>811.8</ele><time>2026-04-06T08:59:28Z</time></trkpt><trkpt lat="43.936063614514474" lon="11.995325090609423"><ele>806.4</ele><time>2026-04-06T08:59:29Z</time></trkpt><trkpt lat="43.93607561646094" lon="11.995468783072704"><ele>801.0</ele><time>2026-04-06T08:59:30Z</time></trkpt><trkpt lat="43.93609897225568" lon="11.995612266742283"><ele>801.0</ele><time>2026-04-06T08:59:31Z</time></trkpt><trkpt lat="43.93613452153178" lon="11.995756650145355"><ele>801.0</ele><time>2026-04-06T08:59:32Z</time></trkpt><trkpt lat="43.936175184887404" lon="11.995887082527698"><ele>801.0</ele><time>2026-04-06T08:59:33Z</time></trkpt><trkpt lat="43.936225364690344" lon="11.996005677853427"><ele>801.0</ele><time>2026-04-06T08:59:34Z</time></trkpt><trkpt lat="43.93628714065586" lon="11.996114374412276"><ele>801.0</ele><time>2026-04-06T08:59:35Z</time></trkpt><trkpt lat="43.9363414336128" lon="11.996224957070856"><ele>796.6666666666666</ele><time>2026-04-06T08:59:36Z</time></trkpt><trkpt lat="43.936356956946405" lon="11.99631664302052"><ele>792.3333333333333</ele><time>2026-04-06T08:59:37Z</time></trkpt><trkpt lat="43.93634365284029" lon="11.99641937876539"><ele>788.0</ele><time>2026-04-06T08:59:38Z</time></trkpt><trkpt lat="43.93629332459628" lon="11.996519123990181"><ele>783.6666666666666</ele><time>2026-04-06T08:59:39Z</time></trkpt><trkpt lat="43.93625643622131" lon="11.996613657929313"><ele>779.3333333333333</ele><time>2026-04-06T08:59:40Z</time></trkpt><trkpt lat="43.93630846834723" lon="11.996710027594586"><ele>775.0</ele><time>2026-04-06T08:59:42Z</time></trkpt><trkpt lat="43.936384682277414" lon="11.996817192950948"><ele>770.6666666666666</ele><time>2026-04-06T08:59:44Z</time></trkpt><trkpt lat="43.936463487746344" lon="11.996808477198813"><ele>766.3333333333333</ele><time>2026-04-06T08:59:46Z</time></trkpt><trkpt lat="43.936500560286085" lon="11.996898314432876"><ele>762.0</ele><time>2026-04-06T08:59:48Z</time></trkpt><trkpt lat="43.93653226059416" lon="11.996976586181122"><ele>757.6666666666666</ele><time>2026-04-06T08:59:50Z</time></trkpt><trkpt lat="43.93660043284347" lon="11.997060527033948"><ele>753.3333333333333</ele><time>2026-04-06T08:59:52Z</time></trkpt><trkpt lat="43.936653140587026" lon="11.997152608901622"><ele>749.0</ele><time>2026-04-06T08:59:55Z</time></trkpt><trkpt lat="43.93671194884378" lon="11.997240109484391"><ele>749.0</ele><time>2026-04-06T08:59:59Z</time></trkpt><trkpt lat="43.936779772512324" lon="11.997302560119966"><ele>749.0</ele><time>2026-04-06T09:00:02Z</time></trkpt><trkpt lat="43.93681550993162" lon="11.997377149933753"><ele>749.0</ele><time>2026-04-06T09:00:04Z</time></trkpt><trkpt lat="43.936867862784545" lon="11.997436193004404"><ele>749.0</ele><time>2026-04-06T09:00:08Z</time></trkpt><trkpt lat="43.9369042577982" lon="11.99752349616832"><ele>749.0</ele><time>2026-04-06T09:00:14Z</time></trkpt><trkpt lat="43.936922901780804" lon="11.997622007567548"><ele>749.0</ele><time>2026-04-06T09:00:19Z</time></trkpt><trkpt lat="43.936972182550896" lon="11.997750143080564"><ele>741.6666666666666</ele><time>2026-04-06T09:00:22Z</time></trkpt><trkpt lat="43.93703779502128" lon="11.99782900011629"><ele>734.3333333333333</ele><time>2026-04-06T09:00:25Z</time></trkpt><trkpt lat="43.93710759030118" lon="11.997904276889145"><ele>727.0</ele><time>2026-04-06T09:00:28Z</time></trkpt><trkpt lat="43.9371305745679" lon="11.998003050867386"><ele>719.6666666666666</ele><time>2026-04-06T09:00:32Z</time></trkpt><trkpt lat="43.93706285969213" lon="11.998043695893294"><ele>712.3333333333334</ele><time>2026-04-06T09:00:36Z</time></trkpt><trkpt lat="43.93700849729638" lon="11.998103074488988"><ele>705.0</ele><time>2026-04-06T09:00:38Z</time></trkpt><trkpt lat="43.93693056923017" lon="11.998127046374071"><ele>705.0</ele><time>2026-04-06T09:00:41Z</time></trkpt><trkpt lat="43.93696645779961" lon="11.99822248573617"><ele>705.0</ele><time>2026-04-06T09:00:43Z</time></trkpt><trkpt lat="43.93701176472176" lon="11.998302682006516"><ele>705.0</ele><time>2026-04-06T09:00:45Z</time></trkpt><trkpt lat="43.937037790394974" lon="11.998387544725317"><ele>705.0</ele><time>2026-04-06T09:00:47Z</time></trkpt><trkpt lat="43.93710048332417" lon="11.998440603816139"><ele>705.0</ele><time>2026-04-06T09:00:49Z</time></trkpt><trkpt lat="43.93716639274934" lon="11.998530410237093"><ele>705.0</ele><time>2026-04-06T09:00:52Z</time></trkpt><trkpt lat="43.93711137703274" lon="11.9986009539209"><ele>699.0</ele><time>2026-04-06T09:00:55Z</time></trkpt><trkpt lat="43.93711556710248" lon="11.998737260392708"><ele>693.0</ele><time>2026-04-06T09:00:57Z</time></trkpt><trkpt lat="43.93717979618939" lon="11.998741069269453"><ele>687.0</ele><time>2026-04-06T09:01:03Z</time></trkpt><trkpt lat="43.937258094474835" lon="11.998680677737813"><ele>681.0</ele><time>2026-04-06T09:01:06Z</time></trkpt><trkpt lat="43.937354763467525" lon="11.998634824411043"><ele>675.0</ele><time>2026-04-06T09:01:09Z</time></trkpt><trkpt lat="43.93743378428156" lon="11.9986520193379"><ele>669.0</ele><time>2026-04-06T09:01:12Z</time></trkpt><trkpt lat="43.93749923124856" lon="11.998663840235752"><ele>672.0</ele><time>2026-04-06T09:01:17Z</time></trkpt><trkpt lat="43.937580141970635" lon="11.998733133550987"><ele>675.0</ele><time>2026-04-06T09:01:19Z</time></trkpt><trkpt lat="43.93765131653877" lon="11.998770739993716"><ele>678.0</ele><time>2026-04-06T09:01:20Z</time></trkpt><trkpt lat="43.93774403148585" lon="11.998818892799168"><ele>681.0</ele><time>2026-04-06T09:01:22Z</time></trkpt><trkpt lat="43.93779967142412" lon="11.998873458844818"><ele>684.0</ele><time>2026-04-06T09:01:24Z</time></trkpt><trkpt lat="43.93786837196262" lon="11.998906413283748"><ele>687.0</ele><time>2026-04-06T09:01:26Z</time></trkpt><trkpt lat="43.937831669211796" lon="11.998994022079838"><ele>687.0</ele><time>2026-04-06T09:01:34Z</time></trkpt><trkpt lat="43.93787199018709" lon="11.999085311710537"><ele>687.0</ele><time>2026-04-06T09:01:38Z</time></trkpt><trkpt lat="43.93793645161971" lon="11.999243350006132"><ele>687.0</ele><time>2026-04-06T09:01:40Z</time></trkpt><trkpt lat="43.9379503930952" lon="11.99934210739166"><ele>687.0</ele><time>2026-04-06T09:01:41Z</time></trkpt><trkpt lat="43.93794640835859" lon="11.99947288163666"><ele>687.0</ele><time>2026-04-06T09:01:44Z</time></trkpt><trkpt lat="43.93782598103725" lon="11.999329237880504"><ele>681.75</ele><time>2026-04-06T09:01:46Z</time></trkpt><trkpt lat="43.93797608285971" lon="11.999383021021298"><ele>676.5</ele><time>2026-04-06T09:01:47Z</time></trkpt><trkpt lat="43.93806118621867" lon="11.999463740226089"><ele>671.25</ele><time>2026-04-06T09:01:49Z</time></trkpt><trkpt lat="43.938071496584435" lon="11.999553290821197"><ele>666.0</ele><time>2026-04-06T09:01:51Z</time></trkpt><trkpt lat="43.938194904646515" lon="11.999848018160401"><ele>666.0</ele><time>2026-04-06T09:01:56Z</time></trkpt><trkpt lat="43.938215578464" lon="11.999938623582228"><ele>666.0</ele><time>2026-04-06T09:01:57Z</time></trkpt><trkpt lat="43.938247080634284" lon="12.000100596490396"><ele>666.0</ele><time>2026-04-06T09:01:59Z</time></trkpt><trkpt lat="43.938241033586614" lon="12.000229883135294"><ele>666.0</ele><time>2026-04-06T09:02:01Z</time></trkpt><trkpt lat="43.93819619404984" lon="12.000380326382004"><ele>666.0</ele><time>2026-04-06T09:02:02Z</time></trkpt><trkpt lat="43.93817193459659" lon="12.00121969982534"><ele>664.5</ele><time>2026-04-06T09:02:03Z</time></trkpt><trkpt lat="43.9381553536412" lon="12.001332181221397"><ele>663.0</ele><time>2026-04-06T09:02:04Z</time></trkpt><trkpt lat="43.93811835013581" lon="12.00145780106346"><ele>661.5</ele><time>2026-04-06T09:02:05Z</time></trkpt><trkpt lat="43.938084696184134" lon="12.001581974238132"><ele>660.0</ele><time>2026-04-06T09:02:06Z</time></trkpt><trkpt lat="43.938056828696226" lon="12.00168330193593"><ele>658.5</ele><time>2026-04-06T09:02:07Z</time></trkpt><trkpt lat="43.93808360325277" lon="12.001780435680802"><ele>657.0</ele><time>2026-04-06T09:02:09Z</time></trkpt><trkpt lat="43.93815270163138" lon="12.001837954932558"><ele>656.0</ele><time>2026-04-06T09:02:10Z</time></trkpt><trkpt lat="43.93824193422083" lon="12.001915606138029"><ele>655.0</ele><time>2026-04-06T09:02:11Z</time></trkpt><trkpt lat="43.9382962289119" lon="12.001982353921525"><ele>654.0</ele><time>2026-04-06T09:02:12Z</time></trkpt><trkpt lat="43.93835340637004" lon="12.002045021398725"><ele>653.0</ele><time>2026-04-06T09:02:13Z</time></trkpt><trkpt lat="43.938390569234635" lon="12.002132050022933"><ele>652.0</ele><time>2026-04-06T09:02:14Z</time></trkpt><trkpt lat="43.93838172757375" lon="12.002254281033936"><ele>651.0</ele><time>2026-04-06T09:02:15Z</time></trkpt><trkpt lat="43.93838351214192" lon="12.002359484569272"><ele>651.0</ele><time>2026-04-06T09:02:16Z</time></trkpt><trkpt lat="43.938334164011" lon="12.002470595166166"><ele>651.0</ele><time>2026-04-06T09:02:17Z</time></trkpt><trkpt lat="43.93825779607875" lon="12.002567561668672"><ele>651.0</ele><time>2026-04-06T09:02:18Z</time></trkpt><trkpt lat="43.93818721288128" lon="12.002661609102658"><ele>651.0</ele><time>2026-04-06T09:02:19Z</time></trkpt><trkpt lat="43.938133145416934" lon="12.002773300316802"><ele>651.0</ele><time>2026-04-06T09:02:20Z</time></trkpt><trkpt lat="43.9381080515978" lon="12.002900880045253"><ele>649.3333333333334</ele><time>2026-04-06T09:02:21Z</time></trkpt><trkpt lat="43.93808387814702" lon="12.003005739177887"><ele>647.6666666666666</ele><time>2026-04-06T09:02:22Z</time></trkpt><trkpt lat="43.93804606343012" lon="12.003101034913293"><ele>646.0</ele><time>2026-04-06T09:02:23Z</time></trkpt><trkpt lat="43.937983177154265" lon="12.003164018974486"><ele>644.3333333333333</ele><time>2026-04-06T09:02:24Z</time></trkpt><trkpt lat="43.93791143626874" lon="12.003210419660995"><ele>642.6666666666666</ele><time>2026-04-06T09:02:25Z</time></trkpt><trkpt lat="43.937861232817056" lon="12.003275498611131"><ele>641.0</ele><time>2026-04-06T09:02:26Z</time></trkpt><trkpt lat="43.93784202253481" lon="12.003408447547674"><ele>639.8333333333333</ele><time>2026-04-06T09:02:27Z</time></trkpt><trkpt lat="43.93782887268198" lon="12.003523528203939"><ele>638.6666666666666</ele><time>2026-04-06T09:02:28Z</time></trkpt><trkpt lat="43.937818370844504" lon="12.003640023327725"><ele>637.5</ele><time>2026-04-06T09:02:29Z</time></trkpt><trkpt lat="43.937820168949195" lon="12.003732763571993"><ele>636.3333333333334</ele><time>2026-04-06T09:02:30Z</time></trkpt><trkpt lat="43.93786467206612" lon="12.003797433996825"><ele>635.1666666666667</ele><time>2026-04-06T09:02:31Z</time></trkpt><trkpt lat="43.93791955400314" lon="12.003911837749387"><ele>634.0</ele><time>2026-04-06T09:02:33Z</time></trkpt><trkpt lat="43.937845637791256" lon="12.004033581896442"><ele>629.0</ele><time>2026-04-06T09:02:35Z</time></trkpt><trkpt lat="43.937830561215534" lon="12.004169899462234"><ele>624.0</ele><time>2026-04-06T09:02:37Z</time></trkpt><trkpt lat="43.937812218675035" lon="12.004276845102764"><ele>619.0</ele><time>2026-04-06T09:02:39Z</time></trkpt><trkpt lat="43.937764482091275" lon="12.004413411940686"><ele>614.0</ele><time>2026-04-06T09:02:41Z</time></trkpt><trkpt lat="43.93771392226243" lon="12.004506248464192"><ele>609.0</ele><time>2026-04-06T09:02:43Z</time></trkpt><trkpt lat="43.93761914763541" lon="12.004553184377295"><ele>608.3333333333334</ele><time>2026-04-06T09:02:45Z</time></trkpt><trkpt lat="43.93754264285922" lon="12.004627511866047"><ele>607.6666666666666</ele><time>2026-04-06T09:02:47Z</time></trkpt><trkpt lat="43.93747596831245" lon="12.004784775846055"><ele>607.0</ele><time>2026-04-06T09:02:49Z</time></trkpt><trkpt lat="43.937431871507926" lon="12.004851835108967"><ele>606.3333333333333</ele><time>2026-04-06T09:02:50Z</time></trkpt><trkpt lat="43.93738891585076" lon="12.00493881276152"><ele>605.6666666666666</ele><time>2026-04-06T09:02:51Z</time></trkpt><trkpt lat="43.93736364253523" lon="12.005025570884369"><ele>605.0</ele><time>2026-04-06T09:02:52Z</time></trkpt><trkpt lat="43.93734759762101" lon="12.0051120929948"><ele>604.0</ele><time>2026-04-06T09:02:53Z</time></trkpt><trkpt lat="43.93734304331796" lon="12.005206270765523"><ele>603.0</ele><time>2026-04-06T09:02:54Z</time></trkpt><trkpt lat="43.93733106551248" lon="12.005305909859375"><ele>602.0</ele><time>2026-04-06T09:02:55Z</time></trkpt><trkpt lat="43.937305987705486" lon="12.00540279439915"><ele>601.0</ele><time>2026-04-06T09:02:56Z</time></trkpt><trkpt lat="43.93726719785681" lon="12.005497180268167"><ele>600.0</ele><time>2026-04-06T09:02:57Z</time></trkpt><trkpt lat="43.93721675676923" lon="12.005605464419508"><ele>599.0</ele><time>2026-04-06T09:02:58Z</time></trkpt><trkpt lat="43.937180242366956" lon="12.005692651652682"><ele>599.0</ele><time>2026-04-06T09:02:59Z</time></trkpt><trkpt lat="43.937155563214695" lon="12.005788767221203"><ele>599.0</ele><time>2026-04-06T09:03:00Z</time></trkpt><trkpt lat="43.93713044239837" lon="12.005883834370948"><ele>599.0</ele><time>2026-04-06T09:03:01Z</time></trkpt><trkpt lat="43.93710142708796" lon="12.005964668412842"><ele>599.0</ele><time>2026-04-06T09:03:02Z</time></trkpt><trkpt lat="43.93705871240687" lon="12.00603424974724"><ele>599.0</ele><time>2026-04-06T09:03:03Z</time></trkpt><trkpt lat="43.937000762424994" lon="12.006101294377219"><ele>599.0</ele><time>2026-04-06T09:03:04Z</time></trkpt><trkpt lat="43.9369504221778" lon="12.006158083650373"><ele>599.0</ele><time>2026-04-06T09:03:05Z</time></trkpt><trkpt lat="43.9368557559026" lon="12.006254123692674"><ele>595.8</ele><time>2026-04-06T09:03:07Z</time></trkpt><trkpt lat="43.93678360823694" lon="12.006355727624271"><ele>592.5999999999999</ele><time>2026-04-06T09:03:09Z</time></trkpt><trkpt lat="43.93674404952046" lon="12.006499315853972"><ele>589.4</ele><time>2026-04-06T09:03:11Z</time></trkpt><trkpt lat="43.936710558498916" lon="12.006639834437388"><ele>586.1999999999999</ele><time>2026-04-06T09:03:13Z</time></trkpt><trkpt lat="43.93664485800689" lon="12.006757992456373"><ele>583.0</ele><time>2026-04-06T09:03:15Z</time></trkpt><trkpt lat="43.936609190288266" lon="12.006831513973358"><ele>580.0</ele><time>2026-04-06T09:03:16Z</time></trkpt><trkpt lat="43.93654852481197" lon="12.006962011821738"><ele>577.0</ele><time>2026-04-06T09:03:18Z</time></trkpt><trkpt lat="43.93648214836807" lon="12.006980990518537"><ele>574.0</ele><time>2026-04-06T09:03:20Z</time></trkpt><trkpt lat="43.93644228915574" lon="12.006901745099752"><ele>571.0</ele><time>2026-04-06T09:03:22Z</time></trkpt><trkpt lat="43.93639586576483" lon="12.006722884650635"><ele>568.0</ele><time>2026-04-06T09:03:24Z</time></trkpt><trkpt lat="43.93638213618712" lon="12.006620506273386"><ele>568.0</ele><time>2026-04-06T09:03:25Z</time></trkpt><trkpt lat="43.936347018771144" lon="12.006525700894578"><ele>568.0</ele><time>2026-04-06T09:03:26Z</time></trkpt><trkpt lat="43.936324587683316" lon="12.006425680251695"><ele>568.0</ele><time>2026-04-06T09:03:27Z</time></trkpt><trkpt lat="43.936307653600515" lon="12.006331759798474"><ele>568.0</ele><time>2026-04-06T09:03:28Z</time></trkpt><trkpt lat="43.93631404592032" lon="12.006235703490866"><ele>568.0</ele><time>2026-04-06T09:03:29Z</time></trkpt><trkpt lat="43.93632278865876" lon="12.006142421077374"><ele>568.0</ele><time>2026-04-06T09:03:30Z</time></trkpt><trkpt lat="43.93631422287038" lon="12.006033419805902"><ele>568.0</ele><time>2026-04-06T09:03:32Z</time></trkpt><trkpt lat="43.936243053982636" lon="12.006126052340614"><ele>568.0</ele><time>2026-04-06T09:03:35Z</time></trkpt><trkpt lat="43.936208238501585" lon="12.006220259833812"><ele>568.0</ele><time>2026-04-06T09:03:36Z</time></trkpt><trkpt lat="43.93617540760651" lon="12.006315081932705"><ele>568.0</ele><time>2026-04-06T09:03:37Z</time></trkpt><trkpt lat="43.936154658683996" lon="12.006408083264166"><ele>568.0</ele><time>2026-04-06T09:03:38Z</time></trkpt><trkpt lat="43.93614374949576" lon="12.006507640959253"><ele>568.0</ele><time>2026-04-06T09:03:39Z</time></trkpt><trkpt lat="43.93613126871524" lon="12.006612046533322"><ele>568.0</ele><time>2026-04-06T09:03:40Z</time></trkpt><trkpt lat="43.936101426980244" lon="12.006719716460703"><ele>566.8333333333334</ele><time>2026-04-06T09:03:41Z</time></trkpt><trkpt lat="43.93606439331959" lon="12.006821236717244"><ele>565.6666666666667</ele><time>2026-04-06T09:03:42Z</time></trkpt><trkpt lat="43.93603674582088" lon="12.006909182101088"><ele>564.5</ele><time>2026-04-06T09:03:43Z</time></trkpt><trkpt lat="43.93600582991447" lon="12.007004988135174"><ele>563.3333333333334</ele><time>2026-04-06T09:03:45Z</time></trkpt><trkpt lat="43.93596346295397" lon="12.007094884524394"><ele>562.1666666666666</ele><time>2026-04-06T09:03:48Z</time></trkpt><trkpt lat="43.93590809384379" lon="12.007149123251683"><ele>561.0</ele><time>2026-04-06T09:03:50Z</time></trkpt><trkpt lat="43.93587958211656" lon="12.007252945849164"><ele>556.0</ele><time>2026-04-06T09:03:53Z</time></trkpt><trkpt lat="43.93585598871914" lon="12.00735101895769"><ele>551.0</ele><time>2026-04-06T09:03:55Z</time></trkpt><trkpt lat="43.9358067395452" lon="12.007456280569777"><ele>546.0</ele><time>2026-04-06T09:03:58Z</time></trkpt><trkpt lat="43.93578962392612" lon="12.007549274029905"><ele>541.0</ele><time>2026-04-06T09:04:00Z</time></trkpt><trkpt lat="43.93578341365395" lon="12.007655896736468"><ele>536.0</ele><time>2026-04-06T09:04:02Z</time></trkpt><trkpt lat="43.93579163924808" lon="12.00774269095206"><ele>531.0</ele><time>2026-04-06T09:04:03Z</time></trkpt><trkpt lat="43.93587499114914" lon="12.00784831894248"><ele>531.8</ele><time>2026-04-06T09:04:05Z</time></trkpt><trkpt lat="43.935935789012404" lon="12.007881706838923"><ele>532.6</ele><time>2026-04-06T09:04:06Z</time></trkpt><trkpt lat="43.93603594697948" lon="12.00796148763157"><ele>533.4</ele><time>2026-04-06T09:04:08Z</time></trkpt><trkpt lat="43.93614673737353" lon="12.007985843567077"><ele>534.2</ele><time>2026-04-06T09:04:10Z</time></trkpt><trkpt lat="43.93627401106315" lon="12.007995820284089"><ele>535.0</ele><time>2026-04-06T09:04:12Z</time></trkpt><trkpt lat="43.93634415693455" lon="12.007990939746163"><ele>535.0</ele><time>2026-04-06T09:04:13Z</time></trkpt><trkpt lat="43.936415086471634" lon="12.007984097762685"><ele>535.0</ele><time>2026-04-06T09:04:14Z</time></trkpt><trkpt lat="43.93648804618531" lon="12.007969214781795"><ele>535.0</ele><time>2026-04-06T09:04:15Z</time></trkpt><trkpt lat="43.93655809510894" lon="12.007948174621163"><ele>535.0</ele><time>2026-04-06T09:04:16Z</time></trkpt><trkpt lat="43.93662680681305" lon="12.007926396667695"><ele>535.0</ele><time>2026-04-06T09:04:17Z</time></trkpt><trkpt lat="43.93669500980317" lon="12.007908746062665"><ele>535.0</ele><time>2026-04-06T09:04:18Z</time></trkpt><trkpt lat="43.93676024407975" lon="12.00789095794534"><ele>535.0</ele><time>2026-04-06T09:04:19Z</time></trkpt><trkpt lat="43.936827592466564" lon="12.007876730282545"><ele>533.5</ele><time>2026-04-06T09:04:20Z</time></trkpt><trkpt lat="43.93689536419802" lon="12.007868170469937"><ele>532.0</ele><time>2026-04-06T09:04:21Z</time></trkpt><trkpt lat="43.936963864747135" lon="12.007868976804387"><ele>530.5</ele><time>2026-04-06T09:04:22Z</time></trkpt><trkpt lat="43.937038614421446" lon="12.007882339477156"><ele>529.0</ele><time>2026-04-06T09:04:23Z</time></trkpt><trkpt lat="43.9371100184396" lon="12.00792867476629"><ele>527.5</ele><time>2026-04-06T09:04:24Z</time></trkpt><trkpt lat="43.93717988337107" lon="12.007998886588389"><ele>526.0</ele><time>2026-04-06T09:04:25Z</time></trkpt><trkpt lat="43.93724811398084" lon="12.008093341127262"><ele>526.0</ele><time>2026-04-06T09:04:26Z</time></trkpt><trkpt lat="43.93731283472899" lon="12.00818817319573"><ele>526.0</ele><time>2026-04-06T09:04:27Z</time></trkpt><trkpt lat="43.93737638057123" lon="12.008296006938217"><ele>526.0</ele><time>2026-04-06T09:04:28Z</time></trkpt><trkpt lat="43.93744029174728" lon="12.008402002749776"><ele>526.0</ele><time>2026-04-06T09:04:29Z</time></trkpt><trkpt lat="43.93749635613956" lon="12.008500220328417"><ele>526.0</ele><time>2026-04-06T09:04:30Z</time></trkpt><trkpt lat="43.937551361945154" lon="12.00859571474728"><ele>529.0</ele><time>2026-04-06T09:04:31Z</time></trkpt><trkpt lat="43.93760280404891" lon="12.008685192280096"><ele>532.0</ele><time>2026-04-06T09:04:32Z</time></trkpt><trkpt lat="43.937655297170956" lon="12.008780945798442"><ele>535.0</ele><time>2026-04-06T09:04:33Z</time></trkpt><trkpt lat="43.937712150437385" lon="12.0088833844729"><ele>538.0</ele><time>2026-04-06T09:04:34Z</time></trkpt><trkpt lat="43.937773712217016" lon="12.008986638902542"><ele>541.0</ele><time>2026-04-06T09:04:35Z</time></trkpt><trkpt lat="43.93784259007494" lon="12.00909138057151"><ele>534.0</ele><time>2026-04-06T09:04:36Z</time></trkpt><trkpt lat="43.93791939006174" lon="12.009189795311546"><ele>527.0</ele><time>2026-04-06T09:04:37Z</time></trkpt><trkpt lat="43.93800906794866" lon="12.009281955774627"><ele>520.0</ele><time>2026-04-06T09:04:38Z</time></trkpt><trkpt lat="43.93811145955836" lon="12.00936373110094"><ele>513.0</ele><time>2026-04-06T09:04:39Z</time></trkpt><trkpt lat="43.93822129518821" lon="12.009444745270825"><ele>513.0</ele><time>2026-04-06T09:04:40Z</time></trkpt><trkpt lat="43.938338788502804" lon="12.009529261003468"><ele>513.0</ele><time>2026-04-06T09:04:41Z</time></trkpt><trkpt lat="43.9384417883424" lon="12.009624648894087"><ele>513.0</ele><time>2026-04-06T09:04:42Z</time></trkpt><trkpt lat="43.93854582591748" lon="12.009744366454154"><ele>513.0</ele><time>2026-04-06T09:04:43Z</time></trkpt><trkpt lat="43.938618336614105" lon="12.009873040742038"><ele>512.0</ele><time>2026-04-06T09:04:44Z</time></trkpt><trkpt lat="43.938689266305715" lon="12.00999307653814"><ele>511.0</ele><time>2026-04-06T09:04:45Z</time></trkpt><trkpt lat="43.93875024574798" lon="12.01009400394836"><ele>510.0</ele><time>2026-04-06T09:04:46Z</time></trkpt><trkpt lat="43.93880278070609" lon="12.010176336714846"><ele>509.0</ele><time>2026-04-06T09:04:47Z</time></trkpt><trkpt lat="43.9388471063958" lon="12.010238858714851"><ele>508.0</ele><time>2026-04-06T09:04:48Z</time></trkpt><trkpt lat="43.93892094513997" lon="12.010321428371185"><ele>507.0</ele><time>2026-04-06T09:04:50Z</time></trkpt><trkpt lat="43.938971087230996" lon="12.010394413226885"><ele>507.0</ele><time>2026-04-06T09:04:52Z</time></trkpt><trkpt lat="43.93892090924609" lon="12.010469068488705"><ele>507.0</ele><time>2026-04-06T09:05:37.001Z</time></trkpt><trkpt lat="43.9389229384891" lon="12.010601154616886"><ele>507.0</ele><time>2026-04-06T09:05:41.001Z</time></trkpt><trkpt lat="43.93889340774502" lon="12.010709198455157"><ele>507.0</ele><time>2026-04-06T09:05:43.001Z</time></trkpt><trkpt lat="43.93892654194933" lon="12.010807606123"><ele>507.0</ele><time>2026-04-06T09:05:46.001Z</time></trkpt><trkpt lat="43.93893168499789" lon="12.010936716515022"><ele>507.0</ele><time>2026-04-06T09:05:48.001Z</time></trkpt><trkpt lat="43.93892801976894" lon="12.011090230321265"><ele>502.5</ele><time>2026-04-06T09:05:50.001Z</time></trkpt><trkpt lat="43.938892217011166" lon="12.01122050098415"><ele>498.0</ele><time>2026-04-06T09:05:52.001Z</time></trkpt><trkpt lat="43.938896457115135" lon="12.011328694879857"><ele>493.5</ele><time>2026-04-06T09:05:54.001Z</time></trkpt><trkpt lat="43.93893864185794" lon="12.011415818977769"><ele>489.0</ele><time>2026-04-06T09:05:56.001Z</time></trkpt><trkpt lat="43.93903543011901" lon="12.011381233812886"><ele>484.5</ele><time>2026-04-06T09:05:59.001Z</time></trkpt><trkpt lat="43.939106000695354" lon="12.011393617145561"><ele>480.0</ele><time>2026-04-06T09:06:01.001Z</time></trkpt><trkpt lat="43.93910918525652" lon="12.011502951216102"><ele>480.0</ele><time>2026-04-06T09:06:03.001Z</time></trkpt><trkpt lat="43.939115913586726" lon="12.01161260503662"><ele>480.0</ele><time>2026-04-06T09:06:06.001Z</time></trkpt><trkpt lat="43.939039431376685" lon="12.011657343185485"><ele>480.0</ele><time>2026-04-06T09:06:08.001Z</time></trkpt><trkpt lat="43.93892033707758" lon="12.011750189667689"><ele>480.0</ele><time>2026-04-06T09:06:10.001Z</time></trkpt><trkpt lat="43.93882702380437" lon="12.011791886591526"><ele>480.0</ele><time>2026-04-06T09:06:12.001Z</time></trkpt><trkpt lat="43.938750094005385" lon="12.011820619771331"><ele>478.3333333333333</ele><time>2026-04-06T09:06:14.001Z</time></trkpt><trkpt lat="43.93866598373791" lon="12.011866820513818"><ele>476.66666666666663</ele><time>2026-04-06T09:06:16.001Z</time></trkpt><trkpt lat="43.93859395961166" lon="12.011903616165748"><ele>475.0</ele><time>2026-04-06T09:06:18.001Z</time></trkpt><trkpt lat="43.938524618412465" lon="12.011987357419548"><ele>473.3333333333333</ele><time>2026-04-06T09:06:21.001Z</time></trkpt><trkpt lat="43.93845909070586" lon="12.012057028124232"><ele>471.66666666666663</ele><time>2026-04-06T09:06:23.001Z</time></trkpt><trkpt lat="43.93838966943977" lon="12.01208288124135"><ele>470.0</ele><time>2026-04-06T09:06:25.001Z</time></trkpt><trkpt lat="43.93838134151989" lon="12.011964119025851"><ele>470.0</ele><time>2026-04-06T09:06:28.001Z</time></trkpt><trkpt lat="43.93839289542637" lon="12.011847990796195"><ele>470.0</ele><time>2026-04-06T09:06:31.001Z</time></trkpt><trkpt lat="43.93841076425048" lon="12.011745170685607"><ele>470.0</ele><time>2026-04-06T09:06:33.001Z</time></trkpt><trkpt lat="43.938434059152385" lon="12.011563591541526"><ele>470.0</ele><time>2026-04-06T09:06:34.001Z</time></trkpt><trkpt lat="43.93844520884507" lon="12.011424536261263"><ele>470.0</ele><time>2026-04-06T09:06:36.001Z</time></trkpt><trkpt lat="43.938431761915545" lon="12.011328771803187"><ele>470.2</ele><time>2026-04-06T09:06:39.001Z</time></trkpt><trkpt lat="43.93837358140868" lon="12.011265694191417"><ele>470.4</ele><time>2026-04-06T09:06:42.001Z</time></trkpt><trkpt lat="43.938322376872" lon="12.011162215437869"><ele>470.6</ele><time>2026-04-06T09:06:45.001Z</time></trkpt><trkpt lat="43.93830563653249" lon="12.0110624092819"><ele>470.8</ele><time>2026-04-06T09:06:47.001Z</time></trkpt><trkpt lat="43.93827759810812" lon="12.010934843755633"><ele>471.0</ele><time>2026-04-06T09:06:49.001Z</time></trkpt><trkpt lat="43.938173937546956" lon="12.010816503492435"><ele>471.0</ele><time>2026-04-06T09:06:51.001Z</time></trkpt><trkpt lat="43.93811147157327" lon="12.010782367613865"><ele>471.0</ele><time>2026-04-06T09:06:52.001Z</time></trkpt><trkpt lat="43.938048975708554" lon="12.010756407687841"><ele>471.0</ele><time>2026-04-06T09:06:53.001Z</time></trkpt><trkpt lat="43.93795280855669" lon="12.010704124148951"><ele>471.0</ele><time>2026-04-06T09:06:55.001Z</time></trkpt><trkpt lat="43.9379339571714" lon="12.010817385541191"><ele>471.0</ele><time>2026-04-06T09:07:23.001Z</time></trkpt><trkpt lat="43.93798920491137" lon="12.010876521262839"><ele>471.0</ele><time>2026-04-06T09:07:24.001Z</time></trkpt><trkpt lat="43.93803919114126" lon="12.01093028523356"><ele>471.0</ele><time>2026-04-06T09:07:25.001Z</time></trkpt><trkpt lat="43.93807804329745" lon="12.011039183210684"><ele>471.0</ele><time>2026-04-06T09:07:27.001Z</time></trkpt><trkpt lat="43.93809152875228" lon="12.011141627129856"><ele>471.0</ele><time>2026-04-06T09:07:30.001Z</time></trkpt><trkpt lat="43.93808631268451" lon="12.011228988930522"><ele>471.0</ele><time>2026-04-06T09:07:53.001Z</time></trkpt><trkpt lat="43.93812163363309" lon="12.01115243381917"><ele>471.0</ele><time>2026-04-06T09:07:59.001Z</time></trkpt><trkpt lat="43.93807360188378" lon="12.011077764721032"><ele>471.0</ele><time>2026-04-06T09:08:01.001Z</time></trkpt><trkpt lat="43.93804583640908" lon="12.010963808619227"><ele>471.0</ele><time>2026-04-06T09:08:03.001Z</time></trkpt><trkpt lat="43.93799273617092" lon="12.010873621925857"><ele>471.0</ele><time>2026-04-06T09:08:04.001Z</time></trkpt><trkpt lat="43.937940734370954" lon="12.010794756415143"><ele>471.0</ele><time>2026-04-06T09:08:05.001Z</time></trkpt><trkpt lat="43.93789440608991" lon="12.01073399629735"><ele>471.0</ele><time>2026-04-06T09:08:06.001Z</time></trkpt><trkpt lat="43.937806569667586" lon="12.010653887103969"><ele>471.0</ele><time>2026-04-06T09:08:08.001Z</time></trkpt><trkpt lat="43.93768687659298" lon="12.01060226955263"><ele>471.0</ele><time>2026-04-06T09:08:10.001Z</time></trkpt><trkpt lat="43.93762360574528" lon="12.010592119688152"><ele>471.0</ele><time>2026-04-06T09:08:11.001Z</time></trkpt><trkpt lat="43.93754517681663" lon="12.010581600664393"><ele>471.0</ele><time>2026-04-06T09:08:12.001Z</time></trkpt><trkpt lat="43.93746389019517" lon="12.010571452881964"><ele>471.0</ele><time>2026-04-06T09:08:13.001Z</time></trkpt><trkpt lat="43.937382862199044" lon="12.010576540825657"><ele>471.0</ele><time>2026-04-06T09:08:14.001Z</time></trkpt><trkpt lat="43.93729901093739" lon="12.01056385963827"><ele>471.0</ele><time>2026-04-06T09:08:15.001Z</time></trkpt><trkpt lat="43.93721667431585" lon="12.010544607701329"><ele>471.0</ele><time>2026-04-06T09:08:16.001Z</time></trkpt><trkpt lat="43.93713628009391" lon="12.010552459889718"><ele>471.0</ele><time>2026-04-06T09:08:17.001Z</time></trkpt><trkpt lat="43.93706484319884" lon="12.010534294677502"><ele>471.0</ele><time>2026-04-06T09:08:18.001Z</time></trkpt><trkpt lat="43.936982843198955" lon="12.010521952578232"><ele>471.0</ele><time>2026-04-06T09:08:19.001Z</time></trkpt><trkpt lat="43.936897807691885" lon="12.010517318490791"><ele>471.0</ele><time>2026-04-06T09:08:20.001Z</time></trkpt><trkpt lat="43.936821562450525" lon="12.0105074363141"><ele>471.0</ele><time>2026-04-06T09:08:21.001Z</time></trkpt><trkpt lat="43.936731544252034" lon="12.01048204749959"><ele>473.3333333333333</ele><time>2026-04-06T09:08:22.001Z</time></trkpt><trkpt lat="43.93664075351031" lon="12.010463659993961"><ele>475.66666666666663</ele><time>2026-04-06T09:08:23.001Z</time></trkpt><trkpt lat="43.936562147807145" lon="12.010470595126971"><ele>478.0</ele><time>2026-04-06T09:08:24.001Z</time></trkpt><trkpt lat="43.93648763548824" lon="12.010421930716964"><ele>480.3333333333333</ele><time>2026-04-06T09:08:25.001Z</time></trkpt><trkpt lat="43.936409819379726" lon="12.010385843502245"><ele>482.66666666666663</ele><time>2026-04-06T09:08:26.001Z</time></trkpt><trkpt lat="43.93631795271657" lon="12.01036030424664"><ele>485.0</ele><time>2026-04-06T09:08:27.001Z</time></trkpt><trkpt lat="43.93623921817185" lon="12.01031820007103"><ele>484.99999999999994</ele><time>2026-04-06T09:08:28.001Z</time></trkpt><trkpt lat="43.93617771641578" lon="12.010292196086777"><ele>485.0</ele><time>2026-04-06T09:08:29.001Z</time></trkpt><trkpt lat="43.936089331814664" lon="12.01028850459841"><ele>485.0</ele><time>2026-04-06T09:08:30.001Z</time></trkpt><trkpt lat="43.93598894100835" lon="12.010265868322147"><ele>485.0</ele><time>2026-04-06T09:08:31.001Z</time></trkpt><trkpt lat="43.935888719468394" lon="12.010244237033016"><ele>484.99999999999994</ele><time>2026-04-06T09:08:32.001Z</time></trkpt><trkpt lat="43.935812947697144" lon="12.01020052052643"><ele>485.0</ele><time>2026-04-06T09:08:33.001Z</time></trkpt><trkpt lat="43.93574140670731" lon="12.01013662240099"><ele>484.6</ele><time>2026-04-06T09:08:34.001Z</time></trkpt><trkpt lat="43.935685347204405" lon="12.010073700182328"><ele>484.2</ele><time>2026-04-06T09:08:35.001Z</time></trkpt><trkpt lat="43.93558432410335" lon="12.009982815783781"><ele>483.79999999999995</ele><time>2026-04-06T09:08:37.001Z</time></trkpt><trkpt lat="43.93549426079839" lon="12.010117767809453"><ele>483.4</ele><time>2026-04-06T09:08:39.001Z</time></trkpt><trkpt lat="43.935508909909714" lon="12.010210764161053"><ele>483.0</ele><time>2026-04-06T09:08:40.001Z</time></trkpt><trkpt lat="43.93554696486644" lon="12.010283684902717"><ele>486.0</ele><time>2026-04-06T09:08:41.001Z</time></trkpt><trkpt lat="43.93560240585723" lon="12.010368825526765"><ele>489.0</ele><time>2026-04-06T09:08:42.001Z</time></trkpt><trkpt lat="43.935628167853494" lon="12.010467703942957"><ele>492.0</ele><time>2026-04-06T09:08:43.001Z</time></trkpt><trkpt lat="43.93566995976816" lon="12.010567114551298"><ele>495.0</ele><time>2026-04-06T09:08:44.001Z</time></trkpt><trkpt lat="43.93571374820613" lon="12.010664822534164"><ele>498.0</ele><time>2026-04-06T09:08:45.001Z</time></trkpt><trkpt lat="43.93576545083424" lon="12.01076607440294"><ele>501.0</ele><time>2026-04-06T09:08:46.001Z</time></trkpt><trkpt lat="43.93579763938949" lon="12.010907707721177"><ele>501.20000000000005</ele><time>2026-04-06T09:08:47.001Z</time></trkpt><trkpt lat="43.93582497111177" lon="12.011027039426423"><ele>501.40000000000003</ele><time>2026-04-06T09:08:48.001Z</time></trkpt><trkpt lat="43.93584522162609" lon="12.0111498648976"><ele>501.6</ele><time>2026-04-06T09:08:49.001Z</time></trkpt><trkpt lat="43.93586557817921" lon="12.011288356898406"><ele>501.8</ele><time>2026-04-06T09:08:50.001Z</time></trkpt><trkpt lat="43.93590207848217" lon="12.011436548761564"><ele>502.0</ele><time>2026-04-06T09:08:51.001Z</time></trkpt><trkpt lat="43.935929102320536" lon="12.011579848962487"><ele>503.6666666666667</ele><time>2026-04-06T09:08:52.001Z</time></trkpt><trkpt lat="43.93593329752851" lon="12.01170737838159"><ele>505.33333333333337</ele><time>2026-04-06T09:08:53.001Z</time></trkpt><trkpt lat="43.935941555120884" lon="12.011810965446815"><ele>507.0</ele><time>2026-04-06T09:08:54.001Z</time></trkpt><trkpt lat="43.93594037105402" lon="12.011960511429207"><ele>508.66666666666663</ele><time>2026-04-06T09:08:56.001Z</time></trkpt><trkpt lat="43.935930293746374" lon="12.012056727979315"><ele>510.3333333333333</ele><time>2026-04-06T09:08:58.001Z</time></trkpt><trkpt lat="43.9359178401759" lon="12.012148778070513"><ele>512.0</ele><time>2026-04-06T09:09:01.001Z</time></trkpt><trkpt lat="43.935906872233026" lon="12.012240188986722"><ele>512.0</ele><time>2026-04-06T09:09:08.001Z</time></trkpt><trkpt lat="43.935894467459676" lon="12.012341095537677"><ele>512.0</ele><time>2026-04-06T09:09:11.001Z</time></trkpt><trkpt lat="43.93584859515762" lon="12.01244255035392"><ele>512.0</ele><time>2026-04-06T09:09:14.001Z</time></trkpt><trkpt lat="43.935765956179765" lon="12.012533917309108"><ele>512.0</ele><time>2026-04-06T09:09:16.001Z</time></trkpt><trkpt lat="43.935687353678" lon="12.012638911664379"><ele>512.0</ele><time>2026-04-06T09:09:18.001Z</time></trkpt><trkpt lat="43.935596828857186" lon="12.012727415752344"><ele>517.6666666666666</ele><time>2026-04-06T09:09:20.001Z</time></trkpt><trkpt lat="43.93554801222018" lon="12.01279786257528"><ele>523.3333333333333</ele><time>2026-04-06T09:09:23.001Z</time></trkpt><trkpt lat="43.93550040865745" lon="12.012856062471052"><ele>529.0</ele><time>2026-04-06T09:09:25.001Z</time></trkpt><trkpt lat="43.93545025454663" lon="12.012991264707999"><ele>534.6666666666666</ele><time>2026-04-06T09:09:29.001Z</time></trkpt><trkpt lat="43.93541432116006" lon="12.013075713566465"><ele>540.3333333333334</ele><time>2026-04-06T09:09:47.001Z</time></trkpt><trkpt lat="43.93536259605753" lon="12.013146802272548"><ele>546.0</ele><time>2026-04-06T09:09:57Z</time></trkpt><trkpt lat="43.9352981115367" lon="12.013102241660013"><ele>546.0</ele><time>2026-04-06T09:10:01Z</time></trkpt><trkpt lat="43.935235129907674" lon="12.013017212939962"><ele>546.0</ele><time>2026-04-06T09:10:04Z</time></trkpt><trkpt lat="43.93522590541482" lon="12.012927764966678"><ele>546.0</ele><time>2026-04-06T09:10:11Z</time></trkpt><trkpt lat="43.93518657849258" lon="12.01279654175534"><ele>546.0</ele><time>2026-04-06T09:10:18Z</time></trkpt><trkpt lat="43.93508399210991" lon="12.012710968706296"><ele>546.0</ele><time>2026-04-06T09:10:20Z</time></trkpt><trkpt lat="43.93498239566326" lon="12.012632912573403"><ele>551.5</ele><time>2026-04-06T09:10:22Z</time></trkpt><trkpt lat="43.93489856006635" lon="12.012580677241617"><ele>557.0</ele><time>2026-04-06T09:10:24Z</time></trkpt><trkpt lat="43.93483141896146" lon="12.012611004028384"><ele>562.5</ele><time>2026-04-06T09:10:27Z</time></trkpt><trkpt lat="43.934753040700365" lon="12.01269112257376"><ele>568.0</ele><time>2026-04-06T09:10:29Z</time></trkpt><trkpt lat="43.93473068804284" lon="12.012830419391221"><ele>573.5</ele><time>2026-04-06T09:10:32Z</time></trkpt><trkpt lat="43.93476807047796" lon="12.012916042804388"><ele>579.0</ele><time>2026-04-06T09:10:34Z</time></trkpt><trkpt lat="43.93480228412323" lon="12.013036844678386"><ele>579.0</ele><time>2026-04-06T09:10:36Z</time></trkpt><trkpt lat="43.934816625008814" lon="12.013169151226606"><ele>579.0</ele><time>2026-04-06T09:10:38Z</time></trkpt><trkpt lat="43.934829005990046" lon="12.013278446912242"><ele>579.0</ele><time>2026-04-06T09:10:40Z</time></trkpt><trkpt lat="43.934857886055596" lon="12.013391299971746"><ele>579.0</ele><time>2026-04-06T09:10:45Z</time></trkpt><trkpt lat="43.93488934501704" lon="12.013567263767824"><ele>579.0</ele><time>2026-04-06T09:10:48Z</time></trkpt><trkpt lat="43.934916047813" lon="12.013656566922442"><ele>580.6</ele><time>2026-04-06T09:10:49Z</time></trkpt><trkpt lat="43.93489887115899" lon="12.013779481952554"><ele>582.2</ele><time>2026-04-06T09:10:51Z</time></trkpt><trkpt lat="43.93485659719361" lon="12.013885673018327"><ele>583.8000000000001</ele><time>2026-04-06T09:10:53Z</time></trkpt><trkpt lat="43.934805476088115" lon="12.014018042783663"><ele>585.4</ele><time>2026-04-06T09:10:55Z</time></trkpt><trkpt lat="43.934733512178084" lon="12.014146611506144"><ele>587.0</ele><time>2026-04-06T09:10:57Z</time></trkpt><trkpt lat="43.934705518294166" lon="12.014281722733198"><ele>588.4</ele><time>2026-04-06T09:10:59Z</time></trkpt><trkpt lat="43.93470716382929" lon="12.01437232402866"><ele>589.8000000000001</ele><time>2026-04-06T09:11:00Z</time></trkpt><trkpt lat="43.93471791652882" lon="12.014539539552215"><ele>591.2</ele><time>2026-04-06T09:11:02Z</time></trkpt><trkpt lat="43.934705245212534" lon="12.014696136128293"><ele>592.6</ele><time>2026-04-06T09:11:04Z</time></trkpt><trkpt lat="43.93469192682583" lon="12.014846517900228"><ele>594.0</ele><time>2026-04-06T09:11:06Z</time></trkpt><trkpt lat="43.934666678175724" lon="12.014947392033726"><ele>594.0</ele><time>2026-04-06T09:11:08Z</time></trkpt><trkpt lat="43.934589986202255" lon="12.014968006065022"><ele>594.0</ele><time>2026-04-06T09:11:10Z</time></trkpt><trkpt lat="43.934547348790204" lon="12.01485484805025"><ele>594.0</ele><time>2026-04-06T09:11:13Z</time></trkpt><trkpt lat="43.93449574781939" lon="12.01478010990111"><ele>594.0</ele><time>2026-04-06T09:11:15Z</time></trkpt><trkpt lat="43.9343792122066" lon="12.014732829731932"><ele>594.0</ele><time>2026-04-06T09:11:18Z</time></trkpt><trkpt lat="43.93430563171295" lon="12.01468766559553"><ele>594.0</ele><time>2026-04-06T09:11:20Z</time></trkpt><trkpt lat="43.934216362281596" lon="12.014566385641514"><ele>598.1666666666666</ele><time>2026-04-06T09:11:22Z</time></trkpt><trkpt lat="43.93413622033676" lon="12.014498115002556"><ele>602.3333333333334</ele><time>2026-04-06T09:11:24Z</time></trkpt><trkpt lat="43.93408507892362" lon="12.01443766771754"><ele>606.5</ele><time>2026-04-06T09:11:26Z</time></trkpt><trkpt lat="43.934028915170394" lon="12.014342828873486"><ele>610.6666666666667</ele><time>2026-04-06T09:11:29Z</time></trkpt><trkpt lat="43.93400134708264" lon="12.01425631527903"><ele>614.8333333333334</ele><time>2026-04-06T09:11:31Z</time></trkpt><trkpt lat="43.93392708973814" lon="12.014203600309946"><ele>619.0</ele><time>2026-04-06T09:11:34Z</time></trkpt><trkpt lat="43.93388640531657" lon="12.014112915107628"><ele>619.0</ele><time>2026-04-06T09:11:36Z</time></trkpt><trkpt lat="43.93378728543779" lon="12.014009776847542"><ele>619.0</ele><time>2026-04-06T09:11:38Z</time></trkpt><trkpt lat="43.9337332868846" lon="12.013945048875062"><ele>619.0</ele><time>2026-04-06T09:11:40Z</time></trkpt><trkpt lat="43.933668455318006" lon="12.013860003033663"><ele>619.0</ele><time>2026-04-06T09:11:42Z</time></trkpt><trkpt lat="43.93357152088876" lon="12.01381330499539"><ele>619.0</ele><time>2026-04-06T09:11:44Z</time></trkpt><trkpt lat="43.93349381711901" lon="12.013768490212621"><ele>619.0</ele><time>2026-04-06T09:11:46Z</time></trkpt><trkpt lat="43.93340180437906" lon="12.013687580829558"><ele>619.0</ele><time>2026-04-06T09:11:48Z</time></trkpt><trkpt lat="43.93333425712304" lon="12.013663769227025"><ele>619.0</ele><time>2026-04-06T09:11:49Z</time></trkpt><trkpt lat="43.93327035678022" lon="12.013633871554818"><ele>619.0</ele><time>2026-04-06T09:11:50Z</time></trkpt><trkpt lat="43.93316292149146" lon="12.013563177521515"><ele>619.0</ele><time>2026-04-06T09:11:52Z</time></trkpt><trkpt lat="43.93310758391567" lon="12.013507234863862"><ele>619.0</ele><time>2026-04-06T09:11:53Z</time></trkpt><trkpt lat="43.933035014574735" lon="12.013455758660644"><ele>624.0</ele><time>2026-04-06T09:11:55Z</time></trkpt><trkpt lat="43.93297886300992" lon="12.01340249029983"><ele>629.0</ele><time>2026-04-06T09:11:57Z</time></trkpt><trkpt lat="43.93289670555524" lon="12.01340214023287"><ele>634.0</ele><time>2026-04-06T09:11:59Z</time></trkpt><trkpt lat="43.93281901510903" lon="12.013376612605954"><ele>639.0</ele><time>2026-04-06T09:12:02Z</time></trkpt><trkpt lat="43.93275839151221" lon="12.013456362672706"><ele>644.0</ele><time>2026-04-06T09:12:05Z</time></trkpt><trkpt lat="43.93270765906344" lon="12.01354514067442"><ele>649.0</ele><time>2026-04-06T09:12:07Z</time></trkpt><trkpt lat="43.9326410737009" lon="12.01355886201327"><ele>649.0</ele><time>2026-04-06T09:12:09Z</time></trkpt><trkpt lat="43.932567506663624" lon="12.013617102759195"><ele>649.0</ele><time>2026-04-06T09:12:12Z</time></trkpt><trkpt lat="43.93251639544637" lon="12.013708522684833"><ele>649.0</ele><time>2026-04-06T09:12:15Z</time></trkpt><trkpt lat="43.93241069016795" lon="12.013725681453906"><ele>649.0</ele><time>2026-04-06T09:12:18Z</time></trkpt><trkpt lat="43.932316557670745" lon="12.013675562063147"><ele>649.0</ele><time>2026-04-06T09:12:20Z</time></trkpt><trkpt lat="43.932214587733625" lon="12.013706140195936"><ele>651.5714285714286</ele><time>2026-04-06T09:12:22Z</time></trkpt><trkpt lat="43.93215452339686" lon="12.013744247548628"><ele>654.1428571428571</ele><time>2026-04-06T09:12:27Z</time></trkpt><trkpt lat="43.932082076839976" lon="12.013780371628878"><ele>656.7142857142858</ele><time>2026-04-06T09:12:29Z</time></trkpt><trkpt lat="43.93198307134261" lon="12.013777903046355"><ele>659.2857142857142</ele><time>2026-04-06T09:12:32Z</time></trkpt><trkpt lat="43.93191451414535" lon="12.01380552767033"><ele>661.8571428571429</ele><time>2026-04-06T09:12:36Z</time></trkpt><trkpt lat="43.93184680462768" lon="12.013824511749293"><ele>664.4285714285714</ele><time>2026-04-06T09:12:38Z</time></trkpt><trkpt lat="43.931784549663085" lon="12.013844650562934"><ele>667.0</ele><time>2026-04-06T09:12:40Z</time></trkpt><trkpt lat="43.93171589121812" lon="12.013867023393217"><ele>669.0</ele><time>2026-04-06T09:12:42Z</time></trkpt><trkpt lat="43.93163424363669" lon="12.01391050868344"><ele>671.0</ele><time>2026-04-06T09:12:46Z</time></trkpt><trkpt lat="43.93156631806067" lon="12.01391004172318"><ele>673.0</ele><time>2026-04-06T09:12:48Z</time></trkpt><trkpt lat="43.93146485688904" lon="12.013926316785593"><ele>675.0</ele><time>2026-04-06T09:12:52Z</time></trkpt><trkpt lat="43.93139783231736" lon="12.013924491621003"><ele>677.0</ele><time>2026-04-06T09:12:54Z</time></trkpt><trkpt lat="43.931320490700635" lon="12.013946984223818"><ele>679.0</ele><time>2026-04-06T09:12:56Z</time></trkpt><trkpt lat="43.93123816027712" lon="12.013968659194918"><ele>679.0</ele><time>2026-04-06T09:12:59Z</time></trkpt><trkpt lat="43.93117130057292" lon="12.013980750669573"><ele>679.0</ele><time>2026-04-06T09:13:02Z</time></trkpt><trkpt lat="43.93111153124871" lon="12.014014151190805"><ele>679.0</ele><time>2026-04-06T09:13:03Z</time></trkpt><trkpt lat="43.93105010745246" lon="12.014063805597766"><ele>679.0</ele><time>2026-04-06T09:13:04Z</time></trkpt><trkpt lat="43.93098064261677" lon="12.014166097872957"><ele>679.0</ele><time>2026-04-06T09:13:06Z</time></trkpt><trkpt lat="43.93094250165336" lon="12.014258295863668"><ele>679.0</ele><time>2026-04-06T09:13:08Z</time></trkpt><trkpt lat="43.93084634487855" lon="12.014266018935315"><ele>686.4000000000001</ele><time>2026-04-06T09:13:16Z</time></trkpt><trkpt lat="43.93064713610074" lon="12.014227672601056"><ele>693.8</ele><time>2026-04-06T09:13:20Z</time></trkpt><trkpt lat="43.930569593957095" lon="12.014229576317401"><ele>701.2</ele><time>2026-04-06T09:13:22Z</time></trkpt><trkpt lat="43.930487468115814" lon="12.014247211483431"><ele>708.5999999999999</ele><time>2026-04-06T09:13:24Z</time></trkpt><trkpt lat="43.93043818782276" lon="12.01430407959645"><ele>716.0</ele><time>2026-04-06T09:13:26Z</time></trkpt><trkpt lat="43.93036138054555" lon="12.014425267648406"><ele>716.0</ele><time>2026-04-06T09:13:29Z</time></trkpt><trkpt lat="43.930304884937996" lon="12.014507795164597"><ele>716.0</ele><time>2026-04-06T09:13:30Z</time></trkpt><trkpt lat="43.930246537381656" lon="12.014594067003758"><ele>716.0</ele><time>2026-04-06T09:13:31Z</time></trkpt><trkpt lat="43.93019644718151" lon="12.014671925826864"><ele>716.0</ele><time>2026-04-06T09:13:32Z</time></trkpt><trkpt lat="43.93014059208253" lon="12.014745861814514"><ele>716.0</ele><time>2026-04-06T09:13:33Z</time></trkpt><trkpt lat="43.93008622532992" lon="12.014818216757455"><ele>716.0</ele><time>2026-04-06T09:13:34Z</time></trkpt><trkpt lat="43.93004131373357" lon="12.014895191035187"><ele>716.75</ele><time>2026-04-06T09:13:35Z</time></trkpt><trkpt lat="43.93000141664364" lon="12.01497033515087"><ele>717.5</ele><time>2026-04-06T09:13:36Z</time></trkpt><trkpt lat="43.92996311751197" lon="12.01511281705235"><ele>718.25</ele><time>2026-04-06T09:13:38Z</time></trkpt><trkpt lat="43.929926980143925" lon="12.01531012356615"><ele>719.0</ele><time>2026-04-06T09:13:39Z</time></trkpt><trkpt lat="43.929820927449185" lon="12.015406532288894"><ele>719.0</ele><time>2026-04-06T09:13:41Z</time></trkpt><trkpt lat="43.92974493693839" lon="12.015456992997647"><ele>719.0</ele><time>2026-04-06T09:13:42Z</time></trkpt><trkpt lat="43.92966815758249" lon="12.01553548238279"><ele>719.0</ele><time>2026-04-06T09:13:43Z</time></trkpt><trkpt lat="43.929594149763496" lon="12.015644000279513"><ele>719.0</ele><time>2026-04-06T09:13:44Z</time></trkpt><trkpt lat="43.92954123575093" lon="12.015737726536011"><ele>719.0</ele><time>2026-04-06T09:13:45Z</time></trkpt><trkpt lat="43.92947520979324" lon="12.015829232188016"><ele>719.5</ele><time>2026-04-06T09:13:46Z</time></trkpt><trkpt lat="43.929393314602464" lon="12.015913703950433"><ele>720.0</ele><time>2026-04-06T09:13:47Z</time></trkpt><trkpt lat="43.92932558552088" lon="12.015997487483066"><ele>720.5</ele><time>2026-04-06T09:13:48Z</time></trkpt><trkpt lat="43.92926539862258" lon="12.016041415305809"><ele>721.0</ele><time>2026-04-06T09:13:49Z</time></trkpt><trkpt lat="43.92919635564127" lon="12.016066596888386"><ele>721.5</ele><time>2026-04-06T09:13:50Z</time></trkpt><trkpt lat="43.929124141037654" lon="12.016114925423866"><ele>722.0</ele><time>2026-04-06T09:13:52Z</time></trkpt><trkpt lat="43.92907332715335" lon="12.01618476424349"><ele>722.8</ele><time>2026-04-06T09:14:30Z</time></trkpt><trkpt lat="43.92901502987681" lon="12.016245268004855"><ele>723.6</ele><time>2026-04-06T09:14:32Z</time></trkpt><trkpt lat="43.92895288998264" lon="12.016302281732505"><ele>724.4</ele><time>2026-04-06T09:14:33Z</time></trkpt><trkpt lat="43.928862393847275" lon="12.01635996959947"><ele>725.1999999999999</ele><time>2026-04-06T09:14:34Z</time></trkpt><trkpt lat="43.92874855008865" lon="12.01639297232444"><ele>726.0</ele><time>2026-04-06T09:14:35Z</time></trkpt><trkpt lat="43.928617779314315" lon="12.016374503857454"><ele>726.0</ele><time>2026-04-06T09:14:36Z</time></trkpt><trkpt lat="43.928504096559934" lon="12.016431937380274"><ele>726.0</ele><time>2026-04-06T09:14:37Z</time></trkpt><trkpt lat="43.92841911667499" lon="12.016505094215393"><ele>726.0</ele><time>2026-04-06T09:14:38Z</time></trkpt><trkpt lat="43.92836126570419" lon="12.016572803625873"><ele>726.0</ele><time>2026-04-06T09:14:39Z</time></trkpt><trkpt lat="43.92827702960086" lon="12.016694860252263"><ele>726.0</ele><time>2026-04-06T09:14:41Z</time></trkpt><trkpt lat="43.928234459647165" lon="12.016773362217249"><ele>727.8333333333334</ele><time>2026-04-06T09:14:42Z</time></trkpt><trkpt lat="43.928191452092015" lon="12.016855062873027"><ele>729.6666666666666</ele><time>2026-04-06T09:14:43Z</time></trkpt><trkpt lat="43.92815005141063" lon="12.016939199340062"><ele>731.5</ele><time>2026-04-06T09:14:44Z</time></trkpt><trkpt lat="43.92810420089471" lon="12.017033530188197"><ele>733.3333333333333</ele><time>2026-04-06T09:14:45Z</time></trkpt><trkpt lat="43.92805586931027" lon="12.017143405222576"><ele>735.1666666666666</ele><time>2026-04-06T09:14:46Z</time></trkpt><trkpt lat="43.92800452701324" lon="12.017271159760016"><ele>737.0</ele><time>2026-04-06T09:14:47Z</time></trkpt><trkpt lat="43.92796181860431" lon="12.017413848415103"><ele>736.0</ele><time>2026-04-06T09:14:48Z</time></trkpt><trkpt lat="43.92792452712717" lon="12.017560259578433"><ele>735.0</ele><time>2026-04-06T09:14:49Z</time></trkpt><trkpt lat="43.92788096833561" lon="12.017697666915925"><ele>734.0</ele><time>2026-04-06T09:14:50Z</time></trkpt><trkpt lat="43.927824607781886" lon="12.017831949334532"><ele>733.0</ele><time>2026-04-06T09:14:51Z</time></trkpt><trkpt lat="43.92776264717899" lon="12.017967697413336"><ele>732.0</ele><time>2026-04-06T09:14:52Z</time></trkpt><trkpt lat="43.92769931107136" lon="12.018102458521396"><ele>732.0</ele><time>2026-04-06T09:14:53Z</time></trkpt><trkpt lat="43.92763257357656" lon="12.018241383963163"><ele>732.0</ele><time>2026-04-06T09:14:54Z</time></trkpt><trkpt lat="43.92756589104739" lon="12.018366682525043"><ele>732.0</ele><time>2026-04-06T09:14:55Z</time></trkpt><trkpt lat="43.92748816525478" lon="12.018488579483224"><ele>732.0</ele><time>2026-04-06T09:14:56Z</time></trkpt><trkpt lat="43.92739904421024" lon="12.018602552012627"><ele>736.5</ele><time>2026-04-06T09:14:57Z</time></trkpt><trkpt lat="43.92729654896105" lon="12.018709193580861"><ele>741.0</ele><time>2026-04-06T09:14:58Z</time></trkpt><trkpt lat="43.927197657095874" lon="12.018792485858961"><ele>745.5</ele><time>2026-04-06T09:14:59Z</time></trkpt><trkpt lat="43.92709834841989" lon="12.018847628391063"><ele>750.0</ele><time>2026-04-06T09:15:00Z</time></trkpt><trkpt lat="43.92698976180237" lon="12.018891697775256"><ele>750.0</ele><time>2026-04-06T09:15:01Z</time></trkpt><trkpt lat="43.92687927838704" lon="12.018938963412754"><ele>750.0</ele><time>2026-04-06T09:15:02Z</time></trkpt><trkpt lat="43.92676302663788" lon="12.019016193594288"><ele>750.0</ele><time>2026-04-06T09:15:03Z</time></trkpt><trkpt lat="43.926672771827725" lon="12.019152827958097"><ele>750.0</ele><time>2026-04-06T09:15:04Z</time></trkpt><trkpt lat="43.92659307249211" lon="12.019292286308925"><ele>752.5</ele><time>2026-04-06T09:15:05Z</time></trkpt><trkpt lat="43.92651645346717" lon="12.019431436574791"><ele>755.0</ele><time>2026-04-06T09:15:06Z</time></trkpt><trkpt lat="43.9264196761095" lon="12.019516083015032"><ele>757.5</ele><time>2026-04-06T09:15:07Z</time></trkpt><trkpt lat="43.92631964290286" lon="12.01950750901095"><ele>760.0</ele><time>2026-04-06T09:15:08Z</time></trkpt><trkpt lat="43.926206663032715" lon="12.019471727249817"><ele>760.0</ele><time>2026-04-06T09:15:09Z</time></trkpt><trkpt lat="43.926076171338664" lon="12.019448806616694"><ele>760.0</ele><time>2026-04-06T09:15:10Z</time></trkpt><trkpt lat="43.9259322869933" lon="12.019415769453301"><ele>760.0</ele><time>2026-04-06T09:15:11Z</time></trkpt><trkpt lat="43.92579179697553" lon="12.019373961703817"><ele>760.0</ele><time>2026-04-06T09:15:12Z</time></trkpt><trkpt lat="43.925648973817175" lon="12.019300261079797"><ele>758.6666666666667</ele><time>2026-04-06T09:15:13Z</time></trkpt><trkpt lat="43.925498861167306" lon="12.019215344659465"><ele>757.3333333333334</ele><time>2026-04-06T09:15:14Z</time></trkpt><trkpt lat="43.92535907085858" lon="12.019140538328852"><ele>756.0</ele><time>2026-04-06T09:15:15Z</time></trkpt><trkpt lat="43.925225546458755" lon="12.019093180800386"><ele>756.0</ele><time>2026-04-06T09:15:16Z</time></trkpt><trkpt lat="43.92509191655844" lon="12.019060692517574"><ele>756.0</ele><time>2026-04-06T09:15:17Z</time></trkpt><trkpt lat="43.92495150767657" lon="12.019086295505238"><ele>756.0</ele><time>2026-04-06T09:15:18Z</time></trkpt><trkpt lat="43.92482058329762" lon="12.019058409092294"><ele>756.0</ele><time>2026-04-06T09:15:19Z</time></trkpt><trkpt lat="43.9247112582497" lon="12.018935979647125"><ele>758.5</ele><time>2026-04-06T09:15:20Z</time></trkpt><trkpt lat="43.92458599975445" lon="12.018872976905486"><ele>761.0</ele><time>2026-04-06T09:15:21Z</time></trkpt><trkpt lat="43.92445455780412" lon="12.018814671471096"><ele>763.5</ele><time>2026-04-06T09:15:22Z</time></trkpt><trkpt lat="43.92433435805191" lon="12.018773260298982"><ele>766.0</ele><time>2026-04-06T09:15:23Z</time></trkpt><trkpt lat="43.92424032960877" lon="12.018745706820617"><ele>769.0</ele><time>2026-04-06T09:15:24Z</time></trkpt><trkpt lat="43.924154584925276" lon="12.018722755891437"><ele>772.0</ele><time>2026-04-06T09:15:25Z</time></trkpt><trkpt lat="43.92406567684472" lon="12.018702543575035"><ele>775.0</ele><time>2026-04-06T09:15:26Z</time></trkpt><trkpt lat="43.92397583476517" lon="12.01869074292488"><ele>778.0</ele><time>2026-04-06T09:15:27Z</time></trkpt><trkpt lat="43.923888814417886" lon="12.018693825349134"><ele>780.9999999999999</ele><time>2026-04-06T09:15:28Z</time></trkpt><trkpt lat="43.92379669268535" lon="12.018705964897133"><ele>784.0</ele><time>2026-04-06T09:15:29Z</time></trkpt><trkpt lat="43.92368000522478" lon="12.018717810163897"><ele>784.0</ele><time>2026-04-06T09:15:30Z</time></trkpt><trkpt lat="43.92354798178394" lon="12.018731212228724"><ele>784.0</ele><time>2026-04-06T09:15:31Z</time></trkpt><trkpt lat="43.92339349644039" lon="12.018752043149684"><ele>784.0</ele><time>2026-04-06T09:15:32Z</time></trkpt><trkpt lat="43.92323087581148" lon="12.018784296808507"><ele>786.3333333333333</ele><time>2026-04-06T09:15:33Z</time></trkpt><trkpt lat="43.923070792959436" lon="12.018843639973998"><ele>788.6666666666667</ele><time>2026-04-06T09:15:34Z</time></trkpt><trkpt lat="43.92289273514993" lon="12.018871391939808"><ele>791.0</ele><time>2026-04-06T09:15:35Z</time></trkpt><trkpt lat="43.92273523240744" lon="12.018934072862868"><ele>791.0</ele><time>2026-04-06T09:15:36Z</time></trkpt><trkpt lat="43.92259374719188" lon="12.01894910916828"><ele>791.0</ele><time>2026-04-06T09:15:37Z</time></trkpt><trkpt lat="43.92246031223944" lon="12.018974206463897"><ele>791.0</ele><time>2026-04-06T09:15:38Z</time></trkpt><trkpt lat="43.92233335396597" lon="12.018969039627015"><ele>791.0</ele><time>2026-04-06T09:15:39Z</time></trkpt><trkpt lat="43.92221525383356" lon="12.018931866165785"><ele>791.25</ele><time>2026-04-06T09:15:40Z</time></trkpt><trkpt lat="43.92211497732298" lon="12.018865513118522"><ele>791.5</ele><time>2026-04-06T09:15:41Z</time></trkpt><trkpt lat="43.922018512142024" lon="12.018781335507853"><ele>791.75</ele><time>2026-04-06T09:15:42Z</time></trkpt><trkpt lat="43.921909573372744" lon="12.018672644449243"><ele>792.0</ele><time>2026-04-06T09:15:43Z</time></trkpt><trkpt lat="43.921788279222454" lon="12.018557105931697"><ele>794.25</ele><time>2026-04-06T09:15:44Z</time></trkpt><trkpt lat="43.92165193166595" lon="12.018438136845083"><ele>796.5</ele><time>2026-04-06T09:15:45Z</time></trkpt><trkpt lat="43.92153307119644" lon="12.018352293365018"><ele>798.75</ele><time>2026-04-06T09:15:46Z</time></trkpt><trkpt lat="43.921440065401306" lon="12.018261747851275"><ele>801.0</ele><time>2026-04-06T09:15:47Z</time></trkpt><trkpt lat="43.92137943429391" lon="12.018155859604342"><ele>801.0</ele><time>2026-04-06T09:15:48Z</time></trkpt><trkpt lat="43.921320193691095" lon="12.01806624969398"><ele>801.0</ele><time>2026-04-06T09:15:49Z</time></trkpt><trkpt lat="43.921268746834635" lon="12.017999544927948"><ele>801.0</ele><time>2026-04-06T09:15:50Z</time></trkpt><trkpt lat="43.92114282171066" lon="12.017985600560632"><ele>801.0</ele><time>2026-04-06T09:15:52Z</time></trkpt><trkpt lat="43.921071652757036" lon="12.018026968692414"><ele>801.0</ele><time>2026-04-06T09:15:53Z</time></trkpt><trkpt lat="43.92101419821981" lon="12.018109994582872"><ele>801.0</ele><time>2026-04-06T09:15:54Z</time></trkpt><trkpt lat="43.92094367230179" lon="12.018182751393196"><ele>799.1999999999999</ele><time>2026-04-06T09:15:55Z</time></trkpt><trkpt lat="43.92086172122321" lon="12.018238273407007"><ele>797.4</ele><time>2026-04-06T09:15:56Z</time></trkpt><trkpt lat="43.920767707702595" lon="12.01825907390555"><ele>795.6</ele><time>2026-04-06T09:15:57Z</time></trkpt><trkpt lat="43.92066071727133" lon="12.018285314599522"><ele>793.8</ele><time>2026-04-06T09:15:58Z</time></trkpt><trkpt lat="43.920583205922014" lon="12.018340498620185"><ele>792.0</ele><time>2026-04-06T09:15:59Z</time></trkpt><trkpt lat="43.92053745840656" lon="12.01845589660373"><ele>797.6</ele><time>2026-04-06T09:16:00Z</time></trkpt><trkpt lat="43.92048987018612" lon="12.018569225433335"><ele>803.2</ele><time>2026-04-06T09:16:01Z</time></trkpt><trkpt lat="43.920398867282415" lon="12.018639751062732"><ele>808.8</ele><time>2026-04-06T09:16:02Z</time></trkpt><trkpt lat="43.920295379586186" lon="12.018698073659037"><ele>814.4</ele><time>2026-04-06T09:16:03Z</time></trkpt><trkpt lat="43.92019146953512" lon="12.018775735766521"><ele>820.0</ele><time>2026-04-06T09:16:04Z</time></trkpt><trkpt lat="43.92008716732511" lon="12.01885369096916"><ele>815.5</ele><time>2026-04-06T09:16:05Z</time></trkpt><trkpt lat="43.919973930141644" lon="12.0189389511382"><ele>811.0</ele><time>2026-04-06T09:16:06Z</time></trkpt><trkpt lat="43.919864439289285" lon="12.01902393370438"><ele>806.5</ele><time>2026-04-06T09:16:07Z</time></trkpt><trkpt lat="43.91975727594329" lon="12.019085782762227"><ele>802.0</ele><time>2026-04-06T09:16:08Z</time></trkpt><trkpt lat="43.91963574378545" lon="12.019134568393786"><ele>802.0</ele><time>2026-04-06T09:16:09Z</time></trkpt><trkpt lat="43.91951434457255" lon="12.01914865021998"><ele>802.0</ele><time>2026-04-06T09:16:10Z</time></trkpt><trkpt lat="43.91938284132859" lon="12.01914447093723"><ele>802.0</ele><time>2026-04-06T09:16:11Z</time></trkpt><trkpt lat="43.91924335877037" lon="12.019145730157755"><ele>802.0</ele><time>2026-04-06T09:16:12Z</time></trkpt><trkpt lat="43.919109969984774" lon="12.019151651591248"><ele>805.75</ele><time>2026-04-06T09:16:13Z</time></trkpt><trkpt lat="43.91898610201715" lon="12.019211208137902"><ele>809.5</ele><time>2026-04-06T09:16:14Z</time></trkpt><trkpt lat="43.91886402436985" lon="12.0192210699431"><ele>813.25</ele><time>2026-04-06T09:16:15Z</time></trkpt><trkpt lat="43.91875421147525" lon="12.019249149014906"><ele>817.0</ele><time>2026-04-06T09:16:16Z</time></trkpt><trkpt lat="43.91864653474736" lon="12.019284060588122"><ele>817.0</ele><time>2026-04-06T09:16:17Z</time></trkpt><trkpt lat="43.91853949023074" lon="12.019356387080354"><ele>817.0</ele><time>2026-04-06T09:16:18Z</time></trkpt><trkpt lat="43.91845228232999" lon="12.019472269264833"><ele>817.0</ele><time>2026-04-06T09:16:19Z</time></trkpt><trkpt lat="43.91835470180963" lon="12.01954612794566"><ele>817.0</ele><time>2026-04-06T09:16:20Z</time></trkpt><trkpt lat="43.9182721665444" lon="12.019644262003757"><ele>815.75</ele><time>2026-04-06T09:16:21Z</time></trkpt><trkpt lat="43.91818229008486" lon="12.019730300876502"><ele>814.5</ele><time>2026-04-06T09:16:22Z</time></trkpt><trkpt lat="43.91808314184214" lon="12.01980345768822"><ele>813.25</ele><time>2026-04-06T09:16:23Z</time></trkpt><trkpt lat="43.91797613824014" lon="12.019845578073014"><ele>812.0</ele><time>2026-04-06T09:16:24Z</time></trkpt><trkpt lat="43.91785780827149" lon="12.019865621828451"><ele>812.0</ele><time>2026-04-06T09:16:25Z</time></trkpt><trkpt lat="43.91772791133867" lon="12.019886712374987"><ele>812.0</ele><time>2026-04-06T09:16:26Z</time></trkpt><trkpt lat="43.91759225026182" lon="12.019910138843914"><ele>812.0</ele><time>2026-04-06T09:16:27Z</time></trkpt><trkpt lat="43.917452036831214" lon="12.019934351413887"><ele>812.0</ele><time>2026-04-06T09:16:28Z</time></trkpt><trkpt lat="43.91731682273252" lon="12.01995947459193"><ele>812.5</ele><time>2026-04-06T09:16:29Z</time></trkpt><trkpt lat="43.91717976435425" lon="12.019993396522903"><ele>813.0</ele><time>2026-04-06T09:16:30Z</time></trkpt><trkpt lat="43.917046774615244" lon="12.020039361130321"><ele>813.5</ele><time>2026-04-06T09:16:31Z</time></trkpt><trkpt lat="43.9169033625012" lon="12.020092155697238"><ele>814.0</ele><time>2026-04-06T09:16:32Z</time></trkpt><trkpt lat="43.916769007293354" lon="12.02014705916769"><ele>813.6666666666666</ele><time>2026-04-06T09:16:33Z</time></trkpt><trkpt lat="43.916626959621055" lon="12.020207536648359"><ele>813.3333333333333</ele><time>2026-04-06T09:16:34Z</time></trkpt><trkpt lat="43.91647887368052" lon="12.020262072137946"><ele>813.0</ele><time>2026-04-06T09:16:35Z</time></trkpt><trkpt lat="43.91633111323215" lon="12.020304446987739"><ele>813.0</ele><time>2026-04-06T09:16:36Z</time></trkpt><trkpt lat="43.91619135814537" lon="12.020364686980981"><ele>813.0</ele><time>2026-04-06T09:16:37Z</time></trkpt><trkpt lat="43.91606007452075" lon="12.020427030782313"><ele>813.0</ele><time>2026-04-06T09:16:38Z</time></trkpt><trkpt lat="43.91594622065139" lon="12.020481097597969"><ele>813.0</ele><time>2026-04-06T09:16:39Z</time></trkpt><trkpt lat="43.91585786500531" lon="12.020520617050007"><ele>814.6666666666666</ele><time>2026-04-06T09:16:40Z</time></trkpt><trkpt lat="43.91579015088018" lon="12.020548555164453"><ele>816.3333333333333</ele><time>2026-04-06T09:16:41Z</time></trkpt><trkpt lat="43.91570230787334" lon="12.02052838896764"><ele>818.0</ele><time>2026-04-06T09:16:43Z</time></trkpt><trkpt lat="43.91563194574142" lon="12.020492378865866"><ele>819.6666666666666</ele><time>2026-04-06T09:16:46Z</time></trkpt><trkpt lat="43.915580526427654" lon="12.020404281687277"><ele>821.3333333333333</ele><time>2026-04-06T09:16:48Z</time></trkpt><trkpt lat="43.915487264319445" lon="12.020402240271174"><ele>823.0</ele><time>2026-04-06T09:16:50Z</time></trkpt><trkpt lat="43.91540783860088" lon="12.020405748217335"><ele>823.0</ele><time>2026-04-06T09:16:55Z</time></trkpt><trkpt lat="43.91534249518675" lon="12.020408634196142"><ele>823.0</ele><time>2026-04-06T09:16:57Z</time></trkpt><trkpt lat="43.915250332072" lon="12.020408168732288"><ele>823.0</ele><time>2026-04-06T09:17:00Z</time></trkpt><trkpt lat="43.91519921812034" lon="12.020843505025043"><ele>824.0</ele><time>2026-04-06T09:17:03Z</time></trkpt><trkpt lat="43.91517998943763" lon="12.021022054262566"><ele>825.0</ele><time>2026-04-06T09:17:09Z</time></trkpt><trkpt lat="43.91510376340503" lon="12.021082151332534"><ele>826.0</ele><time>2026-04-06T09:17:11Z</time></trkpt><trkpt lat="43.91503627756309" lon="12.021059985314816"><ele>827.0</ele><time>2026-04-06T09:17:12Z</time></trkpt><trkpt lat="43.914968913995416" lon="12.0210695039115"><ele>828.0</ele><time>2026-04-06T09:17:14Z</time></trkpt><trkpt lat="43.91487234398166" lon="12.02104768449877"><ele>832.8333333333334</ele><time>2026-04-06T09:17:16Z</time></trkpt><trkpt lat="43.914805260226444" lon="12.021067945838883"><ele>837.6666666666667</ele><time>2026-04-06T09:17:17Z</time></trkpt><trkpt lat="43.91473892114404" lon="12.021095550110541"><ele>842.5</ele><time>2026-04-06T09:17:18Z</time></trkpt><trkpt lat="43.9146546423798" lon="12.021161787132465"><ele>847.3333333333334</ele><time>2026-04-06T09:17:20Z</time></trkpt><trkpt lat="43.9145803287125" lon="12.021187786092678"><ele>852.1666666666667</ele><time>2026-04-06T09:17:21Z</time></trkpt><trkpt lat="43.914498716514444" lon="12.021187341793512"><ele>857.0</ele><time>2026-04-06T09:17:22Z</time></trkpt><trkpt lat="43.91441027033102" lon="12.021209451513789"><ele>857.0000000000001</ele><time>2026-04-06T09:17:23Z</time></trkpt><trkpt lat="43.91433145533173" lon="12.021223695988644"><ele>857.0</ele><time>2026-04-06T09:17:24Z</time></trkpt><trkpt lat="43.91425149871906" lon="12.021205503819726"><ele>857.0</ele><time>2026-04-06T09:17:25Z</time></trkpt><trkpt lat="43.91417597966677" lon="12.021198283864996"><ele>857.0</ele><time>2026-04-06T09:17:26Z</time></trkpt><trkpt lat="43.914103316871795" lon="12.021188650671588"><ele>857.0000000000001</ele><time>2026-04-06T09:17:27Z</time></trkpt><trkpt lat="43.91402313883615" lon="12.021166742331022"><ele>857.0</ele><time>2026-04-06T09:17:28Z</time></trkpt><trkpt lat="43.91395338351263" lon="12.02115816862417"><ele>858.0</ele><time>2026-04-06T09:17:29Z</time></trkpt><trkpt lat="43.91388674250502" lon="12.021144099550147"><ele>859.0</ele><time>2026-04-06T09:17:30Z</time></trkpt><trkpt lat="43.91378507728849" lon="12.02109586864291"><ele>860.0</ele><time>2026-04-06T09:17:32Z</time></trkpt><trkpt lat="43.91368565107514" lon="12.021095397683114"><ele>861.0</ele><time>2026-04-06T09:17:34Z</time></trkpt><trkpt lat="43.91357614033814" lon="12.021128073784716"><ele>862.0</ele><time>2026-04-06T09:17:36Z</time></trkpt><trkpt lat="43.91344723584363" lon="12.021130051157575"><ele>863.6</ele><time>2026-04-06T09:17:39Z</time></trkpt><trkpt lat="43.913342126196085" lon="12.021111167846625"><ele>865.2</ele><time>2026-04-06T09:17:41Z</time></trkpt><trkpt lat="43.91324069969315" lon="12.02111534312144"><ele>866.8</ele><time>2026-04-06T09:17:43Z</time></trkpt><trkpt lat="43.9131910222264" lon="12.021216461360014"><ele>868.4</ele><time>2026-04-06T09:17:46Z</time></trkpt><trkpt lat="43.91312156617485" lon="12.021303045495882"><ele>870.0</ele><time>2026-04-06T09:17:48Z</time></trkpt><trkpt lat="43.91301959974326" lon="12.021354929265106"><ele>870.0</ele><time>2026-04-06T09:17:50Z</time></trkpt><trkpt lat="43.9129051459156" lon="12.021439531482017"><ele>870.0</ele><time>2026-04-06T09:17:52Z</time></trkpt><trkpt lat="43.912847336426246" lon="12.021491123062047"><ele>870.0</ele><time>2026-04-06T09:17:53Z</time></trkpt><trkpt lat="43.91280637741536" lon="12.021612719043162"><ele>870.0</ele><time>2026-04-06T09:17:55Z</time></trkpt><trkpt lat="43.91290955081112" lon="12.021714919238448"><ele>870.0</ele><time>2026-04-06T09:17:57Z</time></trkpt><trkpt lat="43.91300323997064" lon="12.021757888423773"><ele>870.6666666666666</ele><time>2026-04-06T09:17:58Z</time></trkpt><trkpt lat="43.91310043407238" lon="12.021791432599105"><ele>871.3333333333333</ele><time>2026-04-06T09:17:59Z</time></trkpt><trkpt lat="43.91317093746465" lon="12.021818191797259"><ele>872.0</ele><time>2026-04-06T09:18:00Z</time></trkpt><trkpt lat="43.91324075740701" lon="12.021875139524235"><ele>872.6666666666666</ele><time>2026-04-06T09:18:01Z</time></trkpt><trkpt lat="43.91329744689064" lon="12.02192651893222"><ele>873.3333333333333</ele><time>2026-04-06T09:18:02Z</time></trkpt><trkpt lat="43.91338170114687" lon="12.02194640130807"><ele>874.0</ele><time>2026-04-06T09:18:04Z</time></trkpt><trkpt lat="43.91345868550041" lon="12.021975430723622"><ele>870.75</ele><time>2026-04-06T09:18:06Z</time></trkpt><trkpt lat="43.91354492570904" lon="12.021996877853512"><ele>867.5</ele><time>2026-04-06T09:18:08Z</time></trkpt><trkpt lat="43.91361812711727" lon="12.021980842413903"><ele>864.25</ele><time>2026-04-06T09:18:10Z</time></trkpt><trkpt lat="43.913695462508116" lon="12.022011961887632"><ele>861.0</ele><time>2026-04-06T09:18:13Z</time></trkpt><trkpt lat="43.91385958250988" lon="12.022188160256505"><ele>861.0</ele><time>2026-04-06T09:18:14Z</time></trkpt><trkpt lat="43.91390973409759" lon="12.02232403306765"><ele>860.9999999999999</ele><time>2026-04-06T09:18:15Z</time></trkpt><trkpt lat="43.91396189737331" lon="12.022454546582727"><ele>860.9999999999999</ele><time>2026-04-06T09:18:16Z</time></trkpt><trkpt lat="43.91401271566369" lon="12.02256178302208"><ele>861.0</ele><time>2026-04-06T09:18:17Z</time></trkpt><trkpt lat="43.914064286873504" lon="12.022672238553282"><ele>861.0</ele><time>2026-04-06T09:18:18Z</time></trkpt><trkpt lat="43.91408118175398" lon="12.022786199626644"><ele>859.5</ele><time>2026-04-06T09:18:19Z</time></trkpt><trkpt lat="43.91407750415821" lon="12.022893155161004"><ele>858.0</ele><time>2026-04-06T09:18:20Z</time></trkpt><trkpt lat="43.91406423310512" lon="12.022991072835913"><ele>856.5</ele><time>2026-04-06T09:18:21Z</time></trkpt><trkpt lat="43.91401045434542" lon="12.023081810923864"><ele>855.0</ele><time>2026-04-06T09:18:23Z</time></trkpt><trkpt lat="43.91396451457884" lon="12.023170447790982"><ele>853.5</ele><time>2026-04-06T09:18:25Z</time></trkpt><trkpt lat="43.91392005370857" lon="12.023263454141688"><ele>852.0</ele><time>2026-04-06T09:18:28Z</time></trkpt><trkpt lat="43.913877142523596" lon="12.023346294762332"><ele>852.0</ele><time>2026-04-06T09:18:38Z</time></trkpt><trkpt lat="43.9139145635047" lon="12.023432423390062"><ele>852.0</ele><time>2026-04-06T09:20:00Z</time></trkpt><trkpt lat="43.91395271991599" lon="12.02352546003701"><ele>852.0</ele><time>2026-04-06T09:20:03Z</time></trkpt><trkpt lat="43.914025213295226" lon="12.023645127328704"><ele>852.0</ele><time>2026-04-06T09:20:05Z</time></trkpt><trkpt lat="43.91408598979038" lon="12.023719721746767"><ele>852.0</ele><time>2026-04-06T09:20:06Z</time></trkpt><trkpt lat="43.91415942298616" lon="12.023800801768502"><ele>852.0</ele><time>2026-04-06T09:20:07Z</time></trkpt><trkpt lat="43.914220557522846" lon="12.023855950303458"><ele>852.6666666666666</ele><time>2026-04-06T09:20:08Z</time></trkpt><trkpt lat="43.91429150132334" lon="12.023941697728867"><ele>853.3333333333333</ele><time>2026-04-06T09:20:09Z</time></trkpt><trkpt lat="43.91433862535288" lon="12.024014965548789"><ele>854.0</ele><time>2026-04-06T09:20:10Z</time></trkpt><trkpt lat="43.91441375610972" lon="12.024060775857658"><ele>854.6666666666666</ele><time>2026-04-06T09:20:11Z</time></trkpt><trkpt lat="43.914480950815346" lon="12.02410659010943"><ele>855.3333333333333</ele><time>2026-04-06T09:20:12Z</time></trkpt><trkpt lat="43.91458181827817" lon="12.024191140773354"><ele>856.0</ele><time>2026-04-06T09:20:14Z</time></trkpt><trkpt lat="43.91465182465728" lon="12.024228562022634"><ele>855.9999999999999</ele><time>2026-04-06T09:20:15Z</time></trkpt><trkpt lat="43.91475390817581" lon="12.02433202857383"><ele>856.0</ele><time>2026-04-06T09:20:17Z</time></trkpt><trkpt lat="43.91480941029522" lon="12.024397409811579"><ele>856.0</ele><time>2026-04-06T09:20:18Z</time></trkpt><trkpt lat="43.91487373442021" lon="12.024462554793692"><ele>856.0</ele><time>2026-04-06T09:20:19Z</time></trkpt><trkpt lat="43.914919953741446" lon="12.024524450566407"><ele>855.9999999999999</ele><time>2026-04-06T09:20:20Z</time></trkpt><trkpt lat="43.91501049445876" lon="12.024586555667033"><ele>856.0</ele><time>2026-04-06T09:20:22Z</time></trkpt><trkpt lat="43.91509965670622" lon="12.024625343317684"><ele>854.4</ele><time>2026-04-06T09:20:24Z</time></trkpt><trkpt lat="43.91519101547785" lon="12.024694710348525"><ele>852.8</ele><time>2026-04-06T09:20:26Z</time></trkpt><trkpt lat="43.91527107134187" lon="12.024800992291771"><ele>851.1999999999999</ele><time>2026-04-06T09:20:28Z</time></trkpt><trkpt lat="43.91535724637603" lon="12.024879139378564"><ele>849.5999999999999</ele><time>2026-04-06T09:20:30Z</time></trkpt><trkpt lat="43.915464523083145" lon="12.024939606822938"><ele>848.0</ele><time>2026-04-06T09:20:32Z</time></trkpt><trkpt lat="43.9155344359065" lon="12.024998238168973"><ele>853.1666666666667</ele><time>2026-04-06T09:20:34Z</time></trkpt><trkpt lat="43.915551545444394" lon="12.025126946002057"><ele>858.3333333333334</ele><time>2026-04-06T09:20:36Z</time></trkpt><trkpt lat="43.915575084342485" lon="12.025212774912971"><ele>863.5</ele><time>2026-04-06T09:20:45Z</time></trkpt><trkpt lat="43.91564388610692" lon="12.025323677995193"><ele>868.6666666666667</ele><time>2026-04-06T09:20:48Z</time></trkpt><trkpt lat="43.91566837918299" lon="12.025415074805256"><ele>873.8333333333334</ele><time>2026-04-06T09:20:50Z</time></trkpt><trkpt lat="43.91572461599026" lon="12.025538053878382"><ele>879.0</ele><time>2026-04-06T09:20:52Z</time></trkpt><trkpt lat="43.91578798202628" lon="12.025670333284003"><ele>878.8333333333334</ele><time>2026-04-06T09:20:54Z</time></trkpt><trkpt lat="43.91578920549947" lon="12.025812116419281"><ele>878.6666666666667</ele><time>2026-04-06T09:20:56Z</time></trkpt><trkpt lat="43.91581028340225" lon="12.02593079011962"><ele>878.5</ele><time>2026-04-06T09:20:58Z</time></trkpt><trkpt lat="43.915843249131335" lon="12.026008702876636"><ele>878.3333333333334</ele><time>2026-04-06T09:21:00Z</time></trkpt><trkpt lat="43.91585988472843" lon="12.026129112520167"><ele>878.1666666666667</ele><time>2026-04-06T09:21:02Z</time></trkpt><trkpt lat="43.91592684567299" lon="12.026172052710683"><ele>878.0</ele><time>2026-04-06T09:21:04Z</time></trkpt><trkpt lat="43.91600129574321" lon="12.026234572057202"><ele>878.1428571428571</ele><time>2026-04-06T09:21:07Z</time></trkpt><trkpt lat="43.916060500871616" lon="12.026297996957558"><ele>878.2857142857142</ele><time>2026-04-06T09:21:09Z</time></trkpt><trkpt lat="43.91611033047321" lon="12.026374586141857"><ele>878.4285714285714</ele><time>2026-04-06T09:21:11Z</time></trkpt><trkpt lat="43.91613976211655" lon="12.026455720118113"><ele>878.5714285714286</ele><time>2026-04-06T09:21:13Z</time></trkpt><trkpt lat="43.91616896437838" lon="12.02657998328416"><ele>878.7142857142858</ele><time>2026-04-06T09:21:15Z</time></trkpt><trkpt lat="43.9161943801701" lon="12.026666357329228"><ele>878.8571428571429</ele><time>2026-04-06T09:21:16Z</time></trkpt><trkpt lat="43.91621937014238" lon="12.026751476933038"><ele>879.0</ele><time>2026-04-06T09:21:17Z</time></trkpt><trkpt lat="43.91623821912894" lon="12.026836049102487"><ele>879.0</ele><time>2026-04-06T09:21:18Z</time></trkpt><trkpt lat="43.91626424436235" lon="12.026994121438367"><ele>879.0000000000001</ele><time>2026-04-06T09:21:20Z</time></trkpt><trkpt lat="43.91633599106767" lon="12.027034578761011"><ele>879.0000000000001</ele><time>2026-04-06T09:21:24Z</time></trkpt><trkpt lat="43.91643973220203" lon="12.027146860784823"><ele>879.0</ele><time>2026-04-06T09:21:27Z</time></trkpt><trkpt lat="43.91648609627396" lon="12.027227613936505"><ele>879.0</ele><time>2026-04-06T09:21:29Z</time></trkpt><trkpt lat="43.91650224543986" lon="12.02736818575518"><ele>877.2</ele><time>2026-04-06T09:21:31Z</time></trkpt><trkpt lat="43.91651248074818" lon="12.02748181291282"><ele>875.4000000000001</ele><time>2026-04-06T09:21:33Z</time></trkpt><trkpt lat="43.91654395822042" lon="12.027604667412692"><ele>873.6</ele><time>2026-04-06T09:21:35Z</time></trkpt><trkpt lat="43.91659007803894" lon="12.027748083096105"><ele>871.8</ele><time>2026-04-06T09:21:37Z</time></trkpt><trkpt lat="43.916662291591045" lon="12.027859040499637"><ele>870.0</ele><time>2026-04-06T09:21:39Z</time></trkpt><trkpt lat="43.91666909630837" lon="12.027958941425974"><ele>870.0</ele><time>2026-04-06T09:21:42Z</time></trkpt><trkpt lat="43.916660596400234" lon="12.028045983355504"><ele>870.0</ele><time>2026-04-06T09:21:44Z</time></trkpt><trkpt lat="43.916627083642496" lon="12.028121656834838"><ele>870.0</ele><time>2026-04-06T09:21:46Z</time></trkpt><trkpt lat="43.91658060955063" lon="12.028258182411752"><ele>870.0</ele><time>2026-04-06T09:21:48Z</time></trkpt><trkpt lat="43.91649630498234" lon="12.02837998844727"><ele>870.0</ele><time>2026-04-06T09:21:50Z</time></trkpt><trkpt lat="43.916517280900855" lon="12.028475976960621"><ele>870.0</ele><time>2026-04-06T09:21:52Z</time></trkpt><trkpt lat="43.91648431103711" lon="12.028558837906019"><ele>868.0</ele><time>2026-04-06T09:21:54Z</time></trkpt><trkpt lat="43.91645325434828" lon="12.028636554776659"><ele>866.0</ele><time>2026-04-06T09:21:55Z</time></trkpt><trkpt lat="43.91645056208794" lon="12.028728044856852"><ele>864.0</ele><time>2026-04-06T09:21:57Z</time></trkpt><trkpt lat="43.916436804675335" lon="12.028827516644542"><ele>862.0</ele><time>2026-04-06T09:21:59Z</time></trkpt><trkpt lat="43.91644309533686" lon="12.028928852501904"><ele>860.0</ele><time>2026-04-06T09:22:01Z</time></trkpt><trkpt lat="43.916468163099594" lon="12.029211097979069"><ele>859.5000000000001</ele><time>2026-04-06T09:22:02Z</time></trkpt><trkpt lat="43.91649682489293" lon="12.029343703110753"><ele>859.0</ele><time>2026-04-06T09:22:04Z</time></trkpt><trkpt lat="43.91644425261554" lon="12.029429127879636"><ele>858.5</ele><time>2026-04-06T09:22:11Z</time></trkpt><trkpt lat="43.91641845996818" lon="12.0295135371224"><ele>858.0</ele><time>2026-04-06T09:22:14Z</time></trkpt><trkpt lat="43.91638737181623" lon="12.029606145756754"><ele>857.5000000000001</ele><time>2026-04-06T09:22:17Z</time></trkpt><trkpt lat="43.916376309001" lon="12.029692262849657"><ele>857.0</ele><time>2026-04-06T09:22:20Z</time></trkpt><trkpt lat="43.91633792012805" lon="12.029826827743436"><ele>857.0</ele><time>2026-04-06T09:22:23Z</time></trkpt><trkpt lat="43.91626453042583" lon="12.029924196585322"><ele>857.0</ele><time>2026-04-06T09:22:25Z</time></trkpt><trkpt lat="43.916239293013284" lon="12.030070848239403"><ele>857.0</ele><time>2026-04-06T09:22:27Z</time></trkpt><trkpt lat="43.91626465839141" lon="12.03022045897272"><ele>857.0</ele><time>2026-04-06T09:22:29Z</time></trkpt><trkpt lat="43.91628764263109" lon="12.030308495078392"><ele>857.0</ele><time>2026-04-06T09:22:30Z</time></trkpt><trkpt lat="43.916317030450614" lon="12.030389038849831"><ele>856.0000000000001</ele><time>2026-04-06T09:22:31Z</time></trkpt><trkpt lat="43.91633805388005" lon="12.030476723688121"><ele>855.0</ele><time>2026-04-06T09:22:32Z</time></trkpt><trkpt lat="43.91635209695299" lon="12.030573888414633"><ele>854.0</ele><time>2026-04-06T09:22:33Z</time></trkpt><trkpt lat="43.91641772747989" lon="12.030647792269843"><ele>853.0</ele><time>2026-04-06T09:22:35Z</time></trkpt><trkpt lat="43.91649620844695" lon="12.030617787510685"><ele>852.0000000000001</ele><time>2026-04-06T09:22:37Z</time></trkpt><trkpt lat="43.916604601046174" lon="12.03054426215156"><ele>851.0</ele><time>2026-04-06T09:22:39Z</time></trkpt><trkpt lat="43.91670996745755" lon="12.030517370629457"><ele>839.0</ele><time>2026-04-06T09:22:41Z</time></trkpt><trkpt lat="43.91406423310512" lon="12.022991072835913"><ele>839.0000000000001</ele><time>2026-04-06T09:18:21Z</time></trkpt><trkpt lat="43.91401045434542" lon="12.023081810923864"><ele>839.0</ele><time>2026-04-06T09:18:23Z</time></trkpt><trkpt lat="43.91396451457884" lon="12.023170447790982"><ele>839.0</ele><time>2026-04-06T09:18:25Z</time></trkpt><trkpt lat="43.91392005370857" lon="12.023263454141688"><ele>839.0</ele><time>2026-04-06T09:18:28Z</time></trkpt><trkpt lat="43.913877142523596" lon="12.023346294762332"><ele>839.0000000000001</ele><time>2026-04-06T09:18:38Z</time></trkpt><trkpt lat="43.9139145635047" lon="12.023432423390062"><ele>839.0</ele><time>2026-04-06T09:20:00Z</time></trkpt><trkpt lat="43.91395271991599" lon="12.02352546003701"><ele>837.0</ele><time>2026-04-06T09:20:03Z</time></trkpt><trkpt lat="43.914025213295226" lon="12.023645127328704"><ele>835.0</ele><time>2026-04-06T09:20:05Z</time></trkpt><trkpt lat="43.91408598979038" lon="12.023719721746767"><ele>833.0</ele><time>2026-04-06T09:20:06Z</time></trkpt><trkpt lat="43.91415942298616" lon="12.023800801768502"><ele>831.0</ele><time>2026-04-06T09:20:07Z</time></trkpt><trkpt lat="43.914220557522846" lon="12.023855950303458"><ele>829.0</ele><time>2026-04-06T09:20:08Z</time></trkpt><trkpt lat="43.91429150132334" lon="12.023941697728867"><ele>828.9999999999999</ele><time>2026-04-06T09:20:09Z</time></trkpt><trkpt lat="43.91433862535288" lon="12.024014965548789"><ele>829.0</ele><time>2026-04-06T09:20:10Z</time></trkpt><trkpt lat="43.91441375610972" lon="12.024060775857658"><ele>829.0</ele><time>2026-04-06T09:20:11Z</time></trkpt><trkpt lat="43.914480950815346" lon="12.02410659010943"><ele>829.0</ele><time>2026-04-06T09:20:12Z</time></trkpt><trkpt lat="43.91458181827817" lon="12.024191140773354"><ele>828.9999999999999</ele><time>2026-04-06T09:20:14Z</time></trkpt><trkpt lat="43.91465182465728" lon="12.024228562022634"><ele>829.0</ele><time>2026-04-06T09:20:15Z</time></trkpt><trkpt lat="43.91475390817581" lon="12.02433202857383"><ele>832.1666666666666</ele><time>2026-04-06T09:20:17Z</time></trkpt><trkpt lat="43.91480941029522" lon="12.024397409811579"><ele>835.3333333333333</ele><time>2026-04-06T09:20:18Z</time></trkpt><trkpt lat="43.91487373442021" lon="12.024462554793692"><ele>838.5</ele><time>2026-04-06T09:20:19Z</time></trkpt><trkpt lat="43.914919953741446" lon="12.024524450566407"><ele>841.6666666666667</ele><time>2026-04-06T09:20:20Z</time></trkpt><trkpt lat="43.91501049445876" lon="12.024586555667033"><ele>844.8333333333334</ele><time>2026-04-06T09:20:22Z</time></trkpt><trkpt lat="43.91509965670622" lon="12.024625343317684"><ele>848.0</ele><time>2026-04-06T09:20:24Z</time></trkpt><trkpt lat="43.91519101547785" lon="12.024694710348525"><ele>848.0</ele><time>2026-04-06T09:20:26Z</time></trkpt><trkpt lat="43.91527107134187" lon="12.024800992291771"><ele>848.0</ele><time>2026-04-06T09:20:28Z</time></trkpt><trkpt lat="43.91535724637603" lon="12.024879139378564"><ele>848.0</ele><time>2026-04-06T09:20:30Z</time></trkpt><trkpt lat="43.915464523083145" lon="12.024939606822938"><ele>848.0</ele><time>2026-04-06T09:20:32Z</time></trkpt><trkpt lat="43.9155344359065" lon="12.024998238168973"><ele>848.0</ele><time>2026-04-06T09:20:34Z</time></trkpt><trkpt lat="43.915551545444394" lon="12.025126946002057"><ele>854.2</ele><time>2026-04-06T09:20:36Z</time></trkpt><trkpt lat="43.915575084342485" lon="12.025212774912971"><ele>860.4</ele><time>2026-04-06T09:20:45Z</time></trkpt><trkpt lat="43.91564388610692" lon="12.025323677995193"><ele>866.6000000000001</ele><time>2026-04-06T09:20:48Z</time></trkpt><trkpt lat="43.91566837918299" lon="12.025415074805256"><ele>872.8000000000001</ele><time>2026-04-06T09:20:50Z</time></trkpt><trkpt lat="43.91572461599026" lon="12.025538053878382"><ele>879.0</ele><time>2026-04-06T09:20:52Z</time></trkpt><trkpt lat="43.91578798202628" lon="12.025670333284003"><ele>878.8333333333334</ele><time>2026-04-06T09:20:54Z</time></trkpt><trkpt lat="43.91578920549947" lon="12.025812116419281"><ele>878.6666666666667</ele><time>2026-04-06T09:20:56Z</time></trkpt><trkpt lat="43.91581028340225" lon="12.02593079011962"><ele>878.5</ele><time>2026-04-06T09:20:58Z</time></trkpt><trkpt lat="43.915843249131335" lon="12.026008702876636"><ele>878.3333333333334</ele><time>2026-04-06T09:21:00Z</time></trkpt><trkpt lat="43.91585988472843" lon="12.026129112520167"><ele>878.1666666666667</ele><time>2026-04-06T09:21:02Z</time></trkpt><trkpt lat="43.91592684567299" lon="12.026172052710683"><ele>878.0</ele><time>2026-04-06T09:21:04Z</time></trkpt><trkpt lat="43.91600129574321" lon="12.026234572057202"><ele>878.1428571428571</ele><time>2026-04-06T09:21:07Z</time></trkpt><trkpt lat="43.916060500871616" lon="12.026297996957558"><ele>878.2857142857142</ele><time>2026-04-06T09:21:09Z</time></trkpt><trkpt lat="43.91611033047321" lon="12.026374586141857"><ele>878.4285714285714</ele><time>2026-04-06T09:21:11Z</time></trkpt><trkpt lat="43.91613976211655" lon="12.026455720118113"><ele>878.5714285714286</ele><time>2026-04-06T09:21:13Z</time></trkpt><trkpt lat="43.91616896437838" lon="12.02657998328416"><ele>878.7142857142858</ele><time>2026-04-06T09:21:15Z</time></trkpt><trkpt lat="43.9161943801701" lon="12.026666357329228"><ele>878.8571428571429</ele><time>2026-04-06T09:21:16Z</time></trkpt><trkpt lat="43.91621937014238" lon="12.026751476933038"><ele>879.0</ele><time>2026-04-06T09:21:17Z</time></trkpt><trkpt lat="43.91623821912894" lon="12.026836049102487"><ele>879.0</ele><time>2026-04-06T09:21:18Z</time></trkpt><trkpt lat="43.91626424436235" lon="12.026994121438367"><ele>879.0000000000001</ele><time>2026-04-06T09:21:20Z</time></trkpt><trkpt lat="43.91633599106767" lon="12.027034578761011"><ele>879.0000000000001</ele><time>2026-04-06T09:21:24Z</time></trkpt><trkpt lat="43.91643973220203" lon="12.027146860784823"><ele>879.0</ele><time>2026-04-06T09:21:27Z</time></trkpt><trkpt lat="43.91648609627396" lon="12.027227613936505"><ele>879.0</ele><time>2026-04-06T09:21:29Z</time></trkpt><trkpt lat="43.91650224543986" lon="12.02736818575518"><ele>877.2</ele><time>2026-04-06T09:21:31Z</time></trkpt><trkpt lat="43.91651248074818" lon="12.02748181291282"><ele>875.4000000000001</ele><time>2026-04-06T09:21:33Z</time></trkpt><trkpt lat="43.91654395822042" lon="12.027604667412692"><ele>873.6</ele><time>2026-04-06T09:21:35Z</time></trkpt><trkpt lat="43.91659007803894" lon="12.027748083096105"><ele>871.8</ele><time>2026-04-06T09:21:37Z</time></trkpt><trkpt lat="43.916662291591045" lon="12.027859040499637"><ele>870.0</ele><time>2026-04-06T09:21:39Z</time></trkpt><trkpt lat="43.91666909630837" lon="12.027958941425974"><ele>870.0</ele><time>2026-04-06T09:21:42Z</time></trkpt><trkpt lat="43.916660596400234" lon="12.028045983355504"><ele>870.0</ele><time>2026-04-06T09:21:44Z</time></trkpt><trkpt lat="43.916627083642496" lon="12.028121656834838"><ele>870.0</ele><time>2026-04-06T09:21:46Z</time></trkpt><trkpt lat="43.91658060955063" lon="12.028258182411752"><ele>870.0</ele><time>2026-04-06T09:21:48Z</time></trkpt><trkpt lat="43.91649630498234" lon="12.02837998844727"><ele>870.0</ele><time>2026-04-06T09:21:50Z</time></trkpt><trkpt lat="43.916517280900855" lon="12.028475976960621"><ele>870.0</ele><time>2026-04-06T09:21:52Z</time></trkpt><trkpt lat="43.91648431103711" lon="12.028558837906019"><ele>868.0</ele><time>2026-04-06T09:21:54Z</time></trkpt><trkpt lat="43.91645325434828" lon="12.028636554776659"><ele>866.0</ele><time>2026-04-06T09:21:55Z</time></trkpt><trkpt lat="43.91645056208794" lon="12.028728044856852"><ele>864.0</ele><time>2026-04-06T09:21:57Z</time></trkpt><trkpt lat="43.916436804675335" lon="12.028827516644542"><ele>862.0</ele><time>2026-04-06T09:21:59Z</time></trkpt><trkpt lat="43.91644309533686" lon="12.028928852501904"><ele>860.0</ele><time>2026-04-06T09:22:01Z</time></trkpt><trkpt lat="43.916468163099594" lon="12.029211097979069"><ele>859.5000000000001</ele><time>2026-04-06T09:22:02Z</time></trkpt><trkpt lat="43.91649682489293" lon="12.029343703110753"><ele>859.0</ele><time>2026-04-06T09:22:04Z</time></trkpt><trkpt lat="43.91644425261554" lon="12.029429127879636"><ele>858.5</ele><time>2026-04-06T09:22:11Z</time></trkpt><trkpt lat="43.91641845996818" lon="12.0295135371224"><ele>858.0</ele><time>2026-04-06T09:22:14Z</time></trkpt><trkpt lat="43.91638737181623" lon="12.029606145756754"><ele>857.5000000000001</ele><time>2026-04-06T09:22:17Z</time></trkpt><trkpt lat="43.916376309001" lon="12.029692262849657"><ele>857.0</ele><time>2026-04-06T09:22:20Z</time></trkpt><trkpt lat="43.91633792012805" lon="12.029826827743436"><ele>857.0</ele><time>2026-04-06T09:22:23Z</time></trkpt><trkpt lat="43.91626453042583" lon="12.029924196585322"><ele>857.0</ele><time>2026-04-06T09:22:25Z</time></trkpt><trkpt lat="43.916239293013284" lon="12.030070848239403"><ele>857.0</ele><time>2026-04-06T09:22:27Z</time></trkpt><trkpt lat="43.91626465839141" lon="12.03022045897272"><ele>857.0</ele><time>2026-04-06T09:22:29Z</time></trkpt><trkpt lat="43.91628764263109" lon="12.030308495078392"><ele>857.0</ele><time>2026-04-06T09:22:30Z</time></trkpt><trkpt lat="43.916317030450614" lon="12.030389038849831"><ele>856.0000000000001</ele><time>2026-04-06T09:22:31Z</time></trkpt><trkpt lat="43.91633805388005" lon="12.030476723688121"><ele>855.0</ele><time>2026-04-06T09:22:32Z</time></trkpt><trkpt lat="43.91635209695299" lon="12.030573888414633"><ele>854.0</ele><time>2026-04-06T09:22:33Z</time></trkpt><trkpt lat="43.91641772747989" lon="12.030647792269843"><ele>853.0</ele><time>2026-04-06T09:22:35Z</time></trkpt><trkpt lat="43.91649620844695" lon="12.030617787510685"><ele>852.0000000000001</ele><time>2026-04-06T09:22:37Z</time></trkpt><trkpt lat="43.916604601046174" lon="12.03054426215156"><ele>851.0</ele><time>2026-04-06T09:22:39Z</time></trkpt><trkpt lat="43.91670996745755" lon="12.030517370629457"><ele>851.8333333333334</ele><time>2026-04-06T09:22:41Z</time></trkpt><trkpt lat="43.91681643614696" lon="12.030488909510442"><ele>852.6666666666667</ele><time>2026-04-06T09:22:43Z</time></trkpt><trkpt lat="43.91688078598145" lon="12.03048998906088"><ele>853.5</ele><time>2026-04-06T09:22:44Z</time></trkpt><trkpt lat="43.91694847861358" lon="12.030498982590737"><ele>854.3333333333333</ele><time>2026-04-06T09:22:45Z</time></trkpt><trkpt lat="43.917016560693874" lon="12.030548216913209"><ele>855.1666666666666</ele><time>2026-04-06T09:22:46Z</time></trkpt><trkpt lat="43.91711948801149" lon="12.030535818950568"><ele>856.0</ele><time>2026-04-06T09:22:48Z</time></trkpt><trkpt lat="43.917208557785166" lon="12.030490891956296"><ele>855.9999999999999</ele><time>2026-04-06T09:22:50Z</time></trkpt><trkpt lat="43.91730238602849" lon="12.030402318481787"><ele>856.0</ele><time>2026-04-06T09:22:53Z</time></trkpt><trkpt lat="43.91736070390386" lon="12.030357494867749"><ele>856.0</ele><time>2026-04-06T09:22:56Z</time></trkpt><trkpt lat="43.917397357604536" lon="12.030275893463886"><ele>856.0</ele><time>2026-04-06T09:23:13Z</time></trkpt><trkpt lat="43.91747627145361" lon="12.030244159559603"><ele>855.9999999999999</ele><time>2026-04-06T09:23:19Z</time></trkpt><trkpt lat="43.91755474253659" lon="12.030247301992803"><ele>856.0</ele><time>2026-04-06T09:23:22Z</time></trkpt><trkpt lat="43.91766845681679" lon="12.030222049949195"><ele>858.8333333333333</ele><time>2026-04-06T09:23:24Z</time></trkpt><trkpt lat="43.917749120589356" lon="12.030222356977108"><ele>861.6666666666666</ele><time>2026-04-06T09:23:25Z</time></trkpt><trkpt lat="43.917822760659774" lon="12.030260152912936"><ele>864.5</ele><time>2026-04-06T09:23:26Z</time></trkpt><trkpt lat="43.91790858485777" lon="12.030334137187111"><ele>867.3333333333333</ele><time>2026-04-06T09:23:27Z</time></trkpt><trkpt lat="43.917986701103594" lon="12.030415060125835"><ele>870.1666666666666</ele><time>2026-04-06T09:23:28Z</time></trkpt><trkpt lat="43.91805490245309" lon="12.030472414012477"><ele>873.0</ele><time>2026-04-06T09:23:29Z</time></trkpt><trkpt lat="43.91809958217812" lon="12.030545813050521"><ele>873.0</ele><time>2026-04-06T09:23:30Z</time></trkpt><trkpt lat="43.91811472412496" lon="12.030646212332401"><ele>873.0</ele><time>2026-04-06T09:23:31Z</time></trkpt><trkpt lat="43.91816163773382" lon="12.03071059423066"><ele>873.0</ele><time>2026-04-06T09:23:32Z</time></trkpt><trkpt lat="43.91824686941951" lon="12.030795884763624"><ele>873.0</ele><time>2026-04-06T09:23:34Z</time></trkpt><trkpt lat="43.918318457192576" lon="12.030863046364594"><ele>873.0</ele><time>2026-04-06T09:23:36Z</time></trkpt><trkpt lat="43.91839457394354" lon="12.030910469560364"><ele>873.0</ele><time>2026-04-06T09:24:35Z</time></trkpt><trkpt lat="43.91846399984013" lon="12.030970500281594"><ele>872.5</ele><time>2026-04-06T09:24:38Z</time></trkpt><trkpt lat="43.918456384371304" lon="12.031080541355363"><ele>872.0</ele><time>2026-04-06T09:24:40Z</time></trkpt><trkpt lat="43.91842004738169" lon="12.031233445985805"><ele>871.5</ele><time>2026-04-06T09:24:43Z</time></trkpt><trkpt lat="43.91845394129156" lon="12.031342479808563"><ele>871.0</ele><time>2026-04-06T09:24:45Z</time></trkpt><trkpt lat="43.91846948303972" lon="12.031455075679858"><ele>870.5</ele><time>2026-04-06T09:24:48Z</time></trkpt><trkpt lat="43.91849672475152" lon="12.031551312253253"><ele>870.0</ele><time>2026-04-06T09:24:50Z</time></trkpt><trkpt lat="43.91851179969931" lon="12.031665194282006"><ele>864.0</ele><time>2026-04-06T09:24:52Z</time></trkpt><trkpt lat="43.91851331746371" lon="12.03180992834166"><ele>858.0</ele><time>2026-04-06T09:24:54Z</time></trkpt><trkpt lat="43.918516354966485" lon="12.031943805940848"><ele>852.0</ele><time>2026-04-06T09:24:56Z</time></trkpt><trkpt lat="43.91859497786357" lon="12.031972704774757"><ele>846.0</ele><time>2026-04-06T09:24:58Z</time></trkpt><trkpt lat="43.91870402777452" lon="12.031955640064341"><ele>840.0</ele><time>2026-04-06T09:25:00Z</time></trkpt><trkpt lat="43.918810027170025" lon="12.031976978260174"><ele>840.0</ele><time>2026-04-06T09:25:02Z</time></trkpt><trkpt lat="43.91889399569512" lon="12.032030665094775"><ele>840.0</ele><time>2026-04-06T09:25:04Z</time></trkpt><trkpt lat="43.91897407792117" lon="12.032043632579404"><ele>840.0</ele><time>2026-04-06T09:25:07Z</time></trkpt><trkpt lat="43.919124633997455" lon="12.032058090841153"><ele>840.0</ele><time>2026-04-06T09:25:08Z</time></trkpt><trkpt lat="43.91923169852627" lon="12.032032703716855"><ele>840.0</ele><time>2026-04-06T09:25:10Z</time></trkpt><trkpt lat="43.91933111742143" lon="12.032030765288699"><ele>840.8333333333334</ele><time>2026-04-06T09:25:12Z</time></trkpt><trkpt lat="43.919408136332" lon="12.03207689798424"><ele>841.6666666666667</ele><time>2026-04-06T09:25:15Z</time></trkpt><trkpt lat="43.91947582669962" lon="12.032091892760103"><ele>842.5</ele><time>2026-04-06T09:25:34Z</time></trkpt><trkpt lat="43.919544542193094" lon="12.032109251594472"><ele>843.3333333333334</ele><time>2026-04-06T09:25:37Z</time></trkpt><trkpt lat="43.919596292597184" lon="12.03218387711059"><ele>844.1666666666667</ele><time>2026-04-06T09:25:39Z</time></trkpt><trkpt lat="43.91967293161006" lon="12.032278673028271"><ele>845.0</ele><time>2026-04-06T09:25:41Z</time></trkpt><trkpt lat="43.919757573808056" lon="12.032346214179068"><ele>845.0</ele><time>2026-04-06T09:25:43Z</time></trkpt><trkpt lat="43.919799157531045" lon="12.03246532282844"><ele>845.0</ele><time>2026-04-06T09:25:45Z</time></trkpt><trkpt lat="43.91983791772825" lon="12.032579693647815"><ele>845.0</ele><time>2026-04-06T09:25:47Z</time></trkpt><trkpt lat="43.91985029199691" lon="12.032676252793344"><ele>845.0</ele><time>2026-04-06T09:25:48Z</time></trkpt><trkpt lat="43.91985110898296" lon="12.03280344988404"><ele>845.0</ele><time>2026-04-06T09:25:50Z</time></trkpt><trkpt lat="43.919864530533864" lon="12.032950391482764"><ele>838.8</ele><time>2026-04-06T09:25:52Z</time></trkpt><trkpt lat="43.91986311415192" lon="12.033080164009496"><ele>832.6</ele><time>2026-04-06T09:25:54Z</time></trkpt><trkpt lat="43.91985528212222" lon="12.033242565012808"><ele>826.4000000000001</ele><time>2026-04-06T09:25:56Z</time></trkpt><trkpt lat="43.919855308723314" lon="12.033358700981806"><ele>820.2</ele><time>2026-04-06T09:25:58Z</time></trkpt><trkpt lat="43.91988907905751" lon="12.033442875691446"><ele>814.0</ele><time>2026-04-06T09:26:02Z</time></trkpt><trkpt lat="43.91993475981104" lon="12.033548076776789"><ele>809.2</ele><time>2026-04-06T09:26:05Z</time></trkpt><trkpt lat="43.91998221218982" lon="12.033652765788235"><ele>804.4000000000001</ele><time>2026-04-06T09:26:07Z</time></trkpt><trkpt lat="43.92005953878801" lon="12.033860213318873"><ele>799.6</ele><time>2026-04-06T09:26:09Z</time></trkpt><trkpt lat="43.920057448950665" lon="12.033963806846597"><ele>794.8</ele><time>2026-04-06T09:26:11Z</time></trkpt><trkpt lat="43.920004379121856" lon="12.034065052834066"><ele>790.0</ele><time>2026-04-06T09:26:13Z</time></trkpt><trkpt lat="43.91997719605217" lon="12.03420379888694"><ele>786.9999999999999</ele><time>2026-04-06T09:26:15Z</time></trkpt><trkpt lat="43.919971580068896" lon="12.034312758806177"><ele>784.0</ele><time>2026-04-06T09:26:16Z</time></trkpt><trkpt lat="43.91995793015639" lon="12.034421902647237"><ele>781.0</ele><time>2026-04-06T09:26:17Z</time></trkpt><trkpt lat="43.91989844576556" lon="12.034546973514958"><ele>778.0</ele><time>2026-04-06T09:26:19Z</time></trkpt><trkpt lat="43.91983214848811" lon="12.034623903664823"><ele>774.9999999999999</ele><time>2026-04-06T09:26:21Z</time></trkpt><trkpt lat="43.91980165513157" lon="12.03474603657788"><ele>772.0</ele><time>2026-04-06T09:26:23Z</time></trkpt><trkpt lat="43.919819542576924" lon="12.034904018269284"><ele>772.0</ele><time>2026-04-06T09:26:25Z</time></trkpt><trkpt lat="43.91979976341937" lon="12.034989065726219"><ele>772.0</ele><time>2026-04-06T09:27:03Z</time></trkpt><trkpt lat="43.91983861092904" lon="12.03506389871903"><ele>772.0</ele><time>2026-04-06T09:27:05Z</time></trkpt><trkpt lat="43.91993599969888" lon="12.03500813600434"><ele>772.0</ele><time>2026-04-06T09:27:07Z</time></trkpt><trkpt lat="43.91998482492879" lon="12.034849248159592"><ele>772.0</ele><time>2026-04-06T09:27:09Z</time></trkpt><trkpt lat="43.92002570417103" lon="12.03470136607556"><ele>770.8</ele><time>2026-04-06T09:27:11Z</time></trkpt><trkpt lat="43.92009033212274" lon="12.034569718690646"><ele>769.6</ele><time>2026-04-06T09:27:13Z</time></trkpt><trkpt lat="43.92017352625284" lon="12.03444451743283"><ele>768.4</ele><time>2026-04-06T09:27:15Z</time></trkpt><trkpt lat="43.92023549861122" lon="12.034331723991851"><ele>767.1999999999999</ele><time>2026-04-06T09:27:17Z</time></trkpt><trkpt lat="43.92031674678207" lon="12.034233124818696"><ele>766.0</ele><time>2026-04-06T09:27:19Z</time></trkpt><trkpt lat="43.920351614969526" lon="12.034119809029818"><ele>766.0</ele><time>2026-04-06T09:27:21Z</time></trkpt><trkpt lat="43.92040818597946" lon="12.034010270446117"><ele>766.0</ele><time>2026-04-06T09:27:23Z</time></trkpt><trkpt lat="43.92042287586564" lon="12.033914141402631"><ele>766.0</ele><time>2026-04-06T09:27:27Z</time></trkpt><trkpt lat="43.920459993340415" lon="12.033836889816307"><ele>766.0</ele><time>2026-04-06T09:27:44Z</time></trkpt><trkpt lat="43.92050259229887" lon="12.033754041472868"><ele>766.0</ele><time>2026-04-06T09:28:06Z</time></trkpt><trkpt lat="43.92055858347293" lon="12.033682731915821"><ele>766.0</ele><time>2026-04-06T09:28:08Z</time></trkpt><trkpt lat="43.92062941994894" lon="12.03365365678585"><ele>766.0</ele><time>2026-04-06T09:28:09Z</time></trkpt><trkpt lat="43.92070473603641" lon="12.033613780717653"><ele>766.0</ele><time>2026-04-06T09:28:10Z</time></trkpt><trkpt lat="43.9207737544946" lon="12.03358492487413"><ele>766.0</ele><time>2026-04-06T09:28:11Z</time></trkpt><trkpt lat="43.92083318685463" lon="12.033529501673707"><ele>766.0</ele><time>2026-04-06T09:28:12Z</time></trkpt><trkpt lat="43.92090875160941" lon="12.033466640770106"><ele>766.0</ele><time>2026-04-06T09:28:13Z</time></trkpt><trkpt lat="43.92097058360893" lon="12.033394949366931"><ele>766.0</ele><time>2026-04-06T09:28:14Z</time></trkpt><trkpt lat="43.92103044357264" lon="12.033308606221125"><ele>766.8333333333334</ele><time>2026-04-06T09:28:15Z</time></trkpt><trkpt lat="43.92109262521619" lon="12.033215672957255"><ele>767.6666666666667</ele><time>2026-04-06T09:28:16Z</time></trkpt><trkpt lat="43.921150609222025" lon="12.03313183450936"><ele>768.5</ele><time>2026-04-06T09:28:17Z</time></trkpt><trkpt lat="43.92117046226006" lon="12.033048314405876"><ele>769.3333333333334</ele><time>2026-04-06T09:28:18Z</time></trkpt><trkpt lat="43.921189062379526" lon="12.03295751122518"><ele>770.1666666666666</ele><time>2026-04-06T09:28:19Z</time></trkpt><trkpt lat="43.9212215371013" lon="12.032877164234849"><ele>771.0</ele><time>2026-04-06T09:28:20Z</time></trkpt><trkpt lat="43.92131742396418" lon="12.032788511825641"><ele>771.0</ele><time>2026-04-06T09:28:22Z</time></trkpt><trkpt lat="43.921431925497" lon="12.03269833162412"><ele>771.0</ele><time>2026-04-06T09:28:24Z</time></trkpt><trkpt lat="43.92149197825573" lon="12.032637984676997"><ele>771.0</ele><time>2026-04-06T09:28:25Z</time></trkpt><trkpt lat="43.92155186904099" lon="12.032603150229038"><ele>771.0</ele><time>2026-04-06T09:28:26Z</time></trkpt><trkpt lat="43.92163910882682" lon="12.032610550453656"><ele>771.0</ele><time>2026-04-06T09:28:28Z</time></trkpt><trkpt lat="43.921696767799446" lon="12.032706017348513"><ele>771.0</ele><time>2026-04-06T09:28:30Z</time></trkpt><trkpt lat="43.9217386617557" lon="12.032779570782093"><ele>766.0</ele><time>2026-04-06T09:28:32Z</time></trkpt><trkpt lat="43.92178790731035" lon="12.032862430146796"><ele>761.0</ele><time>2026-04-06T09:28:35Z</time></trkpt><trkpt lat="43.92183444305344" lon="12.03294358072237"><ele>756.0</ele><time>2026-04-06T09:28:38Z</time></trkpt><trkpt lat="43.92189236998901" lon="12.033004973497992"><ele>751.0</ele><time>2026-04-06T09:28:40Z</time></trkpt><trkpt lat="43.92195530792566" lon="12.033086820108789"><ele>746.0</ele><time>2026-04-06T09:28:43Z</time></trkpt><trkpt lat="43.92200811829733" lon="12.033140218039641"><ele>741.0</ele><time>2026-04-06T09:28:46Z</time></trkpt><trkpt lat="43.92207638747561" lon="12.03318309388197"><ele>741.0</ele><time>2026-04-06T09:29:32Z</time></trkpt><trkpt lat="43.92201938011234" lon="12.03327166423623"><ele>741.0</ele><time>2026-04-06T09:29:39Z</time></trkpt><trkpt lat="43.92195893123878" lon="12.033210957674012"><ele>741.0</ele><time>2026-04-06T09:29:41Z</time></trkpt><trkpt lat="43.92189050502433" lon="12.03315266984233"><ele>741.0</ele><time>2026-04-06T09:29:43Z</time></trkpt><trkpt lat="43.921816692705136" lon="12.033212796285532"><ele>741.0</ele><time>2026-04-06T09:29:46Z</time></trkpt><trkpt lat="43.921809475772775" lon="12.033320065680742"><ele>741.0</ele><time>2026-04-06T09:29:49Z</time></trkpt><trkpt lat="43.92181873505655" lon="12.033426534154573"><ele>740.1666666666666</ele><time>2026-04-06T09:29:53Z</time></trkpt><trkpt lat="43.921831972872596" lon="12.033516941196243"><ele>739.3333333333334</ele><time>2026-04-06T09:29:56Z</time></trkpt><trkpt lat="43.92185168096377" lon="12.033630045766422"><ele>738.5</ele><time>2026-04-06T09:29:59Z</time></trkpt><trkpt lat="43.921830128244224" lon="12.033720545968615"><ele>737.6666666666667</ele><time>2026-04-06T09:30:03Z</time></trkpt><trkpt lat="43.92176795295868" lon="12.033794219875135"><ele>736.8333333333334</ele><time>2026-04-06T09:30:10Z</time></trkpt><trkpt lat="43.92170271524725" lon="12.03385463815485"><ele>736.0</ele><time>2026-04-06T09:30:13Z</time></trkpt><trkpt lat="43.921672588500805" lon="12.03396688410184"><ele>736.0</ele><time>2026-04-06T09:30:16Z</time></trkpt><trkpt lat="43.921616457939706" lon="12.034016555904952"><ele>736.0</ele><time>2026-04-06T09:30:18Z</time></trkpt><trkpt lat="43.921551642775555" lon="12.034030967786888"><ele>736.0</ele><time>2026-04-06T09:30:20Z</time></trkpt><trkpt lat="43.92147766700011" lon="12.034071910455769"><ele>736.0</ele><time>2026-04-06T09:30:23Z</time></trkpt><trkpt lat="43.921407258977254" lon="12.034179689582563"><ele>736.0</ele><time>2026-04-06T09:30:25Z</time></trkpt><trkpt lat="43.921443006022336" lon="12.034297668184829"><ele>736.0</ele><time>2026-04-06T09:30:28Z</time></trkpt><trkpt lat="43.92152246404796" lon="12.0343755388408"><ele>731.6666666666667</ele><time>2026-04-06T09:30:30Z</time></trkpt><trkpt lat="43.92161927298144" lon="12.034430891839223"><ele>727.3333333333334</ele><time>2026-04-06T09:30:32Z</time></trkpt><trkpt lat="43.92168011293629" lon="12.034497935042975"><ele>723.0</ele><time>2026-04-06T09:30:34Z</time></trkpt><trkpt lat="43.92172466724788" lon="12.034581698391582"><ele>718.6666666666666</ele><time>2026-04-06T09:30:37Z</time></trkpt><trkpt lat="43.9217717662102" lon="12.034647538565233"><ele>714.3333333333333</ele><time>2026-04-06T09:30:47Z</time></trkpt><trkpt lat="43.92183643262444" lon="12.034601895101964"><ele>710.0</ele><time>2026-04-06T09:30:52Z</time></trkpt><trkpt lat="43.92189963174488" lon="12.034572209035304"><ele>708.8333333333333</ele><time>2026-04-06T09:30:57Z</time></trkpt><trkpt lat="43.921961538994395" lon="12.0346042928106"><ele>707.6666666666666</ele><time>2026-04-06T09:31:14Z</time></trkpt><trkpt lat="43.92202496469714" lon="12.03464017251787"><ele>706.5</ele><time>2026-04-06T09:31:33Z</time></trkpt><trkpt lat="43.922126196599365" lon="12.034661741824019"><ele>705.3333333333334</ele><time>2026-04-06T09:31:36Z</time></trkpt><trkpt lat="43.92220304826157" lon="12.034676573325221"><ele>704.1666666666667</ele><time>2026-04-06T09:31:39Z</time></trkpt><trkpt lat="43.92228342287943" lon="12.034722704990912"><ele>703.0</ele><time>2026-04-06T09:31:42Z</time></trkpt><trkpt lat="43.92235997612205" lon="12.034804567015211"><ele>703.0</ele><time>2026-04-06T09:31:45Z</time></trkpt><trkpt lat="43.92241440910943" lon="12.034903533153182"><ele>703.0</ele><time>2026-04-06T09:31:48Z</time></trkpt><trkpt lat="43.92247660729363" lon="12.034958754409203"><ele>703.0</ele><time>2026-04-06T09:31:50Z</time></trkpt><trkpt lat="43.92255066798871" lon="12.035008647384004"><ele>703.0</ele><time>2026-04-06T09:32:01Z</time></trkpt><trkpt lat="43.92256616259981" lon="12.035097958220204"><ele>703.0</ele><time>2026-04-06T09:32:05Z</time></trkpt><trkpt lat="43.92255463064754" lon="12.035208960042091"><ele>703.0</ele><time>2026-04-06T09:32:31Z</time></trkpt><trkpt lat="43.92260717085955" lon="12.035310804812879"><ele>695.5</ele><time>2026-04-06T09:32:34Z</time></trkpt><trkpt lat="43.92265437872915" lon="12.035373080161456"><ele>688.0</ele><time>2026-04-06T09:32:36Z</time></trkpt><trkpt lat="43.922695931218435" lon="12.035475987066777"><ele>680.5</ele><time>2026-04-06T09:32:39Z</time></trkpt><trkpt lat="43.92275433610454" lon="12.03557123582465"><ele>673.0</ele><time>2026-04-06T09:32:43Z</time></trkpt><trkpt lat="43.9228008219487" lon="12.035640869130674"><ele>665.5</ele><time>2026-04-06T09:32:46Z</time></trkpt><trkpt lat="43.922884918940014" lon="12.03562880292323"><ele>658.0</ele><time>2026-04-06T09:32:49Z</time></trkpt><trkpt lat="43.922945211951884" lon="12.03558630950696"><ele>658.0</ele><time>2026-04-06T09:32:52Z</time></trkpt><trkpt lat="43.9229956614073" lon="12.035497864298707"><ele>658.0</ele><time>2026-04-06T09:32:55Z</time></trkpt><trkpt lat="43.92298298927493" lon="12.035371901111509"><ele>658.0</ele><time>2026-04-06T09:32:58Z</time></trkpt><trkpt lat="43.92297235218666" lon="12.035248299728142"><ele>658.0</ele><time>2026-04-06T09:33:00Z</time></trkpt><trkpt lat="43.92296354184002" lon="12.035149348114905"><ele>658.0</ele><time>2026-04-06T09:33:02Z</time></trkpt><trkpt lat="43.92296321737899" lon="12.03504962713295"><ele>658.0</ele><time>2026-04-06T09:33:04Z</time></trkpt><trkpt lat="43.92298012143105" lon="12.034926517678592"><ele>659.2</ele><time>2026-04-06T09:33:07Z</time></trkpt><trkpt lat="43.9229909717005" lon="12.034799596850453"><ele>660.4</ele><time>2026-04-06T09:33:10Z</time></trkpt><trkpt lat="43.923029667882965" lon="12.034643671105448"><ele>661.6</ele><time>2026-04-06T09:33:12Z</time></trkpt><trkpt lat="43.92302478659689" lon="12.034521950773355"><ele>662.8000000000001</ele><time>2026-04-06T09:33:15Z</time></trkpt><trkpt lat="43.923075018034524" lon="12.034418225920307"><ele>664.0</ele><time>2026-04-06T09:33:17Z</time></trkpt><trkpt lat="43.923111835344066" lon="12.034306856487582"><ele>664.0</ele><time>2026-04-06T09:33:20Z</time></trkpt><trkpt lat="43.92316673927154" lon="12.03417219410036"><ele>664.0</ele><time>2026-04-06T09:33:22Z</time></trkpt><trkpt lat="43.92319706597773" lon="12.034064449026783"><ele>664.0</ele><time>2026-04-06T09:33:24Z</time></trkpt><trkpt lat="43.923264077709206" lon="12.034034006318306"><ele>664.0</ele><time>2026-04-06T09:33:27Z</time></trkpt><trkpt lat="43.92328616324565" lon="12.034136563527076"><ele>664.0</ele><time>2026-04-06T09:33:30Z</time></trkpt><trkpt lat="43.92329357715215" lon="12.034235231470369"><ele>664.0</ele><time>2026-04-06T09:33:32Z</time></trkpt><trkpt lat="43.92331224709986" lon="12.034354635331333"><ele>664.0</ele><time>2026-04-06T09:33:34Z</time></trkpt><trkpt lat="43.92332886332786" lon="12.034475547286714"><ele>664.0</ele><time>2026-04-06T09:33:36Z</time></trkpt><trkpt lat="43.92334694695966" lon="12.034645741259675"><ele>664.0</ele><time>2026-04-06T09:33:38Z</time></trkpt><trkpt lat="43.92337870885191" lon="12.034805327311464"><ele>664.0</ele><time>2026-04-06T09:33:40Z</time></trkpt><trkpt lat="43.92341126819699" lon="12.034951300774445"><ele>664.0</ele><time>2026-04-06T09:33:42Z</time></trkpt><trkpt lat="43.92344935768134" lon="12.035085416837019"><ele>658.6</ele><time>2026-04-06T09:33:44Z</time></trkpt><trkpt lat="43.92352533664932" lon="12.035201820870915"><ele>653.2</ele><time>2026-04-06T09:33:46Z</time></trkpt><trkpt lat="43.92361698042214" lon="12.03530680389437"><ele>647.8000000000001</ele><time>2026-04-06T09:33:48Z</time></trkpt><trkpt lat="43.92366694259978" lon="12.035360410584296"><ele>642.4000000000001</ele><time>2026-04-06T09:33:49Z</time></trkpt><trkpt lat="43.923719480319534" lon="12.0354155809811"><ele>637.0</ele><time>2026-04-06T09:33:50Z</time></trkpt><trkpt lat="43.92380887267622" lon="12.035538551208491"><ele>637.0</ele><time>2026-04-06T09:33:52Z</time></trkpt><trkpt lat="43.923858183367365" lon="12.035595228445024"><ele>637.0</ele><time>2026-04-06T09:33:53Z</time></trkpt><trkpt lat="43.92395248430662" lon="12.035685714112482"><ele>637.0</ele><time>2026-04-06T09:33:55Z</time></trkpt><trkpt lat="43.924016154330005" lon="12.035721548998366"><ele>637.0</ele><time>2026-04-06T09:33:57Z</time></trkpt><trkpt lat="43.92408464738054" lon="12.035773198454324"><ele>637.0</ele><time>2026-04-06T09:33:59Z</time></trkpt><trkpt lat="43.92415344256288" lon="12.035776416415638"><ele>637.0</ele><time>2026-04-06T09:34:01Z</time></trkpt><trkpt lat="43.92421369674267" lon="12.035825477478626"><ele>637.0</ele><time>2026-04-06T09:34:04Z</time></trkpt><trkpt lat="43.92423467337612" lon="12.035954160146737"><ele>637.0</ele><time>2026-04-06T09:34:06Z</time></trkpt><trkpt lat="43.924288426469545" lon="12.036088639934608"><ele>637.0</ele><time>2026-04-06T09:34:08Z</time></trkpt><trkpt lat="43.92432562954225" lon="12.036264099354973"><ele>637.0</ele><time>2026-04-06T09:34:10Z</time></trkpt><trkpt lat="43.92435843021717" lon="12.036339997471154"><ele>637.0</ele><time>2026-04-06T09:34:11Z</time></trkpt><trkpt lat="43.924461245617124" lon="12.036456113473086"><ele>637.0</ele><time>2026-04-06T09:34:13Z</time></trkpt><trkpt lat="43.92450645528249" lon="12.036536098548668"><ele>637.0</ele><time>2026-04-06T09:34:14Z</time></trkpt><trkpt lat="43.924534338266376" lon="12.03666338277135"><ele>637.0</ele><time>2026-04-06T09:34:15Z</time></trkpt><trkpt lat="43.92453065522756" lon="12.036781481415161"><ele>637.0</ele><time>2026-04-06T09:34:16Z</time></trkpt><trkpt lat="43.924514043566504" lon="12.03690215440861"><ele>637.0</ele><time>2026-04-06T09:34:17Z</time></trkpt><trkpt lat="43.92450593430528" lon="12.03701740959766"><ele>637.0</ele><time>2026-04-06T09:34:18Z</time></trkpt><trkpt lat="43.924511049440724" lon="12.037120688683878"><ele>634.6666666666667</ele><time>2026-04-06T09:34:19Z</time></trkpt><trkpt lat="43.924539150793144" lon="12.037222306514435"><ele>632.3333333333334</ele><time>2026-04-06T09:34:20Z</time></trkpt><trkpt lat="43.92457738138151" lon="12.037324961553376"><ele>630.0</ele><time>2026-04-06T09:34:21Z</time></trkpt><trkpt lat="43.924613722409305" lon="12.037424368075365"><ele>627.6666666666666</ele><time>2026-04-06T09:34:22Z</time></trkpt><trkpt lat="43.92465220056175" lon="12.037531706620765"><ele>625.3333333333333</ele><time>2026-04-06T09:34:23Z</time></trkpt><trkpt lat="43.92470059217855" lon="12.037635152083514"><ele>623.0</ele><time>2026-04-06T09:34:24Z</time></trkpt><trkpt lat="43.924759588384326" lon="12.037711677649002"><ele>619.5</ele><time>2026-04-06T09:34:25Z</time></trkpt><trkpt lat="43.92482410954844" lon="12.037746750580006"><ele>616.0</ele><time>2026-04-06T09:34:26Z</time></trkpt><trkpt lat="43.92490486453632" lon="12.037735443133188"><ele>612.5</ele><time>2026-04-06T09:34:27Z</time></trkpt><trkpt lat="43.92498445743636" lon="12.037748805878799"><ele>609.0</ele><time>2026-04-06T09:34:28Z</time></trkpt><trkpt lat="43.925034649478775" lon="12.037814104395496"><ele>605.5</ele><time>2026-04-06T09:34:29Z</time></trkpt><trkpt lat="43.92504246121114" lon="12.037983349271622"><ele>602.0</ele><time>2026-04-06T09:34:31Z</time></trkpt><trkpt lat="43.92503299909526" lon="12.03815651316534"><ele>600.6666666666666</ele><time>2026-04-06T09:34:33Z</time></trkpt><trkpt lat="43.925077872374" lon="12.038259331474265"><ele>599.3333333333333</ele><time>2026-04-06T09:34:34Z</time></trkpt><trkpt lat="43.92513441998302" lon="12.038354786526535"><ele>598.0</ele><time>2026-04-06T09:34:35Z</time></trkpt><trkpt lat="43.92518776335115" lon="12.038452231780996"><ele>596.6666666666666</ele><time>2026-04-06T09:34:36Z</time></trkpt><trkpt lat="43.92522404039313" lon="12.03855222234041"><ele>595.3333333333334</ele><time>2026-04-06T09:34:37Z</time></trkpt><trkpt lat="43.925270473513564" lon="12.038654694461723"><ele>594.0</ele><time>2026-04-06T09:34:38Z</time></trkpt><trkpt lat="43.92531926247555" lon="12.03874749755268"><ele>594.0</ele><time>2026-04-06T09:34:39Z</time></trkpt><trkpt lat="43.92536927282288" lon="12.038824808416665"><ele>594.0</ele><time>2026-04-06T09:34:40Z</time></trkpt><trkpt lat="43.92541532811805" lon="12.038896915260818"><ele>594.0</ele><time>2026-04-06T09:34:41Z</time></trkpt><trkpt lat="43.92548438469601" lon="12.038952979653907"><ele>594.0</ele><time>2026-04-06T09:34:42Z</time></trkpt><trkpt lat="43.92557268968694" lon="12.038972280618106"><ele>594.0</ele><time>2026-04-06T09:34:43Z</time></trkpt><trkpt lat="43.92566222058542" lon="12.038984968749608"><ele>594.0</ele><time>2026-04-06T09:34:44Z</time></trkpt><trkpt lat="43.9257495097465" lon="12.038979543349374"><ele>594.0</ele><time>2026-04-06T09:34:45Z</time></trkpt><trkpt lat="43.92584467759397" lon="12.039008682690227"><ele>594.0</ele><time>2026-04-06T09:34:46Z</time></trkpt><trkpt lat="43.92594283902741" lon="12.039056946510685"><ele>594.0</ele><time>2026-04-06T09:34:47Z</time></trkpt><trkpt lat="43.926028826337905" lon="12.039077264423783"><ele>594.0</ele><time>2026-04-06T09:34:48Z</time></trkpt><trkpt lat="43.92610504494452" lon="12.039072742577915"><ele>594.0</ele><time>2026-04-06T09:34:49Z</time></trkpt><trkpt lat="43.92617595726582" lon="12.039043266129974"><ele>594.0</ele><time>2026-04-06T09:34:50Z</time></trkpt><trkpt lat="43.926249778930234" lon="12.038996681910728"><ele>589.6666666666666</ele><time>2026-04-06T09:34:51Z</time></trkpt><trkpt lat="43.926316502752314" lon="12.039004166276461"><ele>585.3333333333334</ele><time>2026-04-06T09:34:52Z</time></trkpt><trkpt lat="43.92633136023684" lon="12.039116921195832"><ele>581.0</ele><time>2026-04-06T09:34:54Z</time></trkpt><trkpt lat="43.926187049780275" lon="12.039166223948236"><ele>576.6666666666667</ele><time>2026-04-06T09:34:56Z</time></trkpt><trkpt lat="43.92611095097109" lon="12.039166774294289"><ele>572.3333333333334</ele><time>2026-04-06T09:34:57Z</time></trkpt><trkpt lat="43.92604952488142" lon="12.03922598442373"><ele>568.0</ele><time>2026-04-06T09:34:58Z</time></trkpt><trkpt lat="43.92598179635906" lon="12.039319065186852"><ele>568.1666666666667</ele><time>2026-04-06T09:34:59Z</time></trkpt><trkpt lat="43.92590616811709" lon="12.039349948736794"><ele>568.3333333333334</ele><time>2026-04-06T09:35:00Z</time></trkpt><trkpt lat="43.92583135438432" lon="12.039371968069991"><ele>568.5</ele><time>2026-04-06T09:35:01Z</time></trkpt><trkpt lat="43.92574656051774" lon="12.039439118994533"><ele>568.6666666666666</ele><time>2026-04-06T09:35:03Z</time></trkpt><trkpt lat="43.92579613564999" lon="12.039530818158191"><ele>568.8333333333333</ele><time>2026-04-06T09:35:05Z</time></trkpt><trkpt lat="43.9258837993395" lon="12.039576988248564"><ele>569.0</ele><time>2026-04-06T09:35:07Z</time></trkpt><trkpt lat="43.9259767552251" lon="12.039682279745968"><ele>567.4</ele><time>2026-04-06T09:35:09Z</time></trkpt><trkpt lat="43.92603184470493" lon="12.039871826741955"><ele>565.8</ele><time>2026-04-06T09:35:11Z</time></trkpt><trkpt lat="43.926057605138446" lon="12.039987857184958"><ele>564.2</ele><time>2026-04-06T09:35:12Z</time></trkpt><trkpt lat="43.92609182504561" lon="12.040094545705927"><ele>562.6</ele><time>2026-04-06T09:35:13Z</time></trkpt><trkpt lat="43.92613782047649" lon="12.040210920652937"><ele>561.0</ele><time>2026-04-06T09:35:14Z</time></trkpt><trkpt lat="43.92620250446206" lon="12.040302868147304"><ele>561.0</ele><time>2026-04-06T09:35:15Z</time></trkpt><trkpt lat="43.92628107179661" lon="12.040372772996776"><ele>561.0</ele><time>2026-04-06T09:35:16Z</time></trkpt><trkpt lat="43.9263642777959" lon="12.040416186066686"><ele>561.0</ele><time>2026-04-06T09:35:17Z</time></trkpt><trkpt lat="43.92645090049962" lon="12.040431440921704"><ele>561.0</ele><time>2026-04-06T09:35:18Z</time></trkpt><trkpt lat="43.92651952969566" lon="12.04042694515341"><ele>561.0</ele><time>2026-04-06T09:35:19Z</time></trkpt><trkpt lat="43.92659216687077" lon="12.040426973576482"><ele>561.0</ele><time>2026-04-06T09:35:20Z</time></trkpt><trkpt lat="43.92665287868067" lon="12.040463012278176"><ele>561.0</ele><time>2026-04-06T09:35:21Z</time></trkpt><trkpt lat="43.92668394292123" lon="12.040540611388254"><ele>561.0</ele><time>2026-04-06T09:35:22Z</time></trkpt><trkpt lat="43.9266660095244" lon="12.04068517706251"><ele>561.0</ele><time>2026-04-06T09:35:24Z</time></trkpt><trkpt lat="43.926615120200374" lon="12.040780640181733"><ele>561.0</ele><time>2026-04-06T09:35:26Z</time></trkpt><trkpt lat="43.926571570627914" lon="12.040896730744965"><ele>561.0</ele><time>2026-04-06T09:35:28Z</time></trkpt><trkpt lat="43.92654195459574" lon="12.041007005031652"><ele>561.0</ele><time>2026-04-06T09:35:30Z</time></trkpt><trkpt lat="43.92664306861725" lon="12.040996193824894"><ele>565.75</ele><time>2026-04-06T09:35:33Z</time></trkpt><trkpt lat="43.92674411568227" lon="12.040966378917007"><ele>570.5</ele><time>2026-04-06T09:35:35Z</time></trkpt><trkpt lat="43.926833103385114" lon="12.040952413341207"><ele>575.25</ele><time>2026-04-06T09:35:38Z</time></trkpt><trkpt lat="43.92703512384544" lon="12.04101783062958"><ele>580.0</ele><time>2026-04-06T09:35:40Z</time></trkpt><trkpt lat="43.9271205901547" lon="12.041063170270476"><ele>580.0</ele><time>2026-04-06T09:35:41Z</time></trkpt><trkpt lat="43.9272063924572" lon="12.04110803033012"><ele>580.0</ele><time>2026-04-06T09:35:42Z</time></trkpt><trkpt lat="43.9272960231308" lon="12.041141255939761"><ele>580.0</ele><time>2026-04-06T09:35:43Z</time></trkpt><trkpt lat="43.927399828743745" lon="12.041150327975972"><ele>580.0</ele><time>2026-04-06T09:35:44Z</time></trkpt><trkpt lat="43.927515183970314" lon="12.041144010970495"><ele>580.0</ele><time>2026-04-06T09:35:45Z</time></trkpt><trkpt lat="43.92764654399402" lon="12.041145717737846"><ele>583.0</ele><time>2026-04-06T09:35:46Z</time></trkpt><trkpt lat="43.927747779762264" lon="12.041141789060761"><ele>586.0</ele><time>2026-04-06T09:35:47Z</time></trkpt><trkpt lat="43.92783208144452" lon="12.041098034814707"><ele>589.0</ele><time>2026-04-06T09:35:48Z</time></trkpt><trkpt lat="43.92790842269145" lon="12.041080618679535"><ele>592.0</ele><time>2026-04-06T09:35:49Z</time></trkpt><trkpt lat="43.927987510265986" lon="12.041084762632169"><ele>595.0</ele><time>2026-04-06T09:35:50Z</time></trkpt><trkpt lat="43.928059792648476" lon="12.04109551112806"><ele>598.0</ele><time>2026-04-06T09:35:51Z</time></trkpt><trkpt lat="43.92813120961087" lon="12.041119969001079"><ele>598.0</ele><time>2026-04-06T09:35:52Z</time></trkpt><trkpt lat="43.9281049551618" lon="12.041214529402083"><ele>598.0</ele><time>2026-04-06T09:35:55Z</time></trkpt><trkpt lat="43.92800238872766" lon="12.041340917175665"><ele>598.0</ele><time>2026-04-06T09:35:57Z</time></trkpt><trkpt lat="43.92795214805469" lon="12.041416901415504"><ele>598.0</ele><time>2026-04-06T09:35:58Z</time></trkpt><trkpt lat="43.927874421468935" lon="12.041519559054485"><ele>598.0</ele><time>2026-04-06T09:35:59Z</time></trkpt><trkpt lat="43.92781993735144" lon="12.04162154780083"><ele>598.4</ele><time>2026-04-06T09:36:00Z</time></trkpt><trkpt lat="43.927756399857074" lon="12.041720803031511"><ele>598.8</ele><time>2026-04-06T09:36:01Z</time></trkpt><trkpt lat="43.92768027922938" lon="12.04181170171167"><ele>599.2</ele><time>2026-04-06T09:36:02Z</time></trkpt><trkpt lat="43.927610912051406" lon="12.041895595880815"><ele>599.6</ele><time>2026-04-06T09:36:03Z</time></trkpt><trkpt lat="43.92756049934923" lon="12.041995296168924"><ele>600.0</ele><time>2026-04-06T09:36:04Z</time></trkpt><trkpt lat="43.92751057614349" lon="12.042104604563093"><ele>600.0</ele><time>2026-04-06T09:36:05Z</time></trkpt><trkpt lat="43.9274370116601" lon="12.04220729166892"><ele>600.0</ele><time>2026-04-06T09:36:06Z</time></trkpt><trkpt lat="43.92737038116971" lon="12.0423025113164"><ele>600.0</ele><time>2026-04-06T09:36:07Z</time></trkpt><trkpt lat="43.92731829099074" lon="12.042398135761992"><ele>600.0</ele><time>2026-04-06T09:36:08Z</time></trkpt><trkpt lat="43.927287723716475" lon="12.04250792154598"><ele>600.0</ele><time>2026-04-06T09:36:09Z</time></trkpt><trkpt lat="43.92728277070143" lon="12.042644248868845"><ele>603.4</ele><time>2026-04-06T09:36:10Z</time></trkpt><trkpt lat="43.92731541658497" lon="12.042784877588192"><ele>606.8</ele><time>2026-04-06T09:36:11Z</time></trkpt><trkpt lat="43.92733759309036" lon="12.04292175124606"><ele>610.2</ele><time>2026-04-06T09:36:12Z</time></trkpt><trkpt lat="43.92734486321846" lon="12.043056473124556"><ele>613.6</ele><time>2026-04-06T09:36:13Z</time></trkpt><trkpt lat="43.927359101957485" lon="12.04318948125339"><ele>617.0</ele><time>2026-04-06T09:36:14Z</time></trkpt><trkpt lat="43.92739169557948" lon="12.04332095006656"><ele>620.25</ele><time>2026-04-06T09:36:15Z</time></trkpt><trkpt lat="43.9274408616385" lon="12.043459552717424"><ele>623.5</ele><time>2026-04-06T09:36:16Z</time></trkpt><trkpt lat="43.9274433918323" lon="12.043579760691962"><ele>626.75</ele><time>2026-04-06T09:36:17Z</time></trkpt><trkpt lat="43.92740469466415" lon="12.04372859222166"><ele>630.0</ele><time>2026-04-06T09:36:18Z</time></trkpt><trkpt lat="43.927347693562716" lon="12.043918344604133"><ele>630.0</ele><time>2026-04-06T09:36:19Z</time></trkpt><trkpt lat="43.9272905188131" lon="12.04409527519182"><ele>630.0</ele><time>2026-04-06T09:36:20Z</time></trkpt><trkpt lat="43.92722538272888" lon="12.044252212255328"><ele>630.0</ele><time>2026-04-06T09:36:21Z</time></trkpt><trkpt lat="43.92718624496651" lon="12.044358574545017"><ele>630.0</ele><time>2026-04-06T09:36:22Z</time></trkpt><trkpt lat="43.92714331720178" lon="12.044427879179834"><ele>630.0</ele><time>2026-04-06T09:36:23Z</time></trkpt><trkpt lat="43.9270383806422" lon="12.044401544733576"><ele>628.2</ele><time>2026-04-06T09:36:25Z</time></trkpt><trkpt lat="43.926991459604665" lon="12.044320061114604"><ele>626.4</ele><time>2026-04-06T09:36:26Z</time></trkpt><trkpt lat="43.92693202363036" lon="12.044225277419688"><ele>624.6</ele><time>2026-04-06T09:36:27Z</time></trkpt><trkpt lat="43.92682311093244" lon="12.044173854765642"><ele>622.8</ele><time>2026-04-06T09:36:29Z</time></trkpt><trkpt lat="43.92667676081192" lon="12.044077423386469"><ele>621.0</ele><time>2026-04-06T09:36:30Z</time></trkpt><trkpt lat="43.92655217263426" lon="12.044040215957486"><ele>621.0</ele><time>2026-04-06T09:36:31Z</time></trkpt><trkpt lat="43.926445555080115" lon="12.04393827181334"><ele>621.0</ele><time>2026-04-06T09:36:32Z</time></trkpt><trkpt lat="43.926357325963" lon="12.043804103527892"><ele>621.0</ele><time>2026-04-06T09:36:33Z</time></trkpt><trkpt lat="43.92631727530749" lon="12.043621757263757"><ele>621.0</ele><time>2026-04-06T09:36:34Z</time></trkpt><trkpt lat="43.92629083534234" lon="12.043499511570454"><ele>621.0</ele><time>2026-04-06T09:36:35Z</time></trkpt><trkpt lat="43.92615185455898" lon="12.043498046437435"><ele>621.0</ele><time>2026-04-06T09:36:37Z</time></trkpt><trkpt lat="43.926065672384084" lon="12.043594462053882"><ele>621.0</ele><time>2026-04-06T09:36:38Z</time></trkpt><trkpt lat="43.92597129230348" lon="12.043737780423866"><ele>621.0</ele><time>2026-04-06T09:36:39Z</time></trkpt><trkpt lat="43.92584534113007" lon="12.04386286499781"><ele>623.25</ele><time>2026-04-06T09:36:40Z</time></trkpt><trkpt lat="43.92572491128334" lon="12.04394168609661"><ele>625.5</ele><time>2026-04-06T09:36:41Z</time></trkpt><trkpt lat="43.92561955992834" lon="12.044003697749742"><ele>627.75</ele><time>2026-04-06T09:36:42Z</time></trkpt><trkpt lat="43.925524095119926" lon="12.044081283887477"><ele>630.0</ele><time>2026-04-06T09:36:43Z</time></trkpt><trkpt lat="43.92544558542748" lon="12.044162642388029"><ele>630.0</ele><time>2026-04-06T09:36:44Z</time></trkpt><trkpt lat="43.925378929969376" lon="12.044219832930173"><ele>630.0</ele><time>2026-04-06T09:36:45Z</time></trkpt><trkpt lat="43.9252870701738" lon="12.04424274340388"><ele>630.0</ele><time>2026-04-06T09:36:47Z</time></trkpt><trkpt lat="43.92524302729773" lon="12.044160626011527"><ele>630.0</ele><time>2026-04-06T09:36:49Z</time></trkpt><trkpt lat="43.925259418505235" lon="12.044020529682552"><ele>630.0</ele><time>2026-04-06T09:36:51Z</time></trkpt><trkpt lat="43.925268646682234" lon="12.04393354325978"><ele>630.0</ele><time>2026-04-06T09:36:52Z</time></trkpt><trkpt lat="43.925270432338515" lon="12.043835387454049"><ele>630.0</ele><time>2026-04-06T09:36:53Z</time></trkpt><trkpt lat="43.9252482516548" lon="12.043662417082505"><ele>630.0</ele><time>2026-04-06T09:36:54Z</time></trkpt><trkpt lat="43.92521227321396" lon="12.043497050735299"><ele>630.0</ele><time>2026-04-06T09:36:55Z</time></trkpt><trkpt lat="43.92514870436602" lon="12.043354295216878"><ele>630.0</ele><time>2026-04-06T09:36:56Z</time></trkpt><trkpt lat="43.92509343191884" lon="12.043256240504496"><ele>629.4</ele><time>2026-04-06T09:36:57Z</time></trkpt><trkpt lat="43.92503898118567" lon="12.043154850772417"><ele>628.8</ele><time>2026-04-06T09:36:58Z</time></trkpt><trkpt lat="43.924987099257145" lon="12.043061776385999"><ele>628.2</ele><time>2026-04-06T09:36:59Z</time></trkpt><trkpt lat="43.92489515485804" lon="12.043033856677086"><ele>627.6</ele><time>2026-04-06T09:37:00Z</time></trkpt><trkpt lat="43.92477810572275" lon="12.043077319268717"><ele>627.0</ele><time>2026-04-06T09:37:01Z</time></trkpt><trkpt lat="43.924651547044334" lon="12.043187518433124"><ele>633.0</ele><time>2026-04-06T09:37:02Z</time></trkpt><trkpt lat="43.92451972091166" lon="12.043319801270439"><ele>639.0</ele><time>2026-04-06T09:37:03Z</time></trkpt><trkpt lat="43.92438790361074" lon="12.04345413362653"><ele>645.0</ele><time>2026-04-06T09:37:04Z</time></trkpt><trkpt lat="43.924284110861414" lon="12.043548236722245"><ele>646.25</ele><time>2026-04-06T09:37:05Z</time></trkpt><trkpt lat="43.92419371161386" lon="12.04364755632515"><ele>647.5</ele><time>2026-04-06T09:37:06Z</time></trkpt><trkpt lat="43.924122531942096" lon="12.04376903954038"><ele>648.75</ele><time>2026-04-06T09:37:07Z</time></trkpt><trkpt lat="43.92404217537609" lon="12.043903986607695"><ele>650.0</ele><time>2026-04-06T09:37:08Z</time></trkpt><trkpt lat="43.92396561491606" lon="12.044029283299581"><ele>655.25</ele><time>2026-04-06T09:37:09Z</time></trkpt><trkpt lat="43.92386483119036" lon="12.044178444163222"><ele>660.5</ele><time>2026-04-06T09:37:10Z</time></trkpt><trkpt lat="43.923768232492556" lon="12.04431746926884"><ele>665.75</ele><time>2026-04-06T09:37:11Z</time></trkpt><trkpt lat="43.923662102543084" lon="12.044425918752998"><ele>671.0</ele><time>2026-04-06T09:37:12Z</time></trkpt><trkpt lat="43.92354422834126" lon="12.04448883733833"><ele>671.0</ele><time>2026-04-06T09:37:13Z</time></trkpt><trkpt lat="43.92342269730249" lon="12.044548158972864"><ele>671.0</ele><time>2026-04-06T09:37:14Z</time></trkpt><trkpt lat="43.92331780448637" lon="12.044625378094677"><ele>671.0</ele><time>2026-04-06T09:37:15Z</time></trkpt><trkpt lat="43.92325339611749" lon="12.044718010473401"><ele>671.0</ele><time>2026-04-06T09:37:16Z</time></trkpt><trkpt lat="43.92322232154446" lon="12.04484532287667"><ele>671.0</ele><time>2026-04-06T09:37:17Z</time></trkpt><trkpt lat="43.9231720338799" lon="12.044933728991701"><ele>672.3333333333333</ele><time>2026-04-06T09:37:18Z</time></trkpt><trkpt lat="43.9231250847579" lon="12.045029735588198"><ele>673.6666666666666</ele><time>2026-04-06T09:37:19Z</time></trkpt><trkpt lat="43.923100185657454" lon="12.045148792106865"><ele>675.0</ele><time>2026-04-06T09:37:20Z</time></trkpt><trkpt lat="43.92307352005094" lon="12.045265509289386"><ele>676.3333333333334</ele><time>2026-04-06T09:37:21Z</time></trkpt><trkpt lat="43.92305134431472" lon="12.045367776234395"><ele>677.6666666666667</ele><time>2026-04-06T09:37:22Z</time></trkpt><trkpt lat="43.92300257755043" lon="12.0454637195609"><ele>679.0</ele><time>2026-04-06T09:37:23Z</time></trkpt><trkpt lat="43.92294248527238" lon="12.045537001675465"><ele>679.0</ele><time>2026-04-06T09:37:24Z</time></trkpt><trkpt lat="43.92287193836444" lon="12.045598406329473"><ele>679.0</ele><time>2026-04-06T09:37:25Z</time></trkpt><trkpt lat="43.922776770098864" lon="12.045752922985296"><ele>679.0</ele><time>2026-04-06T09:37:27Z</time></trkpt><trkpt lat="43.92271900787004" lon="12.045867606184636"><ele>679.0</ele><time>2026-04-06T09:37:28Z</time></trkpt><trkpt lat="43.92267096362435" lon="12.045989123378577"><ele>679.0</ele><time>2026-04-06T09:37:29Z</time></trkpt><trkpt lat="43.92265279752535" lon="12.046086854344518"><ele>681.0</ele><time>2026-04-06T09:37:30Z</time></trkpt><trkpt lat="43.92265653645659" lon="12.046212905115159"><ele>683.0</ele><time>2026-04-06T09:37:31Z</time></trkpt><trkpt lat="43.92264069027996" lon="12.046327077748382"><ele>685.0</ele><time>2026-04-06T09:37:32Z</time></trkpt><trkpt lat="43.9225604768052" lon="12.046433552680837"><ele>687.0</ele><time>2026-04-06T09:37:33Z</time></trkpt><trkpt lat="43.92245829826654" lon="12.046508899715585"><ele>689.0</ele><time>2026-04-06T09:37:34Z</time></trkpt><trkpt lat="43.92239521954369" lon="12.046577239648412"><ele>692.3333333333333</ele><time>2026-04-06T09:37:35Z</time></trkpt><trkpt lat="43.92234328138669" lon="12.046661002383194"><ele>695.6666666666666</ele><time>2026-04-06T09:37:36Z</time></trkpt><trkpt lat="43.92229504341339" lon="12.046744944957709"><ele>699.0</ele><time>2026-04-06T09:37:37Z</time></trkpt><trkpt lat="43.922255886569836" lon="12.046840769948169"><ele>702.3333333333334</ele><time>2026-04-06T09:37:38Z</time></trkpt><trkpt lat="43.92221041384226" lon="12.04695418255058"><ele>705.6666666666667</ele><time>2026-04-06T09:37:39Z</time></trkpt><trkpt lat="43.92218716936641" lon="12.047059857107278"><ele>709.0</ele><time>2026-04-06T09:37:40Z</time></trkpt><trkpt lat="43.9221778218191" lon="12.047182533544676"><ele>709.0</ele><time>2026-04-06T09:37:41Z</time></trkpt><trkpt lat="43.92216629230858" lon="12.047301399805104"><ele>709.0</ele><time>2026-04-06T09:37:42Z</time></trkpt><trkpt lat="43.92216533452491" lon="12.047421760004069"><ele>709.0</ele><time>2026-04-06T09:37:43Z</time></trkpt><trkpt lat="43.9221584892527" lon="12.047520047136231"><ele>709.0</ele><time>2026-04-06T09:37:44Z</time></trkpt><trkpt lat="43.92215711224574" lon="12.04762367975424"><ele>709.0</ele><time>2026-04-06T09:37:45Z</time></trkpt><trkpt lat="43.92216310505015" lon="12.047728801764128"><ele>709.0</ele><time>2026-04-06T09:37:46Z</time></trkpt><trkpt lat="43.92218243396427" lon="12.047839441889318"><ele>712.3333333333334</ele><time>2026-04-06T09:37:47Z</time></trkpt><trkpt lat="43.92221173635843" lon="12.047949154317791"><ele>715.6666666666667</ele><time>2026-04-06T09:37:48Z</time></trkpt><trkpt lat="43.92225531405118" lon="12.048024725612462"><ele>719.0</ele><time>2026-04-06T09:37:49Z</time></trkpt><trkpt lat="43.92231505219459" lon="12.04811632675083"><ele>722.3333333333334</ele><time>2026-04-06T09:37:50Z</time></trkpt><trkpt lat="43.92237061170393" lon="12.048183315879925"><ele>725.6666666666666</ele><time>2026-04-06T09:37:51Z</time></trkpt><trkpt lat="43.9224375534839" lon="12.048255048752663"><ele>729.0</ele><time>2026-04-06T09:37:52Z</time></trkpt><trkpt lat="43.92251793830095" lon="12.04834104558454"><ele>736.0</ele><time>2026-04-06T09:37:53Z</time></trkpt><trkpt lat="43.92261745916655" lon="12.048428799946771"><ele>743.0</ele><time>2026-04-06T09:37:54Z</time></trkpt><trkpt lat="43.922726439327725" lon="12.048500945561935"><ele>750.0</ele><time>2026-04-06T09:37:55Z</time></trkpt><trkpt lat="43.922824646136064" lon="12.048594904971802"><ele>757.0</ele><time>2026-04-06T09:37:56Z</time></trkpt><trkpt lat="43.922855080765295" lon="12.048682907137861"><ele>764.0</ele><time>2026-04-06T09:37:57Z</time></trkpt><trkpt lat="43.92288072862749" lon="12.048788570137303"><ele>764.0</ele><time>2026-04-06T09:37:58Z</time></trkpt><trkpt lat="43.92292060414202" lon="12.048933990746539"><ele>764.0</ele><time>2026-04-06T09:37:59Z</time></trkpt><trkpt lat="43.92297216921283" lon="12.049061692237908"><ele>764.0</ele><time>2026-04-06T09:38:00Z</time></trkpt><trkpt lat="43.92302663802237" lon="12.049148921313234"><ele>764.0</ele><time>2026-04-06T09:38:01Z</time></trkpt><trkpt lat="43.923096241758834" lon="12.04923223085335"><ele>764.0</ele><time>2026-04-06T09:38:02Z</time></trkpt><trkpt lat="43.92316335775426" lon="12.049321246177835"><ele>766.8333333333333</ele><time>2026-04-06T09:38:03Z</time></trkpt><trkpt lat="43.92322615444236" lon="12.049393740304497"><ele>769.6666666666666</ele><time>2026-04-06T09:38:04Z</time></trkpt><trkpt lat="43.923280109467356" lon="12.049462192016126"><ele>772.5</ele><time>2026-04-06T09:38:06Z</time></trkpt><trkpt lat="43.92330852406319" lon="12.04956439820954"><ele>775.3333333333333</ele><time>2026-04-06T09:38:08Z</time></trkpt><trkpt lat="43.92325934496137" lon="12.049691136374525"><ele>778.1666666666666</ele><time>2026-04-06T09:38:10Z</time></trkpt><trkpt lat="43.92321750372408" lon="12.049784431108366"><ele>781.0</ele><time>2026-04-06T09:38:11Z</time></trkpt><trkpt lat="43.92316289777651" lon="12.049872547266707"><ele>780.9999999999999</ele><time>2026-04-06T09:38:12Z</time></trkpt><trkpt lat="43.92309546644712" lon="12.04992839303574"><ele>781.0</ele><time>2026-04-06T09:38:13Z</time></trkpt><trkpt lat="43.92308802863071" lon="12.050020494973262"><ele>781.0</ele><time>2026-04-06T09:38:15Z</time></trkpt><trkpt lat="43.923123388484946" lon="12.050173587151125"><ele>781.0</ele><time>2026-04-06T09:38:17Z</time></trkpt><trkpt lat="43.9231621792026" lon="12.050251871192469"><ele>780.9999999999999</ele><time>2026-04-06T09:38:18Z</time></trkpt><trkpt lat="43.923198663132226" lon="12.050330575486628"><ele>781.0</ele><time>2026-04-06T09:38:19Z</time></trkpt><trkpt lat="43.92323118178472" lon="12.050449111862138"><ele>783.4999999999999</ele><time>2026-04-06T09:38:21Z</time></trkpt><trkpt lat="43.9233203137252" lon="12.050506784244257"><ele>786.0</ele><time>2026-04-06T09:38:23Z</time></trkpt><trkpt lat="43.92340508372962" lon="12.05049347314783"><ele>788.5</ele><time>2026-04-06T09:38:24Z</time></trkpt><trkpt lat="43.923493660000425" lon="12.050462383326744"><ele>791.0</ele><time>2026-04-06T09:38:25Z</time></trkpt><trkpt lat="43.92356107397792" lon="12.050471867643765"><ele>793.4999999999999</ele><time>2026-04-06T09:38:26Z</time></trkpt><trkpt lat="43.92363199591664" lon="12.050492476336967"><ele>796.0</ele><time>2026-04-06T09:38:27Z</time></trkpt><trkpt lat="43.92374346228709" lon="12.050480379581495"><ele>799.5999999999999</ele><time>2026-04-06T09:38:29Z</time></trkpt><trkpt lat="43.92381025858518" lon="12.050472537657624"><ele>803.2</ele><time>2026-04-06T09:38:30Z</time></trkpt><trkpt lat="43.92388115297346" lon="12.050436125423628"><ele>806.8</ele><time>2026-04-06T09:38:31Z</time></trkpt><trkpt lat="43.92400179768353" lon="12.050405753680554"><ele>810.4000000000001</ele><time>2026-04-06T09:38:33Z</time></trkpt><trkpt lat="43.924098600817935" lon="12.050364272368606"><ele>814.0</ele><time>2026-04-06T09:38:35Z</time></trkpt><trkpt lat="43.924186934078435" lon="12.050357174862109"><ele>815.1666666666666</ele><time>2026-04-06T09:38:38Z</time></trkpt><trkpt lat="43.924262855695865" lon="12.05036601512115"><ele>816.3333333333333</ele><time>2026-04-06T09:38:41Z</time></trkpt><trkpt lat="43.924344686576305" lon="12.050324805481317"><ele>817.5</ele><time>2026-04-06T09:38:45Z</time></trkpt><trkpt lat="43.924418624762716" lon="12.050255652038173"><ele>818.6666666666667</ele><time>2026-04-06T09:38:48Z</time></trkpt><trkpt lat="43.92448677375013" lon="12.050226159858894"><ele>819.8333333333334</ele><time>2026-04-06T09:38:51Z</time></trkpt><trkpt lat="43.92454170568357" lon="12.050149817303875"><ele>821.0</ele><time>2026-04-06T09:38:54Z</time></trkpt><trkpt lat="43.92459944554042" lon="12.050100215994112"><ele>821.0</ele><time>2026-04-06T09:38:57Z</time></trkpt><trkpt lat="43.924658224309624" lon="12.050056889110703"><ele>821.0</ele><time>2026-04-06T09:38:59Z</time></trkpt><trkpt lat="43.92476010096642" lon="12.050065678068409"><ele>821.0</ele><time>2026-04-06T09:39:01Z</time></trkpt><trkpt lat="43.92482678498038" lon="12.050094653054808"><ele>821.0</ele><time>2026-04-06T09:39:03Z</time></trkpt><trkpt lat="43.925175931977165" lon="12.050119712229053"><ele>819.8333333333334</ele><time>2026-04-06T09:39:05Z</time></trkpt><trkpt lat="43.92526498021708" lon="12.050163423657974"><ele>818.6666666666667</ele><time>2026-04-06T09:39:06Z</time></trkpt><trkpt lat="43.925343921867224" lon="12.050202839262733"><ele>817.5</ele><time>2026-04-06T09:39:07Z</time></trkpt><trkpt lat="43.925400497415964" lon="12.050246650703798"><ele>816.3333333333333</ele><time>2026-04-06T09:39:08Z</time></trkpt><trkpt lat="43.92544420185467" lon="12.050321512913383"><ele>815.1666666666666</ele><time>2026-04-06T09:39:10Z</time></trkpt><trkpt lat="43.925507745686865" lon="12.050386788853448"><ele>814.0</ele><time>2026-04-06T09:39:12Z</time></trkpt><trkpt lat="43.92558860317499" lon="12.050388560971124"><ele>814.0</ele><time>2026-04-06T09:39:14Z</time></trkpt><trkpt lat="43.92565115123593" lon="12.050375708282901"><ele>814.0</ele><time>2026-04-06T09:39:16Z</time></trkpt><trkpt lat="43.92575709076834" lon="12.050422550072874"><ele>814.0</ele><time>2026-04-06T09:39:18Z</time></trkpt><trkpt lat="43.92587554416332" lon="12.050485484133311"><ele>814.0</ele><time>2026-04-06T09:39:20Z</time></trkpt><trkpt lat="43.925946700921024" lon="12.050512580077038"><ele>814.0</ele><time>2026-04-06T09:39:21Z</time></trkpt><trkpt lat="43.926040131664436" lon="12.050560069193418"><ele>811.4000000000001</ele><time>2026-04-06T09:39:23Z</time></trkpt><trkpt lat="43.92612738647509" lon="12.050621112130335"><ele>808.8</ele><time>2026-04-06T09:39:26Z</time></trkpt><trkpt lat="43.92622165432989" lon="12.050632330252586"><ele>806.2</ele><time>2026-04-06T09:39:28Z</time></trkpt><trkpt lat="43.926286460622926" lon="12.050651778689824"><ele>803.5999999999999</ele><time>2026-04-06T09:39:30Z</time></trkpt><trkpt lat="43.92644396613601" lon="12.05071830269804"><ele>801.0</ele><time>2026-04-06T09:39:32Z</time></trkpt><trkpt lat="43.92654021864744" lon="12.050774738697648"><ele>801.8</ele><time>2026-04-06T09:39:34Z</time></trkpt><trkpt lat="43.92665104626754" lon="12.050811702895555"><ele>802.5999999999999</ele><time>2026-04-06T09:39:36Z</time></trkpt><trkpt lat="43.92674110946987" lon="12.050817685710163"><ele>803.4</ele><time>2026-04-06T09:39:38Z</time></trkpt><trkpt lat="43.92684084050305" lon="12.050858186794516"><ele>804.2</ele><time>2026-04-06T09:39:40Z</time></trkpt><trkpt lat="43.92694642515098" lon="12.050924138120633"><ele>805.0</ele><time>2026-04-06T09:39:42Z</time></trkpt><trkpt lat="43.92704037905168" lon="12.050966402575085"><ele>805.0</ele><time>2026-04-06T09:39:44Z</time></trkpt><trkpt lat="43.92714429553063" lon="12.050998047651927"><ele>805.0</ele><time>2026-04-06T09:39:46Z</time></trkpt><trkpt lat="43.92725120617983" lon="12.05103076146672"><ele>805.0</ele><time>2026-04-06T09:39:48Z</time></trkpt><trkpt lat="43.92733505028733" lon="12.051099116414644"><ele>805.0</ele><time>2026-04-06T09:39:50Z</time></trkpt><trkpt lat="43.92736378976765" lon="12.051193897521943"><ele>805.0</ele><time>2026-04-06T09:39:52Z</time></trkpt><trkpt lat="43.927431260737045" lon="12.051198505304127"><ele>805.0</ele><time>2026-04-06T09:39:53Z</time></trkpt><trkpt lat="43.92751730336072" lon="12.051121327199574"><ele>805.0</ele><time>2026-04-06T09:39:54Z</time></trkpt><trkpt lat="43.927601618023" lon="12.051019446906576"><ele>805.0</ele><time>2026-04-06T09:39:55Z</time></trkpt><trkpt lat="43.92770888701666" lon="12.050920276263028"><ele>805.0</ele><time>2026-04-06T09:39:56Z</time></trkpt><trkpt lat="43.927827054114864" lon="12.050845330780714"><ele>804.6</ele><time>2026-04-06T09:39:57Z</time></trkpt><trkpt lat="43.927932010882444" lon="12.050798292576056"><ele>804.2</ele><time>2026-04-06T09:39:58Z</time></trkpt><trkpt lat="43.92804148947649" lon="12.050784511463801"><ele>803.8</ele><time>2026-04-06T09:39:59Z</time></trkpt><trkpt lat="43.92813616429501" lon="12.050794350612426"><ele>803.4</ele><time>2026-04-06T09:40:00Z</time></trkpt><trkpt lat="43.92824649475888" lon="12.050826556470422"><ele>803.0</ele><time>2026-04-06T09:40:01Z</time></trkpt><trkpt lat="43.92836048345188" lon="12.050867091073455"><ele>804.25</ele><time>2026-04-06T09:40:02Z</time></trkpt><trkpt lat="43.928474021085954" lon="12.050917713571183"><ele>805.5</ele><time>2026-04-06T09:40:03Z</time></trkpt><trkpt lat="43.92859315653927" lon="12.050974135686477"><ele>806.75</ele><time>2026-04-06T09:40:04Z</time></trkpt><trkpt lat="43.928688765994096" lon="12.051057567419997"><ele>808.0</ele><time>2026-04-06T09:40:05Z</time></trkpt><trkpt lat="43.92876566797199" lon="12.051166442249206"><ele>808.0</ele><time>2026-04-06T09:40:06Z</time></trkpt><trkpt lat="43.92884996898727" lon="12.051207804700665"><ele>808.0</ele><time>2026-04-06T09:40:07Z</time></trkpt><trkpt lat="43.92894130921311" lon="12.051208802002254"><ele>808.0</ele><time>2026-04-06T09:40:08Z</time></trkpt><trkpt lat="43.929032156984704" lon="12.051184739077202"><ele>808.0</ele><time>2026-04-06T09:40:09Z</time></trkpt><trkpt lat="43.929121505205686" lon="12.051162845240881"><ele>808.0</ele><time>2026-04-06T09:40:10Z</time></trkpt><trkpt lat="43.929210745346786" lon="12.051160627449011"><ele>803.1666666666666</ele><time>2026-04-06T09:40:11Z</time></trkpt><trkpt lat="43.92927488349333" lon="12.051150798491715"><ele>798.3333333333333</ele><time>2026-04-06T09:40:13Z</time></trkpt><trkpt lat="43.92928367943291" lon="12.05101183302561"><ele>793.5</ele><time>2026-04-06T09:40:43Z</time></trkpt><trkpt lat="43.92932514000815" lon="12.050932877479815"><ele>788.6666666666667</ele><time>2026-04-06T09:40:45Z</time></trkpt><trkpt lat="43.92934496525548" lon="12.050843184929827"><ele>783.8333333333334</ele><time>2026-04-06T09:40:48Z</time></trkpt><trkpt lat="43.929356057585046" lon="12.050737533267148"><ele>779.0</ele><time>2026-04-06T09:40:50Z</time></trkpt><trkpt lat="43.929373793736836" lon="12.05060619924938"><ele>776.6</ele><time>2026-04-06T09:40:52Z</time></trkpt><trkpt lat="43.92938679274779" lon="12.050435242598308"><ele>774.2</ele><time>2026-04-06T09:40:54Z</time></trkpt><trkpt lat="43.92939194573475" lon="12.05032657207549"><ele>771.8000000000001</ele><time>2026-04-06T09:40:56Z</time></trkpt><trkpt lat="43.92940769717915" lon="12.050130157596966"><ele>769.4000000000001</ele><time>2026-04-06T09:40:58Z</time></trkpt><trkpt lat="43.929425489634475" lon="12.050041403320394"><ele>767.0</ele><time>2026-04-06T09:40:59Z</time></trkpt><trkpt lat="43.929444585408774" lon="12.049948359999052"><ele>766.3333333333333</ele><time>2026-04-06T09:41:00Z</time></trkpt><trkpt lat="43.929474674824995" lon="12.049847558114775"><ele>765.6666666666666</ele><time>2026-04-06T09:41:01Z</time></trkpt><trkpt lat="43.92951360403298" lon="12.049753594177115"><ele>765.0</ele><time>2026-04-06T09:41:02Z</time></trkpt><trkpt lat="43.92956094636626" lon="12.049660705424143"><ele>764.3333333333334</ele><time>2026-04-06T09:41:03Z</time></trkpt><trkpt lat="43.929611389327874" lon="12.04957681352896"><ele>763.6666666666667</ele><time>2026-04-06T09:41:04Z</time></trkpt><trkpt lat="43.9296591233466" lon="12.049487933287152"><ele>763.0</ele><time>2026-04-06T09:41:05Z</time></trkpt><trkpt lat="43.92968690505433" lon="12.049392950859179"><ele>763.0</ele><time>2026-04-06T09:41:06Z</time></trkpt><trkpt lat="43.92969150730485" lon="12.049295573290543"><ele>763.0</ele><time>2026-04-06T09:41:07Z</time></trkpt><trkpt lat="43.92968797080341" lon="12.04920136888147"><ele>763.0</ele><time>2026-04-06T09:41:08Z</time></trkpt><trkpt lat="43.92969093038451" lon="12.04908824144337"><ele>763.0</ele><time>2026-04-06T09:41:09Z</time></trkpt><trkpt lat="43.929706677716716" lon="12.048972124393945"><ele>763.0</ele><time>2026-04-06T09:41:10Z</time></trkpt><trkpt lat="43.92972342241619" lon="12.048838551588373"><ele>763.0</ele><time>2026-04-06T09:41:11Z</time></trkpt><trkpt lat="43.92973660330258" lon="12.048697605473233"><ele>762.5</ele><time>2026-04-06T09:41:12Z</time></trkpt><trkpt lat="43.92972351670533" lon="12.048557984032636"><ele>762.0</ele><time>2026-04-06T09:41:13Z</time></trkpt><trkpt lat="43.92969405135267" lon="12.04844120972929"><ele>761.5</ele><time>2026-04-06T09:41:14Z</time></trkpt><trkpt lat="43.929646997889655" lon="12.048367387929144"><ele>761.0</ele><time>2026-04-06T09:41:15Z</time></trkpt><trkpt lat="43.92958153951493" lon="12.048278287784372"><ele>760.5</ele><time>2026-04-06T09:41:17Z</time></trkpt><trkpt lat="43.92957610565712" lon="12.048175409976242"><ele>760.0</ele><time>2026-04-06T09:41:19Z</time></trkpt><trkpt lat="43.929571943124195" lon="12.048076148449827"><ele>759.2</ele><time>2026-04-06T09:41:21Z</time></trkpt><trkpt lat="43.92956472116668" lon="12.047960650355611"><ele>758.4</ele><time>2026-04-06T09:41:25Z</time></trkpt><trkpt lat="43.92956365915489" lon="12.04785558532911"><ele>757.5999999999999</ele><time>2026-04-06T09:41:28Z</time></trkpt><trkpt lat="43.92957723555823" lon="12.04773445938597"><ele>756.8</ele><time>2026-04-06T09:41:31Z</time></trkpt><trkpt lat="43.92958623834861" lon="12.047593865573154"><ele>756.0</ele><time>2026-04-06T09:41:33Z</time></trkpt><trkpt lat="43.929602213154546" lon="12.04744480558282"><ele>755.5</ele><time>2026-04-06T09:41:35Z</time></trkpt><trkpt lat="43.929645892091564" lon="12.047379377984464"><ele>755.0</ele><time>2026-04-06T09:41:37Z</time></trkpt><trkpt lat="43.929690290217735" lon="12.047290875693738"><ele>754.5</ele><time>2026-04-06T09:41:39Z</time></trkpt><trkpt lat="43.929735406894906" lon="12.047182559749404"><ele>754.0</ele><time>2026-04-06T09:41:41Z</time></trkpt><trkpt lat="43.9297639816538" lon="12.047054512323692"><ele>753.5</ele><time>2026-04-06T09:41:43Z</time></trkpt><trkpt lat="43.92982231046072" lon="12.046936443890138"><ele>753.0</ele><time>2026-04-06T09:41:45Z</time></trkpt><trkpt lat="43.92988535116734" lon="12.046828222956359"><ele>753.0</ele><time>2026-04-06T09:41:47Z</time></trkpt><trkpt lat="43.92993134712354" lon="12.046727948705856"><ele>753.0</ele><time>2026-04-06T09:41:49Z</time></trkpt><trkpt lat="43.92993917143347" lon="12.04660986129345"><ele>753.0</ele><time>2026-04-06T09:41:51Z</time></trkpt><trkpt lat="43.92992402952508" lon="12.046472377171236"><ele>753.0</ele><time>2026-04-06T09:41:53Z</time></trkpt><trkpt lat="43.92988776251094" lon="12.046378547759643"><ele>753.0</ele><time>2026-04-06T09:41:55Z</time></trkpt><trkpt lat="43.929882540188764" lon="12.046269284938154"><ele>753.0</ele><time>2026-04-06T09:41:57Z</time></trkpt><trkpt lat="43.929867674542514" lon="12.04616553258449"><ele>751.2</ele><time>2026-04-06T09:41:59Z</time></trkpt><trkpt lat="43.92986057385621" lon="12.046039530448436"><ele>749.4</ele><time>2026-04-06T09:42:02Z</time></trkpt><trkpt lat="43.929856309703375" lon="12.045836049839691"><ele>747.6</ele><time>2026-04-06T09:42:05Z</time></trkpt><trkpt lat="43.92983709737164" lon="12.045730876519553"><ele>745.8000000000001</ele><time>2026-04-06T09:42:07Z</time></trkpt><trkpt lat="43.92980947181759" lon="12.045627687449176"><ele>744.0</ele><time>2026-04-06T09:42:11Z</time></trkpt><trkpt lat="43.92974823455028" lon="12.045581994285484"><ele>740.4285714285714</ele><time>2026-04-06T09:42:14Z</time></trkpt><trkpt lat="43.92969559695184" lon="12.045488259269355"><ele>736.8571428571429</ele><time>2026-04-06T09:42:16Z</time></trkpt><trkpt lat="43.92975278840374" lon="12.045420122498879"><ele>733.2857142857142</ele><time>2026-04-06T09:42:19Z</time></trkpt><trkpt lat="43.929821333842355" lon="12.045438542962064"><ele>729.7142857142858</ele><time>2026-04-06T09:42:25Z</time></trkpt><trkpt lat="43.92988199539598" lon="12.045402315029374"><ele>726.1428571428571</ele><time>2026-04-06T09:42:34Z</time></trkpt><trkpt lat="43.92994617153714" lon="12.04542056305753"><ele>722.5714285714286</ele><time>2026-04-06T09:42:37Z</time></trkpt><trkpt lat="43.93002061677398" lon="12.045434458838288"><ele>719.0</ele><time>2026-04-06T09:42:42Z</time></trkpt><trkpt lat="43.93011449650572" lon="12.045454091723732"><ele>716.1666666666666</ele><time>2026-04-06T09:42:48Z</time></trkpt><trkpt lat="43.930185030717354" lon="12.04548571305539"><ele>713.3333333333333</ele><time>2026-04-06T09:42:54Z</time></trkpt><trkpt lat="43.9302341067705" lon="12.045553648727141"><ele>710.5</ele><time>2026-04-06T09:42:58Z</time></trkpt><trkpt lat="43.93029975348697" lon="12.045649305688002"><ele>707.6666666666666</ele><time>2026-04-06T09:43:01Z</time></trkpt><trkpt lat="43.93036157060873" lon="12.045695845723573"><ele>704.8333333333334</ele><time>2026-04-06T09:43:03Z</time></trkpt><trkpt lat="43.930414979438616" lon="12.045769427551306"><ele>702.0</ele><time>2026-04-06T09:43:06Z</time></trkpt><trkpt lat="43.930439866894986" lon="12.045879200248054"><ele>702.0</ele><time>2026-04-06T09:43:09Z</time></trkpt><trkpt lat="43.9304859006582" lon="12.04597115577623"><ele>702.0</ele><time>2026-04-06T09:43:12Z</time></trkpt><trkpt lat="43.93054129343363" lon="12.046091242884328"><ele>702.0</ele><time>2026-04-06T09:43:15Z</time></trkpt><trkpt lat="43.93057399656461" lon="12.046172986522757"><ele>702.0</ele><time>2026-04-06T09:43:16Z</time></trkpt><trkpt lat="43.93066582442583" lon="12.046224535491534"><ele>702.0</ele><time>2026-04-06T09:43:18Z</time></trkpt><trkpt lat="43.93076580987405" lon="12.046190339220287"><ele>702.0</ele><time>2026-04-06T09:43:20Z</time></trkpt><trkpt lat="43.93080309446618" lon="12.04604670267529"><ele>702.0</ele><time>2026-04-06T09:43:22Z</time></trkpt><trkpt lat="43.930827428604395" lon="12.045951997597099"><ele>702.0</ele><time>2026-04-06T09:43:24Z</time></trkpt><trkpt lat="43.93087636126412" lon="12.045888695499572"><ele>702.0</ele><time>2026-04-06T09:43:26Z</time></trkpt><trkpt lat="43.93092991839322" lon="12.045837491240531"><ele>702.0</ele><time>2026-04-06T09:43:30Z</time></trkpt><trkpt lat="43.93099139693525" lon="12.045872836637793"><ele>702.0</ele><time>2026-04-06T09:43:33Z</time></trkpt><trkpt lat="43.93106163360151" lon="12.045900420202875"><ele>695.3333333333334</ele><time>2026-04-06T09:43:39Z</time></trkpt><trkpt lat="43.931133299758976" lon="12.045855854116907"><ele>688.6666666666666</ele><time>2026-04-06T09:43:43Z</time></trkpt><trkpt lat="43.931207388864394" lon="12.04584371657811"><ele>682.0</ele><time>2026-04-06T09:43:46Z</time></trkpt><trkpt lat="43.931271022376016" lon="12.045799663122844"><ele>675.3333333333333</ele><time>2026-04-06T09:43:49Z</time></trkpt><trkpt lat="43.93127792554235" lon="12.045706721977497"><ele>668.6666666666666</ele><time>2026-04-06T09:43:52Z</time></trkpt><trkpt lat="43.93131260593734" lon="12.045581070515583"><ele>662.0</ele><time>2026-04-06T09:43:58Z</time></trkpt><trkpt lat="43.93134377155976" lon="12.045487455875064"><ele>662.0</ele><time>2026-04-06T09:44:02Z</time></trkpt><trkpt lat="43.93140666096472" lon="12.045401056745085"><ele>662.0</ele><time>2026-04-06T09:44:06Z</time></trkpt><trkpt lat="43.93147727909619" lon="12.045349136167028"><ele>662.0</ele><time>2026-04-06T09:44:09Z</time></trkpt><trkpt lat="43.93154628020966" lon="12.045297488371768"><ele>662.0</ele><time>2026-04-06T09:44:12Z</time></trkpt><trkpt lat="43.93160998597389" lon="12.04523846055478"><ele>662.0</ele><time>2026-04-06T09:44:15Z</time></trkpt><trkpt lat="43.931654122759234" lon="12.04516711378023"><ele>662.0</ele><time>2026-04-06T09:44:16Z</time></trkpt><trkpt lat="43.93172249081641" lon="12.045053773903234"><ele>655.4</ele><time>2026-04-06T09:44:18Z</time></trkpt><trkpt lat="43.93175757610833" lon="12.044970301953397"><ele>648.8000000000001</ele><time>2026-04-06T09:44:19Z</time></trkpt><trkpt lat="43.931843570373914" lon="12.044864929836699"><ele>642.2</ele><time>2026-04-06T09:44:21Z</time></trkpt><trkpt lat="43.93190531310054" lon="12.044736126715188"><ele>635.6</ele><time>2026-04-06T09:44:23Z</time></trkpt><trkpt lat="43.931975323406775" lon="12.044588978093604"><ele>629.0</ele><time>2026-04-06T09:44:25Z</time></trkpt><trkpt lat="43.93202103377268" lon="12.044515289737836"><ele>629.0</ele><time>2026-04-06T09:44:26Z</time></trkpt><trkpt lat="43.93207229842673" lon="12.044444719271118"><ele>629.0</ele><time>2026-04-06T09:44:27Z</time></trkpt><trkpt lat="43.93211905206594" lon="12.044381513469096"><ele>629.0</ele><time>2026-04-06T09:44:28Z</time></trkpt><trkpt lat="43.932193605082745" lon="12.044270600013142"><ele>629.0</ele><time>2026-04-06T09:44:30Z</time></trkpt><trkpt lat="43.93222925447287" lon="12.044172511811778"><ele>629.0</ele><time>2026-04-06T09:44:32Z</time></trkpt><trkpt lat="43.93224871917676" lon="12.044047307523718"><ele>629.0</ele><time>2026-04-06T09:44:34Z</time></trkpt><trkpt lat="43.93232163643346" lon="12.043939474441864"><ele>629.6666666666666</ele><time>2026-04-06T09:44:36Z</time></trkpt><trkpt lat="43.932418998357804" lon="12.043822384086273"><ele>630.3333333333333</ele><time>2026-04-06T09:44:38Z</time></trkpt><trkpt lat="43.93246993280313" lon="12.04375258669746"><ele>631.0</ele><time>2026-04-06T09:44:39Z</time></trkpt><trkpt lat="43.932520340328125" lon="12.04369523618402"><ele>631.6666666666666</ele><time>2026-04-06T09:44:40Z</time></trkpt><trkpt lat="43.932589960578426" lon="12.043609639900493"><ele>632.3333333333334</ele><time>2026-04-06T09:44:42Z</time></trkpt><trkpt lat="43.93264177162576" lon="12.043537986388284"><ele>633.0</ele><time>2026-04-06T09:44:45Z</time></trkpt><trkpt lat="43.932661310044054" lon="12.043372694738604"><ele>631.6666666666666</ele><time>2026-04-06T09:44:48Z</time></trkpt><trkpt lat="43.932657687373435" lon="12.043244762839144"><ele>630.3333333333334</ele><time>2026-04-06T09:44:49Z</time></trkpt><trkpt lat="43.932664146750064" lon="12.043111918342932"><ele>629.0</ele><time>2026-04-06T09:44:51Z</time></trkpt><trkpt lat="43.932650280742706" lon="12.043002087959678"><ele>627.6666666666667</ele><time>2026-04-06T09:44:54Z</time></trkpt><trkpt lat="43.93265730432822" lon="12.042911315019845"><ele>626.3333333333334</ele><time>2026-04-06T09:44:57Z</time></trkpt><trkpt lat="43.932691081552576" lon="12.04283076274388"><ele>625.0</ele><time>2026-04-06T09:44:59Z</time></trkpt><trkpt lat="43.93276842985847" lon="12.042697166794138"><ele>625.0</ele><time>2026-04-06T09:45:01Z</time></trkpt><trkpt lat="43.932831513404835" lon="12.042618565798856"><ele>625.0</ele><time>2026-04-06T09:45:03Z</time></trkpt><trkpt lat="43.932890265944565" lon="12.042550393573933"><ele>625.0</ele><time>2026-04-06T09:45:05Z</time></trkpt><trkpt lat="43.93293769952918" lon="12.042472398620092"><ele>625.0</ele><time>2026-04-06T09:45:07Z</time></trkpt><trkpt lat="43.93299387023495" lon="12.042409661220432"><ele>625.0</ele><time>2026-04-06T09:45:09Z</time></trkpt><trkpt lat="43.93307938311467" lon="12.042391527552736"><ele>625.0</ele><time>2026-04-06T09:45:11Z</time></trkpt><trkpt lat="43.93315094659232" lon="12.042361414041205"><ele>622.6666666666667</ele><time>2026-04-06T09:45:13Z</time></trkpt><trkpt lat="43.93320552904491" lon="12.042313593500364"><ele>620.3333333333334</ele><time>2026-04-06T09:45:16Z</time></trkpt><trkpt lat="43.933280407142924" lon="12.042281831337338"><ele>618.0</ele><time>2026-04-06T09:45:22Z</time></trkpt><trkpt lat="43.93338210318946" lon="12.042316190439"><ele>615.6666666666666</ele><time>2026-04-06T09:45:25Z</time></trkpt><trkpt lat="43.93344448475332" lon="12.042342363386943"><ele>613.3333333333333</ele><time>2026-04-06T09:45:27Z</time></trkpt><trkpt lat="43.933527578726434" lon="12.042358334244332"><ele>611.0</ele><time>2026-04-06T09:45:29Z</time></trkpt><trkpt lat="43.93358952129654" lon="12.042389890935718"><ele>608.4</ele><time>2026-04-06T09:45:31Z</time></trkpt><trkpt lat="43.9336433822314" lon="12.04243954408442"><ele>605.8</ele><time>2026-04-06T09:45:33Z</time></trkpt><trkpt lat="43.933780385749614" lon="12.042481751273375"><ele>603.1999999999999</ele><time>2026-04-06T09:45:34Z</time></trkpt><trkpt lat="43.93389366269768" lon="12.042490818812917"><ele>600.6</ele><time>2026-04-06T09:45:36Z</time></trkpt><trkpt lat="43.93400253212915" lon="12.042454026760156"><ele>598.0</ele><time>2026-04-06T09:45:38Z</time></trkpt><trkpt lat="43.93405765311705" lon="12.042410518350582"><ele>598.0</ele><time>2026-04-06T09:45:39Z</time></trkpt><trkpt lat="43.934106381797754" lon="12.042344601254309"><ele>598.0</ele><time>2026-04-06T09:45:40Z</time></trkpt><trkpt lat="43.93416224596875" lon="12.04228647885327"><ele>598.0</ele><time>2026-04-06T09:45:41Z</time></trkpt><trkpt lat="43.93421549898547" lon="12.042238188150787"><ele>598.0</ele><time>2026-04-06T09:45:42Z</time></trkpt><trkpt lat="43.93431793650941" lon="12.042139163209397"><ele>598.0</ele><time>2026-04-06T09:45:44Z</time></trkpt><trkpt lat="43.93440324115047" lon="12.042024999503804"><ele>598.0</ele><time>2026-04-06T09:45:46Z</time></trkpt><trkpt lat="43.93447710531186" lon="12.041904573887765"><ele>595.0</ele><time>2026-04-06T09:45:48Z</time></trkpt><trkpt lat="43.93455654964278" lon="12.041790138593885"><ele>592.0</ele><time>2026-04-06T09:45:50Z</time></trkpt><trkpt lat="43.93464082273976" lon="12.041698348196059"><ele>589.0</ele><time>2026-04-06T09:45:52Z</time></trkpt><trkpt lat="43.9347218737879" lon="12.04165259609408"><ele>586.0</ele><time>2026-04-06T09:45:54Z</time></trkpt><trkpt lat="43.934821408653306" lon="12.041578784918384"><ele>583.0</ele><time>2026-04-06T09:45:56Z</time></trkpt><trkpt lat="43.93491479780621" lon="12.041537256744766"><ele>582.4</ele><time>2026-04-06T09:45:58Z</time></trkpt><trkpt lat="43.93501063957915" lon="12.04146245593939"><ele>581.8</ele><time>2026-04-06T09:46:00Z</time></trkpt><trkpt lat="43.9351006291536" lon="12.041376713364913"><ele>581.2</ele><time>2026-04-06T09:46:02Z</time></trkpt><trkpt lat="43.93519270437387" lon="12.04135431911417"><ele>580.6</ele><time>2026-04-06T09:46:04Z</time></trkpt><trkpt lat="43.93525915495671" lon="12.041290449020904"><ele>580.0</ele><time>2026-04-06T09:46:06Z</time></trkpt><trkpt lat="43.93529425306934" lon="12.041212725873734"><ele>580.0</ele><time>2026-04-06T09:46:07Z</time></trkpt><trkpt lat="43.93534083988921" lon="12.041113238256187"><ele>580.0</ele><time>2026-04-06T09:46:08Z</time></trkpt><trkpt lat="43.935382826802076" lon="12.04100188575061"><ele>580.0</ele><time>2026-04-06T09:46:09Z</time></trkpt><trkpt lat="43.9354266944984" lon="12.040877426345597"><ele>580.0</ele><time>2026-04-06T09:46:10Z</time></trkpt><trkpt lat="43.93547235188294" lon="12.040754056922733"><ele>580.0</ele><time>2026-04-06T09:46:11Z</time></trkpt><trkpt lat="43.93552173018461" lon="12.040633922760776"><ele>578.6</ele><time>2026-04-06T09:46:12Z</time></trkpt><trkpt lat="43.93558482907585" lon="12.04052757592038"><ele>577.2</ele><time>2026-04-06T09:46:13Z</time></trkpt><trkpt lat="43.93566284698784" lon="12.040441338457365"><ele>575.8</ele><time>2026-04-06T09:46:14Z</time></trkpt><trkpt lat="43.93574411471097" lon="12.040348948330173"><ele>574.4</ele><time>2026-04-06T09:46:15Z</time></trkpt><trkpt lat="43.93583757474189" lon="12.040240937665644"><ele>573.0</ele><time>2026-04-06T09:46:16Z</time></trkpt><trkpt lat="43.936002913050416" lon="12.039931293262185"><ele>570.75</ele><time>2026-04-06T09:46:17Z</time></trkpt><trkpt lat="43.9360954951971" lon="12.039818982963004"><ele>568.5</ele><time>2026-04-06T09:46:18Z</time></trkpt><trkpt lat="43.93618720049139" lon="12.0397035559785"><ele>566.25</ele><time>2026-04-06T09:46:19Z</time></trkpt><trkpt lat="43.93629366929421" lon="12.039575249957494"><ele>564.0</ele><time>2026-04-06T09:46:20Z</time></trkpt><trkpt lat="43.936405808841926" lon="12.039463474713811"><ele>564.0</ele><time>2026-04-06T09:46:21Z</time></trkpt><trkpt lat="43.936500523005876" lon="12.039337572292307"><ele>564.0</ele><time>2026-04-06T09:46:22Z</time></trkpt><trkpt lat="43.93660225007198" lon="12.039206141798637"><ele>564.0</ele><time>2026-04-06T09:46:23Z</time></trkpt><trkpt lat="43.93670878330875" lon="12.039087139458596"><ele>564.0</ele><time>2026-04-06T09:46:24Z</time></trkpt><trkpt lat="43.936829164367865" lon="12.038972466142067"><ele>558.25</ele><time>2026-04-06T09:46:25Z</time></trkpt><trkpt lat="43.936958609086446" lon="12.038866342006862"><ele>552.5</ele><time>2026-04-06T09:46:26Z</time></trkpt><trkpt lat="43.9370885568315" lon="12.03876293886149"><ele>546.75</ele><time>2026-04-06T09:46:27Z</time></trkpt><trkpt lat="43.937215469229734" lon="12.03866847321436"><ele>541.0</ele><time>2026-04-06T09:46:28Z</time></trkpt><trkpt lat="43.93734862969216" lon="12.03861239276881"><ele>541.0</ele><time>2026-04-06T09:46:29Z</time></trkpt><trkpt lat="43.937486280776646" lon="12.038611875602498"><ele>541.0</ele><time>2026-04-06T09:46:30Z</time></trkpt><trkpt lat="43.937621365271795" lon="12.038663327688141"><ele>541.0</ele><time>2026-04-06T09:46:31Z</time></trkpt><trkpt lat="43.93774850991716" lon="12.038701069569107"><ele>541.0</ele><time>2026-04-06T09:46:32Z</time></trkpt><trkpt lat="43.937869585381314" lon="12.038691977833166"><ele>541.5</ele><time>2026-04-06T09:46:33Z</time></trkpt><trkpt lat="43.9379776265803" lon="12.038620770871367"><ele>542.0</ele><time>2026-04-06T09:46:34Z</time></trkpt><trkpt lat="43.93806342994334" lon="12.03850299538674"><ele>542.5</ele><time>2026-04-06T09:46:35Z</time></trkpt><trkpt lat="43.9381282560243" lon="12.038344683233651"><ele>543.0</ele><time>2026-04-06T09:46:36Z</time></trkpt><trkpt lat="43.93819094387199" lon="12.038145203317214"><ele>541.0</ele><time>2026-04-06T09:46:37Z</time></trkpt><trkpt lat="43.93827061305492" lon="12.03797596691554"><ele>539.0</ele><time>2026-04-06T09:46:38Z</time></trkpt><trkpt lat="43.93836181187135" lon="12.037847699144136"><ele>537.0</ele><time>2026-04-06T09:46:39Z</time></trkpt><trkpt lat="43.938460273018876" lon="12.037741519747334"><ele>535.0</ele><time>2026-04-06T09:46:40Z</time></trkpt><trkpt lat="43.938574740641386" lon="12.03767410076223"><ele>535.0</ele><time>2026-04-06T09:46:41Z</time></trkpt><trkpt lat="43.938702996182634" lon="12.037628313528753"><ele>535.0</ele><time>2026-04-06T09:46:42Z</time></trkpt><trkpt lat="43.938824769058826" lon="12.037604591454675"><ele>535.0</ele><time>2026-04-06T09:46:43Z</time></trkpt><trkpt lat="43.938930191366474" lon="12.037617296074655"><ele>535.0</ele><time>2026-04-06T09:46:44Z</time></trkpt><trkpt lat="43.939021652767245" lon="12.037687165351045"><ele>535.0</ele><time>2026-04-06T09:46:45Z</time></trkpt><trkpt lat="43.93909762207835" lon="12.037789900427354"><ele>535.0</ele><time>2026-04-06T09:46:46Z</time></trkpt><trkpt lat="43.93916985533041" lon="12.037905175920185"><ele>535.0</ele><time>2026-04-06T09:46:47Z</time></trkpt><trkpt lat="43.939242762410174" lon="12.037980842584489"><ele>535.0</ele><time>2026-04-06T09:46:48Z</time></trkpt><trkpt lat="43.9393237923388" lon="12.038013760221014"><ele>535.0</ele><time>2026-04-06T09:46:49Z</time></trkpt><trkpt lat="43.93939917011403" lon="12.037979511931892"><ele>535.5</ele><time>2026-04-06T09:46:50Z</time></trkpt><trkpt lat="43.93944248957171" lon="12.037857925500065"><ele>536.0</ele><time>2026-04-06T09:46:51Z</time></trkpt><trkpt lat="43.93953156202592" lon="12.037832859161073"><ele>536.5</ele><time>2026-04-06T09:46:53Z</time></trkpt><trkpt lat="43.939595692280605" lon="12.03779117858397"><ele>537.0</ele><time>2026-04-06T09:46:55Z</time></trkpt><trkpt lat="43.93967200227047" lon="12.03771320851913"><ele>537.5</ele><time>2026-04-06T09:46:57Z</time></trkpt><trkpt lat="43.93970762269944" lon="12.037635038060326"><ele>538.0</ele><time>2026-04-06T09:46:58Z</time></trkpt><trkpt lat="43.93979184059164" lon="12.037568511816616"><ele>538.0</ele><time>2026-04-06T09:47:00Z</time></trkpt><trkpt lat="43.939831655696366" lon="12.037491620379656"><ele>538.0</ele><time>2026-04-06T09:47:03Z</time></trkpt><trkpt lat="43.939915662141026" lon="12.037557656981786"><ele>538.0</ele><time>2026-04-06T09:47:04Z</time></trkpt><trkpt lat="43.94000268013911" lon="12.037507196848274"><ele>538.0</ele><time>2026-04-06T09:47:06Z</time></trkpt><trkpt lat="43.940112325972024" lon="12.037492574390976"><ele>538.0</ele><time>2026-04-06T09:47:08Z</time></trkpt><trkpt lat="43.94021121499648" lon="12.037530447221037"><ele>534.1999999999999</ele><time>2026-04-06T09:47:10Z</time></trkpt><trkpt lat="43.94028966531177" lon="12.037540439871407"><ele>530.4</ele><time>2026-04-06T09:47:12Z</time></trkpt><trkpt lat="43.94039904489166" lon="12.037572489598144"><ele>526.5999999999999</ele><time>2026-04-06T09:47:13Z</time></trkpt><trkpt lat="43.94049344522579" lon="12.037608705876051"><ele>522.8</ele><time>2026-04-06T09:47:14Z</time></trkpt><trkpt lat="43.940579620684076" lon="12.037643805116554"><ele>519.0</ele><time>2026-04-06T09:47:15Z</time></trkpt><trkpt lat="43.94066536638849" lon="12.037669028459188"><ele>519.0</ele><time>2026-04-06T09:47:16Z</time></trkpt><trkpt lat="43.94074627247739" lon="12.037697727274862"><ele>519.0</ele><time>2026-04-06T09:47:17Z</time></trkpt><trkpt lat="43.94080281676871" lon="12.037741946882196"><ele>519.0</ele><time>2026-04-06T09:47:18Z</time></trkpt><trkpt lat="43.940845386416356" lon="12.037827726983856"><ele>519.0</ele><time>2026-04-06T09:47:19Z</time></trkpt><trkpt lat="43.94089828628127" lon="12.037914106825362"><ele>519.0</ele><time>2026-04-06T09:47:20Z</time></trkpt><trkpt lat="43.94094719780902" lon="12.03799758981494"><ele>519.0</ele><time>2026-04-06T09:47:21Z</time></trkpt><trkpt lat="43.94096838724849" lon="12.038099319694155"><ele>515.1666666666666</ele><time>2026-04-06T09:47:23Z</time></trkpt><trkpt lat="43.94101940095221" lon="12.038192951809469"><ele>511.33333333333337</ele><time>2026-04-06T09:47:26Z</time></trkpt><trkpt lat="43.94109217577667" lon="12.038226524399029"><ele>507.5</ele><time>2026-04-06T09:47:29Z</time></trkpt><trkpt lat="43.94115701623165" lon="12.038288449040435"><ele>503.6666666666667</ele><time>2026-04-06T09:47:33Z</time></trkpt><trkpt lat="43.94120529455342" lon="12.038350907618328"><ele>499.83333333333337</ele><time>2026-04-06T09:47:35Z</time></trkpt><trkpt lat="43.941313569725956" lon="12.03842215101804"><ele>496.0</ele><time>2026-04-06T09:47:38Z</time></trkpt><trkpt lat="43.94141923855075" lon="12.038426380796507"><ele>496.0</ele><time>2026-04-06T09:47:40Z</time></trkpt><trkpt lat="43.94145920518136" lon="12.03850792013956"><ele>496.0</ele><time>2026-04-06T09:47:43Z</time></trkpt><trkpt lat="43.941546549111564" lon="12.038615526068632"><ele>496.0</ele><time>2026-04-06T09:47:44Z</time></trkpt><trkpt lat="43.94161538818361" lon="12.038736092203866"><ele>496.0</ele><time>2026-04-06T09:47:46Z</time></trkpt><trkpt lat="43.94166953457024" lon="12.038871081620313"><ele>496.0</ele><time>2026-04-06T09:47:48Z</time></trkpt><trkpt lat="43.94172080233483" lon="12.038988300200376"><ele>491.20000000000005</ele><time>2026-04-06T09:47:50Z</time></trkpt><trkpt lat="43.941794153963656" lon="12.039009593386362"><ele>486.40000000000003</ele><time>2026-04-06T09:47:52Z</time></trkpt><trkpt lat="43.94190642513583" lon="12.039024473492352"><ele>481.6</ele><time>2026-04-06T09:47:54Z</time></trkpt><trkpt lat="43.94201615032499" lon="12.039065046138116"><ele>476.8</ele><time>2026-04-06T09:47:56Z</time></trkpt><trkpt lat="43.942088827381596" lon="12.039147757739824"><ele>472.0</ele><time>2026-04-06T09:47:58Z</time></trkpt><trkpt lat="43.94214319604994" lon="12.039214151888977"><ele>472.0</ele><time>2026-04-06T09:48:00Z</time></trkpt><trkpt lat="43.9421994832191" lon="12.039281366646946"><ele>472.00000000000006</ele><time>2026-04-06T09:48:02Z</time></trkpt><trkpt lat="43.94225866011353" lon="12.039405111683177"><ele>472.00000000000006</ele><time>2026-04-06T09:48:04Z</time></trkpt><trkpt lat="43.942306839056826" lon="12.039507158070961"><ele>472.0</ele><time>2026-04-06T09:48:06Z</time></trkpt><trkpt lat="43.94234569625392" lon="12.039643989966958"><ele>472.0</ele><time>2026-04-06T09:48:08Z</time></trkpt><trkpt lat="43.94242151715991" lon="12.039771703914404"><ele>472.00000000000006</ele><time>2026-04-06T09:48:10Z</time></trkpt><trkpt lat="43.94247006495154" lon="12.039839337448443"><ele>472.0</ele><time>2026-04-06T09:48:11Z</time></trkpt><trkpt lat="43.94254589715127" lon="12.039915685071861"><ele>472.0</ele><time>2026-04-06T09:48:13Z</time></trkpt><trkpt lat="43.94257953693693" lon="12.04002064688583"><ele>472.0</ele><time>2026-04-06T09:48:16Z</time></trkpt><trkpt lat="43.94267959214781" lon="12.040022712649128"><ele>472.00000000000006</ele><time>2026-04-06T09:48:19Z</time></trkpt><trkpt lat="43.942726250320916" lon="12.03992819063801"><ele>472.0</ele><time>2026-04-06T09:48:22Z</time></trkpt><trkpt lat="43.94276036573746" lon="12.039851980201405"><ele>467.00000000000006</ele><time>2026-04-06T09:48:26Z</time></trkpt><trkpt lat="43.9427964297643" lon="12.039976743567367"><ele>462.0</ele><time>2026-04-06T09:48:31Z</time></trkpt><trkpt lat="43.94281962980727" lon="12.04007884867731"><ele>457.0</ele><time>2026-04-06T09:48:34Z</time></trkpt><trkpt lat="43.94284664482481" lon="12.040169251760979"><ele>452.0</ele><time>2026-04-06T09:48:37Z</time></trkpt><trkpt lat="43.942872819900586" lon="12.040250989867069"><ele>447.00000000000006</ele><time>2026-04-06T09:48:39Z</time></trkpt><trkpt lat="43.94290850886073" lon="12.040390053055084"><ele>442.0</ele><time>2026-04-06T09:48:41Z</time></trkpt><trkpt lat="43.94297996317638" lon="12.04055606222521"><ele>442.00000000000006</ele><time>2026-04-06T09:48:42Z</time></trkpt><trkpt lat="43.94303625347191" lon="12.040661941824071"><ele>442.0</ele><time>2026-04-06T09:48:44Z</time></trkpt><trkpt lat="43.94310499136814" lon="12.04074859984456"><ele>442.0</ele><time>2026-04-06T09:48:45.999Z</time></trkpt><trkpt lat="43.94317751013916" lon="12.040727563537097"><ele>442.0</ele><time>2026-04-06T09:48:48.999Z</time></trkpt><trkpt lat="43.94323319150003" lon="12.04080720100201"><ele>442.00000000000006</ele><time>2026-04-06T09:48:52.999Z</time></trkpt><trkpt lat="43.94329956621221" lon="12.040875713015966"><ele>442.0</ele><time>2026-04-06T09:48:55.999Z</time></trkpt><trkpt lat="43.94335632972871" lon="12.040927847850552"><ele>436.33333333333337</ele><time>2026-04-06T09:49:14Z</time></trkpt><trkpt lat="43.9434189042311" lon="12.040965266160747"><ele>430.6666666666667</ele><time>2026-04-06T09:49:18Z</time></trkpt><trkpt lat="43.94347532451615" lon="12.04100903699053"><ele>425.0</ele><time>2026-04-06T09:49:21Z</time></trkpt><trkpt lat="43.94354813086465" lon="12.041074962432283"><ele>419.33333333333337</ele><time>2026-04-06T09:49:23Z</time></trkpt><trkpt lat="43.94362720973532" lon="12.041114221266243"><ele>413.6666666666667</ele><time>2026-04-06T09:49:25Z</time></trkpt><trkpt lat="43.94371362645568" lon="12.041142021937647"><ele>408.0</ele><time>2026-04-06T09:49:27Z</time></trkpt><trkpt lat="43.94380409473583" lon="12.041122525112476"><ele>408.0</ele><time>2026-04-06T09:49:29Z</time></trkpt><trkpt lat="43.943866635258374" lon="12.041134503152115"><ele>408.0</ele><time>2026-04-06T09:49:31Z</time></trkpt><trkpt lat="43.94393602662205" lon="12.041070446137917"><ele>408.0</ele><time>2026-04-06T09:49:34Z</time></trkpt><trkpt lat="43.94401643097719" lon="12.041051514028073"><ele>408.0</ele><time>2026-04-06T09:49:37Z</time></trkpt><trkpt lat="43.94410524709153" lon="12.041029419030671"><ele>408.0</ele><time>2026-04-06T09:49:40Z</time></trkpt><trkpt lat="43.94419183370537" lon="12.040986042663551"><ele>408.0</ele><time>2026-04-06T09:49:43Z</time></trkpt><trkpt lat="43.944272132210294" lon="12.0409916033272"><ele>402.6666666666667</ele><time>2026-04-06T09:49:46Z</time></trkpt><trkpt lat="43.94434470826759" lon="12.04094297950432"><ele>397.3333333333333</ele><time>2026-04-06T09:49:48Z</time></trkpt><trkpt lat="43.944394015272444" lon="12.040886757216558"><ele>392.0</ele><time>2026-04-06T09:49:50Z</time></trkpt><trkpt lat="43.944481243963914" lon="12.040844755635629"><ele>386.66666666666663</ele><time>2026-04-06T09:49:53Z</time></trkpt><trkpt lat="43.94456462743351" lon="12.040847079588866"><ele>381.3333333333333</ele><time>2026-04-06T09:49:58Z</time></trkpt><trkpt lat="43.94464269393653" lon="12.040805786950003"><ele>376.0</ele><time>2026-04-06T09:50:01Z</time></trkpt><trkpt lat="43.94468504899557" lon="12.040738999067358"><ele>374.8333333333333</ele><time>2026-04-06T09:50:03Z</time></trkpt><trkpt lat="43.94474698638038" lon="12.04062444713735"><ele>373.66666666666663</ele><time>2026-04-06T09:50:05Z</time></trkpt><trkpt lat="43.94477460243126" lon="12.040535932752107"><ele>372.5</ele><time>2026-04-06T09:50:06Z</time></trkpt><trkpt lat="43.944792813776374" lon="12.04044829640404"><ele>371.3333333333333</ele><time>2026-04-06T09:50:07Z</time></trkpt><trkpt lat="43.94482262623601" lon="12.040326940529361"><ele>370.1666666666667</ele><time>2026-04-06T09:50:09Z</time></trkpt><trkpt lat="43.9448830911728" lon="12.040207108032705"><ele>369.0</ele><time>2026-04-06T09:50:11Z</time></trkpt><trkpt lat="43.944963495875626" lon="12.040132509958475"><ele>369.0</ele><time>2026-04-06T09:50:13Z</time></trkpt><trkpt lat="43.94503424583773" lon="12.040194130991413"><ele>369.0</ele><time>2026-04-06T09:50:16Z</time></trkpt><trkpt lat="43.94510484162191" lon="12.040250092699008"><ele>369.0</ele><time>2026-04-06T09:50:18Z</time></trkpt><trkpt lat="43.94518906412756" lon="12.040223146924026"><ele>369.0</ele><time>2026-04-06T09:50:21Z</time></trkpt><trkpt lat="43.94529252129711" lon="12.040192765524944"><ele>369.0</ele><time>2026-04-06T09:50:23Z</time></trkpt><trkpt lat="43.94535530510192" lon="12.040128568627471"><ele>369.0</ele><time>2026-04-06T09:50:26Z</time></trkpt><trkpt lat="43.94543241242152" lon="12.040103565063864"><ele>366.1666666666667</ele><time>2026-04-06T09:50:29Z</time></trkpt><trkpt lat="43.94542492239519" lon="12.040211755564538"><ele>363.3333333333333</ele><time>2026-04-06T09:50:33Z</time></trkpt><trkpt lat="43.94537680891358" lon="12.04027959312228"><ele>360.5</ele><time>2026-04-06T09:50:35Z</time></trkpt><trkpt lat="43.9453708913587" lon="12.04041411568906"><ele>357.66666666666663</ele><time>2026-04-06T09:50:38Z</time></trkpt><trkpt lat="43.94539803520761" lon="12.040499660159758"><ele>354.8333333333333</ele><time>2026-04-06T09:50:40Z</time></trkpt><trkpt lat="43.945433504244335" lon="12.040578086051807"><ele>352.0</ele><time>2026-04-06T09:50:42Z</time></trkpt><trkpt lat="43.94551265515869" lon="12.040525531805311"><ele>352.0</ele><time>2026-04-06T09:50:44.999Z</time></trkpt><trkpt lat="43.94556855625538" lon="12.040473746079185"><ele>352.0</ele><time>2026-04-06T09:50:47.999Z</time></trkpt><trkpt lat="43.9456490876903" lon="12.040418038217119"><ele>352.0</ele><time>2026-04-06T09:50:50.999Z</time></trkpt><trkpt lat="43.94571876560863" lon="12.040402675878518"><ele>352.0</ele><time>2026-04-06T09:50:52.999Z</time></trkpt><trkpt lat="43.94578472398214" lon="12.040392511991477"><ele>352.0</ele><time>2026-04-06T09:50:56.999Z</time></trkpt><trkpt lat="43.945858470583005" lon="12.04032812524951"><ele>352.0</ele><time>2026-04-06T09:51:00.999Z</time></trkpt><trkpt lat="43.94593476979509" lon="12.04034596859321"><ele>351.6</ele><time>2026-04-06T09:51:03.999Z</time></trkpt><trkpt lat="43.946011271924164" lon="12.040403551939164"><ele>351.20000000000005</ele><time>2026-04-06T09:51:06.999Z</time></trkpt><trkpt lat="43.946094569305636" lon="12.040463590554456"><ele>350.8</ele><time>2026-04-06T09:51:09.999Z</time></trkpt><trkpt lat="43.94617047990474" lon="12.0405026032312"><ele>350.4</ele><time>2026-04-06T09:51:11.999Z</time></trkpt><trkpt lat="43.94627110226608" lon="12.040519485638928"><ele>350.0</ele><time>2026-04-06T09:51:16Z</time></trkpt><trkpt lat="43.94636361667439" lon="12.040555796941511"><ele>350.0</ele><time>2026-04-06T09:51:19Z</time></trkpt><trkpt lat="43.9464036476848" lon="12.040624985513519"><ele>350.0</ele><time>2026-04-06T09:51:22Z</time></trkpt><trkpt lat="43.94640271005439" lon="12.040714984447611"><ele>350.0</ele><time>2026-04-06T09:51:25Z</time></trkpt><trkpt lat="43.94644511228488" lon="12.040817141964657"><ele>350.0</ele><time>2026-04-06T09:51:27Z</time></trkpt><trkpt lat="43.94647713754716" lon="12.040928498952653"><ele>350.0</ele><time>2026-04-06T09:51:31Z</time></trkpt><trkpt lat="43.946425392190555" lon="12.041048319258492"><ele>350.0</ele><time>2026-04-06T09:51:34Z</time></trkpt><trkpt lat="43.94635545874824" lon="12.04115225421378"><ele>353.2</ele><time>2026-04-06T09:51:37Z</time></trkpt><trkpt lat="43.94631906195756" lon="12.04126325516009"><ele>356.4</ele><time>2026-04-06T09:51:39Z</time></trkpt><trkpt lat="43.94626754659085" lon="12.041373708861983"><ele>359.6</ele><time>2026-04-06T09:51:40Z</time></trkpt><trkpt lat="43.94619873543305" lon="12.041480026518855"><ele>362.8</ele><time>2026-04-06T09:51:41Z</time></trkpt><trkpt lat="43.94612540581368" lon="12.041577160441026"><ele>366.0</ele><time>2026-04-06T09:51:42Z</time></trkpt><trkpt lat="43.94605144903767" lon="12.041642055048836"><ele>372.0</ele><time>2026-04-06T09:51:43Z</time></trkpt><trkpt lat="43.94600953723368" lon="12.04173843192483"><ele>378.0</ele><time>2026-04-06T09:51:44Z</time></trkpt><trkpt lat="43.94600856303126" lon="12.041838360153703"><ele>384.0</ele><time>2026-04-06T09:51:45Z</time></trkpt><trkpt lat="43.945990293864334" lon="12.042041866663258"><ele>390.0</ele><time>2026-04-06T09:51:47Z</time></trkpt><trkpt lat="43.94595823339321" lon="12.04213965543928"><ele>396.0</ele><time>2026-04-06T09:51:48Z</time></trkpt><trkpt lat="43.94588314079361" lon="12.042255913953055"><ele>395.5</ele><time>2026-04-06T09:51:50Z</time></trkpt><trkpt lat="43.945826178809355" lon="12.042317766048859"><ele>395.0</ele><time>2026-04-06T09:51:51Z</time></trkpt><trkpt lat="43.945788138267055" lon="12.04238922018885"><ele>394.5</ele><time>2026-04-06T09:51:52Z</time></trkpt><trkpt lat="43.94575619871449" lon="12.04246780605762"><ele>394.0</ele><time>2026-04-06T09:51:53Z</time></trkpt><trkpt lat="43.94571942531824" lon="12.04258166420667"><ele>393.5</ele><time>2026-04-06T09:51:55Z</time></trkpt><trkpt lat="43.945761400874574" lon="12.042719665876229"><ele>393.0</ele><time>2026-04-06T09:51:57Z</time></trkpt><trkpt lat="43.94581201090433" lon="12.042792391189625"><ele>399.1666666666667</ele><time>2026-04-06T09:51:58Z</time></trkpt><trkpt lat="43.945886319436376" lon="12.042874732364702"><ele>405.33333333333337</ele><time>2026-04-06T09:52:00Z</time></trkpt><trkpt lat="43.94597647052943" lon="12.042946192923623"><ele>411.5</ele><time>2026-04-06T09:52:02Z</time></trkpt><trkpt lat="43.94607193296303" lon="12.042996366722045"><ele>417.6666666666667</ele><time>2026-04-06T09:52:03.999Z</time></trkpt><trkpt lat="43.946153715066416" lon="12.043014378527804"><ele>423.83333333333337</ele><time>2026-04-06T09:52:06.999Z</time></trkpt><trkpt lat="43.94620626311838" lon="12.04296136614824"><ele>430.0</ele><time>2026-04-06T09:52:08.999Z</time></trkpt><trkpt lat="43.94629549851826" lon="12.042921838446228"><ele>430.00000000000006</ele><time>2026-04-06T09:52:11.999Z</time></trkpt><trkpt lat="43.946362671818314" lon="12.042941907544067"><ele>430.0</ele><time>2026-04-06T09:52:13.999Z</time></trkpt><trkpt lat="43.94644648168743" lon="12.042991974813793"><ele>430.0</ele><time>2026-04-06T09:52:16.999Z</time></trkpt><trkpt lat="43.94646652308412" lon="12.043111246394652"><ele>430.0</ele><time>2026-04-06T09:52:18.999Z</time></trkpt><trkpt lat="43.9464598587024" lon="12.043240838323799"><ele>430.00000000000006</ele><time>2026-04-06T09:52:20.999Z</time></trkpt><trkpt lat="43.94645793675242" lon="12.043334598970324"><ele>430.0</ele><time>2026-04-06T09:52:21.999Z</time></trkpt><trkpt lat="43.946499846467034" lon="12.04346351415295"><ele>430.6666666666667</ele><time>2026-04-06T09:52:23.999Z</time></trkpt><trkpt lat="43.94655592371613" lon="12.043612280705737"><ele>431.33333333333337</ele><time>2026-04-06T09:52:25.999Z</time></trkpt><trkpt lat="43.94662228298744" lon="12.043685916781847"><ele>432.0</ele><time>2026-04-06T09:52:26.999Z</time></trkpt><trkpt lat="43.9466986335902" lon="12.04373403428144"><ele>432.66666666666663</ele><time>2026-04-06T09:52:27.999Z</time></trkpt><trkpt lat="43.94675479244853" lon="12.043799797467662"><ele>433.3333333333333</ele><time>2026-04-06T09:52:28.999Z</time></trkpt><trkpt lat="43.94677268435985" lon="12.043886382570753"><ele>434.0</ele><time>2026-04-06T09:52:29.999Z</time></trkpt><trkpt lat="43.94679745248887" lon="12.04396915285441"><ele>436.99999999999994</ele><time>2026-04-06T09:52:30.999Z</time></trkpt><trkpt lat="43.94678509408878" lon="12.044134781858267"><ele>440.0</ele><time>2026-04-06T09:52:32.999Z</time></trkpt><trkpt lat="43.94674396900465" lon="12.044201751226947"><ele>443.0</ele><time>2026-04-06T09:52:34.999Z</time></trkpt><trkpt lat="43.946740985566365" lon="12.044289851591651"><ele>446.0</ele><time>2026-04-06T09:52:35.999Z</time></trkpt><trkpt lat="43.94674291193784" lon="12.044414234425389"><ele>448.99999999999994</ele><time>2026-04-06T09:52:36.999Z</time></trkpt><trkpt lat="43.94673774091922" lon="12.044543295650792"><ele>452.0</ele><time>2026-04-06T09:52:37.999Z</time></trkpt><trkpt lat="43.94673884105149" lon="12.044713277165116"><ele>452.0</ele><time>2026-04-06T09:52:38.999Z</time></trkpt><trkpt lat="43.94675320930065" lon="12.044934163336071"><ele>452.0</ele><time>2026-04-06T09:52:39.999Z</time></trkpt><trkpt lat="43.946773528790054" lon="12.045181033517656"><ele>452.0</ele><time>2026-04-06T09:52:40.999Z</time></trkpt><trkpt lat="43.946796865850644" lon="12.045405528658288"><ele>456.25</ele><time>2026-04-06T09:52:41.999Z</time></trkpt><trkpt lat="43.94681550109821" lon="12.04560571887922"><ele>460.5</ele><time>2026-04-06T09:52:43Z</time></trkpt><trkpt lat="43.946848076925626" lon="12.045763005967155"><ele>464.75</ele><time>2026-04-06T09:52:44Z</time></trkpt><trkpt lat="43.94691906441155" lon="12.045897327328653"><ele>469.0</ele><time>2026-04-06T09:52:45Z</time></trkpt><trkpt lat="43.947008243717086" lon="12.04605267312889"><ele>473.75</ele><time>2026-04-06T09:52:46Z</time></trkpt><trkpt lat="43.94708937952061" lon="12.046229365327143"><ele>478.5</ele><time>2026-04-06T09:52:47Z</time></trkpt><trkpt lat="43.94717654757494" lon="12.046410443039685"><ele>483.25</ele><time>2026-04-06T09:52:48Z</time></trkpt><trkpt lat="43.94724770164069" lon="12.046575269580806"><ele>488.0</ele><time>2026-04-06T09:52:49Z</time></trkpt><trkpt lat="43.947296627173515" lon="12.04672847347134"><ele>491.75</ele><time>2026-04-06T09:52:50Z</time></trkpt><trkpt lat="43.94731866960579" lon="12.046886424604478"><ele>495.5</ele><time>2026-04-06T09:52:51Z</time></trkpt><trkpt lat="43.94732348274998" lon="12.047077931276123"><ele>499.25</ele><time>2026-04-06T09:52:52Z</time></trkpt><trkpt lat="43.94733945512151" lon="12.047256675962501"><ele>503.0</ele><time>2026-04-06T09:52:53Z</time></trkpt><trkpt lat="43.94736898588336" lon="12.047406632040397"><ele>504.66666666666663</ele><time>2026-04-06T09:52:54Z</time></trkpt><trkpt lat="43.947400389329644" lon="12.047557820378533"><ele>506.33333333333337</ele><time>2026-04-06T09:52:55Z</time></trkpt><trkpt lat="43.94738253711861" lon="12.047777459011238"><ele>508.0</ele><time>2026-04-06T09:52:56Z</time></trkpt><trkpt lat="43.947368250433335" lon="12.048034328759083"><ele>508.0</ele><time>2026-04-06T09:52:57Z</time></trkpt><trkpt lat="43.94738658819646" lon="12.048262779041162"><ele>508.0</ele><time>2026-04-06T09:52:58Z</time></trkpt><trkpt lat="43.947407828448405" lon="12.04844866589288"><ele>508.0</ele><time>2026-04-06T09:52:59Z</time></trkpt><trkpt lat="43.947418872259696" lon="12.048629575759117"><ele>508.0</ele><time>2026-04-06T09:53:00Z</time></trkpt><trkpt lat="43.9474119008604" lon="12.048808166675073"><ele>507.79999999999995</ele><time>2026-04-06T09:53:01Z</time></trkpt><trkpt lat="43.94744585584376" lon="12.048921738602807"><ele>507.59999999999997</ele><time>2026-04-06T09:53:02Z</time></trkpt><trkpt lat="43.94751727902547" lon="12.048980573441813"><ele>507.40000000000003</ele><time>2026-04-06T09:53:03Z</time></trkpt><trkpt lat="43.947607113474405" lon="12.049027310384592"><ele>507.20000000000005</ele><time>2026-04-06T09:53:04Z</time></trkpt><trkpt lat="43.94772919926608" lon="12.04909571437217"><ele>507.0</ele><time>2026-04-06T09:53:05Z</time></trkpt><trkpt lat="43.94783382202283" lon="12.049205777211188"><ele>507.0</ele><time>2026-04-06T09:53:06Z</time></trkpt><trkpt lat="43.94791562825548" lon="12.049301463108684"><ele>507.0</ele><time>2026-04-06T09:53:07Z</time></trkpt><trkpt lat="43.947990440109145" lon="12.049394588539302"><ele>507.0</ele><time>2026-04-06T09:53:08Z</time></trkpt><trkpt lat="43.948062687899274" lon="12.049527644255331"><ele>507.0</ele><time>2026-04-06T09:53:09Z</time></trkpt><trkpt lat="43.94814150855197" lon="12.049712831726206"><ele>507.0</ele><time>2026-04-06T09:53:10Z</time></trkpt><trkpt lat="43.948256471901736" lon="12.049866887773788"><ele>507.0</ele><time>2026-04-06T09:53:11Z</time></trkpt><trkpt lat="43.94837699662291" lon="12.049999639414779"><ele>507.0</ele><time>2026-04-06T09:53:12Z</time></trkpt><trkpt lat="43.948445699273776" lon="12.050112322305017"><ele>507.0</ele><time>2026-04-06T09:53:13Z</time></trkpt><trkpt lat="43.94848663239138" lon="12.050217595562367"><ele>506.6666666666667</ele><time>2026-04-06T09:53:14Z</time></trkpt><trkpt lat="43.94851014642693" lon="12.05034400567819"><ele>506.33333333333337</ele><time>2026-04-06T09:53:15Z</time></trkpt><trkpt lat="43.94853337045366" lon="12.050471570193649"><ele>506.0</ele><time>2026-04-06T09:53:16Z</time></trkpt><trkpt lat="43.94855862650608" lon="12.05056670877499"><ele>505.6666666666667</ele><time>2026-04-06T09:53:17Z</time></trkpt><trkpt lat="43.94861025484039" lon="12.050617915724231"><ele>505.33333333333337</ele><time>2026-04-06T09:53:18Z</time></trkpt><trkpt lat="43.94870143520282" lon="12.05067368432998"><ele>505.0</ele><time>2026-04-06T09:53:19Z</time></trkpt><trkpt lat="43.94878331925329" lon="12.050702614992158"><ele>509.0</ele><time>2026-04-06T09:53:20Z</time></trkpt><trkpt lat="43.94885981173586" lon="12.050799794419442"><ele>513.0</ele><time>2026-04-06T09:53:21Z</time></trkpt><trkpt lat="43.94889157497744" lon="12.050915351301096"><ele>517.0</ele><time>2026-04-06T09:53:22.001Z</time></trkpt><trkpt lat="43.9488938702441" lon="12.051116872188013"><ele>521.0</ele><time>2026-04-06T09:53:23.001Z</time></trkpt><trkpt lat="43.948918556386275" lon="12.051235673448474"><ele>525.0</ele><time>2026-04-06T09:53:24.001Z</time></trkpt><trkpt lat="43.948989530161896" lon="12.051325686781341"><ele>525.0</ele><time>2026-04-06T09:53:25.001Z</time></trkpt><trkpt lat="43.94906671801705" lon="12.051421466914482"><ele>525.0</ele><time>2026-04-06T09:53:26.001Z</time></trkpt><trkpt lat="43.94917061090461" lon="12.051497416025692"><ele>525.0</ele><time>2026-04-06T09:53:27.001Z</time></trkpt><trkpt lat="43.94929219072907" lon="12.051581521021356"><ele>525.0</ele><time>2026-04-06T09:53:28.001Z</time></trkpt><trkpt lat="43.94942808193108" lon="12.051692457623533"><ele>526.25</ele><time>2026-04-06T09:53:29.001Z</time></trkpt><trkpt lat="43.94953843732707" lon="12.051826921836613"><ele>527.5</ele><time>2026-04-06T09:53:30.001Z</time></trkpt><trkpt lat="43.94962178746317" lon="12.051963777795152"><ele>528.75</ele><time>2026-04-06T09:53:31.001Z</time></trkpt><trkpt lat="43.9496814004263" lon="12.052109230077297"><ele>530.0</ele><time>2026-04-06T09:53:32.001Z</time></trkpt><trkpt lat="43.94973202627542" lon="12.052250367127899"><ele>530.0</ele><time>2026-04-06T09:53:33.001Z</time></trkpt><trkpt lat="43.94976530754479" lon="12.052361761201722"><ele>530.0</ele><time>2026-04-06T09:53:34.001Z</time></trkpt><trkpt lat="43.94976637869285" lon="12.052451750309457"><ele>530.0</ele><time>2026-04-06T09:53:35.001Z</time></trkpt><trkpt lat="43.94973778313314" lon="12.052535301670915"><ele>530.0</ele><time>2026-04-06T09:53:36.001Z</time></trkpt><trkpt lat="43.94976241611641" lon="12.052673304296157"><ele>530.0</ele><time>2026-04-06T09:53:38.001Z</time></trkpt><trkpt lat="43.94975907506954" lon="12.052830087705793"><ele>530.0</ele><time>2026-04-06T09:53:40.001Z</time></trkpt><trkpt lat="43.9497482682652" lon="12.052919594103587"><ele>532.6666666666666</ele><time>2026-04-06T09:53:41.001Z</time></trkpt><trkpt lat="43.94976898824397" lon="12.053018644156687"><ele>535.3333333333333</ele><time>2026-04-06T09:53:42.001Z</time></trkpt><trkpt lat="43.949788801037656" lon="12.05312763941885"><ele>538.0</ele><time>2026-04-06T09:53:43Z</time></trkpt><trkpt lat="43.949847618925425" lon="12.053213644759369"><ele>540.6666666666666</ele><time>2026-04-06T09:53:44Z</time></trkpt><trkpt lat="43.94983031590285" lon="12.053381500504958"><ele>543.3333333333334</ele><time>2026-04-06T09:53:46Z</time></trkpt><trkpt lat="43.94983311316019" lon="12.053473908418482"><ele>546.0</ele><time>2026-04-06T09:53:47Z</time></trkpt><trkpt lat="43.949879535015434" lon="12.053699791025997"><ele>546.5714285714286</ele><time>2026-04-06T09:53:49Z</time></trkpt><trkpt lat="43.94987562604382" lon="12.053801784842031"><ele>547.1428571428571</ele><time>2026-04-06T09:53:50Z</time></trkpt><trkpt lat="43.949892239104464" lon="12.053895408324685"><ele>547.7142857142858</ele><time>2026-04-06T09:53:52Z</time></trkpt><trkpt lat="43.94995461012177" lon="12.053881331815719"><ele>548.2857142857142</ele><time>2026-04-06T09:53:53Z</time></trkpt><trkpt lat="43.950041771034876" lon="12.053925947631264"><ele>548.8571428571429</ele><time>2026-04-06T09:53:55Z</time></trkpt><trkpt lat="43.950069563797605" lon="12.054006986502355"><ele>549.4285714285714</ele><time>2026-04-06T09:53:56Z</time></trkpt><trkpt lat="43.950036239380346" lon="12.0541089355068"><ele>550.0</ele><time>2026-04-06T09:54:00Z</time></trkpt><trkpt lat="43.950011197831735" lon="12.05421598417635"><ele>556.5</ele><time>2026-04-06T09:54:03Z</time></trkpt><trkpt lat="43.94989520060892" lon="12.054184355508612"><ele>563.0</ele><time>2026-04-06T09:54:05Z</time></trkpt><trkpt lat="43.94990587356381" lon="12.054302559281188"><ele>569.5</ele><time>2026-04-06T09:54:06Z</time></trkpt><trkpt lat="43.94995384362636" lon="12.054373245257107"><ele>576.0</ele><time>2026-04-06T09:54:09Z</time></trkpt><trkpt lat="43.94995439644836" lon="12.054482765640268"><ele>582.5</ele><time>2026-04-06T09:54:10Z</time></trkpt><trkpt lat="43.94997273693372" lon="12.054573418205782"><ele>589.0</ele><time>2026-04-06T09:54:12Z</time></trkpt><trkpt lat="43.950041653396646" lon="12.054597418359"><ele>587.25</ele><time>2026-04-06T09:54:13Z</time></trkpt><trkpt lat="43.95010173695815" lon="12.054688047226206"><ele>585.5</ele><time>2026-04-06T09:54:15Z</time></trkpt><trkpt lat="43.95021158223333" lon="12.054953801191395"><ele>583.75</ele><time>2026-04-06T09:54:18Z</time></trkpt><trkpt lat="43.950187770427796" lon="12.055117832189872"><ele>582.0</ele><time>2026-04-06T09:54:20Z</time></trkpt><trkpt lat="43.950152794593436" lon="12.055224986362646"><ele>582.0</ele><time>2026-04-06T09:54:21Z</time></trkpt><trkpt lat="43.95012670723686" lon="12.05533727252921"><ele>582.0</ele><time>2026-04-06T09:54:22Z</time></trkpt><trkpt lat="43.95012099829712" lon="12.055471260223953"><ele>582.0</ele><time>2026-04-06T09:54:23Z</time></trkpt><trkpt lat="43.950136640768356" lon="12.055634492904485"><ele>582.0</ele><time>2026-04-06T09:54:24Z</time></trkpt><trkpt lat="43.95013979266149" lon="12.055782070405407"><ele>582.0</ele><time>2026-04-06T09:54:25Z</time></trkpt><trkpt lat="43.95013341103822" lon="12.055934662059416"><ele>584.5</ele><time>2026-04-06T09:54:26Z</time></trkpt><trkpt lat="43.950119251472444" lon="12.056089602573381"><ele>587.0</ele><time>2026-04-06T09:54:27Z</time></trkpt><trkpt lat="43.950109613007754" lon="12.05618496344125"><ele>589.5</ele><time>2026-04-06T09:54:28Z</time></trkpt><trkpt lat="43.9500992797295" lon="12.05629884009359"><ele>592.0</ele><time>2026-04-06T09:54:29Z</time></trkpt><trkpt lat="43.95005399172452" lon="12.056390085418425"><ele>594.5</ele><time>2026-04-06T09:54:31Z</time></trkpt><trkpt lat="43.9500231772561" lon="12.056526598370404"><ele>597.0</ele><time>2026-04-06T09:54:33Z</time></trkpt><trkpt lat="43.950068218252234" lon="12.056711474669186"><ele>605.5</ele><time>2026-04-06T09:54:35Z</time></trkpt><trkpt lat="43.950248816593934" lon="12.056986702283666"><ele>614.0</ele><time>2026-04-06T09:54:36Z</time></trkpt><trkpt lat="43.9503630301431" lon="12.057195510374056"><ele>614.0</ele><time>2026-04-06T09:54:37Z</time></trkpt><trkpt lat="43.95046990227718" lon="12.057392906521429"><ele>614.0</ele><time>2026-04-06T09:54:38Z</time></trkpt><trkpt lat="43.950554482123785" lon="12.057554497068221"><ele>614.0</ele><time>2026-04-06T09:54:39Z</time></trkpt><trkpt lat="43.950609776561414" lon="12.057704071386176"><ele>614.0</ele><time>2026-04-06T09:54:40Z</time></trkpt><trkpt lat="43.950636519290875" lon="12.057872781831469"><ele>617.5</ele><time>2026-04-06T09:54:41Z</time></trkpt><trkpt lat="43.95064631012162" lon="12.058032470893847"><ele>621.0</ele><time>2026-04-06T09:54:42Z</time></trkpt><trkpt lat="43.950625964444654" lon="12.05821663251871"><ele>624.5</ele><time>2026-04-06T09:54:43Z</time></trkpt><trkpt lat="43.95061321965228" lon="12.058406567907056"><ele>628.0</ele><time>2026-04-06T09:54:44Z</time></trkpt><trkpt lat="43.950610718932154" lon="12.05858672014824"><ele>629.6</ele><time>2026-04-06T09:54:45Z</time></trkpt><trkpt lat="43.9506011086094" lon="12.058736516888906"><ele>631.1999999999999</ele><time>2026-04-06T09:54:46Z</time></trkpt><trkpt lat="43.950601146807855" lon="12.058871244501088"><ele>632.8</ele><time>2026-04-06T09:54:47Z</time></trkpt><trkpt lat="43.950591051442146" lon="12.059041587096537"><ele>634.4</ele><time>2026-04-06T09:54:48Z</time></trkpt><trkpt lat="43.95056621483733" lon="12.059191574372512"><ele>636.0</ele><time>2026-04-06T09:54:49Z</time></trkpt><trkpt lat="43.95055154171118" lon="12.059338089410577"><ele>637.2</ele><time>2026-04-06T09:54:50Z</time></trkpt><trkpt lat="43.9505616734764" lon="12.059479262446724"><ele>638.4000000000001</ele><time>2026-04-06T09:54:51Z</time></trkpt><trkpt lat="43.95057496210562" lon="12.059610627791324"><ele>639.6</ele><time>2026-04-06T09:54:52Z</time></trkpt><trkpt lat="43.95058057154597" lon="12.05972576342404"><ele>640.8000000000001</ele><time>2026-04-06T09:54:53Z</time></trkpt><trkpt lat="43.95057296017653" lon="12.059849890779482"><ele>642.0</ele><time>2026-04-06T09:54:54Z</time></trkpt><trkpt lat="43.950558561454805" lon="12.059967360153278"><ele>643.4000000000001</ele><time>2026-04-06T09:54:55Z</time></trkpt><trkpt lat="43.950547256416286" lon="12.060071862705074"><ele>644.8000000000001</ele><time>2026-04-06T09:54:56Z</time></trkpt><trkpt lat="43.950544325322795" lon="12.060189077969316"><ele>646.2</ele><time>2026-04-06T09:54:57Z</time></trkpt><trkpt lat="43.95054980853169" lon="12.060316411610202"><ele>647.6</ele><time>2026-04-06T09:54:58Z</time></trkpt><trkpt lat="43.95056395852914" lon="12.060458004221886"><ele>649.0</ele><time>2026-04-06T09:54:59Z</time></trkpt><trkpt lat="43.95058393940576" lon="12.06060219548896"><ele>649.0</ele><time>2026-04-06T09:55:00Z</time></trkpt><trkpt lat="43.95061317299781" lon="12.060736674511686"><ele>649.0</ele><time>2026-04-06T09:55:01Z</time></trkpt><trkpt lat="43.950648060161335" lon="12.060830011097183"><ele>649.0</ele><time>2026-04-06T09:55:02Z</time></trkpt><trkpt lat="43.95073293760751" lon="12.060897582899237"><ele>649.0</ele><time>2026-04-06T09:55:03Z</time></trkpt><trkpt lat="43.95084771289853" lon="12.060971360150697"><ele>649.0</ele><time>2026-04-06T09:55:04Z</time></trkpt><trkpt lat="43.95103855649545" lon="12.061069550593675"><ele>648.8000000000001</ele><time>2026-04-06T09:55:05Z</time></trkpt><trkpt lat="43.95111918130436" lon="12.06117084602333"><ele>648.6</ele><time>2026-04-06T09:55:06Z</time></trkpt><trkpt lat="43.951154583290005" lon="12.061283964522865"><ele>648.4</ele><time>2026-04-06T09:55:07Z</time></trkpt><trkpt lat="43.95117461498033" lon="12.061425169241645"><ele>648.2</ele><time>2026-04-06T09:55:08Z</time></trkpt><trkpt lat="43.9511865167212" lon="12.0615530433666"><ele>648.0</ele><time>2026-04-06T09:55:09Z</time></trkpt><trkpt lat="43.9511714268002" lon="12.061684179556268"><ele>647.8</ele><time>2026-04-06T09:55:10Z</time></trkpt><trkpt lat="43.95112668873983" lon="12.061805273379111"><ele>647.5999999999999</ele><time>2026-04-06T09:55:11Z</time></trkpt><trkpt lat="43.95109019833291" lon="12.061927649161623"><ele>647.4000000000001</ele><time>2026-04-06T09:55:12Z</time></trkpt><trkpt lat="43.95106217291733" lon="12.062048098879503"><ele>647.2</ele><time>2026-04-06T09:55:13Z</time></trkpt><trkpt lat="43.95101872537541" lon="12.06215951611988"><ele>647.0</ele><time>2026-04-06T09:55:14Z</time></trkpt><trkpt lat="43.95097588991323" lon="12.062266255885184"><ele>647.0</ele><time>2026-04-06T09:55:15Z</time></trkpt><trkpt lat="43.95095207890323" lon="12.062397950400229"><ele>647.0</ele><time>2026-04-06T09:55:16Z</time></trkpt><trkpt lat="43.950956186318244" lon="12.062515625589644"><ele>647.0</ele><time>2026-04-06T09:55:17Z</time></trkpt><trkpt lat="43.950928365727435" lon="12.062617748912013"><ele>647.0</ele><time>2026-04-06T09:55:18Z</time></trkpt><trkpt lat="43.95087877982408" lon="12.062728588611026"><ele>647.0</ele><time>2026-04-06T09:55:19Z</time></trkpt><trkpt lat="43.95084711595607" lon="12.06282822532599"><ele>647.0</ele><time>2026-04-06T09:55:20Z</time></trkpt><trkpt lat="43.95084072958635" lon="12.062926935655268"><ele>646.8333333333333</ele><time>2026-04-06T09:55:21Z</time></trkpt><trkpt lat="43.9508523589439" lon="12.063056269638881"><ele>646.6666666666666</ele><time>2026-04-06T09:55:22Z</time></trkpt><trkpt lat="43.950897788032" lon="12.06315518516845"><ele>646.5</ele><time>2026-04-06T09:55:23Z</time></trkpt><trkpt lat="43.95092673048318" lon="12.063271324348646"><ele>646.3333333333334</ele><time>2026-04-06T09:55:24Z</time></trkpt><trkpt lat="43.9509336367833" lon="12.063402003301501"><ele>646.1666666666667</ele><time>2026-04-06T09:55:25Z</time></trkpt><trkpt lat="43.95095373534287" lon="12.06350359307045"><ele>646.0</ele><time>2026-04-06T09:55:26Z</time></trkpt><trkpt lat="43.95091982453955" lon="12.063625594141682"><ele>644.0</ele><time>2026-04-06T09:55:28Z</time></trkpt><trkpt lat="43.95098313256909" lon="12.063593885510457"><ele>642.0</ele><time>2026-04-06T09:55:34Z</time></trkpt><trkpt lat="43.951069760427316" lon="12.063522457123089"><ele>640.0</ele><time>2026-04-06T09:55:37Z</time></trkpt><trkpt lat="43.951182260229054" lon="12.063428025176536"><ele>638.0</ele><time>2026-04-06T09:55:39Z</time></trkpt><trkpt lat="43.95124671826281" lon="12.063353525483976"><ele>636.0</ele><time>2026-04-06T09:55:40Z</time></trkpt><trkpt lat="43.95132478677409" lon="12.063254529945896"><ele>636.0</ele><time>2026-04-06T09:55:41Z</time></trkpt><trkpt lat="43.95139758131022" lon="12.063161207723999"><ele>636.0</ele><time>2026-04-06T09:55:42Z</time></trkpt><trkpt lat="43.95147055724362" lon="12.06307727111787"><ele>636.0</ele><time>2026-04-06T09:55:43Z</time></trkpt><trkpt lat="43.95154288664202" lon="12.062999928307791"><ele>636.0</ele><time>2026-04-06T09:55:44Z</time></trkpt><trkpt lat="43.951603975832626" lon="12.062942410101114"><ele>636.0</ele><time>2026-04-06T09:55:45Z</time></trkpt><trkpt lat="43.951648973822586" lon="12.062871214136614"><ele>636.0</ele><time>2026-04-06T09:55:46Z</time></trkpt><trkpt lat="43.95170193854821" lon="12.0628100516171"><ele>633.0</ele><time>2026-04-06T09:55:47Z</time></trkpt><trkpt lat="43.95175891068042" lon="12.062764262341329"><ele>630.0</ele><time>2026-04-06T09:55:48Z</time></trkpt><trkpt lat="43.95187266135045" lon="12.062740345030278"><ele>627.0</ele><time>2026-04-06T09:55:50Z</time></trkpt><trkpt lat="43.95197079002768" lon="12.062696685602791"><ele>624.0</ele><time>2026-04-06T09:55:52Z</time></trkpt><trkpt lat="43.95206196444164" lon="12.062616004113144"><ele>621.0</ele><time>2026-04-06T09:55:54Z</time></trkpt><trkpt lat="43.95217728744516" lon="12.062565761253168"><ele>621.0</ele><time>2026-04-06T09:55:56Z</time></trkpt><trkpt lat="43.95226547075386" lon="12.062560667417921"><ele>621.0</ele><time>2026-04-06T09:55:58Z</time></trkpt><trkpt lat="43.95234989774045" lon="12.0625464209887"><ele>621.0</ele><time>2026-04-06T09:56:02Z</time></trkpt><trkpt lat="43.95254255115382" lon="12.06259956242748"><ele>621.0</ele><time>2026-04-06T09:56:04Z</time></trkpt><trkpt lat="43.95262092536966" lon="12.062628060076115"><ele>617.2</ele><time>2026-04-06T09:56:05Z</time></trkpt><trkpt lat="43.95270152003525" lon="12.062664061785481"><ele>613.4000000000001</ele><time>2026-04-06T09:56:06Z</time></trkpt><trkpt lat="43.952780313704764" lon="12.06269265709407"><ele>609.6</ele><time>2026-04-06T09:56:07Z</time></trkpt><trkpt lat="43.95287457359471" lon="12.062723432003937"><ele>605.8000000000001</ele><time>2026-04-06T09:56:08Z</time></trkpt><trkpt lat="43.952975375052034" lon="12.062746449805722"><ele>602.0</ele><time>2026-04-06T09:56:09Z</time></trkpt><trkpt lat="43.953072464535666" lon="12.062749530148487"><ele>602.0</ele><time>2026-04-06T09:56:10Z</time></trkpt><trkpt lat="43.953164831195586" lon="12.062756487812312"><ele>602.0</ele><time>2026-04-06T09:56:11Z</time></trkpt><trkpt lat="43.953245596908204" lon="12.062757153434543"><ele>602.0</ele><time>2026-04-06T09:56:12Z</time></trkpt><trkpt lat="43.95332148091987" lon="12.06274373571198"><ele>602.0</ele><time>2026-04-06T09:56:13Z</time></trkpt><trkpt lat="43.9533950716762" lon="12.06274613002571"><ele>602.0</ele><time>2026-04-06T09:56:14Z</time></trkpt><trkpt lat="43.95345868835435" lon="12.062756082467262"><ele>602.0</ele><time>2026-04-06T09:56:15Z</time></trkpt><trkpt lat="43.95349000497264" lon="12.062841649941074"><ele>596.5</ele><time>2026-04-06T09:56:18Z</time></trkpt><trkpt lat="43.953561164701256" lon="12.062900913769925"><ele>591.0</ele><time>2026-04-06T09:56:20Z</time></trkpt><trkpt lat="43.95362201088187" lon="12.062948154407591"><ele>585.5</ele><time>2026-04-06T09:56:22Z</time></trkpt><trkpt lat="43.953678613898845" lon="12.063006012633275"><ele>580.0</ele><time>2026-04-06T09:56:30Z</time></trkpt><trkpt lat="43.9537209574529" lon="12.063099461465804"><ele>574.5</ele><time>2026-04-06T09:56:33Z</time></trkpt><trkpt lat="43.953752306390165" lon="12.063213674146535"><ele>569.0</ele><time>2026-04-06T09:56:35Z</time></trkpt><trkpt lat="43.95382200285494" lon="12.063318112518859"><ele>569.0</ele><time>2026-04-06T09:56:37Z</time></trkpt><trkpt lat="43.95386651756593" lon="12.063431653553065"><ele>569.0</ele><time>2026-04-06T09:56:39Z</time></trkpt><trkpt lat="43.95398802392417" lon="12.063661762668202"><ele>569.0</ele><time>2026-04-06T09:56:41Z</time></trkpt><trkpt lat="43.954022395463895" lon="12.063737900360143"><ele>569.0</ele><time>2026-04-06T09:56:42Z</time></trkpt><trkpt lat="43.95409597797293" lon="12.063871087108787"><ele>569.0</ele><time>2026-04-06T09:56:44Z</time></trkpt><trkpt lat="43.954167413281226" lon="12.06398484230318"><ele>569.0</ele><time>2026-04-06T09:56:46Z</time></trkpt><trkpt lat="43.95423932852329" lon="12.06398973335237"><ele>569.0</ele><time>2026-04-06T09:56:48Z</time></trkpt><trkpt lat="43.9543078531808" lon="12.06404698268843"><ele>569.0</ele><time>2026-04-06T09:56:50Z</time></trkpt><trkpt lat="43.9543648797751" lon="12.064142501514532"><ele>569.0</ele><time>2026-04-06T09:56:52Z</time></trkpt><trkpt lat="43.954392322120256" lon="12.064241626358175"><ele>569.0</ele><time>2026-04-06T09:56:54Z</time></trkpt><trkpt lat="43.954443441570724" lon="12.064177636878279"><ele>562.8</ele><time>2026-04-06T09:56:56Z</time></trkpt><trkpt lat="43.95448789997214" lon="12.064062424283291"><ele>556.5999999999999</ele><time>2026-04-06T09:56:58Z</time></trkpt><trkpt lat="43.954553865508764" lon="12.063956399597057"><ele>550.4</ele><time>2026-04-06T09:57:00Z</time></trkpt><trkpt lat="43.954631027056536" lon="12.063965735090925"><ele>544.1999999999999</ele><time>2026-04-06T09:57:01Z</time></trkpt><trkpt lat="43.954726034097376" lon="12.06394230231549"><ele>538.0</ele><time>2026-04-06T09:57:04Z</time></trkpt><trkpt lat="43.95480079022503" lon="12.063891117007206"><ele>538.0</ele><time>2026-04-06T09:57:06Z</time></trkpt><trkpt lat="43.95498958331419" lon="12.063780924760946"><ele>538.0</ele><time>2026-04-06T09:57:08Z</time></trkpt><trkpt lat="43.955107197317886" lon="12.063719261423781"><ele>538.0</ele><time>2026-04-06T09:57:10Z</time></trkpt><trkpt lat="43.955220459363204" lon="12.063771846107985"><ele>530.0</ele><time>2026-04-06T09:57:12Z</time></trkpt><trkpt lat="43.955289510652705" lon="12.063792449672794"><ele>522.0</ele><time>2026-04-06T09:57:13Z</time></trkpt><trkpt lat="43.95539465231507" lon="12.063848749591902"><ele>514.0</ele><time>2026-04-06T09:57:15Z</time></trkpt><trkpt lat="43.95550210741147" lon="12.063894773327945"><ele>506.0</ele><time>2026-04-06T09:57:17Z</time></trkpt><trkpt lat="43.955622382063076" lon="12.06394311848162"><ele>498.0</ele><time>2026-04-06T09:57:19Z</time></trkpt><trkpt lat="43.95568756960554" lon="12.063950846047161"><ele>498.0</ele><time>2026-04-06T09:57:20Z</time></trkpt><trkpt lat="43.95578444484579" lon="12.063914316823357"><ele>497.99999999999994</ele><time>2026-04-06T09:57:22Z</time></trkpt><trkpt lat="43.9559104157338" lon="12.063903246015313"><ele>497.99999999999994</ele><time>2026-04-06T09:57:24Z</time></trkpt><trkpt lat="43.95600528531637" lon="12.063934433130155"><ele>498.0</ele><time>2026-04-06T09:57:26Z</time></trkpt><trkpt lat="43.95606995127258" lon="12.063961359397972"><ele>498.0</ele><time>2026-04-06T09:57:27Z</time></trkpt><trkpt lat="43.956138412787766" lon="12.063970467942902"><ele>494.1428571428571</ele><time>2026-04-06T09:57:28Z</time></trkpt><trkpt lat="43.95620571343374" lon="12.063959706623589"><ele>490.2857142857142</ele><time>2026-04-06T09:57:29Z</time></trkpt><trkpt lat="43.95628335681964" lon="12.063923297017759"><ele>486.42857142857144</ele><time>2026-04-06T09:57:30Z</time></trkpt><trkpt lat="43.95635500428921" lon="12.063926962317758"><ele>482.57142857142856</ele><time>2026-04-06T09:57:31Z</time></trkpt><trkpt lat="43.956408944893376" lon="12.063994464220176"><ele>478.7142857142857</ele><time>2026-04-06T09:57:32Z</time></trkpt><trkpt lat="43.95647255726051" lon="12.063977615499654"><ele>474.8571428571429</ele><time>2026-04-06T09:57:33Z</time></trkpt><trkpt lat="43.95655368935003" lon="12.06400030995051"><ele>471.00000000000006</ele><time>2026-04-06T09:57:34Z</time></trkpt><trkpt lat="43.956636608015565" lon="12.06403864354954"><ele>471.0</ele><time>2026-04-06T09:57:35Z</time></trkpt><trkpt lat="43.956698483923304" lon="12.064078379249413"><ele>471.0</ele><time>2026-04-06T09:57:36Z</time></trkpt><trkpt lat="43.95676479466477" lon="12.064130969438114"><ele>471.0</ele><time>2026-04-06T09:57:37Z</time></trkpt><trkpt lat="43.956836390605474" lon="12.064186921448428"><ele>471.0</ele><time>2026-04-06T09:57:38Z</time></trkpt><trkpt lat="43.95690080141422" lon="12.06425134697324"><ele>471.0</ele><time>2026-04-06T09:57:39Z</time></trkpt><trkpt lat="43.956959930380464" lon="12.064295812205996"><ele>471.0</ele><time>2026-04-06T09:57:40Z</time></trkpt><trkpt lat="43.95704113200811" lon="12.064291804985574"><ele>472.3333333333333</ele><time>2026-04-06T09:57:41Z</time></trkpt><trkpt lat="43.957132325335095" lon="12.064274704658688"><ele>473.66666666666663</ele><time>2026-04-06T09:57:42Z</time></trkpt><trkpt lat="43.95721027700992" lon="12.06424563121457"><ele>475.0</ele><time>2026-04-06T09:57:43Z</time></trkpt><trkpt lat="43.957280157382776" lon="12.064219378753744"><ele>476.3333333333333</ele><time>2026-04-06T09:57:44Z</time></trkpt><trkpt lat="43.95734793921874" lon="12.064200640179756"><ele>477.66666666666663</ele><time>2026-04-06T09:57:45Z</time></trkpt><trkpt lat="43.957423328526616" lon="12.064177898752925"><ele>479.0</ele><time>2026-04-06T09:57:46Z</time></trkpt><trkpt lat="43.957504903064056" lon="12.064155489393555"><ele>475.6</ele><time>2026-04-06T09:57:47Z</time></trkpt><trkpt lat="43.95759159519646" lon="12.064133728226437"><ele>472.2</ele><time>2026-04-06T09:57:48Z</time></trkpt><trkpt lat="43.95768214084811" lon="12.064133655546446"><ele>468.80000000000007</ele><time>2026-04-06T09:57:49Z</time></trkpt><trkpt lat="43.95775242471559" lon="12.064158251788074"><ele>465.40000000000003</ele><time>2026-04-06T09:57:50Z</time></trkpt><trkpt lat="43.95785207333301" lon="12.064246894167352"><ele>462.0</ele><time>2026-04-06T09:57:52Z</time></trkpt><trkpt lat="43.95790032272912" lon="12.064406259458597"><ele>462.0</ele><time>2026-04-06T09:57:54Z</time></trkpt><trkpt lat="43.9579615828937" lon="12.06452911792447"><ele>462.00000000000006</ele><time>2026-04-06T09:57:56Z</time></trkpt><trkpt lat="43.95805194483632" lon="12.064543649361509"><ele>462.00000000000006</ele><time>2026-04-06T09:57:58Z</time></trkpt><trkpt lat="43.95814545079472" lon="12.06456684063174"><ele>462.0</ele><time>2026-04-06T09:58:00Z</time></trkpt><trkpt lat="43.9582436725628" lon="12.064550933270873"><ele>462.0</ele><time>2026-04-06T09:58:03Z</time></trkpt><trkpt lat="43.95833477085178" lon="12.06454376266992"><ele>457.5</ele><time>2026-04-06T09:58:05Z</time></trkpt><trkpt lat="43.95840218654338" lon="12.064539358029593"><ele>453.0</ele><time>2026-04-06T09:58:07Z</time></trkpt><trkpt lat="43.958504939547616" lon="12.064549411772061"><ele>448.5</ele><time>2026-04-06T09:58:15Z</time></trkpt><trkpt lat="43.95858433330748" lon="12.064542666071818"><ele>444.0</ele><time>2026-04-06T09:58:16Z</time></trkpt><trkpt lat="43.958657856527246" lon="12.064537520044949"><ele>439.5</ele><time>2026-04-06T09:58:17Z</time></trkpt><trkpt lat="43.95873160238358" lon="12.064544119865783"><ele>435.0</ele><time>2026-04-06T09:58:18Z</time></trkpt><trkpt lat="43.95879887515336" lon="12.064532056126218"><ele>435.0</ele><time>2026-04-06T09:58:19Z</time></trkpt><trkpt lat="43.95885904716096" lon="12.064563091685402"><ele>435.0</ele><time>2026-04-06T09:58:20Z</time></trkpt><trkpt lat="43.958909604319025" lon="12.064637825931564"><ele>435.0</ele><time>2026-04-06T09:58:21Z</time></trkpt><trkpt lat="43.95894340387771" lon="12.064733083754057"><ele>435.0</ele><time>2026-04-06T09:58:22Z</time></trkpt><trkpt lat="43.958956303774066" lon="12.064821329789403"><ele>435.0</ele><time>2026-04-06T09:58:23Z</time></trkpt><trkpt lat="43.958923947720606" lon="12.064977482273566"><ele>435.0</ele><time>2026-04-06T09:58:25Z</time></trkpt><trkpt lat="43.95895296969181" lon="12.065057876959758"><ele>436.6666666666667</ele><time>2026-04-06T09:58:26Z</time></trkpt><trkpt lat="43.95900888404737" lon="12.065132109806484"><ele>438.33333333333337</ele><time>2026-04-06T09:58:27Z</time></trkpt><trkpt lat="43.95905733099037" lon="12.065215681820108"><ele>440.0</ele><time>2026-04-06T09:58:28Z</time></trkpt><trkpt lat="43.95909359019623" lon="12.06531117792414"><ele>441.6666666666667</ele><time>2026-04-06T09:58:29Z</time></trkpt><trkpt lat="43.95912924503777" lon="12.065405971491614"><ele>443.33333333333337</ele><time>2026-04-06T09:58:30Z</time></trkpt><trkpt lat="43.9591671347919" lon="12.065507602866985"><ele>445.0</ele><time>2026-04-06T09:58:31Z</time></trkpt><trkpt lat="43.95919228495765" lon="12.06562695078295"><ele>439.33333333333337</ele><time>2026-04-06T09:58:32Z</time></trkpt><trkpt lat="43.959220228247176" lon="12.065739605247487"><ele>433.6666666666667</ele><time>2026-04-06T09:58:33Z</time></trkpt><trkpt lat="43.959266897769886" lon="12.065845185817441"><ele>428.0</ele><time>2026-04-06T09:58:34Z</time></trkpt><trkpt lat="43.95930473904572" lon="12.06593598293643"><ele>422.33333333333337</ele><time>2026-04-06T09:58:35Z</time></trkpt><trkpt lat="43.95934773333311" lon="12.066037430270734"><ele>416.6666666666667</ele><time>2026-04-06T09:58:36Z</time></trkpt><trkpt lat="43.959395880402184" lon="12.066143446387409"><ele>411.0</ele><time>2026-04-06T09:58:37Z</time></trkpt><trkpt lat="43.95944193531201" lon="12.066224162491094"><ele>411.0</ele><time>2026-04-06T09:58:38Z</time></trkpt><trkpt lat="43.959486013127645" lon="12.066294149293421"><ele>411.0</ele><time>2026-04-06T09:58:39Z</time></trkpt><trkpt lat="43.959535150670156" lon="12.066376116883522"><ele>411.0</ele><time>2026-04-06T09:58:41Z</time></trkpt><trkpt lat="43.95961596205612" lon="12.06640703462575"><ele>411.0</ele><time>2026-04-06T09:58:43Z</time></trkpt><trkpt lat="43.95970694417173" lon="12.066396152006156"><ele>411.0</ele><time>2026-04-06T09:58:45Z</time></trkpt><trkpt lat="43.959785062748864" lon="12.066627046970254"><ele>411.8333333333333</ele><time>2026-04-06T09:58:48Z</time></trkpt><trkpt lat="43.959749127549486" lon="12.066723967061066"><ele>412.66666666666663</ele><time>2026-04-06T09:58:49Z</time></trkpt><trkpt lat="43.95973498059596" lon="12.066851690432228"><ele>413.5</ele><time>2026-04-06T09:58:50Z</time></trkpt><trkpt lat="43.95975901329736" lon="12.066963781439993"><ele>414.3333333333333</ele><time>2026-04-06T09:58:51Z</time></trkpt><trkpt lat="43.959807062917946" lon="12.067060318336498"><ele>415.16666666666663</ele><time>2026-04-06T09:58:52Z</time></trkpt><trkpt lat="43.95985889196788" lon="12.067130466312904"><ele>416.0</ele><time>2026-04-06T09:58:53Z</time></trkpt><trkpt lat="43.9599146472126" lon="12.067198974734923"><ele>415.99999999999994</ele><time>2026-04-06T09:58:54Z</time></trkpt><trkpt lat="43.959975409873955" lon="12.067272060682114"><ele>416.0</ele><time>2026-04-06T09:58:55Z</time></trkpt><trkpt lat="43.960025347357764" lon="12.067341978486215"><ele>416.0</ele><time>2026-04-06T09:58:56Z</time></trkpt><trkpt lat="43.96004285244035" lon="12.0674493355024"><ele>416.0</ele><time>2026-04-06T09:58:57Z</time></trkpt><trkpt lat="43.96006761084231" lon="12.06754219009002"><ele>415.99999999999994</ele><time>2026-04-06T09:58:58Z</time></trkpt><trkpt lat="43.96007393509257" lon="12.067674634459998"><ele>416.0</ele><time>2026-04-06T09:58:59Z</time></trkpt><trkpt lat="43.9600651641516" lon="12.067797892526464"><ele>410.49999999999994</ele><time>2026-04-06T09:59:00Z</time></trkpt><trkpt lat="43.960059844340144" lon="12.067914205850359"><ele>405.0</ele><time>2026-04-06T09:59:01Z</time></trkpt><trkpt lat="43.960071327249885" lon="12.06801325242465"><ele>399.5</ele><time>2026-04-06T09:59:02Z</time></trkpt><trkpt lat="43.960105577750845" lon="12.068096889018221"><ele>394.0</ele><time>2026-04-06T09:59:03Z</time></trkpt><trkpt lat="43.96015430501416" lon="12.068186033210495"><ele>388.5</ele><time>2026-04-06T09:59:04Z</time></trkpt><trkpt lat="43.96021646341874" lon="12.068283502567525"><ele>383.0</ele><time>2026-04-06T09:59:05Z</time></trkpt><trkpt lat="43.96027969004217" lon="12.068372168544311"><ele>383.0</ele><time>2026-04-06T09:59:06Z</time></trkpt><trkpt lat="43.96034671003671" lon="12.068442057450438"><ele>383.0</ele><time>2026-04-06T09:59:07Z</time></trkpt><trkpt lat="43.960431118030215" lon="12.068408961143666"><ele>383.0</ele><time>2026-04-06T09:59:08Z</time></trkpt><trkpt lat="43.96052641162769" lon="12.068400777517759"><ele>383.0</ele><time>2026-04-06T09:59:09Z</time></trkpt><trkpt lat="43.96059079800758" lon="12.068348751157211"><ele>383.0</ele><time>2026-04-06T09:59:10Z</time></trkpt><trkpt lat="43.960611721638095" lon="12.068238939216299"><ele>383.0</ele><time>2026-04-06T09:59:11Z</time></trkpt><trkpt lat="43.96063856999857" lon="12.068146769173548"><ele>383.0</ele><time>2026-04-06T09:59:12Z</time></trkpt><trkpt lat="43.960722698359575" lon="12.068110124102455"><ele>383.0</ele><time>2026-04-06T09:59:14Z</time></trkpt><trkpt lat="43.960804563757385" lon="12.068182198074888"><ele>383.0</ele><time>2026-04-06T09:59:15Z</time></trkpt><trkpt lat="43.96086150249102" lon="12.06828880593098"><ele>383.0</ele><time>2026-04-06T09:59:16Z</time></trkpt><trkpt lat="43.960913298240854" lon="12.068389179048033"><ele>383.0</ele><time>2026-04-06T09:59:17Z</time></trkpt><trkpt lat="43.96097539014132" lon="12.068444678820226"><ele>383.0</ele><time>2026-04-06T09:59:18Z</time></trkpt><trkpt lat="43.961092549374065" lon="12.068409716562664"><ele>378.0</ele><time>2026-04-06T09:59:20Z</time></trkpt><trkpt lat="43.9611720654838" lon="12.068353490318847"><ele>373.0</ele><time>2026-04-06T09:59:21Z</time></trkpt><trkpt lat="43.961277611971994" lon="12.06837791965896"><ele>368.0</ele><time>2026-04-06T09:59:23Z</time></trkpt><trkpt lat="43.961339313067455" lon="12.068427352393595"><ele>363.0</ele><time>2026-04-06T09:59:24Z</time></trkpt><trkpt lat="43.96140815781827" lon="12.068496862657465"><ele>358.0</ele><time>2026-04-06T09:59:25Z</time></trkpt><trkpt lat="43.96147075780996" lon="12.068583588385044"><ele>353.0</ele><time>2026-04-06T09:59:26Z</time></trkpt><trkpt lat="43.96152209462386" lon="12.068664539129086"><ele>353.0</ele><time>2026-04-06T09:59:27Z</time></trkpt><trkpt lat="43.96156955563769" lon="12.068734162635586"><ele>353.0</ele><time>2026-04-06T09:59:28Z</time></trkpt><trkpt lat="43.9615740278324" lon="12.068866038676818"><ele>353.0</ele><time>2026-04-06T09:59:30Z</time></trkpt><trkpt lat="43.96150808250604" lon="12.068934200520436"><ele>353.0</ele><time>2026-04-06T09:59:31Z</time></trkpt><trkpt lat="43.961425671263854" lon="12.069007107002696"><ele>353.0</ele><time>2026-04-06T09:59:32Z</time></trkpt><trkpt lat="43.961348092862146" lon="12.069085717447305"><ele>353.0</ele><time>2026-04-06T09:59:33Z</time></trkpt><trkpt lat="43.96128114267275" lon="12.069161727281335"><ele>352.1666666666667</ele><time>2026-04-06T09:59:34Z</time></trkpt><trkpt lat="43.96122551841351" lon="12.069213325626972"><ele>351.33333333333337</ele><time>2026-04-06T09:59:35Z</time></trkpt><trkpt lat="43.961101334438226" lon="12.069225166815025"><ele>350.5</ele><time>2026-04-06T09:59:37Z</time></trkpt><trkpt lat="43.96102021075647" lon="12.069288276995872"><ele>349.6666666666667</ele><time>2026-04-06T09:59:39Z</time></trkpt><trkpt lat="43.961020565756165" lon="12.069380805795491"><ele>348.8333333333333</ele><time>2026-04-06T09:59:40Z</time></trkpt><trkpt lat="43.961067064246635" lon="12.069497109285084"><ele>348.0</ele><time>2026-04-06T09:59:41Z</time></trkpt><trkpt lat="43.96113975860497" lon="12.069622844718056"><ele>348.0</ele><time>2026-04-06T09:59:42Z</time></trkpt><trkpt lat="43.96119708927382" lon="12.069741148303299"><ele>348.0</ele><time>2026-04-06T09:59:43Z</time></trkpt><trkpt lat="43.96122523503674" lon="12.069853726607226"><ele>348.0</ele><time>2026-04-06T09:59:44Z</time></trkpt><trkpt lat="43.96127871407998" lon="12.06996852204453"><ele>348.0</ele><time>2026-04-06T09:59:45Z</time></trkpt><trkpt lat="43.96135866490404" lon="12.070042917191623"><ele>348.0</ele><time>2026-04-06T09:59:46Z</time></trkpt><trkpt lat="43.961439778845545" lon="12.070118833177894"><ele>345.5</ele><time>2026-04-06T09:59:47Z</time></trkpt><trkpt lat="43.961497262296696" lon="12.070197213673998"><ele>343.0</ele><time>2026-04-06T09:59:48Z</time></trkpt><trkpt lat="43.96153885466906" lon="12.070289662734018"><ele>340.5</ele><time>2026-04-06T09:59:49Z</time></trkpt><trkpt lat="43.96154883693511" lon="12.07039751350888"><ele>338.0</ele><time>2026-04-06T09:59:50Z</time></trkpt><trkpt lat="43.96152323292556" lon="12.070509389505675"><ele>335.5</ele><time>2026-04-06T09:59:51Z</time></trkpt><trkpt lat="43.96148475679421" lon="12.070596987482453"><ele>333.0</ele><time>2026-04-06T09:59:52Z</time></trkpt><trkpt lat="43.96141203873007" lon="12.070672580511138"><ele>333.0</ele><time>2026-04-06T09:59:53Z</time></trkpt><trkpt lat="43.961319447299715" lon="12.07065353713878"><ele>333.0</ele><time>2026-04-06T09:59:54Z</time></trkpt><trkpt lat="43.96125947933346" lon="12.070615161218539"><ele>333.0</ele><time>2026-04-06T09:59:55Z</time></trkpt><trkpt lat="43.961166395266375" lon="12.070630559023972"><ele>333.0</ele><time>2026-04-06T09:59:57Z</time></trkpt><trkpt lat="43.961213205184535" lon="12.070789537255989"><ele>333.0</ele><time>2026-04-06T09:59:59Z</time></trkpt><trkpt lat="43.96126498389307" lon="12.070856675706798"><ele>333.0</ele><time>2026-04-06T10:00:00Z</time></trkpt><trkpt lat="43.961293284765304" lon="12.071013789411793"><ele>333.0</ele><time>2026-04-06T10:00:02Z</time></trkpt><trkpt lat="43.96135644043467" lon="12.07107147544686"><ele>333.0</ele><time>2026-04-06T10:00:03Z</time></trkpt><trkpt lat="43.961462649325156" lon="12.071069610580818"><ele>333.0</ele><time>2026-04-06T10:00:04Z</time></trkpt><trkpt lat="43.96157061149739" lon="12.071061858991737"><ele>333.0</ele><time>2026-04-06T10:00:05Z</time></trkpt><trkpt lat="43.96167750408705" lon="12.071008996175635"><ele>333.0</ele><time>2026-04-06T10:00:06Z</time></trkpt><trkpt lat="43.96179378215235" lon="12.07100301111851"><ele>334.5</ele><time>2026-04-06T10:00:07Z</time></trkpt><trkpt lat="43.9619042264761" lon="12.07095449356343"><ele>336.0</ele><time>2026-04-06T10:00:08Z</time></trkpt><trkpt lat="43.96205233887059" lon="12.070894787792385"><ele>337.5</ele><time>2026-04-06T10:00:10Z</time></trkpt><trkpt lat="43.96214086306949" lon="12.07082844158962"><ele>339.0</ele><time>2026-04-06T10:00:11Z</time></trkpt><trkpt lat="43.96224005546606" lon="12.070746876555509"><ele>334.5</ele><time>2026-04-06T10:00:12Z</time></trkpt><trkpt lat="43.96238438464914" lon="12.070632804104774"><ele>330.0</ele><time>2026-04-06T10:00:13Z</time></trkpt><trkpt lat="43.96250357630336" lon="12.070547472169332"><ele>325.5</ele><time>2026-04-06T10:00:14Z</time></trkpt><trkpt lat="43.96263294014395" lon="12.070475787492121"><ele>321.0</ele><time>2026-04-06T10:00:15Z</time></trkpt><trkpt lat="43.96273151364013" lon="12.070429662002587"><ele>319.0</ele><time>2026-04-06T10:00:16Z</time></trkpt><trkpt lat="43.962805111594214" lon="12.07038428959215"><ele>317.0</ele><time>2026-04-06T10:00:17Z</time></trkpt><trkpt lat="43.962881460251126" lon="12.070320466596034"><ele>315.0</ele><time>2026-04-06T10:00:18Z</time></trkpt><trkpt lat="43.96294046819865" lon="12.070254557675739"><ele>313.0</ele><time>2026-04-06T10:00:19Z</time></trkpt><trkpt lat="43.96301206623123" lon="12.070276481812208"><ele>311.0</ele><time>2026-04-06T10:00:20Z</time></trkpt><trkpt lat="43.96310352446155" lon="12.070374494706396"><ele>309.0</ele><time>2026-04-06T10:00:21Z</time></trkpt><trkpt lat="43.96319136586113" lon="12.070475713018869"><ele>309.0</ele><time>2026-04-06T10:00:22Z</time></trkpt><trkpt lat="43.963254110127885" lon="12.070562115177625"><ele>309.0</ele><time>2026-04-06T10:00:23Z</time></trkpt><trkpt lat="43.963295766063744" lon="12.070650539276667"><ele>309.0</ele><time>2026-04-06T10:00:24Z</time></trkpt><trkpt lat="43.96333601057089" lon="12.070725296514274"><ele>309.0</ele><time>2026-04-06T10:00:25Z</time></trkpt><trkpt lat="43.963388654639175" lon="12.070799212820374"><ele>309.0</ele><time>2026-04-06T10:00:26Z</time></trkpt><trkpt lat="43.963452101105965" lon="12.070880117055856"><ele>309.0</ele><time>2026-04-06T10:00:27Z</time></trkpt><trkpt lat="43.963526122880445" lon="12.070966172194765"><ele>309.25</ele><time>2026-04-06T10:00:28Z</time></trkpt><trkpt lat="43.96360468286856" lon="12.071058251274133"><ele>309.5</ele><time>2026-04-06T10:00:29Z</time></trkpt><trkpt lat="43.96370944753064" lon="12.071130562039759"><ele>309.75</ele><time>2026-04-06T10:00:30Z</time></trkpt><trkpt lat="43.9638207630517" lon="12.071201564033895"><ele>310.0</ele><time>2026-04-06T10:00:31Z</time></trkpt><trkpt lat="43.96393536731746" lon="12.071302658437913"><ele>310.0</ele><time>2026-04-06T10:00:32Z</time></trkpt><trkpt lat="43.964061508932105" lon="12.071407230199867"><ele>310.0</ele><time>2026-04-06T10:00:33Z</time></trkpt><trkpt lat="43.96419475500708" lon="12.071514995210837"><ele>310.0</ele><time>2026-04-06T10:00:34Z</time></trkpt><trkpt lat="43.964325408086765" lon="12.071621872184236"><ele>309.3333333333333</ele><time>2026-04-06T10:00:35Z</time></trkpt><trkpt lat="43.96446167610903" lon="12.071729192941627"><ele>308.6666666666667</ele><time>2026-04-06T10:00:36Z</time></trkpt><trkpt lat="43.964601692421176" lon="12.07181544138489"><ele>308.0</ele><time>2026-04-06T10:00:37Z</time></trkpt><trkpt lat="43.96473982182724" lon="12.07189812614762"><ele>308.0</ele><time>2026-04-06T10:00:38Z</time></trkpt><trkpt lat="43.9648628403341" lon="12.07199836029615"><ele>308.0</ele><time>2026-04-06T10:00:39Z</time></trkpt><trkpt lat="43.96499372300261" lon="12.072079020523216"><ele>308.0</ele><time>2026-04-06T10:00:40Z</time></trkpt><trkpt lat="43.9651122033983" lon="12.072125331449895"><ele>308.0</ele><time>2026-04-06T10:00:41Z</time></trkpt><trkpt lat="43.965248577979914" lon="12.07216356602019"><ele>305.5</ele><time>2026-04-06T10:00:42Z</time></trkpt><trkpt lat="43.965376029375726" lon="12.072198770984933"><ele>303.0</ele><time>2026-04-06T10:00:43Z</time></trkpt><trkpt lat="43.96549709734097" lon="12.072214225664199"><ele>300.5</ele><time>2026-04-06T10:00:44Z</time></trkpt><trkpt lat="43.965610612308716" lon="12.072232615819598"><ele>298.0</ele><time>2026-04-06T10:00:45Z</time></trkpt><trkpt lat="43.96571094162945" lon="12.072246529745035"><ele>298.0</ele><time>2026-04-06T10:00:46Z</time></trkpt><trkpt lat="43.96578662928324" lon="12.072232867739345"><ele>298.0</ele><time>2026-04-06T10:00:47Z</time></trkpt><trkpt lat="43.96584501284967" lon="12.072191254368597"><ele>298.0</ele><time>2026-04-06T10:00:50Z</time></trkpt><trkpt lat="43.96582466452531" lon="12.072105575732795"><ele>298.0</ele><time>2026-04-06T10:00:53Z</time></trkpt><trkpt lat="43.9657080418596" lon="12.072049348205107"><ele>298.0</ele><time>2026-04-06T10:00:55Z</time></trkpt><trkpt lat="43.965625734071985" lon="12.072011730396635"><ele>298.0</ele><time>2026-04-06T10:00:56Z</time></trkpt><trkpt lat="43.965535688896644" lon="12.07197605124453"><ele>298.0</ele><time>2026-04-06T10:00:57Z</time></trkpt><trkpt lat="43.96546308173671" lon="12.07193523030032"><ele>298.0</ele><time>2026-04-06T10:00:58Z</time></trkpt><trkpt lat="43.96543249092699" lon="12.071855975484064"><ele>298.0</ele><time>2026-04-06T10:00:59Z</time></trkpt><trkpt lat="43.96545710119636" lon="12.071769974703974"><ele>298.0</ele><time>2026-04-06T10:01:00Z</time></trkpt><trkpt lat="43.965521465486844" lon="12.071718262585128"><ele>298.0</ele><time>2026-04-06T10:01:01Z</time></trkpt><trkpt lat="43.96562486227427" lon="12.071748634008323"><ele>298.0</ele><time>2026-04-06T10:01:02Z</time></trkpt><trkpt lat="43.96572321020544" lon="12.071759275800359"><ele>298.0</ele><time>2026-04-06T10:01:03Z</time></trkpt><trkpt lat="43.96582574583471" lon="12.071776478750875"><ele>298.0</ele><time>2026-04-06T10:01:04Z</time></trkpt><trkpt lat="43.96593649257816" lon="12.071790484317656"><ele>298.0</ele><time>2026-04-06T10:01:05Z</time></trkpt><trkpt lat="43.966032812543126" lon="12.071798500038117"><ele>298.0</ele><time>2026-04-06T10:01:06Z</time></trkpt><trkpt lat="43.966133518929915" lon="12.071811631277775"><ele>298.0</ele><time>2026-04-06T10:01:07Z</time></trkpt><trkpt lat="43.966235219774816" lon="12.071831707194606"><ele>295.8</ele><time>2026-04-06T10:01:08Z</time></trkpt><trkpt lat="43.96633539264234" lon="12.071849378190894"><ele>293.6</ele><time>2026-04-06T10:01:09Z</time></trkpt><trkpt lat="43.96641477759018" lon="12.071852480072872"><ele>291.4</ele><time>2026-04-06T10:01:10Z</time></trkpt><trkpt lat="43.966526204503936" lon="12.071794263568348"><ele>289.2</ele><time>2026-04-06T10:01:12Z</time></trkpt><trkpt lat="43.966475926673006" lon="12.071633083373225"><ele>287.0</ele><time>2026-04-06T10:01:14Z</time></trkpt><trkpt lat="43.96638551298479" lon="12.071532798224005"><ele>286.4</ele><time>2026-04-06T10:01:15Z</time></trkpt><trkpt lat="43.96630383409764" lon="12.071452193281996"><ele>285.79999999999995</ele><time>2026-04-06T10:01:16Z</time></trkpt><trkpt lat="43.96625538249979" lon="12.071344530525085"><ele>285.2</ele><time>2026-04-06T10:01:17Z</time></trkpt><trkpt lat="43.96622370093041" lon="12.071226571224404"><ele>284.59999999999997</ele><time>2026-04-06T10:01:18Z</time></trkpt><trkpt lat="43.966221556998015" lon="12.071089790206857"><ele>284.0</ele><time>2026-04-06T10:01:19Z</time></trkpt><trkpt lat="43.96622904128641" lon="12.070945790467029"><ele>284.0</ele><time>2026-04-06T10:01:20Z</time></trkpt><trkpt lat="43.96625823294357" lon="12.070800502807625"><ele>284.0</ele><time>2026-04-06T10:01:21Z</time></trkpt><trkpt lat="43.96630204344307" lon="12.070667951281832"><ele>284.0</ele><time>2026-04-06T10:01:22Z</time></trkpt><trkpt lat="43.96635391870447" lon="12.070563461844774"><ele>284.0</ele><time>2026-04-06T10:01:23Z</time></trkpt><trkpt lat="43.966399271270134" lon="12.070456294296017"><ele>284.0</ele><time>2026-04-06T10:01:24Z</time></trkpt><trkpt lat="43.966445877633376" lon="12.070341302181065"><ele>286.2</ele><time>2026-04-06T10:01:25Z</time></trkpt><trkpt lat="43.9664850780108" lon="12.07023299224107"><ele>288.4</ele><time>2026-04-06T10:01:26Z</time></trkpt><trkpt lat="43.966501669463966" lon="12.070117524209653"><ele>290.6</ele><time>2026-04-06T10:01:27Z</time></trkpt><trkpt lat="43.96647690828999" lon="12.07002055032532"><ele>292.8</ele><time>2026-04-06T10:01:28Z</time></trkpt><trkpt lat="43.96638236153412" lon="12.069928732678639"><ele>295.0</ele><time>2026-04-06T10:01:29Z</time></trkpt><trkpt lat="43.96635197451635" lon="12.069807353105155"><ele>295.0</ele><time>2026-04-06T10:01:31Z</time></trkpt><trkpt lat="43.96643633278433" lon="12.069875009166035"><ele>295.0</ele><time>2026-04-06T10:01:34Z</time></trkpt><trkpt lat="43.96650615622762" lon="12.069971283023479"><ele>295.0</ele><time>2026-04-06T10:01:35Z</time></trkpt><trkpt lat="43.96657340057018" lon="12.070065184702463"><ele>295.0</ele><time>2026-04-06T10:01:36Z</time></trkpt><trkpt lat="43.966649518177555" lon="12.070171477183683"><ele>295.0</ele><time>2026-04-06T10:01:37Z</time></trkpt><trkpt lat="43.96673883463529" lon="12.070294607791222"><ele>302.5</ele><time>2026-04-06T10:01:38Z</time></trkpt><trkpt lat="43.9668222176903" lon="12.070400241220698"><ele>310.0</ele><time>2026-04-06T10:01:39Z</time></trkpt><trkpt lat="43.96692493342294" lon="12.070491250836449"><ele>317.5</ele><time>2026-04-06T10:01:40Z</time></trkpt><trkpt lat="43.96705342594097" lon="12.070527801917459"><ele>325.0</ele><time>2026-04-06T10:01:41Z</time></trkpt><trkpt lat="43.967178326718184" lon="12.070561889875334"><ele>325.0</ele><time>2026-04-06T10:01:42Z</time></trkpt><trkpt lat="43.96730068088994" lon="12.070579743361872"><ele>325.0</ele><time>2026-04-06T10:01:43Z</time></trkpt><trkpt lat="43.967443424563875" lon="12.070621404031423"><ele>325.0</ele><time>2026-04-06T10:01:44Z</time></trkpt><trkpt lat="43.9675883521368" lon="12.070653107306251"><ele>325.0</ele><time>2026-04-06T10:01:45Z</time></trkpt><trkpt lat="43.96772455958279" lon="12.070701245065887"><ele>319.0</ele><time>2026-04-06T10:01:46Z</time></trkpt><trkpt lat="43.96786556417305" lon="12.070773329249786"><ele>313.0</ele><time>2026-04-06T10:01:47Z</time></trkpt><trkpt lat="43.968009626575274" lon="12.070853138495409"><ele>307.0</ele><time>2026-04-06T10:01:48Z</time></trkpt><trkpt lat="43.96812901736777" lon="12.070999706447397"><ele>307.0</ele><time>2026-04-06T10:01:49Z</time></trkpt><trkpt lat="43.96823549980533" lon="12.071152478706738"><ele>307.0</ele><time>2026-04-06T10:01:50Z</time></trkpt><trkpt lat="43.96833361958261" lon="12.07130652879107"><ele>307.0</ele><time>2026-04-06T10:01:51Z</time></trkpt><trkpt lat="43.968444108835776" lon="12.071480356493026"><ele>312.3333333333333</ele><time>2026-04-06T10:01:52Z</time></trkpt><trkpt lat="43.968547163233524" lon="12.071650180032657"><ele>317.6666666666667</ele><time>2026-04-06T10:01:53Z</time></trkpt><trkpt lat="43.968650700340696" lon="12.071834421543045"><ele>323.0</ele><time>2026-04-06T10:01:54Z</time></trkpt><trkpt lat="43.968705153447026" lon="12.07207474212562"><ele>323.0</ele><time>2026-04-06T10:01:55Z</time></trkpt><trkpt lat="43.96877163917025" lon="12.072328188441144"><ele>323.0</ele><time>2026-04-06T10:01:56Z</time></trkpt><trkpt lat="43.96884445228746" lon="12.072521027644248"><ele>323.0</ele><time>2026-04-06T10:01:57Z</time></trkpt><trkpt lat="43.96894897478545" lon="12.072714751571262"><ele>319.0</ele><time>2026-04-06T10:01:58Z</time></trkpt><trkpt lat="43.9690746211159" lon="12.072870119322673"><ele>315.0</ele><time>2026-04-06T10:01:59Z</time></trkpt><trkpt lat="43.969131062325076" lon="12.073067318128613"><ele>311.0</ele><time>2026-04-06T10:02:00Z</time></trkpt><trkpt lat="43.96915890017742" lon="12.073265490178454"><ele>310.33333333333337</ele><time>2026-04-06T10:02:01Z</time></trkpt><trkpt lat="43.969187324516724" lon="12.07348824454633"><ele>309.6666666666667</ele><time>2026-04-06T10:02:02Z</time></trkpt><trkpt lat="43.96918439661951" lon="12.07371635087198"><ele>309.0</ele><time>2026-04-06T10:02:03Z</time></trkpt><trkpt lat="43.9691774315368" lon="12.073925256466225"><ele>309.0</ele><time>2026-04-06T10:02:04Z</time></trkpt><trkpt lat="43.96918576682821" lon="12.074100848958059"><ele>309.0</ele><time>2026-04-06T10:02:05Z</time></trkpt><trkpt lat="43.96922993796934" lon="12.074297542068875"><ele>309.0</ele><time>2026-04-06T10:02:06Z</time></trkpt><trkpt lat="43.96929020286588" lon="12.074483766486724"><ele>309.0</ele><time>2026-04-06T10:02:07Z</time></trkpt><trkpt lat="43.96935866979259" lon="12.074666383561784"><ele>313.3333333333333</ele><time>2026-04-06T10:02:08Z</time></trkpt><trkpt lat="43.969425198507565" lon="12.074860575474334"><ele>317.66666666666663</ele><time>2026-04-06T10:02:09Z</time></trkpt><trkpt lat="43.96946755579346" lon="12.075080349008873"><ele>322.0</ele><time>2026-04-06T10:02:10Z</time></trkpt><trkpt lat="43.96948057058491" lon="12.07529054123594"><ele>322.0</ele><time>2026-04-06T10:02:11Z</time></trkpt><trkpt lat="43.96950074150098" lon="12.075477051184016"><ele>322.0</ele><time>2026-04-06T10:02:12Z</time></trkpt><trkpt lat="43.969551143329966" lon="12.075628529968117"><ele>322.0</ele><time>2026-04-06T10:02:13Z</time></trkpt><trkpt lat="43.96964795338224" lon="12.075714908338997"><ele>322.0</ele><time>2026-04-06T10:02:14Z</time></trkpt><trkpt lat="43.96975956156436" lon="12.075764795887828"><ele>320.40000000000003</ele><time>2026-04-06T10:02:15Z</time></trkpt><trkpt lat="43.96986359528195" lon="12.075824803406245"><ele>318.8</ele><time>2026-04-06T10:02:16Z</time></trkpt><trkpt lat="43.96993017651018" lon="12.075915059579335"><ele>317.2</ele><time>2026-04-06T10:02:17Z</time></trkpt><trkpt lat="43.96996342688672" lon="12.076019420350253"><ele>315.6</ele><time>2026-04-06T10:02:18Z</time></trkpt><trkpt lat="43.969958478394844" lon="12.07612912723437"><ele>314.0</ele><time>2026-04-06T10:02:19Z</time></trkpt><trkpt lat="43.969866133349456" lon="12.076234375111177"><ele>314.0</ele><time>2026-04-06T10:02:20Z</time></trkpt><trkpt lat="43.969828382558546" lon="12.076381076875082"><ele>314.0</ele><time>2026-04-06T10:02:21Z</time></trkpt><trkpt lat="43.96976482665515" lon="12.076505901874015"><ele>314.0</ele><time>2026-04-06T10:02:22Z</time></trkpt><trkpt lat="43.969731576530194" lon="12.076637882198904"><ele>314.0</ele><time>2026-04-06T10:02:23Z</time></trkpt><trkpt lat="43.96973549718023" lon="12.07677662645496"><ele>314.0</ele><time>2026-04-06T10:02:24Z</time></trkpt><trkpt lat="43.96977316911084" lon="12.07690665435508"><ele>313.83333333333337</ele><time>2026-04-06T10:02:25Z</time></trkpt><trkpt lat="43.96981741829207" lon="12.077002694105548"><ele>313.6666666666667</ele><time>2026-04-06T10:02:26Z</time></trkpt><trkpt lat="43.969863375626986" lon="12.077098856847241"><ele>313.5</ele><time>2026-04-06T10:02:27Z</time></trkpt><trkpt lat="43.96993341060803" lon="12.077149306754405"><ele>313.3333333333333</ele><time>2026-04-06T10:02:28Z</time></trkpt><trkpt lat="43.970004652277304" lon="12.077205432314933"><ele>313.16666666666663</ele><time>2026-04-06T10:02:29Z</time></trkpt><trkpt lat="43.9700674519661" lon="12.07725970796498"><ele>313.0</ele><time>2026-04-06T10:02:30Z</time></trkpt><trkpt lat="43.970126280582996" lon="12.07731321049057"><ele>315.5</ele><time>2026-04-06T10:02:31Z</time></trkpt><trkpt lat="43.970181984279506" lon="12.077365777281125"><ele>318.0</ele><time>2026-04-06T10:02:32Z</time></trkpt><trkpt lat="43.970227732724524" lon="12.07744157243228"><ele>320.5</ele><time>2026-04-06T10:02:33Z</time></trkpt><trkpt lat="43.97027732146201" lon="12.077527067808116"><ele>323.0</ele><time>2026-04-06T10:02:34Z</time></trkpt><trkpt lat="43.970317626400615" lon="12.077627126091503"><ele>325.5</ele><time>2026-04-06T10:02:35Z</time></trkpt><trkpt lat="43.97035646115488" lon="12.077732085889297"><ele>328.0</ele><time>2026-04-06T10:02:36Z</time></trkpt><trkpt lat="43.9703856622164" lon="12.077846445353579"><ele>328.0</ele><time>2026-04-06T10:02:37Z</time></trkpt><trkpt lat="43.97039955937132" lon="12.077983975079439"><ele>328.0</ele><time>2026-04-06T10:02:38Z</time></trkpt><trkpt lat="43.97039386900545" lon="12.078120214333621"><ele>328.0</ele><time>2026-04-06T10:02:39Z</time></trkpt><trkpt lat="43.97039498162547" lon="12.0782532133147"><ele>328.0</ele><time>2026-04-06T10:02:40Z</time></trkpt><trkpt lat="43.97039267115333" lon="12.07838220843008"><ele>328.0</ele><time>2026-04-06T10:02:41Z</time></trkpt><trkpt lat="43.97037752845156" lon="12.078530870088658"><ele>327.25</ele><time>2026-04-06T10:02:42Z</time></trkpt><trkpt lat="43.97035230182115" lon="12.07869274202565"><ele>326.5</ele><time>2026-04-06T10:02:43Z</time></trkpt><trkpt lat="43.970316616865546" lon="12.078842925099764"><ele>325.75</ele><time>2026-04-06T10:02:44Z</time></trkpt><trkpt lat="43.97027780263961" lon="12.078991809197106"><ele>325.0</ele><time>2026-04-06T10:02:45Z</time></trkpt><trkpt lat="43.970245726399874" lon="12.079145631938028"><ele>325.0</ele><time>2026-04-06T10:02:46Z</time></trkpt><trkpt lat="43.970199619596315" lon="12.079292297865555"><ele>325.0</ele><time>2026-04-06T10:02:47Z</time></trkpt><trkpt lat="43.97016732446145" lon="12.079451929895262"><ele>325.0</ele><time>2026-04-06T10:02:48Z</time></trkpt><trkpt lat="43.970128656289546" lon="12.07961571732712"><ele>325.0</ele><time>2026-04-06T10:02:49Z</time></trkpt><trkpt lat="43.97009862071246" lon="12.07977497681813"><ele>324.75</ele><time>2026-04-06T10:02:50Z</time></trkpt><trkpt lat="43.97005620670771" lon="12.079937974767319"><ele>324.5</ele><time>2026-04-06T10:02:51Z</time></trkpt><trkpt lat="43.97001656870378" lon="12.080090398093265"><ele>324.25</ele><time>2026-04-06T10:02:52Z</time></trkpt><trkpt lat="43.96997749666637" lon="12.080237580345452"><ele>324.0</ele><time>2026-04-06T10:02:53Z</time></trkpt><trkpt lat="43.969944645334074" lon="12.080378956504253"><ele>321.8</ele><time>2026-04-06T10:02:54Z</time></trkpt><trkpt lat="43.969917299564464" lon="12.080505828325785"><ele>319.59999999999997</ele><time>2026-04-06T10:02:55Z</time></trkpt><trkpt lat="43.96989623543822" lon="12.080611934584194"><ele>317.4</ele><time>2026-04-06T10:02:56Z</time></trkpt><trkpt lat="43.96987598707587" lon="12.080700333154951"><ele>315.2</ele><time>2026-04-06T10:02:57Z</time></trkpt><trkpt lat="43.96985167235287" lon="12.08082161951465"><ele>313.0</ele><time>2026-04-06T10:02:59Z</time></trkpt><trkpt lat="43.96981084598975" lon="12.080990952117167"><ele>313.0</ele><time>2026-04-06T10:03:01Z</time></trkpt><trkpt lat="43.96970284921919" lon="12.081034879813332"><ele>313.0</ele><time>2026-04-06T10:03:02Z</time></trkpt><trkpt lat="43.969704485737736" lon="12.081133665968684"><ele>313.0</ele><time>2026-04-06T10:03:05Z</time></trkpt></trkseg></trk></gpx>